<?xml version="1.0" encoding="UTF-8"?>
<gpx xmlns="http://www.topografix.com/GPX/1/1"
     creator="GpsDump 4.92"
     version="1.1"
     xmlns:xsi="http://www.w3.org/2001/XMLSchema-instance"
     xsi:schemaLocation="http://www.topografix.com/GPX/1/1 http://www.topografix.com/GPX/1/1/gpx.xsd">
  <metadata>
    <link href="http://www.gethome.no/stein.sorensen/">
      <text>GPS dump for www.flightlog.org</text>
    </link>
    <time>2017-10-01T08:33:46Z</time>
    <bounds minlat="41.073633" minlon="-3.717533" maxlat="41.273500" maxlon="-3.473700"/>
  </metadata>
  <trk>
    <name>Track 001</name>
    <trkseg>
      <trkpt lat="41.077433" lon="-3.708083">
        <ele>1846.0</ele>
        <time>2017-09-30T11:54:17Z</time>
      </trkpt>
      <trkpt lat="41.077467" lon="-3.708117">
        <ele>1845.0</ele>
        <time>2017-09-30T11:54:18Z</time>
      </trkpt>
      <trkpt lat="41.077500" lon="-3.708150">
        <ele>1845.0</ele>
        <time>2017-09-30T11:54:19Z</time>
      </trkpt>
      <trkpt lat="41.077550" lon="-3.708183">
        <ele>1847.0</ele>
        <time>2017-09-30T11:54:20Z</time>
      </trkpt>
      <trkpt lat="41.077583" lon="-3.708200">
        <ele>1849.0</ele>
        <time>2017-09-30T11:54:21Z</time>
      </trkpt>
      <trkpt lat="41.077600" lon="-3.708217">
        <ele>1851.0</ele>
        <time>2017-09-30T11:54:22Z</time>
      </trkpt>
      <trkpt lat="41.077617" lon="-3.708233">
        <ele>1853.0</ele>
        <time>2017-09-30T11:54:23Z</time>
      </trkpt>
      <trkpt lat="41.077617" lon="-3.708267">
        <ele>1853.0</ele>
        <time>2017-09-30T11:54:24Z</time>
      </trkpt>
      <trkpt lat="41.077617" lon="-3.708300">
        <ele>1854.0</ele>
        <time>2017-09-30T11:54:25Z</time>
      </trkpt>
      <trkpt lat="41.077617" lon="-3.708333">
        <ele>1856.0</ele>
        <time>2017-09-30T11:54:26Z</time>
      </trkpt>
      <trkpt lat="41.077633" lon="-3.708367">
        <ele>1857.0</ele>
        <time>2017-09-30T11:54:27Z</time>
      </trkpt>
      <trkpt lat="41.077633" lon="-3.708383">
        <ele>1859.0</ele>
        <time>2017-09-30T11:54:28Z</time>
      </trkpt>
      <trkpt lat="41.077650" lon="-3.708417">
        <ele>1860.0</ele>
        <time>2017-09-30T11:54:29Z</time>
      </trkpt>
      <trkpt lat="41.077667" lon="-3.708450">
        <ele>1860.0</ele>
        <time>2017-09-30T11:54:30Z</time>
      </trkpt>
      <trkpt lat="41.077683" lon="-3.708483">
        <ele>1861.0</ele>
        <time>2017-09-30T11:54:31Z</time>
      </trkpt>
      <trkpt lat="41.077683" lon="-3.708533">
        <ele>1862.0</ele>
        <time>2017-09-30T11:54:32Z</time>
      </trkpt>
      <trkpt lat="41.077700" lon="-3.708550">
        <ele>1864.0</ele>
        <time>2017-09-30T11:54:33Z</time>
      </trkpt>
      <trkpt lat="41.077700" lon="-3.708583">
        <ele>1865.0</ele>
        <time>2017-09-30T11:54:34Z</time>
      </trkpt>
      <trkpt lat="41.077717" lon="-3.708600">
        <ele>1866.0</ele>
        <time>2017-09-30T11:54:35Z</time>
      </trkpt>
      <trkpt lat="41.077733" lon="-3.708633">
        <ele>1867.0</ele>
        <time>2017-09-30T11:54:36Z</time>
      </trkpt>
      <trkpt lat="41.077750" lon="-3.708667">
        <ele>1867.0</ele>
        <time>2017-09-30T11:54:37Z</time>
      </trkpt>
      <trkpt lat="41.077750" lon="-3.708683">
        <ele>1868.0</ele>
        <time>2017-09-30T11:54:38Z</time>
      </trkpt>
      <trkpt lat="41.077750" lon="-3.708717">
        <ele>1868.0</ele>
        <time>2017-09-30T11:54:39Z</time>
      </trkpt>
      <trkpt lat="41.077767" lon="-3.708767">
        <ele>1869.0</ele>
        <time>2017-09-30T11:54:40Z</time>
      </trkpt>
      <trkpt lat="41.077783" lon="-3.708800">
        <ele>1870.0</ele>
        <time>2017-09-30T11:54:41Z</time>
      </trkpt>
      <trkpt lat="41.077800" lon="-3.708833">
        <ele>1871.0</ele>
        <time>2017-09-30T11:54:42Z</time>
      </trkpt>
      <trkpt lat="41.077817" lon="-3.708867">
        <ele>1872.0</ele>
        <time>2017-09-30T11:54:43Z</time>
      </trkpt>
      <trkpt lat="41.077833" lon="-3.708883">
        <ele>1873.0</ele>
        <time>2017-09-30T11:54:44Z</time>
      </trkpt>
      <trkpt lat="41.077850" lon="-3.708900">
        <ele>1873.0</ele>
        <time>2017-09-30T11:54:45Z</time>
      </trkpt>
      <trkpt lat="41.077883" lon="-3.708933">
        <ele>1873.0</ele>
        <time>2017-09-30T11:54:46Z</time>
      </trkpt>
      <trkpt lat="41.077900" lon="-3.708967">
        <ele>1872.0</ele>
        <time>2017-09-30T11:54:47Z</time>
      </trkpt>
      <trkpt lat="41.077917" lon="-3.709000">
        <ele>1872.0</ele>
        <time>2017-09-30T11:54:48Z</time>
      </trkpt>
      <trkpt lat="41.077933" lon="-3.709050">
        <ele>1872.0</ele>
        <time>2017-09-30T11:54:49Z</time>
      </trkpt>
      <trkpt lat="41.077917" lon="-3.709117">
        <ele>1873.0</ele>
        <time>2017-09-30T11:54:50Z</time>
      </trkpt>
      <trkpt lat="41.077917" lon="-3.709150">
        <ele>1874.0</ele>
        <time>2017-09-30T11:54:51Z</time>
      </trkpt>
      <trkpt lat="41.077917" lon="-3.709183">
        <ele>1875.0</ele>
        <time>2017-09-30T11:54:52Z</time>
      </trkpt>
      <trkpt lat="41.077900" lon="-3.709233">
        <ele>1875.0</ele>
        <time>2017-09-30T11:54:53Z</time>
      </trkpt>
      <trkpt lat="41.077883" lon="-3.709267">
        <ele>1874.0</ele>
        <time>2017-09-30T11:54:54Z</time>
      </trkpt>
      <trkpt lat="41.077883" lon="-3.709300">
        <ele>1873.0</ele>
        <time>2017-09-30T11:54:55Z</time>
      </trkpt>
      <trkpt lat="41.077867" lon="-3.709350">
        <ele>1872.0</ele>
        <time>2017-09-30T11:54:56Z</time>
      </trkpt>
      <trkpt lat="41.077850" lon="-3.709400">
        <ele>1872.0</ele>
        <time>2017-09-30T11:54:57Z</time>
      </trkpt>
      <trkpt lat="41.077833" lon="-3.709450">
        <ele>1872.0</ele>
        <time>2017-09-30T11:54:58Z</time>
      </trkpt>
      <trkpt lat="41.077800" lon="-3.709500">
        <ele>1872.0</ele>
        <time>2017-09-30T11:54:59Z</time>
      </trkpt>
      <trkpt lat="41.077783" lon="-3.709533">
        <ele>1873.0</ele>
        <time>2017-09-30T11:55:00Z</time>
      </trkpt>
      <trkpt lat="41.077767" lon="-3.709583">
        <ele>1874.0</ele>
        <time>2017-09-30T11:55:01Z</time>
      </trkpt>
      <trkpt lat="41.077750" lon="-3.709617">
        <ele>1875.0</ele>
        <time>2017-09-30T11:55:02Z</time>
      </trkpt>
      <trkpt lat="41.077750" lon="-3.709667">
        <ele>1875.0</ele>
        <time>2017-09-30T11:55:03Z</time>
      </trkpt>
      <trkpt lat="41.077750" lon="-3.709700">
        <ele>1876.0</ele>
        <time>2017-09-30T11:55:04Z</time>
      </trkpt>
      <trkpt lat="41.077783" lon="-3.709733">
        <ele>1877.0</ele>
        <time>2017-09-30T11:55:05Z</time>
      </trkpt>
      <trkpt lat="41.077833" lon="-3.709733">
        <ele>1877.0</ele>
        <time>2017-09-30T11:55:06Z</time>
      </trkpt>
      <trkpt lat="41.077900" lon="-3.709683">
        <ele>1877.0</ele>
        <time>2017-09-30T11:55:07Z</time>
      </trkpt>
      <trkpt lat="41.077983" lon="-3.709600">
        <ele>1877.0</ele>
        <time>2017-09-30T11:55:08Z</time>
      </trkpt>
      <trkpt lat="41.078050" lon="-3.709450">
        <ele>1876.0</ele>
        <time>2017-09-30T11:55:09Z</time>
      </trkpt>
      <trkpt lat="41.078083" lon="-3.709267">
        <ele>1875.0</ele>
        <time>2017-09-30T11:55:10Z</time>
      </trkpt>
      <trkpt lat="41.078050" lon="-3.709067">
        <ele>1873.0</ele>
        <time>2017-09-30T11:55:11Z</time>
      </trkpt>
      <trkpt lat="41.078000" lon="-3.708867">
        <ele>1871.0</ele>
        <time>2017-09-30T11:55:12Z</time>
      </trkpt>
      <trkpt lat="41.077900" lon="-3.708717">
        <ele>1871.0</ele>
        <time>2017-09-30T11:55:13Z</time>
      </trkpt>
      <trkpt lat="41.077783" lon="-3.708617">
        <ele>1871.0</ele>
        <time>2017-09-30T11:55:14Z</time>
      </trkpt>
      <trkpt lat="41.077683" lon="-3.708583">
        <ele>1870.0</ele>
        <time>2017-09-30T11:55:15Z</time>
      </trkpt>
      <trkpt lat="41.077600" lon="-3.708600">
        <ele>1869.0</ele>
        <time>2017-09-30T11:55:16Z</time>
      </trkpt>
      <trkpt lat="41.077533" lon="-3.708667">
        <ele>1868.0</ele>
        <time>2017-09-30T11:55:17Z</time>
      </trkpt>
      <trkpt lat="41.077533" lon="-3.708733">
        <ele>1868.0</ele>
        <time>2017-09-30T11:55:18Z</time>
      </trkpt>
      <trkpt lat="41.077550" lon="-3.708800">
        <ele>1870.0</ele>
        <time>2017-09-30T11:55:19Z</time>
      </trkpt>
      <trkpt lat="41.077567" lon="-3.708817">
        <ele>1872.0</ele>
        <time>2017-09-30T11:55:20Z</time>
      </trkpt>
      <trkpt lat="41.077583" lon="-3.708833">
        <ele>1875.0</ele>
        <time>2017-09-30T11:55:21Z</time>
      </trkpt>
      <trkpt lat="41.077617" lon="-3.708850">
        <ele>1876.0</ele>
        <time>2017-09-30T11:55:22Z</time>
      </trkpt>
      <trkpt lat="41.077633" lon="-3.708850">
        <ele>1877.0</ele>
        <time>2017-09-30T11:55:23Z</time>
      </trkpt>
      <trkpt lat="41.077650" lon="-3.708867">
        <ele>1877.0</ele>
        <time>2017-09-30T11:55:24Z</time>
      </trkpt>
      <trkpt lat="41.077683" lon="-3.708900">
        <ele>1876.0</ele>
        <time>2017-09-30T11:55:25Z</time>
      </trkpt>
      <trkpt lat="41.077700" lon="-3.708933">
        <ele>1876.0</ele>
        <time>2017-09-30T11:55:26Z</time>
      </trkpt>
      <trkpt lat="41.077733" lon="-3.708983">
        <ele>1876.0</ele>
        <time>2017-09-30T11:55:27Z</time>
      </trkpt>
      <trkpt lat="41.077750" lon="-3.709017">
        <ele>1876.0</ele>
        <time>2017-09-30T11:55:28Z</time>
      </trkpt>
      <trkpt lat="41.077767" lon="-3.709050">
        <ele>1877.0</ele>
        <time>2017-09-30T11:55:29Z</time>
      </trkpt>
      <trkpt lat="41.077800" lon="-3.709083">
        <ele>1877.0</ele>
        <time>2017-09-30T11:55:30Z</time>
      </trkpt>
      <trkpt lat="41.077817" lon="-3.709117">
        <ele>1877.0</ele>
        <time>2017-09-30T11:55:31Z</time>
      </trkpt>
      <trkpt lat="41.077833" lon="-3.709150">
        <ele>1876.0</ele>
        <time>2017-09-30T11:55:32Z</time>
      </trkpt>
      <trkpt lat="41.077850" lon="-3.709200">
        <ele>1875.0</ele>
        <time>2017-09-30T11:55:33Z</time>
      </trkpt>
      <trkpt lat="41.077850" lon="-3.709250">
        <ele>1874.0</ele>
        <time>2017-09-30T11:55:34Z</time>
      </trkpt>
      <trkpt lat="41.077867" lon="-3.709300">
        <ele>1874.0</ele>
        <time>2017-09-30T11:55:35Z</time>
      </trkpt>
      <trkpt lat="41.077883" lon="-3.709367">
        <ele>1874.0</ele>
        <time>2017-09-30T11:55:36Z</time>
      </trkpt>
      <trkpt lat="41.077883" lon="-3.709417">
        <ele>1874.0</ele>
        <time>2017-09-30T11:55:37Z</time>
      </trkpt>
      <trkpt lat="41.077883" lon="-3.709467">
        <ele>1874.0</ele>
        <time>2017-09-30T11:55:38Z</time>
      </trkpt>
      <trkpt lat="41.077883" lon="-3.709517">
        <ele>1873.0</ele>
        <time>2017-09-30T11:55:39Z</time>
      </trkpt>
      <trkpt lat="41.077883" lon="-3.709583">
        <ele>1873.0</ele>
        <time>2017-09-30T11:55:40Z</time>
      </trkpt>
      <trkpt lat="41.077867" lon="-3.709633">
        <ele>1872.0</ele>
        <time>2017-09-30T11:55:41Z</time>
      </trkpt>
      <trkpt lat="41.077867" lon="-3.709700">
        <ele>1871.0</ele>
        <time>2017-09-30T11:55:42Z</time>
      </trkpt>
      <trkpt lat="41.077867" lon="-3.709750">
        <ele>1871.0</ele>
        <time>2017-09-30T11:55:43Z</time>
      </trkpt>
      <trkpt lat="41.077850" lon="-3.709817">
        <ele>1870.0</ele>
        <time>2017-09-30T11:55:44Z</time>
      </trkpt>
      <trkpt lat="41.077833" lon="-3.709867">
        <ele>1870.0</ele>
        <time>2017-09-30T11:55:45Z</time>
      </trkpt>
      <trkpt lat="41.077833" lon="-3.709917">
        <ele>1869.0</ele>
        <time>2017-09-30T11:55:46Z</time>
      </trkpt>
      <trkpt lat="41.077817" lon="-3.709983">
        <ele>1869.0</ele>
        <time>2017-09-30T11:55:47Z</time>
      </trkpt>
      <trkpt lat="41.077800" lon="-3.710050">
        <ele>1868.0</ele>
        <time>2017-09-30T11:55:48Z</time>
      </trkpt>
      <trkpt lat="41.077783" lon="-3.710117">
        <ele>1868.0</ele>
        <time>2017-09-30T11:55:49Z</time>
      </trkpt>
      <trkpt lat="41.077767" lon="-3.710183">
        <ele>1869.0</ele>
        <time>2017-09-30T11:55:50Z</time>
      </trkpt>
      <trkpt lat="41.077750" lon="-3.710233">
        <ele>1870.0</ele>
        <time>2017-09-30T11:55:51Z</time>
      </trkpt>
      <trkpt lat="41.077733" lon="-3.710283">
        <ele>1870.0</ele>
        <time>2017-09-30T11:55:52Z</time>
      </trkpt>
      <trkpt lat="41.077717" lon="-3.710333">
        <ele>1870.0</ele>
        <time>2017-09-30T11:55:53Z</time>
      </trkpt>
      <trkpt lat="41.077700" lon="-3.710400">
        <ele>1870.0</ele>
        <time>2017-09-30T11:55:54Z</time>
      </trkpt>
      <trkpt lat="41.077683" lon="-3.710450">
        <ele>1869.0</ele>
        <time>2017-09-30T11:55:55Z</time>
      </trkpt>
      <trkpt lat="41.077650" lon="-3.710517">
        <ele>1868.0</ele>
        <time>2017-09-30T11:55:56Z</time>
      </trkpt>
      <trkpt lat="41.077617" lon="-3.710567">
        <ele>1868.0</ele>
        <time>2017-09-30T11:55:57Z</time>
      </trkpt>
      <trkpt lat="41.077583" lon="-3.710633">
        <ele>1868.0</ele>
        <time>2017-09-30T11:55:58Z</time>
      </trkpt>
      <trkpt lat="41.077550" lon="-3.710683">
        <ele>1868.0</ele>
        <time>2017-09-30T11:55:59Z</time>
      </trkpt>
      <trkpt lat="41.077517" lon="-3.710733">
        <ele>1867.0</ele>
        <time>2017-09-30T11:56:00Z</time>
      </trkpt>
      <trkpt lat="41.077483" lon="-3.710783">
        <ele>1867.0</ele>
        <time>2017-09-30T11:56:01Z</time>
      </trkpt>
      <trkpt lat="41.077450" lon="-3.710850">
        <ele>1866.0</ele>
        <time>2017-09-30T11:56:02Z</time>
      </trkpt>
      <trkpt lat="41.077417" lon="-3.710900">
        <ele>1866.0</ele>
        <time>2017-09-30T11:56:03Z</time>
      </trkpt>
      <trkpt lat="41.077383" lon="-3.710967">
        <ele>1865.0</ele>
        <time>2017-09-30T11:56:04Z</time>
      </trkpt>
      <trkpt lat="41.077350" lon="-3.711017">
        <ele>1864.0</ele>
        <time>2017-09-30T11:56:05Z</time>
      </trkpt>
      <trkpt lat="41.077317" lon="-3.711083">
        <ele>1864.0</ele>
        <time>2017-09-30T11:56:06Z</time>
      </trkpt>
      <trkpt lat="41.077283" lon="-3.711133">
        <ele>1863.0</ele>
        <time>2017-09-30T11:56:07Z</time>
      </trkpt>
      <trkpt lat="41.077250" lon="-3.711200">
        <ele>1862.0</ele>
        <time>2017-09-30T11:56:08Z</time>
      </trkpt>
      <trkpt lat="41.077217" lon="-3.711250">
        <ele>1861.0</ele>
        <time>2017-09-30T11:56:09Z</time>
      </trkpt>
      <trkpt lat="41.077183" lon="-3.711317">
        <ele>1860.0</ele>
        <time>2017-09-30T11:56:10Z</time>
      </trkpt>
      <trkpt lat="41.077150" lon="-3.711367">
        <ele>1859.0</ele>
        <time>2017-09-30T11:56:11Z</time>
      </trkpt>
      <trkpt lat="41.077117" lon="-3.711450">
        <ele>1858.0</ele>
        <time>2017-09-30T11:56:12Z</time>
      </trkpt>
      <trkpt lat="41.077083" lon="-3.711517">
        <ele>1857.0</ele>
        <time>2017-09-30T11:56:13Z</time>
      </trkpt>
      <trkpt lat="41.077067" lon="-3.711583">
        <ele>1856.0</ele>
        <time>2017-09-30T11:56:14Z</time>
      </trkpt>
      <trkpt lat="41.077033" lon="-3.711633">
        <ele>1855.0</ele>
        <time>2017-09-30T11:56:15Z</time>
      </trkpt>
      <trkpt lat="41.077017" lon="-3.711700">
        <ele>1854.0</ele>
        <time>2017-09-30T11:56:16Z</time>
      </trkpt>
      <trkpt lat="41.076983" lon="-3.711767">
        <ele>1852.0</ele>
        <time>2017-09-30T11:56:17Z</time>
      </trkpt>
      <trkpt lat="41.076950" lon="-3.711833">
        <ele>1850.0</ele>
        <time>2017-09-30T11:56:18Z</time>
      </trkpt>
      <trkpt lat="41.076917" lon="-3.711900">
        <ele>1849.0</ele>
        <time>2017-09-30T11:56:19Z</time>
      </trkpt>
      <trkpt lat="41.076883" lon="-3.711967">
        <ele>1848.0</ele>
        <time>2017-09-30T11:56:20Z</time>
      </trkpt>
      <trkpt lat="41.076850" lon="-3.712017">
        <ele>1847.0</ele>
        <time>2017-09-30T11:56:21Z</time>
      </trkpt>
      <trkpt lat="41.076817" lon="-3.712083">
        <ele>1846.0</ele>
        <time>2017-09-30T11:56:22Z</time>
      </trkpt>
      <trkpt lat="41.076783" lon="-3.712133">
        <ele>1844.0</ele>
        <time>2017-09-30T11:56:23Z</time>
      </trkpt>
      <trkpt lat="41.076733" lon="-3.712200">
        <ele>1843.0</ele>
        <time>2017-09-30T11:56:24Z</time>
      </trkpt>
      <trkpt lat="41.076700" lon="-3.712250">
        <ele>1841.0</ele>
        <time>2017-09-30T11:56:25Z</time>
      </trkpt>
      <trkpt lat="41.076667" lon="-3.712317">
        <ele>1839.0</ele>
        <time>2017-09-30T11:56:26Z</time>
      </trkpt>
      <trkpt lat="41.076650" lon="-3.712383">
        <ele>1838.0</ele>
        <time>2017-09-30T11:56:27Z</time>
      </trkpt>
      <trkpt lat="41.076617" lon="-3.712450">
        <ele>1837.0</ele>
        <time>2017-09-30T11:56:28Z</time>
      </trkpt>
      <trkpt lat="41.076567" lon="-3.712517">
        <ele>1836.0</ele>
        <time>2017-09-30T11:56:29Z</time>
      </trkpt>
      <trkpt lat="41.076533" lon="-3.712583">
        <ele>1835.0</ele>
        <time>2017-09-30T11:56:30Z</time>
      </trkpt>
      <trkpt lat="41.076500" lon="-3.712650">
        <ele>1834.0</ele>
        <time>2017-09-30T11:56:31Z</time>
      </trkpt>
      <trkpt lat="41.076450" lon="-3.712717">
        <ele>1832.0</ele>
        <time>2017-09-30T11:56:32Z</time>
      </trkpt>
      <trkpt lat="41.076417" lon="-3.712783">
        <ele>1832.0</ele>
        <time>2017-09-30T11:56:33Z</time>
      </trkpt>
      <trkpt lat="41.076367" lon="-3.712867">
        <ele>1831.0</ele>
        <time>2017-09-30T11:56:34Z</time>
      </trkpt>
      <trkpt lat="41.076333" lon="-3.712933">
        <ele>1830.0</ele>
        <time>2017-09-30T11:56:35Z</time>
      </trkpt>
      <trkpt lat="41.076283" lon="-3.713000">
        <ele>1830.0</ele>
        <time>2017-09-30T11:56:36Z</time>
      </trkpt>
      <trkpt lat="41.076233" lon="-3.713067">
        <ele>1831.0</ele>
        <time>2017-09-30T11:56:37Z</time>
      </trkpt>
      <trkpt lat="41.076200" lon="-3.713133">
        <ele>1832.0</ele>
        <time>2017-09-30T11:56:38Z</time>
      </trkpt>
      <trkpt lat="41.076150" lon="-3.713183">
        <ele>1833.0</ele>
        <time>2017-09-30T11:56:39Z</time>
      </trkpt>
      <trkpt lat="41.076117" lon="-3.713250">
        <ele>1832.0</ele>
        <time>2017-09-30T11:56:40Z</time>
      </trkpt>
      <trkpt lat="41.076083" lon="-3.713317">
        <ele>1832.0</ele>
        <time>2017-09-30T11:56:41Z</time>
      </trkpt>
      <trkpt lat="41.076050" lon="-3.713383">
        <ele>1831.0</ele>
        <time>2017-09-30T11:56:42Z</time>
      </trkpt>
      <trkpt lat="41.076000" lon="-3.713467">
        <ele>1832.0</ele>
        <time>2017-09-30T11:56:43Z</time>
      </trkpt>
      <trkpt lat="41.075950" lon="-3.713517">
        <ele>1834.0</ele>
        <time>2017-09-30T11:56:44Z</time>
      </trkpt>
      <trkpt lat="41.075917" lon="-3.713583">
        <ele>1835.0</ele>
        <time>2017-09-30T11:56:45Z</time>
      </trkpt>
      <trkpt lat="41.075867" lon="-3.713633">
        <ele>1835.0</ele>
        <time>2017-09-30T11:56:46Z</time>
      </trkpt>
      <trkpt lat="41.075850" lon="-3.713683">
        <ele>1835.0</ele>
        <time>2017-09-30T11:56:47Z</time>
      </trkpt>
      <trkpt lat="41.075817" lon="-3.713767">
        <ele>1834.0</ele>
        <time>2017-09-30T11:56:48Z</time>
      </trkpt>
      <trkpt lat="41.075817" lon="-3.713833">
        <ele>1834.0</ele>
        <time>2017-09-30T11:56:49Z</time>
      </trkpt>
      <trkpt lat="41.075833" lon="-3.713917">
        <ele>1835.0</ele>
        <time>2017-09-30T11:56:50Z</time>
      </trkpt>
      <trkpt lat="41.075850" lon="-3.713967">
        <ele>1836.0</ele>
        <time>2017-09-30T11:56:51Z</time>
      </trkpt>
      <trkpt lat="41.075883" lon="-3.714017">
        <ele>1837.0</ele>
        <time>2017-09-30T11:56:52Z</time>
      </trkpt>
      <trkpt lat="41.075917" lon="-3.714050">
        <ele>1838.0</ele>
        <time>2017-09-30T11:56:53Z</time>
      </trkpt>
      <trkpt lat="41.075967" lon="-3.714083">
        <ele>1838.0</ele>
        <time>2017-09-30T11:56:54Z</time>
      </trkpt>
      <trkpt lat="41.076017" lon="-3.714067">
        <ele>1837.0</ele>
        <time>2017-09-30T11:56:55Z</time>
      </trkpt>
      <trkpt lat="41.076100" lon="-3.714017">
        <ele>1836.0</ele>
        <time>2017-09-30T11:56:56Z</time>
      </trkpt>
      <trkpt lat="41.076150" lon="-3.713917">
        <ele>1835.0</ele>
        <time>2017-09-30T11:56:57Z</time>
      </trkpt>
      <trkpt lat="41.076200" lon="-3.713767">
        <ele>1835.0</ele>
        <time>2017-09-30T11:56:58Z</time>
      </trkpt>
      <trkpt lat="41.076233" lon="-3.713633">
        <ele>1836.0</ele>
        <time>2017-09-30T11:56:59Z</time>
      </trkpt>
      <trkpt lat="41.076250" lon="-3.713483">
        <ele>1838.0</ele>
        <time>2017-09-30T11:57:00Z</time>
      </trkpt>
      <trkpt lat="41.076250" lon="-3.713350">
        <ele>1838.0</ele>
        <time>2017-09-30T11:57:01Z</time>
      </trkpt>
      <trkpt lat="41.076233" lon="-3.713200">
        <ele>1838.0</ele>
        <time>2017-09-30T11:57:02Z</time>
      </trkpt>
      <trkpt lat="41.076233" lon="-3.713050">
        <ele>1837.0</ele>
        <time>2017-09-30T11:57:03Z</time>
      </trkpt>
      <trkpt lat="41.076233" lon="-3.712883">
        <ele>1835.0</ele>
        <time>2017-09-30T11:57:04Z</time>
      </trkpt>
      <trkpt lat="41.076267" lon="-3.712733">
        <ele>1834.0</ele>
        <time>2017-09-30T11:57:05Z</time>
      </trkpt>
      <trkpt lat="41.076317" lon="-3.712600">
        <ele>1834.0</ele>
        <time>2017-09-30T11:57:06Z</time>
      </trkpt>
      <trkpt lat="41.076383" lon="-3.712517">
        <ele>1833.0</ele>
        <time>2017-09-30T11:57:07Z</time>
      </trkpt>
      <trkpt lat="41.076467" lon="-3.712467">
        <ele>1834.0</ele>
        <time>2017-09-30T11:57:08Z</time>
      </trkpt>
      <trkpt lat="41.076533" lon="-3.712433">
        <ele>1835.0</ele>
        <time>2017-09-30T11:57:09Z</time>
      </trkpt>
      <trkpt lat="41.076583" lon="-3.712450">
        <ele>1835.0</ele>
        <time>2017-09-30T11:57:10Z</time>
      </trkpt>
      <trkpt lat="41.076617" lon="-3.712483">
        <ele>1835.0</ele>
        <time>2017-09-30T11:57:11Z</time>
      </trkpt>
      <trkpt lat="41.076633" lon="-3.712550">
        <ele>1834.0</ele>
        <time>2017-09-30T11:57:12Z</time>
      </trkpt>
      <trkpt lat="41.076633" lon="-3.712617">
        <ele>1834.0</ele>
        <time>2017-09-30T11:57:13Z</time>
      </trkpt>
      <trkpt lat="41.076600" lon="-3.712700">
        <ele>1833.0</ele>
        <time>2017-09-30T11:57:14Z</time>
      </trkpt>
      <trkpt lat="41.076567" lon="-3.712750">
        <ele>1833.0</ele>
        <time>2017-09-30T11:57:15Z</time>
      </trkpt>
      <trkpt lat="41.076517" lon="-3.712800">
        <ele>1834.0</ele>
        <time>2017-09-30T11:57:16Z</time>
      </trkpt>
      <trkpt lat="41.076467" lon="-3.712850">
        <ele>1834.0</ele>
        <time>2017-09-30T11:57:17Z</time>
      </trkpt>
      <trkpt lat="41.076433" lon="-3.712883">
        <ele>1834.0</ele>
        <time>2017-09-30T11:57:18Z</time>
      </trkpt>
      <trkpt lat="41.076383" lon="-3.712933">
        <ele>1833.0</ele>
        <time>2017-09-30T11:57:19Z</time>
      </trkpt>
      <trkpt lat="41.076350" lon="-3.713000">
        <ele>1833.0</ele>
        <time>2017-09-30T11:57:20Z</time>
      </trkpt>
      <trkpt lat="41.076300" lon="-3.713050">
        <ele>1832.0</ele>
        <time>2017-09-30T11:57:21Z</time>
      </trkpt>
      <trkpt lat="41.076250" lon="-3.713100">
        <ele>1832.0</ele>
        <time>2017-09-30T11:57:22Z</time>
      </trkpt>
      <trkpt lat="41.076200" lon="-3.713150">
        <ele>1832.0</ele>
        <time>2017-09-30T11:57:23Z</time>
      </trkpt>
      <trkpt lat="41.076150" lon="-3.713200">
        <ele>1831.0</ele>
        <time>2017-09-30T11:57:24Z</time>
      </trkpt>
      <trkpt lat="41.076117" lon="-3.713250">
        <ele>1831.0</ele>
        <time>2017-09-30T11:57:25Z</time>
      </trkpt>
      <trkpt lat="41.076067" lon="-3.713317">
        <ele>1830.0</ele>
        <time>2017-09-30T11:57:26Z</time>
      </trkpt>
      <trkpt lat="41.076017" lon="-3.713367">
        <ele>1829.0</ele>
        <time>2017-09-30T11:57:27Z</time>
      </trkpt>
      <trkpt lat="41.075967" lon="-3.713433">
        <ele>1829.0</ele>
        <time>2017-09-30T11:57:28Z</time>
      </trkpt>
      <trkpt lat="41.075917" lon="-3.713483">
        <ele>1829.0</ele>
        <time>2017-09-30T11:57:29Z</time>
      </trkpt>
      <trkpt lat="41.075883" lon="-3.713533">
        <ele>1830.0</ele>
        <time>2017-09-30T11:57:30Z</time>
      </trkpt>
      <trkpt lat="41.075850" lon="-3.713567">
        <ele>1829.0</ele>
        <time>2017-09-30T11:57:31Z</time>
      </trkpt>
      <trkpt lat="41.075817" lon="-3.713617">
        <ele>1828.0</ele>
        <time>2017-09-30T11:57:32Z</time>
      </trkpt>
      <trkpt lat="41.075767" lon="-3.713667">
        <ele>1826.0</ele>
        <time>2017-09-30T11:57:33Z</time>
      </trkpt>
      <trkpt lat="41.075717" lon="-3.713733">
        <ele>1824.0</ele>
        <time>2017-09-30T11:57:34Z</time>
      </trkpt>
      <trkpt lat="41.075667" lon="-3.713817">
        <ele>1824.0</ele>
        <time>2017-09-30T11:57:35Z</time>
      </trkpt>
      <trkpt lat="41.075617" lon="-3.713867">
        <ele>1825.0</ele>
        <time>2017-09-30T11:57:36Z</time>
      </trkpt>
      <trkpt lat="41.075567" lon="-3.713933">
        <ele>1826.0</ele>
        <time>2017-09-30T11:57:37Z</time>
      </trkpt>
      <trkpt lat="41.075533" lon="-3.713967">
        <ele>1826.0</ele>
        <time>2017-09-30T11:57:38Z</time>
      </trkpt>
      <trkpt lat="41.075483" lon="-3.714033">
        <ele>1826.0</ele>
        <time>2017-09-30T11:57:39Z</time>
      </trkpt>
      <trkpt lat="41.075450" lon="-3.714083">
        <ele>1826.0</ele>
        <time>2017-09-30T11:57:40Z</time>
      </trkpt>
      <trkpt lat="41.075417" lon="-3.714150">
        <ele>1826.0</ele>
        <time>2017-09-30T11:57:41Z</time>
      </trkpt>
      <trkpt lat="41.075383" lon="-3.714217">
        <ele>1826.0</ele>
        <time>2017-09-30T11:57:42Z</time>
      </trkpt>
      <trkpt lat="41.075350" lon="-3.714267">
        <ele>1827.0</ele>
        <time>2017-09-30T11:57:43Z</time>
      </trkpt>
      <trkpt lat="41.075333" lon="-3.714333">
        <ele>1828.0</ele>
        <time>2017-09-30T11:57:44Z</time>
      </trkpt>
      <trkpt lat="41.075317" lon="-3.714383">
        <ele>1829.0</ele>
        <time>2017-09-30T11:57:45Z</time>
      </trkpt>
      <trkpt lat="41.075300" lon="-3.714433">
        <ele>1829.0</ele>
        <time>2017-09-30T11:57:46Z</time>
      </trkpt>
      <trkpt lat="41.075283" lon="-3.714500">
        <ele>1829.0</ele>
        <time>2017-09-30T11:57:47Z</time>
      </trkpt>
      <trkpt lat="41.075250" lon="-3.714567">
        <ele>1829.0</ele>
        <time>2017-09-30T11:57:48Z</time>
      </trkpt>
      <trkpt lat="41.075217" lon="-3.714633">
        <ele>1830.0</ele>
        <time>2017-09-30T11:57:49Z</time>
      </trkpt>
      <trkpt lat="41.075183" lon="-3.714700">
        <ele>1831.0</ele>
        <time>2017-09-30T11:57:50Z</time>
      </trkpt>
      <trkpt lat="41.075150" lon="-3.714750">
        <ele>1832.0</ele>
        <time>2017-09-30T11:57:51Z</time>
      </trkpt>
      <trkpt lat="41.075117" lon="-3.714800">
        <ele>1832.0</ele>
        <time>2017-09-30T11:57:52Z</time>
      </trkpt>
      <trkpt lat="41.075083" lon="-3.714867">
        <ele>1832.0</ele>
        <time>2017-09-30T11:57:53Z</time>
      </trkpt>
      <trkpt lat="41.075050" lon="-3.714917">
        <ele>1833.0</ele>
        <time>2017-09-30T11:57:54Z</time>
      </trkpt>
      <trkpt lat="41.075000" lon="-3.714967">
        <ele>1835.0</ele>
        <time>2017-09-30T11:57:55Z</time>
      </trkpt>
      <trkpt lat="41.074967" lon="-3.715017">
        <ele>1836.0</ele>
        <time>2017-09-30T11:57:56Z</time>
      </trkpt>
      <trkpt lat="41.074950" lon="-3.715050">
        <ele>1837.0</ele>
        <time>2017-09-30T11:57:57Z</time>
      </trkpt>
      <trkpt lat="41.074933" lon="-3.715100">
        <ele>1838.0</ele>
        <time>2017-09-30T11:57:58Z</time>
      </trkpt>
      <trkpt lat="41.074933" lon="-3.715150">
        <ele>1837.0</ele>
        <time>2017-09-30T11:57:59Z</time>
      </trkpt>
      <trkpt lat="41.074933" lon="-3.715200">
        <ele>1837.0</ele>
        <time>2017-09-30T11:58:00Z</time>
      </trkpt>
      <trkpt lat="41.074933" lon="-3.715250">
        <ele>1838.0</ele>
        <time>2017-09-30T11:58:01Z</time>
      </trkpt>
      <trkpt lat="41.074917" lon="-3.715317">
        <ele>1839.0</ele>
        <time>2017-09-30T11:58:02Z</time>
      </trkpt>
      <trkpt lat="41.074867" lon="-3.715350">
        <ele>1838.0</ele>
        <time>2017-09-30T11:58:03Z</time>
      </trkpt>
      <trkpt lat="41.074817" lon="-3.715383">
        <ele>1838.0</ele>
        <time>2017-09-30T11:58:04Z</time>
      </trkpt>
      <trkpt lat="41.074750" lon="-3.715417">
        <ele>1838.0</ele>
        <time>2017-09-30T11:58:05Z</time>
      </trkpt>
      <trkpt lat="41.074700" lon="-3.715467">
        <ele>1838.0</ele>
        <time>2017-09-30T11:58:06Z</time>
      </trkpt>
      <trkpt lat="41.074650" lon="-3.715517">
        <ele>1838.0</ele>
        <time>2017-09-30T11:58:07Z</time>
      </trkpt>
      <trkpt lat="41.074617" lon="-3.715567">
        <ele>1838.0</ele>
        <time>2017-09-30T11:58:08Z</time>
      </trkpt>
      <trkpt lat="41.074583" lon="-3.715600">
        <ele>1839.0</ele>
        <time>2017-09-30T11:58:09Z</time>
      </trkpt>
      <trkpt lat="41.074533" lon="-3.715633">
        <ele>1839.0</ele>
        <time>2017-09-30T11:58:10Z</time>
      </trkpt>
      <trkpt lat="41.074500" lon="-3.715650">
        <ele>1838.0</ele>
        <time>2017-09-30T11:58:11Z</time>
      </trkpt>
      <trkpt lat="41.074450" lon="-3.715683">
        <ele>1837.0</ele>
        <time>2017-09-30T11:58:12Z</time>
      </trkpt>
      <trkpt lat="41.074400" lon="-3.715717">
        <ele>1835.0</ele>
        <time>2017-09-30T11:58:13Z</time>
      </trkpt>
      <trkpt lat="41.074350" lon="-3.715783">
        <ele>1834.0</ele>
        <time>2017-09-30T11:58:14Z</time>
      </trkpt>
      <trkpt lat="41.074300" lon="-3.715817">
        <ele>1833.0</ele>
        <time>2017-09-30T11:58:15Z</time>
      </trkpt>
      <trkpt lat="41.074250" lon="-3.715850">
        <ele>1833.0</ele>
        <time>2017-09-30T11:58:16Z</time>
      </trkpt>
      <trkpt lat="41.074200" lon="-3.715883">
        <ele>1833.0</ele>
        <time>2017-09-30T11:58:17Z</time>
      </trkpt>
      <trkpt lat="41.074167" lon="-3.715917">
        <ele>1831.0</ele>
        <time>2017-09-30T11:58:18Z</time>
      </trkpt>
      <trkpt lat="41.074133" lon="-3.715967">
        <ele>1830.0</ele>
        <time>2017-09-30T11:58:19Z</time>
      </trkpt>
      <trkpt lat="41.074083" lon="-3.716050">
        <ele>1829.0</ele>
        <time>2017-09-30T11:58:20Z</time>
      </trkpt>
      <trkpt lat="41.074050" lon="-3.716100">
        <ele>1829.0</ele>
        <time>2017-09-30T11:58:21Z</time>
      </trkpt>
      <trkpt lat="41.074000" lon="-3.716150">
        <ele>1830.0</ele>
        <time>2017-09-30T11:58:22Z</time>
      </trkpt>
      <trkpt lat="41.073967" lon="-3.716200">
        <ele>1830.0</ele>
        <time>2017-09-30T11:58:23Z</time>
      </trkpt>
      <trkpt lat="41.073933" lon="-3.716250">
        <ele>1831.0</ele>
        <time>2017-09-30T11:58:24Z</time>
      </trkpt>
      <trkpt lat="41.073933" lon="-3.716300">
        <ele>1830.0</ele>
        <time>2017-09-30T11:58:25Z</time>
      </trkpt>
      <trkpt lat="41.073917" lon="-3.716350">
        <ele>1829.0</ele>
        <time>2017-09-30T11:58:26Z</time>
      </trkpt>
      <trkpt lat="41.073917" lon="-3.716400">
        <ele>1828.0</ele>
        <time>2017-09-30T11:58:27Z</time>
      </trkpt>
      <trkpt lat="41.073900" lon="-3.716450">
        <ele>1827.0</ele>
        <time>2017-09-30T11:58:28Z</time>
      </trkpt>
      <trkpt lat="41.073867" lon="-3.716533">
        <ele>1827.0</ele>
        <time>2017-09-30T11:58:29Z</time>
      </trkpt>
      <trkpt lat="41.073833" lon="-3.716617">
        <ele>1827.0</ele>
        <time>2017-09-30T11:58:30Z</time>
      </trkpt>
      <trkpt lat="41.073800" lon="-3.716700">
        <ele>1830.0</ele>
        <time>2017-09-30T11:58:31Z</time>
      </trkpt>
      <trkpt lat="41.073783" lon="-3.716750">
        <ele>1833.0</ele>
        <time>2017-09-30T11:58:32Z</time>
      </trkpt>
      <trkpt lat="41.073767" lon="-3.716800">
        <ele>1835.0</ele>
        <time>2017-09-30T11:58:33Z</time>
      </trkpt>
      <trkpt lat="41.073750" lon="-3.716833">
        <ele>1836.0</ele>
        <time>2017-09-30T11:58:34Z</time>
      </trkpt>
      <trkpt lat="41.073750" lon="-3.716867">
        <ele>1835.0</ele>
        <time>2017-09-30T11:58:35Z</time>
      </trkpt>
      <trkpt lat="41.073733" lon="-3.716917">
        <ele>1834.0</ele>
        <time>2017-09-30T11:58:36Z</time>
      </trkpt>
      <trkpt lat="41.073733" lon="-3.716983">
        <ele>1832.0</ele>
        <time>2017-09-30T11:58:37Z</time>
      </trkpt>
      <trkpt lat="41.073700" lon="-3.717067">
        <ele>1830.0</ele>
        <time>2017-09-30T11:58:38Z</time>
      </trkpt>
      <trkpt lat="41.073683" lon="-3.717133">
        <ele>1830.0</ele>
        <time>2017-09-30T11:58:39Z</time>
      </trkpt>
      <trkpt lat="41.073667" lon="-3.717200">
        <ele>1831.0</ele>
        <time>2017-09-30T11:58:40Z</time>
      </trkpt>
      <trkpt lat="41.073650" lon="-3.717233">
        <ele>1831.0</ele>
        <time>2017-09-30T11:58:41Z</time>
      </trkpt>
      <trkpt lat="41.073633" lon="-3.717283">
        <ele>1830.0</ele>
        <time>2017-09-30T11:58:42Z</time>
      </trkpt>
      <trkpt lat="41.073633" lon="-3.717333">
        <ele>1828.0</ele>
        <time>2017-09-30T11:58:43Z</time>
      </trkpt>
      <trkpt lat="41.073633" lon="-3.717400">
        <ele>1826.0</ele>
        <time>2017-09-30T11:58:44Z</time>
      </trkpt>
      <trkpt lat="41.073667" lon="-3.717483">
        <ele>1824.0</ele>
        <time>2017-09-30T11:58:45Z</time>
      </trkpt>
      <trkpt lat="41.073717" lon="-3.717517">
        <ele>1823.0</ele>
        <time>2017-09-30T11:58:46Z</time>
      </trkpt>
      <trkpt lat="41.073783" lon="-3.717533">
        <ele>1822.0</ele>
        <time>2017-09-30T11:58:47Z</time>
      </trkpt>
      <trkpt lat="41.073850" lon="-3.717533">
        <ele>1821.0</ele>
        <time>2017-09-30T11:58:48Z</time>
      </trkpt>
      <trkpt lat="41.073933" lon="-3.717483">
        <ele>1820.0</ele>
        <time>2017-09-30T11:58:49Z</time>
      </trkpt>
      <trkpt lat="41.074017" lon="-3.717417">
        <ele>1818.0</ele>
        <time>2017-09-30T11:58:50Z</time>
      </trkpt>
      <trkpt lat="41.074100" lon="-3.717333">
        <ele>1817.0</ele>
        <time>2017-09-30T11:58:51Z</time>
      </trkpt>
      <trkpt lat="41.074167" lon="-3.717200">
        <ele>1815.0</ele>
        <time>2017-09-30T11:58:52Z</time>
      </trkpt>
      <trkpt lat="41.074233" lon="-3.717067">
        <ele>1814.0</ele>
        <time>2017-09-30T11:58:53Z</time>
      </trkpt>
      <trkpt lat="41.074267" lon="-3.716917">
        <ele>1814.0</ele>
        <time>2017-09-30T11:58:54Z</time>
      </trkpt>
      <trkpt lat="41.074300" lon="-3.716767">
        <ele>1813.0</ele>
        <time>2017-09-30T11:58:55Z</time>
      </trkpt>
      <trkpt lat="41.074350" lon="-3.716633">
        <ele>1812.0</ele>
        <time>2017-09-30T11:58:56Z</time>
      </trkpt>
      <trkpt lat="41.074417" lon="-3.716483">
        <ele>1811.0</ele>
        <time>2017-09-30T11:58:57Z</time>
      </trkpt>
      <trkpt lat="41.074467" lon="-3.716350">
        <ele>1810.0</ele>
        <time>2017-09-30T11:58:58Z</time>
      </trkpt>
      <trkpt lat="41.074533" lon="-3.716200">
        <ele>1810.0</ele>
        <time>2017-09-30T11:58:59Z</time>
      </trkpt>
      <trkpt lat="41.074600" lon="-3.716083">
        <ele>1810.0</ele>
        <time>2017-09-30T11:59:00Z</time>
      </trkpt>
      <trkpt lat="41.074667" lon="-3.715967">
        <ele>1811.0</ele>
        <time>2017-09-30T11:59:01Z</time>
      </trkpt>
      <trkpt lat="41.074733" lon="-3.715867">
        <ele>1812.0</ele>
        <time>2017-09-30T11:59:02Z</time>
      </trkpt>
      <trkpt lat="41.074800" lon="-3.715750">
        <ele>1812.0</ele>
        <time>2017-09-30T11:59:03Z</time>
      </trkpt>
      <trkpt lat="41.074867" lon="-3.715650">
        <ele>1812.0</ele>
        <time>2017-09-30T11:59:04Z</time>
      </trkpt>
      <trkpt lat="41.074917" lon="-3.715533">
        <ele>1811.0</ele>
        <time>2017-09-30T11:59:05Z</time>
      </trkpt>
      <trkpt lat="41.074983" lon="-3.715417">
        <ele>1810.0</ele>
        <time>2017-09-30T11:59:06Z</time>
      </trkpt>
      <trkpt lat="41.075050" lon="-3.715300">
        <ele>1809.0</ele>
        <time>2017-09-30T11:59:07Z</time>
      </trkpt>
      <trkpt lat="41.075117" lon="-3.715183">
        <ele>1808.0</ele>
        <time>2017-09-30T11:59:08Z</time>
      </trkpt>
      <trkpt lat="41.075183" lon="-3.715067">
        <ele>1807.0</ele>
        <time>2017-09-30T11:59:09Z</time>
      </trkpt>
      <trkpt lat="41.075250" lon="-3.714967">
        <ele>1807.0</ele>
        <time>2017-09-30T11:59:10Z</time>
      </trkpt>
      <trkpt lat="41.075300" lon="-3.714850">
        <ele>1806.0</ele>
        <time>2017-09-30T11:59:11Z</time>
      </trkpt>
      <trkpt lat="41.075367" lon="-3.714750">
        <ele>1804.0</ele>
        <time>2017-09-30T11:59:12Z</time>
      </trkpt>
      <trkpt lat="41.075433" lon="-3.714617">
        <ele>1802.0</ele>
        <time>2017-09-30T11:59:13Z</time>
      </trkpt>
      <trkpt lat="41.075517" lon="-3.714500">
        <ele>1801.0</ele>
        <time>2017-09-30T11:59:14Z</time>
      </trkpt>
      <trkpt lat="41.075583" lon="-3.714367">
        <ele>1800.0</ele>
        <time>2017-09-30T11:59:15Z</time>
      </trkpt>
      <trkpt lat="41.075667" lon="-3.714267">
        <ele>1801.0</ele>
        <time>2017-09-30T11:59:16Z</time>
      </trkpt>
      <trkpt lat="41.075750" lon="-3.714183">
        <ele>1802.0</ele>
        <time>2017-09-30T11:59:17Z</time>
      </trkpt>
      <trkpt lat="41.075833" lon="-3.714133">
        <ele>1804.0</ele>
        <time>2017-09-30T11:59:18Z</time>
      </trkpt>
      <trkpt lat="41.075917" lon="-3.714067">
        <ele>1804.0</ele>
        <time>2017-09-30T11:59:19Z</time>
      </trkpt>
      <trkpt lat="41.076000" lon="-3.713983">
        <ele>1804.0</ele>
        <time>2017-09-30T11:59:20Z</time>
      </trkpt>
      <trkpt lat="41.076067" lon="-3.713883">
        <ele>1804.0</ele>
        <time>2017-09-30T11:59:21Z</time>
      </trkpt>
      <trkpt lat="41.076133" lon="-3.713783">
        <ele>1805.0</ele>
        <time>2017-09-30T11:59:22Z</time>
      </trkpt>
      <trkpt lat="41.076200" lon="-3.713683">
        <ele>1805.0</ele>
        <time>2017-09-30T11:59:23Z</time>
      </trkpt>
      <trkpt lat="41.076267" lon="-3.713583">
        <ele>1806.0</ele>
        <time>2017-09-30T11:59:24Z</time>
      </trkpt>
      <trkpt lat="41.076350" lon="-3.713517">
        <ele>1806.0</ele>
        <time>2017-09-30T11:59:25Z</time>
      </trkpt>
      <trkpt lat="41.076433" lon="-3.713467">
        <ele>1807.0</ele>
        <time>2017-09-30T11:59:26Z</time>
      </trkpt>
      <trkpt lat="41.076517" lon="-3.713450">
        <ele>1808.0</ele>
        <time>2017-09-30T11:59:27Z</time>
      </trkpt>
      <trkpt lat="41.076600" lon="-3.713467">
        <ele>1809.0</ele>
        <time>2017-09-30T11:59:28Z</time>
      </trkpt>
      <trkpt lat="41.076650" lon="-3.713500">
        <ele>1812.0</ele>
        <time>2017-09-30T11:59:29Z</time>
      </trkpt>
      <trkpt lat="41.076700" lon="-3.713517">
        <ele>1814.0</ele>
        <time>2017-09-30T11:59:30Z</time>
      </trkpt>
      <trkpt lat="41.076717" lon="-3.713533">
        <ele>1815.0</ele>
        <time>2017-09-30T11:59:31Z</time>
      </trkpt>
      <trkpt lat="41.076733" lon="-3.713567">
        <ele>1814.0</ele>
        <time>2017-09-30T11:59:32Z</time>
      </trkpt>
      <trkpt lat="41.076733" lon="-3.713633">
        <ele>1812.0</ele>
        <time>2017-09-30T11:59:33Z</time>
      </trkpt>
      <trkpt lat="41.076700" lon="-3.713700">
        <ele>1809.0</ele>
        <time>2017-09-30T11:59:34Z</time>
      </trkpt>
      <trkpt lat="41.076633" lon="-3.713783">
        <ele>1807.0</ele>
        <time>2017-09-30T11:59:35Z</time>
      </trkpt>
      <trkpt lat="41.076550" lon="-3.713833">
        <ele>1807.0</ele>
        <time>2017-09-30T11:59:36Z</time>
      </trkpt>
      <trkpt lat="41.076467" lon="-3.713850">
        <ele>1808.0</ele>
        <time>2017-09-30T11:59:37Z</time>
      </trkpt>
      <trkpt lat="41.076383" lon="-3.713867">
        <ele>1810.0</ele>
        <time>2017-09-30T11:59:38Z</time>
      </trkpt>
      <trkpt lat="41.076317" lon="-3.713867">
        <ele>1812.0</ele>
        <time>2017-09-30T11:59:39Z</time>
      </trkpt>
      <trkpt lat="41.076267" lon="-3.713883">
        <ele>1813.0</ele>
        <time>2017-09-30T11:59:40Z</time>
      </trkpt>
      <trkpt lat="41.076217" lon="-3.713900">
        <ele>1813.0</ele>
        <time>2017-09-30T11:59:41Z</time>
      </trkpt>
      <trkpt lat="41.076150" lon="-3.713950">
        <ele>1812.0</ele>
        <time>2017-09-30T11:59:42Z</time>
      </trkpt>
      <trkpt lat="41.076083" lon="-3.714000">
        <ele>1813.0</ele>
        <time>2017-09-30T11:59:43Z</time>
      </trkpt>
      <trkpt lat="41.076033" lon="-3.714050">
        <ele>1815.0</ele>
        <time>2017-09-30T11:59:44Z</time>
      </trkpt>
      <trkpt lat="41.076000" lon="-3.714117">
        <ele>1817.0</ele>
        <time>2017-09-30T11:59:45Z</time>
      </trkpt>
      <trkpt lat="41.075983" lon="-3.714167">
        <ele>1818.0</ele>
        <time>2017-09-30T11:59:46Z</time>
      </trkpt>
      <trkpt lat="41.075983" lon="-3.714217">
        <ele>1819.0</ele>
        <time>2017-09-30T11:59:47Z</time>
      </trkpt>
      <trkpt lat="41.075983" lon="-3.714300">
        <ele>1819.0</ele>
        <time>2017-09-30T11:59:48Z</time>
      </trkpt>
      <trkpt lat="41.076017" lon="-3.714400">
        <ele>1821.0</ele>
        <time>2017-09-30T11:59:49Z</time>
      </trkpt>
      <trkpt lat="41.076050" lon="-3.714467">
        <ele>1823.0</ele>
        <time>2017-09-30T11:59:50Z</time>
      </trkpt>
      <trkpt lat="41.076117" lon="-3.714500">
        <ele>1824.0</ele>
        <time>2017-09-30T11:59:51Z</time>
      </trkpt>
      <trkpt lat="41.076200" lon="-3.714483">
        <ele>1825.0</ele>
        <time>2017-09-30T11:59:52Z</time>
      </trkpt>
      <trkpt lat="41.076267" lon="-3.714433">
        <ele>1825.0</ele>
        <time>2017-09-30T11:59:53Z</time>
      </trkpt>
      <trkpt lat="41.076333" lon="-3.714350">
        <ele>1826.0</ele>
        <time>2017-09-30T11:59:54Z</time>
      </trkpt>
      <trkpt lat="41.076383" lon="-3.714250">
        <ele>1827.0</ele>
        <time>2017-09-30T11:59:55Z</time>
      </trkpt>
      <trkpt lat="41.076417" lon="-3.714150">
        <ele>1829.0</ele>
        <time>2017-09-30T11:59:56Z</time>
      </trkpt>
      <trkpt lat="41.076433" lon="-3.714033">
        <ele>1832.0</ele>
        <time>2017-09-30T11:59:57Z</time>
      </trkpt>
      <trkpt lat="41.076467" lon="-3.713917">
        <ele>1833.0</ele>
        <time>2017-09-30T11:59:58Z</time>
      </trkpt>
      <trkpt lat="41.076483" lon="-3.713817">
        <ele>1835.0</ele>
        <time>2017-09-30T11:59:59Z</time>
      </trkpt>
      <trkpt lat="41.076533" lon="-3.713700">
        <ele>1835.0</ele>
        <time>2017-09-30T12:00:00Z</time>
      </trkpt>
      <trkpt lat="41.076600" lon="-3.713583">
        <ele>1836.0</ele>
        <time>2017-09-30T12:00:01Z</time>
      </trkpt>
      <trkpt lat="41.076667" lon="-3.713500">
        <ele>1838.0</ele>
        <time>2017-09-30T12:00:02Z</time>
      </trkpt>
      <trkpt lat="41.076733" lon="-3.713450">
        <ele>1839.0</ele>
        <time>2017-09-30T12:00:03Z</time>
      </trkpt>
      <trkpt lat="41.076783" lon="-3.713467">
        <ele>1840.0</ele>
        <time>2017-09-30T12:00:04Z</time>
      </trkpt>
      <trkpt lat="41.076817" lon="-3.713500">
        <ele>1839.0</ele>
        <time>2017-09-30T12:00:05Z</time>
      </trkpt>
      <trkpt lat="41.076833" lon="-3.713567">
        <ele>1838.0</ele>
        <time>2017-09-30T12:00:06Z</time>
      </trkpt>
      <trkpt lat="41.076833" lon="-3.713633">
        <ele>1838.0</ele>
        <time>2017-09-30T12:00:07Z</time>
      </trkpt>
      <trkpt lat="41.076817" lon="-3.713717">
        <ele>1839.0</ele>
        <time>2017-09-30T12:00:08Z</time>
      </trkpt>
      <trkpt lat="41.076783" lon="-3.713783">
        <ele>1839.0</ele>
        <time>2017-09-30T12:00:09Z</time>
      </trkpt>
      <trkpt lat="41.076717" lon="-3.713867">
        <ele>1838.0</ele>
        <time>2017-09-30T12:00:10Z</time>
      </trkpt>
      <trkpt lat="41.076633" lon="-3.713933">
        <ele>1838.0</ele>
        <time>2017-09-30T12:00:11Z</time>
      </trkpt>
      <trkpt lat="41.076533" lon="-3.713967">
        <ele>1839.0</ele>
        <time>2017-09-30T12:00:12Z</time>
      </trkpt>
      <trkpt lat="41.076433" lon="-3.713983">
        <ele>1842.0</ele>
        <time>2017-09-30T12:00:13Z</time>
      </trkpt>
      <trkpt lat="41.076350" lon="-3.714000">
        <ele>1845.0</ele>
        <time>2017-09-30T12:00:14Z</time>
      </trkpt>
      <trkpt lat="41.076283" lon="-3.714017">
        <ele>1848.0</ele>
        <time>2017-09-30T12:00:15Z</time>
      </trkpt>
      <trkpt lat="41.076217" lon="-3.714050">
        <ele>1850.0</ele>
        <time>2017-09-30T12:00:16Z</time>
      </trkpt>
      <trkpt lat="41.076167" lon="-3.714117">
        <ele>1851.0</ele>
        <time>2017-09-30T12:00:17Z</time>
      </trkpt>
      <trkpt lat="41.076117" lon="-3.714200">
        <ele>1852.0</ele>
        <time>2017-09-30T12:00:18Z</time>
      </trkpt>
      <trkpt lat="41.076083" lon="-3.714300">
        <ele>1855.0</ele>
        <time>2017-09-30T12:00:19Z</time>
      </trkpt>
      <trkpt lat="41.076100" lon="-3.714383">
        <ele>1858.0</ele>
        <time>2017-09-30T12:00:20Z</time>
      </trkpt>
      <trkpt lat="41.076133" lon="-3.714450">
        <ele>1860.0</ele>
        <time>2017-09-30T12:00:21Z</time>
      </trkpt>
      <trkpt lat="41.076183" lon="-3.714467">
        <ele>1861.0</ele>
        <time>2017-09-30T12:00:22Z</time>
      </trkpt>
      <trkpt lat="41.076250" lon="-3.714467">
        <ele>1862.0</ele>
        <time>2017-09-30T12:00:23Z</time>
      </trkpt>
      <trkpt lat="41.076317" lon="-3.714433">
        <ele>1862.0</ele>
        <time>2017-09-30T12:00:24Z</time>
      </trkpt>
      <trkpt lat="41.076383" lon="-3.714367">
        <ele>1862.0</ele>
        <time>2017-09-30T12:00:25Z</time>
      </trkpt>
      <trkpt lat="41.076450" lon="-3.714250">
        <ele>1862.0</ele>
        <time>2017-09-30T12:00:26Z</time>
      </trkpt>
      <trkpt lat="41.076483" lon="-3.714133">
        <ele>1862.0</ele>
        <time>2017-09-30T12:00:27Z</time>
      </trkpt>
      <trkpt lat="41.076517" lon="-3.714000">
        <ele>1863.0</ele>
        <time>2017-09-30T12:00:28Z</time>
      </trkpt>
      <trkpt lat="41.076533" lon="-3.713867">
        <ele>1865.0</ele>
        <time>2017-09-30T12:00:29Z</time>
      </trkpt>
      <trkpt lat="41.076533" lon="-3.713733">
        <ele>1867.0</ele>
        <time>2017-09-30T12:00:30Z</time>
      </trkpt>
      <trkpt lat="41.076533" lon="-3.713617">
        <ele>1869.0</ele>
        <time>2017-09-30T12:00:31Z</time>
      </trkpt>
      <trkpt lat="41.076567" lon="-3.713517">
        <ele>1870.0</ele>
        <time>2017-09-30T12:00:32Z</time>
      </trkpt>
      <trkpt lat="41.076617" lon="-3.713433">
        <ele>1870.0</ele>
        <time>2017-09-30T12:00:33Z</time>
      </trkpt>
      <trkpt lat="41.076683" lon="-3.713400">
        <ele>1870.0</ele>
        <time>2017-09-30T12:00:34Z</time>
      </trkpt>
      <trkpt lat="41.076767" lon="-3.713400">
        <ele>1870.0</ele>
        <time>2017-09-30T12:00:35Z</time>
      </trkpt>
      <trkpt lat="41.076817" lon="-3.713450">
        <ele>1872.0</ele>
        <time>2017-09-30T12:00:36Z</time>
      </trkpt>
      <trkpt lat="41.076867" lon="-3.713517">
        <ele>1873.0</ele>
        <time>2017-09-30T12:00:37Z</time>
      </trkpt>
      <trkpt lat="41.076867" lon="-3.713600">
        <ele>1874.0</ele>
        <time>2017-09-30T12:00:38Z</time>
      </trkpt>
      <trkpt lat="41.076867" lon="-3.713683">
        <ele>1875.0</ele>
        <time>2017-09-30T12:00:39Z</time>
      </trkpt>
      <trkpt lat="41.076833" lon="-3.713750">
        <ele>1875.0</ele>
        <time>2017-09-30T12:00:40Z</time>
      </trkpt>
      <trkpt lat="41.076783" lon="-3.713817">
        <ele>1876.0</ele>
        <time>2017-09-30T12:00:41Z</time>
      </trkpt>
      <trkpt lat="41.076733" lon="-3.713867">
        <ele>1877.0</ele>
        <time>2017-09-30T12:00:42Z</time>
      </trkpt>
      <trkpt lat="41.076667" lon="-3.713883">
        <ele>1877.0</ele>
        <time>2017-09-30T12:00:43Z</time>
      </trkpt>
      <trkpt lat="41.076583" lon="-3.713883">
        <ele>1876.0</ele>
        <time>2017-09-30T12:00:44Z</time>
      </trkpt>
      <trkpt lat="41.076483" lon="-3.713850">
        <ele>1875.0</ele>
        <time>2017-09-30T12:00:45Z</time>
      </trkpt>
      <trkpt lat="41.076383" lon="-3.713817">
        <ele>1873.0</ele>
        <time>2017-09-30T12:00:46Z</time>
      </trkpt>
      <trkpt lat="41.076283" lon="-3.713733">
        <ele>1873.0</ele>
        <time>2017-09-30T12:00:47Z</time>
      </trkpt>
      <trkpt lat="41.076200" lon="-3.713633">
        <ele>1873.0</ele>
        <time>2017-09-30T12:00:48Z</time>
      </trkpt>
      <trkpt lat="41.076150" lon="-3.713500">
        <ele>1873.0</ele>
        <time>2017-09-30T12:00:49Z</time>
      </trkpt>
      <trkpt lat="41.076100" lon="-3.713367">
        <ele>1874.0</ele>
        <time>2017-09-30T12:00:50Z</time>
      </trkpt>
      <trkpt lat="41.076100" lon="-3.713217">
        <ele>1875.0</ele>
        <time>2017-09-30T12:00:51Z</time>
      </trkpt>
      <trkpt lat="41.076100" lon="-3.713083">
        <ele>1874.0</ele>
        <time>2017-09-30T12:00:52Z</time>
      </trkpt>
      <trkpt lat="41.076133" lon="-3.712950">
        <ele>1874.0</ele>
        <time>2017-09-30T12:00:53Z</time>
      </trkpt>
      <trkpt lat="41.076183" lon="-3.712833">
        <ele>1874.0</ele>
        <time>2017-09-30T12:00:54Z</time>
      </trkpt>
      <trkpt lat="41.076267" lon="-3.712750">
        <ele>1873.0</ele>
        <time>2017-09-30T12:00:55Z</time>
      </trkpt>
      <trkpt lat="41.076333" lon="-3.712683">
        <ele>1874.0</ele>
        <time>2017-09-30T12:00:56Z</time>
      </trkpt>
      <trkpt lat="41.076400" lon="-3.712617">
        <ele>1875.0</ele>
        <time>2017-09-30T12:00:57Z</time>
      </trkpt>
      <trkpt lat="41.076467" lon="-3.712533">
        <ele>1876.0</ele>
        <time>2017-09-30T12:00:58Z</time>
      </trkpt>
      <trkpt lat="41.076517" lon="-3.712433">
        <ele>1877.0</ele>
        <time>2017-09-30T12:00:59Z</time>
      </trkpt>
      <trkpt lat="41.076583" lon="-3.712317">
        <ele>1878.0</ele>
        <time>2017-09-30T12:01:00Z</time>
      </trkpt>
      <trkpt lat="41.076633" lon="-3.712200">
        <ele>1880.0</ele>
        <time>2017-09-30T12:01:01Z</time>
      </trkpt>
      <trkpt lat="41.076700" lon="-3.712117">
        <ele>1883.0</ele>
        <time>2017-09-30T12:01:02Z</time>
      </trkpt>
      <trkpt lat="41.076767" lon="-3.712033">
        <ele>1886.0</ele>
        <time>2017-09-30T12:01:03Z</time>
      </trkpt>
      <trkpt lat="41.076833" lon="-3.711983">
        <ele>1888.0</ele>
        <time>2017-09-30T12:01:04Z</time>
      </trkpt>
      <trkpt lat="41.076900" lon="-3.711983">
        <ele>1889.0</ele>
        <time>2017-09-30T12:01:05Z</time>
      </trkpt>
      <trkpt lat="41.076967" lon="-3.712000">
        <ele>1890.0</ele>
        <time>2017-09-30T12:01:06Z</time>
      </trkpt>
      <trkpt lat="41.077033" lon="-3.712033">
        <ele>1891.0</ele>
        <time>2017-09-30T12:01:07Z</time>
      </trkpt>
      <trkpt lat="41.077083" lon="-3.712100">
        <ele>1893.0</ele>
        <time>2017-09-30T12:01:08Z</time>
      </trkpt>
      <trkpt lat="41.077117" lon="-3.712200">
        <ele>1895.0</ele>
        <time>2017-09-30T12:01:09Z</time>
      </trkpt>
      <trkpt lat="41.077117" lon="-3.712283">
        <ele>1896.0</ele>
        <time>2017-09-30T12:01:10Z</time>
      </trkpt>
      <trkpt lat="41.077083" lon="-3.712367">
        <ele>1898.0</ele>
        <time>2017-09-30T12:01:11Z</time>
      </trkpt>
      <trkpt lat="41.077017" lon="-3.712433">
        <ele>1899.0</ele>
        <time>2017-09-30T12:01:12Z</time>
      </trkpt>
      <trkpt lat="41.076950" lon="-3.712450">
        <ele>1899.0</ele>
        <time>2017-09-30T12:01:13Z</time>
      </trkpt>
      <trkpt lat="41.076867" lon="-3.712450">
        <ele>1899.0</ele>
        <time>2017-09-30T12:01:14Z</time>
      </trkpt>
      <trkpt lat="41.076767" lon="-3.712400">
        <ele>1899.0</ele>
        <time>2017-09-30T12:01:15Z</time>
      </trkpt>
      <trkpt lat="41.076683" lon="-3.712333">
        <ele>1899.0</ele>
        <time>2017-09-30T12:01:16Z</time>
      </trkpt>
      <trkpt lat="41.076600" lon="-3.712233">
        <ele>1899.0</ele>
        <time>2017-09-30T12:01:17Z</time>
      </trkpt>
      <trkpt lat="41.076533" lon="-3.712083">
        <ele>1899.0</ele>
        <time>2017-09-30T12:01:18Z</time>
      </trkpt>
      <trkpt lat="41.076517" lon="-3.711917">
        <ele>1900.0</ele>
        <time>2017-09-30T12:01:19Z</time>
      </trkpt>
      <trkpt lat="41.076517" lon="-3.711767">
        <ele>1901.0</ele>
        <time>2017-09-30T12:01:20Z</time>
      </trkpt>
      <trkpt lat="41.076550" lon="-3.711617">
        <ele>1904.0</ele>
        <time>2017-09-30T12:01:21Z</time>
      </trkpt>
      <trkpt lat="41.076583" lon="-3.711500">
        <ele>1907.0</ele>
        <time>2017-09-30T12:01:22Z</time>
      </trkpt>
      <trkpt lat="41.076633" lon="-3.711400">
        <ele>1910.0</ele>
        <time>2017-09-30T12:01:23Z</time>
      </trkpt>
      <trkpt lat="41.076700" lon="-3.711333">
        <ele>1912.0</ele>
        <time>2017-09-30T12:01:24Z</time>
      </trkpt>
      <trkpt lat="41.076767" lon="-3.711267">
        <ele>1913.0</ele>
        <time>2017-09-30T12:01:25Z</time>
      </trkpt>
      <trkpt lat="41.076850" lon="-3.711217">
        <ele>1914.0</ele>
        <time>2017-09-30T12:01:26Z</time>
      </trkpt>
      <trkpt lat="41.076917" lon="-3.711217">
        <ele>1916.0</ele>
        <time>2017-09-30T12:01:27Z</time>
      </trkpt>
      <trkpt lat="41.077000" lon="-3.711233">
        <ele>1918.0</ele>
        <time>2017-09-30T12:01:28Z</time>
      </trkpt>
      <trkpt lat="41.077050" lon="-3.711267">
        <ele>1921.0</ele>
        <time>2017-09-30T12:01:29Z</time>
      </trkpt>
      <trkpt lat="41.077083" lon="-3.711317">
        <ele>1923.0</ele>
        <time>2017-09-30T12:01:30Z</time>
      </trkpt>
      <trkpt lat="41.077100" lon="-3.711383">
        <ele>1925.0</ele>
        <time>2017-09-30T12:01:31Z</time>
      </trkpt>
      <trkpt lat="41.077100" lon="-3.711433">
        <ele>1927.0</ele>
        <time>2017-09-30T12:01:32Z</time>
      </trkpt>
      <trkpt lat="41.077083" lon="-3.711500">
        <ele>1928.0</ele>
        <time>2017-09-30T12:01:33Z</time>
      </trkpt>
      <trkpt lat="41.077067" lon="-3.711550">
        <ele>1929.0</ele>
        <time>2017-09-30T12:01:34Z</time>
      </trkpt>
      <trkpt lat="41.077050" lon="-3.711617">
        <ele>1929.0</ele>
        <time>2017-09-30T12:01:35Z</time>
      </trkpt>
      <trkpt lat="41.077033" lon="-3.711683">
        <ele>1929.0</ele>
        <time>2017-09-30T12:01:36Z</time>
      </trkpt>
      <trkpt lat="41.077000" lon="-3.711750">
        <ele>1928.0</ele>
        <time>2017-09-30T12:01:37Z</time>
      </trkpt>
      <trkpt lat="41.076983" lon="-3.711800">
        <ele>1928.0</ele>
        <time>2017-09-30T12:01:38Z</time>
      </trkpt>
      <trkpt lat="41.076933" lon="-3.711867">
        <ele>1928.0</ele>
        <time>2017-09-30T12:01:39Z</time>
      </trkpt>
      <trkpt lat="41.076900" lon="-3.711917">
        <ele>1927.0</ele>
        <time>2017-09-30T12:01:40Z</time>
      </trkpt>
      <trkpt lat="41.076850" lon="-3.711967">
        <ele>1926.0</ele>
        <time>2017-09-30T12:01:41Z</time>
      </trkpt>
      <trkpt lat="41.076817" lon="-3.712000">
        <ele>1925.0</ele>
        <time>2017-09-30T12:01:42Z</time>
      </trkpt>
      <trkpt lat="41.076767" lon="-3.712067">
        <ele>1923.0</ele>
        <time>2017-09-30T12:01:43Z</time>
      </trkpt>
      <trkpt lat="41.076733" lon="-3.712133">
        <ele>1921.0</ele>
        <time>2017-09-30T12:01:44Z</time>
      </trkpt>
      <trkpt lat="41.076667" lon="-3.712200">
        <ele>1920.0</ele>
        <time>2017-09-30T12:01:45Z</time>
      </trkpt>
      <trkpt lat="41.076617" lon="-3.712283">
        <ele>1920.0</ele>
        <time>2017-09-30T12:01:46Z</time>
      </trkpt>
      <trkpt lat="41.076550" lon="-3.712333">
        <ele>1920.0</ele>
        <time>2017-09-30T12:01:47Z</time>
      </trkpt>
      <trkpt lat="41.076483" lon="-3.712383">
        <ele>1921.0</ele>
        <time>2017-09-30T12:01:48Z</time>
      </trkpt>
      <trkpt lat="41.076417" lon="-3.712417">
        <ele>1922.0</ele>
        <time>2017-09-30T12:01:49Z</time>
      </trkpt>
      <trkpt lat="41.076367" lon="-3.712483">
        <ele>1924.0</ele>
        <time>2017-09-30T12:01:50Z</time>
      </trkpt>
      <trkpt lat="41.076317" lon="-3.712533">
        <ele>1926.0</ele>
        <time>2017-09-30T12:01:51Z</time>
      </trkpt>
      <trkpt lat="41.076283" lon="-3.712567">
        <ele>1927.0</ele>
        <time>2017-09-30T12:01:52Z</time>
      </trkpt>
      <trkpt lat="41.076233" lon="-3.712617">
        <ele>1929.0</ele>
        <time>2017-09-30T12:01:53Z</time>
      </trkpt>
      <trkpt lat="41.076200" lon="-3.712683">
        <ele>1930.0</ele>
        <time>2017-09-30T12:01:54Z</time>
      </trkpt>
      <trkpt lat="41.076200" lon="-3.712750">
        <ele>1931.0</ele>
        <time>2017-09-30T12:01:55Z</time>
      </trkpt>
      <trkpt lat="41.076200" lon="-3.712833">
        <ele>1933.0</ele>
        <time>2017-09-30T12:01:56Z</time>
      </trkpt>
      <trkpt lat="41.076233" lon="-3.712883">
        <ele>1935.0</ele>
        <time>2017-09-30T12:01:57Z</time>
      </trkpt>
      <trkpt lat="41.076267" lon="-3.712933">
        <ele>1937.0</ele>
        <time>2017-09-30T12:01:58Z</time>
      </trkpt>
      <trkpt lat="41.076333" lon="-3.712950">
        <ele>1938.0</ele>
        <time>2017-09-30T12:01:59Z</time>
      </trkpt>
      <trkpt lat="41.076417" lon="-3.712967">
        <ele>1939.0</ele>
        <time>2017-09-30T12:02:00Z</time>
      </trkpt>
      <trkpt lat="41.076500" lon="-3.712933">
        <ele>1940.0</ele>
        <time>2017-09-30T12:02:01Z</time>
      </trkpt>
      <trkpt lat="41.076583" lon="-3.712883">
        <ele>1941.0</ele>
        <time>2017-09-30T12:02:02Z</time>
      </trkpt>
      <trkpt lat="41.076667" lon="-3.712783">
        <ele>1942.0</ele>
        <time>2017-09-30T12:02:03Z</time>
      </trkpt>
      <trkpt lat="41.076750" lon="-3.712650">
        <ele>1941.0</ele>
        <time>2017-09-30T12:02:04Z</time>
      </trkpt>
      <trkpt lat="41.076783" lon="-3.712500">
        <ele>1941.0</ele>
        <time>2017-09-30T12:02:05Z</time>
      </trkpt>
      <trkpt lat="41.076800" lon="-3.712317">
        <ele>1940.0</ele>
        <time>2017-09-30T12:02:06Z</time>
      </trkpt>
      <trkpt lat="41.076767" lon="-3.712150">
        <ele>1940.0</ele>
        <time>2017-09-30T12:02:07Z</time>
      </trkpt>
      <trkpt lat="41.076717" lon="-3.712017">
        <ele>1941.0</ele>
        <time>2017-09-30T12:02:08Z</time>
      </trkpt>
      <trkpt lat="41.076650" lon="-3.711917">
        <ele>1942.0</ele>
        <time>2017-09-30T12:02:09Z</time>
      </trkpt>
      <trkpt lat="41.076583" lon="-3.711833">
        <ele>1943.0</ele>
        <time>2017-09-30T12:02:10Z</time>
      </trkpt>
      <trkpt lat="41.076517" lon="-3.711767">
        <ele>1943.0</ele>
        <time>2017-09-30T12:02:11Z</time>
      </trkpt>
      <trkpt lat="41.076433" lon="-3.711733">
        <ele>1943.0</ele>
        <time>2017-09-30T12:02:12Z</time>
      </trkpt>
      <trkpt lat="41.076333" lon="-3.711750">
        <ele>1942.0</ele>
        <time>2017-09-30T12:02:13Z</time>
      </trkpt>
      <trkpt lat="41.076250" lon="-3.711767">
        <ele>1943.0</ele>
        <time>2017-09-30T12:02:14Z</time>
      </trkpt>
      <trkpt lat="41.076183" lon="-3.711817">
        <ele>1946.0</ele>
        <time>2017-09-30T12:02:15Z</time>
      </trkpt>
      <trkpt lat="41.076150" lon="-3.711850">
        <ele>1949.0</ele>
        <time>2017-09-30T12:02:16Z</time>
      </trkpt>
      <trkpt lat="41.076117" lon="-3.711883">
        <ele>1951.0</ele>
        <time>2017-09-30T12:02:17Z</time>
      </trkpt>
      <trkpt lat="41.076100" lon="-3.711917">
        <ele>1952.0</ele>
        <time>2017-09-30T12:02:18Z</time>
      </trkpt>
      <trkpt lat="41.076067" lon="-3.711967">
        <ele>1951.0</ele>
        <time>2017-09-30T12:02:19Z</time>
      </trkpt>
      <trkpt lat="41.076033" lon="-3.712050">
        <ele>1950.0</ele>
        <time>2017-09-30T12:02:20Z</time>
      </trkpt>
      <trkpt lat="41.076000" lon="-3.712117">
        <ele>1951.0</ele>
        <time>2017-09-30T12:02:21Z</time>
      </trkpt>
      <trkpt lat="41.075983" lon="-3.712183">
        <ele>1952.0</ele>
        <time>2017-09-30T12:02:22Z</time>
      </trkpt>
      <trkpt lat="41.075967" lon="-3.712233">
        <ele>1954.0</ele>
        <time>2017-09-30T12:02:23Z</time>
      </trkpt>
      <trkpt lat="41.075950" lon="-3.712283">
        <ele>1956.0</ele>
        <time>2017-09-30T12:02:24Z</time>
      </trkpt>
      <trkpt lat="41.075933" lon="-3.712350">
        <ele>1957.0</ele>
        <time>2017-09-30T12:02:25Z</time>
      </trkpt>
      <trkpt lat="41.075900" lon="-3.712400">
        <ele>1958.0</ele>
        <time>2017-09-30T12:02:26Z</time>
      </trkpt>
      <trkpt lat="41.075867" lon="-3.712467">
        <ele>1959.0</ele>
        <time>2017-09-30T12:02:27Z</time>
      </trkpt>
      <trkpt lat="41.075833" lon="-3.712517">
        <ele>1961.0</ele>
        <time>2017-09-30T12:02:28Z</time>
      </trkpt>
      <trkpt lat="41.075817" lon="-3.712567">
        <ele>1963.0</ele>
        <time>2017-09-30T12:02:29Z</time>
      </trkpt>
      <trkpt lat="41.075783" lon="-3.712617">
        <ele>1964.0</ele>
        <time>2017-09-30T12:02:30Z</time>
      </trkpt>
      <trkpt lat="41.075750" lon="-3.712683">
        <ele>1965.0</ele>
        <time>2017-09-30T12:02:31Z</time>
      </trkpt>
      <trkpt lat="41.075717" lon="-3.712733">
        <ele>1964.0</ele>
        <time>2017-09-30T12:02:32Z</time>
      </trkpt>
      <trkpt lat="41.075700" lon="-3.712800">
        <ele>1962.0</ele>
        <time>2017-09-30T12:02:33Z</time>
      </trkpt>
      <trkpt lat="41.075667" lon="-3.712883">
        <ele>1959.0</ele>
        <time>2017-09-30T12:02:34Z</time>
      </trkpt>
      <trkpt lat="41.075650" lon="-3.712950">
        <ele>1958.0</ele>
        <time>2017-09-30T12:02:35Z</time>
      </trkpt>
      <trkpt lat="41.075667" lon="-3.713033">
        <ele>1956.0</ele>
        <time>2017-09-30T12:02:36Z</time>
      </trkpt>
      <trkpt lat="41.075683" lon="-3.713100">
        <ele>1955.0</ele>
        <time>2017-09-30T12:02:37Z</time>
      </trkpt>
      <trkpt lat="41.075700" lon="-3.713150">
        <ele>1954.0</ele>
        <time>2017-09-30T12:02:38Z</time>
      </trkpt>
      <trkpt lat="41.075683" lon="-3.713217">
        <ele>1954.0</ele>
        <time>2017-09-30T12:02:39Z</time>
      </trkpt>
      <trkpt lat="41.075683" lon="-3.713267">
        <ele>1952.0</ele>
        <time>2017-09-30T12:02:40Z</time>
      </trkpt>
      <trkpt lat="41.075683" lon="-3.713333">
        <ele>1951.0</ele>
        <time>2017-09-30T12:02:41Z</time>
      </trkpt>
      <trkpt lat="41.075700" lon="-3.713400">
        <ele>1948.0</ele>
        <time>2017-09-30T12:02:42Z</time>
      </trkpt>
      <trkpt lat="41.075733" lon="-3.713483">
        <ele>1947.0</ele>
        <time>2017-09-30T12:02:43Z</time>
      </trkpt>
      <trkpt lat="41.075767" lon="-3.713567">
        <ele>1946.0</ele>
        <time>2017-09-30T12:02:44Z</time>
      </trkpt>
      <trkpt lat="41.075767" lon="-3.713667">
        <ele>1948.0</ele>
        <time>2017-09-30T12:02:45Z</time>
      </trkpt>
      <trkpt lat="41.075767" lon="-3.713733">
        <ele>1950.0</ele>
        <time>2017-09-30T12:02:46Z</time>
      </trkpt>
      <trkpt lat="41.075767" lon="-3.713800">
        <ele>1952.0</ele>
        <time>2017-09-30T12:02:47Z</time>
      </trkpt>
      <trkpt lat="41.075750" lon="-3.713850">
        <ele>1953.0</ele>
        <time>2017-09-30T12:02:48Z</time>
      </trkpt>
      <trkpt lat="41.075750" lon="-3.713900">
        <ele>1953.0</ele>
        <time>2017-09-30T12:02:49Z</time>
      </trkpt>
      <trkpt lat="41.075750" lon="-3.713950">
        <ele>1953.0</ele>
        <time>2017-09-30T12:02:50Z</time>
      </trkpt>
      <trkpt lat="41.075750" lon="-3.714017">
        <ele>1953.0</ele>
        <time>2017-09-30T12:02:51Z</time>
      </trkpt>
      <trkpt lat="41.075767" lon="-3.714100">
        <ele>1954.0</ele>
        <time>2017-09-30T12:02:52Z</time>
      </trkpt>
      <trkpt lat="41.075783" lon="-3.714150">
        <ele>1956.0</ele>
        <time>2017-09-30T12:02:53Z</time>
      </trkpt>
      <trkpt lat="41.075783" lon="-3.714200">
        <ele>1958.0</ele>
        <time>2017-09-30T12:02:54Z</time>
      </trkpt>
      <trkpt lat="41.075767" lon="-3.714250">
        <ele>1960.0</ele>
        <time>2017-09-30T12:02:55Z</time>
      </trkpt>
      <trkpt lat="41.075767" lon="-3.714267">
        <ele>1962.0</ele>
        <time>2017-09-30T12:02:56Z</time>
      </trkpt>
      <trkpt lat="41.075767" lon="-3.714300">
        <ele>1962.0</ele>
        <time>2017-09-30T12:02:57Z</time>
      </trkpt>
      <trkpt lat="41.075800" lon="-3.714333">
        <ele>1962.0</ele>
        <time>2017-09-30T12:02:58Z</time>
      </trkpt>
      <trkpt lat="41.075850" lon="-3.714350">
        <ele>1961.0</ele>
        <time>2017-09-30T12:02:59Z</time>
      </trkpt>
      <trkpt lat="41.075933" lon="-3.714333">
        <ele>1961.0</ele>
        <time>2017-09-30T12:03:00Z</time>
      </trkpt>
      <trkpt lat="41.076017" lon="-3.714283">
        <ele>1961.0</ele>
        <time>2017-09-30T12:03:01Z</time>
      </trkpt>
      <trkpt lat="41.076100" lon="-3.714217">
        <ele>1962.0</ele>
        <time>2017-09-30T12:03:02Z</time>
      </trkpt>
      <trkpt lat="41.076183" lon="-3.714117">
        <ele>1964.0</ele>
        <time>2017-09-30T12:03:03Z</time>
      </trkpt>
      <trkpt lat="41.076233" lon="-3.714000">
        <ele>1964.0</ele>
        <time>2017-09-30T12:03:04Z</time>
      </trkpt>
      <trkpt lat="41.076283" lon="-3.713850">
        <ele>1963.0</ele>
        <time>2017-09-30T12:03:05Z</time>
      </trkpt>
      <trkpt lat="41.076317" lon="-3.713667">
        <ele>1962.0</ele>
        <time>2017-09-30T12:03:06Z</time>
      </trkpt>
      <trkpt lat="41.076317" lon="-3.713483">
        <ele>1963.0</ele>
        <time>2017-09-30T12:03:07Z</time>
      </trkpt>
      <trkpt lat="41.076300" lon="-3.713300">
        <ele>1965.0</ele>
        <time>2017-09-30T12:03:08Z</time>
      </trkpt>
      <trkpt lat="41.076250" lon="-3.713167">
        <ele>1967.0</ele>
        <time>2017-09-30T12:03:09Z</time>
      </trkpt>
      <trkpt lat="41.076183" lon="-3.713050">
        <ele>1969.0</ele>
        <time>2017-09-30T12:03:10Z</time>
      </trkpt>
      <trkpt lat="41.076100" lon="-3.712967">
        <ele>1970.0</ele>
        <time>2017-09-30T12:03:11Z</time>
      </trkpt>
      <trkpt lat="41.076033" lon="-3.712933">
        <ele>1970.0</ele>
        <time>2017-09-30T12:03:12Z</time>
      </trkpt>
      <trkpt lat="41.075950" lon="-3.712917">
        <ele>1969.0</ele>
        <time>2017-09-30T12:03:13Z</time>
      </trkpt>
      <trkpt lat="41.075883" lon="-3.712933">
        <ele>1970.0</ele>
        <time>2017-09-30T12:03:14Z</time>
      </trkpt>
      <trkpt lat="41.075817" lon="-3.712967">
        <ele>1971.0</ele>
        <time>2017-09-30T12:03:15Z</time>
      </trkpt>
      <trkpt lat="41.075783" lon="-3.713017">
        <ele>1972.0</ele>
        <time>2017-09-30T12:03:16Z</time>
      </trkpt>
      <trkpt lat="41.075767" lon="-3.713067">
        <ele>1973.0</ele>
        <time>2017-09-30T12:03:17Z</time>
      </trkpt>
      <trkpt lat="41.075750" lon="-3.713117">
        <ele>1974.0</ele>
        <time>2017-09-30T12:03:18Z</time>
      </trkpt>
      <trkpt lat="41.075750" lon="-3.713167">
        <ele>1974.0</ele>
        <time>2017-09-30T12:03:19Z</time>
      </trkpt>
      <trkpt lat="41.075733" lon="-3.713217">
        <ele>1975.0</ele>
        <time>2017-09-30T12:03:20Z</time>
      </trkpt>
      <trkpt lat="41.075717" lon="-3.713250">
        <ele>1976.0</ele>
        <time>2017-09-30T12:03:21Z</time>
      </trkpt>
      <trkpt lat="41.075717" lon="-3.713300">
        <ele>1977.0</ele>
        <time>2017-09-30T12:03:22Z</time>
      </trkpt>
      <trkpt lat="41.075700" lon="-3.713350">
        <ele>1977.0</ele>
        <time>2017-09-30T12:03:23Z</time>
      </trkpt>
      <trkpt lat="41.075700" lon="-3.713400">
        <ele>1978.0</ele>
        <time>2017-09-30T12:03:24Z</time>
      </trkpt>
      <trkpt lat="41.075700" lon="-3.713450">
        <ele>1978.0</ele>
        <time>2017-09-30T12:03:25Z</time>
      </trkpt>
      <trkpt lat="41.075683" lon="-3.713500">
        <ele>1978.0</ele>
        <time>2017-09-30T12:03:26Z</time>
      </trkpt>
      <trkpt lat="41.075700" lon="-3.713533">
        <ele>1977.0</ele>
        <time>2017-09-30T12:03:27Z</time>
      </trkpt>
      <trkpt lat="41.075717" lon="-3.713583">
        <ele>1976.0</ele>
        <time>2017-09-30T12:03:28Z</time>
      </trkpt>
      <trkpt lat="41.075767" lon="-3.713617">
        <ele>1975.0</ele>
        <time>2017-09-30T12:03:29Z</time>
      </trkpt>
      <trkpt lat="41.075817" lon="-3.713633">
        <ele>1975.0</ele>
        <time>2017-09-30T12:03:30Z</time>
      </trkpt>
      <trkpt lat="41.075850" lon="-3.713667">
        <ele>1974.0</ele>
        <time>2017-09-30T12:03:31Z</time>
      </trkpt>
      <trkpt lat="41.075900" lon="-3.713683">
        <ele>1974.0</ele>
        <time>2017-09-30T12:03:32Z</time>
      </trkpt>
      <trkpt lat="41.075933" lon="-3.713700">
        <ele>1973.0</ele>
        <time>2017-09-30T12:03:33Z</time>
      </trkpt>
      <trkpt lat="41.075983" lon="-3.713717">
        <ele>1972.0</ele>
        <time>2017-09-30T12:03:34Z</time>
      </trkpt>
      <trkpt lat="41.076033" lon="-3.713733">
        <ele>1970.0</ele>
        <time>2017-09-30T12:03:35Z</time>
      </trkpt>
      <trkpt lat="41.076100" lon="-3.713733">
        <ele>1969.0</ele>
        <time>2017-09-30T12:03:36Z</time>
      </trkpt>
      <trkpt lat="41.076167" lon="-3.713717">
        <ele>1967.0</ele>
        <time>2017-09-30T12:03:37Z</time>
      </trkpt>
      <trkpt lat="41.076233" lon="-3.713717">
        <ele>1967.0</ele>
        <time>2017-09-30T12:03:38Z</time>
      </trkpt>
      <trkpt lat="41.076283" lon="-3.713717">
        <ele>1968.0</ele>
        <time>2017-09-30T12:03:39Z</time>
      </trkpt>
      <trkpt lat="41.076333" lon="-3.713717">
        <ele>1967.0</ele>
        <time>2017-09-30T12:03:40Z</time>
      </trkpt>
      <trkpt lat="41.076400" lon="-3.713717">
        <ele>1966.0</ele>
        <time>2017-09-30T12:03:41Z</time>
      </trkpt>
      <trkpt lat="41.076467" lon="-3.713700">
        <ele>1965.0</ele>
        <time>2017-09-30T12:03:42Z</time>
      </trkpt>
      <trkpt lat="41.076533" lon="-3.713700">
        <ele>1963.0</ele>
        <time>2017-09-30T12:03:43Z</time>
      </trkpt>
      <trkpt lat="41.076617" lon="-3.713700">
        <ele>1962.0</ele>
        <time>2017-09-30T12:03:44Z</time>
      </trkpt>
      <trkpt lat="41.076683" lon="-3.713683">
        <ele>1962.0</ele>
        <time>2017-09-30T12:03:45Z</time>
      </trkpt>
      <trkpt lat="41.076767" lon="-3.713633">
        <ele>1961.0</ele>
        <time>2017-09-30T12:03:46Z</time>
      </trkpt>
      <trkpt lat="41.076850" lon="-3.713583">
        <ele>1960.0</ele>
        <time>2017-09-30T12:03:47Z</time>
      </trkpt>
      <trkpt lat="41.076933" lon="-3.713517">
        <ele>1958.0</ele>
        <time>2017-09-30T12:03:48Z</time>
      </trkpt>
      <trkpt lat="41.077017" lon="-3.713417">
        <ele>1957.0</ele>
        <time>2017-09-30T12:03:49Z</time>
      </trkpt>
      <trkpt lat="41.077100" lon="-3.713317">
        <ele>1956.0</ele>
        <time>2017-09-30T12:03:50Z</time>
      </trkpt>
      <trkpt lat="41.077200" lon="-3.713217">
        <ele>1955.0</ele>
        <time>2017-09-30T12:03:51Z</time>
      </trkpt>
      <trkpt lat="41.077283" lon="-3.713117">
        <ele>1954.0</ele>
        <time>2017-09-30T12:03:52Z</time>
      </trkpt>
      <trkpt lat="41.077350" lon="-3.712983">
        <ele>1952.0</ele>
        <time>2017-09-30T12:03:53Z</time>
      </trkpt>
      <trkpt lat="41.077417" lon="-3.712833">
        <ele>1950.0</ele>
        <time>2017-09-30T12:03:54Z</time>
      </trkpt>
      <trkpt lat="41.077467" lon="-3.712683">
        <ele>1948.0</ele>
        <time>2017-09-30T12:03:55Z</time>
      </trkpt>
      <trkpt lat="41.077517" lon="-3.712517">
        <ele>1947.0</ele>
        <time>2017-09-30T12:03:56Z</time>
      </trkpt>
      <trkpt lat="41.077550" lon="-3.712350">
        <ele>1946.0</ele>
        <time>2017-09-30T12:03:57Z</time>
      </trkpt>
      <trkpt lat="41.077583" lon="-3.712200">
        <ele>1945.0</ele>
        <time>2017-09-30T12:03:58Z</time>
      </trkpt>
      <trkpt lat="41.077617" lon="-3.712050">
        <ele>1943.0</ele>
        <time>2017-09-30T12:03:59Z</time>
      </trkpt>
      <trkpt lat="41.077650" lon="-3.711883">
        <ele>1942.0</ele>
        <time>2017-09-30T12:04:00Z</time>
      </trkpt>
      <trkpt lat="41.077683" lon="-3.711717">
        <ele>1940.0</ele>
        <time>2017-09-30T12:04:01Z</time>
      </trkpt>
      <trkpt lat="41.077717" lon="-3.711550">
        <ele>1939.0</ele>
        <time>2017-09-30T12:04:02Z</time>
      </trkpt>
      <trkpt lat="41.077733" lon="-3.711383">
        <ele>1937.0</ele>
        <time>2017-09-30T12:04:03Z</time>
      </trkpt>
      <trkpt lat="41.077767" lon="-3.711217">
        <ele>1935.0</ele>
        <time>2017-09-30T12:04:04Z</time>
      </trkpt>
      <trkpt lat="41.077800" lon="-3.711017">
        <ele>1933.0</ele>
        <time>2017-09-30T12:04:05Z</time>
      </trkpt>
      <trkpt lat="41.077833" lon="-3.710833">
        <ele>1933.0</ele>
        <time>2017-09-30T12:04:06Z</time>
      </trkpt>
      <trkpt lat="41.077900" lon="-3.710667">
        <ele>1934.0</ele>
        <time>2017-09-30T12:04:07Z</time>
      </trkpt>
      <trkpt lat="41.077983" lon="-3.710550">
        <ele>1935.0</ele>
        <time>2017-09-30T12:04:08Z</time>
      </trkpt>
      <trkpt lat="41.078067" lon="-3.710467">
        <ele>1935.0</ele>
        <time>2017-09-30T12:04:09Z</time>
      </trkpt>
      <trkpt lat="41.078150" lon="-3.710417">
        <ele>1935.0</ele>
        <time>2017-09-30T12:04:10Z</time>
      </trkpt>
      <trkpt lat="41.078233" lon="-3.710383">
        <ele>1935.0</ele>
        <time>2017-09-30T12:04:11Z</time>
      </trkpt>
      <trkpt lat="41.078300" lon="-3.710367">
        <ele>1934.0</ele>
        <time>2017-09-30T12:04:12Z</time>
      </trkpt>
      <trkpt lat="41.078367" lon="-3.710350">
        <ele>1933.0</ele>
        <time>2017-09-30T12:04:13Z</time>
      </trkpt>
      <trkpt lat="41.078433" lon="-3.710367">
        <ele>1932.0</ele>
        <time>2017-09-30T12:04:14Z</time>
      </trkpt>
      <trkpt lat="41.078483" lon="-3.710417">
        <ele>1932.0</ele>
        <time>2017-09-30T12:04:15Z</time>
      </trkpt>
      <trkpt lat="41.078517" lon="-3.710467">
        <ele>1932.0</ele>
        <time>2017-09-30T12:04:16Z</time>
      </trkpt>
      <trkpt lat="41.078517" lon="-3.710517">
        <ele>1932.0</ele>
        <time>2017-09-30T12:04:17Z</time>
      </trkpt>
      <trkpt lat="41.078517" lon="-3.710567">
        <ele>1933.0</ele>
        <time>2017-09-30T12:04:18Z</time>
      </trkpt>
      <trkpt lat="41.078500" lon="-3.710600">
        <ele>1933.0</ele>
        <time>2017-09-30T12:04:19Z</time>
      </trkpt>
      <trkpt lat="41.078483" lon="-3.710633">
        <ele>1933.0</ele>
        <time>2017-09-30T12:04:20Z</time>
      </trkpt>
      <trkpt lat="41.078467" lon="-3.710667">
        <ele>1932.0</ele>
        <time>2017-09-30T12:04:21Z</time>
      </trkpt>
      <trkpt lat="41.078433" lon="-3.710700">
        <ele>1930.0</ele>
        <time>2017-09-30T12:04:22Z</time>
      </trkpt>
      <trkpt lat="41.078400" lon="-3.710750">
        <ele>1929.0</ele>
        <time>2017-09-30T12:04:23Z</time>
      </trkpt>
      <trkpt lat="41.078367" lon="-3.710783">
        <ele>1927.0</ele>
        <time>2017-09-30T12:04:24Z</time>
      </trkpt>
      <trkpt lat="41.078333" lon="-3.710833">
        <ele>1925.0</ele>
        <time>2017-09-30T12:04:25Z</time>
      </trkpt>
      <trkpt lat="41.078317" lon="-3.710867">
        <ele>1923.0</ele>
        <time>2017-09-30T12:04:26Z</time>
      </trkpt>
      <trkpt lat="41.078283" lon="-3.710917">
        <ele>1922.0</ele>
        <time>2017-09-30T12:04:27Z</time>
      </trkpt>
      <trkpt lat="41.078267" lon="-3.710967">
        <ele>1920.0</ele>
        <time>2017-09-30T12:04:28Z</time>
      </trkpt>
      <trkpt lat="41.078250" lon="-3.711000">
        <ele>1920.0</ele>
        <time>2017-09-30T12:04:29Z</time>
      </trkpt>
      <trkpt lat="41.078233" lon="-3.711050">
        <ele>1918.0</ele>
        <time>2017-09-30T12:04:30Z</time>
      </trkpt>
      <trkpt lat="41.078200" lon="-3.711117">
        <ele>1916.0</ele>
        <time>2017-09-30T12:04:31Z</time>
      </trkpt>
      <trkpt lat="41.078183" lon="-3.711200">
        <ele>1916.0</ele>
        <time>2017-09-30T12:04:32Z</time>
      </trkpt>
      <trkpt lat="41.078150" lon="-3.711283">
        <ele>1917.0</ele>
        <time>2017-09-30T12:04:33Z</time>
      </trkpt>
      <trkpt lat="41.078150" lon="-3.711333">
        <ele>1918.0</ele>
        <time>2017-09-30T12:04:34Z</time>
      </trkpt>
      <trkpt lat="41.078133" lon="-3.711383">
        <ele>1919.0</ele>
        <time>2017-09-30T12:04:35Z</time>
      </trkpt>
      <trkpt lat="41.078133" lon="-3.711433">
        <ele>1919.0</ele>
        <time>2017-09-30T12:04:36Z</time>
      </trkpt>
      <trkpt lat="41.078117" lon="-3.711483">
        <ele>1919.0</ele>
        <time>2017-09-30T12:04:37Z</time>
      </trkpt>
      <trkpt lat="41.078100" lon="-3.711550">
        <ele>1917.0</ele>
        <time>2017-09-30T12:04:38Z</time>
      </trkpt>
      <trkpt lat="41.078100" lon="-3.711617">
        <ele>1916.0</ele>
        <time>2017-09-30T12:04:39Z</time>
      </trkpt>
      <trkpt lat="41.078100" lon="-3.711683">
        <ele>1917.0</ele>
        <time>2017-09-30T12:04:40Z</time>
      </trkpt>
      <trkpt lat="41.078133" lon="-3.711733">
        <ele>1919.0</ele>
        <time>2017-09-30T12:04:41Z</time>
      </trkpt>
      <trkpt lat="41.078167" lon="-3.711767">
        <ele>1921.0</ele>
        <time>2017-09-30T12:04:42Z</time>
      </trkpt>
      <trkpt lat="41.078200" lon="-3.711783">
        <ele>1921.0</ele>
        <time>2017-09-30T12:04:43Z</time>
      </trkpt>
      <trkpt lat="41.078250" lon="-3.711800">
        <ele>1920.0</ele>
        <time>2017-09-30T12:04:44Z</time>
      </trkpt>
      <trkpt lat="41.078333" lon="-3.711833">
        <ele>1919.0</ele>
        <time>2017-09-30T12:04:45Z</time>
      </trkpt>
      <trkpt lat="41.078417" lon="-3.711833">
        <ele>1919.0</ele>
        <time>2017-09-30T12:04:46Z</time>
      </trkpt>
      <trkpt lat="41.078517" lon="-3.711800">
        <ele>1921.0</ele>
        <time>2017-09-30T12:04:47Z</time>
      </trkpt>
      <trkpt lat="41.078583" lon="-3.711700">
        <ele>1921.0</ele>
        <time>2017-09-30T12:04:48Z</time>
      </trkpt>
      <trkpt lat="41.078650" lon="-3.711583">
        <ele>1920.0</ele>
        <time>2017-09-30T12:04:49Z</time>
      </trkpt>
      <trkpt lat="41.078700" lon="-3.711450">
        <ele>1918.0</ele>
        <time>2017-09-30T12:04:50Z</time>
      </trkpt>
      <trkpt lat="41.078767" lon="-3.711317">
        <ele>1917.0</ele>
        <time>2017-09-30T12:04:51Z</time>
      </trkpt>
      <trkpt lat="41.078833" lon="-3.711167">
        <ele>1916.0</ele>
        <time>2017-09-30T12:04:52Z</time>
      </trkpt>
      <trkpt lat="41.078883" lon="-3.711000">
        <ele>1915.0</ele>
        <time>2017-09-30T12:04:53Z</time>
      </trkpt>
      <trkpt lat="41.078900" lon="-3.710800">
        <ele>1915.0</ele>
        <time>2017-09-30T12:04:54Z</time>
      </trkpt>
      <trkpt lat="41.078883" lon="-3.710633">
        <ele>1915.0</ele>
        <time>2017-09-30T12:04:55Z</time>
      </trkpt>
      <trkpt lat="41.078850" lon="-3.710467">
        <ele>1915.0</ele>
        <time>2017-09-30T12:04:56Z</time>
      </trkpt>
      <trkpt lat="41.078783" lon="-3.710333">
        <ele>1915.0</ele>
        <time>2017-09-30T12:04:57Z</time>
      </trkpt>
      <trkpt lat="41.078700" lon="-3.710217">
        <ele>1914.0</ele>
        <time>2017-09-30T12:04:58Z</time>
      </trkpt>
      <trkpt lat="41.078600" lon="-3.710117">
        <ele>1913.0</ele>
        <time>2017-09-30T12:04:59Z</time>
      </trkpt>
      <trkpt lat="41.078517" lon="-3.710050">
        <ele>1913.0</ele>
        <time>2017-09-30T12:05:00Z</time>
      </trkpt>
      <trkpt lat="41.078417" lon="-3.710000">
        <ele>1913.0</ele>
        <time>2017-09-30T12:05:01Z</time>
      </trkpt>
      <trkpt lat="41.078333" lon="-3.709983">
        <ele>1913.0</ele>
        <time>2017-09-30T12:05:02Z</time>
      </trkpt>
      <trkpt lat="41.078250" lon="-3.709983">
        <ele>1912.0</ele>
        <time>2017-09-30T12:05:03Z</time>
      </trkpt>
      <trkpt lat="41.078183" lon="-3.710000">
        <ele>1913.0</ele>
        <time>2017-09-30T12:05:04Z</time>
      </trkpt>
      <trkpt lat="41.078133" lon="-3.710017">
        <ele>1913.0</ele>
        <time>2017-09-30T12:05:05Z</time>
      </trkpt>
      <trkpt lat="41.078100" lon="-3.710033">
        <ele>1913.0</ele>
        <time>2017-09-30T12:05:06Z</time>
      </trkpt>
      <trkpt lat="41.078083" lon="-3.710067">
        <ele>1913.0</ele>
        <time>2017-09-30T12:05:07Z</time>
      </trkpt>
      <trkpt lat="41.078050" lon="-3.710100">
        <ele>1912.0</ele>
        <time>2017-09-30T12:05:08Z</time>
      </trkpt>
      <trkpt lat="41.078033" lon="-3.710150">
        <ele>1911.0</ele>
        <time>2017-09-30T12:05:09Z</time>
      </trkpt>
      <trkpt lat="41.078017" lon="-3.710217">
        <ele>1912.0</ele>
        <time>2017-09-30T12:05:10Z</time>
      </trkpt>
      <trkpt lat="41.078000" lon="-3.710267">
        <ele>1913.0</ele>
        <time>2017-09-30T12:05:11Z</time>
      </trkpt>
      <trkpt lat="41.077983" lon="-3.710283">
        <ele>1914.0</ele>
        <time>2017-09-30T12:05:12Z</time>
      </trkpt>
      <trkpt lat="41.077950" lon="-3.710317">
        <ele>1914.0</ele>
        <time>2017-09-30T12:05:13Z</time>
      </trkpt>
      <trkpt lat="41.077933" lon="-3.710350">
        <ele>1912.0</ele>
        <time>2017-09-30T12:05:14Z</time>
      </trkpt>
      <trkpt lat="41.077917" lon="-3.710400">
        <ele>1910.0</ele>
        <time>2017-09-30T12:05:15Z</time>
      </trkpt>
      <trkpt lat="41.077917" lon="-3.710467">
        <ele>1908.0</ele>
        <time>2017-09-30T12:05:16Z</time>
      </trkpt>
      <trkpt lat="41.077933" lon="-3.710533">
        <ele>1908.0</ele>
        <time>2017-09-30T12:05:17Z</time>
      </trkpt>
      <trkpt lat="41.077917" lon="-3.710583">
        <ele>1909.0</ele>
        <time>2017-09-30T12:05:18Z</time>
      </trkpt>
      <trkpt lat="41.077900" lon="-3.710617">
        <ele>1911.0</ele>
        <time>2017-09-30T12:05:19Z</time>
      </trkpt>
      <trkpt lat="41.077867" lon="-3.710650">
        <ele>1912.0</ele>
        <time>2017-09-30T12:05:20Z</time>
      </trkpt>
      <trkpt lat="41.077850" lon="-3.710683">
        <ele>1913.0</ele>
        <time>2017-09-30T12:05:21Z</time>
      </trkpt>
      <trkpt lat="41.077817" lon="-3.710717">
        <ele>1913.0</ele>
        <time>2017-09-30T12:05:22Z</time>
      </trkpt>
      <trkpt lat="41.077817" lon="-3.710783">
        <ele>1913.0</ele>
        <time>2017-09-30T12:05:23Z</time>
      </trkpt>
      <trkpt lat="41.077833" lon="-3.710850">
        <ele>1914.0</ele>
        <time>2017-09-30T12:05:24Z</time>
      </trkpt>
      <trkpt lat="41.077850" lon="-3.710900">
        <ele>1915.0</ele>
        <time>2017-09-30T12:05:25Z</time>
      </trkpt>
      <trkpt lat="41.077883" lon="-3.710933">
        <ele>1918.0</ele>
        <time>2017-09-30T12:05:26Z</time>
      </trkpt>
      <trkpt lat="41.077900" lon="-3.710933">
        <ele>1919.0</ele>
        <time>2017-09-30T12:05:27Z</time>
      </trkpt>
      <trkpt lat="41.077933" lon="-3.710933">
        <ele>1917.0</ele>
        <time>2017-09-30T12:05:28Z</time>
      </trkpt>
      <trkpt lat="41.077983" lon="-3.710950">
        <ele>1915.0</ele>
        <time>2017-09-30T12:05:29Z</time>
      </trkpt>
      <trkpt lat="41.078050" lon="-3.710967">
        <ele>1913.0</ele>
        <time>2017-09-30T12:05:30Z</time>
      </trkpt>
      <trkpt lat="41.078117" lon="-3.710983">
        <ele>1911.0</ele>
        <time>2017-09-30T12:05:31Z</time>
      </trkpt>
      <trkpt lat="41.078167" lon="-3.711000">
        <ele>1911.0</ele>
        <time>2017-09-30T12:05:32Z</time>
      </trkpt>
      <trkpt lat="41.078217" lon="-3.711017">
        <ele>1911.0</ele>
        <time>2017-09-30T12:05:33Z</time>
      </trkpt>
      <trkpt lat="41.078233" lon="-3.711050">
        <ele>1910.0</ele>
        <time>2017-09-30T12:05:34Z</time>
      </trkpt>
      <trkpt lat="41.078250" lon="-3.711100">
        <ele>1908.0</ele>
        <time>2017-09-30T12:05:35Z</time>
      </trkpt>
      <trkpt lat="41.078250" lon="-3.711167">
        <ele>1906.0</ele>
        <time>2017-09-30T12:05:36Z</time>
      </trkpt>
      <trkpt lat="41.078233" lon="-3.711250">
        <ele>1904.0</ele>
        <time>2017-09-30T12:05:37Z</time>
      </trkpt>
      <trkpt lat="41.078200" lon="-3.711317">
        <ele>1902.0</ele>
        <time>2017-09-30T12:05:38Z</time>
      </trkpt>
      <trkpt lat="41.078167" lon="-3.711367">
        <ele>1902.0</ele>
        <time>2017-09-30T12:05:39Z</time>
      </trkpt>
      <trkpt lat="41.078133" lon="-3.711417">
        <ele>1902.0</ele>
        <time>2017-09-30T12:05:40Z</time>
      </trkpt>
      <trkpt lat="41.078083" lon="-3.711450">
        <ele>1900.0</ele>
        <time>2017-09-30T12:05:41Z</time>
      </trkpt>
      <trkpt lat="41.078033" lon="-3.711483">
        <ele>1898.0</ele>
        <time>2017-09-30T12:05:42Z</time>
      </trkpt>
      <trkpt lat="41.078000" lon="-3.711533">
        <ele>1896.0</ele>
        <time>2017-09-30T12:05:43Z</time>
      </trkpt>
      <trkpt lat="41.077933" lon="-3.711583">
        <ele>1893.0</ele>
        <time>2017-09-30T12:05:44Z</time>
      </trkpt>
      <trkpt lat="41.077883" lon="-3.711650">
        <ele>1892.0</ele>
        <time>2017-09-30T12:05:45Z</time>
      </trkpt>
      <trkpt lat="41.077817" lon="-3.711700">
        <ele>1892.0</ele>
        <time>2017-09-30T12:05:46Z</time>
      </trkpt>
      <trkpt lat="41.077767" lon="-3.711733">
        <ele>1892.0</ele>
        <time>2017-09-30T12:05:47Z</time>
      </trkpt>
      <trkpt lat="41.077717" lon="-3.711767">
        <ele>1891.0</ele>
        <time>2017-09-30T12:05:48Z</time>
      </trkpt>
      <trkpt lat="41.077667" lon="-3.711817">
        <ele>1890.0</ele>
        <time>2017-09-30T12:05:49Z</time>
      </trkpt>
      <trkpt lat="41.077633" lon="-3.711850">
        <ele>1889.0</ele>
        <time>2017-09-30T12:05:50Z</time>
      </trkpt>
      <trkpt lat="41.077583" lon="-3.711917">
        <ele>1887.0</ele>
        <time>2017-09-30T12:05:51Z</time>
      </trkpt>
      <trkpt lat="41.077533" lon="-3.711967">
        <ele>1886.0</ele>
        <time>2017-09-30T12:05:52Z</time>
      </trkpt>
      <trkpt lat="41.077483" lon="-3.712017">
        <ele>1886.0</ele>
        <time>2017-09-30T12:05:53Z</time>
      </trkpt>
      <trkpt lat="41.077433" lon="-3.712067">
        <ele>1886.0</ele>
        <time>2017-09-30T12:05:54Z</time>
      </trkpt>
      <trkpt lat="41.077400" lon="-3.712117">
        <ele>1886.0</ele>
        <time>2017-09-30T12:05:55Z</time>
      </trkpt>
      <trkpt lat="41.077350" lon="-3.712150">
        <ele>1885.0</ele>
        <time>2017-09-30T12:05:56Z</time>
      </trkpt>
      <trkpt lat="41.077317" lon="-3.712217">
        <ele>1885.0</ele>
        <time>2017-09-30T12:05:57Z</time>
      </trkpt>
      <trkpt lat="41.077283" lon="-3.712283">
        <ele>1885.0</ele>
        <time>2017-09-30T12:05:58Z</time>
      </trkpt>
      <trkpt lat="41.077250" lon="-3.712350">
        <ele>1887.0</ele>
        <time>2017-09-30T12:05:59Z</time>
      </trkpt>
      <trkpt lat="41.077250" lon="-3.712417">
        <ele>1888.0</ele>
        <time>2017-09-30T12:06:00Z</time>
      </trkpt>
      <trkpt lat="41.077250" lon="-3.712483">
        <ele>1889.0</ele>
        <time>2017-09-30T12:06:01Z</time>
      </trkpt>
      <trkpt lat="41.077267" lon="-3.712533">
        <ele>1889.0</ele>
        <time>2017-09-30T12:06:02Z</time>
      </trkpt>
      <trkpt lat="41.077283" lon="-3.712583">
        <ele>1888.0</ele>
        <time>2017-09-30T12:06:03Z</time>
      </trkpt>
      <trkpt lat="41.077300" lon="-3.712633">
        <ele>1887.0</ele>
        <time>2017-09-30T12:06:04Z</time>
      </trkpt>
      <trkpt lat="41.077350" lon="-3.712683">
        <ele>1886.0</ele>
        <time>2017-09-30T12:06:05Z</time>
      </trkpt>
      <trkpt lat="41.077400" lon="-3.712733">
        <ele>1884.0</ele>
        <time>2017-09-30T12:06:06Z</time>
      </trkpt>
      <trkpt lat="41.077467" lon="-3.712750">
        <ele>1883.0</ele>
        <time>2017-09-30T12:06:07Z</time>
      </trkpt>
      <trkpt lat="41.077550" lon="-3.712767">
        <ele>1882.0</ele>
        <time>2017-09-30T12:06:08Z</time>
      </trkpt>
      <trkpt lat="41.077633" lon="-3.712767">
        <ele>1882.0</ele>
        <time>2017-09-30T12:06:09Z</time>
      </trkpt>
      <trkpt lat="41.077700" lon="-3.712750">
        <ele>1882.0</ele>
        <time>2017-09-30T12:06:10Z</time>
      </trkpt>
      <trkpt lat="41.077767" lon="-3.712717">
        <ele>1881.0</ele>
        <time>2017-09-30T12:06:11Z</time>
      </trkpt>
      <trkpt lat="41.077850" lon="-3.712667">
        <ele>1880.0</ele>
        <time>2017-09-30T12:06:12Z</time>
      </trkpt>
      <trkpt lat="41.077933" lon="-3.712600">
        <ele>1878.0</ele>
        <time>2017-09-30T12:06:13Z</time>
      </trkpt>
      <trkpt lat="41.078000" lon="-3.712517">
        <ele>1876.0</ele>
        <time>2017-09-30T12:06:14Z</time>
      </trkpt>
      <trkpt lat="41.078083" lon="-3.712400">
        <ele>1874.0</ele>
        <time>2017-09-30T12:06:15Z</time>
      </trkpt>
      <trkpt lat="41.078150" lon="-3.712267">
        <ele>1873.0</ele>
        <time>2017-09-30T12:06:16Z</time>
      </trkpt>
      <trkpt lat="41.078183" lon="-3.712133">
        <ele>1871.0</ele>
        <time>2017-09-30T12:06:17Z</time>
      </trkpt>
      <trkpt lat="41.078233" lon="-3.711983">
        <ele>1870.0</ele>
        <time>2017-09-30T12:06:18Z</time>
      </trkpt>
      <trkpt lat="41.078267" lon="-3.711833">
        <ele>1869.0</ele>
        <time>2017-09-30T12:06:19Z</time>
      </trkpt>
      <trkpt lat="41.078300" lon="-3.711683">
        <ele>1868.0</ele>
        <time>2017-09-30T12:06:20Z</time>
      </trkpt>
      <trkpt lat="41.078333" lon="-3.711533">
        <ele>1866.0</ele>
        <time>2017-09-30T12:06:21Z</time>
      </trkpt>
      <trkpt lat="41.078367" lon="-3.711383">
        <ele>1865.0</ele>
        <time>2017-09-30T12:06:22Z</time>
      </trkpt>
      <trkpt lat="41.078400" lon="-3.711233">
        <ele>1864.0</ele>
        <time>2017-09-30T12:06:23Z</time>
      </trkpt>
      <trkpt lat="41.078433" lon="-3.711067">
        <ele>1863.0</ele>
        <time>2017-09-30T12:06:24Z</time>
      </trkpt>
      <trkpt lat="41.078467" lon="-3.710917">
        <ele>1862.0</ele>
        <time>2017-09-30T12:06:25Z</time>
      </trkpt>
      <trkpt lat="41.078483" lon="-3.710767">
        <ele>1862.0</ele>
        <time>2017-09-30T12:06:26Z</time>
      </trkpt>
      <trkpt lat="41.078517" lon="-3.710617">
        <ele>1861.0</ele>
        <time>2017-09-30T12:06:27Z</time>
      </trkpt>
      <trkpt lat="41.078550" lon="-3.710467">
        <ele>1861.0</ele>
        <time>2017-09-30T12:06:28Z</time>
      </trkpt>
      <trkpt lat="41.078583" lon="-3.710317">
        <ele>1860.0</ele>
        <time>2017-09-30T12:06:29Z</time>
      </trkpt>
      <trkpt lat="41.078617" lon="-3.710167">
        <ele>1860.0</ele>
        <time>2017-09-30T12:06:30Z</time>
      </trkpt>
      <trkpt lat="41.078667" lon="-3.710017">
        <ele>1860.0</ele>
        <time>2017-09-30T12:06:31Z</time>
      </trkpt>
      <trkpt lat="41.078700" lon="-3.709883">
        <ele>1861.0</ele>
        <time>2017-09-30T12:06:32Z</time>
      </trkpt>
      <trkpt lat="41.078733" lon="-3.709750">
        <ele>1861.0</ele>
        <time>2017-09-30T12:06:33Z</time>
      </trkpt>
      <trkpt lat="41.078800" lon="-3.709617">
        <ele>1862.0</ele>
        <time>2017-09-30T12:06:34Z</time>
      </trkpt>
      <trkpt lat="41.078850" lon="-3.709500">
        <ele>1863.0</ele>
        <time>2017-09-30T12:06:35Z</time>
      </trkpt>
      <trkpt lat="41.078933" lon="-3.709400">
        <ele>1864.0</ele>
        <time>2017-09-30T12:06:36Z</time>
      </trkpt>
      <trkpt lat="41.079017" lon="-3.709317">
        <ele>1864.0</ele>
        <time>2017-09-30T12:06:37Z</time>
      </trkpt>
      <trkpt lat="41.079100" lon="-3.709267">
        <ele>1864.0</ele>
        <time>2017-09-30T12:06:38Z</time>
      </trkpt>
      <trkpt lat="41.079183" lon="-3.709217">
        <ele>1863.0</ele>
        <time>2017-09-30T12:06:39Z</time>
      </trkpt>
      <trkpt lat="41.079283" lon="-3.709217">
        <ele>1861.0</ele>
        <time>2017-09-30T12:06:40Z</time>
      </trkpt>
      <trkpt lat="41.079367" lon="-3.709200">
        <ele>1860.0</ele>
        <time>2017-09-30T12:06:41Z</time>
      </trkpt>
      <trkpt lat="41.079450" lon="-3.709167">
        <ele>1860.0</ele>
        <time>2017-09-30T12:06:42Z</time>
      </trkpt>
      <trkpt lat="41.079533" lon="-3.709100">
        <ele>1860.0</ele>
        <time>2017-09-30T12:06:43Z</time>
      </trkpt>
      <trkpt lat="41.079617" lon="-3.709000">
        <ele>1858.0</ele>
        <time>2017-09-30T12:06:44Z</time>
      </trkpt>
      <trkpt lat="41.079683" lon="-3.708867">
        <ele>1857.0</ele>
        <time>2017-09-30T12:06:45Z</time>
      </trkpt>
      <trkpt lat="41.079733" lon="-3.708717">
        <ele>1855.0</ele>
        <time>2017-09-30T12:06:46Z</time>
      </trkpt>
      <trkpt lat="41.079767" lon="-3.708550">
        <ele>1852.0</ele>
        <time>2017-09-30T12:06:47Z</time>
      </trkpt>
      <trkpt lat="41.079750" lon="-3.708367">
        <ele>1850.0</ele>
        <time>2017-09-30T12:06:48Z</time>
      </trkpt>
      <trkpt lat="41.079733" lon="-3.708200">
        <ele>1848.0</ele>
        <time>2017-09-30T12:06:49Z</time>
      </trkpt>
      <trkpt lat="41.079683" lon="-3.708033">
        <ele>1848.0</ele>
        <time>2017-09-30T12:06:50Z</time>
      </trkpt>
      <trkpt lat="41.079617" lon="-3.707917">
        <ele>1848.0</ele>
        <time>2017-09-30T12:06:51Z</time>
      </trkpt>
      <trkpt lat="41.079533" lon="-3.707800">
        <ele>1846.0</ele>
        <time>2017-09-30T12:06:52Z</time>
      </trkpt>
      <trkpt lat="41.079467" lon="-3.707683">
        <ele>1845.0</ele>
        <time>2017-09-30T12:06:53Z</time>
      </trkpt>
      <trkpt lat="41.079367" lon="-3.707600">
        <ele>1844.0</ele>
        <time>2017-09-30T12:06:54Z</time>
      </trkpt>
      <trkpt lat="41.079267" lon="-3.707533">
        <ele>1843.0</ele>
        <time>2017-09-30T12:06:55Z</time>
      </trkpt>
      <trkpt lat="41.079150" lon="-3.707483">
        <ele>1843.0</ele>
        <time>2017-09-30T12:06:56Z</time>
      </trkpt>
      <trkpt lat="41.079050" lon="-3.707450">
        <ele>1843.0</ele>
        <time>2017-09-30T12:06:57Z</time>
      </trkpt>
      <trkpt lat="41.078933" lon="-3.707417">
        <ele>1844.0</ele>
        <time>2017-09-30T12:06:58Z</time>
      </trkpt>
      <trkpt lat="41.078850" lon="-3.707417">
        <ele>1845.0</ele>
        <time>2017-09-30T12:06:59Z</time>
      </trkpt>
      <trkpt lat="41.078767" lon="-3.707417">
        <ele>1846.0</ele>
        <time>2017-09-30T12:07:00Z</time>
      </trkpt>
      <trkpt lat="41.078683" lon="-3.707433">
        <ele>1846.0</ele>
        <time>2017-09-30T12:07:01Z</time>
      </trkpt>
      <trkpt lat="41.078617" lon="-3.707467">
        <ele>1847.0</ele>
        <time>2017-09-30T12:07:02Z</time>
      </trkpt>
      <trkpt lat="41.078550" lon="-3.707517">
        <ele>1849.0</ele>
        <time>2017-09-30T12:07:03Z</time>
      </trkpt>
      <trkpt lat="41.078533" lon="-3.707600">
        <ele>1850.0</ele>
        <time>2017-09-30T12:07:04Z</time>
      </trkpt>
      <trkpt lat="41.078533" lon="-3.707667">
        <ele>1850.0</ele>
        <time>2017-09-30T12:07:05Z</time>
      </trkpt>
      <trkpt lat="41.078567" lon="-3.707750">
        <ele>1851.0</ele>
        <time>2017-09-30T12:07:06Z</time>
      </trkpt>
      <trkpt lat="41.078633" lon="-3.707783">
        <ele>1853.0</ele>
        <time>2017-09-30T12:07:07Z</time>
      </trkpt>
      <trkpt lat="41.078700" lon="-3.707767">
        <ele>1856.0</ele>
        <time>2017-09-30T12:07:08Z</time>
      </trkpt>
      <trkpt lat="41.078783" lon="-3.707717">
        <ele>1857.0</ele>
        <time>2017-09-30T12:07:09Z</time>
      </trkpt>
      <trkpt lat="41.078850" lon="-3.707617">
        <ele>1858.0</ele>
        <time>2017-09-30T12:07:10Z</time>
      </trkpt>
      <trkpt lat="41.078900" lon="-3.707500">
        <ele>1859.0</ele>
        <time>2017-09-30T12:07:11Z</time>
      </trkpt>
      <trkpt lat="41.078967" lon="-3.707400">
        <ele>1859.0</ele>
        <time>2017-09-30T12:07:12Z</time>
      </trkpt>
      <trkpt lat="41.079033" lon="-3.707317">
        <ele>1859.0</ele>
        <time>2017-09-30T12:07:13Z</time>
      </trkpt>
      <trkpt lat="41.079117" lon="-3.707267">
        <ele>1858.0</ele>
        <time>2017-09-30T12:07:14Z</time>
      </trkpt>
      <trkpt lat="41.079200" lon="-3.707267">
        <ele>1857.0</ele>
        <time>2017-09-30T12:07:15Z</time>
      </trkpt>
      <trkpt lat="41.079267" lon="-3.707283">
        <ele>1856.0</ele>
        <time>2017-09-30T12:07:16Z</time>
      </trkpt>
      <trkpt lat="41.079300" lon="-3.707333">
        <ele>1856.0</ele>
        <time>2017-09-30T12:07:17Z</time>
      </trkpt>
      <trkpt lat="41.079317" lon="-3.707383">
        <ele>1856.0</ele>
        <time>2017-09-30T12:07:18Z</time>
      </trkpt>
      <trkpt lat="41.079283" lon="-3.707433">
        <ele>1856.0</ele>
        <time>2017-09-30T12:07:19Z</time>
      </trkpt>
      <trkpt lat="41.079250" lon="-3.707467">
        <ele>1855.0</ele>
        <time>2017-09-30T12:07:20Z</time>
      </trkpt>
      <trkpt lat="41.079200" lon="-3.707483">
        <ele>1855.0</ele>
        <time>2017-09-30T12:07:21Z</time>
      </trkpt>
      <trkpt lat="41.079167" lon="-3.707517">
        <ele>1855.0</ele>
        <time>2017-09-30T12:07:22Z</time>
      </trkpt>
      <trkpt lat="41.079117" lon="-3.707550">
        <ele>1855.0</ele>
        <time>2017-09-30T12:07:23Z</time>
      </trkpt>
      <trkpt lat="41.079067" lon="-3.707600">
        <ele>1855.0</ele>
        <time>2017-09-30T12:07:24Z</time>
      </trkpt>
      <trkpt lat="41.079017" lon="-3.707650">
        <ele>1856.0</ele>
        <time>2017-09-30T12:07:25Z</time>
      </trkpt>
      <trkpt lat="41.078983" lon="-3.707683">
        <ele>1858.0</ele>
        <time>2017-09-30T12:07:26Z</time>
      </trkpt>
      <trkpt lat="41.078950" lon="-3.707717">
        <ele>1858.0</ele>
        <time>2017-09-30T12:07:27Z</time>
      </trkpt>
      <trkpt lat="41.078900" lon="-3.707750">
        <ele>1859.0</ele>
        <time>2017-09-30T12:07:28Z</time>
      </trkpt>
      <trkpt lat="41.078867" lon="-3.707783">
        <ele>1858.0</ele>
        <time>2017-09-30T12:07:29Z</time>
      </trkpt>
      <trkpt lat="41.078800" lon="-3.707833">
        <ele>1858.0</ele>
        <time>2017-09-30T12:07:30Z</time>
      </trkpt>
      <trkpt lat="41.078767" lon="-3.707900">
        <ele>1858.0</ele>
        <time>2017-09-30T12:07:31Z</time>
      </trkpt>
      <trkpt lat="41.078733" lon="-3.707950">
        <ele>1858.0</ele>
        <time>2017-09-30T12:07:32Z</time>
      </trkpt>
      <trkpt lat="41.078700" lon="-3.708000">
        <ele>1858.0</ele>
        <time>2017-09-30T12:07:33Z</time>
      </trkpt>
      <trkpt lat="41.078667" lon="-3.708050">
        <ele>1858.0</ele>
        <time>2017-09-30T12:07:34Z</time>
      </trkpt>
      <trkpt lat="41.078650" lon="-3.708100">
        <ele>1857.0</ele>
        <time>2017-09-30T12:07:35Z</time>
      </trkpt>
      <trkpt lat="41.078633" lon="-3.708167">
        <ele>1857.0</ele>
        <time>2017-09-30T12:07:36Z</time>
      </trkpt>
      <trkpt lat="41.078650" lon="-3.708233">
        <ele>1857.0</ele>
        <time>2017-09-30T12:07:37Z</time>
      </trkpt>
      <trkpt lat="41.078650" lon="-3.708300">
        <ele>1858.0</ele>
        <time>2017-09-30T12:07:38Z</time>
      </trkpt>
      <trkpt lat="41.078650" lon="-3.708367">
        <ele>1859.0</ele>
        <time>2017-09-30T12:07:39Z</time>
      </trkpt>
      <trkpt lat="41.078650" lon="-3.708417">
        <ele>1859.0</ele>
        <time>2017-09-30T12:07:40Z</time>
      </trkpt>
      <trkpt lat="41.078683" lon="-3.708483">
        <ele>1858.0</ele>
        <time>2017-09-30T12:07:41Z</time>
      </trkpt>
      <trkpt lat="41.078717" lon="-3.708533">
        <ele>1857.0</ele>
        <time>2017-09-30T12:07:42Z</time>
      </trkpt>
      <trkpt lat="41.078783" lon="-3.708567">
        <ele>1857.0</ele>
        <time>2017-09-30T12:07:43Z</time>
      </trkpt>
      <trkpt lat="41.078833" lon="-3.708600">
        <ele>1857.0</ele>
        <time>2017-09-30T12:07:44Z</time>
      </trkpt>
      <trkpt lat="41.078900" lon="-3.708617">
        <ele>1857.0</ele>
        <time>2017-09-30T12:07:45Z</time>
      </trkpt>
      <trkpt lat="41.078967" lon="-3.708600">
        <ele>1857.0</ele>
        <time>2017-09-30T12:07:46Z</time>
      </trkpt>
      <trkpt lat="41.079050" lon="-3.708583">
        <ele>1857.0</ele>
        <time>2017-09-30T12:07:47Z</time>
      </trkpt>
      <trkpt lat="41.079117" lon="-3.708500">
        <ele>1856.0</ele>
        <time>2017-09-30T12:07:48Z</time>
      </trkpt>
      <trkpt lat="41.079183" lon="-3.708400">
        <ele>1855.0</ele>
        <time>2017-09-30T12:07:49Z</time>
      </trkpt>
      <trkpt lat="41.079250" lon="-3.708267">
        <ele>1854.0</ele>
        <time>2017-09-30T12:07:50Z</time>
      </trkpt>
      <trkpt lat="41.079283" lon="-3.708117">
        <ele>1853.0</ele>
        <time>2017-09-30T12:07:51Z</time>
      </trkpt>
      <trkpt lat="41.079300" lon="-3.707967">
        <ele>1852.0</ele>
        <time>2017-09-30T12:07:52Z</time>
      </trkpt>
      <trkpt lat="41.079317" lon="-3.707800">
        <ele>1850.0</ele>
        <time>2017-09-30T12:07:53Z</time>
      </trkpt>
      <trkpt lat="41.079333" lon="-3.707633">
        <ele>1849.0</ele>
        <time>2017-09-30T12:07:54Z</time>
      </trkpt>
      <trkpt lat="41.079350" lon="-3.707467">
        <ele>1848.0</ele>
        <time>2017-09-30T12:07:55Z</time>
      </trkpt>
      <trkpt lat="41.079383" lon="-3.707317">
        <ele>1847.0</ele>
        <time>2017-09-30T12:07:56Z</time>
      </trkpt>
      <trkpt lat="41.079433" lon="-3.707167">
        <ele>1846.0</ele>
        <time>2017-09-30T12:07:57Z</time>
      </trkpt>
      <trkpt lat="41.079500" lon="-3.707050">
        <ele>1846.0</ele>
        <time>2017-09-30T12:07:58Z</time>
      </trkpt>
      <trkpt lat="41.079583" lon="-3.706967">
        <ele>1845.0</ele>
        <time>2017-09-30T12:07:59Z</time>
      </trkpt>
      <trkpt lat="41.079667" lon="-3.706933">
        <ele>1845.0</ele>
        <time>2017-09-30T12:08:00Z</time>
      </trkpt>
      <trkpt lat="41.079733" lon="-3.706950">
        <ele>1844.0</ele>
        <time>2017-09-30T12:08:01Z</time>
      </trkpt>
      <trkpt lat="41.079783" lon="-3.707000">
        <ele>1844.0</ele>
        <time>2017-09-30T12:08:02Z</time>
      </trkpt>
      <trkpt lat="41.079817" lon="-3.707083">
        <ele>1845.0</ele>
        <time>2017-09-30T12:08:03Z</time>
      </trkpt>
      <trkpt lat="41.079800" lon="-3.707150">
        <ele>1846.0</ele>
        <time>2017-09-30T12:08:04Z</time>
      </trkpt>
      <trkpt lat="41.079783" lon="-3.707217">
        <ele>1848.0</ele>
        <time>2017-09-30T12:08:05Z</time>
      </trkpt>
      <trkpt lat="41.079750" lon="-3.707267">
        <ele>1850.0</ele>
        <time>2017-09-30T12:08:06Z</time>
      </trkpt>
      <trkpt lat="41.079700" lon="-3.707300">
        <ele>1851.0</ele>
        <time>2017-09-30T12:08:07Z</time>
      </trkpt>
      <trkpt lat="41.079683" lon="-3.707317">
        <ele>1851.0</ele>
        <time>2017-09-30T12:08:08Z</time>
      </trkpt>
      <trkpt lat="41.079650" lon="-3.707333">
        <ele>1850.0</ele>
        <time>2017-09-30T12:08:09Z</time>
      </trkpt>
      <trkpt lat="41.079633" lon="-3.707383">
        <ele>1848.0</ele>
        <time>2017-09-30T12:08:10Z</time>
      </trkpt>
      <trkpt lat="41.079617" lon="-3.707433">
        <ele>1845.0</ele>
        <time>2017-09-30T12:08:11Z</time>
      </trkpt>
      <trkpt lat="41.079567" lon="-3.707483">
        <ele>1844.0</ele>
        <time>2017-09-30T12:08:12Z</time>
      </trkpt>
      <trkpt lat="41.079517" lon="-3.707517">
        <ele>1842.0</ele>
        <time>2017-09-30T12:08:13Z</time>
      </trkpt>
      <trkpt lat="41.079433" lon="-3.707517">
        <ele>1841.0</ele>
        <time>2017-09-30T12:08:14Z</time>
      </trkpt>
      <trkpt lat="41.079350" lon="-3.707500">
        <ele>1840.0</ele>
        <time>2017-09-30T12:08:15Z</time>
      </trkpt>
      <trkpt lat="41.079283" lon="-3.707483">
        <ele>1840.0</ele>
        <time>2017-09-30T12:08:16Z</time>
      </trkpt>
      <trkpt lat="41.079217" lon="-3.707467">
        <ele>1839.0</ele>
        <time>2017-09-30T12:08:17Z</time>
      </trkpt>
      <trkpt lat="41.079133" lon="-3.707450">
        <ele>1838.0</ele>
        <time>2017-09-30T12:08:18Z</time>
      </trkpt>
      <trkpt lat="41.079067" lon="-3.707433">
        <ele>1837.0</ele>
        <time>2017-09-30T12:08:19Z</time>
      </trkpt>
      <trkpt lat="41.078983" lon="-3.707417">
        <ele>1836.0</ele>
        <time>2017-09-30T12:08:20Z</time>
      </trkpt>
      <trkpt lat="41.078917" lon="-3.707417">
        <ele>1835.0</ele>
        <time>2017-09-30T12:08:21Z</time>
      </trkpt>
      <trkpt lat="41.078867" lon="-3.707450">
        <ele>1834.0</ele>
        <time>2017-09-30T12:08:22Z</time>
      </trkpt>
      <trkpt lat="41.078817" lon="-3.707483">
        <ele>1833.0</ele>
        <time>2017-09-30T12:08:23Z</time>
      </trkpt>
      <trkpt lat="41.078767" lon="-3.707550">
        <ele>1832.0</ele>
        <time>2017-09-30T12:08:24Z</time>
      </trkpt>
      <trkpt lat="41.078717" lon="-3.707617">
        <ele>1832.0</ele>
        <time>2017-09-30T12:08:25Z</time>
      </trkpt>
      <trkpt lat="41.078667" lon="-3.707700">
        <ele>1833.0</ele>
        <time>2017-09-30T12:08:26Z</time>
      </trkpt>
      <trkpt lat="41.078633" lon="-3.707750">
        <ele>1837.0</ele>
        <time>2017-09-30T12:08:27Z</time>
      </trkpt>
      <trkpt lat="41.078633" lon="-3.707783">
        <ele>1840.0</ele>
        <time>2017-09-30T12:08:28Z</time>
      </trkpt>
      <trkpt lat="41.078633" lon="-3.707817">
        <ele>1843.0</ele>
        <time>2017-09-30T12:08:29Z</time>
      </trkpt>
      <trkpt lat="41.078650" lon="-3.707850">
        <ele>1844.0</ele>
        <time>2017-09-30T12:08:30Z</time>
      </trkpt>
      <trkpt lat="41.078700" lon="-3.707883">
        <ele>1843.0</ele>
        <time>2017-09-30T12:08:31Z</time>
      </trkpt>
      <trkpt lat="41.078750" lon="-3.707883">
        <ele>1842.0</ele>
        <time>2017-09-30T12:08:32Z</time>
      </trkpt>
      <trkpt lat="41.078833" lon="-3.707850">
        <ele>1840.0</ele>
        <time>2017-09-30T12:08:33Z</time>
      </trkpt>
      <trkpt lat="41.078917" lon="-3.707817">
        <ele>1839.0</ele>
        <time>2017-09-30T12:08:34Z</time>
      </trkpt>
      <trkpt lat="41.079017" lon="-3.707750">
        <ele>1840.0</ele>
        <time>2017-09-30T12:08:35Z</time>
      </trkpt>
      <trkpt lat="41.079100" lon="-3.707700">
        <ele>1841.0</ele>
        <time>2017-09-30T12:08:36Z</time>
      </trkpt>
      <trkpt lat="41.079183" lon="-3.707650">
        <ele>1842.0</ele>
        <time>2017-09-30T12:08:37Z</time>
      </trkpt>
      <trkpt lat="41.079267" lon="-3.707617">
        <ele>1842.0</ele>
        <time>2017-09-30T12:08:38Z</time>
      </trkpt>
      <trkpt lat="41.079350" lon="-3.707633">
        <ele>1841.0</ele>
        <time>2017-09-30T12:08:39Z</time>
      </trkpt>
      <trkpt lat="41.079417" lon="-3.707667">
        <ele>1840.0</ele>
        <time>2017-09-30T12:08:40Z</time>
      </trkpt>
      <trkpt lat="41.079467" lon="-3.707717">
        <ele>1840.0</ele>
        <time>2017-09-30T12:08:41Z</time>
      </trkpt>
      <trkpt lat="41.079483" lon="-3.707767">
        <ele>1841.0</ele>
        <time>2017-09-30T12:08:42Z</time>
      </trkpt>
      <trkpt lat="41.079467" lon="-3.707817">
        <ele>1840.0</ele>
        <time>2017-09-30T12:08:43Z</time>
      </trkpt>
      <trkpt lat="41.079433" lon="-3.707867">
        <ele>1838.0</ele>
        <time>2017-09-30T12:08:44Z</time>
      </trkpt>
      <trkpt lat="41.079400" lon="-3.707933">
        <ele>1837.0</ele>
        <time>2017-09-30T12:08:45Z</time>
      </trkpt>
      <trkpt lat="41.079367" lon="-3.708000">
        <ele>1837.0</ele>
        <time>2017-09-30T12:08:46Z</time>
      </trkpt>
      <trkpt lat="41.079333" lon="-3.708050">
        <ele>1837.0</ele>
        <time>2017-09-30T12:08:47Z</time>
      </trkpt>
      <trkpt lat="41.079300" lon="-3.708083">
        <ele>1837.0</ele>
        <time>2017-09-30T12:08:48Z</time>
      </trkpt>
      <trkpt lat="41.079283" lon="-3.708117">
        <ele>1837.0</ele>
        <time>2017-09-30T12:08:49Z</time>
      </trkpt>
      <trkpt lat="41.079250" lon="-3.708150">
        <ele>1836.0</ele>
        <time>2017-09-30T12:08:50Z</time>
      </trkpt>
      <trkpt lat="41.079200" lon="-3.708200">
        <ele>1834.0</ele>
        <time>2017-09-30T12:08:51Z</time>
      </trkpt>
      <trkpt lat="41.079167" lon="-3.708267">
        <ele>1833.0</ele>
        <time>2017-09-30T12:08:52Z</time>
      </trkpt>
      <trkpt lat="41.079100" lon="-3.708333">
        <ele>1833.0</ele>
        <time>2017-09-30T12:08:53Z</time>
      </trkpt>
      <trkpt lat="41.079050" lon="-3.708400">
        <ele>1834.0</ele>
        <time>2017-09-30T12:08:54Z</time>
      </trkpt>
      <trkpt lat="41.079017" lon="-3.708450">
        <ele>1835.0</ele>
        <time>2017-09-30T12:08:55Z</time>
      </trkpt>
      <trkpt lat="41.078983" lon="-3.708483">
        <ele>1837.0</ele>
        <time>2017-09-30T12:08:56Z</time>
      </trkpt>
      <trkpt lat="41.078933" lon="-3.708533">
        <ele>1836.0</ele>
        <time>2017-09-30T12:08:57Z</time>
      </trkpt>
      <trkpt lat="41.078900" lon="-3.708583">
        <ele>1835.0</ele>
        <time>2017-09-30T12:08:58Z</time>
      </trkpt>
      <trkpt lat="41.078867" lon="-3.708650">
        <ele>1834.0</ele>
        <time>2017-09-30T12:08:59Z</time>
      </trkpt>
      <trkpt lat="41.078833" lon="-3.708717">
        <ele>1832.0</ele>
        <time>2017-09-30T12:09:00Z</time>
      </trkpt>
      <trkpt lat="41.078783" lon="-3.708783">
        <ele>1832.0</ele>
        <time>2017-09-30T12:09:01Z</time>
      </trkpt>
      <trkpt lat="41.078750" lon="-3.708833">
        <ele>1831.0</ele>
        <time>2017-09-30T12:09:02Z</time>
      </trkpt>
      <trkpt lat="41.078700" lon="-3.708867">
        <ele>1831.0</ele>
        <time>2017-09-30T12:09:03Z</time>
      </trkpt>
      <trkpt lat="41.078667" lon="-3.708933">
        <ele>1830.0</ele>
        <time>2017-09-30T12:09:04Z</time>
      </trkpt>
      <trkpt lat="41.078617" lon="-3.708983">
        <ele>1829.0</ele>
        <time>2017-09-30T12:09:05Z</time>
      </trkpt>
      <trkpt lat="41.078583" lon="-3.709033">
        <ele>1827.0</ele>
        <time>2017-09-30T12:09:06Z</time>
      </trkpt>
      <trkpt lat="41.078550" lon="-3.709100">
        <ele>1827.0</ele>
        <time>2017-09-30T12:09:07Z</time>
      </trkpt>
      <trkpt lat="41.078517" lon="-3.709150">
        <ele>1826.0</ele>
        <time>2017-09-30T12:09:08Z</time>
      </trkpt>
      <trkpt lat="41.078483" lon="-3.709200">
        <ele>1825.0</ele>
        <time>2017-09-30T12:09:09Z</time>
      </trkpt>
      <trkpt lat="41.078467" lon="-3.709250">
        <ele>1824.0</ele>
        <time>2017-09-30T12:09:10Z</time>
      </trkpt>
      <trkpt lat="41.078433" lon="-3.709317">
        <ele>1823.0</ele>
        <time>2017-09-30T12:09:11Z</time>
      </trkpt>
      <trkpt lat="41.078400" lon="-3.709367">
        <ele>1822.0</ele>
        <time>2017-09-30T12:09:12Z</time>
      </trkpt>
      <trkpt lat="41.078367" lon="-3.709417">
        <ele>1821.0</ele>
        <time>2017-09-30T12:09:13Z</time>
      </trkpt>
      <trkpt lat="41.078350" lon="-3.709467">
        <ele>1820.0</ele>
        <time>2017-09-30T12:09:14Z</time>
      </trkpt>
      <trkpt lat="41.078317" lon="-3.709533">
        <ele>1819.0</ele>
        <time>2017-09-30T12:09:15Z</time>
      </trkpt>
      <trkpt lat="41.078300" lon="-3.709583">
        <ele>1817.0</ele>
        <time>2017-09-30T12:09:16Z</time>
      </trkpt>
      <trkpt lat="41.078267" lon="-3.709633">
        <ele>1816.0</ele>
        <time>2017-09-30T12:09:17Z</time>
      </trkpt>
      <trkpt lat="41.078233" lon="-3.709683">
        <ele>1814.0</ele>
        <time>2017-09-30T12:09:18Z</time>
      </trkpt>
      <trkpt lat="41.078217" lon="-3.709750">
        <ele>1813.0</ele>
        <time>2017-09-30T12:09:19Z</time>
      </trkpt>
      <trkpt lat="41.078200" lon="-3.709817">
        <ele>1812.0</ele>
        <time>2017-09-30T12:09:20Z</time>
      </trkpt>
      <trkpt lat="41.078183" lon="-3.709883">
        <ele>1811.0</ele>
        <time>2017-09-30T12:09:21Z</time>
      </trkpt>
      <trkpt lat="41.078167" lon="-3.709950">
        <ele>1810.0</ele>
        <time>2017-09-30T12:09:22Z</time>
      </trkpt>
      <trkpt lat="41.078150" lon="-3.710017">
        <ele>1810.0</ele>
        <time>2017-09-30T12:09:23Z</time>
      </trkpt>
      <trkpt lat="41.078117" lon="-3.710083">
        <ele>1809.0</ele>
        <time>2017-09-30T12:09:24Z</time>
      </trkpt>
      <trkpt lat="41.078067" lon="-3.710133">
        <ele>1808.0</ele>
        <time>2017-09-30T12:09:25Z</time>
      </trkpt>
      <trkpt lat="41.078033" lon="-3.710183">
        <ele>1807.0</ele>
        <time>2017-09-30T12:09:26Z</time>
      </trkpt>
      <trkpt lat="41.077983" lon="-3.710250">
        <ele>1807.0</ele>
        <time>2017-09-30T12:09:27Z</time>
      </trkpt>
      <trkpt lat="41.077933" lon="-3.710317">
        <ele>1807.0</ele>
        <time>2017-09-30T12:09:28Z</time>
      </trkpt>
      <trkpt lat="41.077883" lon="-3.710367">
        <ele>1808.0</ele>
        <time>2017-09-30T12:09:29Z</time>
      </trkpt>
      <trkpt lat="41.077833" lon="-3.710417">
        <ele>1808.0</ele>
        <time>2017-09-30T12:09:30Z</time>
      </trkpt>
      <trkpt lat="41.077767" lon="-3.710467">
        <ele>1808.0</ele>
        <time>2017-09-30T12:09:31Z</time>
      </trkpt>
      <trkpt lat="41.077717" lon="-3.710517">
        <ele>1807.0</ele>
        <time>2017-09-30T12:09:32Z</time>
      </trkpt>
      <trkpt lat="41.077667" lon="-3.710567">
        <ele>1806.0</ele>
        <time>2017-09-30T12:09:33Z</time>
      </trkpt>
      <trkpt lat="41.077600" lon="-3.710633">
        <ele>1805.0</ele>
        <time>2017-09-30T12:09:34Z</time>
      </trkpt>
      <trkpt lat="41.077533" lon="-3.710683">
        <ele>1804.0</ele>
        <time>2017-09-30T12:09:35Z</time>
      </trkpt>
      <trkpt lat="41.077483" lon="-3.710733">
        <ele>1804.0</ele>
        <time>2017-09-30T12:09:36Z</time>
      </trkpt>
      <trkpt lat="41.077433" lon="-3.710783">
        <ele>1803.0</ele>
        <time>2017-09-30T12:09:37Z</time>
      </trkpt>
      <trkpt lat="41.077383" lon="-3.710850">
        <ele>1802.0</ele>
        <time>2017-09-30T12:09:38Z</time>
      </trkpt>
      <trkpt lat="41.077333" lon="-3.710917">
        <ele>1801.0</ele>
        <time>2017-09-30T12:09:39Z</time>
      </trkpt>
      <trkpt lat="41.077300" lon="-3.710983">
        <ele>1801.0</ele>
        <time>2017-09-30T12:09:40Z</time>
      </trkpt>
      <trkpt lat="41.077250" lon="-3.711050">
        <ele>1801.0</ele>
        <time>2017-09-30T12:09:41Z</time>
      </trkpt>
      <trkpt lat="41.077217" lon="-3.711100">
        <ele>1800.0</ele>
        <time>2017-09-30T12:09:42Z</time>
      </trkpt>
      <trkpt lat="41.077183" lon="-3.711150">
        <ele>1800.0</ele>
        <time>2017-09-30T12:09:43Z</time>
      </trkpt>
      <trkpt lat="41.077150" lon="-3.711217">
        <ele>1799.0</ele>
        <time>2017-09-30T12:09:44Z</time>
      </trkpt>
      <trkpt lat="41.077117" lon="-3.711267">
        <ele>1797.0</ele>
        <time>2017-09-30T12:09:45Z</time>
      </trkpt>
      <trkpt lat="41.077083" lon="-3.711333">
        <ele>1795.0</ele>
        <time>2017-09-30T12:09:46Z</time>
      </trkpt>
      <trkpt lat="41.077050" lon="-3.711383">
        <ele>1794.0</ele>
        <time>2017-09-30T12:09:47Z</time>
      </trkpt>
      <trkpt lat="41.077017" lon="-3.711450">
        <ele>1793.0</ele>
        <time>2017-09-30T12:09:48Z</time>
      </trkpt>
      <trkpt lat="41.077000" lon="-3.711517">
        <ele>1793.0</ele>
        <time>2017-09-30T12:09:49Z</time>
      </trkpt>
      <trkpt lat="41.076967" lon="-3.711567">
        <ele>1792.0</ele>
        <time>2017-09-30T12:09:50Z</time>
      </trkpt>
      <trkpt lat="41.076933" lon="-3.711633">
        <ele>1791.0</ele>
        <time>2017-09-30T12:09:51Z</time>
      </trkpt>
      <trkpt lat="41.076900" lon="-3.711700">
        <ele>1790.0</ele>
        <time>2017-09-30T12:09:52Z</time>
      </trkpt>
      <trkpt lat="41.076867" lon="-3.711767">
        <ele>1789.0</ele>
        <time>2017-09-30T12:09:53Z</time>
      </trkpt>
      <trkpt lat="41.076833" lon="-3.711850">
        <ele>1789.0</ele>
        <time>2017-09-30T12:09:54Z</time>
      </trkpt>
      <trkpt lat="41.076800" lon="-3.711900">
        <ele>1789.0</ele>
        <time>2017-09-30T12:09:55Z</time>
      </trkpt>
      <trkpt lat="41.076783" lon="-3.711967">
        <ele>1789.0</ele>
        <time>2017-09-30T12:09:56Z</time>
      </trkpt>
      <trkpt lat="41.076750" lon="-3.712050">
        <ele>1789.0</ele>
        <time>2017-09-30T12:09:57Z</time>
      </trkpt>
      <trkpt lat="41.076733" lon="-3.712133">
        <ele>1789.0</ele>
        <time>2017-09-30T12:09:58Z</time>
      </trkpt>
      <trkpt lat="41.076700" lon="-3.712200">
        <ele>1789.0</ele>
        <time>2017-09-30T12:09:59Z</time>
      </trkpt>
      <trkpt lat="41.076667" lon="-3.712267">
        <ele>1789.0</ele>
        <time>2017-09-30T12:10:00Z</time>
      </trkpt>
      <trkpt lat="41.076650" lon="-3.712333">
        <ele>1788.0</ele>
        <time>2017-09-30T12:10:01Z</time>
      </trkpt>
      <trkpt lat="41.076633" lon="-3.712400">
        <ele>1787.0</ele>
        <time>2017-09-30T12:10:02Z</time>
      </trkpt>
      <trkpt lat="41.076617" lon="-3.712467">
        <ele>1785.0</ele>
        <time>2017-09-30T12:10:03Z</time>
      </trkpt>
      <trkpt lat="41.076600" lon="-3.712550">
        <ele>1784.0</ele>
        <time>2017-09-30T12:10:04Z</time>
      </trkpt>
      <trkpt lat="41.076583" lon="-3.712633">
        <ele>1784.0</ele>
        <time>2017-09-30T12:10:05Z</time>
      </trkpt>
      <trkpt lat="41.076567" lon="-3.712700">
        <ele>1783.0</ele>
        <time>2017-09-30T12:10:06Z</time>
      </trkpt>
      <trkpt lat="41.076567" lon="-3.712767">
        <ele>1783.0</ele>
        <time>2017-09-30T12:10:07Z</time>
      </trkpt>
      <trkpt lat="41.076550" lon="-3.712833">
        <ele>1781.0</ele>
        <time>2017-09-30T12:10:08Z</time>
      </trkpt>
      <trkpt lat="41.076517" lon="-3.712900">
        <ele>1780.0</ele>
        <time>2017-09-30T12:10:09Z</time>
      </trkpt>
      <trkpt lat="41.076500" lon="-3.712983">
        <ele>1779.0</ele>
        <time>2017-09-30T12:10:10Z</time>
      </trkpt>
      <trkpt lat="41.076467" lon="-3.713067">
        <ele>1779.0</ele>
        <time>2017-09-30T12:10:11Z</time>
      </trkpt>
      <trkpt lat="41.076450" lon="-3.713133">
        <ele>1779.0</ele>
        <time>2017-09-30T12:10:12Z</time>
      </trkpt>
      <trkpt lat="41.076433" lon="-3.713200">
        <ele>1779.0</ele>
        <time>2017-09-30T12:10:13Z</time>
      </trkpt>
      <trkpt lat="41.076417" lon="-3.713283">
        <ele>1779.0</ele>
        <time>2017-09-30T12:10:14Z</time>
      </trkpt>
      <trkpt lat="41.076400" lon="-3.713350">
        <ele>1779.0</ele>
        <time>2017-09-30T12:10:15Z</time>
      </trkpt>
      <trkpt lat="41.076400" lon="-3.713417">
        <ele>1779.0</ele>
        <time>2017-09-30T12:10:16Z</time>
      </trkpt>
      <trkpt lat="41.076400" lon="-3.713483">
        <ele>1780.0</ele>
        <time>2017-09-30T12:10:17Z</time>
      </trkpt>
      <trkpt lat="41.076400" lon="-3.713550">
        <ele>1780.0</ele>
        <time>2017-09-30T12:10:18Z</time>
      </trkpt>
      <trkpt lat="41.076417" lon="-3.713617">
        <ele>1780.0</ele>
        <time>2017-09-30T12:10:19Z</time>
      </trkpt>
      <trkpt lat="41.076433" lon="-3.713667">
        <ele>1780.0</ele>
        <time>2017-09-30T12:10:20Z</time>
      </trkpt>
      <trkpt lat="41.076467" lon="-3.713717">
        <ele>1779.0</ele>
        <time>2017-09-30T12:10:21Z</time>
      </trkpt>
      <trkpt lat="41.076500" lon="-3.713767">
        <ele>1779.0</ele>
        <time>2017-09-30T12:10:22Z</time>
      </trkpt>
      <trkpt lat="41.076550" lon="-3.713800">
        <ele>1778.0</ele>
        <time>2017-09-30T12:10:23Z</time>
      </trkpt>
      <trkpt lat="41.076583" lon="-3.713850">
        <ele>1778.0</ele>
        <time>2017-09-30T12:10:24Z</time>
      </trkpt>
      <trkpt lat="41.076600" lon="-3.713900">
        <ele>1777.0</ele>
        <time>2017-09-30T12:10:25Z</time>
      </trkpt>
      <trkpt lat="41.076617" lon="-3.713967">
        <ele>1776.0</ele>
        <time>2017-09-30T12:10:26Z</time>
      </trkpt>
      <trkpt lat="41.076617" lon="-3.714033">
        <ele>1775.0</ele>
        <time>2017-09-30T12:10:27Z</time>
      </trkpt>
      <trkpt lat="41.076617" lon="-3.714100">
        <ele>1774.0</ele>
        <time>2017-09-30T12:10:28Z</time>
      </trkpt>
      <trkpt lat="41.076583" lon="-3.714167">
        <ele>1773.0</ele>
        <time>2017-09-30T12:10:29Z</time>
      </trkpt>
      <trkpt lat="41.076533" lon="-3.714233">
        <ele>1772.0</ele>
        <time>2017-09-30T12:10:30Z</time>
      </trkpt>
      <trkpt lat="41.076467" lon="-3.714283">
        <ele>1772.0</ele>
        <time>2017-09-30T12:10:31Z</time>
      </trkpt>
      <trkpt lat="41.076433" lon="-3.714350">
        <ele>1772.0</ele>
        <time>2017-09-30T12:10:32Z</time>
      </trkpt>
      <trkpt lat="41.076383" lon="-3.714417">
        <ele>1772.0</ele>
        <time>2017-09-30T12:10:33Z</time>
      </trkpt>
      <trkpt lat="41.076350" lon="-3.714483">
        <ele>1771.0</ele>
        <time>2017-09-30T12:10:34Z</time>
      </trkpt>
      <trkpt lat="41.076300" lon="-3.714550">
        <ele>1771.0</ele>
        <time>2017-09-30T12:10:35Z</time>
      </trkpt>
      <trkpt lat="41.076250" lon="-3.714617">
        <ele>1770.0</ele>
        <time>2017-09-30T12:10:36Z</time>
      </trkpt>
      <trkpt lat="41.076200" lon="-3.714667">
        <ele>1771.0</ele>
        <time>2017-09-30T12:10:37Z</time>
      </trkpt>
      <trkpt lat="41.076150" lon="-3.714733">
        <ele>1772.0</ele>
        <time>2017-09-30T12:10:38Z</time>
      </trkpt>
      <trkpt lat="41.076117" lon="-3.714800">
        <ele>1773.0</ele>
        <time>2017-09-30T12:10:39Z</time>
      </trkpt>
      <trkpt lat="41.076100" lon="-3.714867">
        <ele>1774.0</ele>
        <time>2017-09-30T12:10:40Z</time>
      </trkpt>
      <trkpt lat="41.076117" lon="-3.714950">
        <ele>1774.0</ele>
        <time>2017-09-30T12:10:41Z</time>
      </trkpt>
      <trkpt lat="41.076150" lon="-3.715017">
        <ele>1773.0</ele>
        <time>2017-09-30T12:10:42Z</time>
      </trkpt>
      <trkpt lat="41.076217" lon="-3.715050">
        <ele>1773.0</ele>
        <time>2017-09-30T12:10:43Z</time>
      </trkpt>
      <trkpt lat="41.076317" lon="-3.715050">
        <ele>1774.0</ele>
        <time>2017-09-30T12:10:44Z</time>
      </trkpt>
      <trkpt lat="41.076417" lon="-3.715017">
        <ele>1775.0</ele>
        <time>2017-09-30T12:10:45Z</time>
      </trkpt>
      <trkpt lat="41.076500" lon="-3.714950">
        <ele>1777.0</ele>
        <time>2017-09-30T12:10:46Z</time>
      </trkpt>
      <trkpt lat="41.076567" lon="-3.714867">
        <ele>1778.0</ele>
        <time>2017-09-30T12:10:47Z</time>
      </trkpt>
      <trkpt lat="41.076617" lon="-3.714783">
        <ele>1778.0</ele>
        <time>2017-09-30T12:10:48Z</time>
      </trkpt>
      <trkpt lat="41.076683" lon="-3.714717">
        <ele>1778.0</ele>
        <time>2017-09-30T12:10:49Z</time>
      </trkpt>
      <trkpt lat="41.076767" lon="-3.714650">
        <ele>1776.0</ele>
        <time>2017-09-30T12:10:50Z</time>
      </trkpt>
      <trkpt lat="41.076833" lon="-3.714583">
        <ele>1775.0</ele>
        <time>2017-09-30T12:10:51Z</time>
      </trkpt>
      <trkpt lat="41.076900" lon="-3.714500">
        <ele>1776.0</ele>
        <time>2017-09-30T12:10:52Z</time>
      </trkpt>
      <trkpt lat="41.076950" lon="-3.714383">
        <ele>1776.0</ele>
        <time>2017-09-30T12:10:53Z</time>
      </trkpt>
      <trkpt lat="41.076983" lon="-3.714283">
        <ele>1776.0</ele>
        <time>2017-09-30T12:10:54Z</time>
      </trkpt>
      <trkpt lat="41.077000" lon="-3.714167">
        <ele>1776.0</ele>
        <time>2017-09-30T12:10:55Z</time>
      </trkpt>
      <trkpt lat="41.077033" lon="-3.714050">
        <ele>1775.0</ele>
        <time>2017-09-30T12:10:56Z</time>
      </trkpt>
      <trkpt lat="41.077083" lon="-3.713917">
        <ele>1774.0</ele>
        <time>2017-09-30T12:10:57Z</time>
      </trkpt>
      <trkpt lat="41.077167" lon="-3.713833">
        <ele>1772.0</ele>
        <time>2017-09-30T12:10:58Z</time>
      </trkpt>
      <trkpt lat="41.077250" lon="-3.713800">
        <ele>1770.0</ele>
        <time>2017-09-30T12:10:59Z</time>
      </trkpt>
      <trkpt lat="41.077333" lon="-3.713767">
        <ele>1770.0</ele>
        <time>2017-09-30T12:11:00Z</time>
      </trkpt>
      <trkpt lat="41.077400" lon="-3.713733">
        <ele>1770.0</ele>
        <time>2017-09-30T12:11:01Z</time>
      </trkpt>
      <trkpt lat="41.077467" lon="-3.713717">
        <ele>1771.0</ele>
        <time>2017-09-30T12:11:02Z</time>
      </trkpt>
      <trkpt lat="41.077533" lon="-3.713700">
        <ele>1772.0</ele>
        <time>2017-09-30T12:11:03Z</time>
      </trkpt>
      <trkpt lat="41.077617" lon="-3.713717">
        <ele>1772.0</ele>
        <time>2017-09-30T12:11:04Z</time>
      </trkpt>
      <trkpt lat="41.077667" lon="-3.713767">
        <ele>1771.0</ele>
        <time>2017-09-30T12:11:05Z</time>
      </trkpt>
      <trkpt lat="41.077717" lon="-3.713833">
        <ele>1771.0</ele>
        <time>2017-09-30T12:11:06Z</time>
      </trkpt>
      <trkpt lat="41.077750" lon="-3.713917">
        <ele>1772.0</ele>
        <time>2017-09-30T12:11:07Z</time>
      </trkpt>
      <trkpt lat="41.077750" lon="-3.714000">
        <ele>1774.0</ele>
        <time>2017-09-30T12:11:08Z</time>
      </trkpt>
      <trkpt lat="41.077733" lon="-3.714083">
        <ele>1775.0</ele>
        <time>2017-09-30T12:11:09Z</time>
      </trkpt>
      <trkpt lat="41.077717" lon="-3.714150">
        <ele>1776.0</ele>
        <time>2017-09-30T12:11:10Z</time>
      </trkpt>
      <trkpt lat="41.077700" lon="-3.714233">
        <ele>1775.0</ele>
        <time>2017-09-30T12:11:11Z</time>
      </trkpt>
      <trkpt lat="41.077667" lon="-3.714333">
        <ele>1775.0</ele>
        <time>2017-09-30T12:11:12Z</time>
      </trkpt>
      <trkpt lat="41.077633" lon="-3.714417">
        <ele>1776.0</ele>
        <time>2017-09-30T12:11:13Z</time>
      </trkpt>
      <trkpt lat="41.077617" lon="-3.714500">
        <ele>1777.0</ele>
        <time>2017-09-30T12:11:14Z</time>
      </trkpt>
      <trkpt lat="41.077600" lon="-3.714567">
        <ele>1779.0</ele>
        <time>2017-09-30T12:11:15Z</time>
      </trkpt>
      <trkpt lat="41.077600" lon="-3.714633">
        <ele>1780.0</ele>
        <time>2017-09-30T12:11:16Z</time>
      </trkpt>
      <trkpt lat="41.077617" lon="-3.714700">
        <ele>1779.0</ele>
        <time>2017-09-30T12:11:17Z</time>
      </trkpt>
      <trkpt lat="41.077667" lon="-3.714767">
        <ele>1778.0</ele>
        <time>2017-09-30T12:11:18Z</time>
      </trkpt>
      <trkpt lat="41.077733" lon="-3.714800">
        <ele>1778.0</ele>
        <time>2017-09-30T12:11:19Z</time>
      </trkpt>
      <trkpt lat="41.077817" lon="-3.714800">
        <ele>1779.0</ele>
        <time>2017-09-30T12:11:20Z</time>
      </trkpt>
      <trkpt lat="41.077883" lon="-3.714783">
        <ele>1780.0</ele>
        <time>2017-09-30T12:11:21Z</time>
      </trkpt>
      <trkpt lat="41.077967" lon="-3.714733">
        <ele>1781.0</ele>
        <time>2017-09-30T12:11:22Z</time>
      </trkpt>
      <trkpt lat="41.078033" lon="-3.714633">
        <ele>1783.0</ele>
        <time>2017-09-30T12:11:23Z</time>
      </trkpt>
      <trkpt lat="41.078067" lon="-3.714533">
        <ele>1784.0</ele>
        <time>2017-09-30T12:11:24Z</time>
      </trkpt>
      <trkpt lat="41.078083" lon="-3.714383">
        <ele>1784.0</ele>
        <time>2017-09-30T12:11:25Z</time>
      </trkpt>
      <trkpt lat="41.078083" lon="-3.714233">
        <ele>1785.0</ele>
        <time>2017-09-30T12:11:26Z</time>
      </trkpt>
      <trkpt lat="41.078033" lon="-3.714117">
        <ele>1786.0</ele>
        <time>2017-09-30T12:11:27Z</time>
      </trkpt>
      <trkpt lat="41.077983" lon="-3.714000">
        <ele>1786.0</ele>
        <time>2017-09-30T12:11:28Z</time>
      </trkpt>
      <trkpt lat="41.077917" lon="-3.713917">
        <ele>1787.0</ele>
        <time>2017-09-30T12:11:29Z</time>
      </trkpt>
      <trkpt lat="41.077817" lon="-3.713850">
        <ele>1788.0</ele>
        <time>2017-09-30T12:11:30Z</time>
      </trkpt>
      <trkpt lat="41.077733" lon="-3.713817">
        <ele>1788.0</ele>
        <time>2017-09-30T12:11:31Z</time>
      </trkpt>
      <trkpt lat="41.077633" lon="-3.713783">
        <ele>1789.0</ele>
        <time>2017-09-30T12:11:32Z</time>
      </trkpt>
      <trkpt lat="41.077550" lon="-3.713783">
        <ele>1790.0</ele>
        <time>2017-09-30T12:11:33Z</time>
      </trkpt>
      <trkpt lat="41.077483" lon="-3.713800">
        <ele>1790.0</ele>
        <time>2017-09-30T12:11:34Z</time>
      </trkpt>
      <trkpt lat="41.077417" lon="-3.713833">
        <ele>1790.0</ele>
        <time>2017-09-30T12:11:35Z</time>
      </trkpt>
      <trkpt lat="41.077367" lon="-3.713900">
        <ele>1790.0</ele>
        <time>2017-09-30T12:11:36Z</time>
      </trkpt>
      <trkpt lat="41.077317" lon="-3.713983">
        <ele>1790.0</ele>
        <time>2017-09-30T12:11:37Z</time>
      </trkpt>
      <trkpt lat="41.077300" lon="-3.714067">
        <ele>1791.0</ele>
        <time>2017-09-30T12:11:38Z</time>
      </trkpt>
      <trkpt lat="41.077283" lon="-3.714150">
        <ele>1793.0</ele>
        <time>2017-09-30T12:11:39Z</time>
      </trkpt>
      <trkpt lat="41.077283" lon="-3.714217">
        <ele>1795.0</ele>
        <time>2017-09-30T12:11:40Z</time>
      </trkpt>
      <trkpt lat="41.077267" lon="-3.714283">
        <ele>1796.0</ele>
        <time>2017-09-30T12:11:41Z</time>
      </trkpt>
      <trkpt lat="41.077267" lon="-3.714333">
        <ele>1795.0</ele>
        <time>2017-09-30T12:11:42Z</time>
      </trkpt>
      <trkpt lat="41.077283" lon="-3.714417">
        <ele>1795.0</ele>
        <time>2017-09-30T12:11:43Z</time>
      </trkpt>
      <trkpt lat="41.077333" lon="-3.714467">
        <ele>1794.0</ele>
        <time>2017-09-30T12:11:44Z</time>
      </trkpt>
      <trkpt lat="41.077383" lon="-3.714533">
        <ele>1794.0</ele>
        <time>2017-09-30T12:11:45Z</time>
      </trkpt>
      <trkpt lat="41.077450" lon="-3.714567">
        <ele>1794.0</ele>
        <time>2017-09-30T12:11:46Z</time>
      </trkpt>
      <trkpt lat="41.077500" lon="-3.714600">
        <ele>1796.0</ele>
        <time>2017-09-30T12:11:47Z</time>
      </trkpt>
      <trkpt lat="41.077567" lon="-3.714600">
        <ele>1796.0</ele>
        <time>2017-09-30T12:11:48Z</time>
      </trkpt>
      <trkpt lat="41.077650" lon="-3.714583">
        <ele>1794.0</ele>
        <time>2017-09-30T12:11:49Z</time>
      </trkpt>
      <trkpt lat="41.077750" lon="-3.714517">
        <ele>1793.0</ele>
        <time>2017-09-30T12:11:50Z</time>
      </trkpt>
      <trkpt lat="41.077833" lon="-3.714433">
        <ele>1793.0</ele>
        <time>2017-09-30T12:11:51Z</time>
      </trkpt>
      <trkpt lat="41.077900" lon="-3.714317">
        <ele>1795.0</ele>
        <time>2017-09-30T12:11:52Z</time>
      </trkpt>
      <trkpt lat="41.077950" lon="-3.714183">
        <ele>1797.0</ele>
        <time>2017-09-30T12:11:53Z</time>
      </trkpt>
      <trkpt lat="41.077967" lon="-3.714050">
        <ele>1798.0</ele>
        <time>2017-09-30T12:11:54Z</time>
      </trkpt>
      <trkpt lat="41.077950" lon="-3.713917">
        <ele>1798.0</ele>
        <time>2017-09-30T12:11:55Z</time>
      </trkpt>
      <trkpt lat="41.077917" lon="-3.713767">
        <ele>1798.0</ele>
        <time>2017-09-30T12:11:56Z</time>
      </trkpt>
      <trkpt lat="41.077850" lon="-3.713650">
        <ele>1799.0</ele>
        <time>2017-09-30T12:11:57Z</time>
      </trkpt>
      <trkpt lat="41.077783" lon="-3.713533">
        <ele>1801.0</ele>
        <time>2017-09-30T12:11:58Z</time>
      </trkpt>
      <trkpt lat="41.077717" lon="-3.713433">
        <ele>1803.0</ele>
        <time>2017-09-30T12:11:59Z</time>
      </trkpt>
      <trkpt lat="41.077633" lon="-3.713367">
        <ele>1805.0</ele>
        <time>2017-09-30T12:12:00Z</time>
      </trkpt>
      <trkpt lat="41.077567" lon="-3.713317">
        <ele>1806.0</ele>
        <time>2017-09-30T12:12:01Z</time>
      </trkpt>
      <trkpt lat="41.077483" lon="-3.713283">
        <ele>1806.0</ele>
        <time>2017-09-30T12:12:02Z</time>
      </trkpt>
      <trkpt lat="41.077383" lon="-3.713267">
        <ele>1805.0</ele>
        <time>2017-09-30T12:12:03Z</time>
      </trkpt>
      <trkpt lat="41.077300" lon="-3.713283">
        <ele>1806.0</ele>
        <time>2017-09-30T12:12:04Z</time>
      </trkpt>
      <trkpt lat="41.077233" lon="-3.713333">
        <ele>1807.0</ele>
        <time>2017-09-30T12:12:05Z</time>
      </trkpt>
      <trkpt lat="41.077183" lon="-3.713383">
        <ele>1808.0</ele>
        <time>2017-09-30T12:12:06Z</time>
      </trkpt>
      <trkpt lat="41.077133" lon="-3.713433">
        <ele>1809.0</ele>
        <time>2017-09-30T12:12:07Z</time>
      </trkpt>
      <trkpt lat="41.077083" lon="-3.713467">
        <ele>1810.0</ele>
        <time>2017-09-30T12:12:08Z</time>
      </trkpt>
      <trkpt lat="41.077033" lon="-3.713517">
        <ele>1811.0</ele>
        <time>2017-09-30T12:12:09Z</time>
      </trkpt>
      <trkpt lat="41.077000" lon="-3.713583">
        <ele>1811.0</ele>
        <time>2017-09-30T12:12:10Z</time>
      </trkpt>
      <trkpt lat="41.077000" lon="-3.713667">
        <ele>1812.0</ele>
        <time>2017-09-30T12:12:11Z</time>
      </trkpt>
      <trkpt lat="41.077017" lon="-3.713733">
        <ele>1812.0</ele>
        <time>2017-09-30T12:12:12Z</time>
      </trkpt>
      <trkpt lat="41.077067" lon="-3.713800">
        <ele>1812.0</ele>
        <time>2017-09-30T12:12:13Z</time>
      </trkpt>
      <trkpt lat="41.077117" lon="-3.713867">
        <ele>1814.0</ele>
        <time>2017-09-30T12:12:14Z</time>
      </trkpt>
      <trkpt lat="41.077183" lon="-3.713900">
        <ele>1815.0</ele>
        <time>2017-09-30T12:12:15Z</time>
      </trkpt>
      <trkpt lat="41.077267" lon="-3.713917">
        <ele>1815.0</ele>
        <time>2017-09-30T12:12:16Z</time>
      </trkpt>
      <trkpt lat="41.077367" lon="-3.713883">
        <ele>1815.0</ele>
        <time>2017-09-30T12:12:17Z</time>
      </trkpt>
      <trkpt lat="41.077450" lon="-3.713817">
        <ele>1816.0</ele>
        <time>2017-09-30T12:12:18Z</time>
      </trkpt>
      <trkpt lat="41.077517" lon="-3.713717">
        <ele>1817.0</ele>
        <time>2017-09-30T12:12:19Z</time>
      </trkpt>
      <trkpt lat="41.077567" lon="-3.713583">
        <ele>1818.0</ele>
        <time>2017-09-30T12:12:20Z</time>
      </trkpt>
      <trkpt lat="41.077583" lon="-3.713433">
        <ele>1818.0</ele>
        <time>2017-09-30T12:12:21Z</time>
      </trkpt>
      <trkpt lat="41.077567" lon="-3.713283">
        <ele>1819.0</ele>
        <time>2017-09-30T12:12:22Z</time>
      </trkpt>
      <trkpt lat="41.077533" lon="-3.713150">
        <ele>1820.0</ele>
        <time>2017-09-30T12:12:23Z</time>
      </trkpt>
      <trkpt lat="41.077467" lon="-3.713033">
        <ele>1821.0</ele>
        <time>2017-09-30T12:12:24Z</time>
      </trkpt>
      <trkpt lat="41.077400" lon="-3.712933">
        <ele>1822.0</ele>
        <time>2017-09-30T12:12:25Z</time>
      </trkpt>
      <trkpt lat="41.077333" lon="-3.712850">
        <ele>1822.0</ele>
        <time>2017-09-30T12:12:26Z</time>
      </trkpt>
      <trkpt lat="41.077250" lon="-3.712800">
        <ele>1822.0</ele>
        <time>2017-09-30T12:12:27Z</time>
      </trkpt>
      <trkpt lat="41.077150" lon="-3.712767">
        <ele>1823.0</ele>
        <time>2017-09-30T12:12:28Z</time>
      </trkpt>
      <trkpt lat="41.077067" lon="-3.712767">
        <ele>1823.0</ele>
        <time>2017-09-30T12:12:29Z</time>
      </trkpt>
      <trkpt lat="41.076983" lon="-3.712767">
        <ele>1824.0</ele>
        <time>2017-09-30T12:12:30Z</time>
      </trkpt>
      <trkpt lat="41.076917" lon="-3.712783">
        <ele>1824.0</ele>
        <time>2017-09-30T12:12:31Z</time>
      </trkpt>
      <trkpt lat="41.076850" lon="-3.712833">
        <ele>1825.0</ele>
        <time>2017-09-30T12:12:32Z</time>
      </trkpt>
      <trkpt lat="41.076800" lon="-3.712883">
        <ele>1825.0</ele>
        <time>2017-09-30T12:12:33Z</time>
      </trkpt>
      <trkpt lat="41.076767" lon="-3.712933">
        <ele>1826.0</ele>
        <time>2017-09-30T12:12:34Z</time>
      </trkpt>
      <trkpt lat="41.076750" lon="-3.713000">
        <ele>1827.0</ele>
        <time>2017-09-30T12:12:35Z</time>
      </trkpt>
      <trkpt lat="41.076733" lon="-3.713050">
        <ele>1828.0</ele>
        <time>2017-09-30T12:12:36Z</time>
      </trkpt>
      <trkpt lat="41.076700" lon="-3.713100">
        <ele>1829.0</ele>
        <time>2017-09-30T12:12:37Z</time>
      </trkpt>
      <trkpt lat="41.076667" lon="-3.713167">
        <ele>1829.0</ele>
        <time>2017-09-30T12:12:38Z</time>
      </trkpt>
      <trkpt lat="41.076650" lon="-3.713217">
        <ele>1830.0</ele>
        <time>2017-09-30T12:12:39Z</time>
      </trkpt>
      <trkpt lat="41.076633" lon="-3.713283">
        <ele>1831.0</ele>
        <time>2017-09-30T12:12:40Z</time>
      </trkpt>
      <trkpt lat="41.076650" lon="-3.713350">
        <ele>1830.0</ele>
        <time>2017-09-30T12:12:41Z</time>
      </trkpt>
      <trkpt lat="41.076667" lon="-3.713417">
        <ele>1829.0</ele>
        <time>2017-09-30T12:12:42Z</time>
      </trkpt>
      <trkpt lat="41.076717" lon="-3.713467">
        <ele>1828.0</ele>
        <time>2017-09-30T12:12:43Z</time>
      </trkpt>
      <trkpt lat="41.076783" lon="-3.713500">
        <ele>1827.0</ele>
        <time>2017-09-30T12:12:44Z</time>
      </trkpt>
      <trkpt lat="41.076867" lon="-3.713517">
        <ele>1827.0</ele>
        <time>2017-09-30T12:12:45Z</time>
      </trkpt>
      <trkpt lat="41.076950" lon="-3.713500">
        <ele>1827.0</ele>
        <time>2017-09-30T12:12:46Z</time>
      </trkpt>
      <trkpt lat="41.077017" lon="-3.713467">
        <ele>1827.0</ele>
        <time>2017-09-30T12:12:47Z</time>
      </trkpt>
      <trkpt lat="41.077100" lon="-3.713383">
        <ele>1826.0</ele>
        <time>2017-09-30T12:12:48Z</time>
      </trkpt>
      <trkpt lat="41.077167" lon="-3.713267">
        <ele>1824.0</ele>
        <time>2017-09-30T12:12:49Z</time>
      </trkpt>
      <trkpt lat="41.077217" lon="-3.713133">
        <ele>1822.0</ele>
        <time>2017-09-30T12:12:50Z</time>
      </trkpt>
      <trkpt lat="41.077267" lon="-3.712967">
        <ele>1822.0</ele>
        <time>2017-09-30T12:12:51Z</time>
      </trkpt>
      <trkpt lat="41.077283" lon="-3.712800">
        <ele>1824.0</ele>
        <time>2017-09-30T12:12:52Z</time>
      </trkpt>
      <trkpt lat="41.077267" lon="-3.712667">
        <ele>1826.0</ele>
        <time>2017-09-30T12:12:53Z</time>
      </trkpt>
      <trkpt lat="41.077233" lon="-3.712533">
        <ele>1827.0</ele>
        <time>2017-09-30T12:12:54Z</time>
      </trkpt>
      <trkpt lat="41.077167" lon="-3.712417">
        <ele>1828.0</ele>
        <time>2017-09-30T12:12:55Z</time>
      </trkpt>
      <trkpt lat="41.077083" lon="-3.712333">
        <ele>1828.0</ele>
        <time>2017-09-30T12:12:56Z</time>
      </trkpt>
      <trkpt lat="41.077000" lon="-3.712267">
        <ele>1828.0</ele>
        <time>2017-09-30T12:12:57Z</time>
      </trkpt>
      <trkpt lat="41.076917" lon="-3.712217">
        <ele>1830.0</ele>
        <time>2017-09-30T12:12:58Z</time>
      </trkpt>
      <trkpt lat="41.076850" lon="-3.712183">
        <ele>1832.0</ele>
        <time>2017-09-30T12:12:59Z</time>
      </trkpt>
      <trkpt lat="41.076783" lon="-3.712183">
        <ele>1833.0</ele>
        <time>2017-09-30T12:13:00Z</time>
      </trkpt>
      <trkpt lat="41.076750" lon="-3.712200">
        <ele>1833.0</ele>
        <time>2017-09-30T12:13:01Z</time>
      </trkpt>
      <trkpt lat="41.076700" lon="-3.712267">
        <ele>1832.0</ele>
        <time>2017-09-30T12:13:02Z</time>
      </trkpt>
      <trkpt lat="41.076667" lon="-3.712350">
        <ele>1830.0</ele>
        <time>2017-09-30T12:13:03Z</time>
      </trkpt>
      <trkpt lat="41.076633" lon="-3.712417">
        <ele>1830.0</ele>
        <time>2017-09-30T12:13:04Z</time>
      </trkpt>
      <trkpt lat="41.076600" lon="-3.712467">
        <ele>1830.0</ele>
        <time>2017-09-30T12:13:05Z</time>
      </trkpt>
      <trkpt lat="41.076550" lon="-3.712483">
        <ele>1829.0</ele>
        <time>2017-09-30T12:13:06Z</time>
      </trkpt>
      <trkpt lat="41.076533" lon="-3.712517">
        <ele>1827.0</ele>
        <time>2017-09-30T12:13:07Z</time>
      </trkpt>
      <trkpt lat="41.076500" lon="-3.712567">
        <ele>1825.0</ele>
        <time>2017-09-30T12:13:08Z</time>
      </trkpt>
      <trkpt lat="41.076483" lon="-3.712617">
        <ele>1822.0</ele>
        <time>2017-09-30T12:13:09Z</time>
      </trkpt>
      <trkpt lat="41.076483" lon="-3.712700">
        <ele>1820.0</ele>
        <time>2017-09-30T12:13:10Z</time>
      </trkpt>
      <trkpt lat="41.076483" lon="-3.712783">
        <ele>1819.0</ele>
        <time>2017-09-30T12:13:11Z</time>
      </trkpt>
      <trkpt lat="41.076517" lon="-3.712850">
        <ele>1819.0</ele>
        <time>2017-09-30T12:13:12Z</time>
      </trkpt>
      <trkpt lat="41.076550" lon="-3.712900">
        <ele>1819.0</ele>
        <time>2017-09-30T12:13:13Z</time>
      </trkpt>
      <trkpt lat="41.076600" lon="-3.712933">
        <ele>1820.0</ele>
        <time>2017-09-30T12:13:14Z</time>
      </trkpt>
      <trkpt lat="41.076650" lon="-3.712967">
        <ele>1819.0</ele>
        <time>2017-09-30T12:13:15Z</time>
      </trkpt>
      <trkpt lat="41.076717" lon="-3.712967">
        <ele>1818.0</ele>
        <time>2017-09-30T12:13:16Z</time>
      </trkpt>
      <trkpt lat="41.076817" lon="-3.712967">
        <ele>1816.0</ele>
        <time>2017-09-30T12:13:17Z</time>
      </trkpt>
      <trkpt lat="41.076900" lon="-3.712917">
        <ele>1815.0</ele>
        <time>2017-09-30T12:13:18Z</time>
      </trkpt>
      <trkpt lat="41.076983" lon="-3.712850">
        <ele>1814.0</ele>
        <time>2017-09-30T12:13:19Z</time>
      </trkpt>
      <trkpt lat="41.077067" lon="-3.712750">
        <ele>1814.0</ele>
        <time>2017-09-30T12:13:20Z</time>
      </trkpt>
      <trkpt lat="41.077133" lon="-3.712633">
        <ele>1814.0</ele>
        <time>2017-09-30T12:13:21Z</time>
      </trkpt>
      <trkpt lat="41.077183" lon="-3.712517">
        <ele>1813.0</ele>
        <time>2017-09-30T12:13:22Z</time>
      </trkpt>
      <trkpt lat="41.077217" lon="-3.712383">
        <ele>1812.0</ele>
        <time>2017-09-30T12:13:23Z</time>
      </trkpt>
      <trkpt lat="41.077250" lon="-3.712233">
        <ele>1812.0</ele>
        <time>2017-09-30T12:13:24Z</time>
      </trkpt>
      <trkpt lat="41.077283" lon="-3.712083">
        <ele>1813.0</ele>
        <time>2017-09-30T12:13:25Z</time>
      </trkpt>
      <trkpt lat="41.077317" lon="-3.711950">
        <ele>1813.0</ele>
        <time>2017-09-30T12:13:26Z</time>
      </trkpt>
      <trkpt lat="41.077350" lon="-3.711817">
        <ele>1814.0</ele>
        <time>2017-09-30T12:13:27Z</time>
      </trkpt>
      <trkpt lat="41.077383" lon="-3.711667">
        <ele>1814.0</ele>
        <time>2017-09-30T12:13:28Z</time>
      </trkpt>
      <trkpt lat="41.077417" lon="-3.711517">
        <ele>1815.0</ele>
        <time>2017-09-30T12:13:29Z</time>
      </trkpt>
      <trkpt lat="41.077483" lon="-3.711383">
        <ele>1817.0</ele>
        <time>2017-09-30T12:13:30Z</time>
      </trkpt>
      <trkpt lat="41.077550" lon="-3.711267">
        <ele>1819.0</ele>
        <time>2017-09-30T12:13:31Z</time>
      </trkpt>
      <trkpt lat="41.077650" lon="-3.711200">
        <ele>1821.0</ele>
        <time>2017-09-30T12:13:32Z</time>
      </trkpt>
      <trkpt lat="41.077733" lon="-3.711167">
        <ele>1822.0</ele>
        <time>2017-09-30T12:13:33Z</time>
      </trkpt>
      <trkpt lat="41.077817" lon="-3.711150">
        <ele>1824.0</ele>
        <time>2017-09-30T12:13:34Z</time>
      </trkpt>
      <trkpt lat="41.077867" lon="-3.711183">
        <ele>1826.0</ele>
        <time>2017-09-30T12:13:35Z</time>
      </trkpt>
      <trkpt lat="41.077900" lon="-3.711233">
        <ele>1827.0</ele>
        <time>2017-09-30T12:13:36Z</time>
      </trkpt>
      <trkpt lat="41.077917" lon="-3.711283">
        <ele>1828.0</ele>
        <time>2017-09-30T12:13:37Z</time>
      </trkpt>
      <trkpt lat="41.077883" lon="-3.711350">
        <ele>1830.0</ele>
        <time>2017-09-30T12:13:38Z</time>
      </trkpt>
      <trkpt lat="41.077850" lon="-3.711400">
        <ele>1832.0</ele>
        <time>2017-09-30T12:13:39Z</time>
      </trkpt>
      <trkpt lat="41.077783" lon="-3.711417">
        <ele>1833.0</ele>
        <time>2017-09-30T12:13:40Z</time>
      </trkpt>
      <trkpt lat="41.077717" lon="-3.711417">
        <ele>1835.0</ele>
        <time>2017-09-30T12:13:41Z</time>
      </trkpt>
      <trkpt lat="41.077650" lon="-3.711400">
        <ele>1837.0</ele>
        <time>2017-09-30T12:13:42Z</time>
      </trkpt>
      <trkpt lat="41.077567" lon="-3.711367">
        <ele>1838.0</ele>
        <time>2017-09-30T12:13:43Z</time>
      </trkpt>
      <trkpt lat="41.077483" lon="-3.711317">
        <ele>1840.0</ele>
        <time>2017-09-30T12:13:44Z</time>
      </trkpt>
      <trkpt lat="41.077417" lon="-3.711283">
        <ele>1841.0</ele>
        <time>2017-09-30T12:13:45Z</time>
      </trkpt>
      <trkpt lat="41.077350" lon="-3.711267">
        <ele>1842.0</ele>
        <time>2017-09-30T12:13:46Z</time>
      </trkpt>
      <trkpt lat="41.077283" lon="-3.711267">
        <ele>1841.0</ele>
        <time>2017-09-30T12:13:47Z</time>
      </trkpt>
      <trkpt lat="41.077233" lon="-3.711317">
        <ele>1840.0</ele>
        <time>2017-09-30T12:13:48Z</time>
      </trkpt>
      <trkpt lat="41.077183" lon="-3.711383">
        <ele>1840.0</ele>
        <time>2017-09-30T12:13:49Z</time>
      </trkpt>
      <trkpt lat="41.077167" lon="-3.711450">
        <ele>1841.0</ele>
        <time>2017-09-30T12:13:50Z</time>
      </trkpt>
      <trkpt lat="41.077167" lon="-3.711517">
        <ele>1841.0</ele>
        <time>2017-09-30T12:13:51Z</time>
      </trkpt>
      <trkpt lat="41.077183" lon="-3.711567">
        <ele>1841.0</ele>
        <time>2017-09-30T12:13:52Z</time>
      </trkpt>
      <trkpt lat="41.077233" lon="-3.711617">
        <ele>1840.0</ele>
        <time>2017-09-30T12:13:53Z</time>
      </trkpt>
      <trkpt lat="41.077317" lon="-3.711633">
        <ele>1838.0</ele>
        <time>2017-09-30T12:13:54Z</time>
      </trkpt>
      <trkpt lat="41.077400" lon="-3.711633">
        <ele>1838.0</ele>
        <time>2017-09-30T12:13:55Z</time>
      </trkpt>
      <trkpt lat="41.077483" lon="-3.711567">
        <ele>1837.0</ele>
        <time>2017-09-30T12:13:56Z</time>
      </trkpt>
      <trkpt lat="41.077567" lon="-3.711467">
        <ele>1837.0</ele>
        <time>2017-09-30T12:13:57Z</time>
      </trkpt>
      <trkpt lat="41.077617" lon="-3.711333">
        <ele>1838.0</ele>
        <time>2017-09-30T12:13:58Z</time>
      </trkpt>
      <trkpt lat="41.077650" lon="-3.711183">
        <ele>1841.0</ele>
        <time>2017-09-30T12:13:59Z</time>
      </trkpt>
      <trkpt lat="41.077667" lon="-3.711050">
        <ele>1843.0</ele>
        <time>2017-09-30T12:14:00Z</time>
      </trkpt>
      <trkpt lat="41.077667" lon="-3.710917">
        <ele>1846.0</ele>
        <time>2017-09-30T12:14:01Z</time>
      </trkpt>
      <trkpt lat="41.077683" lon="-3.710783">
        <ele>1847.0</ele>
        <time>2017-09-30T12:14:02Z</time>
      </trkpt>
      <trkpt lat="41.077717" lon="-3.710633">
        <ele>1848.0</ele>
        <time>2017-09-30T12:14:03Z</time>
      </trkpt>
      <trkpt lat="41.077783" lon="-3.710517">
        <ele>1847.0</ele>
        <time>2017-09-30T12:14:04Z</time>
      </trkpt>
      <trkpt lat="41.077867" lon="-3.710433">
        <ele>1848.0</ele>
        <time>2017-09-30T12:14:05Z</time>
      </trkpt>
      <trkpt lat="41.077967" lon="-3.710400">
        <ele>1848.0</ele>
        <time>2017-09-30T12:14:06Z</time>
      </trkpt>
      <trkpt lat="41.078050" lon="-3.710417">
        <ele>1850.0</ele>
        <time>2017-09-30T12:14:07Z</time>
      </trkpt>
      <trkpt lat="41.078100" lon="-3.710450">
        <ele>1853.0</ele>
        <time>2017-09-30T12:14:08Z</time>
      </trkpt>
      <trkpt lat="41.078117" lon="-3.710500">
        <ele>1856.0</ele>
        <time>2017-09-30T12:14:09Z</time>
      </trkpt>
      <trkpt lat="41.078133" lon="-3.710533">
        <ele>1857.0</ele>
        <time>2017-09-30T12:14:10Z</time>
      </trkpt>
      <trkpt lat="41.078117" lon="-3.710583">
        <ele>1858.0</ele>
        <time>2017-09-30T12:14:11Z</time>
      </trkpt>
      <trkpt lat="41.078100" lon="-3.710633">
        <ele>1858.0</ele>
        <time>2017-09-30T12:14:12Z</time>
      </trkpt>
      <trkpt lat="41.078067" lon="-3.710700">
        <ele>1859.0</ele>
        <time>2017-09-30T12:14:13Z</time>
      </trkpt>
      <trkpt lat="41.078017" lon="-3.710733">
        <ele>1860.0</ele>
        <time>2017-09-30T12:14:14Z</time>
      </trkpt>
      <trkpt lat="41.077950" lon="-3.710750">
        <ele>1861.0</ele>
        <time>2017-09-30T12:14:15Z</time>
      </trkpt>
      <trkpt lat="41.077883" lon="-3.710750">
        <ele>1862.0</ele>
        <time>2017-09-30T12:14:16Z</time>
      </trkpt>
      <trkpt lat="41.077800" lon="-3.710767">
        <ele>1863.0</ele>
        <time>2017-09-30T12:14:17Z</time>
      </trkpt>
      <trkpt lat="41.077733" lon="-3.710783">
        <ele>1865.0</ele>
        <time>2017-09-30T12:14:18Z</time>
      </trkpt>
      <trkpt lat="41.077650" lon="-3.710767">
        <ele>1867.0</ele>
        <time>2017-09-30T12:14:19Z</time>
      </trkpt>
      <trkpt lat="41.077567" lon="-3.710717">
        <ele>1868.0</ele>
        <time>2017-09-30T12:14:20Z</time>
      </trkpt>
      <trkpt lat="41.077483" lon="-3.710617">
        <ele>1869.0</ele>
        <time>2017-09-30T12:14:21Z</time>
      </trkpt>
      <trkpt lat="41.077417" lon="-3.710483">
        <ele>1870.0</ele>
        <time>2017-09-30T12:14:22Z</time>
      </trkpt>
      <trkpt lat="41.077383" lon="-3.710317">
        <ele>1871.0</ele>
        <time>2017-09-30T12:14:23Z</time>
      </trkpt>
      <trkpt lat="41.077383" lon="-3.710150">
        <ele>1873.0</ele>
        <time>2017-09-30T12:14:24Z</time>
      </trkpt>
      <trkpt lat="41.077433" lon="-3.710017">
        <ele>1873.0</ele>
        <time>2017-09-30T12:14:25Z</time>
      </trkpt>
      <trkpt lat="41.077533" lon="-3.709917">
        <ele>1874.0</ele>
        <time>2017-09-30T12:14:26Z</time>
      </trkpt>
      <trkpt lat="41.077617" lon="-3.709867">
        <ele>1875.0</ele>
        <time>2017-09-30T12:14:27Z</time>
      </trkpt>
      <trkpt lat="41.077700" lon="-3.709867">
        <ele>1877.0</ele>
        <time>2017-09-30T12:14:28Z</time>
      </trkpt>
      <trkpt lat="41.077750" lon="-3.709900">
        <ele>1879.0</ele>
        <time>2017-09-30T12:14:29Z</time>
      </trkpt>
      <trkpt lat="41.077800" lon="-3.709933">
        <ele>1882.0</ele>
        <time>2017-09-30T12:14:30Z</time>
      </trkpt>
      <trkpt lat="41.077833" lon="-3.709950">
        <ele>1883.0</ele>
        <time>2017-09-30T12:14:31Z</time>
      </trkpt>
      <trkpt lat="41.077867" lon="-3.709983">
        <ele>1884.0</ele>
        <time>2017-09-30T12:14:32Z</time>
      </trkpt>
      <trkpt lat="41.077900" lon="-3.710033">
        <ele>1885.0</ele>
        <time>2017-09-30T12:14:33Z</time>
      </trkpt>
      <trkpt lat="41.077933" lon="-3.710067">
        <ele>1886.0</ele>
        <time>2017-09-30T12:14:34Z</time>
      </trkpt>
      <trkpt lat="41.077950" lon="-3.710133">
        <ele>1887.0</ele>
        <time>2017-09-30T12:14:35Z</time>
      </trkpt>
      <trkpt lat="41.077950" lon="-3.710167">
        <ele>1888.0</ele>
        <time>2017-09-30T12:14:36Z</time>
      </trkpt>
      <trkpt lat="41.077967" lon="-3.710217">
        <ele>1889.0</ele>
        <time>2017-09-30T12:14:37Z</time>
      </trkpt>
      <trkpt lat="41.077983" lon="-3.710250">
        <ele>1890.0</ele>
        <time>2017-09-30T12:14:38Z</time>
      </trkpt>
      <trkpt lat="41.078000" lon="-3.710300">
        <ele>1891.0</ele>
        <time>2017-09-30T12:14:39Z</time>
      </trkpt>
      <trkpt lat="41.078033" lon="-3.710333">
        <ele>1891.0</ele>
        <time>2017-09-30T12:14:40Z</time>
      </trkpt>
      <trkpt lat="41.078100" lon="-3.710350">
        <ele>1890.0</ele>
        <time>2017-09-30T12:14:41Z</time>
      </trkpt>
      <trkpt lat="41.078167" lon="-3.710317">
        <ele>1889.0</ele>
        <time>2017-09-30T12:14:42Z</time>
      </trkpt>
      <trkpt lat="41.078250" lon="-3.710250">
        <ele>1887.0</ele>
        <time>2017-09-30T12:14:43Z</time>
      </trkpt>
      <trkpt lat="41.078317" lon="-3.710117">
        <ele>1886.0</ele>
        <time>2017-09-30T12:14:44Z</time>
      </trkpt>
      <trkpt lat="41.078350" lon="-3.709967">
        <ele>1885.0</ele>
        <time>2017-09-30T12:14:45Z</time>
      </trkpt>
      <trkpt lat="41.078367" lon="-3.709817">
        <ele>1885.0</ele>
        <time>2017-09-30T12:14:46Z</time>
      </trkpt>
      <trkpt lat="41.078350" lon="-3.709683">
        <ele>1883.0</ele>
        <time>2017-09-30T12:14:47Z</time>
      </trkpt>
      <trkpt lat="41.078333" lon="-3.709517">
        <ele>1881.0</ele>
        <time>2017-09-30T12:14:48Z</time>
      </trkpt>
      <trkpt lat="41.078300" lon="-3.709367">
        <ele>1880.0</ele>
        <time>2017-09-30T12:14:49Z</time>
      </trkpt>
      <trkpt lat="41.078233" lon="-3.709217">
        <ele>1879.0</ele>
        <time>2017-09-30T12:14:50Z</time>
      </trkpt>
      <trkpt lat="41.078167" lon="-3.709100">
        <ele>1878.0</ele>
        <time>2017-09-30T12:14:51Z</time>
      </trkpt>
      <trkpt lat="41.078083" lon="-3.709000">
        <ele>1878.0</ele>
        <time>2017-09-30T12:14:52Z</time>
      </trkpt>
      <trkpt lat="41.078000" lon="-3.708900">
        <ele>1878.0</ele>
        <time>2017-09-30T12:14:53Z</time>
      </trkpt>
      <trkpt lat="41.077917" lon="-3.708833">
        <ele>1878.0</ele>
        <time>2017-09-30T12:14:54Z</time>
      </trkpt>
      <trkpt lat="41.077833" lon="-3.708783">
        <ele>1878.0</ele>
        <time>2017-09-30T12:14:55Z</time>
      </trkpt>
      <trkpt lat="41.077750" lon="-3.708733">
        <ele>1877.0</ele>
        <time>2017-09-30T12:14:56Z</time>
      </trkpt>
      <trkpt lat="41.077650" lon="-3.708700">
        <ele>1877.0</ele>
        <time>2017-09-30T12:14:57Z</time>
      </trkpt>
      <trkpt lat="41.077550" lon="-3.708650">
        <ele>1878.0</ele>
        <time>2017-09-30T12:14:58Z</time>
      </trkpt>
      <trkpt lat="41.077467" lon="-3.708617">
        <ele>1880.0</ele>
        <time>2017-09-30T12:14:59Z</time>
      </trkpt>
      <trkpt lat="41.077383" lon="-3.708600">
        <ele>1881.0</ele>
        <time>2017-09-30T12:15:00Z</time>
      </trkpt>
      <trkpt lat="41.077300" lon="-3.708567">
        <ele>1882.0</ele>
        <time>2017-09-30T12:15:01Z</time>
      </trkpt>
      <trkpt lat="41.077233" lon="-3.708550">
        <ele>1883.0</ele>
        <time>2017-09-30T12:15:02Z</time>
      </trkpt>
      <trkpt lat="41.077133" lon="-3.708550">
        <ele>1883.0</ele>
        <time>2017-09-30T12:15:03Z</time>
      </trkpt>
      <trkpt lat="41.077050" lon="-3.708550">
        <ele>1884.0</ele>
        <time>2017-09-30T12:15:04Z</time>
      </trkpt>
      <trkpt lat="41.076967" lon="-3.708567">
        <ele>1887.0</ele>
        <time>2017-09-30T12:15:05Z</time>
      </trkpt>
      <trkpt lat="41.076900" lon="-3.708583">
        <ele>1889.0</ele>
        <time>2017-09-30T12:15:06Z</time>
      </trkpt>
      <trkpt lat="41.076850" lon="-3.708600">
        <ele>1890.0</ele>
        <time>2017-09-30T12:15:07Z</time>
      </trkpt>
      <trkpt lat="41.076800" lon="-3.708633">
        <ele>1890.0</ele>
        <time>2017-09-30T12:15:08Z</time>
      </trkpt>
      <trkpt lat="41.076750" lon="-3.708650">
        <ele>1889.0</ele>
        <time>2017-09-30T12:15:09Z</time>
      </trkpt>
      <trkpt lat="41.076667" lon="-3.708683">
        <ele>1887.0</ele>
        <time>2017-09-30T12:15:10Z</time>
      </trkpt>
      <trkpt lat="41.076583" lon="-3.708700">
        <ele>1887.0</ele>
        <time>2017-09-30T12:15:11Z</time>
      </trkpt>
      <trkpt lat="41.076517" lon="-3.708733">
        <ele>1887.0</ele>
        <time>2017-09-30T12:15:12Z</time>
      </trkpt>
      <trkpt lat="41.076433" lon="-3.708750">
        <ele>1888.0</ele>
        <time>2017-09-30T12:15:13Z</time>
      </trkpt>
      <trkpt lat="41.076383" lon="-3.708767">
        <ele>1888.0</ele>
        <time>2017-09-30T12:15:14Z</time>
      </trkpt>
      <trkpt lat="41.076317" lon="-3.708783">
        <ele>1888.0</ele>
        <time>2017-09-30T12:15:15Z</time>
      </trkpt>
      <trkpt lat="41.076250" lon="-3.708800">
        <ele>1886.0</ele>
        <time>2017-09-30T12:15:16Z</time>
      </trkpt>
      <trkpt lat="41.076200" lon="-3.708833">
        <ele>1885.0</ele>
        <time>2017-09-30T12:15:17Z</time>
      </trkpt>
      <trkpt lat="41.076117" lon="-3.708867">
        <ele>1885.0</ele>
        <time>2017-09-30T12:15:18Z</time>
      </trkpt>
      <trkpt lat="41.076050" lon="-3.708883">
        <ele>1885.0</ele>
        <time>2017-09-30T12:15:19Z</time>
      </trkpt>
      <trkpt lat="41.075983" lon="-3.708917">
        <ele>1885.0</ele>
        <time>2017-09-30T12:15:20Z</time>
      </trkpt>
      <trkpt lat="41.075900" lon="-3.708950">
        <ele>1885.0</ele>
        <time>2017-09-30T12:15:21Z</time>
      </trkpt>
      <trkpt lat="41.075833" lon="-3.708983">
        <ele>1884.0</ele>
        <time>2017-09-30T12:15:22Z</time>
      </trkpt>
      <trkpt lat="41.075767" lon="-3.709017">
        <ele>1885.0</ele>
        <time>2017-09-30T12:15:23Z</time>
      </trkpt>
      <trkpt lat="41.075717" lon="-3.709067">
        <ele>1885.0</ele>
        <time>2017-09-30T12:15:24Z</time>
      </trkpt>
      <trkpt lat="41.075700" lon="-3.709133">
        <ele>1884.0</ele>
        <time>2017-09-30T12:15:25Z</time>
      </trkpt>
      <trkpt lat="41.075700" lon="-3.709183">
        <ele>1884.0</ele>
        <time>2017-09-30T12:15:26Z</time>
      </trkpt>
      <trkpt lat="41.075750" lon="-3.709200">
        <ele>1882.0</ele>
        <time>2017-09-30T12:15:27Z</time>
      </trkpt>
      <trkpt lat="41.075817" lon="-3.709167">
        <ele>1881.0</ele>
        <time>2017-09-30T12:15:28Z</time>
      </trkpt>
      <trkpt lat="41.075900" lon="-3.709083">
        <ele>1880.0</ele>
        <time>2017-09-30T12:15:29Z</time>
      </trkpt>
      <trkpt lat="41.075950" lon="-3.708967">
        <ele>1879.0</ele>
        <time>2017-09-30T12:15:30Z</time>
      </trkpt>
      <trkpt lat="41.075983" lon="-3.708800">
        <ele>1878.0</ele>
        <time>2017-09-30T12:15:31Z</time>
      </trkpt>
      <trkpt lat="41.075983" lon="-3.708617">
        <ele>1876.0</ele>
        <time>2017-09-30T12:15:32Z</time>
      </trkpt>
      <trkpt lat="41.075950" lon="-3.708433">
        <ele>1876.0</ele>
        <time>2017-09-30T12:15:33Z</time>
      </trkpt>
      <trkpt lat="41.075900" lon="-3.708267">
        <ele>1875.0</ele>
        <time>2017-09-30T12:15:34Z</time>
      </trkpt>
      <trkpt lat="41.075867" lon="-3.708117">
        <ele>1875.0</ele>
        <time>2017-09-30T12:15:35Z</time>
      </trkpt>
      <trkpt lat="41.075850" lon="-3.707967">
        <ele>1875.0</ele>
        <time>2017-09-30T12:15:36Z</time>
      </trkpt>
      <trkpt lat="41.075850" lon="-3.707817">
        <ele>1874.0</ele>
        <time>2017-09-30T12:15:37Z</time>
      </trkpt>
      <trkpt lat="41.075850" lon="-3.707650">
        <ele>1872.0</ele>
        <time>2017-09-30T12:15:38Z</time>
      </trkpt>
      <trkpt lat="41.075883" lon="-3.707500">
        <ele>1871.0</ele>
        <time>2017-09-30T12:15:39Z</time>
      </trkpt>
      <trkpt lat="41.075933" lon="-3.707367">
        <ele>1870.0</ele>
        <time>2017-09-30T12:15:40Z</time>
      </trkpt>
      <trkpt lat="41.075983" lon="-3.707250">
        <ele>1868.0</ele>
        <time>2017-09-30T12:15:41Z</time>
      </trkpt>
      <trkpt lat="41.076033" lon="-3.707200">
        <ele>1867.0</ele>
        <time>2017-09-30T12:15:42Z</time>
      </trkpt>
      <trkpt lat="41.076083" lon="-3.707167">
        <ele>1866.0</ele>
        <time>2017-09-30T12:15:43Z</time>
      </trkpt>
      <trkpt lat="41.076117" lon="-3.707167">
        <ele>1866.0</ele>
        <time>2017-09-30T12:15:44Z</time>
      </trkpt>
      <trkpt lat="41.076150" lon="-3.707150">
        <ele>1865.0</ele>
        <time>2017-09-30T12:15:45Z</time>
      </trkpt>
      <trkpt lat="41.076167" lon="-3.707150">
        <ele>1864.0</ele>
        <time>2017-09-30T12:15:46Z</time>
      </trkpt>
      <trkpt lat="41.076183" lon="-3.707150">
        <ele>1863.0</ele>
        <time>2017-09-30T12:15:47Z</time>
      </trkpt>
      <trkpt lat="41.076200" lon="-3.707133">
        <ele>1863.0</ele>
        <time>2017-09-30T12:15:48Z</time>
      </trkpt>
      <trkpt lat="41.076217" lon="-3.707117">
        <ele>1863.0</ele>
        <time>2017-09-30T12:15:49Z</time>
      </trkpt>
      <trkpt lat="41.076217" lon="-3.707117">
        <ele>1863.0</ele>
        <time>2017-09-30T12:15:50Z</time>
      </trkpt>
      <trkpt lat="41.076217" lon="-3.707100">
        <ele>1863.0</ele>
        <time>2017-09-30T12:15:51Z</time>
      </trkpt>
      <trkpt lat="41.076217" lon="-3.707100">
        <ele>1864.0</ele>
        <time>2017-09-30T12:15:52Z</time>
      </trkpt>
      <trkpt lat="41.076217" lon="-3.707117">
        <ele>1864.0</ele>
        <time>2017-09-30T12:15:53Z</time>
      </trkpt>
      <trkpt lat="41.076217" lon="-3.707117">
        <ele>1864.0</ele>
        <time>2017-09-30T12:15:54Z</time>
      </trkpt>
      <trkpt lat="41.076217" lon="-3.707117">
        <ele>1864.0</ele>
        <time>2017-09-30T12:15:55Z</time>
      </trkpt>
      <trkpt lat="41.076217" lon="-3.707117">
        <ele>1864.0</ele>
        <time>2017-09-30T12:15:56Z</time>
      </trkpt>
      <trkpt lat="41.076200" lon="-3.707117">
        <ele>1864.0</ele>
        <time>2017-09-30T12:15:57Z</time>
      </trkpt>
      <trkpt lat="41.076200" lon="-3.707117">
        <ele>1864.0</ele>
        <time>2017-09-30T12:15:58Z</time>
      </trkpt>
      <trkpt lat="41.076200" lon="-3.707117">
        <ele>1864.0</ele>
        <time>2017-09-30T12:15:59Z</time>
      </trkpt>
      <trkpt lat="41.076200" lon="-3.707117">
        <ele>1864.0</ele>
        <time>2017-09-30T12:16:00Z</time>
      </trkpt>
      <trkpt lat="41.076200" lon="-3.707117">
        <ele>1864.0</ele>
        <time>2017-09-30T12:16:01Z</time>
      </trkpt>
      <trkpt lat="41.076200" lon="-3.707117">
        <ele>1864.0</ele>
        <time>2017-09-30T12:16:02Z</time>
      </trkpt>
      <trkpt lat="41.076200" lon="-3.707100">
        <ele>1864.0</ele>
        <time>2017-09-30T12:16:03Z</time>
      </trkpt>
      <trkpt lat="41.076183" lon="-3.707100">
        <ele>1864.0</ele>
        <time>2017-09-30T12:16:04Z</time>
      </trkpt>
      <trkpt lat="41.076183" lon="-3.707100">
        <ele>1864.0</ele>
        <time>2017-09-30T12:16:05Z</time>
      </trkpt>
      <trkpt lat="41.076183" lon="-3.707100">
        <ele>1864.0</ele>
        <time>2017-09-30T12:16:06Z</time>
      </trkpt>
      <trkpt lat="41.076183" lon="-3.707100">
        <ele>1864.0</ele>
        <time>2017-09-30T12:16:07Z</time>
      </trkpt>
      <trkpt lat="41.076183" lon="-3.707100">
        <ele>1864.0</ele>
        <time>2017-09-30T12:16:08Z</time>
      </trkpt>
      <trkpt lat="41.076183" lon="-3.707100">
        <ele>1864.0</ele>
        <time>2017-09-30T12:16:09Z</time>
      </trkpt>
      <trkpt lat="41.076183" lon="-3.707100">
        <ele>1864.0</ele>
        <time>2017-09-30T12:16:10Z</time>
      </trkpt>
      <trkpt lat="41.076183" lon="-3.707100">
        <ele>1864.0</ele>
        <time>2017-09-30T12:16:11Z</time>
      </trkpt>
      <trkpt lat="41.076183" lon="-3.707100">
        <ele>1864.0</ele>
        <time>2017-09-30T12:16:12Z</time>
      </trkpt>
      <trkpt lat="41.076183" lon="-3.707100">
        <ele>1864.0</ele>
        <time>2017-09-30T12:16:13Z</time>
      </trkpt>
      <trkpt lat="41.076183" lon="-3.707100">
        <ele>1864.0</ele>
        <time>2017-09-30T12:16:14Z</time>
      </trkpt>
      <trkpt lat="41.076183" lon="-3.707100">
        <ele>1864.0</ele>
        <time>2017-09-30T12:16:15Z</time>
      </trkpt>
      <trkpt lat="41.076200" lon="-3.707100">
        <ele>1864.0</ele>
        <time>2017-09-30T12:16:16Z</time>
      </trkpt>
      <trkpt lat="41.076200" lon="-3.707083">
        <ele>1864.0</ele>
        <time>2017-09-30T12:16:17Z</time>
      </trkpt>
      <trkpt lat="41.076200" lon="-3.707067">
        <ele>1864.0</ele>
        <time>2017-09-30T12:16:18Z</time>
      </trkpt>
      <trkpt lat="41.076200" lon="-3.707067">
        <ele>1865.0</ele>
        <time>2017-09-30T12:16:19Z</time>
      </trkpt>
      <trkpt lat="41.076200" lon="-3.707067">
        <ele>1864.0</ele>
        <time>2017-09-30T12:16:20Z</time>
      </trkpt>
      <trkpt lat="41.076200" lon="-3.707050">
        <ele>1864.0</ele>
        <time>2017-09-30T12:16:21Z</time>
      </trkpt>
      <trkpt lat="41.076200" lon="-3.707050">
        <ele>1864.0</ele>
        <time>2017-09-30T12:16:22Z</time>
      </trkpt>
      <trkpt lat="41.076200" lon="-3.707033">
        <ele>1864.0</ele>
        <time>2017-09-30T12:16:23Z</time>
      </trkpt>
      <trkpt lat="41.076200" lon="-3.707033">
        <ele>1864.0</ele>
        <time>2017-09-30T12:16:24Z</time>
      </trkpt>
      <trkpt lat="41.076183" lon="-3.707033">
        <ele>1864.0</ele>
        <time>2017-09-30T12:16:25Z</time>
      </trkpt>
      <trkpt lat="41.076183" lon="-3.707033">
        <ele>1864.0</ele>
        <time>2017-09-30T12:16:26Z</time>
      </trkpt>
      <trkpt lat="41.076183" lon="-3.707033">
        <ele>1864.0</ele>
        <time>2017-09-30T12:16:27Z</time>
      </trkpt>
      <trkpt lat="41.076183" lon="-3.707033">
        <ele>1864.0</ele>
        <time>2017-09-30T12:16:28Z</time>
      </trkpt>
      <trkpt lat="41.076183" lon="-3.707033">
        <ele>1864.0</ele>
        <time>2017-09-30T12:16:29Z</time>
      </trkpt>
      <trkpt lat="41.076183" lon="-3.707033">
        <ele>1863.0</ele>
        <time>2017-09-30T12:16:30Z</time>
      </trkpt>
      <trkpt lat="41.076183" lon="-3.707033">
        <ele>1863.0</ele>
        <time>2017-09-30T12:16:31Z</time>
      </trkpt>
      <trkpt lat="41.076183" lon="-3.707033">
        <ele>1863.0</ele>
        <time>2017-09-30T12:16:32Z</time>
      </trkpt>
      <trkpt lat="41.076200" lon="-3.707033">
        <ele>1863.0</ele>
        <time>2017-09-30T12:16:33Z</time>
      </trkpt>
      <trkpt lat="41.076200" lon="-3.707050">
        <ele>1863.0</ele>
        <time>2017-09-30T12:16:34Z</time>
      </trkpt>
      <trkpt lat="41.076217" lon="-3.707050">
        <ele>1863.0</ele>
        <time>2017-09-30T12:16:35Z</time>
      </trkpt>
      <trkpt lat="41.076233" lon="-3.707050">
        <ele>1863.0</ele>
        <time>2017-09-30T12:16:36Z</time>
      </trkpt>
      <trkpt lat="41.076233" lon="-3.707050">
        <ele>1862.0</ele>
        <time>2017-09-30T12:16:37Z</time>
      </trkpt>
      <trkpt lat="41.076250" lon="-3.707050">
        <ele>1862.0</ele>
        <time>2017-09-30T12:16:38Z</time>
      </trkpt>
      <trkpt lat="41.076250" lon="-3.707050">
        <ele>1861.0</ele>
        <time>2017-09-30T12:16:39Z</time>
      </trkpt>
      <trkpt lat="41.076267" lon="-3.707050">
        <ele>1861.0</ele>
        <time>2017-09-30T12:16:40Z</time>
      </trkpt>
      <trkpt lat="41.076283" lon="-3.707050">
        <ele>1860.0</ele>
        <time>2017-09-30T12:16:41Z</time>
      </trkpt>
      <trkpt lat="41.076283" lon="-3.707050">
        <ele>1859.0</ele>
        <time>2017-09-30T12:16:42Z</time>
      </trkpt>
      <trkpt lat="41.076300" lon="-3.707050">
        <ele>1859.0</ele>
        <time>2017-09-30T12:16:43Z</time>
      </trkpt>
      <trkpt lat="41.076317" lon="-3.707050">
        <ele>1859.0</ele>
        <time>2017-09-30T12:16:44Z</time>
      </trkpt>
      <trkpt lat="41.076317" lon="-3.707050">
        <ele>1858.0</ele>
        <time>2017-09-30T12:16:45Z</time>
      </trkpt>
      <trkpt lat="41.076333" lon="-3.707050">
        <ele>1858.0</ele>
        <time>2017-09-30T12:16:46Z</time>
      </trkpt>
      <trkpt lat="41.076350" lon="-3.707050">
        <ele>1858.0</ele>
        <time>2017-09-30T12:16:47Z</time>
      </trkpt>
      <trkpt lat="41.076350" lon="-3.707050">
        <ele>1858.0</ele>
        <time>2017-09-30T12:16:48Z</time>
      </trkpt>
      <trkpt lat="41.076367" lon="-3.707067">
        <ele>1857.0</ele>
        <time>2017-09-30T12:16:49Z</time>
      </trkpt>
      <trkpt lat="41.076383" lon="-3.707067">
        <ele>1857.0</ele>
        <time>2017-09-30T12:16:50Z</time>
      </trkpt>
      <trkpt lat="41.076383" lon="-3.707050">
        <ele>1857.0</ele>
        <time>2017-09-30T12:16:51Z</time>
      </trkpt>
      <trkpt lat="41.076400" lon="-3.707050">
        <ele>1857.0</ele>
        <time>2017-09-30T12:16:52Z</time>
      </trkpt>
      <trkpt lat="41.076417" lon="-3.707050">
        <ele>1857.0</ele>
        <time>2017-09-30T12:16:53Z</time>
      </trkpt>
      <trkpt lat="41.076417" lon="-3.707050">
        <ele>1857.0</ele>
        <time>2017-09-30T12:16:54Z</time>
      </trkpt>
      <trkpt lat="41.076433" lon="-3.707050">
        <ele>1857.0</ele>
        <time>2017-09-30T12:16:55Z</time>
      </trkpt>
      <trkpt lat="41.076450" lon="-3.707050">
        <ele>1857.0</ele>
        <time>2017-09-30T12:16:56Z</time>
      </trkpt>
      <trkpt lat="41.076450" lon="-3.707050">
        <ele>1857.0</ele>
        <time>2017-09-30T12:16:57Z</time>
      </trkpt>
      <trkpt lat="41.076467" lon="-3.707050">
        <ele>1857.0</ele>
        <time>2017-09-30T12:16:58Z</time>
      </trkpt>
      <trkpt lat="41.076483" lon="-3.707050">
        <ele>1857.0</ele>
        <time>2017-09-30T12:16:59Z</time>
      </trkpt>
      <trkpt lat="41.076483" lon="-3.707067">
        <ele>1857.0</ele>
        <time>2017-09-30T12:17:00Z</time>
      </trkpt>
      <trkpt lat="41.076500" lon="-3.707083">
        <ele>1856.0</ele>
        <time>2017-09-30T12:17:01Z</time>
      </trkpt>
      <trkpt lat="41.076517" lon="-3.707083">
        <ele>1857.0</ele>
        <time>2017-09-30T12:17:02Z</time>
      </trkpt>
      <trkpt lat="41.076533" lon="-3.707083">
        <ele>1857.0</ele>
        <time>2017-09-30T12:17:03Z</time>
      </trkpt>
      <trkpt lat="41.076533" lon="-3.707100">
        <ele>1857.0</ele>
        <time>2017-09-30T12:17:04Z</time>
      </trkpt>
      <trkpt lat="41.076550" lon="-3.707100">
        <ele>1857.0</ele>
        <time>2017-09-30T12:17:05Z</time>
      </trkpt>
      <trkpt lat="41.076550" lon="-3.707100">
        <ele>1857.0</ele>
        <time>2017-09-30T12:17:06Z</time>
      </trkpt>
      <trkpt lat="41.076550" lon="-3.707100">
        <ele>1857.0</ele>
        <time>2017-09-30T12:17:07Z</time>
      </trkpt>
      <trkpt lat="41.076550" lon="-3.707100">
        <ele>1857.0</ele>
        <time>2017-09-30T12:17:08Z</time>
      </trkpt>
      <trkpt lat="41.076550" lon="-3.707100">
        <ele>1857.0</ele>
        <time>2017-09-30T12:17:09Z</time>
      </trkpt>
      <trkpt lat="41.076550" lon="-3.707100">
        <ele>1857.0</ele>
        <time>2017-09-30T12:17:10Z</time>
      </trkpt>
      <trkpt lat="41.076550" lon="-3.707100">
        <ele>1857.0</ele>
        <time>2017-09-30T12:17:11Z</time>
      </trkpt>
      <trkpt lat="41.076550" lon="-3.707100">
        <ele>1857.0</ele>
        <time>2017-09-30T12:17:12Z</time>
      </trkpt>
      <trkpt lat="41.076550" lon="-3.707100">
        <ele>1857.0</ele>
        <time>2017-09-30T12:17:13Z</time>
      </trkpt>
      <trkpt lat="41.076550" lon="-3.707100">
        <ele>1857.0</ele>
        <time>2017-09-30T12:17:14Z</time>
      </trkpt>
      <trkpt lat="41.076550" lon="-3.707100">
        <ele>1858.0</ele>
        <time>2017-09-30T12:17:15Z</time>
      </trkpt>
      <trkpt lat="41.076550" lon="-3.707117">
        <ele>1857.0</ele>
        <time>2017-09-30T12:17:16Z</time>
      </trkpt>
      <trkpt lat="41.076567" lon="-3.707117">
        <ele>1857.0</ele>
        <time>2017-09-30T12:17:17Z</time>
      </trkpt>
      <trkpt lat="41.076583" lon="-3.707117">
        <ele>1857.0</ele>
        <time>2017-09-30T12:17:18Z</time>
      </trkpt>
      <trkpt lat="41.076583" lon="-3.707133">
        <ele>1857.0</ele>
        <time>2017-09-30T12:17:19Z</time>
      </trkpt>
      <trkpt lat="41.076600" lon="-3.707133">
        <ele>1857.0</ele>
        <time>2017-09-30T12:17:20Z</time>
      </trkpt>
      <trkpt lat="41.076600" lon="-3.707150">
        <ele>1857.0</ele>
        <time>2017-09-30T12:17:21Z</time>
      </trkpt>
      <trkpt lat="41.076617" lon="-3.707150">
        <ele>1857.0</ele>
        <time>2017-09-30T12:17:22Z</time>
      </trkpt>
      <trkpt lat="41.076617" lon="-3.707167">
        <ele>1857.0</ele>
        <time>2017-09-30T12:17:23Z</time>
      </trkpt>
      <trkpt lat="41.076617" lon="-3.707167">
        <ele>1857.0</ele>
        <time>2017-09-30T12:17:24Z</time>
      </trkpt>
      <trkpt lat="41.076617" lon="-3.707167">
        <ele>1857.0</ele>
        <time>2017-09-30T12:17:25Z</time>
      </trkpt>
      <trkpt lat="41.076617" lon="-3.707167">
        <ele>1857.0</ele>
        <time>2017-09-30T12:17:26Z</time>
      </trkpt>
      <trkpt lat="41.076617" lon="-3.707167">
        <ele>1857.0</ele>
        <time>2017-09-30T12:17:27Z</time>
      </trkpt>
      <trkpt lat="41.076633" lon="-3.707167">
        <ele>1857.0</ele>
        <time>2017-09-30T12:17:28Z</time>
      </trkpt>
      <trkpt lat="41.076633" lon="-3.707183">
        <ele>1857.0</ele>
        <time>2017-09-30T12:17:29Z</time>
      </trkpt>
      <trkpt lat="41.076650" lon="-3.707183">
        <ele>1857.0</ele>
        <time>2017-09-30T12:17:30Z</time>
      </trkpt>
      <trkpt lat="41.076650" lon="-3.707183">
        <ele>1857.0</ele>
        <time>2017-09-30T12:17:31Z</time>
      </trkpt>
      <trkpt lat="41.076667" lon="-3.707183">
        <ele>1857.0</ele>
        <time>2017-09-30T12:17:32Z</time>
      </trkpt>
      <trkpt lat="41.076667" lon="-3.707200">
        <ele>1857.0</ele>
        <time>2017-09-30T12:17:33Z</time>
      </trkpt>
      <trkpt lat="41.076667" lon="-3.707200">
        <ele>1856.0</ele>
        <time>2017-09-30T12:17:34Z</time>
      </trkpt>
      <trkpt lat="41.076683" lon="-3.707217">
        <ele>1856.0</ele>
        <time>2017-09-30T12:17:35Z</time>
      </trkpt>
      <trkpt lat="41.076683" lon="-3.707217">
        <ele>1856.0</ele>
        <time>2017-09-30T12:17:36Z</time>
      </trkpt>
      <trkpt lat="41.076700" lon="-3.707233">
        <ele>1856.0</ele>
        <time>2017-09-30T12:17:37Z</time>
      </trkpt>
      <trkpt lat="41.076700" lon="-3.707233">
        <ele>1856.0</ele>
        <time>2017-09-30T12:17:38Z</time>
      </trkpt>
      <trkpt lat="41.076717" lon="-3.707250">
        <ele>1856.0</ele>
        <time>2017-09-30T12:17:39Z</time>
      </trkpt>
      <trkpt lat="41.076717" lon="-3.707250">
        <ele>1855.0</ele>
        <time>2017-09-30T12:17:40Z</time>
      </trkpt>
      <trkpt lat="41.076717" lon="-3.707267">
        <ele>1855.0</ele>
        <time>2017-09-30T12:17:41Z</time>
      </trkpt>
      <trkpt lat="41.076733" lon="-3.707283">
        <ele>1855.0</ele>
        <time>2017-09-30T12:17:42Z</time>
      </trkpt>
      <trkpt lat="41.076733" lon="-3.707283">
        <ele>1854.0</ele>
        <time>2017-09-30T12:17:43Z</time>
      </trkpt>
      <trkpt lat="41.076733" lon="-3.707283">
        <ele>1854.0</ele>
        <time>2017-09-30T12:17:44Z</time>
      </trkpt>
      <trkpt lat="41.076750" lon="-3.707300">
        <ele>1854.0</ele>
        <time>2017-09-30T12:17:45Z</time>
      </trkpt>
      <trkpt lat="41.076750" lon="-3.707300">
        <ele>1854.0</ele>
        <time>2017-09-30T12:17:46Z</time>
      </trkpt>
      <trkpt lat="41.076750" lon="-3.707317">
        <ele>1854.0</ele>
        <time>2017-09-30T12:17:47Z</time>
      </trkpt>
      <trkpt lat="41.076767" lon="-3.707317">
        <ele>1853.0</ele>
        <time>2017-09-30T12:17:48Z</time>
      </trkpt>
      <trkpt lat="41.076767" lon="-3.707333">
        <ele>1853.0</ele>
        <time>2017-09-30T12:17:49Z</time>
      </trkpt>
      <trkpt lat="41.076783" lon="-3.707333">
        <ele>1853.0</ele>
        <time>2017-09-30T12:17:50Z</time>
      </trkpt>
      <trkpt lat="41.076783" lon="-3.707350">
        <ele>1853.0</ele>
        <time>2017-09-30T12:17:51Z</time>
      </trkpt>
      <trkpt lat="41.076800" lon="-3.707367">
        <ele>1853.0</ele>
        <time>2017-09-30T12:17:52Z</time>
      </trkpt>
      <trkpt lat="41.076800" lon="-3.707367">
        <ele>1853.0</ele>
        <time>2017-09-30T12:17:53Z</time>
      </trkpt>
      <trkpt lat="41.076817" lon="-3.707383">
        <ele>1852.0</ele>
        <time>2017-09-30T12:17:54Z</time>
      </trkpt>
      <trkpt lat="41.076817" lon="-3.707383">
        <ele>1851.0</ele>
        <time>2017-09-30T12:17:55Z</time>
      </trkpt>
      <trkpt lat="41.076833" lon="-3.707400">
        <ele>1851.0</ele>
        <time>2017-09-30T12:17:56Z</time>
      </trkpt>
      <trkpt lat="41.076833" lon="-3.707417">
        <ele>1851.0</ele>
        <time>2017-09-30T12:17:57Z</time>
      </trkpt>
      <trkpt lat="41.076833" lon="-3.707417">
        <ele>1851.0</ele>
        <time>2017-09-30T12:17:58Z</time>
      </trkpt>
      <trkpt lat="41.076833" lon="-3.707417">
        <ele>1851.0</ele>
        <time>2017-09-30T12:17:59Z</time>
      </trkpt>
      <trkpt lat="41.076833" lon="-3.707433">
        <ele>1850.0</ele>
        <time>2017-09-30T12:18:00Z</time>
      </trkpt>
      <trkpt lat="41.076850" lon="-3.707433">
        <ele>1850.0</ele>
        <time>2017-09-30T12:18:01Z</time>
      </trkpt>
      <trkpt lat="41.076850" lon="-3.707450">
        <ele>1850.0</ele>
        <time>2017-09-30T12:18:02Z</time>
      </trkpt>
      <trkpt lat="41.076850" lon="-3.707450">
        <ele>1850.0</ele>
        <time>2017-09-30T12:18:03Z</time>
      </trkpt>
      <trkpt lat="41.076850" lon="-3.707450">
        <ele>1850.0</ele>
        <time>2017-09-30T12:18:04Z</time>
      </trkpt>
      <trkpt lat="41.076850" lon="-3.707450">
        <ele>1850.0</ele>
        <time>2017-09-30T12:18:05Z</time>
      </trkpt>
      <trkpt lat="41.076850" lon="-3.707450">
        <ele>1850.0</ele>
        <time>2017-09-30T12:18:06Z</time>
      </trkpt>
      <trkpt lat="41.076850" lon="-3.707450">
        <ele>1850.0</ele>
        <time>2017-09-30T12:18:07Z</time>
      </trkpt>
      <trkpt lat="41.076850" lon="-3.707450">
        <ele>1850.0</ele>
        <time>2017-09-30T12:18:08Z</time>
      </trkpt>
      <trkpt lat="41.076850" lon="-3.707467">
        <ele>1850.0</ele>
        <time>2017-09-30T12:18:09Z</time>
      </trkpt>
      <trkpt lat="41.076850" lon="-3.707467">
        <ele>1850.0</ele>
        <time>2017-09-30T12:18:10Z</time>
      </trkpt>
      <trkpt lat="41.076850" lon="-3.707467">
        <ele>1850.0</ele>
        <time>2017-09-30T12:18:11Z</time>
      </trkpt>
      <trkpt lat="41.076850" lon="-3.707467">
        <ele>1850.0</ele>
        <time>2017-09-30T12:18:12Z</time>
      </trkpt>
      <trkpt lat="41.076850" lon="-3.707467">
        <ele>1850.0</ele>
        <time>2017-09-30T12:18:13Z</time>
      </trkpt>
      <trkpt lat="41.076850" lon="-3.707450">
        <ele>1849.0</ele>
        <time>2017-09-30T12:18:14Z</time>
      </trkpt>
      <trkpt lat="41.076850" lon="-3.707450">
        <ele>1849.0</ele>
        <time>2017-09-30T12:18:15Z</time>
      </trkpt>
      <trkpt lat="41.076850" lon="-3.707467">
        <ele>1849.0</ele>
        <time>2017-09-30T12:18:16Z</time>
      </trkpt>
      <trkpt lat="41.076850" lon="-3.707467">
        <ele>1849.0</ele>
        <time>2017-09-30T12:18:17Z</time>
      </trkpt>
      <trkpt lat="41.076850" lon="-3.707467">
        <ele>1849.0</ele>
        <time>2017-09-30T12:18:18Z</time>
      </trkpt>
      <trkpt lat="41.076850" lon="-3.707450">
        <ele>1849.0</ele>
        <time>2017-09-30T12:18:19Z</time>
      </trkpt>
      <trkpt lat="41.076850" lon="-3.707450">
        <ele>1849.0</ele>
        <time>2017-09-30T12:18:20Z</time>
      </trkpt>
      <trkpt lat="41.076850" lon="-3.707450">
        <ele>1849.0</ele>
        <time>2017-09-30T12:18:21Z</time>
      </trkpt>
      <trkpt lat="41.076850" lon="-3.707450">
        <ele>1849.0</ele>
        <time>2017-09-30T12:18:22Z</time>
      </trkpt>
      <trkpt lat="41.076850" lon="-3.707467">
        <ele>1849.0</ele>
        <time>2017-09-30T12:18:23Z</time>
      </trkpt>
      <trkpt lat="41.076850" lon="-3.707467">
        <ele>1849.0</ele>
        <time>2017-09-30T12:18:24Z</time>
      </trkpt>
      <trkpt lat="41.076850" lon="-3.707467">
        <ele>1849.0</ele>
        <time>2017-09-30T12:18:25Z</time>
      </trkpt>
      <trkpt lat="41.076850" lon="-3.707467">
        <ele>1849.0</ele>
        <time>2017-09-30T12:18:26Z</time>
      </trkpt>
      <trkpt lat="41.076850" lon="-3.707450">
        <ele>1849.0</ele>
        <time>2017-09-30T12:18:27Z</time>
      </trkpt>
      <trkpt lat="41.076850" lon="-3.707450">
        <ele>1849.0</ele>
        <time>2017-09-30T12:18:28Z</time>
      </trkpt>
      <trkpt lat="41.076850" lon="-3.707450">
        <ele>1849.0</ele>
        <time>2017-09-30T12:18:29Z</time>
      </trkpt>
      <trkpt lat="41.076850" lon="-3.707450">
        <ele>1849.0</ele>
        <time>2017-09-30T12:18:30Z</time>
      </trkpt>
      <trkpt lat="41.076850" lon="-3.707450">
        <ele>1849.0</ele>
        <time>2017-09-30T12:18:31Z</time>
      </trkpt>
      <trkpt lat="41.076850" lon="-3.707450">
        <ele>1849.0</ele>
        <time>2017-09-30T12:18:32Z</time>
      </trkpt>
      <trkpt lat="41.076850" lon="-3.707450">
        <ele>1849.0</ele>
        <time>2017-09-30T12:18:33Z</time>
      </trkpt>
      <trkpt lat="41.076850" lon="-3.707450">
        <ele>1849.0</ele>
        <time>2017-09-30T12:18:34Z</time>
      </trkpt>
      <trkpt lat="41.076850" lon="-3.707450">
        <ele>1849.0</ele>
        <time>2017-09-30T12:18:35Z</time>
      </trkpt>
      <trkpt lat="41.076850" lon="-3.707450">
        <ele>1849.0</ele>
        <time>2017-09-30T12:18:36Z</time>
      </trkpt>
      <trkpt lat="41.076850" lon="-3.707450">
        <ele>1849.0</ele>
        <time>2017-09-30T12:18:37Z</time>
      </trkpt>
      <trkpt lat="41.076850" lon="-3.707450">
        <ele>1849.0</ele>
        <time>2017-09-30T12:18:38Z</time>
      </trkpt>
      <trkpt lat="41.076850" lon="-3.707450">
        <ele>1849.0</ele>
        <time>2017-09-30T12:18:39Z</time>
      </trkpt>
      <trkpt lat="41.076850" lon="-3.707450">
        <ele>1849.0</ele>
        <time>2017-09-30T12:18:40Z</time>
      </trkpt>
      <trkpt lat="41.076850" lon="-3.707450">
        <ele>1849.0</ele>
        <time>2017-09-30T12:18:41Z</time>
      </trkpt>
      <trkpt lat="41.076850" lon="-3.707450">
        <ele>1849.0</ele>
        <time>2017-09-30T12:18:42Z</time>
      </trkpt>
      <trkpt lat="41.076850" lon="-3.707450">
        <ele>1849.0</ele>
        <time>2017-09-30T12:18:43Z</time>
      </trkpt>
      <trkpt lat="41.076850" lon="-3.707450">
        <ele>1849.0</ele>
        <time>2017-09-30T12:18:44Z</time>
      </trkpt>
      <trkpt lat="41.076850" lon="-3.707450">
        <ele>1849.0</ele>
        <time>2017-09-30T12:18:45Z</time>
      </trkpt>
      <trkpt lat="41.076850" lon="-3.707450">
        <ele>1849.0</ele>
        <time>2017-09-30T12:18:46Z</time>
      </trkpt>
      <trkpt lat="41.076850" lon="-3.707450">
        <ele>1849.0</ele>
        <time>2017-09-30T12:18:47Z</time>
      </trkpt>
      <trkpt lat="41.076850" lon="-3.707450">
        <ele>1849.0</ele>
        <time>2017-09-30T12:18:48Z</time>
      </trkpt>
      <trkpt lat="41.076867" lon="-3.707467">
        <ele>1849.0</ele>
        <time>2017-09-30T12:18:49Z</time>
      </trkpt>
      <trkpt lat="41.076867" lon="-3.707467">
        <ele>1849.0</ele>
        <time>2017-09-30T12:18:50Z</time>
      </trkpt>
      <trkpt lat="41.076867" lon="-3.707467">
        <ele>1849.0</ele>
        <time>2017-09-30T12:18:51Z</time>
      </trkpt>
      <trkpt lat="41.076883" lon="-3.707483">
        <ele>1849.0</ele>
        <time>2017-09-30T12:18:52Z</time>
      </trkpt>
      <trkpt lat="41.076883" lon="-3.707483">
        <ele>1849.0</ele>
        <time>2017-09-30T12:18:53Z</time>
      </trkpt>
      <trkpt lat="41.076883" lon="-3.707483">
        <ele>1849.0</ele>
        <time>2017-09-30T12:18:54Z</time>
      </trkpt>
      <trkpt lat="41.076883" lon="-3.707483">
        <ele>1849.0</ele>
        <time>2017-09-30T12:18:55Z</time>
      </trkpt>
      <trkpt lat="41.076883" lon="-3.707500">
        <ele>1849.0</ele>
        <time>2017-09-30T12:18:56Z</time>
      </trkpt>
      <trkpt lat="41.076883" lon="-3.707483">
        <ele>1849.0</ele>
        <time>2017-09-30T12:18:57Z</time>
      </trkpt>
      <trkpt lat="41.076883" lon="-3.707483">
        <ele>1849.0</ele>
        <time>2017-09-30T12:18:58Z</time>
      </trkpt>
      <trkpt lat="41.076883" lon="-3.707483">
        <ele>1849.0</ele>
        <time>2017-09-30T12:18:59Z</time>
      </trkpt>
      <trkpt lat="41.076883" lon="-3.707483">
        <ele>1849.0</ele>
        <time>2017-09-30T12:19:00Z</time>
      </trkpt>
      <trkpt lat="41.076883" lon="-3.707483">
        <ele>1849.0</ele>
        <time>2017-09-30T12:19:01Z</time>
      </trkpt>
      <trkpt lat="41.076883" lon="-3.707500">
        <ele>1849.0</ele>
        <time>2017-09-30T12:19:02Z</time>
      </trkpt>
      <trkpt lat="41.076883" lon="-3.707500">
        <ele>1848.0</ele>
        <time>2017-09-30T12:19:03Z</time>
      </trkpt>
      <trkpt lat="41.076883" lon="-3.707500">
        <ele>1848.0</ele>
        <time>2017-09-30T12:19:04Z</time>
      </trkpt>
      <trkpt lat="41.076883" lon="-3.707500">
        <ele>1848.0</ele>
        <time>2017-09-30T12:19:05Z</time>
      </trkpt>
      <trkpt lat="41.076883" lon="-3.707500">
        <ele>1848.0</ele>
        <time>2017-09-30T12:19:06Z</time>
      </trkpt>
      <trkpt lat="41.076883" lon="-3.707500">
        <ele>1848.0</ele>
        <time>2017-09-30T12:19:07Z</time>
      </trkpt>
      <trkpt lat="41.076883" lon="-3.707500">
        <ele>1848.0</ele>
        <time>2017-09-30T12:19:08Z</time>
      </trkpt>
      <trkpt lat="41.076883" lon="-3.707500">
        <ele>1848.0</ele>
        <time>2017-09-30T12:19:09Z</time>
      </trkpt>
      <trkpt lat="41.076883" lon="-3.707500">
        <ele>1848.0</ele>
        <time>2017-09-30T12:19:10Z</time>
      </trkpt>
      <trkpt lat="41.076883" lon="-3.707500">
        <ele>1849.0</ele>
        <time>2017-09-30T12:19:11Z</time>
      </trkpt>
      <trkpt lat="41.076883" lon="-3.707500">
        <ele>1848.0</ele>
        <time>2017-09-30T12:19:12Z</time>
      </trkpt>
      <trkpt lat="41.076883" lon="-3.707500">
        <ele>1848.0</ele>
        <time>2017-09-30T12:19:13Z</time>
      </trkpt>
      <trkpt lat="41.076883" lon="-3.707500">
        <ele>1848.0</ele>
        <time>2017-09-30T12:19:14Z</time>
      </trkpt>
      <trkpt lat="41.076883" lon="-3.707500">
        <ele>1848.0</ele>
        <time>2017-09-30T12:19:15Z</time>
      </trkpt>
      <trkpt lat="41.076883" lon="-3.707500">
        <ele>1848.0</ele>
        <time>2017-09-30T12:19:16Z</time>
      </trkpt>
      <trkpt lat="41.076883" lon="-3.707500">
        <ele>1848.0</ele>
        <time>2017-09-30T12:19:17Z</time>
      </trkpt>
      <trkpt lat="41.076883" lon="-3.707500">
        <ele>1848.0</ele>
        <time>2017-09-30T12:19:18Z</time>
      </trkpt>
      <trkpt lat="41.076883" lon="-3.707500">
        <ele>1848.0</ele>
        <time>2017-09-30T12:19:19Z</time>
      </trkpt>
      <trkpt lat="41.076883" lon="-3.707500">
        <ele>1848.0</ele>
        <time>2017-09-30T12:19:20Z</time>
      </trkpt>
      <trkpt lat="41.076883" lon="-3.707500">
        <ele>1848.0</ele>
        <time>2017-09-30T12:19:21Z</time>
      </trkpt>
      <trkpt lat="41.076883" lon="-3.707500">
        <ele>1848.0</ele>
        <time>2017-09-30T12:19:22Z</time>
      </trkpt>
      <trkpt lat="41.076883" lon="-3.707500">
        <ele>1848.0</ele>
        <time>2017-09-30T12:19:23Z</time>
      </trkpt>
      <trkpt lat="41.076883" lon="-3.707500">
        <ele>1848.0</ele>
        <time>2017-09-30T12:19:24Z</time>
      </trkpt>
      <trkpt lat="41.076883" lon="-3.707500">
        <ele>1848.0</ele>
        <time>2017-09-30T12:19:25Z</time>
      </trkpt>
      <trkpt lat="41.076883" lon="-3.707500">
        <ele>1849.0</ele>
        <time>2017-09-30T12:19:26Z</time>
      </trkpt>
      <trkpt lat="41.076883" lon="-3.707500">
        <ele>1849.0</ele>
        <time>2017-09-30T12:19:27Z</time>
      </trkpt>
      <trkpt lat="41.076883" lon="-3.707500">
        <ele>1849.0</ele>
        <time>2017-09-30T12:19:28Z</time>
      </trkpt>
      <trkpt lat="41.076883" lon="-3.707500">
        <ele>1849.0</ele>
        <time>2017-09-30T12:19:29Z</time>
      </trkpt>
      <trkpt lat="41.076883" lon="-3.707500">
        <ele>1849.0</ele>
        <time>2017-09-30T12:19:30Z</time>
      </trkpt>
      <trkpt lat="41.076883" lon="-3.707500">
        <ele>1849.0</ele>
        <time>2017-09-30T12:19:31Z</time>
      </trkpt>
      <trkpt lat="41.076883" lon="-3.707500">
        <ele>1849.0</ele>
        <time>2017-09-30T12:19:32Z</time>
      </trkpt>
      <trkpt lat="41.076883" lon="-3.707500">
        <ele>1849.0</ele>
        <time>2017-09-30T12:19:33Z</time>
      </trkpt>
      <trkpt lat="41.076900" lon="-3.707500">
        <ele>1849.0</ele>
        <time>2017-09-30T12:19:34Z</time>
      </trkpt>
      <trkpt lat="41.076900" lon="-3.707500">
        <ele>1849.0</ele>
        <time>2017-09-30T12:19:35Z</time>
      </trkpt>
      <trkpt lat="41.076883" lon="-3.707500">
        <ele>1849.0</ele>
        <time>2017-09-30T12:19:36Z</time>
      </trkpt>
      <trkpt lat="41.076883" lon="-3.707500">
        <ele>1849.0</ele>
        <time>2017-09-30T12:19:37Z</time>
      </trkpt>
      <trkpt lat="41.076883" lon="-3.707500">
        <ele>1849.0</ele>
        <time>2017-09-30T12:19:38Z</time>
      </trkpt>
      <trkpt lat="41.076883" lon="-3.707500">
        <ele>1849.0</ele>
        <time>2017-09-30T12:19:39Z</time>
      </trkpt>
      <trkpt lat="41.076883" lon="-3.707500">
        <ele>1849.0</ele>
        <time>2017-09-30T12:19:40Z</time>
      </trkpt>
      <trkpt lat="41.076883" lon="-3.707500">
        <ele>1849.0</ele>
        <time>2017-09-30T12:19:41Z</time>
      </trkpt>
      <trkpt lat="41.076883" lon="-3.707500">
        <ele>1849.0</ele>
        <time>2017-09-30T12:19:42Z</time>
      </trkpt>
      <trkpt lat="41.076883" lon="-3.707500">
        <ele>1849.0</ele>
        <time>2017-09-30T12:19:43Z</time>
      </trkpt>
      <trkpt lat="41.076883" lon="-3.707500">
        <ele>1849.0</ele>
        <time>2017-09-30T12:19:44Z</time>
      </trkpt>
      <trkpt lat="41.076883" lon="-3.707500">
        <ele>1849.0</ele>
        <time>2017-09-30T12:19:45Z</time>
      </trkpt>
      <trkpt lat="41.076883" lon="-3.707500">
        <ele>1849.0</ele>
        <time>2017-09-30T12:19:46Z</time>
      </trkpt>
      <trkpt lat="41.076883" lon="-3.707500">
        <ele>1849.0</ele>
        <time>2017-09-30T12:19:47Z</time>
      </trkpt>
      <trkpt lat="41.076883" lon="-3.707500">
        <ele>1849.0</ele>
        <time>2017-09-30T12:19:48Z</time>
      </trkpt>
      <trkpt lat="41.076883" lon="-3.707500">
        <ele>1849.0</ele>
        <time>2017-09-30T12:19:49Z</time>
      </trkpt>
      <trkpt lat="41.076883" lon="-3.707500">
        <ele>1849.0</ele>
        <time>2017-09-30T12:19:50Z</time>
      </trkpt>
      <trkpt lat="41.076883" lon="-3.707500">
        <ele>1849.0</ele>
        <time>2017-09-30T12:19:51Z</time>
      </trkpt>
      <trkpt lat="41.076883" lon="-3.707500">
        <ele>1849.0</ele>
        <time>2017-09-30T12:19:52Z</time>
      </trkpt>
      <trkpt lat="41.076883" lon="-3.707500">
        <ele>1849.0</ele>
        <time>2017-09-30T12:19:53Z</time>
      </trkpt>
      <trkpt lat="41.076883" lon="-3.707500">
        <ele>1850.0</ele>
        <time>2017-09-30T12:19:54Z</time>
      </trkpt>
      <trkpt lat="41.076883" lon="-3.707500">
        <ele>1850.0</ele>
        <time>2017-09-30T12:19:55Z</time>
      </trkpt>
      <trkpt lat="41.076883" lon="-3.707500">
        <ele>1850.0</ele>
        <time>2017-09-30T12:19:56Z</time>
      </trkpt>
      <trkpt lat="41.076883" lon="-3.707500">
        <ele>1850.0</ele>
        <time>2017-09-30T12:19:57Z</time>
      </trkpt>
      <trkpt lat="41.076883" lon="-3.707500">
        <ele>1850.0</ele>
        <time>2017-09-30T12:19:58Z</time>
      </trkpt>
      <trkpt lat="41.076883" lon="-3.707500">
        <ele>1850.0</ele>
        <time>2017-09-30T12:19:59Z</time>
      </trkpt>
      <trkpt lat="41.076883" lon="-3.707500">
        <ele>1850.0</ele>
        <time>2017-09-30T12:20:00Z</time>
      </trkpt>
      <trkpt lat="41.076883" lon="-3.707500">
        <ele>1850.0</ele>
        <time>2017-09-30T12:20:01Z</time>
      </trkpt>
      <trkpt lat="41.076883" lon="-3.707500">
        <ele>1850.0</ele>
        <time>2017-09-30T12:20:02Z</time>
      </trkpt>
      <trkpt lat="41.076883" lon="-3.707500">
        <ele>1850.0</ele>
        <time>2017-09-30T12:20:03Z</time>
      </trkpt>
      <trkpt lat="41.076883" lon="-3.707500">
        <ele>1850.0</ele>
        <time>2017-09-30T12:20:04Z</time>
      </trkpt>
      <trkpt lat="41.076883" lon="-3.707500">
        <ele>1850.0</ele>
        <time>2017-09-30T12:20:05Z</time>
      </trkpt>
      <trkpt lat="41.076883" lon="-3.707500">
        <ele>1850.0</ele>
        <time>2017-09-30T12:20:06Z</time>
      </trkpt>
      <trkpt lat="41.076883" lon="-3.707517">
        <ele>1850.0</ele>
        <time>2017-09-30T12:20:07Z</time>
      </trkpt>
      <trkpt lat="41.076883" lon="-3.707517">
        <ele>1849.0</ele>
        <time>2017-09-30T12:20:08Z</time>
      </trkpt>
      <trkpt lat="41.076883" lon="-3.707533">
        <ele>1849.0</ele>
        <time>2017-09-30T12:20:09Z</time>
      </trkpt>
      <trkpt lat="41.076900" lon="-3.707533">
        <ele>1849.0</ele>
        <time>2017-09-30T12:20:10Z</time>
      </trkpt>
      <trkpt lat="41.076900" lon="-3.707550">
        <ele>1848.0</ele>
        <time>2017-09-30T12:20:11Z</time>
      </trkpt>
      <trkpt lat="41.076900" lon="-3.707567">
        <ele>1848.0</ele>
        <time>2017-09-30T12:20:12Z</time>
      </trkpt>
      <trkpt lat="41.076917" lon="-3.707567">
        <ele>1848.0</ele>
        <time>2017-09-30T12:20:13Z</time>
      </trkpt>
      <trkpt lat="41.076917" lon="-3.707583">
        <ele>1848.0</ele>
        <time>2017-09-30T12:20:14Z</time>
      </trkpt>
      <trkpt lat="41.076917" lon="-3.707583">
        <ele>1848.0</ele>
        <time>2017-09-30T12:20:15Z</time>
      </trkpt>
      <trkpt lat="41.076933" lon="-3.707583">
        <ele>1847.0</ele>
        <time>2017-09-30T12:20:16Z</time>
      </trkpt>
      <trkpt lat="41.076933" lon="-3.707583">
        <ele>1847.0</ele>
        <time>2017-09-30T12:20:17Z</time>
      </trkpt>
      <trkpt lat="41.076933" lon="-3.707583">
        <ele>1847.0</ele>
        <time>2017-09-30T12:20:18Z</time>
      </trkpt>
      <trkpt lat="41.076933" lon="-3.707583">
        <ele>1847.0</ele>
        <time>2017-09-30T12:20:19Z</time>
      </trkpt>
      <trkpt lat="41.076933" lon="-3.707583">
        <ele>1847.0</ele>
        <time>2017-09-30T12:20:20Z</time>
      </trkpt>
      <trkpt lat="41.076933" lon="-3.707583">
        <ele>1847.0</ele>
        <time>2017-09-30T12:20:21Z</time>
      </trkpt>
      <trkpt lat="41.076933" lon="-3.707583">
        <ele>1848.0</ele>
        <time>2017-09-30T12:20:22Z</time>
      </trkpt>
      <trkpt lat="41.076933" lon="-3.707583">
        <ele>1848.0</ele>
        <time>2017-09-30T12:20:23Z</time>
      </trkpt>
      <trkpt lat="41.076933" lon="-3.707583">
        <ele>1848.0</ele>
        <time>2017-09-30T12:20:24Z</time>
      </trkpt>
      <trkpt lat="41.076933" lon="-3.707583">
        <ele>1848.0</ele>
        <time>2017-09-30T12:20:25Z</time>
      </trkpt>
      <trkpt lat="41.076933" lon="-3.707583">
        <ele>1848.0</ele>
        <time>2017-09-30T12:20:26Z</time>
      </trkpt>
      <trkpt lat="41.076933" lon="-3.707583">
        <ele>1848.0</ele>
        <time>2017-09-30T12:20:27Z</time>
      </trkpt>
      <trkpt lat="41.076933" lon="-3.707583">
        <ele>1848.0</ele>
        <time>2017-09-30T12:20:28Z</time>
      </trkpt>
      <trkpt lat="41.076933" lon="-3.707583">
        <ele>1848.0</ele>
        <time>2017-09-30T12:20:29Z</time>
      </trkpt>
      <trkpt lat="41.076933" lon="-3.707583">
        <ele>1848.0</ele>
        <time>2017-09-30T12:20:30Z</time>
      </trkpt>
      <trkpt lat="41.076933" lon="-3.707583">
        <ele>1848.0</ele>
        <time>2017-09-30T12:20:31Z</time>
      </trkpt>
      <trkpt lat="41.076933" lon="-3.707583">
        <ele>1848.0</ele>
        <time>2017-09-30T12:20:32Z</time>
      </trkpt>
      <trkpt lat="41.076933" lon="-3.707583">
        <ele>1848.0</ele>
        <time>2017-09-30T12:20:33Z</time>
      </trkpt>
      <trkpt lat="41.076933" lon="-3.707583">
        <ele>1848.0</ele>
        <time>2017-09-30T12:20:34Z</time>
      </trkpt>
      <trkpt lat="41.076933" lon="-3.707583">
        <ele>1848.0</ele>
        <time>2017-09-30T12:20:35Z</time>
      </trkpt>
      <trkpt lat="41.076933" lon="-3.707583">
        <ele>1848.0</ele>
        <time>2017-09-30T12:20:36Z</time>
      </trkpt>
      <trkpt lat="41.076933" lon="-3.707583">
        <ele>1847.0</ele>
        <time>2017-09-30T12:20:37Z</time>
      </trkpt>
      <trkpt lat="41.076933" lon="-3.707583">
        <ele>1847.0</ele>
        <time>2017-09-30T12:20:38Z</time>
      </trkpt>
      <trkpt lat="41.076933" lon="-3.707583">
        <ele>1847.0</ele>
        <time>2017-09-30T12:20:39Z</time>
      </trkpt>
      <trkpt lat="41.076933" lon="-3.707583">
        <ele>1847.0</ele>
        <time>2017-09-30T12:20:40Z</time>
      </trkpt>
      <trkpt lat="41.076933" lon="-3.707583">
        <ele>1847.0</ele>
        <time>2017-09-30T12:20:41Z</time>
      </trkpt>
      <trkpt lat="41.076933" lon="-3.707583">
        <ele>1847.0</ele>
        <time>2017-09-30T12:20:42Z</time>
      </trkpt>
      <trkpt lat="41.076933" lon="-3.707583">
        <ele>1847.0</ele>
        <time>2017-09-30T12:20:43Z</time>
      </trkpt>
      <trkpt lat="41.076933" lon="-3.707583">
        <ele>1847.0</ele>
        <time>2017-09-30T12:20:44Z</time>
      </trkpt>
      <trkpt lat="41.076933" lon="-3.707583">
        <ele>1847.0</ele>
        <time>2017-09-30T12:20:45Z</time>
      </trkpt>
      <trkpt lat="41.076933" lon="-3.707583">
        <ele>1847.0</ele>
        <time>2017-09-30T12:20:46Z</time>
      </trkpt>
      <trkpt lat="41.076933" lon="-3.707583">
        <ele>1847.0</ele>
        <time>2017-09-30T12:20:47Z</time>
      </trkpt>
      <trkpt lat="41.076933" lon="-3.707583">
        <ele>1847.0</ele>
        <time>2017-09-30T12:20:48Z</time>
      </trkpt>
      <trkpt lat="41.076933" lon="-3.707583">
        <ele>1847.0</ele>
        <time>2017-09-30T12:20:49Z</time>
      </trkpt>
      <trkpt lat="41.076933" lon="-3.707583">
        <ele>1847.0</ele>
        <time>2017-09-30T12:20:50Z</time>
      </trkpt>
      <trkpt lat="41.076933" lon="-3.707583">
        <ele>1846.0</ele>
        <time>2017-09-30T12:20:51Z</time>
      </trkpt>
      <trkpt lat="41.076933" lon="-3.707583">
        <ele>1846.0</ele>
        <time>2017-09-30T12:20:52Z</time>
      </trkpt>
      <trkpt lat="41.076933" lon="-3.707583">
        <ele>1846.0</ele>
        <time>2017-09-30T12:20:53Z</time>
      </trkpt>
      <trkpt lat="41.076933" lon="-3.707583">
        <ele>1846.0</ele>
        <time>2017-09-30T12:20:54Z</time>
      </trkpt>
      <trkpt lat="41.076933" lon="-3.707583">
        <ele>1846.0</ele>
        <time>2017-09-30T12:20:55Z</time>
      </trkpt>
      <trkpt lat="41.076917" lon="-3.707583">
        <ele>1846.0</ele>
        <time>2017-09-30T12:20:56Z</time>
      </trkpt>
      <trkpt lat="41.076917" lon="-3.707583">
        <ele>1846.0</ele>
        <time>2017-09-30T12:20:57Z</time>
      </trkpt>
      <trkpt lat="41.076917" lon="-3.707583">
        <ele>1846.0</ele>
        <time>2017-09-30T12:20:58Z</time>
      </trkpt>
      <trkpt lat="41.076917" lon="-3.707583">
        <ele>1846.0</ele>
        <time>2017-09-30T12:20:59Z</time>
      </trkpt>
      <trkpt lat="41.076917" lon="-3.707583">
        <ele>1846.0</ele>
        <time>2017-09-30T12:21:00Z</time>
      </trkpt>
      <trkpt lat="41.076917" lon="-3.707583">
        <ele>1846.0</ele>
        <time>2017-09-30T12:21:01Z</time>
      </trkpt>
      <trkpt lat="41.076917" lon="-3.707583">
        <ele>1846.0</ele>
        <time>2017-09-30T12:21:02Z</time>
      </trkpt>
      <trkpt lat="41.076917" lon="-3.707583">
        <ele>1846.0</ele>
        <time>2017-09-30T12:21:03Z</time>
      </trkpt>
      <trkpt lat="41.076917" lon="-3.707583">
        <ele>1846.0</ele>
        <time>2017-09-30T12:21:04Z</time>
      </trkpt>
      <trkpt lat="41.076917" lon="-3.707583">
        <ele>1846.0</ele>
        <time>2017-09-30T12:21:05Z</time>
      </trkpt>
      <trkpt lat="41.076917" lon="-3.707583">
        <ele>1846.0</ele>
        <time>2017-09-30T12:21:06Z</time>
      </trkpt>
      <trkpt lat="41.076917" lon="-3.707583">
        <ele>1846.0</ele>
        <time>2017-09-30T12:21:07Z</time>
      </trkpt>
      <trkpt lat="41.076917" lon="-3.707583">
        <ele>1847.0</ele>
        <time>2017-09-30T12:21:08Z</time>
      </trkpt>
      <trkpt lat="41.076917" lon="-3.707583">
        <ele>1847.0</ele>
        <time>2017-09-30T12:21:09Z</time>
      </trkpt>
      <trkpt lat="41.076917" lon="-3.707583">
        <ele>1847.0</ele>
        <time>2017-09-30T12:21:10Z</time>
      </trkpt>
      <trkpt lat="41.076917" lon="-3.707583">
        <ele>1847.0</ele>
        <time>2017-09-30T12:21:11Z</time>
      </trkpt>
      <trkpt lat="41.076917" lon="-3.707583">
        <ele>1847.0</ele>
        <time>2017-09-30T12:21:12Z</time>
      </trkpt>
      <trkpt lat="41.076917" lon="-3.707583">
        <ele>1847.0</ele>
        <time>2017-09-30T12:21:13Z</time>
      </trkpt>
      <trkpt lat="41.076917" lon="-3.707583">
        <ele>1847.0</ele>
        <time>2017-09-30T12:21:14Z</time>
      </trkpt>
      <trkpt lat="41.076917" lon="-3.707583">
        <ele>1847.0</ele>
        <time>2017-09-30T12:21:15Z</time>
      </trkpt>
      <trkpt lat="41.076917" lon="-3.707583">
        <ele>1847.0</ele>
        <time>2017-09-30T12:21:16Z</time>
      </trkpt>
      <trkpt lat="41.076917" lon="-3.707583">
        <ele>1846.0</ele>
        <time>2017-09-30T12:21:17Z</time>
      </trkpt>
      <trkpt lat="41.076917" lon="-3.707583">
        <ele>1846.0</ele>
        <time>2017-09-30T12:21:18Z</time>
      </trkpt>
      <trkpt lat="41.076917" lon="-3.707583">
        <ele>1846.0</ele>
        <time>2017-09-30T12:21:19Z</time>
      </trkpt>
      <trkpt lat="41.076917" lon="-3.707583">
        <ele>1846.0</ele>
        <time>2017-09-30T12:21:20Z</time>
      </trkpt>
      <trkpt lat="41.076917" lon="-3.707583">
        <ele>1846.0</ele>
        <time>2017-09-30T12:21:21Z</time>
      </trkpt>
      <trkpt lat="41.076917" lon="-3.707583">
        <ele>1846.0</ele>
        <time>2017-09-30T12:21:22Z</time>
      </trkpt>
      <trkpt lat="41.076917" lon="-3.707583">
        <ele>1846.0</ele>
        <time>2017-09-30T12:21:23Z</time>
      </trkpt>
      <trkpt lat="41.076917" lon="-3.707583">
        <ele>1846.0</ele>
        <time>2017-09-30T12:21:24Z</time>
      </trkpt>
      <trkpt lat="41.076917" lon="-3.707583">
        <ele>1846.0</ele>
        <time>2017-09-30T12:21:25Z</time>
      </trkpt>
      <trkpt lat="41.076917" lon="-3.707583">
        <ele>1846.0</ele>
        <time>2017-09-30T12:21:26Z</time>
      </trkpt>
      <trkpt lat="41.076917" lon="-3.707583">
        <ele>1846.0</ele>
        <time>2017-09-30T12:21:27Z</time>
      </trkpt>
      <trkpt lat="41.076917" lon="-3.707583">
        <ele>1846.0</ele>
        <time>2017-09-30T12:21:28Z</time>
      </trkpt>
      <trkpt lat="41.076917" lon="-3.707583">
        <ele>1846.0</ele>
        <time>2017-09-30T12:21:29Z</time>
      </trkpt>
      <trkpt lat="41.076917" lon="-3.707583">
        <ele>1846.0</ele>
        <time>2017-09-30T12:21:30Z</time>
      </trkpt>
      <trkpt lat="41.076917" lon="-3.707583">
        <ele>1846.0</ele>
        <time>2017-09-30T12:21:31Z</time>
      </trkpt>
      <trkpt lat="41.076917" lon="-3.707567">
        <ele>1846.0</ele>
        <time>2017-09-30T12:21:32Z</time>
      </trkpt>
      <trkpt lat="41.076917" lon="-3.707567">
        <ele>1846.0</ele>
        <time>2017-09-30T12:21:33Z</time>
      </trkpt>
      <trkpt lat="41.076917" lon="-3.707567">
        <ele>1846.0</ele>
        <time>2017-09-30T12:21:34Z</time>
      </trkpt>
      <trkpt lat="41.076917" lon="-3.707567">
        <ele>1846.0</ele>
        <time>2017-09-30T12:21:35Z</time>
      </trkpt>
      <trkpt lat="41.076917" lon="-3.707567">
        <ele>1846.0</ele>
        <time>2017-09-30T12:21:36Z</time>
      </trkpt>
      <trkpt lat="41.076917" lon="-3.707567">
        <ele>1846.0</ele>
        <time>2017-09-30T12:21:37Z</time>
      </trkpt>
      <trkpt lat="41.076917" lon="-3.707567">
        <ele>1846.0</ele>
        <time>2017-09-30T12:21:38Z</time>
      </trkpt>
      <trkpt lat="41.076917" lon="-3.707567">
        <ele>1846.0</ele>
        <time>2017-09-30T12:21:39Z</time>
      </trkpt>
      <trkpt lat="41.076917" lon="-3.707567">
        <ele>1847.0</ele>
        <time>2017-09-30T12:21:40Z</time>
      </trkpt>
      <trkpt lat="41.076917" lon="-3.707567">
        <ele>1847.0</ele>
        <time>2017-09-30T12:21:41Z</time>
      </trkpt>
      <trkpt lat="41.076917" lon="-3.707567">
        <ele>1847.0</ele>
        <time>2017-09-30T12:21:42Z</time>
      </trkpt>
      <trkpt lat="41.076917" lon="-3.707567">
        <ele>1847.0</ele>
        <time>2017-09-30T12:21:43Z</time>
      </trkpt>
      <trkpt lat="41.076917" lon="-3.707567">
        <ele>1847.0</ele>
        <time>2017-09-30T12:21:44Z</time>
      </trkpt>
      <trkpt lat="41.076917" lon="-3.707567">
        <ele>1847.0</ele>
        <time>2017-09-30T12:21:45Z</time>
      </trkpt>
      <trkpt lat="41.076917" lon="-3.707567">
        <ele>1847.0</ele>
        <time>2017-09-30T12:21:46Z</time>
      </trkpt>
      <trkpt lat="41.076917" lon="-3.707567">
        <ele>1847.0</ele>
        <time>2017-09-30T12:21:47Z</time>
      </trkpt>
      <trkpt lat="41.076917" lon="-3.707567">
        <ele>1847.0</ele>
        <time>2017-09-30T12:21:48Z</time>
      </trkpt>
      <trkpt lat="41.076917" lon="-3.707567">
        <ele>1847.0</ele>
        <time>2017-09-30T12:21:49Z</time>
      </trkpt>
      <trkpt lat="41.076917" lon="-3.707567">
        <ele>1847.0</ele>
        <time>2017-09-30T12:21:50Z</time>
      </trkpt>
      <trkpt lat="41.076917" lon="-3.707567">
        <ele>1847.0</ele>
        <time>2017-09-30T12:21:51Z</time>
      </trkpt>
      <trkpt lat="41.076917" lon="-3.707567">
        <ele>1847.0</ele>
        <time>2017-09-30T12:21:52Z</time>
      </trkpt>
      <trkpt lat="41.076917" lon="-3.707567">
        <ele>1847.0</ele>
        <time>2017-09-30T12:21:53Z</time>
      </trkpt>
      <trkpt lat="41.076917" lon="-3.707567">
        <ele>1847.0</ele>
        <time>2017-09-30T12:21:54Z</time>
      </trkpt>
      <trkpt lat="41.076917" lon="-3.707567">
        <ele>1847.0</ele>
        <time>2017-09-30T12:21:55Z</time>
      </trkpt>
      <trkpt lat="41.076917" lon="-3.707567">
        <ele>1847.0</ele>
        <time>2017-09-30T12:21:56Z</time>
      </trkpt>
      <trkpt lat="41.076917" lon="-3.707567">
        <ele>1847.0</ele>
        <time>2017-09-30T12:21:57Z</time>
      </trkpt>
      <trkpt lat="41.076933" lon="-3.707567">
        <ele>1847.0</ele>
        <time>2017-09-30T12:21:58Z</time>
      </trkpt>
      <trkpt lat="41.076933" lon="-3.707567">
        <ele>1847.0</ele>
        <time>2017-09-30T12:21:59Z</time>
      </trkpt>
      <trkpt lat="41.076933" lon="-3.707567">
        <ele>1847.0</ele>
        <time>2017-09-30T12:22:00Z</time>
      </trkpt>
      <trkpt lat="41.076933" lon="-3.707567">
        <ele>1847.0</ele>
        <time>2017-09-30T12:22:01Z</time>
      </trkpt>
      <trkpt lat="41.076933" lon="-3.707567">
        <ele>1847.0</ele>
        <time>2017-09-30T12:22:02Z</time>
      </trkpt>
      <trkpt lat="41.076933" lon="-3.707567">
        <ele>1847.0</ele>
        <time>2017-09-30T12:22:03Z</time>
      </trkpt>
      <trkpt lat="41.076933" lon="-3.707567">
        <ele>1847.0</ele>
        <time>2017-09-30T12:22:04Z</time>
      </trkpt>
      <trkpt lat="41.076933" lon="-3.707567">
        <ele>1847.0</ele>
        <time>2017-09-30T12:22:05Z</time>
      </trkpt>
      <trkpt lat="41.076933" lon="-3.707567">
        <ele>1847.0</ele>
        <time>2017-09-30T12:22:06Z</time>
      </trkpt>
      <trkpt lat="41.076933" lon="-3.707567">
        <ele>1847.0</ele>
        <time>2017-09-30T12:22:07Z</time>
      </trkpt>
      <trkpt lat="41.076933" lon="-3.707567">
        <ele>1847.0</ele>
        <time>2017-09-30T12:22:08Z</time>
      </trkpt>
      <trkpt lat="41.076933" lon="-3.707567">
        <ele>1847.0</ele>
        <time>2017-09-30T12:22:09Z</time>
      </trkpt>
      <trkpt lat="41.076933" lon="-3.707567">
        <ele>1847.0</ele>
        <time>2017-09-30T12:22:10Z</time>
      </trkpt>
      <trkpt lat="41.076933" lon="-3.707567">
        <ele>1847.0</ele>
        <time>2017-09-30T12:22:11Z</time>
      </trkpt>
      <trkpt lat="41.076933" lon="-3.707567">
        <ele>1847.0</ele>
        <time>2017-09-30T12:22:12Z</time>
      </trkpt>
      <trkpt lat="41.076933" lon="-3.707567">
        <ele>1847.0</ele>
        <time>2017-09-30T12:22:13Z</time>
      </trkpt>
      <trkpt lat="41.076933" lon="-3.707567">
        <ele>1847.0</ele>
        <time>2017-09-30T12:22:14Z</time>
      </trkpt>
      <trkpt lat="41.076933" lon="-3.707567">
        <ele>1847.0</ele>
        <time>2017-09-30T12:22:15Z</time>
      </trkpt>
      <trkpt lat="41.076933" lon="-3.707567">
        <ele>1847.0</ele>
        <time>2017-09-30T12:22:16Z</time>
      </trkpt>
      <trkpt lat="41.076933" lon="-3.707567">
        <ele>1847.0</ele>
        <time>2017-09-30T12:22:17Z</time>
      </trkpt>
      <trkpt lat="41.076933" lon="-3.707567">
        <ele>1847.0</ele>
        <time>2017-09-30T12:22:18Z</time>
      </trkpt>
      <trkpt lat="41.076933" lon="-3.707567">
        <ele>1847.0</ele>
        <time>2017-09-30T12:22:19Z</time>
      </trkpt>
      <trkpt lat="41.076933" lon="-3.707567">
        <ele>1848.0</ele>
        <time>2017-09-30T12:22:20Z</time>
      </trkpt>
      <trkpt lat="41.076933" lon="-3.707567">
        <ele>1847.0</ele>
        <time>2017-09-30T12:22:21Z</time>
      </trkpt>
      <trkpt lat="41.076933" lon="-3.707567">
        <ele>1848.0</ele>
        <time>2017-09-30T12:22:22Z</time>
      </trkpt>
      <trkpt lat="41.076933" lon="-3.707567">
        <ele>1848.0</ele>
        <time>2017-09-30T12:22:23Z</time>
      </trkpt>
      <trkpt lat="41.076933" lon="-3.707567">
        <ele>1848.0</ele>
        <time>2017-09-30T12:22:24Z</time>
      </trkpt>
      <trkpt lat="41.076933" lon="-3.707567">
        <ele>1848.0</ele>
        <time>2017-09-30T12:22:25Z</time>
      </trkpt>
      <trkpt lat="41.076933" lon="-3.707567">
        <ele>1848.0</ele>
        <time>2017-09-30T12:22:26Z</time>
      </trkpt>
      <trkpt lat="41.076933" lon="-3.707567">
        <ele>1848.0</ele>
        <time>2017-09-30T12:22:27Z</time>
      </trkpt>
      <trkpt lat="41.076933" lon="-3.707567">
        <ele>1848.0</ele>
        <time>2017-09-30T12:22:28Z</time>
      </trkpt>
      <trkpt lat="41.076933" lon="-3.707567">
        <ele>1848.0</ele>
        <time>2017-09-30T12:22:29Z</time>
      </trkpt>
      <trkpt lat="41.076933" lon="-3.707567">
        <ele>1848.0</ele>
        <time>2017-09-30T12:22:30Z</time>
      </trkpt>
      <trkpt lat="41.076933" lon="-3.707567">
        <ele>1848.0</ele>
        <time>2017-09-30T12:22:31Z</time>
      </trkpt>
      <trkpt lat="41.076933" lon="-3.707567">
        <ele>1848.0</ele>
        <time>2017-09-30T12:22:32Z</time>
      </trkpt>
      <trkpt lat="41.076933" lon="-3.707567">
        <ele>1848.0</ele>
        <time>2017-09-30T12:22:33Z</time>
      </trkpt>
      <trkpt lat="41.076933" lon="-3.707567">
        <ele>1848.0</ele>
        <time>2017-09-30T12:22:34Z</time>
      </trkpt>
      <trkpt lat="41.076933" lon="-3.707567">
        <ele>1848.0</ele>
        <time>2017-09-30T12:22:35Z</time>
      </trkpt>
      <trkpt lat="41.076933" lon="-3.707567">
        <ele>1848.0</ele>
        <time>2017-09-30T12:22:36Z</time>
      </trkpt>
      <trkpt lat="41.076933" lon="-3.707567">
        <ele>1848.0</ele>
        <time>2017-09-30T12:22:37Z</time>
      </trkpt>
      <trkpt lat="41.076933" lon="-3.707567">
        <ele>1848.0</ele>
        <time>2017-09-30T12:22:38Z</time>
      </trkpt>
      <trkpt lat="41.076933" lon="-3.707567">
        <ele>1848.0</ele>
        <time>2017-09-30T12:22:39Z</time>
      </trkpt>
      <trkpt lat="41.076933" lon="-3.707567">
        <ele>1848.0</ele>
        <time>2017-09-30T12:22:40Z</time>
      </trkpt>
      <trkpt lat="41.076933" lon="-3.707567">
        <ele>1848.0</ele>
        <time>2017-09-30T12:22:41Z</time>
      </trkpt>
      <trkpt lat="41.076933" lon="-3.707567">
        <ele>1848.0</ele>
        <time>2017-09-30T12:22:42Z</time>
      </trkpt>
      <trkpt lat="41.076933" lon="-3.707567">
        <ele>1848.0</ele>
        <time>2017-09-30T12:22:43Z</time>
      </trkpt>
      <trkpt lat="41.076933" lon="-3.707567">
        <ele>1848.0</ele>
        <time>2017-09-30T12:22:44Z</time>
      </trkpt>
      <trkpt lat="41.076933" lon="-3.707567">
        <ele>1848.0</ele>
        <time>2017-09-30T12:22:45Z</time>
      </trkpt>
      <trkpt lat="41.076933" lon="-3.707567">
        <ele>1848.0</ele>
        <time>2017-09-30T12:22:46Z</time>
      </trkpt>
      <trkpt lat="41.076933" lon="-3.707567">
        <ele>1848.0</ele>
        <time>2017-09-30T12:22:47Z</time>
      </trkpt>
      <trkpt lat="41.076933" lon="-3.707567">
        <ele>1847.0</ele>
        <time>2017-09-30T12:22:48Z</time>
      </trkpt>
      <trkpt lat="41.076933" lon="-3.707567">
        <ele>1847.0</ele>
        <time>2017-09-30T12:22:49Z</time>
      </trkpt>
      <trkpt lat="41.076917" lon="-3.707567">
        <ele>1847.0</ele>
        <time>2017-09-30T12:22:50Z</time>
      </trkpt>
      <trkpt lat="41.076917" lon="-3.707567">
        <ele>1847.0</ele>
        <time>2017-09-30T12:22:51Z</time>
      </trkpt>
      <trkpt lat="41.076917" lon="-3.707567">
        <ele>1847.0</ele>
        <time>2017-09-30T12:22:52Z</time>
      </trkpt>
      <trkpt lat="41.076917" lon="-3.707567">
        <ele>1847.0</ele>
        <time>2017-09-30T12:22:53Z</time>
      </trkpt>
      <trkpt lat="41.076933" lon="-3.707567">
        <ele>1847.0</ele>
        <time>2017-09-30T12:22:54Z</time>
      </trkpt>
      <trkpt lat="41.076933" lon="-3.707567">
        <ele>1848.0</ele>
        <time>2017-09-30T12:22:55Z</time>
      </trkpt>
      <trkpt lat="41.076933" lon="-3.707567">
        <ele>1848.0</ele>
        <time>2017-09-30T12:22:56Z</time>
      </trkpt>
      <trkpt lat="41.076933" lon="-3.707567">
        <ele>1848.0</ele>
        <time>2017-09-30T12:22:57Z</time>
      </trkpt>
      <trkpt lat="41.076917" lon="-3.707567">
        <ele>1848.0</ele>
        <time>2017-09-30T12:22:58Z</time>
      </trkpt>
      <trkpt lat="41.076917" lon="-3.707567">
        <ele>1847.0</ele>
        <time>2017-09-30T12:22:59Z</time>
      </trkpt>
      <trkpt lat="41.076917" lon="-3.707567">
        <ele>1847.0</ele>
        <time>2017-09-30T12:23:00Z</time>
      </trkpt>
      <trkpt lat="41.076917" lon="-3.707567">
        <ele>1847.0</ele>
        <time>2017-09-30T12:23:01Z</time>
      </trkpt>
      <trkpt lat="41.076917" lon="-3.707567">
        <ele>1847.0</ele>
        <time>2017-09-30T12:23:02Z</time>
      </trkpt>
      <trkpt lat="41.076917" lon="-3.707567">
        <ele>1847.0</ele>
        <time>2017-09-30T12:23:03Z</time>
      </trkpt>
      <trkpt lat="41.076917" lon="-3.707567">
        <ele>1847.0</ele>
        <time>2017-09-30T12:23:04Z</time>
      </trkpt>
      <trkpt lat="41.076933" lon="-3.707567">
        <ele>1847.0</ele>
        <time>2017-09-30T12:23:05Z</time>
      </trkpt>
      <trkpt lat="41.076933" lon="-3.707583">
        <ele>1847.0</ele>
        <time>2017-09-30T12:23:06Z</time>
      </trkpt>
      <trkpt lat="41.076933" lon="-3.707583">
        <ele>1846.0</ele>
        <time>2017-09-30T12:23:07Z</time>
      </trkpt>
      <trkpt lat="41.076933" lon="-3.707600">
        <ele>1846.0</ele>
        <time>2017-09-30T12:23:08Z</time>
      </trkpt>
      <trkpt lat="41.076950" lon="-3.707600">
        <ele>1846.0</ele>
        <time>2017-09-30T12:23:09Z</time>
      </trkpt>
      <trkpt lat="41.076950" lon="-3.707617">
        <ele>1845.0</ele>
        <time>2017-09-30T12:23:10Z</time>
      </trkpt>
      <trkpt lat="41.076967" lon="-3.707617">
        <ele>1845.0</ele>
        <time>2017-09-30T12:23:11Z</time>
      </trkpt>
      <trkpt lat="41.076967" lon="-3.707633">
        <ele>1843.0</ele>
        <time>2017-09-30T12:23:12Z</time>
      </trkpt>
      <trkpt lat="41.076983" lon="-3.707633">
        <ele>1843.0</ele>
        <time>2017-09-30T12:23:13Z</time>
      </trkpt>
      <trkpt lat="41.076983" lon="-3.707650">
        <ele>1843.0</ele>
        <time>2017-09-30T12:23:14Z</time>
      </trkpt>
      <trkpt lat="41.076983" lon="-3.707650">
        <ele>1843.0</ele>
        <time>2017-09-30T12:23:15Z</time>
      </trkpt>
      <trkpt lat="41.076983" lon="-3.707650">
        <ele>1842.0</ele>
        <time>2017-09-30T12:23:16Z</time>
      </trkpt>
      <trkpt lat="41.077000" lon="-3.707650">
        <ele>1842.0</ele>
        <time>2017-09-30T12:23:17Z</time>
      </trkpt>
      <trkpt lat="41.077000" lon="-3.707667">
        <ele>1841.0</ele>
        <time>2017-09-30T12:23:18Z</time>
      </trkpt>
      <trkpt lat="41.077017" lon="-3.707667">
        <ele>1841.0</ele>
        <time>2017-09-30T12:23:19Z</time>
      </trkpt>
      <trkpt lat="41.077017" lon="-3.707683">
        <ele>1841.0</ele>
        <time>2017-09-30T12:23:20Z</time>
      </trkpt>
      <trkpt lat="41.077017" lon="-3.707683">
        <ele>1840.0</ele>
        <time>2017-09-30T12:23:21Z</time>
      </trkpt>
      <trkpt lat="41.077033" lon="-3.707700">
        <ele>1840.0</ele>
        <time>2017-09-30T12:23:22Z</time>
      </trkpt>
      <trkpt lat="41.077033" lon="-3.707700">
        <ele>1840.0</ele>
        <time>2017-09-30T12:23:23Z</time>
      </trkpt>
      <trkpt lat="41.077033" lon="-3.707700">
        <ele>1840.0</ele>
        <time>2017-09-30T12:23:24Z</time>
      </trkpt>
      <trkpt lat="41.077033" lon="-3.707683">
        <ele>1840.0</ele>
        <time>2017-09-30T12:23:25Z</time>
      </trkpt>
      <trkpt lat="41.077033" lon="-3.707683">
        <ele>1840.0</ele>
        <time>2017-09-30T12:23:26Z</time>
      </trkpt>
      <trkpt lat="41.077033" lon="-3.707683">
        <ele>1840.0</ele>
        <time>2017-09-30T12:23:27Z</time>
      </trkpt>
      <trkpt lat="41.077033" lon="-3.707683">
        <ele>1840.0</ele>
        <time>2017-09-30T12:23:28Z</time>
      </trkpt>
      <trkpt lat="41.077033" lon="-3.707683">
        <ele>1840.0</ele>
        <time>2017-09-30T12:23:29Z</time>
      </trkpt>
      <trkpt lat="41.077033" lon="-3.707683">
        <ele>1840.0</ele>
        <time>2017-09-30T12:23:30Z</time>
      </trkpt>
      <trkpt lat="41.077017" lon="-3.707683">
        <ele>1841.0</ele>
        <time>2017-09-30T12:23:31Z</time>
      </trkpt>
      <trkpt lat="41.077017" lon="-3.707683">
        <ele>1841.0</ele>
        <time>2017-09-30T12:23:32Z</time>
      </trkpt>
      <trkpt lat="41.077017" lon="-3.707683">
        <ele>1841.0</ele>
        <time>2017-09-30T12:23:33Z</time>
      </trkpt>
      <trkpt lat="41.077017" lon="-3.707683">
        <ele>1841.0</ele>
        <time>2017-09-30T12:23:34Z</time>
      </trkpt>
      <trkpt lat="41.077017" lon="-3.707683">
        <ele>1840.0</ele>
        <time>2017-09-30T12:23:35Z</time>
      </trkpt>
      <trkpt lat="41.077033" lon="-3.707683">
        <ele>1840.0</ele>
        <time>2017-09-30T12:23:36Z</time>
      </trkpt>
      <trkpt lat="41.077033" lon="-3.707683">
        <ele>1840.0</ele>
        <time>2017-09-30T12:23:37Z</time>
      </trkpt>
      <trkpt lat="41.077033" lon="-3.707683">
        <ele>1840.0</ele>
        <time>2017-09-30T12:23:38Z</time>
      </trkpt>
      <trkpt lat="41.077033" lon="-3.707683">
        <ele>1840.0</ele>
        <time>2017-09-30T12:23:39Z</time>
      </trkpt>
      <trkpt lat="41.077033" lon="-3.707683">
        <ele>1840.0</ele>
        <time>2017-09-30T12:23:40Z</time>
      </trkpt>
      <trkpt lat="41.077033" lon="-3.707683">
        <ele>1840.0</ele>
        <time>2017-09-30T12:23:41Z</time>
      </trkpt>
      <trkpt lat="41.077033" lon="-3.707683">
        <ele>1840.0</ele>
        <time>2017-09-30T12:23:42Z</time>
      </trkpt>
      <trkpt lat="41.077033" lon="-3.707683">
        <ele>1840.0</ele>
        <time>2017-09-30T12:23:43Z</time>
      </trkpt>
      <trkpt lat="41.077050" lon="-3.707683">
        <ele>1840.0</ele>
        <time>2017-09-30T12:23:44Z</time>
      </trkpt>
      <trkpt lat="41.077050" lon="-3.707683">
        <ele>1840.0</ele>
        <time>2017-09-30T12:23:45Z</time>
      </trkpt>
      <trkpt lat="41.077050" lon="-3.707683">
        <ele>1840.0</ele>
        <time>2017-09-30T12:23:46Z</time>
      </trkpt>
      <trkpt lat="41.077050" lon="-3.707683">
        <ele>1840.0</ele>
        <time>2017-09-30T12:23:47Z</time>
      </trkpt>
      <trkpt lat="41.077050" lon="-3.707683">
        <ele>1840.0</ele>
        <time>2017-09-30T12:23:48Z</time>
      </trkpt>
      <trkpt lat="41.077050" lon="-3.707683">
        <ele>1840.0</ele>
        <time>2017-09-30T12:23:49Z</time>
      </trkpt>
      <trkpt lat="41.077050" lon="-3.707683">
        <ele>1840.0</ele>
        <time>2017-09-30T12:23:50Z</time>
      </trkpt>
      <trkpt lat="41.077050" lon="-3.707683">
        <ele>1840.0</ele>
        <time>2017-09-30T12:23:51Z</time>
      </trkpt>
      <trkpt lat="41.077050" lon="-3.707683">
        <ele>1840.0</ele>
        <time>2017-09-30T12:23:52Z</time>
      </trkpt>
      <trkpt lat="41.077050" lon="-3.707683">
        <ele>1840.0</ele>
        <time>2017-09-30T12:23:53Z</time>
      </trkpt>
      <trkpt lat="41.077050" lon="-3.707683">
        <ele>1840.0</ele>
        <time>2017-09-30T12:23:54Z</time>
      </trkpt>
      <trkpt lat="41.077050" lon="-3.707683">
        <ele>1840.0</ele>
        <time>2017-09-30T12:23:55Z</time>
      </trkpt>
      <trkpt lat="41.077050" lon="-3.707683">
        <ele>1840.0</ele>
        <time>2017-09-30T12:23:56Z</time>
      </trkpt>
      <trkpt lat="41.077050" lon="-3.707683">
        <ele>1840.0</ele>
        <time>2017-09-30T12:23:57Z</time>
      </trkpt>
      <trkpt lat="41.077033" lon="-3.707683">
        <ele>1841.0</ele>
        <time>2017-09-30T12:23:58Z</time>
      </trkpt>
      <trkpt lat="41.077033" lon="-3.707683">
        <ele>1840.0</ele>
        <time>2017-09-30T12:23:59Z</time>
      </trkpt>
      <trkpt lat="41.077033" lon="-3.707700">
        <ele>1840.0</ele>
        <time>2017-09-30T12:24:00Z</time>
      </trkpt>
      <trkpt lat="41.077033" lon="-3.707700">
        <ele>1840.0</ele>
        <time>2017-09-30T12:24:01Z</time>
      </trkpt>
      <trkpt lat="41.077033" lon="-3.707700">
        <ele>1840.0</ele>
        <time>2017-09-30T12:24:02Z</time>
      </trkpt>
      <trkpt lat="41.077033" lon="-3.707700">
        <ele>1841.0</ele>
        <time>2017-09-30T12:24:03Z</time>
      </trkpt>
      <trkpt lat="41.077033" lon="-3.707683">
        <ele>1841.0</ele>
        <time>2017-09-30T12:24:04Z</time>
      </trkpt>
      <trkpt lat="41.077033" lon="-3.707683">
        <ele>1841.0</ele>
        <time>2017-09-30T12:24:05Z</time>
      </trkpt>
      <trkpt lat="41.077033" lon="-3.707700">
        <ele>1841.0</ele>
        <time>2017-09-30T12:24:06Z</time>
      </trkpt>
      <trkpt lat="41.077033" lon="-3.707717">
        <ele>1841.0</ele>
        <time>2017-09-30T12:24:07Z</time>
      </trkpt>
      <trkpt lat="41.077033" lon="-3.707733">
        <ele>1840.0</ele>
        <time>2017-09-30T12:24:08Z</time>
      </trkpt>
      <trkpt lat="41.077050" lon="-3.707750">
        <ele>1841.0</ele>
        <time>2017-09-30T12:24:09Z</time>
      </trkpt>
      <trkpt lat="41.077067" lon="-3.707783">
        <ele>1839.0</ele>
        <time>2017-09-30T12:24:10Z</time>
      </trkpt>
      <trkpt lat="41.077100" lon="-3.707800">
        <ele>1838.0</ele>
        <time>2017-09-30T12:24:11Z</time>
      </trkpt>
      <trkpt lat="41.077150" lon="-3.707850">
        <ele>1837.0</ele>
        <time>2017-09-30T12:24:12Z</time>
      </trkpt>
      <trkpt lat="41.077200" lon="-3.707900">
        <ele>1837.0</ele>
        <time>2017-09-30T12:24:13Z</time>
      </trkpt>
      <trkpt lat="41.077233" lon="-3.707950">
        <ele>1838.0</ele>
        <time>2017-09-30T12:24:14Z</time>
      </trkpt>
      <trkpt lat="41.077267" lon="-3.707983">
        <ele>1840.0</ele>
        <time>2017-09-30T12:24:15Z</time>
      </trkpt>
      <trkpt lat="41.077283" lon="-3.708017">
        <ele>1843.0</ele>
        <time>2017-09-30T12:24:16Z</time>
      </trkpt>
      <trkpt lat="41.077283" lon="-3.708033">
        <ele>1844.0</ele>
        <time>2017-09-30T12:24:17Z</time>
      </trkpt>
      <trkpt lat="41.077283" lon="-3.708067">
        <ele>1844.0</ele>
        <time>2017-09-30T12:24:18Z</time>
      </trkpt>
      <trkpt lat="41.077300" lon="-3.708100">
        <ele>1844.0</ele>
        <time>2017-09-30T12:24:19Z</time>
      </trkpt>
      <trkpt lat="41.077333" lon="-3.708133">
        <ele>1843.0</ele>
        <time>2017-09-30T12:24:20Z</time>
      </trkpt>
      <trkpt lat="41.077383" lon="-3.708150">
        <ele>1843.0</ele>
        <time>2017-09-30T12:24:21Z</time>
      </trkpt>
      <trkpt lat="41.077433" lon="-3.708133">
        <ele>1844.0</ele>
        <time>2017-09-30T12:24:22Z</time>
      </trkpt>
      <trkpt lat="41.077467" lon="-3.708133">
        <ele>1845.0</ele>
        <time>2017-09-30T12:24:23Z</time>
      </trkpt>
      <trkpt lat="41.077500" lon="-3.708117">
        <ele>1846.0</ele>
        <time>2017-09-30T12:24:24Z</time>
      </trkpt>
      <trkpt lat="41.077550" lon="-3.708117">
        <ele>1847.0</ele>
        <time>2017-09-30T12:24:25Z</time>
      </trkpt>
      <trkpt lat="41.077583" lon="-3.708117">
        <ele>1848.0</ele>
        <time>2017-09-30T12:24:26Z</time>
      </trkpt>
      <trkpt lat="41.077617" lon="-3.708133">
        <ele>1848.0</ele>
        <time>2017-09-30T12:24:27Z</time>
      </trkpt>
      <trkpt lat="41.077667" lon="-3.708133">
        <ele>1849.0</ele>
        <time>2017-09-30T12:24:28Z</time>
      </trkpt>
      <trkpt lat="41.077700" lon="-3.708167">
        <ele>1850.0</ele>
        <time>2017-09-30T12:24:29Z</time>
      </trkpt>
      <trkpt lat="41.077733" lon="-3.708183">
        <ele>1851.0</ele>
        <time>2017-09-30T12:24:30Z</time>
      </trkpt>
      <trkpt lat="41.077767" lon="-3.708200">
        <ele>1852.0</ele>
        <time>2017-09-30T12:24:31Z</time>
      </trkpt>
      <trkpt lat="41.077800" lon="-3.708183">
        <ele>1852.0</ele>
        <time>2017-09-30T12:24:32Z</time>
      </trkpt>
      <trkpt lat="41.077867" lon="-3.708133">
        <ele>1851.0</ele>
        <time>2017-09-30T12:24:33Z</time>
      </trkpt>
      <trkpt lat="41.077933" lon="-3.708083">
        <ele>1851.0</ele>
        <time>2017-09-30T12:24:34Z</time>
      </trkpt>
      <trkpt lat="41.077983" lon="-3.708050">
        <ele>1851.0</ele>
        <time>2017-09-30T12:24:35Z</time>
      </trkpt>
      <trkpt lat="41.078033" lon="-3.708000">
        <ele>1851.0</ele>
        <time>2017-09-30T12:24:36Z</time>
      </trkpt>
      <trkpt lat="41.078083" lon="-3.707950">
        <ele>1851.0</ele>
        <time>2017-09-30T12:24:37Z</time>
      </trkpt>
      <trkpt lat="41.078133" lon="-3.707883">
        <ele>1850.0</ele>
        <time>2017-09-30T12:24:38Z</time>
      </trkpt>
      <trkpt lat="41.078200" lon="-3.707817">
        <ele>1848.0</ele>
        <time>2017-09-30T12:24:39Z</time>
      </trkpt>
      <trkpt lat="41.078250" lon="-3.707733">
        <ele>1847.0</ele>
        <time>2017-09-30T12:24:40Z</time>
      </trkpt>
      <trkpt lat="41.078317" lon="-3.707667">
        <ele>1847.0</ele>
        <time>2017-09-30T12:24:41Z</time>
      </trkpt>
      <trkpt lat="41.078383" lon="-3.707600">
        <ele>1846.0</ele>
        <time>2017-09-30T12:24:42Z</time>
      </trkpt>
      <trkpt lat="41.078450" lon="-3.707550">
        <ele>1846.0</ele>
        <time>2017-09-30T12:24:43Z</time>
      </trkpt>
      <trkpt lat="41.078517" lon="-3.707500">
        <ele>1845.0</ele>
        <time>2017-09-30T12:24:44Z</time>
      </trkpt>
      <trkpt lat="41.078583" lon="-3.707467">
        <ele>1844.0</ele>
        <time>2017-09-30T12:24:45Z</time>
      </trkpt>
      <trkpt lat="41.078650" lon="-3.707433">
        <ele>1844.0</ele>
        <time>2017-09-30T12:24:46Z</time>
      </trkpt>
      <trkpt lat="41.078717" lon="-3.707400">
        <ele>1844.0</ele>
        <time>2017-09-30T12:24:47Z</time>
      </trkpt>
      <trkpt lat="41.078783" lon="-3.707383">
        <ele>1844.0</ele>
        <time>2017-09-30T12:24:48Z</time>
      </trkpt>
      <trkpt lat="41.078850" lon="-3.707367">
        <ele>1843.0</ele>
        <time>2017-09-30T12:24:49Z</time>
      </trkpt>
      <trkpt lat="41.078917" lon="-3.707350">
        <ele>1843.0</ele>
        <time>2017-09-30T12:24:50Z</time>
      </trkpt>
      <trkpt lat="41.079000" lon="-3.707350">
        <ele>1844.0</ele>
        <time>2017-09-30T12:24:51Z</time>
      </trkpt>
      <trkpt lat="41.079067" lon="-3.707350">
        <ele>1845.0</ele>
        <time>2017-09-30T12:24:52Z</time>
      </trkpt>
      <trkpt lat="41.079133" lon="-3.707317">
        <ele>1846.0</ele>
        <time>2017-09-30T12:24:53Z</time>
      </trkpt>
      <trkpt lat="41.079200" lon="-3.707283">
        <ele>1847.0</ele>
        <time>2017-09-30T12:24:54Z</time>
      </trkpt>
      <trkpt lat="41.079250" lon="-3.707233">
        <ele>1847.0</ele>
        <time>2017-09-30T12:24:55Z</time>
      </trkpt>
      <trkpt lat="41.079317" lon="-3.707200">
        <ele>1846.0</ele>
        <time>2017-09-30T12:24:56Z</time>
      </trkpt>
      <trkpt lat="41.079383" lon="-3.707183">
        <ele>1844.0</ele>
        <time>2017-09-30T12:24:57Z</time>
      </trkpt>
      <trkpt lat="41.079450" lon="-3.707150">
        <ele>1843.0</ele>
        <time>2017-09-30T12:24:58Z</time>
      </trkpt>
      <trkpt lat="41.079517" lon="-3.707150">
        <ele>1843.0</ele>
        <time>2017-09-30T12:24:59Z</time>
      </trkpt>
      <trkpt lat="41.079567" lon="-3.707167">
        <ele>1843.0</ele>
        <time>2017-09-30T12:25:00Z</time>
      </trkpt>
      <trkpt lat="41.079617" lon="-3.707183">
        <ele>1842.0</ele>
        <time>2017-09-30T12:25:01Z</time>
      </trkpt>
      <trkpt lat="41.079650" lon="-3.707217">
        <ele>1842.0</ele>
        <time>2017-09-30T12:25:02Z</time>
      </trkpt>
      <trkpt lat="41.079683" lon="-3.707267">
        <ele>1841.0</ele>
        <time>2017-09-30T12:25:03Z</time>
      </trkpt>
      <trkpt lat="41.079700" lon="-3.707333">
        <ele>1840.0</ele>
        <time>2017-09-30T12:25:04Z</time>
      </trkpt>
      <trkpt lat="41.079700" lon="-3.707383">
        <ele>1840.0</ele>
        <time>2017-09-30T12:25:05Z</time>
      </trkpt>
      <trkpt lat="41.079717" lon="-3.707433">
        <ele>1840.0</ele>
        <time>2017-09-30T12:25:06Z</time>
      </trkpt>
      <trkpt lat="41.079700" lon="-3.707483">
        <ele>1839.0</ele>
        <time>2017-09-30T12:25:07Z</time>
      </trkpt>
      <trkpt lat="41.079700" lon="-3.707550">
        <ele>1838.0</ele>
        <time>2017-09-30T12:25:08Z</time>
      </trkpt>
      <trkpt lat="41.079667" lon="-3.707600">
        <ele>1836.0</ele>
        <time>2017-09-30T12:25:09Z</time>
      </trkpt>
      <trkpt lat="41.079617" lon="-3.707667">
        <ele>1835.0</ele>
        <time>2017-09-30T12:25:10Z</time>
      </trkpt>
      <trkpt lat="41.079567" lon="-3.707733">
        <ele>1835.0</ele>
        <time>2017-09-30T12:25:11Z</time>
      </trkpt>
      <trkpt lat="41.079517" lon="-3.707783">
        <ele>1835.0</ele>
        <time>2017-09-30T12:25:12Z</time>
      </trkpt>
      <trkpt lat="41.079483" lon="-3.707850">
        <ele>1835.0</ele>
        <time>2017-09-30T12:25:13Z</time>
      </trkpt>
      <trkpt lat="41.079450" lon="-3.707900">
        <ele>1835.0</ele>
        <time>2017-09-30T12:25:14Z</time>
      </trkpt>
      <trkpt lat="41.079417" lon="-3.707950">
        <ele>1834.0</ele>
        <time>2017-09-30T12:25:15Z</time>
      </trkpt>
      <trkpt lat="41.079400" lon="-3.708017">
        <ele>1834.0</ele>
        <time>2017-09-30T12:25:16Z</time>
      </trkpt>
      <trkpt lat="41.079400" lon="-3.708100">
        <ele>1833.0</ele>
        <time>2017-09-30T12:25:17Z</time>
      </trkpt>
      <trkpt lat="41.079417" lon="-3.708167">
        <ele>1833.0</ele>
        <time>2017-09-30T12:25:18Z</time>
      </trkpt>
      <trkpt lat="41.079450" lon="-3.708217">
        <ele>1833.0</ele>
        <time>2017-09-30T12:25:19Z</time>
      </trkpt>
      <trkpt lat="41.079467" lon="-3.708267">
        <ele>1833.0</ele>
        <time>2017-09-30T12:25:20Z</time>
      </trkpt>
      <trkpt lat="41.079500" lon="-3.708317">
        <ele>1833.0</ele>
        <time>2017-09-30T12:25:21Z</time>
      </trkpt>
      <trkpt lat="41.079533" lon="-3.708350">
        <ele>1832.0</ele>
        <time>2017-09-30T12:25:22Z</time>
      </trkpt>
      <trkpt lat="41.079583" lon="-3.708400">
        <ele>1831.0</ele>
        <time>2017-09-30T12:25:23Z</time>
      </trkpt>
      <trkpt lat="41.079633" lon="-3.708417">
        <ele>1830.0</ele>
        <time>2017-09-30T12:25:24Z</time>
      </trkpt>
      <trkpt lat="41.079683" lon="-3.708433">
        <ele>1830.0</ele>
        <time>2017-09-30T12:25:25Z</time>
      </trkpt>
      <trkpt lat="41.079733" lon="-3.708450">
        <ele>1830.0</ele>
        <time>2017-09-30T12:25:26Z</time>
      </trkpt>
      <trkpt lat="41.079783" lon="-3.708467">
        <ele>1829.0</ele>
        <time>2017-09-30T12:25:27Z</time>
      </trkpt>
      <trkpt lat="41.079833" lon="-3.708467">
        <ele>1827.0</ele>
        <time>2017-09-30T12:25:28Z</time>
      </trkpt>
      <trkpt lat="41.079883" lon="-3.708483">
        <ele>1824.0</ele>
        <time>2017-09-30T12:25:29Z</time>
      </trkpt>
      <trkpt lat="41.079967" lon="-3.708483">
        <ele>1822.0</ele>
        <time>2017-09-30T12:25:30Z</time>
      </trkpt>
      <trkpt lat="41.080033" lon="-3.708500">
        <ele>1822.0</ele>
        <time>2017-09-30T12:25:31Z</time>
      </trkpt>
      <trkpt lat="41.080100" lon="-3.708517">
        <ele>1821.0</ele>
        <time>2017-09-30T12:25:32Z</time>
      </trkpt>
      <trkpt lat="41.080150" lon="-3.708533">
        <ele>1821.0</ele>
        <time>2017-09-30T12:25:33Z</time>
      </trkpt>
      <trkpt lat="41.080200" lon="-3.708550">
        <ele>1820.0</ele>
        <time>2017-09-30T12:25:34Z</time>
      </trkpt>
      <trkpt lat="41.080267" lon="-3.708583">
        <ele>1818.0</ele>
        <time>2017-09-30T12:25:35Z</time>
      </trkpt>
      <trkpt lat="41.080333" lon="-3.708600">
        <ele>1817.0</ele>
        <time>2017-09-30T12:25:36Z</time>
      </trkpt>
      <trkpt lat="41.080400" lon="-3.708617">
        <ele>1816.0</ele>
        <time>2017-09-30T12:25:37Z</time>
      </trkpt>
      <trkpt lat="41.080467" lon="-3.708617">
        <ele>1816.0</ele>
        <time>2017-09-30T12:25:38Z</time>
      </trkpt>
      <trkpt lat="41.080550" lon="-3.708633">
        <ele>1815.0</ele>
        <time>2017-09-30T12:25:39Z</time>
      </trkpt>
      <trkpt lat="41.080617" lon="-3.708633">
        <ele>1815.0</ele>
        <time>2017-09-30T12:25:40Z</time>
      </trkpt>
      <trkpt lat="41.080700" lon="-3.708633">
        <ele>1814.0</ele>
        <time>2017-09-30T12:25:41Z</time>
      </trkpt>
      <trkpt lat="41.080783" lon="-3.708633">
        <ele>1814.0</ele>
        <time>2017-09-30T12:25:42Z</time>
      </trkpt>
      <trkpt lat="41.080867" lon="-3.708650">
        <ele>1814.0</ele>
        <time>2017-09-30T12:25:43Z</time>
      </trkpt>
      <trkpt lat="41.080933" lon="-3.708667">
        <ele>1815.0</ele>
        <time>2017-09-30T12:25:44Z</time>
      </trkpt>
      <trkpt lat="41.081017" lon="-3.708667">
        <ele>1817.0</ele>
        <time>2017-09-30T12:25:45Z</time>
      </trkpt>
      <trkpt lat="41.081067" lon="-3.708683">
        <ele>1818.0</ele>
        <time>2017-09-30T12:25:46Z</time>
      </trkpt>
      <trkpt lat="41.081117" lon="-3.708717">
        <ele>1818.0</ele>
        <time>2017-09-30T12:25:47Z</time>
      </trkpt>
      <trkpt lat="41.081117" lon="-3.708783">
        <ele>1817.0</ele>
        <time>2017-09-30T12:25:48Z</time>
      </trkpt>
      <trkpt lat="41.081100" lon="-3.708867">
        <ele>1816.0</ele>
        <time>2017-09-30T12:25:49Z</time>
      </trkpt>
      <trkpt lat="41.081050" lon="-3.708933">
        <ele>1817.0</ele>
        <time>2017-09-30T12:25:50Z</time>
      </trkpt>
      <trkpt lat="41.080983" lon="-3.708967">
        <ele>1819.0</ele>
        <time>2017-09-30T12:25:51Z</time>
      </trkpt>
      <trkpt lat="41.080917" lon="-3.708967">
        <ele>1821.0</ele>
        <time>2017-09-30T12:25:52Z</time>
      </trkpt>
      <trkpt lat="41.080833" lon="-3.708933">
        <ele>1821.0</ele>
        <time>2017-09-30T12:25:53Z</time>
      </trkpt>
      <trkpt lat="41.080750" lon="-3.708883">
        <ele>1820.0</ele>
        <time>2017-09-30T12:25:54Z</time>
      </trkpt>
      <trkpt lat="41.080650" lon="-3.708817">
        <ele>1820.0</ele>
        <time>2017-09-30T12:25:55Z</time>
      </trkpt>
      <trkpt lat="41.080567" lon="-3.708700">
        <ele>1819.0</ele>
        <time>2017-09-30T12:25:56Z</time>
      </trkpt>
      <trkpt lat="41.080500" lon="-3.708550">
        <ele>1819.0</ele>
        <time>2017-09-30T12:25:57Z</time>
      </trkpt>
      <trkpt lat="41.080483" lon="-3.708383">
        <ele>1819.0</ele>
        <time>2017-09-30T12:25:58Z</time>
      </trkpt>
      <trkpt lat="41.080500" lon="-3.708233">
        <ele>1819.0</ele>
        <time>2017-09-30T12:25:59Z</time>
      </trkpt>
      <trkpt lat="41.080517" lon="-3.708083">
        <ele>1819.0</ele>
        <time>2017-09-30T12:26:00Z</time>
      </trkpt>
      <trkpt lat="41.080567" lon="-3.707933">
        <ele>1818.0</ele>
        <time>2017-09-30T12:26:01Z</time>
      </trkpt>
      <trkpt lat="41.080617" lon="-3.707817">
        <ele>1818.0</ele>
        <time>2017-09-30T12:26:02Z</time>
      </trkpt>
      <trkpt lat="41.080700" lon="-3.707717">
        <ele>1816.0</ele>
        <time>2017-09-30T12:26:03Z</time>
      </trkpt>
      <trkpt lat="41.080783" lon="-3.707633">
        <ele>1816.0</ele>
        <time>2017-09-30T12:26:04Z</time>
      </trkpt>
      <trkpt lat="41.080867" lon="-3.707583">
        <ele>1815.0</ele>
        <time>2017-09-30T12:26:05Z</time>
      </trkpt>
      <trkpt lat="41.080967" lon="-3.707567">
        <ele>1815.0</ele>
        <time>2017-09-30T12:26:06Z</time>
      </trkpt>
      <trkpt lat="41.081033" lon="-3.707550">
        <ele>1815.0</ele>
        <time>2017-09-30T12:26:07Z</time>
      </trkpt>
      <trkpt lat="41.081117" lon="-3.707550">
        <ele>1815.0</ele>
        <time>2017-09-30T12:26:08Z</time>
      </trkpt>
      <trkpt lat="41.081183" lon="-3.707567">
        <ele>1815.0</ele>
        <time>2017-09-30T12:26:09Z</time>
      </trkpt>
      <trkpt lat="41.081250" lon="-3.707567">
        <ele>1815.0</ele>
        <time>2017-09-30T12:26:10Z</time>
      </trkpt>
      <trkpt lat="41.081317" lon="-3.707583">
        <ele>1814.0</ele>
        <time>2017-09-30T12:26:11Z</time>
      </trkpt>
      <trkpt lat="41.081383" lon="-3.707617">
        <ele>1814.0</ele>
        <time>2017-09-30T12:26:12Z</time>
      </trkpt>
      <trkpt lat="41.081467" lon="-3.707617">
        <ele>1814.0</ele>
        <time>2017-09-30T12:26:13Z</time>
      </trkpt>
      <trkpt lat="41.081517" lon="-3.707633">
        <ele>1815.0</ele>
        <time>2017-09-30T12:26:14Z</time>
      </trkpt>
      <trkpt lat="41.081583" lon="-3.707667">
        <ele>1814.0</ele>
        <time>2017-09-30T12:26:15Z</time>
      </trkpt>
      <trkpt lat="41.081667" lon="-3.707683">
        <ele>1813.0</ele>
        <time>2017-09-30T12:26:16Z</time>
      </trkpt>
      <trkpt lat="41.081733" lon="-3.707700">
        <ele>1813.0</ele>
        <time>2017-09-30T12:26:17Z</time>
      </trkpt>
      <trkpt lat="41.081817" lon="-3.707683">
        <ele>1814.0</ele>
        <time>2017-09-30T12:26:18Z</time>
      </trkpt>
      <trkpt lat="41.081883" lon="-3.707683">
        <ele>1815.0</ele>
        <time>2017-09-30T12:26:19Z</time>
      </trkpt>
      <trkpt lat="41.081950" lon="-3.707700">
        <ele>1815.0</ele>
        <time>2017-09-30T12:26:20Z</time>
      </trkpt>
      <trkpt lat="41.082000" lon="-3.707750">
        <ele>1814.0</ele>
        <time>2017-09-30T12:26:21Z</time>
      </trkpt>
      <trkpt lat="41.082033" lon="-3.707800">
        <ele>1814.0</ele>
        <time>2017-09-30T12:26:22Z</time>
      </trkpt>
      <trkpt lat="41.082050" lon="-3.707850">
        <ele>1815.0</ele>
        <time>2017-09-30T12:26:23Z</time>
      </trkpt>
      <trkpt lat="41.082067" lon="-3.707900">
        <ele>1816.0</ele>
        <time>2017-09-30T12:26:24Z</time>
      </trkpt>
      <trkpt lat="41.082083" lon="-3.707917">
        <ele>1817.0</ele>
        <time>2017-09-30T12:26:25Z</time>
      </trkpt>
      <trkpt lat="41.082083" lon="-3.707917">
        <ele>1817.0</ele>
        <time>2017-09-30T12:26:26Z</time>
      </trkpt>
      <trkpt lat="41.082100" lon="-3.707950">
        <ele>1816.0</ele>
        <time>2017-09-30T12:26:27Z</time>
      </trkpt>
      <trkpt lat="41.082133" lon="-3.708000">
        <ele>1815.0</ele>
        <time>2017-09-30T12:26:28Z</time>
      </trkpt>
      <trkpt lat="41.082150" lon="-3.708067">
        <ele>1814.0</ele>
        <time>2017-09-30T12:26:29Z</time>
      </trkpt>
      <trkpt lat="41.082150" lon="-3.708133">
        <ele>1815.0</ele>
        <time>2017-09-30T12:26:30Z</time>
      </trkpt>
      <trkpt lat="41.082133" lon="-3.708183">
        <ele>1817.0</ele>
        <time>2017-09-30T12:26:31Z</time>
      </trkpt>
      <trkpt lat="41.082100" lon="-3.708217">
        <ele>1819.0</ele>
        <time>2017-09-30T12:26:32Z</time>
      </trkpt>
      <trkpt lat="41.082083" lon="-3.708250">
        <ele>1820.0</ele>
        <time>2017-09-30T12:26:33Z</time>
      </trkpt>
      <trkpt lat="41.082067" lon="-3.708300">
        <ele>1820.0</ele>
        <time>2017-09-30T12:26:34Z</time>
      </trkpt>
      <trkpt lat="41.082050" lon="-3.708367">
        <ele>1820.0</ele>
        <time>2017-09-30T12:26:35Z</time>
      </trkpt>
      <trkpt lat="41.082050" lon="-3.708417">
        <ele>1820.0</ele>
        <time>2017-09-30T12:26:36Z</time>
      </trkpt>
      <trkpt lat="41.082067" lon="-3.708483">
        <ele>1821.0</ele>
        <time>2017-09-30T12:26:37Z</time>
      </trkpt>
      <trkpt lat="41.082100" lon="-3.708517">
        <ele>1822.0</ele>
        <time>2017-09-30T12:26:38Z</time>
      </trkpt>
      <trkpt lat="41.082150" lon="-3.708533">
        <ele>1823.0</ele>
        <time>2017-09-30T12:26:39Z</time>
      </trkpt>
      <trkpt lat="41.082200" lon="-3.708550">
        <ele>1824.0</ele>
        <time>2017-09-30T12:26:40Z</time>
      </trkpt>
      <trkpt lat="41.082267" lon="-3.708550">
        <ele>1826.0</ele>
        <time>2017-09-30T12:26:41Z</time>
      </trkpt>
      <trkpt lat="41.082350" lon="-3.708483">
        <ele>1827.0</ele>
        <time>2017-09-30T12:26:42Z</time>
      </trkpt>
      <trkpt lat="41.082417" lon="-3.708367">
        <ele>1828.0</ele>
        <time>2017-09-30T12:26:43Z</time>
      </trkpt>
      <trkpt lat="41.082467" lon="-3.708233">
        <ele>1830.0</ele>
        <time>2017-09-30T12:26:44Z</time>
      </trkpt>
      <trkpt lat="41.082483" lon="-3.708067">
        <ele>1831.0</ele>
        <time>2017-09-30T12:26:45Z</time>
      </trkpt>
      <trkpt lat="41.082483" lon="-3.707900">
        <ele>1832.0</ele>
        <time>2017-09-30T12:26:46Z</time>
      </trkpt>
      <trkpt lat="41.082450" lon="-3.707733">
        <ele>1834.0</ele>
        <time>2017-09-30T12:26:47Z</time>
      </trkpt>
      <trkpt lat="41.082400" lon="-3.707583">
        <ele>1834.0</ele>
        <time>2017-09-30T12:26:48Z</time>
      </trkpt>
      <trkpt lat="41.082317" lon="-3.707467">
        <ele>1834.0</ele>
        <time>2017-09-30T12:26:49Z</time>
      </trkpt>
      <trkpt lat="41.082217" lon="-3.707383">
        <ele>1835.0</ele>
        <time>2017-09-30T12:26:50Z</time>
      </trkpt>
      <trkpt lat="41.082100" lon="-3.707333">
        <ele>1835.0</ele>
        <time>2017-09-30T12:26:51Z</time>
      </trkpt>
      <trkpt lat="41.082000" lon="-3.707317">
        <ele>1837.0</ele>
        <time>2017-09-30T12:26:52Z</time>
      </trkpt>
      <trkpt lat="41.081917" lon="-3.707333">
        <ele>1839.0</ele>
        <time>2017-09-30T12:26:53Z</time>
      </trkpt>
      <trkpt lat="41.081850" lon="-3.707350">
        <ele>1841.0</ele>
        <time>2017-09-30T12:26:54Z</time>
      </trkpt>
      <trkpt lat="41.081800" lon="-3.707367">
        <ele>1842.0</ele>
        <time>2017-09-30T12:26:55Z</time>
      </trkpt>
      <trkpt lat="41.081767" lon="-3.707417">
        <ele>1842.0</ele>
        <time>2017-09-30T12:26:56Z</time>
      </trkpt>
      <trkpt lat="41.081750" lon="-3.707450">
        <ele>1843.0</ele>
        <time>2017-09-30T12:26:57Z</time>
      </trkpt>
      <trkpt lat="41.081733" lon="-3.707500">
        <ele>1845.0</ele>
        <time>2017-09-30T12:26:58Z</time>
      </trkpt>
      <trkpt lat="41.081717" lon="-3.707517">
        <ele>1846.0</ele>
        <time>2017-09-30T12:26:59Z</time>
      </trkpt>
      <trkpt lat="41.081683" lon="-3.707550">
        <ele>1846.0</ele>
        <time>2017-09-30T12:27:00Z</time>
      </trkpt>
      <trkpt lat="41.081667" lon="-3.707567">
        <ele>1845.0</ele>
        <time>2017-09-30T12:27:01Z</time>
      </trkpt>
      <trkpt lat="41.081683" lon="-3.707617">
        <ele>1843.0</ele>
        <time>2017-09-30T12:27:02Z</time>
      </trkpt>
      <trkpt lat="41.081700" lon="-3.707667">
        <ele>1842.0</ele>
        <time>2017-09-30T12:27:03Z</time>
      </trkpt>
      <trkpt lat="41.081717" lon="-3.707700">
        <ele>1841.0</ele>
        <time>2017-09-30T12:27:04Z</time>
      </trkpt>
      <trkpt lat="41.081733" lon="-3.707733">
        <ele>1842.0</ele>
        <time>2017-09-30T12:27:05Z</time>
      </trkpt>
      <trkpt lat="41.081750" lon="-3.707767">
        <ele>1842.0</ele>
        <time>2017-09-30T12:27:06Z</time>
      </trkpt>
      <trkpt lat="41.081750" lon="-3.707783">
        <ele>1842.0</ele>
        <time>2017-09-30T12:27:07Z</time>
      </trkpt>
      <trkpt lat="41.081767" lon="-3.707817">
        <ele>1840.0</ele>
        <time>2017-09-30T12:27:08Z</time>
      </trkpt>
      <trkpt lat="41.081800" lon="-3.707867">
        <ele>1839.0</ele>
        <time>2017-09-30T12:27:09Z</time>
      </trkpt>
      <trkpt lat="41.081833" lon="-3.707917">
        <ele>1838.0</ele>
        <time>2017-09-30T12:27:10Z</time>
      </trkpt>
      <trkpt lat="41.081883" lon="-3.707967">
        <ele>1839.0</ele>
        <time>2017-09-30T12:27:11Z</time>
      </trkpt>
      <trkpt lat="41.081933" lon="-3.708000">
        <ele>1840.0</ele>
        <time>2017-09-30T12:27:12Z</time>
      </trkpt>
      <trkpt lat="41.081950" lon="-3.708033">
        <ele>1842.0</ele>
        <time>2017-09-30T12:27:13Z</time>
      </trkpt>
      <trkpt lat="41.081983" lon="-3.708067">
        <ele>1842.0</ele>
        <time>2017-09-30T12:27:14Z</time>
      </trkpt>
      <trkpt lat="41.082017" lon="-3.708100">
        <ele>1841.0</ele>
        <time>2017-09-30T12:27:15Z</time>
      </trkpt>
      <trkpt lat="41.082067" lon="-3.708133">
        <ele>1840.0</ele>
        <time>2017-09-30T12:27:16Z</time>
      </trkpt>
      <trkpt lat="41.082133" lon="-3.708167">
        <ele>1840.0</ele>
        <time>2017-09-30T12:27:17Z</time>
      </trkpt>
      <trkpt lat="41.082200" lon="-3.708167">
        <ele>1841.0</ele>
        <time>2017-09-30T12:27:18Z</time>
      </trkpt>
      <trkpt lat="41.082267" lon="-3.708150">
        <ele>1842.0</ele>
        <time>2017-09-30T12:27:19Z</time>
      </trkpt>
      <trkpt lat="41.082333" lon="-3.708117">
        <ele>1841.0</ele>
        <time>2017-09-30T12:27:20Z</time>
      </trkpt>
      <trkpt lat="41.082400" lon="-3.708067">
        <ele>1839.0</ele>
        <time>2017-09-30T12:27:21Z</time>
      </trkpt>
      <trkpt lat="41.082467" lon="-3.707983">
        <ele>1837.0</ele>
        <time>2017-09-30T12:27:22Z</time>
      </trkpt>
      <trkpt lat="41.082550" lon="-3.707867">
        <ele>1834.0</ele>
        <time>2017-09-30T12:27:23Z</time>
      </trkpt>
      <trkpt lat="41.082600" lon="-3.707717">
        <ele>1833.0</ele>
        <time>2017-09-30T12:27:24Z</time>
      </trkpt>
      <trkpt lat="41.082633" lon="-3.707533">
        <ele>1832.0</ele>
        <time>2017-09-30T12:27:25Z</time>
      </trkpt>
      <trkpt lat="41.082650" lon="-3.707350">
        <ele>1832.0</ele>
        <time>2017-09-30T12:27:26Z</time>
      </trkpt>
      <trkpt lat="41.082633" lon="-3.707183">
        <ele>1832.0</ele>
        <time>2017-09-30T12:27:27Z</time>
      </trkpt>
      <trkpt lat="41.082583" lon="-3.707017">
        <ele>1832.0</ele>
        <time>2017-09-30T12:27:28Z</time>
      </trkpt>
      <trkpt lat="41.082533" lon="-3.706867">
        <ele>1832.0</ele>
        <time>2017-09-30T12:27:29Z</time>
      </trkpt>
      <trkpt lat="41.082450" lon="-3.706733">
        <ele>1832.0</ele>
        <time>2017-09-30T12:27:30Z</time>
      </trkpt>
      <trkpt lat="41.082350" lon="-3.706633">
        <ele>1831.0</ele>
        <time>2017-09-30T12:27:31Z</time>
      </trkpt>
      <trkpt lat="41.082233" lon="-3.706567">
        <ele>1831.0</ele>
        <time>2017-09-30T12:27:32Z</time>
      </trkpt>
      <trkpt lat="41.082117" lon="-3.706550">
        <ele>1833.0</ele>
        <time>2017-09-30T12:27:33Z</time>
      </trkpt>
      <trkpt lat="41.082033" lon="-3.706550">
        <ele>1835.0</ele>
        <time>2017-09-30T12:27:34Z</time>
      </trkpt>
      <trkpt lat="41.081967" lon="-3.706567">
        <ele>1837.0</ele>
        <time>2017-09-30T12:27:35Z</time>
      </trkpt>
      <trkpt lat="41.081900" lon="-3.706550">
        <ele>1840.0</ele>
        <time>2017-09-30T12:27:36Z</time>
      </trkpt>
      <trkpt lat="41.081833" lon="-3.706550">
        <ele>1841.0</ele>
        <time>2017-09-30T12:27:37Z</time>
      </trkpt>
      <trkpt lat="41.081767" lon="-3.706550">
        <ele>1841.0</ele>
        <time>2017-09-30T12:27:38Z</time>
      </trkpt>
      <trkpt lat="41.081717" lon="-3.706583">
        <ele>1840.0</ele>
        <time>2017-09-30T12:27:39Z</time>
      </trkpt>
      <trkpt lat="41.081667" lon="-3.706650">
        <ele>1840.0</ele>
        <time>2017-09-30T12:27:40Z</time>
      </trkpt>
      <trkpt lat="41.081633" lon="-3.706700">
        <ele>1841.0</ele>
        <time>2017-09-30T12:27:41Z</time>
      </trkpt>
      <trkpt lat="41.081600" lon="-3.706733">
        <ele>1842.0</ele>
        <time>2017-09-30T12:27:42Z</time>
      </trkpt>
      <trkpt lat="41.081583" lon="-3.706750">
        <ele>1841.0</ele>
        <time>2017-09-30T12:27:43Z</time>
      </trkpt>
      <trkpt lat="41.081583" lon="-3.706783">
        <ele>1839.0</ele>
        <time>2017-09-30T12:27:44Z</time>
      </trkpt>
      <trkpt lat="41.081600" lon="-3.706833">
        <ele>1836.0</ele>
        <time>2017-09-30T12:27:45Z</time>
      </trkpt>
      <trkpt lat="41.081617" lon="-3.706883">
        <ele>1833.0</ele>
        <time>2017-09-30T12:27:46Z</time>
      </trkpt>
      <trkpt lat="41.081633" lon="-3.706967">
        <ele>1832.0</ele>
        <time>2017-09-30T12:27:47Z</time>
      </trkpt>
      <trkpt lat="41.081650" lon="-3.707033">
        <ele>1834.0</ele>
        <time>2017-09-30T12:27:48Z</time>
      </trkpt>
      <trkpt lat="41.081667" lon="-3.707067">
        <ele>1837.0</ele>
        <time>2017-09-30T12:27:49Z</time>
      </trkpt>
      <trkpt lat="41.081667" lon="-3.707100">
        <ele>1841.0</ele>
        <time>2017-09-30T12:27:50Z</time>
      </trkpt>
      <trkpt lat="41.081683" lon="-3.707133">
        <ele>1842.0</ele>
        <time>2017-09-30T12:27:51Z</time>
      </trkpt>
      <trkpt lat="41.081683" lon="-3.707167">
        <ele>1843.0</ele>
        <time>2017-09-30T12:27:52Z</time>
      </trkpt>
      <trkpt lat="41.081683" lon="-3.707233">
        <ele>1843.0</ele>
        <time>2017-09-30T12:27:53Z</time>
      </trkpt>
      <trkpt lat="41.081700" lon="-3.707300">
        <ele>1844.0</ele>
        <time>2017-09-30T12:27:54Z</time>
      </trkpt>
      <trkpt lat="41.081717" lon="-3.707333">
        <ele>1844.0</ele>
        <time>2017-09-30T12:27:55Z</time>
      </trkpt>
      <trkpt lat="41.081733" lon="-3.707367">
        <ele>1845.0</ele>
        <time>2017-09-30T12:27:56Z</time>
      </trkpt>
      <trkpt lat="41.081800" lon="-3.707367">
        <ele>1843.0</ele>
        <time>2017-09-30T12:27:57Z</time>
      </trkpt>
      <trkpt lat="41.081867" lon="-3.707350">
        <ele>1840.0</ele>
        <time>2017-09-30T12:27:58Z</time>
      </trkpt>
      <trkpt lat="41.081967" lon="-3.707283">
        <ele>1838.0</ele>
        <time>2017-09-30T12:27:59Z</time>
      </trkpt>
      <trkpt lat="41.082067" lon="-3.707183">
        <ele>1837.0</ele>
        <time>2017-09-30T12:28:00Z</time>
      </trkpt>
      <trkpt lat="41.082117" lon="-3.707067">
        <ele>1838.0</ele>
        <time>2017-09-30T12:28:01Z</time>
      </trkpt>
      <trkpt lat="41.082150" lon="-3.706933">
        <ele>1837.0</ele>
        <time>2017-09-30T12:28:02Z</time>
      </trkpt>
      <trkpt lat="41.082183" lon="-3.706783">
        <ele>1836.0</ele>
        <time>2017-09-30T12:28:03Z</time>
      </trkpt>
      <trkpt lat="41.082200" lon="-3.706633">
        <ele>1833.0</ele>
        <time>2017-09-30T12:28:04Z</time>
      </trkpt>
      <trkpt lat="41.082217" lon="-3.706450">
        <ele>1830.0</ele>
        <time>2017-09-30T12:28:05Z</time>
      </trkpt>
      <trkpt lat="41.082233" lon="-3.706267">
        <ele>1830.0</ele>
        <time>2017-09-30T12:28:06Z</time>
      </trkpt>
      <trkpt lat="41.082250" lon="-3.706100">
        <ele>1830.0</ele>
        <time>2017-09-30T12:28:07Z</time>
      </trkpt>
      <trkpt lat="41.082267" lon="-3.705967">
        <ele>1830.0</ele>
        <time>2017-09-30T12:28:08Z</time>
      </trkpt>
      <trkpt lat="41.082317" lon="-3.705850">
        <ele>1828.0</ele>
        <time>2017-09-30T12:28:09Z</time>
      </trkpt>
      <trkpt lat="41.082383" lon="-3.705750">
        <ele>1825.0</ele>
        <time>2017-09-30T12:28:10Z</time>
      </trkpt>
      <trkpt lat="41.082467" lon="-3.705650">
        <ele>1823.0</ele>
        <time>2017-09-30T12:28:11Z</time>
      </trkpt>
      <trkpt lat="41.082550" lon="-3.705600">
        <ele>1822.0</ele>
        <time>2017-09-30T12:28:12Z</time>
      </trkpt>
      <trkpt lat="41.082633" lon="-3.705550">
        <ele>1821.0</ele>
        <time>2017-09-30T12:28:13Z</time>
      </trkpt>
      <trkpt lat="41.082700" lon="-3.705500">
        <ele>1819.0</ele>
        <time>2017-09-30T12:28:14Z</time>
      </trkpt>
      <trkpt lat="41.082767" lon="-3.705450">
        <ele>1817.0</ele>
        <time>2017-09-30T12:28:15Z</time>
      </trkpt>
      <trkpt lat="41.082867" lon="-3.705400">
        <ele>1815.0</ele>
        <time>2017-09-30T12:28:16Z</time>
      </trkpt>
      <trkpt lat="41.082950" lon="-3.705367">
        <ele>1813.0</ele>
        <time>2017-09-30T12:28:17Z</time>
      </trkpt>
      <trkpt lat="41.083033" lon="-3.705350">
        <ele>1813.0</ele>
        <time>2017-09-30T12:28:18Z</time>
      </trkpt>
      <trkpt lat="41.083083" lon="-3.705350">
        <ele>1813.0</ele>
        <time>2017-09-30T12:28:19Z</time>
      </trkpt>
      <trkpt lat="41.083150" lon="-3.705350">
        <ele>1812.0</ele>
        <time>2017-09-30T12:28:20Z</time>
      </trkpt>
      <trkpt lat="41.083200" lon="-3.705367">
        <ele>1812.0</ele>
        <time>2017-09-30T12:28:21Z</time>
      </trkpt>
      <trkpt lat="41.083250" lon="-3.705383">
        <ele>1811.0</ele>
        <time>2017-09-30T12:28:22Z</time>
      </trkpt>
      <trkpt lat="41.083300" lon="-3.705383">
        <ele>1810.0</ele>
        <time>2017-09-30T12:28:23Z</time>
      </trkpt>
      <trkpt lat="41.083350" lon="-3.705417">
        <ele>1808.0</ele>
        <time>2017-09-30T12:28:24Z</time>
      </trkpt>
      <trkpt lat="41.083400" lon="-3.705433">
        <ele>1805.0</ele>
        <time>2017-09-30T12:28:25Z</time>
      </trkpt>
      <trkpt lat="41.083467" lon="-3.705450">
        <ele>1803.0</ele>
        <time>2017-09-30T12:28:26Z</time>
      </trkpt>
      <trkpt lat="41.083517" lon="-3.705467">
        <ele>1801.0</ele>
        <time>2017-09-30T12:28:27Z</time>
      </trkpt>
      <trkpt lat="41.083583" lon="-3.705483">
        <ele>1798.0</ele>
        <time>2017-09-30T12:28:28Z</time>
      </trkpt>
      <trkpt lat="41.083650" lon="-3.705483">
        <ele>1797.0</ele>
        <time>2017-09-30T12:28:29Z</time>
      </trkpt>
      <trkpt lat="41.083717" lon="-3.705483">
        <ele>1796.0</ele>
        <time>2017-09-30T12:28:30Z</time>
      </trkpt>
      <trkpt lat="41.083767" lon="-3.705517">
        <ele>1794.0</ele>
        <time>2017-09-30T12:28:31Z</time>
      </trkpt>
      <trkpt lat="41.083817" lon="-3.705567">
        <ele>1792.0</ele>
        <time>2017-09-30T12:28:32Z</time>
      </trkpt>
      <trkpt lat="41.083850" lon="-3.705617">
        <ele>1790.0</ele>
        <time>2017-09-30T12:28:33Z</time>
      </trkpt>
      <trkpt lat="41.083900" lon="-3.705650">
        <ele>1788.0</ele>
        <time>2017-09-30T12:28:34Z</time>
      </trkpt>
      <trkpt lat="41.083950" lon="-3.705700">
        <ele>1787.0</ele>
        <time>2017-09-30T12:28:35Z</time>
      </trkpt>
      <trkpt lat="41.083983" lon="-3.705750">
        <ele>1787.0</ele>
        <time>2017-09-30T12:28:36Z</time>
      </trkpt>
      <trkpt lat="41.084017" lon="-3.705800">
        <ele>1785.0</ele>
        <time>2017-09-30T12:28:37Z</time>
      </trkpt>
      <trkpt lat="41.084033" lon="-3.705833">
        <ele>1784.0</ele>
        <time>2017-09-30T12:28:38Z</time>
      </trkpt>
      <trkpt lat="41.084083" lon="-3.705883">
        <ele>1782.0</ele>
        <time>2017-09-30T12:28:39Z</time>
      </trkpt>
      <trkpt lat="41.084133" lon="-3.705917">
        <ele>1780.0</ele>
        <time>2017-09-30T12:28:40Z</time>
      </trkpt>
      <trkpt lat="41.084167" lon="-3.705967">
        <ele>1779.0</ele>
        <time>2017-09-30T12:28:41Z</time>
      </trkpt>
      <trkpt lat="41.084217" lon="-3.706000">
        <ele>1777.0</ele>
        <time>2017-09-30T12:28:42Z</time>
      </trkpt>
      <trkpt lat="41.084250" lon="-3.706050">
        <ele>1776.0</ele>
        <time>2017-09-30T12:28:43Z</time>
      </trkpt>
      <trkpt lat="41.084283" lon="-3.706067">
        <ele>1774.0</ele>
        <time>2017-09-30T12:28:44Z</time>
      </trkpt>
      <trkpt lat="41.084333" lon="-3.706100">
        <ele>1771.0</ele>
        <time>2017-09-30T12:28:45Z</time>
      </trkpt>
      <trkpt lat="41.084383" lon="-3.706117">
        <ele>1768.0</ele>
        <time>2017-09-30T12:28:46Z</time>
      </trkpt>
      <trkpt lat="41.084450" lon="-3.706150">
        <ele>1766.0</ele>
        <time>2017-09-30T12:28:47Z</time>
      </trkpt>
      <trkpt lat="41.084500" lon="-3.706167">
        <ele>1763.0</ele>
        <time>2017-09-30T12:28:48Z</time>
      </trkpt>
      <trkpt lat="41.084550" lon="-3.706200">
        <ele>1760.0</ele>
        <time>2017-09-30T12:28:49Z</time>
      </trkpt>
      <trkpt lat="41.084617" lon="-3.706233">
        <ele>1758.0</ele>
        <time>2017-09-30T12:28:50Z</time>
      </trkpt>
      <trkpt lat="41.084667" lon="-3.706250">
        <ele>1757.0</ele>
        <time>2017-09-30T12:28:51Z</time>
      </trkpt>
      <trkpt lat="41.084733" lon="-3.706283">
        <ele>1756.0</ele>
        <time>2017-09-30T12:28:52Z</time>
      </trkpt>
      <trkpt lat="41.084783" lon="-3.706300">
        <ele>1756.0</ele>
        <time>2017-09-30T12:28:53Z</time>
      </trkpt>
      <trkpt lat="41.084850" lon="-3.706333">
        <ele>1755.0</ele>
        <time>2017-09-30T12:28:54Z</time>
      </trkpt>
      <trkpt lat="41.084900" lon="-3.706367">
        <ele>1755.0</ele>
        <time>2017-09-30T12:28:55Z</time>
      </trkpt>
      <trkpt lat="41.084950" lon="-3.706383">
        <ele>1755.0</ele>
        <time>2017-09-30T12:28:56Z</time>
      </trkpt>
      <trkpt lat="41.085000" lon="-3.706417">
        <ele>1754.0</ele>
        <time>2017-09-30T12:28:57Z</time>
      </trkpt>
      <trkpt lat="41.085067" lon="-3.706450">
        <ele>1754.0</ele>
        <time>2017-09-30T12:28:58Z</time>
      </trkpt>
      <trkpt lat="41.085117" lon="-3.706483">
        <ele>1754.0</ele>
        <time>2017-09-30T12:28:59Z</time>
      </trkpt>
      <trkpt lat="41.085167" lon="-3.706500">
        <ele>1754.0</ele>
        <time>2017-09-30T12:29:00Z</time>
      </trkpt>
      <trkpt lat="41.085233" lon="-3.706517">
        <ele>1755.0</ele>
        <time>2017-09-30T12:29:01Z</time>
      </trkpt>
      <trkpt lat="41.085317" lon="-3.706517">
        <ele>1756.0</ele>
        <time>2017-09-30T12:29:02Z</time>
      </trkpt>
      <trkpt lat="41.085383" lon="-3.706517">
        <ele>1756.0</ele>
        <time>2017-09-30T12:29:03Z</time>
      </trkpt>
      <trkpt lat="41.085467" lon="-3.706500">
        <ele>1757.0</ele>
        <time>2017-09-30T12:29:04Z</time>
      </trkpt>
      <trkpt lat="41.085550" lon="-3.706450">
        <ele>1757.0</ele>
        <time>2017-09-30T12:29:05Z</time>
      </trkpt>
      <trkpt lat="41.085633" lon="-3.706383">
        <ele>1757.0</ele>
        <time>2017-09-30T12:29:06Z</time>
      </trkpt>
      <trkpt lat="41.085700" lon="-3.706250">
        <ele>1757.0</ele>
        <time>2017-09-30T12:29:07Z</time>
      </trkpt>
      <trkpt lat="41.085750" lon="-3.706100">
        <ele>1755.0</ele>
        <time>2017-09-30T12:29:08Z</time>
      </trkpt>
      <trkpt lat="41.085767" lon="-3.705917">
        <ele>1755.0</ele>
        <time>2017-09-30T12:29:09Z</time>
      </trkpt>
      <trkpt lat="41.085750" lon="-3.705750">
        <ele>1755.0</ele>
        <time>2017-09-30T12:29:10Z</time>
      </trkpt>
      <trkpt lat="41.085717" lon="-3.705600">
        <ele>1755.0</ele>
        <time>2017-09-30T12:29:11Z</time>
      </trkpt>
      <trkpt lat="41.085667" lon="-3.705467">
        <ele>1754.0</ele>
        <time>2017-09-30T12:29:12Z</time>
      </trkpt>
      <trkpt lat="41.085583" lon="-3.705367">
        <ele>1753.0</ele>
        <time>2017-09-30T12:29:13Z</time>
      </trkpt>
      <trkpt lat="41.085500" lon="-3.705317">
        <ele>1752.0</ele>
        <time>2017-09-30T12:29:14Z</time>
      </trkpt>
      <trkpt lat="41.085417" lon="-3.705300">
        <ele>1750.0</ele>
        <time>2017-09-30T12:29:15Z</time>
      </trkpt>
      <trkpt lat="41.085350" lon="-3.705333">
        <ele>1748.0</ele>
        <time>2017-09-30T12:29:16Z</time>
      </trkpt>
      <trkpt lat="41.085300" lon="-3.705400">
        <ele>1748.0</ele>
        <time>2017-09-30T12:29:17Z</time>
      </trkpt>
      <trkpt lat="41.085283" lon="-3.705467">
        <ele>1750.0</ele>
        <time>2017-09-30T12:29:18Z</time>
      </trkpt>
      <trkpt lat="41.085300" lon="-3.705517">
        <ele>1753.0</ele>
        <time>2017-09-30T12:29:19Z</time>
      </trkpt>
      <trkpt lat="41.085317" lon="-3.705550">
        <ele>1754.0</ele>
        <time>2017-09-30T12:29:20Z</time>
      </trkpt>
      <trkpt lat="41.085350" lon="-3.705583">
        <ele>1755.0</ele>
        <time>2017-09-30T12:29:21Z</time>
      </trkpt>
      <trkpt lat="41.085383" lon="-3.705617">
        <ele>1755.0</ele>
        <time>2017-09-30T12:29:22Z</time>
      </trkpt>
      <trkpt lat="41.085417" lon="-3.705667">
        <ele>1754.0</ele>
        <time>2017-09-30T12:29:23Z</time>
      </trkpt>
      <trkpt lat="41.085483" lon="-3.705700">
        <ele>1754.0</ele>
        <time>2017-09-30T12:29:24Z</time>
      </trkpt>
      <trkpt lat="41.085550" lon="-3.705750">
        <ele>1753.0</ele>
        <time>2017-09-30T12:29:25Z</time>
      </trkpt>
      <trkpt lat="41.085600" lon="-3.705783">
        <ele>1753.0</ele>
        <time>2017-09-30T12:29:26Z</time>
      </trkpt>
      <trkpt lat="41.085650" lon="-3.705817">
        <ele>1754.0</ele>
        <time>2017-09-30T12:29:27Z</time>
      </trkpt>
      <trkpt lat="41.085683" lon="-3.705850">
        <ele>1755.0</ele>
        <time>2017-09-30T12:29:28Z</time>
      </trkpt>
      <trkpt lat="41.085717" lon="-3.705883">
        <ele>1754.0</ele>
        <time>2017-09-30T12:29:29Z</time>
      </trkpt>
      <trkpt lat="41.085767" lon="-3.705900">
        <ele>1753.0</ele>
        <time>2017-09-30T12:29:30Z</time>
      </trkpt>
      <trkpt lat="41.085817" lon="-3.705933">
        <ele>1752.0</ele>
        <time>2017-09-30T12:29:31Z</time>
      </trkpt>
      <trkpt lat="41.085867" lon="-3.705967">
        <ele>1750.0</ele>
        <time>2017-09-30T12:29:32Z</time>
      </trkpt>
      <trkpt lat="41.085900" lon="-3.706017">
        <ele>1749.0</ele>
        <time>2017-09-30T12:29:33Z</time>
      </trkpt>
      <trkpt lat="41.085933" lon="-3.706050">
        <ele>1747.0</ele>
        <time>2017-09-30T12:29:34Z</time>
      </trkpt>
      <trkpt lat="41.085967" lon="-3.706083">
        <ele>1746.0</ele>
        <time>2017-09-30T12:29:35Z</time>
      </trkpt>
      <trkpt lat="41.086017" lon="-3.706100">
        <ele>1744.0</ele>
        <time>2017-09-30T12:29:36Z</time>
      </trkpt>
      <trkpt lat="41.086050" lon="-3.706117">
        <ele>1742.0</ele>
        <time>2017-09-30T12:29:37Z</time>
      </trkpt>
      <trkpt lat="41.086100" lon="-3.706117">
        <ele>1739.0</ele>
        <time>2017-09-30T12:29:38Z</time>
      </trkpt>
      <trkpt lat="41.086167" lon="-3.706133">
        <ele>1737.0</ele>
        <time>2017-09-30T12:29:39Z</time>
      </trkpt>
      <trkpt lat="41.086217" lon="-3.706167">
        <ele>1734.0</ele>
        <time>2017-09-30T12:29:40Z</time>
      </trkpt>
      <trkpt lat="41.086267" lon="-3.706183">
        <ele>1732.0</ele>
        <time>2017-09-30T12:29:41Z</time>
      </trkpt>
      <trkpt lat="41.086333" lon="-3.706200">
        <ele>1731.0</ele>
        <time>2017-09-30T12:29:42Z</time>
      </trkpt>
      <trkpt lat="41.086383" lon="-3.706200">
        <ele>1730.0</ele>
        <time>2017-09-30T12:29:43Z</time>
      </trkpt>
      <trkpt lat="41.086433" lon="-3.706217">
        <ele>1728.0</ele>
        <time>2017-09-30T12:29:44Z</time>
      </trkpt>
      <trkpt lat="41.086500" lon="-3.706233">
        <ele>1726.0</ele>
        <time>2017-09-30T12:29:45Z</time>
      </trkpt>
      <trkpt lat="41.086550" lon="-3.706233">
        <ele>1723.0</ele>
        <time>2017-09-30T12:29:46Z</time>
      </trkpt>
      <trkpt lat="41.086617" lon="-3.706250">
        <ele>1721.0</ele>
        <time>2017-09-30T12:29:47Z</time>
      </trkpt>
      <trkpt lat="41.086700" lon="-3.706250">
        <ele>1719.0</ele>
        <time>2017-09-30T12:29:48Z</time>
      </trkpt>
      <trkpt lat="41.086767" lon="-3.706250">
        <ele>1718.0</ele>
        <time>2017-09-30T12:29:49Z</time>
      </trkpt>
      <trkpt lat="41.086833" lon="-3.706250">
        <ele>1717.0</ele>
        <time>2017-09-30T12:29:50Z</time>
      </trkpt>
      <trkpt lat="41.086900" lon="-3.706250">
        <ele>1716.0</ele>
        <time>2017-09-30T12:29:51Z</time>
      </trkpt>
      <trkpt lat="41.086967" lon="-3.706250">
        <ele>1714.0</ele>
        <time>2017-09-30T12:29:52Z</time>
      </trkpt>
      <trkpt lat="41.087033" lon="-3.706250">
        <ele>1712.0</ele>
        <time>2017-09-30T12:29:53Z</time>
      </trkpt>
      <trkpt lat="41.087100" lon="-3.706250">
        <ele>1710.0</ele>
        <time>2017-09-30T12:29:54Z</time>
      </trkpt>
      <trkpt lat="41.087167" lon="-3.706250">
        <ele>1708.0</ele>
        <time>2017-09-30T12:29:55Z</time>
      </trkpt>
      <trkpt lat="41.087233" lon="-3.706233">
        <ele>1707.0</ele>
        <time>2017-09-30T12:29:56Z</time>
      </trkpt>
      <trkpt lat="41.087300" lon="-3.706233">
        <ele>1705.0</ele>
        <time>2017-09-30T12:29:57Z</time>
      </trkpt>
      <trkpt lat="41.087367" lon="-3.706233">
        <ele>1703.0</ele>
        <time>2017-09-30T12:29:58Z</time>
      </trkpt>
      <trkpt lat="41.087433" lon="-3.706233">
        <ele>1701.0</ele>
        <time>2017-09-30T12:29:59Z</time>
      </trkpt>
      <trkpt lat="41.087500" lon="-3.706233">
        <ele>1699.0</ele>
        <time>2017-09-30T12:30:00Z</time>
      </trkpt>
      <trkpt lat="41.087583" lon="-3.706217">
        <ele>1697.0</ele>
        <time>2017-09-30T12:30:01Z</time>
      </trkpt>
      <trkpt lat="41.087650" lon="-3.706217">
        <ele>1696.0</ele>
        <time>2017-09-30T12:30:02Z</time>
      </trkpt>
      <trkpt lat="41.087717" lon="-3.706217">
        <ele>1694.0</ele>
        <time>2017-09-30T12:30:03Z</time>
      </trkpt>
      <trkpt lat="41.087800" lon="-3.706217">
        <ele>1692.0</ele>
        <time>2017-09-30T12:30:04Z</time>
      </trkpt>
      <trkpt lat="41.087867" lon="-3.706217">
        <ele>1690.0</ele>
        <time>2017-09-30T12:30:05Z</time>
      </trkpt>
      <trkpt lat="41.087950" lon="-3.706200">
        <ele>1688.0</ele>
        <time>2017-09-30T12:30:06Z</time>
      </trkpt>
      <trkpt lat="41.088033" lon="-3.706200">
        <ele>1686.0</ele>
        <time>2017-09-30T12:30:07Z</time>
      </trkpt>
      <trkpt lat="41.088117" lon="-3.706200">
        <ele>1684.0</ele>
        <time>2017-09-30T12:30:08Z</time>
      </trkpt>
      <trkpt lat="41.088200" lon="-3.706200">
        <ele>1683.0</ele>
        <time>2017-09-30T12:30:09Z</time>
      </trkpt>
      <trkpt lat="41.088267" lon="-3.706183">
        <ele>1682.0</ele>
        <time>2017-09-30T12:30:10Z</time>
      </trkpt>
      <trkpt lat="41.088350" lon="-3.706150">
        <ele>1680.0</ele>
        <time>2017-09-30T12:30:11Z</time>
      </trkpt>
      <trkpt lat="41.088433" lon="-3.706133">
        <ele>1677.0</ele>
        <time>2017-09-30T12:30:12Z</time>
      </trkpt>
      <trkpt lat="41.088517" lon="-3.706117">
        <ele>1675.0</ele>
        <time>2017-09-30T12:30:13Z</time>
      </trkpt>
      <trkpt lat="41.088600" lon="-3.706100">
        <ele>1673.0</ele>
        <time>2017-09-30T12:30:14Z</time>
      </trkpt>
      <trkpt lat="41.088700" lon="-3.706067">
        <ele>1671.0</ele>
        <time>2017-09-30T12:30:15Z</time>
      </trkpt>
      <trkpt lat="41.088783" lon="-3.706050">
        <ele>1669.0</ele>
        <time>2017-09-30T12:30:16Z</time>
      </trkpt>
      <trkpt lat="41.088850" lon="-3.706017">
        <ele>1666.0</ele>
        <time>2017-09-30T12:30:17Z</time>
      </trkpt>
      <trkpt lat="41.088933" lon="-3.705983">
        <ele>1664.0</ele>
        <time>2017-09-30T12:30:18Z</time>
      </trkpt>
      <trkpt lat="41.089017" lon="-3.705967">
        <ele>1661.0</ele>
        <time>2017-09-30T12:30:19Z</time>
      </trkpt>
      <trkpt lat="41.089100" lon="-3.705950">
        <ele>1657.0</ele>
        <time>2017-09-30T12:30:20Z</time>
      </trkpt>
      <trkpt lat="41.089183" lon="-3.705917">
        <ele>1654.0</ele>
        <time>2017-09-30T12:30:21Z</time>
      </trkpt>
      <trkpt lat="41.089283" lon="-3.705900">
        <ele>1651.0</ele>
        <time>2017-09-30T12:30:22Z</time>
      </trkpt>
      <trkpt lat="41.089367" lon="-3.705883">
        <ele>1648.0</ele>
        <time>2017-09-30T12:30:23Z</time>
      </trkpt>
      <trkpt lat="41.089450" lon="-3.705867">
        <ele>1646.0</ele>
        <time>2017-09-30T12:30:24Z</time>
      </trkpt>
      <trkpt lat="41.089533" lon="-3.705850">
        <ele>1643.0</ele>
        <time>2017-09-30T12:30:25Z</time>
      </trkpt>
      <trkpt lat="41.089617" lon="-3.705817">
        <ele>1641.0</ele>
        <time>2017-09-30T12:30:26Z</time>
      </trkpt>
      <trkpt lat="41.089717" lon="-3.705800">
        <ele>1638.0</ele>
        <time>2017-09-30T12:30:27Z</time>
      </trkpt>
      <trkpt lat="41.089800" lon="-3.705783">
        <ele>1636.0</ele>
        <time>2017-09-30T12:30:28Z</time>
      </trkpt>
      <trkpt lat="41.089883" lon="-3.705783">
        <ele>1633.0</ele>
        <time>2017-09-30T12:30:29Z</time>
      </trkpt>
      <trkpt lat="41.089967" lon="-3.705783">
        <ele>1631.0</ele>
        <time>2017-09-30T12:30:30Z</time>
      </trkpt>
      <trkpt lat="41.090050" lon="-3.705783">
        <ele>1628.0</ele>
        <time>2017-09-30T12:30:31Z</time>
      </trkpt>
      <trkpt lat="41.090133" lon="-3.705783">
        <ele>1627.0</ele>
        <time>2017-09-30T12:30:32Z</time>
      </trkpt>
      <trkpt lat="41.090217" lon="-3.705783">
        <ele>1625.0</ele>
        <time>2017-09-30T12:30:33Z</time>
      </trkpt>
      <trkpt lat="41.090300" lon="-3.705767">
        <ele>1623.0</ele>
        <time>2017-09-30T12:30:34Z</time>
      </trkpt>
      <trkpt lat="41.090383" lon="-3.705767">
        <ele>1620.0</ele>
        <time>2017-09-30T12:30:35Z</time>
      </trkpt>
      <trkpt lat="41.090467" lon="-3.705767">
        <ele>1618.0</ele>
        <time>2017-09-30T12:30:36Z</time>
      </trkpt>
      <trkpt lat="41.090550" lon="-3.705767">
        <ele>1616.0</ele>
        <time>2017-09-30T12:30:37Z</time>
      </trkpt>
      <trkpt lat="41.090633" lon="-3.705767">
        <ele>1614.0</ele>
        <time>2017-09-30T12:30:38Z</time>
      </trkpt>
      <trkpt lat="41.090717" lon="-3.705750">
        <ele>1612.0</ele>
        <time>2017-09-30T12:30:39Z</time>
      </trkpt>
      <trkpt lat="41.090783" lon="-3.705733">
        <ele>1610.0</ele>
        <time>2017-09-30T12:30:40Z</time>
      </trkpt>
      <trkpt lat="41.090867" lon="-3.705733">
        <ele>1607.0</ele>
        <time>2017-09-30T12:30:41Z</time>
      </trkpt>
      <trkpt lat="41.090950" lon="-3.705733">
        <ele>1605.0</ele>
        <time>2017-09-30T12:30:42Z</time>
      </trkpt>
      <trkpt lat="41.091017" lon="-3.705750">
        <ele>1603.0</ele>
        <time>2017-09-30T12:30:43Z</time>
      </trkpt>
      <trkpt lat="41.091100" lon="-3.705750">
        <ele>1602.0</ele>
        <time>2017-09-30T12:30:44Z</time>
      </trkpt>
      <trkpt lat="41.091183" lon="-3.705750">
        <ele>1600.0</ele>
        <time>2017-09-30T12:30:45Z</time>
      </trkpt>
      <trkpt lat="41.091267" lon="-3.705750">
        <ele>1598.0</ele>
        <time>2017-09-30T12:30:46Z</time>
      </trkpt>
      <trkpt lat="41.091350" lon="-3.705750">
        <ele>1596.0</ele>
        <time>2017-09-30T12:30:47Z</time>
      </trkpt>
      <trkpt lat="41.091417" lon="-3.705750">
        <ele>1594.0</ele>
        <time>2017-09-30T12:30:48Z</time>
      </trkpt>
      <trkpt lat="41.091500" lon="-3.705767">
        <ele>1591.0</ele>
        <time>2017-09-30T12:30:49Z</time>
      </trkpt>
      <trkpt lat="41.091600" lon="-3.705767">
        <ele>1589.0</ele>
        <time>2017-09-30T12:30:50Z</time>
      </trkpt>
      <trkpt lat="41.091683" lon="-3.705750">
        <ele>1587.0</ele>
        <time>2017-09-30T12:30:51Z</time>
      </trkpt>
      <trkpt lat="41.091783" lon="-3.705733">
        <ele>1586.0</ele>
        <time>2017-09-30T12:30:52Z</time>
      </trkpt>
      <trkpt lat="41.091867" lon="-3.705733">
        <ele>1585.0</ele>
        <time>2017-09-30T12:30:53Z</time>
      </trkpt>
      <trkpt lat="41.091950" lon="-3.705733">
        <ele>1583.0</ele>
        <time>2017-09-30T12:30:54Z</time>
      </trkpt>
      <trkpt lat="41.092033" lon="-3.705733">
        <ele>1582.0</ele>
        <time>2017-09-30T12:30:55Z</time>
      </trkpt>
      <trkpt lat="41.092100" lon="-3.705733">
        <ele>1581.0</ele>
        <time>2017-09-30T12:30:56Z</time>
      </trkpt>
      <trkpt lat="41.092183" lon="-3.705733">
        <ele>1579.0</ele>
        <time>2017-09-30T12:30:57Z</time>
      </trkpt>
      <trkpt lat="41.092267" lon="-3.705717">
        <ele>1578.0</ele>
        <time>2017-09-30T12:30:58Z</time>
      </trkpt>
      <trkpt lat="41.092350" lon="-3.705717">
        <ele>1576.0</ele>
        <time>2017-09-30T12:30:59Z</time>
      </trkpt>
      <trkpt lat="41.092433" lon="-3.705717">
        <ele>1575.0</ele>
        <time>2017-09-30T12:31:00Z</time>
      </trkpt>
      <trkpt lat="41.092517" lon="-3.705717">
        <ele>1573.0</ele>
        <time>2017-09-30T12:31:01Z</time>
      </trkpt>
      <trkpt lat="41.092600" lon="-3.705717">
        <ele>1572.0</ele>
        <time>2017-09-30T12:31:02Z</time>
      </trkpt>
      <trkpt lat="41.092683" lon="-3.705717">
        <ele>1570.0</ele>
        <time>2017-09-30T12:31:03Z</time>
      </trkpt>
      <trkpt lat="41.092767" lon="-3.705717">
        <ele>1568.0</ele>
        <time>2017-09-30T12:31:04Z</time>
      </trkpt>
      <trkpt lat="41.092867" lon="-3.705717">
        <ele>1566.0</ele>
        <time>2017-09-30T12:31:05Z</time>
      </trkpt>
      <trkpt lat="41.092950" lon="-3.705717">
        <ele>1564.0</ele>
        <time>2017-09-30T12:31:06Z</time>
      </trkpt>
      <trkpt lat="41.093033" lon="-3.705717">
        <ele>1561.0</ele>
        <time>2017-09-30T12:31:07Z</time>
      </trkpt>
      <trkpt lat="41.093133" lon="-3.705717">
        <ele>1558.0</ele>
        <time>2017-09-30T12:31:08Z</time>
      </trkpt>
      <trkpt lat="41.093217" lon="-3.705733">
        <ele>1556.0</ele>
        <time>2017-09-30T12:31:09Z</time>
      </trkpt>
      <trkpt lat="41.093300" lon="-3.705750">
        <ele>1554.0</ele>
        <time>2017-09-30T12:31:10Z</time>
      </trkpt>
      <trkpt lat="41.093383" lon="-3.705750">
        <ele>1552.0</ele>
        <time>2017-09-30T12:31:11Z</time>
      </trkpt>
      <trkpt lat="41.093467" lon="-3.705767">
        <ele>1549.0</ele>
        <time>2017-09-30T12:31:12Z</time>
      </trkpt>
      <trkpt lat="41.093533" lon="-3.705783">
        <ele>1547.0</ele>
        <time>2017-09-30T12:31:13Z</time>
      </trkpt>
      <trkpt lat="41.093617" lon="-3.705817">
        <ele>1544.0</ele>
        <time>2017-09-30T12:31:14Z</time>
      </trkpt>
      <trkpt lat="41.093717" lon="-3.705833">
        <ele>1541.0</ele>
        <time>2017-09-30T12:31:15Z</time>
      </trkpt>
      <trkpt lat="41.093800" lon="-3.705850">
        <ele>1539.0</ele>
        <time>2017-09-30T12:31:16Z</time>
      </trkpt>
      <trkpt lat="41.093883" lon="-3.705867">
        <ele>1536.0</ele>
        <time>2017-09-30T12:31:17Z</time>
      </trkpt>
      <trkpt lat="41.093967" lon="-3.705883">
        <ele>1535.0</ele>
        <time>2017-09-30T12:31:18Z</time>
      </trkpt>
      <trkpt lat="41.094033" lon="-3.705900">
        <ele>1533.0</ele>
        <time>2017-09-30T12:31:19Z</time>
      </trkpt>
      <trkpt lat="41.094117" lon="-3.705900">
        <ele>1532.0</ele>
        <time>2017-09-30T12:31:20Z</time>
      </trkpt>
      <trkpt lat="41.094200" lon="-3.705900">
        <ele>1529.0</ele>
        <time>2017-09-30T12:31:21Z</time>
      </trkpt>
      <trkpt lat="41.094283" lon="-3.705917">
        <ele>1527.0</ele>
        <time>2017-09-30T12:31:22Z</time>
      </trkpt>
      <trkpt lat="41.094383" lon="-3.705917">
        <ele>1526.0</ele>
        <time>2017-09-30T12:31:23Z</time>
      </trkpt>
      <trkpt lat="41.094467" lon="-3.705933">
        <ele>1525.0</ele>
        <time>2017-09-30T12:31:24Z</time>
      </trkpt>
      <trkpt lat="41.094550" lon="-3.705933">
        <ele>1525.0</ele>
        <time>2017-09-30T12:31:25Z</time>
      </trkpt>
      <trkpt lat="41.094633" lon="-3.705917">
        <ele>1525.0</ele>
        <time>2017-09-30T12:31:26Z</time>
      </trkpt>
      <trkpt lat="41.094700" lon="-3.705917">
        <ele>1525.0</ele>
        <time>2017-09-30T12:31:27Z</time>
      </trkpt>
      <trkpt lat="41.094767" lon="-3.705933">
        <ele>1525.0</ele>
        <time>2017-09-30T12:31:28Z</time>
      </trkpt>
      <trkpt lat="41.094833" lon="-3.705950">
        <ele>1525.0</ele>
        <time>2017-09-30T12:31:29Z</time>
      </trkpt>
      <trkpt lat="41.094883" lon="-3.705983">
        <ele>1527.0</ele>
        <time>2017-09-30T12:31:30Z</time>
      </trkpt>
      <trkpt lat="41.094933" lon="-3.706017">
        <ele>1530.0</ele>
        <time>2017-09-30T12:31:31Z</time>
      </trkpt>
      <trkpt lat="41.094983" lon="-3.706033">
        <ele>1532.0</ele>
        <time>2017-09-30T12:31:32Z</time>
      </trkpt>
      <trkpt lat="41.095000" lon="-3.706067">
        <ele>1534.0</ele>
        <time>2017-09-30T12:31:33Z</time>
      </trkpt>
      <trkpt lat="41.095033" lon="-3.706100">
        <ele>1535.0</ele>
        <time>2017-09-30T12:31:34Z</time>
      </trkpt>
      <trkpt lat="41.095083" lon="-3.706133">
        <ele>1535.0</ele>
        <time>2017-09-30T12:31:35Z</time>
      </trkpt>
      <trkpt lat="41.095133" lon="-3.706150">
        <ele>1535.0</ele>
        <time>2017-09-30T12:31:36Z</time>
      </trkpt>
      <trkpt lat="41.095183" lon="-3.706167">
        <ele>1536.0</ele>
        <time>2017-09-30T12:31:37Z</time>
      </trkpt>
      <trkpt lat="41.095233" lon="-3.706183">
        <ele>1537.0</ele>
        <time>2017-09-30T12:31:38Z</time>
      </trkpt>
      <trkpt lat="41.095283" lon="-3.706200">
        <ele>1537.0</ele>
        <time>2017-09-30T12:31:39Z</time>
      </trkpt>
      <trkpt lat="41.095317" lon="-3.706200">
        <ele>1537.0</ele>
        <time>2017-09-30T12:31:40Z</time>
      </trkpt>
      <trkpt lat="41.095383" lon="-3.706200">
        <ele>1536.0</ele>
        <time>2017-09-30T12:31:41Z</time>
      </trkpt>
      <trkpt lat="41.095450" lon="-3.706167">
        <ele>1535.0</ele>
        <time>2017-09-30T12:31:42Z</time>
      </trkpt>
      <trkpt lat="41.095533" lon="-3.706117">
        <ele>1534.0</ele>
        <time>2017-09-30T12:31:43Z</time>
      </trkpt>
      <trkpt lat="41.095600" lon="-3.706017">
        <ele>1533.0</ele>
        <time>2017-09-30T12:31:44Z</time>
      </trkpt>
      <trkpt lat="41.095667" lon="-3.705900">
        <ele>1533.0</ele>
        <time>2017-09-30T12:31:45Z</time>
      </trkpt>
      <trkpt lat="41.095733" lon="-3.705800">
        <ele>1533.0</ele>
        <time>2017-09-30T12:31:46Z</time>
      </trkpt>
      <trkpt lat="41.095783" lon="-3.705683">
        <ele>1533.0</ele>
        <time>2017-09-30T12:31:47Z</time>
      </trkpt>
      <trkpt lat="41.095833" lon="-3.705567">
        <ele>1533.0</ele>
        <time>2017-09-30T12:31:48Z</time>
      </trkpt>
      <trkpt lat="41.095867" lon="-3.705417">
        <ele>1531.0</ele>
        <time>2017-09-30T12:31:49Z</time>
      </trkpt>
      <trkpt lat="41.095883" lon="-3.705250">
        <ele>1529.0</ele>
        <time>2017-09-30T12:31:50Z</time>
      </trkpt>
      <trkpt lat="41.095867" lon="-3.705067">
        <ele>1528.0</ele>
        <time>2017-09-30T12:31:51Z</time>
      </trkpt>
      <trkpt lat="41.095800" lon="-3.704917">
        <ele>1529.0</ele>
        <time>2017-09-30T12:31:52Z</time>
      </trkpt>
      <trkpt lat="41.095750" lon="-3.704783">
        <ele>1531.0</ele>
        <time>2017-09-30T12:31:53Z</time>
      </trkpt>
      <trkpt lat="41.095667" lon="-3.704683">
        <ele>1533.0</ele>
        <time>2017-09-30T12:31:54Z</time>
      </trkpt>
      <trkpt lat="41.095583" lon="-3.704600">
        <ele>1534.0</ele>
        <time>2017-09-30T12:31:55Z</time>
      </trkpt>
      <trkpt lat="41.095500" lon="-3.704583">
        <ele>1534.0</ele>
        <time>2017-09-30T12:31:56Z</time>
      </trkpt>
      <trkpt lat="41.095400" lon="-3.704583">
        <ele>1535.0</ele>
        <time>2017-09-30T12:31:57Z</time>
      </trkpt>
      <trkpt lat="41.095333" lon="-3.704633">
        <ele>1536.0</ele>
        <time>2017-09-30T12:31:58Z</time>
      </trkpt>
      <trkpt lat="41.095267" lon="-3.704667">
        <ele>1538.0</ele>
        <time>2017-09-30T12:31:59Z</time>
      </trkpt>
      <trkpt lat="41.095217" lon="-3.704717">
        <ele>1540.0</ele>
        <time>2017-09-30T12:32:00Z</time>
      </trkpt>
      <trkpt lat="41.095183" lon="-3.704783">
        <ele>1541.0</ele>
        <time>2017-09-30T12:32:01Z</time>
      </trkpt>
      <trkpt lat="41.095167" lon="-3.704850">
        <ele>1542.0</ele>
        <time>2017-09-30T12:32:02Z</time>
      </trkpt>
      <trkpt lat="41.095167" lon="-3.704900">
        <ele>1543.0</ele>
        <time>2017-09-30T12:32:03Z</time>
      </trkpt>
      <trkpt lat="41.095200" lon="-3.704950">
        <ele>1543.0</ele>
        <time>2017-09-30T12:32:04Z</time>
      </trkpt>
      <trkpt lat="41.095233" lon="-3.705000">
        <ele>1542.0</ele>
        <time>2017-09-30T12:32:05Z</time>
      </trkpt>
      <trkpt lat="41.095283" lon="-3.705050">
        <ele>1542.0</ele>
        <time>2017-09-30T12:32:06Z</time>
      </trkpt>
      <trkpt lat="41.095317" lon="-3.705100">
        <ele>1542.0</ele>
        <time>2017-09-30T12:32:07Z</time>
      </trkpt>
      <trkpt lat="41.095350" lon="-3.705167">
        <ele>1543.0</ele>
        <time>2017-09-30T12:32:08Z</time>
      </trkpt>
      <trkpt lat="41.095383" lon="-3.705217">
        <ele>1543.0</ele>
        <time>2017-09-30T12:32:09Z</time>
      </trkpt>
      <trkpt lat="41.095417" lon="-3.705267">
        <ele>1544.0</ele>
        <time>2017-09-30T12:32:10Z</time>
      </trkpt>
      <trkpt lat="41.095450" lon="-3.705317">
        <ele>1544.0</ele>
        <time>2017-09-30T12:32:11Z</time>
      </trkpt>
      <trkpt lat="41.095500" lon="-3.705367">
        <ele>1544.0</ele>
        <time>2017-09-30T12:32:12Z</time>
      </trkpt>
      <trkpt lat="41.095550" lon="-3.705417">
        <ele>1544.0</ele>
        <time>2017-09-30T12:32:13Z</time>
      </trkpt>
      <trkpt lat="41.095600" lon="-3.705450">
        <ele>1543.0</ele>
        <time>2017-09-30T12:32:14Z</time>
      </trkpt>
      <trkpt lat="41.095683" lon="-3.705467">
        <ele>1543.0</ele>
        <time>2017-09-30T12:32:15Z</time>
      </trkpt>
      <trkpt lat="41.095767" lon="-3.705450">
        <ele>1543.0</ele>
        <time>2017-09-30T12:32:16Z</time>
      </trkpt>
      <trkpt lat="41.095867" lon="-3.705400">
        <ele>1543.0</ele>
        <time>2017-09-30T12:32:17Z</time>
      </trkpt>
      <trkpt lat="41.095933" lon="-3.705317">
        <ele>1542.0</ele>
        <time>2017-09-30T12:32:18Z</time>
      </trkpt>
      <trkpt lat="41.096000" lon="-3.705200">
        <ele>1540.0</ele>
        <time>2017-09-30T12:32:19Z</time>
      </trkpt>
      <trkpt lat="41.096033" lon="-3.705067">
        <ele>1537.0</ele>
        <time>2017-09-30T12:32:20Z</time>
      </trkpt>
      <trkpt lat="41.096050" lon="-3.704900">
        <ele>1535.0</ele>
        <time>2017-09-30T12:32:21Z</time>
      </trkpt>
      <trkpt lat="41.096050" lon="-3.704733">
        <ele>1532.0</ele>
        <time>2017-09-30T12:32:22Z</time>
      </trkpt>
      <trkpt lat="41.096017" lon="-3.704550">
        <ele>1530.0</ele>
        <time>2017-09-30T12:32:23Z</time>
      </trkpt>
      <trkpt lat="41.095950" lon="-3.704417">
        <ele>1529.0</ele>
        <time>2017-09-30T12:32:24Z</time>
      </trkpt>
      <trkpt lat="41.095867" lon="-3.704317">
        <ele>1529.0</ele>
        <time>2017-09-30T12:32:25Z</time>
      </trkpt>
      <trkpt lat="41.095783" lon="-3.704250">
        <ele>1528.0</ele>
        <time>2017-09-30T12:32:26Z</time>
      </trkpt>
      <trkpt lat="41.095683" lon="-3.704200">
        <ele>1528.0</ele>
        <time>2017-09-30T12:32:27Z</time>
      </trkpt>
      <trkpt lat="41.095617" lon="-3.704183">
        <ele>1528.0</ele>
        <time>2017-09-30T12:32:28Z</time>
      </trkpt>
      <trkpt lat="41.095533" lon="-3.704200">
        <ele>1528.0</ele>
        <time>2017-09-30T12:32:29Z</time>
      </trkpt>
      <trkpt lat="41.095483" lon="-3.704250">
        <ele>1526.0</ele>
        <time>2017-09-30T12:32:30Z</time>
      </trkpt>
      <trkpt lat="41.095450" lon="-3.704333">
        <ele>1525.0</ele>
        <time>2017-09-30T12:32:31Z</time>
      </trkpt>
      <trkpt lat="41.095450" lon="-3.704417">
        <ele>1526.0</ele>
        <time>2017-09-30T12:32:32Z</time>
      </trkpt>
      <trkpt lat="41.095467" lon="-3.704483">
        <ele>1527.0</ele>
        <time>2017-09-30T12:32:33Z</time>
      </trkpt>
      <trkpt lat="41.095483" lon="-3.704533">
        <ele>1528.0</ele>
        <time>2017-09-30T12:32:34Z</time>
      </trkpt>
      <trkpt lat="41.095500" lon="-3.704583">
        <ele>1528.0</ele>
        <time>2017-09-30T12:32:35Z</time>
      </trkpt>
      <trkpt lat="41.095533" lon="-3.704617">
        <ele>1528.0</ele>
        <time>2017-09-30T12:32:36Z</time>
      </trkpt>
      <trkpt lat="41.095550" lon="-3.704683">
        <ele>1527.0</ele>
        <time>2017-09-30T12:32:37Z</time>
      </trkpt>
      <trkpt lat="41.095567" lon="-3.704750">
        <ele>1526.0</ele>
        <time>2017-09-30T12:32:38Z</time>
      </trkpt>
      <trkpt lat="41.095600" lon="-3.704817">
        <ele>1525.0</ele>
        <time>2017-09-30T12:32:39Z</time>
      </trkpt>
      <trkpt lat="41.095617" lon="-3.704867">
        <ele>1526.0</ele>
        <time>2017-09-30T12:32:40Z</time>
      </trkpt>
      <trkpt lat="41.095650" lon="-3.704917">
        <ele>1527.0</ele>
        <time>2017-09-30T12:32:41Z</time>
      </trkpt>
      <trkpt lat="41.095667" lon="-3.704950">
        <ele>1527.0</ele>
        <time>2017-09-30T12:32:42Z</time>
      </trkpt>
      <trkpt lat="41.095683" lon="-3.704983">
        <ele>1527.0</ele>
        <time>2017-09-30T12:32:43Z</time>
      </trkpt>
      <trkpt lat="41.095700" lon="-3.705033">
        <ele>1526.0</ele>
        <time>2017-09-30T12:32:44Z</time>
      </trkpt>
      <trkpt lat="41.095733" lon="-3.705083">
        <ele>1524.0</ele>
        <time>2017-09-30T12:32:45Z</time>
      </trkpt>
      <trkpt lat="41.095767" lon="-3.705133">
        <ele>1522.0</ele>
        <time>2017-09-30T12:32:46Z</time>
      </trkpt>
      <trkpt lat="41.095817" lon="-3.705200">
        <ele>1522.0</ele>
        <time>2017-09-30T12:32:47Z</time>
      </trkpt>
      <trkpt lat="41.095833" lon="-3.705267">
        <ele>1522.0</ele>
        <time>2017-09-30T12:32:48Z</time>
      </trkpt>
      <trkpt lat="41.095850" lon="-3.705300">
        <ele>1523.0</ele>
        <time>2017-09-30T12:32:49Z</time>
      </trkpt>
      <trkpt lat="41.095867" lon="-3.705333">
        <ele>1522.0</ele>
        <time>2017-09-30T12:32:50Z</time>
      </trkpt>
      <trkpt lat="41.095883" lon="-3.705383">
        <ele>1520.0</ele>
        <time>2017-09-30T12:32:51Z</time>
      </trkpt>
      <trkpt lat="41.095917" lon="-3.705433">
        <ele>1517.0</ele>
        <time>2017-09-30T12:32:52Z</time>
      </trkpt>
      <trkpt lat="41.095950" lon="-3.705517">
        <ele>1516.0</ele>
        <time>2017-09-30T12:32:53Z</time>
      </trkpt>
      <trkpt lat="41.095983" lon="-3.705600">
        <ele>1516.0</ele>
        <time>2017-09-30T12:32:54Z</time>
      </trkpt>
      <trkpt lat="41.096017" lon="-3.705633">
        <ele>1516.0</ele>
        <time>2017-09-30T12:32:55Z</time>
      </trkpt>
      <trkpt lat="41.096067" lon="-3.705683">
        <ele>1517.0</ele>
        <time>2017-09-30T12:32:56Z</time>
      </trkpt>
      <trkpt lat="41.096100" lon="-3.705717">
        <ele>1516.0</ele>
        <time>2017-09-30T12:32:57Z</time>
      </trkpt>
      <trkpt lat="41.096150" lon="-3.705750">
        <ele>1514.0</ele>
        <time>2017-09-30T12:32:58Z</time>
      </trkpt>
      <trkpt lat="41.096200" lon="-3.705783">
        <ele>1512.0</ele>
        <time>2017-09-30T12:32:59Z</time>
      </trkpt>
      <trkpt lat="41.096233" lon="-3.705817">
        <ele>1511.0</ele>
        <time>2017-09-30T12:33:00Z</time>
      </trkpt>
      <trkpt lat="41.096283" lon="-3.705850">
        <ele>1510.0</ele>
        <time>2017-09-30T12:33:01Z</time>
      </trkpt>
      <trkpt lat="41.096317" lon="-3.705883">
        <ele>1508.0</ele>
        <time>2017-09-30T12:33:02Z</time>
      </trkpt>
      <trkpt lat="41.096367" lon="-3.705933">
        <ele>1507.0</ele>
        <time>2017-09-30T12:33:03Z</time>
      </trkpt>
      <trkpt lat="41.096383" lon="-3.705967">
        <ele>1505.0</ele>
        <time>2017-09-30T12:33:04Z</time>
      </trkpt>
      <trkpt lat="41.096400" lon="-3.706000">
        <ele>1502.0</ele>
        <time>2017-09-30T12:33:05Z</time>
      </trkpt>
      <trkpt lat="41.096417" lon="-3.706067">
        <ele>1499.0</ele>
        <time>2017-09-30T12:33:06Z</time>
      </trkpt>
      <trkpt lat="41.096433" lon="-3.706133">
        <ele>1497.0</ele>
        <time>2017-09-30T12:33:07Z</time>
      </trkpt>
      <trkpt lat="41.096467" lon="-3.706217">
        <ele>1496.0</ele>
        <time>2017-09-30T12:33:08Z</time>
      </trkpt>
      <trkpt lat="41.096500" lon="-3.706267">
        <ele>1496.0</ele>
        <time>2017-09-30T12:33:09Z</time>
      </trkpt>
      <trkpt lat="41.096533" lon="-3.706300">
        <ele>1496.0</ele>
        <time>2017-09-30T12:33:10Z</time>
      </trkpt>
      <trkpt lat="41.096567" lon="-3.706333">
        <ele>1495.0</ele>
        <time>2017-09-30T12:33:11Z</time>
      </trkpt>
      <trkpt lat="41.096617" lon="-3.706367">
        <ele>1492.0</ele>
        <time>2017-09-30T12:33:12Z</time>
      </trkpt>
      <trkpt lat="41.096650" lon="-3.706417">
        <ele>1488.0</ele>
        <time>2017-09-30T12:33:13Z</time>
      </trkpt>
      <trkpt lat="41.096717" lon="-3.706467">
        <ele>1485.0</ele>
        <time>2017-09-30T12:33:14Z</time>
      </trkpt>
      <trkpt lat="41.096767" lon="-3.706517">
        <ele>1484.0</ele>
        <time>2017-09-30T12:33:15Z</time>
      </trkpt>
      <trkpt lat="41.096817" lon="-3.706567">
        <ele>1484.0</ele>
        <time>2017-09-30T12:33:16Z</time>
      </trkpt>
      <trkpt lat="41.096850" lon="-3.706617">
        <ele>1484.0</ele>
        <time>2017-09-30T12:33:17Z</time>
      </trkpt>
      <trkpt lat="41.096883" lon="-3.706650">
        <ele>1483.0</ele>
        <time>2017-09-30T12:33:18Z</time>
      </trkpt>
      <trkpt lat="41.096917" lon="-3.706717">
        <ele>1481.0</ele>
        <time>2017-09-30T12:33:19Z</time>
      </trkpt>
      <trkpt lat="41.096950" lon="-3.706767">
        <ele>1479.0</ele>
        <time>2017-09-30T12:33:20Z</time>
      </trkpt>
      <trkpt lat="41.097000" lon="-3.706850">
        <ele>1477.0</ele>
        <time>2017-09-30T12:33:21Z</time>
      </trkpt>
      <trkpt lat="41.097050" lon="-3.706900">
        <ele>1477.0</ele>
        <time>2017-09-30T12:33:22Z</time>
      </trkpt>
      <trkpt lat="41.097100" lon="-3.706967">
        <ele>1477.0</ele>
        <time>2017-09-30T12:33:23Z</time>
      </trkpt>
      <trkpt lat="41.097150" lon="-3.707017">
        <ele>1476.0</ele>
        <time>2017-09-30T12:33:24Z</time>
      </trkpt>
      <trkpt lat="41.097200" lon="-3.707050">
        <ele>1475.0</ele>
        <time>2017-09-30T12:33:25Z</time>
      </trkpt>
      <trkpt lat="41.097250" lon="-3.707117">
        <ele>1473.0</ele>
        <time>2017-09-30T12:33:26Z</time>
      </trkpt>
      <trkpt lat="41.097300" lon="-3.707167">
        <ele>1471.0</ele>
        <time>2017-09-30T12:33:27Z</time>
      </trkpt>
      <trkpt lat="41.097333" lon="-3.707233">
        <ele>1470.0</ele>
        <time>2017-09-30T12:33:28Z</time>
      </trkpt>
      <trkpt lat="41.097383" lon="-3.707283">
        <ele>1469.0</ele>
        <time>2017-09-30T12:33:29Z</time>
      </trkpt>
      <trkpt lat="41.097433" lon="-3.707333">
        <ele>1468.0</ele>
        <time>2017-09-30T12:33:30Z</time>
      </trkpt>
      <trkpt lat="41.097483" lon="-3.707383">
        <ele>1467.0</ele>
        <time>2017-09-30T12:33:31Z</time>
      </trkpt>
      <trkpt lat="41.097517" lon="-3.707417">
        <ele>1466.0</ele>
        <time>2017-09-30T12:33:32Z</time>
      </trkpt>
      <trkpt lat="41.097567" lon="-3.707467">
        <ele>1465.0</ele>
        <time>2017-09-30T12:33:33Z</time>
      </trkpt>
      <trkpt lat="41.097617" lon="-3.707517">
        <ele>1464.0</ele>
        <time>2017-09-30T12:33:34Z</time>
      </trkpt>
      <trkpt lat="41.097667" lon="-3.707583">
        <ele>1463.0</ele>
        <time>2017-09-30T12:33:35Z</time>
      </trkpt>
      <trkpt lat="41.097717" lon="-3.707633">
        <ele>1462.0</ele>
        <time>2017-09-30T12:33:36Z</time>
      </trkpt>
      <trkpt lat="41.097767" lon="-3.707700">
        <ele>1462.0</ele>
        <time>2017-09-30T12:33:37Z</time>
      </trkpt>
      <trkpt lat="41.097800" lon="-3.707750">
        <ele>1461.0</ele>
        <time>2017-09-30T12:33:38Z</time>
      </trkpt>
      <trkpt lat="41.097850" lon="-3.707800">
        <ele>1461.0</ele>
        <time>2017-09-30T12:33:39Z</time>
      </trkpt>
      <trkpt lat="41.097900" lon="-3.707850">
        <ele>1461.0</ele>
        <time>2017-09-30T12:33:40Z</time>
      </trkpt>
      <trkpt lat="41.097967" lon="-3.707900">
        <ele>1461.0</ele>
        <time>2017-09-30T12:33:41Z</time>
      </trkpt>
      <trkpt lat="41.098017" lon="-3.707933">
        <ele>1462.0</ele>
        <time>2017-09-30T12:33:42Z</time>
      </trkpt>
      <trkpt lat="41.098050" lon="-3.707983">
        <ele>1464.0</ele>
        <time>2017-09-30T12:33:43Z</time>
      </trkpt>
      <trkpt lat="41.098083" lon="-3.708017">
        <ele>1465.0</ele>
        <time>2017-09-30T12:33:44Z</time>
      </trkpt>
      <trkpt lat="41.098117" lon="-3.708050">
        <ele>1466.0</ele>
        <time>2017-09-30T12:33:45Z</time>
      </trkpt>
      <trkpt lat="41.098133" lon="-3.708083">
        <ele>1466.0</ele>
        <time>2017-09-30T12:33:46Z</time>
      </trkpt>
      <trkpt lat="41.098183" lon="-3.708117">
        <ele>1464.0</ele>
        <time>2017-09-30T12:33:47Z</time>
      </trkpt>
      <trkpt lat="41.098233" lon="-3.708167">
        <ele>1462.0</ele>
        <time>2017-09-30T12:33:48Z</time>
      </trkpt>
      <trkpt lat="41.098283" lon="-3.708200">
        <ele>1462.0</ele>
        <time>2017-09-30T12:33:49Z</time>
      </trkpt>
      <trkpt lat="41.098333" lon="-3.708233">
        <ele>1463.0</ele>
        <time>2017-09-30T12:33:50Z</time>
      </trkpt>
      <trkpt lat="41.098367" lon="-3.708283">
        <ele>1464.0</ele>
        <time>2017-09-30T12:33:51Z</time>
      </trkpt>
      <trkpt lat="41.098400" lon="-3.708317">
        <ele>1464.0</ele>
        <time>2017-09-30T12:33:52Z</time>
      </trkpt>
      <trkpt lat="41.098433" lon="-3.708350">
        <ele>1464.0</ele>
        <time>2017-09-30T12:33:53Z</time>
      </trkpt>
      <trkpt lat="41.098467" lon="-3.708383">
        <ele>1464.0</ele>
        <time>2017-09-30T12:33:54Z</time>
      </trkpt>
      <trkpt lat="41.098500" lon="-3.708417">
        <ele>1464.0</ele>
        <time>2017-09-30T12:33:55Z</time>
      </trkpt>
      <trkpt lat="41.098517" lon="-3.708467">
        <ele>1465.0</ele>
        <time>2017-09-30T12:33:56Z</time>
      </trkpt>
      <trkpt lat="41.098517" lon="-3.708517">
        <ele>1465.0</ele>
        <time>2017-09-30T12:33:57Z</time>
      </trkpt>
      <trkpt lat="41.098517" lon="-3.708583">
        <ele>1465.0</ele>
        <time>2017-09-30T12:33:58Z</time>
      </trkpt>
      <trkpt lat="41.098517" lon="-3.708667">
        <ele>1465.0</ele>
        <time>2017-09-30T12:33:59Z</time>
      </trkpt>
      <trkpt lat="41.098517" lon="-3.708733">
        <ele>1465.0</ele>
        <time>2017-09-30T12:34:00Z</time>
      </trkpt>
      <trkpt lat="41.098533" lon="-3.708783">
        <ele>1466.0</ele>
        <time>2017-09-30T12:34:01Z</time>
      </trkpt>
      <trkpt lat="41.098567" lon="-3.708833">
        <ele>1466.0</ele>
        <time>2017-09-30T12:34:02Z</time>
      </trkpt>
      <trkpt lat="41.098617" lon="-3.708883">
        <ele>1466.0</ele>
        <time>2017-09-30T12:34:03Z</time>
      </trkpt>
      <trkpt lat="41.098650" lon="-3.708917">
        <ele>1467.0</ele>
        <time>2017-09-30T12:34:04Z</time>
      </trkpt>
      <trkpt lat="41.098683" lon="-3.708950">
        <ele>1467.0</ele>
        <time>2017-09-30T12:34:05Z</time>
      </trkpt>
      <trkpt lat="41.098700" lon="-3.709000">
        <ele>1467.0</ele>
        <time>2017-09-30T12:34:06Z</time>
      </trkpt>
      <trkpt lat="41.098750" lon="-3.709033">
        <ele>1466.0</ele>
        <time>2017-09-30T12:34:07Z</time>
      </trkpt>
      <trkpt lat="41.098783" lon="-3.709067">
        <ele>1465.0</ele>
        <time>2017-09-30T12:34:08Z</time>
      </trkpt>
      <trkpt lat="41.098833" lon="-3.709117">
        <ele>1464.0</ele>
        <time>2017-09-30T12:34:09Z</time>
      </trkpt>
      <trkpt lat="41.098883" lon="-3.709150">
        <ele>1465.0</ele>
        <time>2017-09-30T12:34:10Z</time>
      </trkpt>
      <trkpt lat="41.098933" lon="-3.709200">
        <ele>1465.0</ele>
        <time>2017-09-30T12:34:11Z</time>
      </trkpt>
      <trkpt lat="41.098983" lon="-3.709217">
        <ele>1466.0</ele>
        <time>2017-09-30T12:34:12Z</time>
      </trkpt>
      <trkpt lat="41.099017" lon="-3.709250">
        <ele>1467.0</ele>
        <time>2017-09-30T12:34:13Z</time>
      </trkpt>
      <trkpt lat="41.099083" lon="-3.709250">
        <ele>1467.0</ele>
        <time>2017-09-30T12:34:14Z</time>
      </trkpt>
      <trkpt lat="41.099150" lon="-3.709250">
        <ele>1466.0</ele>
        <time>2017-09-30T12:34:15Z</time>
      </trkpt>
      <trkpt lat="41.099233" lon="-3.709250">
        <ele>1467.0</ele>
        <time>2017-09-30T12:34:16Z</time>
      </trkpt>
      <trkpt lat="41.099300" lon="-3.709250">
        <ele>1469.0</ele>
        <time>2017-09-30T12:34:17Z</time>
      </trkpt>
      <trkpt lat="41.099367" lon="-3.709267">
        <ele>1471.0</ele>
        <time>2017-09-30T12:34:18Z</time>
      </trkpt>
      <trkpt lat="41.099400" lon="-3.709317">
        <ele>1471.0</ele>
        <time>2017-09-30T12:34:19Z</time>
      </trkpt>
      <trkpt lat="41.099417" lon="-3.709383">
        <ele>1472.0</ele>
        <time>2017-09-30T12:34:20Z</time>
      </trkpt>
      <trkpt lat="41.099400" lon="-3.709450">
        <ele>1473.0</ele>
        <time>2017-09-30T12:34:21Z</time>
      </trkpt>
      <trkpt lat="41.099400" lon="-3.709483">
        <ele>1476.0</ele>
        <time>2017-09-30T12:34:22Z</time>
      </trkpt>
      <trkpt lat="41.099383" lon="-3.709533">
        <ele>1477.0</ele>
        <time>2017-09-30T12:34:23Z</time>
      </trkpt>
      <trkpt lat="41.099350" lon="-3.709567">
        <ele>1478.0</ele>
        <time>2017-09-30T12:34:24Z</time>
      </trkpt>
      <trkpt lat="41.099283" lon="-3.709600">
        <ele>1477.0</ele>
        <time>2017-09-30T12:34:25Z</time>
      </trkpt>
      <trkpt lat="41.099200" lon="-3.709617">
        <ele>1475.0</ele>
        <time>2017-09-30T12:34:26Z</time>
      </trkpt>
      <trkpt lat="41.099100" lon="-3.709650">
        <ele>1475.0</ele>
        <time>2017-09-30T12:34:27Z</time>
      </trkpt>
      <trkpt lat="41.099017" lon="-3.709683">
        <ele>1478.0</ele>
        <time>2017-09-30T12:34:28Z</time>
      </trkpt>
      <trkpt lat="41.098967" lon="-3.709717">
        <ele>1481.0</ele>
        <time>2017-09-30T12:34:29Z</time>
      </trkpt>
      <trkpt lat="41.098933" lon="-3.709767">
        <ele>1483.0</ele>
        <time>2017-09-30T12:34:30Z</time>
      </trkpt>
      <trkpt lat="41.098933" lon="-3.709817">
        <ele>1484.0</ele>
        <time>2017-09-30T12:34:31Z</time>
      </trkpt>
      <trkpt lat="41.098933" lon="-3.709867">
        <ele>1484.0</ele>
        <time>2017-09-30T12:34:32Z</time>
      </trkpt>
      <trkpt lat="41.098967" lon="-3.709917">
        <ele>1484.0</ele>
        <time>2017-09-30T12:34:33Z</time>
      </trkpt>
      <trkpt lat="41.099017" lon="-3.709933">
        <ele>1484.0</ele>
        <time>2017-09-30T12:34:34Z</time>
      </trkpt>
      <trkpt lat="41.099083" lon="-3.709917">
        <ele>1484.0</ele>
        <time>2017-09-30T12:34:35Z</time>
      </trkpt>
      <trkpt lat="41.099167" lon="-3.709850">
        <ele>1484.0</ele>
        <time>2017-09-30T12:34:36Z</time>
      </trkpt>
      <trkpt lat="41.099217" lon="-3.709783">
        <ele>1484.0</ele>
        <time>2017-09-30T12:34:37Z</time>
      </trkpt>
      <trkpt lat="41.099283" lon="-3.709700">
        <ele>1484.0</ele>
        <time>2017-09-30T12:34:38Z</time>
      </trkpt>
      <trkpt lat="41.099317" lon="-3.709617">
        <ele>1483.0</ele>
        <time>2017-09-30T12:34:39Z</time>
      </trkpt>
      <trkpt lat="41.099367" lon="-3.709517">
        <ele>1481.0</ele>
        <time>2017-09-30T12:34:40Z</time>
      </trkpt>
      <trkpt lat="41.099417" lon="-3.709383">
        <ele>1478.0</ele>
        <time>2017-09-30T12:34:41Z</time>
      </trkpt>
      <trkpt lat="41.099433" lon="-3.709217">
        <ele>1476.0</ele>
        <time>2017-09-30T12:34:42Z</time>
      </trkpt>
      <trkpt lat="41.099433" lon="-3.709033">
        <ele>1474.0</ele>
        <time>2017-09-30T12:34:43Z</time>
      </trkpt>
      <trkpt lat="41.099400" lon="-3.708867">
        <ele>1472.0</ele>
        <time>2017-09-30T12:34:44Z</time>
      </trkpt>
      <trkpt lat="41.099333" lon="-3.708700">
        <ele>1471.0</ele>
        <time>2017-09-30T12:34:45Z</time>
      </trkpt>
      <trkpt lat="41.099250" lon="-3.708583">
        <ele>1470.0</ele>
        <time>2017-09-30T12:34:46Z</time>
      </trkpt>
      <trkpt lat="41.099150" lon="-3.708483">
        <ele>1469.0</ele>
        <time>2017-09-30T12:34:47Z</time>
      </trkpt>
      <trkpt lat="41.099033" lon="-3.708433">
        <ele>1467.0</ele>
        <time>2017-09-30T12:34:48Z</time>
      </trkpt>
      <trkpt lat="41.098917" lon="-3.708417">
        <ele>1465.0</ele>
        <time>2017-09-30T12:34:49Z</time>
      </trkpt>
      <trkpt lat="41.098817" lon="-3.708433">
        <ele>1465.0</ele>
        <time>2017-09-30T12:34:50Z</time>
      </trkpt>
      <trkpt lat="41.098733" lon="-3.708483">
        <ele>1465.0</ele>
        <time>2017-09-30T12:34:51Z</time>
      </trkpt>
      <trkpt lat="41.098683" lon="-3.708550">
        <ele>1465.0</ele>
        <time>2017-09-30T12:34:52Z</time>
      </trkpt>
      <trkpt lat="41.098650" lon="-3.708617">
        <ele>1465.0</ele>
        <time>2017-09-30T12:34:53Z</time>
      </trkpt>
      <trkpt lat="41.098650" lon="-3.708667">
        <ele>1465.0</ele>
        <time>2017-09-30T12:34:54Z</time>
      </trkpt>
      <trkpt lat="41.098650" lon="-3.708717">
        <ele>1466.0</ele>
        <time>2017-09-30T12:34:55Z</time>
      </trkpt>
      <trkpt lat="41.098667" lon="-3.708733">
        <ele>1467.0</ele>
        <time>2017-09-30T12:34:56Z</time>
      </trkpt>
      <trkpt lat="41.098683" lon="-3.708767">
        <ele>1467.0</ele>
        <time>2017-09-30T12:34:57Z</time>
      </trkpt>
      <trkpt lat="41.098700" lon="-3.708783">
        <ele>1466.0</ele>
        <time>2017-09-30T12:34:58Z</time>
      </trkpt>
      <trkpt lat="41.098733" lon="-3.708800">
        <ele>1465.0</ele>
        <time>2017-09-30T12:34:59Z</time>
      </trkpt>
      <trkpt lat="41.098750" lon="-3.708833">
        <ele>1464.0</ele>
        <time>2017-09-30T12:35:00Z</time>
      </trkpt>
      <trkpt lat="41.098783" lon="-3.708883">
        <ele>1462.0</ele>
        <time>2017-09-30T12:35:01Z</time>
      </trkpt>
      <trkpt lat="41.098800" lon="-3.708933">
        <ele>1462.0</ele>
        <time>2017-09-30T12:35:02Z</time>
      </trkpt>
      <trkpt lat="41.098817" lon="-3.708967">
        <ele>1461.0</ele>
        <time>2017-09-30T12:35:03Z</time>
      </trkpt>
      <trkpt lat="41.098833" lon="-3.709017">
        <ele>1461.0</ele>
        <time>2017-09-30T12:35:04Z</time>
      </trkpt>
      <trkpt lat="41.098850" lon="-3.709033">
        <ele>1460.0</ele>
        <time>2017-09-30T12:35:05Z</time>
      </trkpt>
      <trkpt lat="41.098867" lon="-3.709067">
        <ele>1459.0</ele>
        <time>2017-09-30T12:35:06Z</time>
      </trkpt>
      <trkpt lat="41.098900" lon="-3.709100">
        <ele>1457.0</ele>
        <time>2017-09-30T12:35:07Z</time>
      </trkpt>
      <trkpt lat="41.098917" lon="-3.709150">
        <ele>1456.0</ele>
        <time>2017-09-30T12:35:08Z</time>
      </trkpt>
      <trkpt lat="41.098950" lon="-3.709200">
        <ele>1455.0</ele>
        <time>2017-09-30T12:35:09Z</time>
      </trkpt>
      <trkpt lat="41.098983" lon="-3.709250">
        <ele>1455.0</ele>
        <time>2017-09-30T12:35:10Z</time>
      </trkpt>
      <trkpt lat="41.099000" lon="-3.709283">
        <ele>1455.0</ele>
        <time>2017-09-30T12:35:11Z</time>
      </trkpt>
      <trkpt lat="41.099017" lon="-3.709300">
        <ele>1455.0</ele>
        <time>2017-09-30T12:35:12Z</time>
      </trkpt>
      <trkpt lat="41.099033" lon="-3.709333">
        <ele>1454.0</ele>
        <time>2017-09-30T12:35:13Z</time>
      </trkpt>
      <trkpt lat="41.099050" lon="-3.709367">
        <ele>1453.0</ele>
        <time>2017-09-30T12:35:14Z</time>
      </trkpt>
      <trkpt lat="41.099067" lon="-3.709417">
        <ele>1453.0</ele>
        <time>2017-09-30T12:35:15Z</time>
      </trkpt>
      <trkpt lat="41.099083" lon="-3.709433">
        <ele>1452.0</ele>
        <time>2017-09-30T12:35:16Z</time>
      </trkpt>
      <trkpt lat="41.099100" lon="-3.709450">
        <ele>1451.0</ele>
        <time>2017-09-30T12:35:17Z</time>
      </trkpt>
      <trkpt lat="41.099117" lon="-3.709483">
        <ele>1450.0</ele>
        <time>2017-09-30T12:35:18Z</time>
      </trkpt>
      <trkpt lat="41.099150" lon="-3.709517">
        <ele>1447.0</ele>
        <time>2017-09-30T12:35:19Z</time>
      </trkpt>
      <trkpt lat="41.099183" lon="-3.709550">
        <ele>1445.0</ele>
        <time>2017-09-30T12:35:20Z</time>
      </trkpt>
      <trkpt lat="41.099233" lon="-3.709583">
        <ele>1444.0</ele>
        <time>2017-09-30T12:35:21Z</time>
      </trkpt>
      <trkpt lat="41.099267" lon="-3.709617">
        <ele>1444.0</ele>
        <time>2017-09-30T12:35:22Z</time>
      </trkpt>
      <trkpt lat="41.099300" lon="-3.709633">
        <ele>1443.0</ele>
        <time>2017-09-30T12:35:23Z</time>
      </trkpt>
      <trkpt lat="41.099300" lon="-3.709667">
        <ele>1442.0</ele>
        <time>2017-09-30T12:35:24Z</time>
      </trkpt>
      <trkpt lat="41.099317" lon="-3.709717">
        <ele>1439.0</ele>
        <time>2017-09-30T12:35:25Z</time>
      </trkpt>
      <trkpt lat="41.099350" lon="-3.709767">
        <ele>1437.0</ele>
        <time>2017-09-30T12:35:26Z</time>
      </trkpt>
      <trkpt lat="41.099367" lon="-3.709817">
        <ele>1435.0</ele>
        <time>2017-09-30T12:35:27Z</time>
      </trkpt>
      <trkpt lat="41.099417" lon="-3.709867">
        <ele>1434.0</ele>
        <time>2017-09-30T12:35:28Z</time>
      </trkpt>
      <trkpt lat="41.099467" lon="-3.709883">
        <ele>1434.0</ele>
        <time>2017-09-30T12:35:29Z</time>
      </trkpt>
      <trkpt lat="41.099500" lon="-3.709917">
        <ele>1434.0</ele>
        <time>2017-09-30T12:35:30Z</time>
      </trkpt>
      <trkpt lat="41.099533" lon="-3.709950">
        <ele>1434.0</ele>
        <time>2017-09-30T12:35:31Z</time>
      </trkpt>
      <trkpt lat="41.099550" lon="-3.709983">
        <ele>1434.0</ele>
        <time>2017-09-30T12:35:32Z</time>
      </trkpt>
      <trkpt lat="41.099567" lon="-3.710033">
        <ele>1434.0</ele>
        <time>2017-09-30T12:35:33Z</time>
      </trkpt>
      <trkpt lat="41.099583" lon="-3.710083">
        <ele>1434.0</ele>
        <time>2017-09-30T12:35:34Z</time>
      </trkpt>
      <trkpt lat="41.099600" lon="-3.710133">
        <ele>1435.0</ele>
        <time>2017-09-30T12:35:35Z</time>
      </trkpt>
      <trkpt lat="41.099617" lon="-3.710183">
        <ele>1435.0</ele>
        <time>2017-09-30T12:35:36Z</time>
      </trkpt>
      <trkpt lat="41.099617" lon="-3.710250">
        <ele>1436.0</ele>
        <time>2017-09-30T12:35:37Z</time>
      </trkpt>
      <trkpt lat="41.099633" lon="-3.710300">
        <ele>1436.0</ele>
        <time>2017-09-30T12:35:38Z</time>
      </trkpt>
      <trkpt lat="41.099633" lon="-3.710350">
        <ele>1435.0</ele>
        <time>2017-09-30T12:35:39Z</time>
      </trkpt>
      <trkpt lat="41.099650" lon="-3.710433">
        <ele>1434.0</ele>
        <time>2017-09-30T12:35:40Z</time>
      </trkpt>
      <trkpt lat="41.099683" lon="-3.710500">
        <ele>1434.0</ele>
        <time>2017-09-30T12:35:41Z</time>
      </trkpt>
      <trkpt lat="41.099733" lon="-3.710567">
        <ele>1434.0</ele>
        <time>2017-09-30T12:35:42Z</time>
      </trkpt>
      <trkpt lat="41.099783" lon="-3.710600">
        <ele>1436.0</ele>
        <time>2017-09-30T12:35:43Z</time>
      </trkpt>
      <trkpt lat="41.099833" lon="-3.710617">
        <ele>1438.0</ele>
        <time>2017-09-30T12:35:44Z</time>
      </trkpt>
      <trkpt lat="41.099883" lon="-3.710617">
        <ele>1439.0</ele>
        <time>2017-09-30T12:35:45Z</time>
      </trkpt>
      <trkpt lat="41.099933" lon="-3.710633">
        <ele>1439.0</ele>
        <time>2017-09-30T12:35:46Z</time>
      </trkpt>
      <trkpt lat="41.099983" lon="-3.710683">
        <ele>1438.0</ele>
        <time>2017-09-30T12:35:47Z</time>
      </trkpt>
      <trkpt lat="41.100017" lon="-3.710750">
        <ele>1439.0</ele>
        <time>2017-09-30T12:35:48Z</time>
      </trkpt>
      <trkpt lat="41.100033" lon="-3.710817">
        <ele>1440.0</ele>
        <time>2017-09-30T12:35:49Z</time>
      </trkpt>
      <trkpt lat="41.100050" lon="-3.710850">
        <ele>1441.0</ele>
        <time>2017-09-30T12:35:50Z</time>
      </trkpt>
      <trkpt lat="41.100083" lon="-3.710883">
        <ele>1442.0</ele>
        <time>2017-09-30T12:35:51Z</time>
      </trkpt>
      <trkpt lat="41.100117" lon="-3.710917">
        <ele>1442.0</ele>
        <time>2017-09-30T12:35:52Z</time>
      </trkpt>
      <trkpt lat="41.100150" lon="-3.710967">
        <ele>1441.0</ele>
        <time>2017-09-30T12:35:53Z</time>
      </trkpt>
      <trkpt lat="41.100200" lon="-3.711033">
        <ele>1441.0</ele>
        <time>2017-09-30T12:35:54Z</time>
      </trkpt>
      <trkpt lat="41.100233" lon="-3.711117">
        <ele>1442.0</ele>
        <time>2017-09-30T12:35:55Z</time>
      </trkpt>
      <trkpt lat="41.100250" lon="-3.711183">
        <ele>1445.0</ele>
        <time>2017-09-30T12:35:56Z</time>
      </trkpt>
      <trkpt lat="41.100250" lon="-3.711233">
        <ele>1447.0</ele>
        <time>2017-09-30T12:35:57Z</time>
      </trkpt>
      <trkpt lat="41.100250" lon="-3.711283">
        <ele>1449.0</ele>
        <time>2017-09-30T12:35:58Z</time>
      </trkpt>
      <trkpt lat="41.100250" lon="-3.711317">
        <ele>1449.0</ele>
        <time>2017-09-30T12:35:59Z</time>
      </trkpt>
      <trkpt lat="41.100250" lon="-3.711367">
        <ele>1449.0</ele>
        <time>2017-09-30T12:36:00Z</time>
      </trkpt>
      <trkpt lat="41.100267" lon="-3.711417">
        <ele>1449.0</ele>
        <time>2017-09-30T12:36:01Z</time>
      </trkpt>
      <trkpt lat="41.100317" lon="-3.711467">
        <ele>1450.0</ele>
        <time>2017-09-30T12:36:02Z</time>
      </trkpt>
      <trkpt lat="41.100383" lon="-3.711483">
        <ele>1452.0</ele>
        <time>2017-09-30T12:36:03Z</time>
      </trkpt>
      <trkpt lat="41.100417" lon="-3.711483">
        <ele>1456.0</ele>
        <time>2017-09-30T12:36:04Z</time>
      </trkpt>
      <trkpt lat="41.100450" lon="-3.711467">
        <ele>1458.0</ele>
        <time>2017-09-30T12:36:05Z</time>
      </trkpt>
      <trkpt lat="41.100500" lon="-3.711433">
        <ele>1459.0</ele>
        <time>2017-09-30T12:36:06Z</time>
      </trkpt>
      <trkpt lat="41.100583" lon="-3.711383">
        <ele>1459.0</ele>
        <time>2017-09-30T12:36:07Z</time>
      </trkpt>
      <trkpt lat="41.100650" lon="-3.711317">
        <ele>1459.0</ele>
        <time>2017-09-30T12:36:08Z</time>
      </trkpt>
      <trkpt lat="41.100750" lon="-3.711250">
        <ele>1460.0</ele>
        <time>2017-09-30T12:36:09Z</time>
      </trkpt>
      <trkpt lat="41.100817" lon="-3.711217">
        <ele>1463.0</ele>
        <time>2017-09-30T12:36:10Z</time>
      </trkpt>
      <trkpt lat="41.100883" lon="-3.711217">
        <ele>1464.0</ele>
        <time>2017-09-30T12:36:11Z</time>
      </trkpt>
      <trkpt lat="41.100917" lon="-3.711233">
        <ele>1464.0</ele>
        <time>2017-09-30T12:36:12Z</time>
      </trkpt>
      <trkpt lat="41.100950" lon="-3.711300">
        <ele>1465.0</ele>
        <time>2017-09-30T12:36:13Z</time>
      </trkpt>
      <trkpt lat="41.100950" lon="-3.711350">
        <ele>1467.0</ele>
        <time>2017-09-30T12:36:14Z</time>
      </trkpt>
      <trkpt lat="41.100950" lon="-3.711383">
        <ele>1470.0</ele>
        <time>2017-09-30T12:36:15Z</time>
      </trkpt>
      <trkpt lat="41.100933" lon="-3.711400">
        <ele>1472.0</ele>
        <time>2017-09-30T12:36:16Z</time>
      </trkpt>
      <trkpt lat="41.100917" lon="-3.711400">
        <ele>1472.0</ele>
        <time>2017-09-30T12:36:17Z</time>
      </trkpt>
      <trkpt lat="41.100917" lon="-3.711433">
        <ele>1470.0</ele>
        <time>2017-09-30T12:36:18Z</time>
      </trkpt>
      <trkpt lat="41.100900" lon="-3.711467">
        <ele>1468.0</ele>
        <time>2017-09-30T12:36:19Z</time>
      </trkpt>
      <trkpt lat="41.100917" lon="-3.711517">
        <ele>1466.0</ele>
        <time>2017-09-30T12:36:20Z</time>
      </trkpt>
      <trkpt lat="41.100950" lon="-3.711583">
        <ele>1466.0</ele>
        <time>2017-09-30T12:36:21Z</time>
      </trkpt>
      <trkpt lat="41.100967" lon="-3.711633">
        <ele>1466.0</ele>
        <time>2017-09-30T12:36:22Z</time>
      </trkpt>
      <trkpt lat="41.101000" lon="-3.711667">
        <ele>1466.0</ele>
        <time>2017-09-30T12:36:23Z</time>
      </trkpt>
      <trkpt lat="41.101033" lon="-3.711683">
        <ele>1466.0</ele>
        <time>2017-09-30T12:36:24Z</time>
      </trkpt>
      <trkpt lat="41.101083" lon="-3.711700">
        <ele>1465.0</ele>
        <time>2017-09-30T12:36:25Z</time>
      </trkpt>
      <trkpt lat="41.101150" lon="-3.711717">
        <ele>1464.0</ele>
        <time>2017-09-30T12:36:26Z</time>
      </trkpt>
      <trkpt lat="41.101233" lon="-3.711700">
        <ele>1461.0</ele>
        <time>2017-09-30T12:36:27Z</time>
      </trkpt>
      <trkpt lat="41.101333" lon="-3.711667">
        <ele>1459.0</ele>
        <time>2017-09-30T12:36:28Z</time>
      </trkpt>
      <trkpt lat="41.101433" lon="-3.711617">
        <ele>1459.0</ele>
        <time>2017-09-30T12:36:29Z</time>
      </trkpt>
      <trkpt lat="41.101517" lon="-3.711583">
        <ele>1459.0</ele>
        <time>2017-09-30T12:36:30Z</time>
      </trkpt>
      <trkpt lat="41.101600" lon="-3.711567">
        <ele>1461.0</ele>
        <time>2017-09-30T12:36:31Z</time>
      </trkpt>
      <trkpt lat="41.101683" lon="-3.711567">
        <ele>1462.0</ele>
        <time>2017-09-30T12:36:32Z</time>
      </trkpt>
      <trkpt lat="41.101750" lon="-3.711567">
        <ele>1465.0</ele>
        <time>2017-09-30T12:36:33Z</time>
      </trkpt>
      <trkpt lat="41.101817" lon="-3.711567">
        <ele>1467.0</ele>
        <time>2017-09-30T12:36:34Z</time>
      </trkpt>
      <trkpt lat="41.101850" lon="-3.711583">
        <ele>1469.0</ele>
        <time>2017-09-30T12:36:35Z</time>
      </trkpt>
      <trkpt lat="41.101850" lon="-3.711600">
        <ele>1471.0</ele>
        <time>2017-09-30T12:36:36Z</time>
      </trkpt>
      <trkpt lat="41.101833" lon="-3.711650">
        <ele>1470.0</ele>
        <time>2017-09-30T12:36:37Z</time>
      </trkpt>
      <trkpt lat="41.101783" lon="-3.711683">
        <ele>1471.0</ele>
        <time>2017-09-30T12:36:38Z</time>
      </trkpt>
      <trkpt lat="41.101733" lon="-3.711700">
        <ele>1473.0</ele>
        <time>2017-09-30T12:36:39Z</time>
      </trkpt>
      <trkpt lat="41.101667" lon="-3.711683">
        <ele>1476.0</ele>
        <time>2017-09-30T12:36:40Z</time>
      </trkpt>
      <trkpt lat="41.101600" lon="-3.711633">
        <ele>1478.0</ele>
        <time>2017-09-30T12:36:41Z</time>
      </trkpt>
      <trkpt lat="41.101517" lon="-3.711583">
        <ele>1479.0</ele>
        <time>2017-09-30T12:36:42Z</time>
      </trkpt>
      <trkpt lat="41.101417" lon="-3.711517">
        <ele>1479.0</ele>
        <time>2017-09-30T12:36:43Z</time>
      </trkpt>
      <trkpt lat="41.101317" lon="-3.711467">
        <ele>1480.0</ele>
        <time>2017-09-30T12:36:44Z</time>
      </trkpt>
      <trkpt lat="41.101217" lon="-3.711383">
        <ele>1482.0</ele>
        <time>2017-09-30T12:36:45Z</time>
      </trkpt>
      <trkpt lat="41.101150" lon="-3.711267">
        <ele>1483.0</ele>
        <time>2017-09-30T12:36:46Z</time>
      </trkpt>
      <trkpt lat="41.101100" lon="-3.711100">
        <ele>1484.0</ele>
        <time>2017-09-30T12:36:47Z</time>
      </trkpt>
      <trkpt lat="41.101100" lon="-3.710950">
        <ele>1485.0</ele>
        <time>2017-09-30T12:36:48Z</time>
      </trkpt>
      <trkpt lat="41.101117" lon="-3.710783">
        <ele>1484.0</ele>
        <time>2017-09-30T12:36:49Z</time>
      </trkpt>
      <trkpt lat="41.101167" lon="-3.710650">
        <ele>1483.0</ele>
        <time>2017-09-30T12:36:50Z</time>
      </trkpt>
      <trkpt lat="41.101250" lon="-3.710500">
        <ele>1482.0</ele>
        <time>2017-09-30T12:36:51Z</time>
      </trkpt>
      <trkpt lat="41.101350" lon="-3.710400">
        <ele>1482.0</ele>
        <time>2017-09-30T12:36:52Z</time>
      </trkpt>
      <trkpt lat="41.101433" lon="-3.710317">
        <ele>1484.0</ele>
        <time>2017-09-30T12:36:53Z</time>
      </trkpt>
      <trkpt lat="41.101517" lon="-3.710267">
        <ele>1487.0</ele>
        <time>2017-09-30T12:36:54Z</time>
      </trkpt>
      <trkpt lat="41.101583" lon="-3.710250">
        <ele>1490.0</ele>
        <time>2017-09-30T12:36:55Z</time>
      </trkpt>
      <trkpt lat="41.101633" lon="-3.710267">
        <ele>1492.0</ele>
        <time>2017-09-30T12:36:56Z</time>
      </trkpt>
      <trkpt lat="41.101667" lon="-3.710300">
        <ele>1493.0</ele>
        <time>2017-09-30T12:36:57Z</time>
      </trkpt>
      <trkpt lat="41.101700" lon="-3.710317">
        <ele>1494.0</ele>
        <time>2017-09-30T12:36:58Z</time>
      </trkpt>
      <trkpt lat="41.101750" lon="-3.710350">
        <ele>1495.0</ele>
        <time>2017-09-30T12:36:59Z</time>
      </trkpt>
      <trkpt lat="41.101800" lon="-3.710367">
        <ele>1496.0</ele>
        <time>2017-09-30T12:37:00Z</time>
      </trkpt>
      <trkpt lat="41.101867" lon="-3.710350">
        <ele>1498.0</ele>
        <time>2017-09-30T12:37:01Z</time>
      </trkpt>
      <trkpt lat="41.101950" lon="-3.710283">
        <ele>1500.0</ele>
        <time>2017-09-30T12:37:02Z</time>
      </trkpt>
      <trkpt lat="41.102033" lon="-3.710183">
        <ele>1501.0</ele>
        <time>2017-09-30T12:37:03Z</time>
      </trkpt>
      <trkpt lat="41.102100" lon="-3.710017">
        <ele>1503.0</ele>
        <time>2017-09-30T12:37:04Z</time>
      </trkpt>
      <trkpt lat="41.102133" lon="-3.709833">
        <ele>1505.0</ele>
        <time>2017-09-30T12:37:05Z</time>
      </trkpt>
      <trkpt lat="41.102150" lon="-3.709650">
        <ele>1507.0</ele>
        <time>2017-09-30T12:37:06Z</time>
      </trkpt>
      <trkpt lat="41.102133" lon="-3.709467">
        <ele>1510.0</ele>
        <time>2017-09-30T12:37:07Z</time>
      </trkpt>
      <trkpt lat="41.102100" lon="-3.709300">
        <ele>1511.0</ele>
        <time>2017-09-30T12:37:08Z</time>
      </trkpt>
      <trkpt lat="41.102033" lon="-3.709150">
        <ele>1512.0</ele>
        <time>2017-09-30T12:37:09Z</time>
      </trkpt>
      <trkpt lat="41.101967" lon="-3.709033">
        <ele>1513.0</ele>
        <time>2017-09-30T12:37:10Z</time>
      </trkpt>
      <trkpt lat="41.101867" lon="-3.708933">
        <ele>1513.0</ele>
        <time>2017-09-30T12:37:11Z</time>
      </trkpt>
      <trkpt lat="41.101783" lon="-3.708883">
        <ele>1514.0</ele>
        <time>2017-09-30T12:37:12Z</time>
      </trkpt>
      <trkpt lat="41.101683" lon="-3.708850">
        <ele>1517.0</ele>
        <time>2017-09-30T12:37:13Z</time>
      </trkpt>
      <trkpt lat="41.101617" lon="-3.708850">
        <ele>1519.0</ele>
        <time>2017-09-30T12:37:14Z</time>
      </trkpt>
      <trkpt lat="41.101550" lon="-3.708867">
        <ele>1522.0</ele>
        <time>2017-09-30T12:37:15Z</time>
      </trkpt>
      <trkpt lat="41.101500" lon="-3.708900">
        <ele>1524.0</ele>
        <time>2017-09-30T12:37:16Z</time>
      </trkpt>
      <trkpt lat="41.101467" lon="-3.708950">
        <ele>1527.0</ele>
        <time>2017-09-30T12:37:17Z</time>
      </trkpt>
      <trkpt lat="41.101467" lon="-3.709000">
        <ele>1530.0</ele>
        <time>2017-09-30T12:37:18Z</time>
      </trkpt>
      <trkpt lat="41.101483" lon="-3.709033">
        <ele>1532.0</ele>
        <time>2017-09-30T12:37:19Z</time>
      </trkpt>
      <trkpt lat="41.101500" lon="-3.709067">
        <ele>1533.0</ele>
        <time>2017-09-30T12:37:20Z</time>
      </trkpt>
      <trkpt lat="41.101550" lon="-3.709083">
        <ele>1534.0</ele>
        <time>2017-09-30T12:37:21Z</time>
      </trkpt>
      <trkpt lat="41.101617" lon="-3.709083">
        <ele>1535.0</ele>
        <time>2017-09-30T12:37:22Z</time>
      </trkpt>
      <trkpt lat="41.101683" lon="-3.709067">
        <ele>1536.0</ele>
        <time>2017-09-30T12:37:23Z</time>
      </trkpt>
      <trkpt lat="41.101767" lon="-3.709017">
        <ele>1537.0</ele>
        <time>2017-09-30T12:37:24Z</time>
      </trkpt>
      <trkpt lat="41.101850" lon="-3.708933">
        <ele>1539.0</ele>
        <time>2017-09-30T12:37:25Z</time>
      </trkpt>
      <trkpt lat="41.101933" lon="-3.708800">
        <ele>1541.0</ele>
        <time>2017-09-30T12:37:26Z</time>
      </trkpt>
      <trkpt lat="41.101983" lon="-3.708633">
        <ele>1542.0</ele>
        <time>2017-09-30T12:37:27Z</time>
      </trkpt>
      <trkpt lat="41.102000" lon="-3.708433">
        <ele>1543.0</ele>
        <time>2017-09-30T12:37:28Z</time>
      </trkpt>
      <trkpt lat="41.101967" lon="-3.708217">
        <ele>1545.0</ele>
        <time>2017-09-30T12:37:29Z</time>
      </trkpt>
      <trkpt lat="41.101917" lon="-3.708033">
        <ele>1547.0</ele>
        <time>2017-09-30T12:37:30Z</time>
      </trkpt>
      <trkpt lat="41.101850" lon="-3.707900">
        <ele>1550.0</ele>
        <time>2017-09-30T12:37:31Z</time>
      </trkpt>
      <trkpt lat="41.101767" lon="-3.707817">
        <ele>1552.0</ele>
        <time>2017-09-30T12:37:32Z</time>
      </trkpt>
      <trkpt lat="41.101683" lon="-3.707767">
        <ele>1553.0</ele>
        <time>2017-09-30T12:37:33Z</time>
      </trkpt>
      <trkpt lat="41.101600" lon="-3.707733">
        <ele>1555.0</ele>
        <time>2017-09-30T12:37:34Z</time>
      </trkpt>
      <trkpt lat="41.101533" lon="-3.707717">
        <ele>1556.0</ele>
        <time>2017-09-30T12:37:35Z</time>
      </trkpt>
      <trkpt lat="41.101467" lon="-3.707733">
        <ele>1557.0</ele>
        <time>2017-09-30T12:37:36Z</time>
      </trkpt>
      <trkpt lat="41.101433" lon="-3.707767">
        <ele>1559.0</ele>
        <time>2017-09-30T12:37:37Z</time>
      </trkpt>
      <trkpt lat="41.101417" lon="-3.707817">
        <ele>1560.0</ele>
        <time>2017-09-30T12:37:38Z</time>
      </trkpt>
      <trkpt lat="41.101433" lon="-3.707850">
        <ele>1562.0</ele>
        <time>2017-09-30T12:37:39Z</time>
      </trkpt>
      <trkpt lat="41.101450" lon="-3.707867">
        <ele>1564.0</ele>
        <time>2017-09-30T12:37:40Z</time>
      </trkpt>
      <trkpt lat="41.101483" lon="-3.707883">
        <ele>1565.0</ele>
        <time>2017-09-30T12:37:41Z</time>
      </trkpt>
      <trkpt lat="41.101533" lon="-3.707900">
        <ele>1566.0</ele>
        <time>2017-09-30T12:37:42Z</time>
      </trkpt>
      <trkpt lat="41.101600" lon="-3.707900">
        <ele>1567.0</ele>
        <time>2017-09-30T12:37:43Z</time>
      </trkpt>
      <trkpt lat="41.101683" lon="-3.707883">
        <ele>1570.0</ele>
        <time>2017-09-30T12:37:44Z</time>
      </trkpt>
      <trkpt lat="41.101767" lon="-3.707817">
        <ele>1573.0</ele>
        <time>2017-09-30T12:37:45Z</time>
      </trkpt>
      <trkpt lat="41.101833" lon="-3.707700">
        <ele>1575.0</ele>
        <time>2017-09-30T12:37:46Z</time>
      </trkpt>
      <trkpt lat="41.101883" lon="-3.707567">
        <ele>1577.0</ele>
        <time>2017-09-30T12:37:47Z</time>
      </trkpt>
      <trkpt lat="41.101900" lon="-3.707400">
        <ele>1579.0</ele>
        <time>2017-09-30T12:37:48Z</time>
      </trkpt>
      <trkpt lat="41.101917" lon="-3.707233">
        <ele>1581.0</ele>
        <time>2017-09-30T12:37:49Z</time>
      </trkpt>
      <trkpt lat="41.101917" lon="-3.707050">
        <ele>1582.0</ele>
        <time>2017-09-30T12:37:50Z</time>
      </trkpt>
      <trkpt lat="41.101900" lon="-3.706867">
        <ele>1583.0</ele>
        <time>2017-09-30T12:37:51Z</time>
      </trkpt>
      <trkpt lat="41.101867" lon="-3.706667">
        <ele>1583.0</ele>
        <time>2017-09-30T12:37:52Z</time>
      </trkpt>
      <trkpt lat="41.101817" lon="-3.706467">
        <ele>1584.0</ele>
        <time>2017-09-30T12:37:53Z</time>
      </trkpt>
      <trkpt lat="41.101733" lon="-3.706317">
        <ele>1586.0</ele>
        <time>2017-09-30T12:37:54Z</time>
      </trkpt>
      <trkpt lat="41.101650" lon="-3.706217">
        <ele>1588.0</ele>
        <time>2017-09-30T12:37:55Z</time>
      </trkpt>
      <trkpt lat="41.101550" lon="-3.706150">
        <ele>1591.0</ele>
        <time>2017-09-30T12:37:56Z</time>
      </trkpt>
      <trkpt lat="41.101467" lon="-3.706100">
        <ele>1593.0</ele>
        <time>2017-09-30T12:37:57Z</time>
      </trkpt>
      <trkpt lat="41.101383" lon="-3.706050">
        <ele>1595.0</ele>
        <time>2017-09-30T12:37:58Z</time>
      </trkpt>
      <trkpt lat="41.101317" lon="-3.706050">
        <ele>1596.0</ele>
        <time>2017-09-30T12:37:59Z</time>
      </trkpt>
      <trkpt lat="41.101267" lon="-3.706067">
        <ele>1596.0</ele>
        <time>2017-09-30T12:38:00Z</time>
      </trkpt>
      <trkpt lat="41.101233" lon="-3.706117">
        <ele>1595.0</ele>
        <time>2017-09-30T12:38:01Z</time>
      </trkpt>
      <trkpt lat="41.101217" lon="-3.706200">
        <ele>1595.0</ele>
        <time>2017-09-30T12:38:02Z</time>
      </trkpt>
      <trkpt lat="41.101200" lon="-3.706250">
        <ele>1597.0</ele>
        <time>2017-09-30T12:38:03Z</time>
      </trkpt>
      <trkpt lat="41.101167" lon="-3.706300">
        <ele>1601.0</ele>
        <time>2017-09-30T12:38:04Z</time>
      </trkpt>
      <trkpt lat="41.101150" lon="-3.706333">
        <ele>1604.0</ele>
        <time>2017-09-30T12:38:05Z</time>
      </trkpt>
      <trkpt lat="41.101133" lon="-3.706350">
        <ele>1606.0</ele>
        <time>2017-09-30T12:38:06Z</time>
      </trkpt>
      <trkpt lat="41.101117" lon="-3.706367">
        <ele>1607.0</ele>
        <time>2017-09-30T12:38:07Z</time>
      </trkpt>
      <trkpt lat="41.101100" lon="-3.706383">
        <ele>1607.0</ele>
        <time>2017-09-30T12:38:08Z</time>
      </trkpt>
      <trkpt lat="41.101100" lon="-3.706433">
        <ele>1607.0</ele>
        <time>2017-09-30T12:38:09Z</time>
      </trkpt>
      <trkpt lat="41.101117" lon="-3.706500">
        <ele>1608.0</ele>
        <time>2017-09-30T12:38:10Z</time>
      </trkpt>
      <trkpt lat="41.101150" lon="-3.706533">
        <ele>1611.0</ele>
        <time>2017-09-30T12:38:11Z</time>
      </trkpt>
      <trkpt lat="41.101217" lon="-3.706533">
        <ele>1613.0</ele>
        <time>2017-09-30T12:38:12Z</time>
      </trkpt>
      <trkpt lat="41.101283" lon="-3.706500">
        <ele>1615.0</ele>
        <time>2017-09-30T12:38:13Z</time>
      </trkpt>
      <trkpt lat="41.101367" lon="-3.706433">
        <ele>1617.0</ele>
        <time>2017-09-30T12:38:14Z</time>
      </trkpt>
      <trkpt lat="41.101450" lon="-3.706317">
        <ele>1618.0</ele>
        <time>2017-09-30T12:38:15Z</time>
      </trkpt>
      <trkpt lat="41.101517" lon="-3.706167">
        <ele>1619.0</ele>
        <time>2017-09-30T12:38:16Z</time>
      </trkpt>
      <trkpt lat="41.101567" lon="-3.706000">
        <ele>1621.0</ele>
        <time>2017-09-30T12:38:17Z</time>
      </trkpt>
      <trkpt lat="41.101583" lon="-3.705817">
        <ele>1623.0</ele>
        <time>2017-09-30T12:38:18Z</time>
      </trkpt>
      <trkpt lat="41.101567" lon="-3.705633">
        <ele>1625.0</ele>
        <time>2017-09-30T12:38:19Z</time>
      </trkpt>
      <trkpt lat="41.101550" lon="-3.705467">
        <ele>1626.0</ele>
        <time>2017-09-30T12:38:20Z</time>
      </trkpt>
      <trkpt lat="41.101500" lon="-3.705300">
        <ele>1628.0</ele>
        <time>2017-09-30T12:38:21Z</time>
      </trkpt>
      <trkpt lat="41.101433" lon="-3.705150">
        <ele>1629.0</ele>
        <time>2017-09-30T12:38:22Z</time>
      </trkpt>
      <trkpt lat="41.101350" lon="-3.705017">
        <ele>1631.0</ele>
        <time>2017-09-30T12:38:23Z</time>
      </trkpt>
      <trkpt lat="41.101283" lon="-3.704917">
        <ele>1632.0</ele>
        <time>2017-09-30T12:38:24Z</time>
      </trkpt>
      <trkpt lat="41.101200" lon="-3.704850">
        <ele>1634.0</ele>
        <time>2017-09-30T12:38:25Z</time>
      </trkpt>
      <trkpt lat="41.101117" lon="-3.704800">
        <ele>1634.0</ele>
        <time>2017-09-30T12:38:26Z</time>
      </trkpt>
      <trkpt lat="41.101033" lon="-3.704783">
        <ele>1634.0</ele>
        <time>2017-09-30T12:38:27Z</time>
      </trkpt>
      <trkpt lat="41.100933" lon="-3.704783">
        <ele>1633.0</ele>
        <time>2017-09-30T12:38:28Z</time>
      </trkpt>
      <trkpt lat="41.100850" lon="-3.704817">
        <ele>1635.0</ele>
        <time>2017-09-30T12:38:29Z</time>
      </trkpt>
      <trkpt lat="41.100783" lon="-3.704833">
        <ele>1638.0</ele>
        <time>2017-09-30T12:38:30Z</time>
      </trkpt>
      <trkpt lat="41.100733" lon="-3.704850">
        <ele>1640.0</ele>
        <time>2017-09-30T12:38:31Z</time>
      </trkpt>
      <trkpt lat="41.100667" lon="-3.704850">
        <ele>1643.0</ele>
        <time>2017-09-30T12:38:32Z</time>
      </trkpt>
      <trkpt lat="41.100617" lon="-3.704867">
        <ele>1644.0</ele>
        <time>2017-09-30T12:38:33Z</time>
      </trkpt>
      <trkpt lat="41.100567" lon="-3.704900">
        <ele>1644.0</ele>
        <time>2017-09-30T12:38:34Z</time>
      </trkpt>
      <trkpt lat="41.100550" lon="-3.704950">
        <ele>1643.0</ele>
        <time>2017-09-30T12:38:35Z</time>
      </trkpt>
      <trkpt lat="41.100583" lon="-3.705017">
        <ele>1642.0</ele>
        <time>2017-09-30T12:38:36Z</time>
      </trkpt>
      <trkpt lat="41.100633" lon="-3.705050">
        <ele>1641.0</ele>
        <time>2017-09-30T12:38:37Z</time>
      </trkpt>
      <trkpt lat="41.100700" lon="-3.705083">
        <ele>1641.0</ele>
        <time>2017-09-30T12:38:38Z</time>
      </trkpt>
      <trkpt lat="41.100767" lon="-3.705083">
        <ele>1643.0</ele>
        <time>2017-09-30T12:38:39Z</time>
      </trkpt>
      <trkpt lat="41.100833" lon="-3.705033">
        <ele>1644.0</ele>
        <time>2017-09-30T12:38:40Z</time>
      </trkpt>
      <trkpt lat="41.100917" lon="-3.704983">
        <ele>1644.0</ele>
        <time>2017-09-30T12:38:41Z</time>
      </trkpt>
      <trkpt lat="41.101017" lon="-3.704900">
        <ele>1645.0</ele>
        <time>2017-09-30T12:38:42Z</time>
      </trkpt>
      <trkpt lat="41.101117" lon="-3.704783">
        <ele>1647.0</ele>
        <time>2017-09-30T12:38:43Z</time>
      </trkpt>
      <trkpt lat="41.101200" lon="-3.704667">
        <ele>1651.0</ele>
        <time>2017-09-30T12:38:44Z</time>
      </trkpt>
      <trkpt lat="41.101250" lon="-3.704517">
        <ele>1654.0</ele>
        <time>2017-09-30T12:38:45Z</time>
      </trkpt>
      <trkpt lat="41.101267" lon="-3.704350">
        <ele>1655.0</ele>
        <time>2017-09-30T12:38:46Z</time>
      </trkpt>
      <trkpt lat="41.101283" lon="-3.704167">
        <ele>1656.0</ele>
        <time>2017-09-30T12:38:47Z</time>
      </trkpt>
      <trkpt lat="41.101267" lon="-3.703983">
        <ele>1656.0</ele>
        <time>2017-09-30T12:38:48Z</time>
      </trkpt>
      <trkpt lat="41.101233" lon="-3.703783">
        <ele>1659.0</ele>
        <time>2017-09-30T12:38:49Z</time>
      </trkpt>
      <trkpt lat="41.101200" lon="-3.703617">
        <ele>1662.0</ele>
        <time>2017-09-30T12:38:50Z</time>
      </trkpt>
      <trkpt lat="41.101150" lon="-3.703467">
        <ele>1666.0</ele>
        <time>2017-09-30T12:38:51Z</time>
      </trkpt>
      <trkpt lat="41.101100" lon="-3.703350">
        <ele>1667.0</ele>
        <time>2017-09-30T12:38:52Z</time>
      </trkpt>
      <trkpt lat="41.101033" lon="-3.703233">
        <ele>1668.0</ele>
        <time>2017-09-30T12:38:53Z</time>
      </trkpt>
      <trkpt lat="41.100950" lon="-3.703133">
        <ele>1669.0</ele>
        <time>2017-09-30T12:38:54Z</time>
      </trkpt>
      <trkpt lat="41.100850" lon="-3.703050">
        <ele>1669.0</ele>
        <time>2017-09-30T12:38:55Z</time>
      </trkpt>
      <trkpt lat="41.100767" lon="-3.702983">
        <ele>1671.0</ele>
        <time>2017-09-30T12:38:56Z</time>
      </trkpt>
      <trkpt lat="41.100667" lon="-3.702950">
        <ele>1673.0</ele>
        <time>2017-09-30T12:38:57Z</time>
      </trkpt>
      <trkpt lat="41.100583" lon="-3.702917">
        <ele>1674.0</ele>
        <time>2017-09-30T12:38:58Z</time>
      </trkpt>
      <trkpt lat="41.100500" lon="-3.702917">
        <ele>1675.0</ele>
        <time>2017-09-30T12:38:59Z</time>
      </trkpt>
      <trkpt lat="41.100433" lon="-3.702933">
        <ele>1675.0</ele>
        <time>2017-09-30T12:39:00Z</time>
      </trkpt>
      <trkpt lat="41.100367" lon="-3.702967">
        <ele>1675.0</ele>
        <time>2017-09-30T12:39:01Z</time>
      </trkpt>
      <trkpt lat="41.100333" lon="-3.703017">
        <ele>1675.0</ele>
        <time>2017-09-30T12:39:02Z</time>
      </trkpt>
      <trkpt lat="41.100350" lon="-3.703067">
        <ele>1676.0</ele>
        <time>2017-09-30T12:39:03Z</time>
      </trkpt>
      <trkpt lat="41.100367" lon="-3.703117">
        <ele>1676.0</ele>
        <time>2017-09-30T12:39:04Z</time>
      </trkpt>
      <trkpt lat="41.100400" lon="-3.703150">
        <ele>1677.0</ele>
        <time>2017-09-30T12:39:05Z</time>
      </trkpt>
      <trkpt lat="41.100400" lon="-3.703183">
        <ele>1678.0</ele>
        <time>2017-09-30T12:39:06Z</time>
      </trkpt>
      <trkpt lat="41.100417" lon="-3.703217">
        <ele>1678.0</ele>
        <time>2017-09-30T12:39:07Z</time>
      </trkpt>
      <trkpt lat="41.100450" lon="-3.703250">
        <ele>1678.0</ele>
        <time>2017-09-30T12:39:08Z</time>
      </trkpt>
      <trkpt lat="41.100483" lon="-3.703300">
        <ele>1678.0</ele>
        <time>2017-09-30T12:39:09Z</time>
      </trkpt>
      <trkpt lat="41.100517" lon="-3.703333">
        <ele>1678.0</ele>
        <time>2017-09-30T12:39:10Z</time>
      </trkpt>
      <trkpt lat="41.100567" lon="-3.703367">
        <ele>1679.0</ele>
        <time>2017-09-30T12:39:11Z</time>
      </trkpt>
      <trkpt lat="41.100600" lon="-3.703417">
        <ele>1680.0</ele>
        <time>2017-09-30T12:39:12Z</time>
      </trkpt>
      <trkpt lat="41.100633" lon="-3.703433">
        <ele>1682.0</ele>
        <time>2017-09-30T12:39:13Z</time>
      </trkpt>
      <trkpt lat="41.100667" lon="-3.703450">
        <ele>1682.0</ele>
        <time>2017-09-30T12:39:14Z</time>
      </trkpt>
      <trkpt lat="41.100733" lon="-3.703467">
        <ele>1682.0</ele>
        <time>2017-09-30T12:39:15Z</time>
      </trkpt>
      <trkpt lat="41.100800" lon="-3.703467">
        <ele>1682.0</ele>
        <time>2017-09-30T12:39:16Z</time>
      </trkpt>
      <trkpt lat="41.100883" lon="-3.703467">
        <ele>1683.0</ele>
        <time>2017-09-30T12:39:17Z</time>
      </trkpt>
      <trkpt lat="41.100967" lon="-3.703433">
        <ele>1684.0</ele>
        <time>2017-09-30T12:39:18Z</time>
      </trkpt>
      <trkpt lat="41.101050" lon="-3.703400">
        <ele>1686.0</ele>
        <time>2017-09-30T12:39:19Z</time>
      </trkpt>
      <trkpt lat="41.101117" lon="-3.703317">
        <ele>1687.0</ele>
        <time>2017-09-30T12:39:20Z</time>
      </trkpt>
      <trkpt lat="41.101200" lon="-3.703183">
        <ele>1687.0</ele>
        <time>2017-09-30T12:39:21Z</time>
      </trkpt>
      <trkpt lat="41.101250" lon="-3.703033">
        <ele>1689.0</ele>
        <time>2017-09-30T12:39:22Z</time>
      </trkpt>
      <trkpt lat="41.101300" lon="-3.702867">
        <ele>1690.0</ele>
        <time>2017-09-30T12:39:23Z</time>
      </trkpt>
      <trkpt lat="41.101300" lon="-3.702683">
        <ele>1692.0</ele>
        <time>2017-09-30T12:39:24Z</time>
      </trkpt>
      <trkpt lat="41.101283" lon="-3.702517">
        <ele>1693.0</ele>
        <time>2017-09-30T12:39:25Z</time>
      </trkpt>
      <trkpt lat="41.101233" lon="-3.702350">
        <ele>1693.0</ele>
        <time>2017-09-30T12:39:26Z</time>
      </trkpt>
      <trkpt lat="41.101167" lon="-3.702183">
        <ele>1694.0</ele>
        <time>2017-09-30T12:39:27Z</time>
      </trkpt>
      <trkpt lat="41.101083" lon="-3.702050">
        <ele>1695.0</ele>
        <time>2017-09-30T12:39:28Z</time>
      </trkpt>
      <trkpt lat="41.100983" lon="-3.701933">
        <ele>1696.0</ele>
        <time>2017-09-30T12:39:29Z</time>
      </trkpt>
      <trkpt lat="41.100900" lon="-3.701833">
        <ele>1699.0</ele>
        <time>2017-09-30T12:39:30Z</time>
      </trkpt>
      <trkpt lat="41.100833" lon="-3.701750">
        <ele>1700.0</ele>
        <time>2017-09-30T12:39:31Z</time>
      </trkpt>
      <trkpt lat="41.100750" lon="-3.701717">
        <ele>1702.0</ele>
        <time>2017-09-30T12:39:32Z</time>
      </trkpt>
      <trkpt lat="41.100683" lon="-3.701700">
        <ele>1703.0</ele>
        <time>2017-09-30T12:39:33Z</time>
      </trkpt>
      <trkpt lat="41.100617" lon="-3.701717">
        <ele>1705.0</ele>
        <time>2017-09-30T12:39:34Z</time>
      </trkpt>
      <trkpt lat="41.100567" lon="-3.701733">
        <ele>1707.0</ele>
        <time>2017-09-30T12:39:35Z</time>
      </trkpt>
      <trkpt lat="41.100567" lon="-3.701750">
        <ele>1708.0</ele>
        <time>2017-09-30T12:39:36Z</time>
      </trkpt>
      <trkpt lat="41.100567" lon="-3.701767">
        <ele>1708.0</ele>
        <time>2017-09-30T12:39:37Z</time>
      </trkpt>
      <trkpt lat="41.100583" lon="-3.701800">
        <ele>1708.0</ele>
        <time>2017-09-30T12:39:38Z</time>
      </trkpt>
      <trkpt lat="41.100617" lon="-3.701833">
        <ele>1708.0</ele>
        <time>2017-09-30T12:39:39Z</time>
      </trkpt>
      <trkpt lat="41.100667" lon="-3.701867">
        <ele>1709.0</ele>
        <time>2017-09-30T12:39:40Z</time>
      </trkpt>
      <trkpt lat="41.100733" lon="-3.701867">
        <ele>1711.0</ele>
        <time>2017-09-30T12:39:41Z</time>
      </trkpt>
      <trkpt lat="41.100800" lon="-3.701850">
        <ele>1712.0</ele>
        <time>2017-09-30T12:39:42Z</time>
      </trkpt>
      <trkpt lat="41.100883" lon="-3.701800">
        <ele>1713.0</ele>
        <time>2017-09-30T12:39:43Z</time>
      </trkpt>
      <trkpt lat="41.100967" lon="-3.701733">
        <ele>1714.0</ele>
        <time>2017-09-30T12:39:44Z</time>
      </trkpt>
      <trkpt lat="41.101050" lon="-3.701617">
        <ele>1715.0</ele>
        <time>2017-09-30T12:39:45Z</time>
      </trkpt>
      <trkpt lat="41.101100" lon="-3.701483">
        <ele>1716.0</ele>
        <time>2017-09-30T12:39:46Z</time>
      </trkpt>
      <trkpt lat="41.101150" lon="-3.701333">
        <ele>1717.0</ele>
        <time>2017-09-30T12:39:47Z</time>
      </trkpt>
      <trkpt lat="41.101167" lon="-3.701167">
        <ele>1718.0</ele>
        <time>2017-09-30T12:39:48Z</time>
      </trkpt>
      <trkpt lat="41.101167" lon="-3.700983">
        <ele>1719.0</ele>
        <time>2017-09-30T12:39:49Z</time>
      </trkpt>
      <trkpt lat="41.101150" lon="-3.700817">
        <ele>1719.0</ele>
        <time>2017-09-30T12:39:50Z</time>
      </trkpt>
      <trkpt lat="41.101117" lon="-3.700650">
        <ele>1719.0</ele>
        <time>2017-09-30T12:39:51Z</time>
      </trkpt>
      <trkpt lat="41.101067" lon="-3.700467">
        <ele>1718.0</ele>
        <time>2017-09-30T12:39:52Z</time>
      </trkpt>
      <trkpt lat="41.101000" lon="-3.700300">
        <ele>1718.0</ele>
        <time>2017-09-30T12:39:53Z</time>
      </trkpt>
      <trkpt lat="41.100900" lon="-3.700167">
        <ele>1718.0</ele>
        <time>2017-09-30T12:39:54Z</time>
      </trkpt>
      <trkpt lat="41.100817" lon="-3.700050">
        <ele>1720.0</ele>
        <time>2017-09-30T12:39:55Z</time>
      </trkpt>
      <trkpt lat="41.100733" lon="-3.699967">
        <ele>1722.0</ele>
        <time>2017-09-30T12:39:56Z</time>
      </trkpt>
      <trkpt lat="41.100650" lon="-3.699900">
        <ele>1724.0</ele>
        <time>2017-09-30T12:39:57Z</time>
      </trkpt>
      <trkpt lat="41.100550" lon="-3.699833">
        <ele>1725.0</ele>
        <time>2017-09-30T12:39:58Z</time>
      </trkpt>
      <trkpt lat="41.100467" lon="-3.699800">
        <ele>1727.0</ele>
        <time>2017-09-30T12:39:59Z</time>
      </trkpt>
      <trkpt lat="41.100383" lon="-3.699783">
        <ele>1728.0</ele>
        <time>2017-09-30T12:40:00Z</time>
      </trkpt>
      <trkpt lat="41.100317" lon="-3.699783">
        <ele>1730.0</ele>
        <time>2017-09-30T12:40:01Z</time>
      </trkpt>
      <trkpt lat="41.100267" lon="-3.699800">
        <ele>1732.0</ele>
        <time>2017-09-30T12:40:02Z</time>
      </trkpt>
      <trkpt lat="41.100217" lon="-3.699850">
        <ele>1733.0</ele>
        <time>2017-09-30T12:40:03Z</time>
      </trkpt>
      <trkpt lat="41.100183" lon="-3.699900">
        <ele>1735.0</ele>
        <time>2017-09-30T12:40:04Z</time>
      </trkpt>
      <trkpt lat="41.100183" lon="-3.699950">
        <ele>1737.0</ele>
        <time>2017-09-30T12:40:05Z</time>
      </trkpt>
      <trkpt lat="41.100200" lon="-3.700017">
        <ele>1739.0</ele>
        <time>2017-09-30T12:40:06Z</time>
      </trkpt>
      <trkpt lat="41.100250" lon="-3.700050">
        <ele>1742.0</ele>
        <time>2017-09-30T12:40:07Z</time>
      </trkpt>
      <trkpt lat="41.100317" lon="-3.700050">
        <ele>1744.0</ele>
        <time>2017-09-30T12:40:08Z</time>
      </trkpt>
      <trkpt lat="41.100383" lon="-3.700017">
        <ele>1745.0</ele>
        <time>2017-09-30T12:40:09Z</time>
      </trkpt>
      <trkpt lat="41.100467" lon="-3.699950">
        <ele>1746.0</ele>
        <time>2017-09-30T12:40:10Z</time>
      </trkpt>
      <trkpt lat="41.100550" lon="-3.699850">
        <ele>1747.0</ele>
        <time>2017-09-30T12:40:11Z</time>
      </trkpt>
      <trkpt lat="41.100617" lon="-3.699733">
        <ele>1747.0</ele>
        <time>2017-09-30T12:40:12Z</time>
      </trkpt>
      <trkpt lat="41.100683" lon="-3.699567">
        <ele>1748.0</ele>
        <time>2017-09-30T12:40:13Z</time>
      </trkpt>
      <trkpt lat="41.100700" lon="-3.699383">
        <ele>1749.0</ele>
        <time>2017-09-30T12:40:14Z</time>
      </trkpt>
      <trkpt lat="41.100700" lon="-3.699200">
        <ele>1751.0</ele>
        <time>2017-09-30T12:40:15Z</time>
      </trkpt>
      <trkpt lat="41.100683" lon="-3.699033">
        <ele>1752.0</ele>
        <time>2017-09-30T12:40:16Z</time>
      </trkpt>
      <trkpt lat="41.100633" lon="-3.698850">
        <ele>1752.0</ele>
        <time>2017-09-30T12:40:17Z</time>
      </trkpt>
      <trkpt lat="41.100567" lon="-3.698683">
        <ele>1752.0</ele>
        <time>2017-09-30T12:40:18Z</time>
      </trkpt>
      <trkpt lat="41.100500" lon="-3.698533">
        <ele>1751.0</ele>
        <time>2017-09-30T12:40:19Z</time>
      </trkpt>
      <trkpt lat="41.100417" lon="-3.698367">
        <ele>1751.0</ele>
        <time>2017-09-30T12:40:20Z</time>
      </trkpt>
      <trkpt lat="41.100317" lon="-3.698233">
        <ele>1753.0</ele>
        <time>2017-09-30T12:40:21Z</time>
      </trkpt>
      <trkpt lat="41.100217" lon="-3.698133">
        <ele>1755.0</ele>
        <time>2017-09-30T12:40:22Z</time>
      </trkpt>
      <trkpt lat="41.100117" lon="-3.698067">
        <ele>1759.0</ele>
        <time>2017-09-30T12:40:23Z</time>
      </trkpt>
      <trkpt lat="41.100033" lon="-3.698017">
        <ele>1762.0</ele>
        <time>2017-09-30T12:40:24Z</time>
      </trkpt>
      <trkpt lat="41.099967" lon="-3.697983">
        <ele>1766.0</ele>
        <time>2017-09-30T12:40:25Z</time>
      </trkpt>
      <trkpt lat="41.099883" lon="-3.697950">
        <ele>1768.0</ele>
        <time>2017-09-30T12:40:26Z</time>
      </trkpt>
      <trkpt lat="41.099817" lon="-3.697933">
        <ele>1769.0</ele>
        <time>2017-09-30T12:40:27Z</time>
      </trkpt>
      <trkpt lat="41.099733" lon="-3.697933">
        <ele>1771.0</ele>
        <time>2017-09-30T12:40:28Z</time>
      </trkpt>
      <trkpt lat="41.099683" lon="-3.697967">
        <ele>1774.0</ele>
        <time>2017-09-30T12:40:29Z</time>
      </trkpt>
      <trkpt lat="41.099650" lon="-3.698017">
        <ele>1778.0</ele>
        <time>2017-09-30T12:40:30Z</time>
      </trkpt>
      <trkpt lat="41.099650" lon="-3.698033">
        <ele>1781.0</ele>
        <time>2017-09-30T12:40:31Z</time>
      </trkpt>
      <trkpt lat="41.099683" lon="-3.698050">
        <ele>1783.0</ele>
        <time>2017-09-30T12:40:32Z</time>
      </trkpt>
      <trkpt lat="41.099717" lon="-3.698050">
        <ele>1784.0</ele>
        <time>2017-09-30T12:40:33Z</time>
      </trkpt>
      <trkpt lat="41.099767" lon="-3.698033">
        <ele>1785.0</ele>
        <time>2017-09-30T12:40:34Z</time>
      </trkpt>
      <trkpt lat="41.099850" lon="-3.698000">
        <ele>1785.0</ele>
        <time>2017-09-30T12:40:35Z</time>
      </trkpt>
      <trkpt lat="41.099933" lon="-3.697933">
        <ele>1786.0</ele>
        <time>2017-09-30T12:40:36Z</time>
      </trkpt>
      <trkpt lat="41.100033" lon="-3.697833">
        <ele>1788.0</ele>
        <time>2017-09-30T12:40:37Z</time>
      </trkpt>
      <trkpt lat="41.100117" lon="-3.697717">
        <ele>1791.0</ele>
        <time>2017-09-30T12:40:38Z</time>
      </trkpt>
      <trkpt lat="41.100167" lon="-3.697567">
        <ele>1793.0</ele>
        <time>2017-09-30T12:40:39Z</time>
      </trkpt>
      <trkpt lat="41.100183" lon="-3.697400">
        <ele>1795.0</ele>
        <time>2017-09-30T12:40:40Z</time>
      </trkpt>
      <trkpt lat="41.100200" lon="-3.697233">
        <ele>1796.0</ele>
        <time>2017-09-30T12:40:41Z</time>
      </trkpt>
      <trkpt lat="41.100183" lon="-3.697050">
        <ele>1796.0</ele>
        <time>2017-09-30T12:40:42Z</time>
      </trkpt>
      <trkpt lat="41.100167" lon="-3.696850">
        <ele>1796.0</ele>
        <time>2017-09-30T12:40:43Z</time>
      </trkpt>
      <trkpt lat="41.100117" lon="-3.696667">
        <ele>1797.0</ele>
        <time>2017-09-30T12:40:44Z</time>
      </trkpt>
      <trkpt lat="41.100067" lon="-3.696483">
        <ele>1798.0</ele>
        <time>2017-09-30T12:40:45Z</time>
      </trkpt>
      <trkpt lat="41.100000" lon="-3.696317">
        <ele>1800.0</ele>
        <time>2017-09-30T12:40:46Z</time>
      </trkpt>
      <trkpt lat="41.099917" lon="-3.696183">
        <ele>1803.0</ele>
        <time>2017-09-30T12:40:47Z</time>
      </trkpt>
      <trkpt lat="41.099817" lon="-3.696067">
        <ele>1806.0</ele>
        <time>2017-09-30T12:40:48Z</time>
      </trkpt>
      <trkpt lat="41.099733" lon="-3.695967">
        <ele>1810.0</ele>
        <time>2017-09-30T12:40:49Z</time>
      </trkpt>
      <trkpt lat="41.099650" lon="-3.695883">
        <ele>1813.0</ele>
        <time>2017-09-30T12:40:50Z</time>
      </trkpt>
      <trkpt lat="41.099567" lon="-3.695833">
        <ele>1815.0</ele>
        <time>2017-09-30T12:40:51Z</time>
      </trkpt>
      <trkpt lat="41.099483" lon="-3.695817">
        <ele>1817.0</ele>
        <time>2017-09-30T12:40:52Z</time>
      </trkpt>
      <trkpt lat="41.099400" lon="-3.695800">
        <ele>1819.0</ele>
        <time>2017-09-30T12:40:53Z</time>
      </trkpt>
      <trkpt lat="41.099333" lon="-3.695817">
        <ele>1821.0</ele>
        <time>2017-09-30T12:40:54Z</time>
      </trkpt>
      <trkpt lat="41.099300" lon="-3.695850">
        <ele>1824.0</ele>
        <time>2017-09-30T12:40:55Z</time>
      </trkpt>
      <trkpt lat="41.099267" lon="-3.695883">
        <ele>1827.0</ele>
        <time>2017-09-30T12:40:56Z</time>
      </trkpt>
      <trkpt lat="41.099250" lon="-3.695917">
        <ele>1829.0</ele>
        <time>2017-09-30T12:40:57Z</time>
      </trkpt>
      <trkpt lat="41.099250" lon="-3.695933">
        <ele>1830.0</ele>
        <time>2017-09-30T12:40:58Z</time>
      </trkpt>
      <trkpt lat="41.099283" lon="-3.695950">
        <ele>1831.0</ele>
        <time>2017-09-30T12:40:59Z</time>
      </trkpt>
      <trkpt lat="41.099317" lon="-3.695983">
        <ele>1831.0</ele>
        <time>2017-09-30T12:41:00Z</time>
      </trkpt>
      <trkpt lat="41.099383" lon="-3.696000">
        <ele>1831.0</ele>
        <time>2017-09-30T12:41:01Z</time>
      </trkpt>
      <trkpt lat="41.099450" lon="-3.696000">
        <ele>1834.0</ele>
        <time>2017-09-30T12:41:02Z</time>
      </trkpt>
      <trkpt lat="41.099517" lon="-3.695967">
        <ele>1838.0</ele>
        <time>2017-09-30T12:41:03Z</time>
      </trkpt>
      <trkpt lat="41.099600" lon="-3.695900">
        <ele>1841.0</ele>
        <time>2017-09-30T12:41:04Z</time>
      </trkpt>
      <trkpt lat="41.099667" lon="-3.695800">
        <ele>1844.0</ele>
        <time>2017-09-30T12:41:05Z</time>
      </trkpt>
      <trkpt lat="41.099733" lon="-3.695700">
        <ele>1847.0</ele>
        <time>2017-09-30T12:41:06Z</time>
      </trkpt>
      <trkpt lat="41.099800" lon="-3.695583">
        <ele>1849.0</ele>
        <time>2017-09-30T12:41:07Z</time>
      </trkpt>
      <trkpt lat="41.099850" lon="-3.695433">
        <ele>1851.0</ele>
        <time>2017-09-30T12:41:08Z</time>
      </trkpt>
      <trkpt lat="41.099883" lon="-3.695267">
        <ele>1852.0</ele>
        <time>2017-09-30T12:41:09Z</time>
      </trkpt>
      <trkpt lat="41.099900" lon="-3.695067">
        <ele>1853.0</ele>
        <time>2017-09-30T12:41:10Z</time>
      </trkpt>
      <trkpt lat="41.099900" lon="-3.694883">
        <ele>1854.0</ele>
        <time>2017-09-30T12:41:11Z</time>
      </trkpt>
      <trkpt lat="41.099883" lon="-3.694683">
        <ele>1856.0</ele>
        <time>2017-09-30T12:41:12Z</time>
      </trkpt>
      <trkpt lat="41.099850" lon="-3.694500">
        <ele>1858.0</ele>
        <time>2017-09-30T12:41:13Z</time>
      </trkpt>
      <trkpt lat="41.099817" lon="-3.694317">
        <ele>1859.0</ele>
        <time>2017-09-30T12:41:14Z</time>
      </trkpt>
      <trkpt lat="41.099767" lon="-3.694150">
        <ele>1859.0</ele>
        <time>2017-09-30T12:41:15Z</time>
      </trkpt>
      <trkpt lat="41.099683" lon="-3.693983">
        <ele>1860.0</ele>
        <time>2017-09-30T12:41:16Z</time>
      </trkpt>
      <trkpt lat="41.099600" lon="-3.693833">
        <ele>1861.0</ele>
        <time>2017-09-30T12:41:17Z</time>
      </trkpt>
      <trkpt lat="41.099517" lon="-3.693700">
        <ele>1864.0</ele>
        <time>2017-09-30T12:41:18Z</time>
      </trkpt>
      <trkpt lat="41.099417" lon="-3.693583">
        <ele>1867.0</ele>
        <time>2017-09-30T12:41:19Z</time>
      </trkpt>
      <trkpt lat="41.099333" lon="-3.693517">
        <ele>1870.0</ele>
        <time>2017-09-30T12:41:20Z</time>
      </trkpt>
      <trkpt lat="41.099233" lon="-3.693483">
        <ele>1871.0</ele>
        <time>2017-09-30T12:41:21Z</time>
      </trkpt>
      <trkpt lat="41.099150" lon="-3.693483">
        <ele>1872.0</ele>
        <time>2017-09-30T12:41:22Z</time>
      </trkpt>
      <trkpt lat="41.099083" lon="-3.693517">
        <ele>1874.0</ele>
        <time>2017-09-30T12:41:23Z</time>
      </trkpt>
      <trkpt lat="41.099033" lon="-3.693567">
        <ele>1877.0</ele>
        <time>2017-09-30T12:41:24Z</time>
      </trkpt>
      <trkpt lat="41.099000" lon="-3.693600">
        <ele>1881.0</ele>
        <time>2017-09-30T12:41:25Z</time>
      </trkpt>
      <trkpt lat="41.099000" lon="-3.693633">
        <ele>1884.0</ele>
        <time>2017-09-30T12:41:26Z</time>
      </trkpt>
      <trkpt lat="41.099017" lon="-3.693650">
        <ele>1887.0</ele>
        <time>2017-09-30T12:41:27Z</time>
      </trkpt>
      <trkpt lat="41.099033" lon="-3.693683">
        <ele>1889.0</ele>
        <time>2017-09-30T12:41:28Z</time>
      </trkpt>
      <trkpt lat="41.099083" lon="-3.693700">
        <ele>1891.0</ele>
        <time>2017-09-30T12:41:29Z</time>
      </trkpt>
      <trkpt lat="41.099133" lon="-3.693700">
        <ele>1892.0</ele>
        <time>2017-09-30T12:41:30Z</time>
      </trkpt>
      <trkpt lat="41.099217" lon="-3.693700">
        <ele>1893.0</ele>
        <time>2017-09-30T12:41:31Z</time>
      </trkpt>
      <trkpt lat="41.099300" lon="-3.693667">
        <ele>1895.0</ele>
        <time>2017-09-30T12:41:32Z</time>
      </trkpt>
      <trkpt lat="41.099400" lon="-3.693583">
        <ele>1898.0</ele>
        <time>2017-09-30T12:41:33Z</time>
      </trkpt>
      <trkpt lat="41.099483" lon="-3.693467">
        <ele>1901.0</ele>
        <time>2017-09-30T12:41:34Z</time>
      </trkpt>
      <trkpt lat="41.099550" lon="-3.693333">
        <ele>1904.0</ele>
        <time>2017-09-30T12:41:35Z</time>
      </trkpt>
      <trkpt lat="41.099600" lon="-3.693183">
        <ele>1906.0</ele>
        <time>2017-09-30T12:41:36Z</time>
      </trkpt>
      <trkpt lat="41.099650" lon="-3.693017">
        <ele>1908.0</ele>
        <time>2017-09-30T12:41:37Z</time>
      </trkpt>
      <trkpt lat="41.099683" lon="-3.692850">
        <ele>1909.0</ele>
        <time>2017-09-30T12:41:38Z</time>
      </trkpt>
      <trkpt lat="41.099717" lon="-3.692683">
        <ele>1911.0</ele>
        <time>2017-09-30T12:41:39Z</time>
      </trkpt>
      <trkpt lat="41.099717" lon="-3.692500">
        <ele>1913.0</ele>
        <time>2017-09-30T12:41:40Z</time>
      </trkpt>
      <trkpt lat="41.099717" lon="-3.692317">
        <ele>1916.0</ele>
        <time>2017-09-30T12:41:41Z</time>
      </trkpt>
      <trkpt lat="41.099683" lon="-3.692133">
        <ele>1918.0</ele>
        <time>2017-09-30T12:41:42Z</time>
      </trkpt>
      <trkpt lat="41.099633" lon="-3.691967">
        <ele>1920.0</ele>
        <time>2017-09-30T12:41:43Z</time>
      </trkpt>
      <trkpt lat="41.099567" lon="-3.691800">
        <ele>1921.0</ele>
        <time>2017-09-30T12:41:44Z</time>
      </trkpt>
      <trkpt lat="41.099517" lon="-3.691667">
        <ele>1922.0</ele>
        <time>2017-09-30T12:41:45Z</time>
      </trkpt>
      <trkpt lat="41.099433" lon="-3.691533">
        <ele>1922.0</ele>
        <time>2017-09-30T12:41:46Z</time>
      </trkpt>
      <trkpt lat="41.099317" lon="-3.691433">
        <ele>1923.0</ele>
        <time>2017-09-30T12:41:47Z</time>
      </trkpt>
      <trkpt lat="41.099217" lon="-3.691367">
        <ele>1925.0</ele>
        <time>2017-09-30T12:41:48Z</time>
      </trkpt>
      <trkpt lat="41.099133" lon="-3.691317">
        <ele>1928.0</ele>
        <time>2017-09-30T12:41:49Z</time>
      </trkpt>
      <trkpt lat="41.099050" lon="-3.691267">
        <ele>1931.0</ele>
        <time>2017-09-30T12:41:50Z</time>
      </trkpt>
      <trkpt lat="41.098983" lon="-3.691250">
        <ele>1933.0</ele>
        <time>2017-09-30T12:41:51Z</time>
      </trkpt>
      <trkpt lat="41.098900" lon="-3.691233">
        <ele>1934.0</ele>
        <time>2017-09-30T12:41:52Z</time>
      </trkpt>
      <trkpt lat="41.098833" lon="-3.691233">
        <ele>1935.0</ele>
        <time>2017-09-30T12:41:53Z</time>
      </trkpt>
      <trkpt lat="41.098783" lon="-3.691267">
        <ele>1937.0</ele>
        <time>2017-09-30T12:41:54Z</time>
      </trkpt>
      <trkpt lat="41.098750" lon="-3.691317">
        <ele>1940.0</ele>
        <time>2017-09-30T12:41:55Z</time>
      </trkpt>
      <trkpt lat="41.098733" lon="-3.691367">
        <ele>1943.0</ele>
        <time>2017-09-30T12:41:56Z</time>
      </trkpt>
      <trkpt lat="41.098733" lon="-3.691400">
        <ele>1946.0</ele>
        <time>2017-09-30T12:41:57Z</time>
      </trkpt>
      <trkpt lat="41.098767" lon="-3.691417">
        <ele>1948.0</ele>
        <time>2017-09-30T12:41:58Z</time>
      </trkpt>
      <trkpt lat="41.098833" lon="-3.691433">
        <ele>1950.0</ele>
        <time>2017-09-30T12:41:59Z</time>
      </trkpt>
      <trkpt lat="41.098900" lon="-3.691417">
        <ele>1953.0</ele>
        <time>2017-09-30T12:42:00Z</time>
      </trkpt>
      <trkpt lat="41.098983" lon="-3.691367">
        <ele>1956.0</ele>
        <time>2017-09-30T12:42:01Z</time>
      </trkpt>
      <trkpt lat="41.099050" lon="-3.691283">
        <ele>1959.0</ele>
        <time>2017-09-30T12:42:02Z</time>
      </trkpt>
      <trkpt lat="41.099117" lon="-3.691150">
        <ele>1961.0</ele>
        <time>2017-09-30T12:42:03Z</time>
      </trkpt>
      <trkpt lat="41.099150" lon="-3.690983">
        <ele>1964.0</ele>
        <time>2017-09-30T12:42:04Z</time>
      </trkpt>
      <trkpt lat="41.099150" lon="-3.690817">
        <ele>1965.0</ele>
        <time>2017-09-30T12:42:05Z</time>
      </trkpt>
      <trkpt lat="41.099150" lon="-3.690633">
        <ele>1966.0</ele>
        <time>2017-09-30T12:42:06Z</time>
      </trkpt>
      <trkpt lat="41.099150" lon="-3.690433">
        <ele>1967.0</ele>
        <time>2017-09-30T12:42:07Z</time>
      </trkpt>
      <trkpt lat="41.099117" lon="-3.690233">
        <ele>1969.0</ele>
        <time>2017-09-30T12:42:08Z</time>
      </trkpt>
      <trkpt lat="41.099067" lon="-3.690050">
        <ele>1970.0</ele>
        <time>2017-09-30T12:42:09Z</time>
      </trkpt>
      <trkpt lat="41.099000" lon="-3.689883">
        <ele>1972.0</ele>
        <time>2017-09-30T12:42:10Z</time>
      </trkpt>
      <trkpt lat="41.098917" lon="-3.689750">
        <ele>1974.0</ele>
        <time>2017-09-30T12:42:11Z</time>
      </trkpt>
      <trkpt lat="41.098833" lon="-3.689617">
        <ele>1977.0</ele>
        <time>2017-09-30T12:42:12Z</time>
      </trkpt>
      <trkpt lat="41.098750" lon="-3.689500">
        <ele>1978.0</ele>
        <time>2017-09-30T12:42:13Z</time>
      </trkpt>
      <trkpt lat="41.098667" lon="-3.689417">
        <ele>1980.0</ele>
        <time>2017-09-30T12:42:14Z</time>
      </trkpt>
      <trkpt lat="41.098583" lon="-3.689367">
        <ele>1981.0</ele>
        <time>2017-09-30T12:42:15Z</time>
      </trkpt>
      <trkpt lat="41.098500" lon="-3.689333">
        <ele>1981.0</ele>
        <time>2017-09-30T12:42:16Z</time>
      </trkpt>
      <trkpt lat="41.098417" lon="-3.689333">
        <ele>1982.0</ele>
        <time>2017-09-30T12:42:17Z</time>
      </trkpt>
      <trkpt lat="41.098350" lon="-3.689350">
        <ele>1983.0</ele>
        <time>2017-09-30T12:42:18Z</time>
      </trkpt>
      <trkpt lat="41.098300" lon="-3.689367">
        <ele>1984.0</ele>
        <time>2017-09-30T12:42:19Z</time>
      </trkpt>
      <trkpt lat="41.098250" lon="-3.689417">
        <ele>1986.0</ele>
        <time>2017-09-30T12:42:20Z</time>
      </trkpt>
      <trkpt lat="41.098233" lon="-3.689467">
        <ele>1988.0</ele>
        <time>2017-09-30T12:42:21Z</time>
      </trkpt>
      <trkpt lat="41.098250" lon="-3.689517">
        <ele>1990.0</ele>
        <time>2017-09-30T12:42:22Z</time>
      </trkpt>
      <trkpt lat="41.098300" lon="-3.689550">
        <ele>1992.0</ele>
        <time>2017-09-30T12:42:23Z</time>
      </trkpt>
      <trkpt lat="41.098367" lon="-3.689533">
        <ele>1995.0</ele>
        <time>2017-09-30T12:42:24Z</time>
      </trkpt>
      <trkpt lat="41.098433" lon="-3.689483">
        <ele>1997.0</ele>
        <time>2017-09-30T12:42:25Z</time>
      </trkpt>
      <trkpt lat="41.098517" lon="-3.689400">
        <ele>1999.0</ele>
        <time>2017-09-30T12:42:26Z</time>
      </trkpt>
      <trkpt lat="41.098583" lon="-3.689267">
        <ele>2001.0</ele>
        <time>2017-09-30T12:42:27Z</time>
      </trkpt>
      <trkpt lat="41.098633" lon="-3.689117">
        <ele>2003.0</ele>
        <time>2017-09-30T12:42:28Z</time>
      </trkpt>
      <trkpt lat="41.098667" lon="-3.688933">
        <ele>2005.0</ele>
        <time>2017-09-30T12:42:29Z</time>
      </trkpt>
      <trkpt lat="41.098650" lon="-3.688750">
        <ele>2007.0</ele>
        <time>2017-09-30T12:42:30Z</time>
      </trkpt>
      <trkpt lat="41.098633" lon="-3.688567">
        <ele>2010.0</ele>
        <time>2017-09-30T12:42:31Z</time>
      </trkpt>
      <trkpt lat="41.098583" lon="-3.688400">
        <ele>2012.0</ele>
        <time>2017-09-30T12:42:32Z</time>
      </trkpt>
      <trkpt lat="41.098517" lon="-3.688233">
        <ele>2014.0</ele>
        <time>2017-09-30T12:42:33Z</time>
      </trkpt>
      <trkpt lat="41.098450" lon="-3.688100">
        <ele>2014.0</ele>
        <time>2017-09-30T12:42:34Z</time>
      </trkpt>
      <trkpt lat="41.098367" lon="-3.687983">
        <ele>2015.0</ele>
        <time>2017-09-30T12:42:35Z</time>
      </trkpt>
      <trkpt lat="41.098283" lon="-3.687883">
        <ele>2016.0</ele>
        <time>2017-09-30T12:42:36Z</time>
      </trkpt>
      <trkpt lat="41.098183" lon="-3.687783">
        <ele>2018.0</ele>
        <time>2017-09-30T12:42:37Z</time>
      </trkpt>
      <trkpt lat="41.098100" lon="-3.687700">
        <ele>2020.0</ele>
        <time>2017-09-30T12:42:38Z</time>
      </trkpt>
      <trkpt lat="41.098033" lon="-3.687633">
        <ele>2021.0</ele>
        <time>2017-09-30T12:42:39Z</time>
      </trkpt>
      <trkpt lat="41.097933" lon="-3.687583">
        <ele>2023.0</ele>
        <time>2017-09-30T12:42:40Z</time>
      </trkpt>
      <trkpt lat="41.097850" lon="-3.687567">
        <ele>2024.0</ele>
        <time>2017-09-30T12:42:41Z</time>
      </trkpt>
      <trkpt lat="41.097750" lon="-3.687567">
        <ele>2024.0</ele>
        <time>2017-09-30T12:42:42Z</time>
      </trkpt>
      <trkpt lat="41.097667" lon="-3.687583">
        <ele>2024.0</ele>
        <time>2017-09-30T12:42:43Z</time>
      </trkpt>
      <trkpt lat="41.097600" lon="-3.687617">
        <ele>2025.0</ele>
        <time>2017-09-30T12:42:44Z</time>
      </trkpt>
      <trkpt lat="41.097550" lon="-3.687667">
        <ele>2027.0</ele>
        <time>2017-09-30T12:42:45Z</time>
      </trkpt>
      <trkpt lat="41.097517" lon="-3.687700">
        <ele>2030.0</ele>
        <time>2017-09-30T12:42:46Z</time>
      </trkpt>
      <trkpt lat="41.097483" lon="-3.687717">
        <ele>2032.0</ele>
        <time>2017-09-30T12:42:47Z</time>
      </trkpt>
      <trkpt lat="41.097433" lon="-3.687733">
        <ele>2034.0</ele>
        <time>2017-09-30T12:42:48Z</time>
      </trkpt>
      <trkpt lat="41.097383" lon="-3.687750">
        <ele>2035.0</ele>
        <time>2017-09-30T12:42:49Z</time>
      </trkpt>
      <trkpt lat="41.097317" lon="-3.687783">
        <ele>2036.0</ele>
        <time>2017-09-30T12:42:50Z</time>
      </trkpt>
      <trkpt lat="41.097283" lon="-3.687833">
        <ele>2040.0</ele>
        <time>2017-09-30T12:42:51Z</time>
      </trkpt>
      <trkpt lat="41.097283" lon="-3.687867">
        <ele>2043.0</ele>
        <time>2017-09-30T12:42:52Z</time>
      </trkpt>
      <trkpt lat="41.097317" lon="-3.687867">
        <ele>2046.0</ele>
        <time>2017-09-30T12:42:53Z</time>
      </trkpt>
      <trkpt lat="41.097367" lon="-3.687867">
        <ele>2048.0</ele>
        <time>2017-09-30T12:42:54Z</time>
      </trkpt>
      <trkpt lat="41.097417" lon="-3.687833">
        <ele>2051.0</ele>
        <time>2017-09-30T12:42:55Z</time>
      </trkpt>
      <trkpt lat="41.097483" lon="-3.687817">
        <ele>2053.0</ele>
        <time>2017-09-30T12:42:56Z</time>
      </trkpt>
      <trkpt lat="41.097550" lon="-3.687767">
        <ele>2056.0</ele>
        <time>2017-09-30T12:42:57Z</time>
      </trkpt>
      <trkpt lat="41.097617" lon="-3.687717">
        <ele>2058.0</ele>
        <time>2017-09-30T12:42:58Z</time>
      </trkpt>
      <trkpt lat="41.097683" lon="-3.687667">
        <ele>2061.0</ele>
        <time>2017-09-30T12:42:59Z</time>
      </trkpt>
      <trkpt lat="41.097750" lon="-3.687617">
        <ele>2064.0</ele>
        <time>2017-09-30T12:43:00Z</time>
      </trkpt>
      <trkpt lat="41.097817" lon="-3.687567">
        <ele>2067.0</ele>
        <time>2017-09-30T12:43:01Z</time>
      </trkpt>
      <trkpt lat="41.097883" lon="-3.687517">
        <ele>2070.0</ele>
        <time>2017-09-30T12:43:02Z</time>
      </trkpt>
      <trkpt lat="41.097950" lon="-3.687483">
        <ele>2073.0</ele>
        <time>2017-09-30T12:43:03Z</time>
      </trkpt>
      <trkpt lat="41.098017" lon="-3.687417">
        <ele>2076.0</ele>
        <time>2017-09-30T12:43:04Z</time>
      </trkpt>
      <trkpt lat="41.098083" lon="-3.687383">
        <ele>2078.0</ele>
        <time>2017-09-30T12:43:05Z</time>
      </trkpt>
      <trkpt lat="41.098150" lon="-3.687333">
        <ele>2080.0</ele>
        <time>2017-09-30T12:43:06Z</time>
      </trkpt>
      <trkpt lat="41.098217" lon="-3.687300">
        <ele>2082.0</ele>
        <time>2017-09-30T12:43:07Z</time>
      </trkpt>
      <trkpt lat="41.098283" lon="-3.687250">
        <ele>2083.0</ele>
        <time>2017-09-30T12:43:08Z</time>
      </trkpt>
      <trkpt lat="41.098367" lon="-3.687167">
        <ele>2085.0</ele>
        <time>2017-09-30T12:43:09Z</time>
      </trkpt>
      <trkpt lat="41.098450" lon="-3.687067">
        <ele>2087.0</ele>
        <time>2017-09-30T12:43:10Z</time>
      </trkpt>
      <trkpt lat="41.098517" lon="-3.686950">
        <ele>2089.0</ele>
        <time>2017-09-30T12:43:11Z</time>
      </trkpt>
      <trkpt lat="41.098583" lon="-3.686817">
        <ele>2091.0</ele>
        <time>2017-09-30T12:43:12Z</time>
      </trkpt>
      <trkpt lat="41.098633" lon="-3.686633">
        <ele>2093.0</ele>
        <time>2017-09-30T12:43:13Z</time>
      </trkpt>
      <trkpt lat="41.098650" lon="-3.686450">
        <ele>2095.0</ele>
        <time>2017-09-30T12:43:14Z</time>
      </trkpt>
      <trkpt lat="41.098667" lon="-3.686250">
        <ele>2097.0</ele>
        <time>2017-09-30T12:43:15Z</time>
      </trkpt>
      <trkpt lat="41.098667" lon="-3.686067">
        <ele>2101.0</ele>
        <time>2017-09-30T12:43:16Z</time>
      </trkpt>
      <trkpt lat="41.098650" lon="-3.685883">
        <ele>2104.0</ele>
        <time>2017-09-30T12:43:17Z</time>
      </trkpt>
      <trkpt lat="41.098617" lon="-3.685717">
        <ele>2106.0</ele>
        <time>2017-09-30T12:43:18Z</time>
      </trkpt>
      <trkpt lat="41.098567" lon="-3.685550">
        <ele>2107.0</ele>
        <time>2017-09-30T12:43:19Z</time>
      </trkpt>
      <trkpt lat="41.098500" lon="-3.685400">
        <ele>2108.0</ele>
        <time>2017-09-30T12:43:20Z</time>
      </trkpt>
      <trkpt lat="41.098433" lon="-3.685250">
        <ele>2109.0</ele>
        <time>2017-09-30T12:43:21Z</time>
      </trkpt>
      <trkpt lat="41.098350" lon="-3.685117">
        <ele>2111.0</ele>
        <time>2017-09-30T12:43:22Z</time>
      </trkpt>
      <trkpt lat="41.098250" lon="-3.685017">
        <ele>2112.0</ele>
        <time>2017-09-30T12:43:23Z</time>
      </trkpt>
      <trkpt lat="41.098150" lon="-3.684950">
        <ele>2113.0</ele>
        <time>2017-09-30T12:43:24Z</time>
      </trkpt>
      <trkpt lat="41.098050" lon="-3.684917">
        <ele>2114.0</ele>
        <time>2017-09-30T12:43:25Z</time>
      </trkpt>
      <trkpt lat="41.097950" lon="-3.684900">
        <ele>2114.0</ele>
        <time>2017-09-30T12:43:26Z</time>
      </trkpt>
      <trkpt lat="41.097867" lon="-3.684917">
        <ele>2116.0</ele>
        <time>2017-09-30T12:43:27Z</time>
      </trkpt>
      <trkpt lat="41.097800" lon="-3.684933">
        <ele>2118.0</ele>
        <time>2017-09-30T12:43:28Z</time>
      </trkpt>
      <trkpt lat="41.097750" lon="-3.684950">
        <ele>2120.0</ele>
        <time>2017-09-30T12:43:29Z</time>
      </trkpt>
      <trkpt lat="41.097717" lon="-3.684983">
        <ele>2123.0</ele>
        <time>2017-09-30T12:43:30Z</time>
      </trkpt>
      <trkpt lat="41.097683" lon="-3.685033">
        <ele>2125.0</ele>
        <time>2017-09-30T12:43:31Z</time>
      </trkpt>
      <trkpt lat="41.097700" lon="-3.685067">
        <ele>2126.0</ele>
        <time>2017-09-30T12:43:32Z</time>
      </trkpt>
      <trkpt lat="41.097717" lon="-3.685100">
        <ele>2128.0</ele>
        <time>2017-09-30T12:43:33Z</time>
      </trkpt>
      <trkpt lat="41.097750" lon="-3.685117">
        <ele>2130.0</ele>
        <time>2017-09-30T12:43:34Z</time>
      </trkpt>
      <trkpt lat="41.097817" lon="-3.685117">
        <ele>2131.0</ele>
        <time>2017-09-30T12:43:35Z</time>
      </trkpt>
      <trkpt lat="41.097883" lon="-3.685117">
        <ele>2133.0</ele>
        <time>2017-09-30T12:43:36Z</time>
      </trkpt>
      <trkpt lat="41.097950" lon="-3.685083">
        <ele>2135.0</ele>
        <time>2017-09-30T12:43:37Z</time>
      </trkpt>
      <trkpt lat="41.098033" lon="-3.685033">
        <ele>2139.0</ele>
        <time>2017-09-30T12:43:38Z</time>
      </trkpt>
      <trkpt lat="41.098117" lon="-3.684967">
        <ele>2142.0</ele>
        <time>2017-09-30T12:43:39Z</time>
      </trkpt>
      <trkpt lat="41.098183" lon="-3.684867">
        <ele>2144.0</ele>
        <time>2017-09-30T12:43:40Z</time>
      </trkpt>
      <trkpt lat="41.098233" lon="-3.684733">
        <ele>2146.0</ele>
        <time>2017-09-30T12:43:41Z</time>
      </trkpt>
      <trkpt lat="41.098300" lon="-3.684600">
        <ele>2148.0</ele>
        <time>2017-09-30T12:43:42Z</time>
      </trkpt>
      <trkpt lat="41.098350" lon="-3.684450">
        <ele>2150.0</ele>
        <time>2017-09-30T12:43:43Z</time>
      </trkpt>
      <trkpt lat="41.098417" lon="-3.684300">
        <ele>2151.0</ele>
        <time>2017-09-30T12:43:44Z</time>
      </trkpt>
      <trkpt lat="41.098483" lon="-3.684150">
        <ele>2153.0</ele>
        <time>2017-09-30T12:43:45Z</time>
      </trkpt>
      <trkpt lat="41.098533" lon="-3.684000">
        <ele>2156.0</ele>
        <time>2017-09-30T12:43:46Z</time>
      </trkpt>
      <trkpt lat="41.098567" lon="-3.683850">
        <ele>2158.0</ele>
        <time>2017-09-30T12:43:47Z</time>
      </trkpt>
      <trkpt lat="41.098600" lon="-3.683700">
        <ele>2160.0</ele>
        <time>2017-09-30T12:43:48Z</time>
      </trkpt>
      <trkpt lat="41.098617" lon="-3.683550">
        <ele>2160.0</ele>
        <time>2017-09-30T12:43:49Z</time>
      </trkpt>
      <trkpt lat="41.098633" lon="-3.683400">
        <ele>2160.0</ele>
        <time>2017-09-30T12:43:50Z</time>
      </trkpt>
      <trkpt lat="41.098667" lon="-3.683250">
        <ele>2160.0</ele>
        <time>2017-09-30T12:43:51Z</time>
      </trkpt>
      <trkpt lat="41.098667" lon="-3.683100">
        <ele>2159.0</ele>
        <time>2017-09-30T12:43:52Z</time>
      </trkpt>
      <trkpt lat="41.098667" lon="-3.682933">
        <ele>2159.0</ele>
        <time>2017-09-30T12:43:53Z</time>
      </trkpt>
      <trkpt lat="41.098667" lon="-3.682767">
        <ele>2159.0</ele>
        <time>2017-09-30T12:43:54Z</time>
      </trkpt>
      <trkpt lat="41.098633" lon="-3.682600">
        <ele>2159.0</ele>
        <time>2017-09-30T12:43:55Z</time>
      </trkpt>
      <trkpt lat="41.098617" lon="-3.682450">
        <ele>2160.0</ele>
        <time>2017-09-30T12:43:56Z</time>
      </trkpt>
      <trkpt lat="41.098617" lon="-3.682300">
        <ele>2159.0</ele>
        <time>2017-09-30T12:43:57Z</time>
      </trkpt>
      <trkpt lat="41.098650" lon="-3.682133">
        <ele>2158.0</ele>
        <time>2017-09-30T12:43:58Z</time>
      </trkpt>
      <trkpt lat="41.098700" lon="-3.682000">
        <ele>2156.0</ele>
        <time>2017-09-30T12:43:59Z</time>
      </trkpt>
      <trkpt lat="41.098750" lon="-3.681867">
        <ele>2156.0</ele>
        <time>2017-09-30T12:44:00Z</time>
      </trkpt>
      <trkpt lat="41.098817" lon="-3.681767">
        <ele>2156.0</ele>
        <time>2017-09-30T12:44:01Z</time>
      </trkpt>
      <trkpt lat="41.098883" lon="-3.681667">
        <ele>2157.0</ele>
        <time>2017-09-30T12:44:02Z</time>
      </trkpt>
      <trkpt lat="41.098933" lon="-3.681600">
        <ele>2158.0</ele>
        <time>2017-09-30T12:44:03Z</time>
      </trkpt>
      <trkpt lat="41.098983" lon="-3.681517">
        <ele>2158.0</ele>
        <time>2017-09-30T12:44:04Z</time>
      </trkpt>
      <trkpt lat="41.099050" lon="-3.681450">
        <ele>2158.0</ele>
        <time>2017-09-30T12:44:05Z</time>
      </trkpt>
      <trkpt lat="41.099117" lon="-3.681383">
        <ele>2158.0</ele>
        <time>2017-09-30T12:44:06Z</time>
      </trkpt>
      <trkpt lat="41.099200" lon="-3.681317">
        <ele>2158.0</ele>
        <time>2017-09-30T12:44:07Z</time>
      </trkpt>
      <trkpt lat="41.099267" lon="-3.681250">
        <ele>2159.0</ele>
        <time>2017-09-30T12:44:08Z</time>
      </trkpt>
      <trkpt lat="41.099333" lon="-3.681183">
        <ele>2160.0</ele>
        <time>2017-09-30T12:44:09Z</time>
      </trkpt>
      <trkpt lat="41.099400" lon="-3.681133">
        <ele>2160.0</ele>
        <time>2017-09-30T12:44:10Z</time>
      </trkpt>
      <trkpt lat="41.099450" lon="-3.681100">
        <ele>2161.0</ele>
        <time>2017-09-30T12:44:11Z</time>
      </trkpt>
      <trkpt lat="41.099517" lon="-3.681050">
        <ele>2161.0</ele>
        <time>2017-09-30T12:44:12Z</time>
      </trkpt>
      <trkpt lat="41.099600" lon="-3.681033">
        <ele>2161.0</ele>
        <time>2017-09-30T12:44:13Z</time>
      </trkpt>
      <trkpt lat="41.099667" lon="-3.681000">
        <ele>2161.0</ele>
        <time>2017-09-30T12:44:14Z</time>
      </trkpt>
      <trkpt lat="41.099733" lon="-3.680967">
        <ele>2160.0</ele>
        <time>2017-09-30T12:44:15Z</time>
      </trkpt>
      <trkpt lat="41.099800" lon="-3.680967">
        <ele>2160.0</ele>
        <time>2017-09-30T12:44:16Z</time>
      </trkpt>
      <trkpt lat="41.099867" lon="-3.680950">
        <ele>2159.0</ele>
        <time>2017-09-30T12:44:17Z</time>
      </trkpt>
      <trkpt lat="41.099950" lon="-3.680933">
        <ele>2159.0</ele>
        <time>2017-09-30T12:44:18Z</time>
      </trkpt>
      <trkpt lat="41.100017" lon="-3.680917">
        <ele>2159.0</ele>
        <time>2017-09-30T12:44:19Z</time>
      </trkpt>
      <trkpt lat="41.100083" lon="-3.680867">
        <ele>2159.0</ele>
        <time>2017-09-30T12:44:20Z</time>
      </trkpt>
      <trkpt lat="41.100150" lon="-3.680833">
        <ele>2160.0</ele>
        <time>2017-09-30T12:44:21Z</time>
      </trkpt>
      <trkpt lat="41.100233" lon="-3.680783">
        <ele>2160.0</ele>
        <time>2017-09-30T12:44:22Z</time>
      </trkpt>
      <trkpt lat="41.100300" lon="-3.680733">
        <ele>2159.0</ele>
        <time>2017-09-30T12:44:23Z</time>
      </trkpt>
      <trkpt lat="41.100367" lon="-3.680683">
        <ele>2159.0</ele>
        <time>2017-09-30T12:44:24Z</time>
      </trkpt>
      <trkpt lat="41.100433" lon="-3.680617">
        <ele>2160.0</ele>
        <time>2017-09-30T12:44:25Z</time>
      </trkpt>
      <trkpt lat="41.100500" lon="-3.680567">
        <ele>2159.0</ele>
        <time>2017-09-30T12:44:26Z</time>
      </trkpt>
      <trkpt lat="41.100567" lon="-3.680500">
        <ele>2159.0</ele>
        <time>2017-09-30T12:44:27Z</time>
      </trkpt>
      <trkpt lat="41.100633" lon="-3.680433">
        <ele>2157.0</ele>
        <time>2017-09-30T12:44:28Z</time>
      </trkpt>
      <trkpt lat="41.100717" lon="-3.680367">
        <ele>2155.0</ele>
        <time>2017-09-30T12:44:29Z</time>
      </trkpt>
      <trkpt lat="41.100783" lon="-3.680283">
        <ele>2154.0</ele>
        <time>2017-09-30T12:44:30Z</time>
      </trkpt>
      <trkpt lat="41.100867" lon="-3.680217">
        <ele>2153.0</ele>
        <time>2017-09-30T12:44:31Z</time>
      </trkpt>
      <trkpt lat="41.100933" lon="-3.680133">
        <ele>2152.0</ele>
        <time>2017-09-30T12:44:32Z</time>
      </trkpt>
      <trkpt lat="41.101017" lon="-3.680050">
        <ele>2151.0</ele>
        <time>2017-09-30T12:44:33Z</time>
      </trkpt>
      <trkpt lat="41.101083" lon="-3.679983">
        <ele>2149.0</ele>
        <time>2017-09-30T12:44:34Z</time>
      </trkpt>
      <trkpt lat="41.101150" lon="-3.679917">
        <ele>2147.0</ele>
        <time>2017-09-30T12:44:35Z</time>
      </trkpt>
      <trkpt lat="41.101217" lon="-3.679867">
        <ele>2145.0</ele>
        <time>2017-09-30T12:44:36Z</time>
      </trkpt>
      <trkpt lat="41.101300" lon="-3.679800">
        <ele>2143.0</ele>
        <time>2017-09-30T12:44:37Z</time>
      </trkpt>
      <trkpt lat="41.101367" lon="-3.679733">
        <ele>2142.0</ele>
        <time>2017-09-30T12:44:38Z</time>
      </trkpt>
      <trkpt lat="41.101433" lon="-3.679667">
        <ele>2141.0</ele>
        <time>2017-09-30T12:44:39Z</time>
      </trkpt>
      <trkpt lat="41.101500" lon="-3.679600">
        <ele>2139.0</ele>
        <time>2017-09-30T12:44:40Z</time>
      </trkpt>
      <trkpt lat="41.101583" lon="-3.679550">
        <ele>2137.0</ele>
        <time>2017-09-30T12:44:41Z</time>
      </trkpt>
      <trkpt lat="41.101650" lon="-3.679500">
        <ele>2136.0</ele>
        <time>2017-09-30T12:44:42Z</time>
      </trkpt>
      <trkpt lat="41.101717" lon="-3.679450">
        <ele>2134.0</ele>
        <time>2017-09-30T12:44:43Z</time>
      </trkpt>
      <trkpt lat="41.101783" lon="-3.679417">
        <ele>2133.0</ele>
        <time>2017-09-30T12:44:44Z</time>
      </trkpt>
      <trkpt lat="41.101833" lon="-3.679367">
        <ele>2131.0</ele>
        <time>2017-09-30T12:44:45Z</time>
      </trkpt>
      <trkpt lat="41.101900" lon="-3.679317">
        <ele>2128.0</ele>
        <time>2017-09-30T12:44:46Z</time>
      </trkpt>
      <trkpt lat="41.101983" lon="-3.679267">
        <ele>2126.0</ele>
        <time>2017-09-30T12:44:47Z</time>
      </trkpt>
      <trkpt lat="41.102067" lon="-3.679217">
        <ele>2124.0</ele>
        <time>2017-09-30T12:44:48Z</time>
      </trkpt>
      <trkpt lat="41.102133" lon="-3.679150">
        <ele>2123.0</ele>
        <time>2017-09-30T12:44:49Z</time>
      </trkpt>
      <trkpt lat="41.102200" lon="-3.679100">
        <ele>2122.0</ele>
        <time>2017-09-30T12:44:50Z</time>
      </trkpt>
      <trkpt lat="41.102267" lon="-3.679050">
        <ele>2121.0</ele>
        <time>2017-09-30T12:44:51Z</time>
      </trkpt>
      <trkpt lat="41.102317" lon="-3.679017">
        <ele>2120.0</ele>
        <time>2017-09-30T12:44:52Z</time>
      </trkpt>
      <trkpt lat="41.102383" lon="-3.678967">
        <ele>2119.0</ele>
        <time>2017-09-30T12:44:53Z</time>
      </trkpt>
      <trkpt lat="41.102450" lon="-3.678933">
        <ele>2117.0</ele>
        <time>2017-09-30T12:44:54Z</time>
      </trkpt>
      <trkpt lat="41.102500" lon="-3.678883">
        <ele>2117.0</ele>
        <time>2017-09-30T12:44:55Z</time>
      </trkpt>
      <trkpt lat="41.102550" lon="-3.678817">
        <ele>2115.0</ele>
        <time>2017-09-30T12:44:56Z</time>
      </trkpt>
      <trkpt lat="41.102600" lon="-3.678750">
        <ele>2114.0</ele>
        <time>2017-09-30T12:44:57Z</time>
      </trkpt>
      <trkpt lat="41.102667" lon="-3.678683">
        <ele>2112.0</ele>
        <time>2017-09-30T12:44:58Z</time>
      </trkpt>
      <trkpt lat="41.102717" lon="-3.678633">
        <ele>2110.0</ele>
        <time>2017-09-30T12:44:59Z</time>
      </trkpt>
      <trkpt lat="41.102783" lon="-3.678583">
        <ele>2109.0</ele>
        <time>2017-09-30T12:45:00Z</time>
      </trkpt>
      <trkpt lat="41.102850" lon="-3.678517">
        <ele>2108.0</ele>
        <time>2017-09-30T12:45:01Z</time>
      </trkpt>
      <trkpt lat="41.102900" lon="-3.678450">
        <ele>2106.0</ele>
        <time>2017-09-30T12:45:02Z</time>
      </trkpt>
      <trkpt lat="41.102950" lon="-3.678383">
        <ele>2105.0</ele>
        <time>2017-09-30T12:45:03Z</time>
      </trkpt>
      <trkpt lat="41.103000" lon="-3.678317">
        <ele>2104.0</ele>
        <time>2017-09-30T12:45:04Z</time>
      </trkpt>
      <trkpt lat="41.103050" lon="-3.678233">
        <ele>2102.0</ele>
        <time>2017-09-30T12:45:05Z</time>
      </trkpt>
      <trkpt lat="41.103100" lon="-3.678150">
        <ele>2101.0</ele>
        <time>2017-09-30T12:45:06Z</time>
      </trkpt>
      <trkpt lat="41.103150" lon="-3.678067">
        <ele>2098.0</ele>
        <time>2017-09-30T12:45:07Z</time>
      </trkpt>
      <trkpt lat="41.103217" lon="-3.677967">
        <ele>2096.0</ele>
        <time>2017-09-30T12:45:08Z</time>
      </trkpt>
      <trkpt lat="41.103267" lon="-3.677883">
        <ele>2094.0</ele>
        <time>2017-09-30T12:45:09Z</time>
      </trkpt>
      <trkpt lat="41.103333" lon="-3.677783">
        <ele>2092.0</ele>
        <time>2017-09-30T12:45:10Z</time>
      </trkpt>
      <trkpt lat="41.103400" lon="-3.677683">
        <ele>2091.0</ele>
        <time>2017-09-30T12:45:11Z</time>
      </trkpt>
      <trkpt lat="41.103467" lon="-3.677583">
        <ele>2090.0</ele>
        <time>2017-09-30T12:45:12Z</time>
      </trkpt>
      <trkpt lat="41.103533" lon="-3.677500">
        <ele>2090.0</ele>
        <time>2017-09-30T12:45:13Z</time>
      </trkpt>
      <trkpt lat="41.103600" lon="-3.677417">
        <ele>2089.0</ele>
        <time>2017-09-30T12:45:14Z</time>
      </trkpt>
      <trkpt lat="41.103667" lon="-3.677333">
        <ele>2088.0</ele>
        <time>2017-09-30T12:45:15Z</time>
      </trkpt>
      <trkpt lat="41.103733" lon="-3.677233">
        <ele>2088.0</ele>
        <time>2017-09-30T12:45:16Z</time>
      </trkpt>
      <trkpt lat="41.103800" lon="-3.677117">
        <ele>2087.0</ele>
        <time>2017-09-30T12:45:17Z</time>
      </trkpt>
      <trkpt lat="41.103867" lon="-3.677017">
        <ele>2086.0</ele>
        <time>2017-09-30T12:45:18Z</time>
      </trkpt>
      <trkpt lat="41.103933" lon="-3.676917">
        <ele>2086.0</ele>
        <time>2017-09-30T12:45:19Z</time>
      </trkpt>
      <trkpt lat="41.104000" lon="-3.676833">
        <ele>2085.0</ele>
        <time>2017-09-30T12:45:20Z</time>
      </trkpt>
      <trkpt lat="41.104067" lon="-3.676750">
        <ele>2085.0</ele>
        <time>2017-09-30T12:45:21Z</time>
      </trkpt>
      <trkpt lat="41.104133" lon="-3.676667">
        <ele>2084.0</ele>
        <time>2017-09-30T12:45:22Z</time>
      </trkpt>
      <trkpt lat="41.104200" lon="-3.676567">
        <ele>2083.0</ele>
        <time>2017-09-30T12:45:23Z</time>
      </trkpt>
      <trkpt lat="41.104267" lon="-3.676450">
        <ele>2083.0</ele>
        <time>2017-09-30T12:45:24Z</time>
      </trkpt>
      <trkpt lat="41.104333" lon="-3.676350">
        <ele>2083.0</ele>
        <time>2017-09-30T12:45:25Z</time>
      </trkpt>
      <trkpt lat="41.104417" lon="-3.676267">
        <ele>2083.0</ele>
        <time>2017-09-30T12:45:26Z</time>
      </trkpt>
      <trkpt lat="41.104483" lon="-3.676183">
        <ele>2083.0</ele>
        <time>2017-09-30T12:45:27Z</time>
      </trkpt>
      <trkpt lat="41.104567" lon="-3.676117">
        <ele>2084.0</ele>
        <time>2017-09-30T12:45:28Z</time>
      </trkpt>
      <trkpt lat="41.104633" lon="-3.676050">
        <ele>2085.0</ele>
        <time>2017-09-30T12:45:29Z</time>
      </trkpt>
      <trkpt lat="41.104700" lon="-3.676017">
        <ele>2085.0</ele>
        <time>2017-09-30T12:45:30Z</time>
      </trkpt>
      <trkpt lat="41.104767" lon="-3.675967">
        <ele>2085.0</ele>
        <time>2017-09-30T12:45:31Z</time>
      </trkpt>
      <trkpt lat="41.104850" lon="-3.675917">
        <ele>2085.0</ele>
        <time>2017-09-30T12:45:32Z</time>
      </trkpt>
      <trkpt lat="41.104917" lon="-3.675883">
        <ele>2086.0</ele>
        <time>2017-09-30T12:45:33Z</time>
      </trkpt>
      <trkpt lat="41.104983" lon="-3.675833">
        <ele>2086.0</ele>
        <time>2017-09-30T12:45:34Z</time>
      </trkpt>
      <trkpt lat="41.105050" lon="-3.675783">
        <ele>2086.0</ele>
        <time>2017-09-30T12:45:35Z</time>
      </trkpt>
      <trkpt lat="41.105117" lon="-3.675733">
        <ele>2086.0</ele>
        <time>2017-09-30T12:45:36Z</time>
      </trkpt>
      <trkpt lat="41.105183" lon="-3.675683">
        <ele>2086.0</ele>
        <time>2017-09-30T12:45:37Z</time>
      </trkpt>
      <trkpt lat="41.105250" lon="-3.675633">
        <ele>2085.0</ele>
        <time>2017-09-30T12:45:38Z</time>
      </trkpt>
      <trkpt lat="41.105317" lon="-3.675550">
        <ele>2084.0</ele>
        <time>2017-09-30T12:45:39Z</time>
      </trkpt>
      <trkpt lat="41.105383" lon="-3.675450">
        <ele>2084.0</ele>
        <time>2017-09-30T12:45:40Z</time>
      </trkpt>
      <trkpt lat="41.105450" lon="-3.675350">
        <ele>2084.0</ele>
        <time>2017-09-30T12:45:41Z</time>
      </trkpt>
      <trkpt lat="41.105517" lon="-3.675250">
        <ele>2084.0</ele>
        <time>2017-09-30T12:45:42Z</time>
      </trkpt>
      <trkpt lat="41.105583" lon="-3.675150">
        <ele>2085.0</ele>
        <time>2017-09-30T12:45:43Z</time>
      </trkpt>
      <trkpt lat="41.105633" lon="-3.675050">
        <ele>2086.0</ele>
        <time>2017-09-30T12:45:44Z</time>
      </trkpt>
      <trkpt lat="41.105683" lon="-3.674917">
        <ele>2086.0</ele>
        <time>2017-09-30T12:45:45Z</time>
      </trkpt>
      <trkpt lat="41.105717" lon="-3.674767">
        <ele>2086.0</ele>
        <time>2017-09-30T12:45:46Z</time>
      </trkpt>
      <trkpt lat="41.105750" lon="-3.674600">
        <ele>2086.0</ele>
        <time>2017-09-30T12:45:47Z</time>
      </trkpt>
      <trkpt lat="41.105783" lon="-3.674433">
        <ele>2088.0</ele>
        <time>2017-09-30T12:45:48Z</time>
      </trkpt>
      <trkpt lat="41.105783" lon="-3.674267">
        <ele>2089.0</ele>
        <time>2017-09-30T12:45:49Z</time>
      </trkpt>
      <trkpt lat="41.105767" lon="-3.674117">
        <ele>2089.0</ele>
        <time>2017-09-30T12:45:50Z</time>
      </trkpt>
      <trkpt lat="41.105733" lon="-3.673950">
        <ele>2088.0</ele>
        <time>2017-09-30T12:45:51Z</time>
      </trkpt>
      <trkpt lat="41.105683" lon="-3.673783">
        <ele>2088.0</ele>
        <time>2017-09-30T12:45:52Z</time>
      </trkpt>
      <trkpt lat="41.105617" lon="-3.673617">
        <ele>2088.0</ele>
        <time>2017-09-30T12:45:53Z</time>
      </trkpt>
      <trkpt lat="41.105550" lon="-3.673467">
        <ele>2088.0</ele>
        <time>2017-09-30T12:45:54Z</time>
      </trkpt>
      <trkpt lat="41.105467" lon="-3.673333">
        <ele>2088.0</ele>
        <time>2017-09-30T12:45:55Z</time>
      </trkpt>
      <trkpt lat="41.105383" lon="-3.673217">
        <ele>2088.0</ele>
        <time>2017-09-30T12:45:56Z</time>
      </trkpt>
      <trkpt lat="41.105283" lon="-3.673100">
        <ele>2088.0</ele>
        <time>2017-09-30T12:45:57Z</time>
      </trkpt>
      <trkpt lat="41.105167" lon="-3.673000">
        <ele>2088.0</ele>
        <time>2017-09-30T12:45:58Z</time>
      </trkpt>
      <trkpt lat="41.105067" lon="-3.672917">
        <ele>2088.0</ele>
        <time>2017-09-30T12:45:59Z</time>
      </trkpt>
      <trkpt lat="41.104950" lon="-3.672867">
        <ele>2088.0</ele>
        <time>2017-09-30T12:46:00Z</time>
      </trkpt>
      <trkpt lat="41.104850" lon="-3.672833">
        <ele>2088.0</ele>
        <time>2017-09-30T12:46:01Z</time>
      </trkpt>
      <trkpt lat="41.104750" lon="-3.672833">
        <ele>2088.0</ele>
        <time>2017-09-30T12:46:02Z</time>
      </trkpt>
      <trkpt lat="41.104667" lon="-3.672850">
        <ele>2088.0</ele>
        <time>2017-09-30T12:46:03Z</time>
      </trkpt>
      <trkpt lat="41.104583" lon="-3.672867">
        <ele>2088.0</ele>
        <time>2017-09-30T12:46:04Z</time>
      </trkpt>
      <trkpt lat="41.104533" lon="-3.672900">
        <ele>2087.0</ele>
        <time>2017-09-30T12:46:05Z</time>
      </trkpt>
      <trkpt lat="41.104500" lon="-3.672950">
        <ele>2086.0</ele>
        <time>2017-09-30T12:46:06Z</time>
      </trkpt>
      <trkpt lat="41.104500" lon="-3.673000">
        <ele>2086.0</ele>
        <time>2017-09-30T12:46:07Z</time>
      </trkpt>
      <trkpt lat="41.104517" lon="-3.673050">
        <ele>2086.0</ele>
        <time>2017-09-30T12:46:08Z</time>
      </trkpt>
      <trkpt lat="41.104550" lon="-3.673067">
        <ele>2087.0</ele>
        <time>2017-09-30T12:46:09Z</time>
      </trkpt>
      <trkpt lat="41.104600" lon="-3.673083">
        <ele>2087.0</ele>
        <time>2017-09-30T12:46:10Z</time>
      </trkpt>
      <trkpt lat="41.104650" lon="-3.673083">
        <ele>2088.0</ele>
        <time>2017-09-30T12:46:11Z</time>
      </trkpt>
      <trkpt lat="41.104700" lon="-3.673067">
        <ele>2088.0</ele>
        <time>2017-09-30T12:46:12Z</time>
      </trkpt>
      <trkpt lat="41.104750" lon="-3.673050">
        <ele>2087.0</ele>
        <time>2017-09-30T12:46:13Z</time>
      </trkpt>
      <trkpt lat="41.104817" lon="-3.673033">
        <ele>2086.0</ele>
        <time>2017-09-30T12:46:14Z</time>
      </trkpt>
      <trkpt lat="41.104883" lon="-3.673000">
        <ele>2086.0</ele>
        <time>2017-09-30T12:46:15Z</time>
      </trkpt>
      <trkpt lat="41.104933" lon="-3.672950">
        <ele>2087.0</ele>
        <time>2017-09-30T12:46:16Z</time>
      </trkpt>
      <trkpt lat="41.104983" lon="-3.672917">
        <ele>2087.0</ele>
        <time>2017-09-30T12:46:17Z</time>
      </trkpt>
      <trkpt lat="41.105033" lon="-3.672900">
        <ele>2087.0</ele>
        <time>2017-09-30T12:46:18Z</time>
      </trkpt>
      <trkpt lat="41.105100" lon="-3.672883">
        <ele>2087.0</ele>
        <time>2017-09-30T12:46:19Z</time>
      </trkpt>
      <trkpt lat="41.105150" lon="-3.672867">
        <ele>2086.0</ele>
        <time>2017-09-30T12:46:20Z</time>
      </trkpt>
      <trkpt lat="41.105217" lon="-3.672833">
        <ele>2086.0</ele>
        <time>2017-09-30T12:46:21Z</time>
      </trkpt>
      <trkpt lat="41.105283" lon="-3.672783">
        <ele>2085.0</ele>
        <time>2017-09-30T12:46:22Z</time>
      </trkpt>
      <trkpt lat="41.105350" lon="-3.672733">
        <ele>2084.0</ele>
        <time>2017-09-30T12:46:23Z</time>
      </trkpt>
      <trkpt lat="41.105417" lon="-3.672650">
        <ele>2083.0</ele>
        <time>2017-09-30T12:46:24Z</time>
      </trkpt>
      <trkpt lat="41.105483" lon="-3.672550">
        <ele>2081.0</ele>
        <time>2017-09-30T12:46:25Z</time>
      </trkpt>
      <trkpt lat="41.105550" lon="-3.672450">
        <ele>2080.0</ele>
        <time>2017-09-30T12:46:26Z</time>
      </trkpt>
      <trkpt lat="41.105617" lon="-3.672350">
        <ele>2079.0</ele>
        <time>2017-09-30T12:46:27Z</time>
      </trkpt>
      <trkpt lat="41.105683" lon="-3.672250">
        <ele>2078.0</ele>
        <time>2017-09-30T12:46:28Z</time>
      </trkpt>
      <trkpt lat="41.105733" lon="-3.672167">
        <ele>2077.0</ele>
        <time>2017-09-30T12:46:29Z</time>
      </trkpt>
      <trkpt lat="41.105800" lon="-3.672067">
        <ele>2076.0</ele>
        <time>2017-09-30T12:46:30Z</time>
      </trkpt>
      <trkpt lat="41.105867" lon="-3.671967">
        <ele>2075.0</ele>
        <time>2017-09-30T12:46:31Z</time>
      </trkpt>
      <trkpt lat="41.105933" lon="-3.671883">
        <ele>2074.0</ele>
        <time>2017-09-30T12:46:32Z</time>
      </trkpt>
      <trkpt lat="41.106000" lon="-3.671800">
        <ele>2073.0</ele>
        <time>2017-09-30T12:46:33Z</time>
      </trkpt>
      <trkpt lat="41.106050" lon="-3.671700">
        <ele>2072.0</ele>
        <time>2017-09-30T12:46:34Z</time>
      </trkpt>
      <trkpt lat="41.106117" lon="-3.671617">
        <ele>2072.0</ele>
        <time>2017-09-30T12:46:35Z</time>
      </trkpt>
      <trkpt lat="41.106167" lon="-3.671517">
        <ele>2070.0</ele>
        <time>2017-09-30T12:46:36Z</time>
      </trkpt>
      <trkpt lat="41.106233" lon="-3.671417">
        <ele>2069.0</ele>
        <time>2017-09-30T12:46:37Z</time>
      </trkpt>
      <trkpt lat="41.106300" lon="-3.671300">
        <ele>2067.0</ele>
        <time>2017-09-30T12:46:38Z</time>
      </trkpt>
      <trkpt lat="41.106383" lon="-3.671167">
        <ele>2066.0</ele>
        <time>2017-09-30T12:46:39Z</time>
      </trkpt>
      <trkpt lat="41.106450" lon="-3.671050">
        <ele>2065.0</ele>
        <time>2017-09-30T12:46:40Z</time>
      </trkpt>
      <trkpt lat="41.106533" lon="-3.670950">
        <ele>2066.0</ele>
        <time>2017-09-30T12:46:41Z</time>
      </trkpt>
      <trkpt lat="41.106617" lon="-3.670850">
        <ele>2067.0</ele>
        <time>2017-09-30T12:46:42Z</time>
      </trkpt>
      <trkpt lat="41.106683" lon="-3.670767">
        <ele>2069.0</ele>
        <time>2017-09-30T12:46:43Z</time>
      </trkpt>
      <trkpt lat="41.106750" lon="-3.670667">
        <ele>2070.0</ele>
        <time>2017-09-30T12:46:44Z</time>
      </trkpt>
      <trkpt lat="41.106817" lon="-3.670550">
        <ele>2071.0</ele>
        <time>2017-09-30T12:46:45Z</time>
      </trkpt>
      <trkpt lat="41.106867" lon="-3.670400">
        <ele>2071.0</ele>
        <time>2017-09-30T12:46:46Z</time>
      </trkpt>
      <trkpt lat="41.106917" lon="-3.670233">
        <ele>2072.0</ele>
        <time>2017-09-30T12:46:47Z</time>
      </trkpt>
      <trkpt lat="41.106933" lon="-3.670050">
        <ele>2073.0</ele>
        <time>2017-09-30T12:46:48Z</time>
      </trkpt>
      <trkpt lat="41.106950" lon="-3.669850">
        <ele>2074.0</ele>
        <time>2017-09-30T12:46:49Z</time>
      </trkpt>
      <trkpt lat="41.106933" lon="-3.669683">
        <ele>2076.0</ele>
        <time>2017-09-30T12:46:50Z</time>
      </trkpt>
      <trkpt lat="41.106883" lon="-3.669500">
        <ele>2078.0</ele>
        <time>2017-09-30T12:46:51Z</time>
      </trkpt>
      <trkpt lat="41.106833" lon="-3.669350">
        <ele>2078.0</ele>
        <time>2017-09-30T12:46:52Z</time>
      </trkpt>
      <trkpt lat="41.106750" lon="-3.669200">
        <ele>2078.0</ele>
        <time>2017-09-30T12:46:53Z</time>
      </trkpt>
      <trkpt lat="41.106667" lon="-3.669083">
        <ele>2078.0</ele>
        <time>2017-09-30T12:46:54Z</time>
      </trkpt>
      <trkpt lat="41.106583" lon="-3.668983">
        <ele>2078.0</ele>
        <time>2017-09-30T12:46:55Z</time>
      </trkpt>
      <trkpt lat="41.106483" lon="-3.668917">
        <ele>2077.0</ele>
        <time>2017-09-30T12:46:56Z</time>
      </trkpt>
      <trkpt lat="41.106383" lon="-3.668883">
        <ele>2077.0</ele>
        <time>2017-09-30T12:46:57Z</time>
      </trkpt>
      <trkpt lat="41.106300" lon="-3.668867">
        <ele>2077.0</ele>
        <time>2017-09-30T12:46:58Z</time>
      </trkpt>
      <trkpt lat="41.106233" lon="-3.668867">
        <ele>2078.0</ele>
        <time>2017-09-30T12:46:59Z</time>
      </trkpt>
      <trkpt lat="41.106183" lon="-3.668900">
        <ele>2079.0</ele>
        <time>2017-09-30T12:47:00Z</time>
      </trkpt>
      <trkpt lat="41.106133" lon="-3.668933">
        <ele>2079.0</ele>
        <time>2017-09-30T12:47:01Z</time>
      </trkpt>
      <trkpt lat="41.106117" lon="-3.668967">
        <ele>2079.0</ele>
        <time>2017-09-30T12:47:02Z</time>
      </trkpt>
      <trkpt lat="41.106117" lon="-3.669017">
        <ele>2080.0</ele>
        <time>2017-09-30T12:47:03Z</time>
      </trkpt>
      <trkpt lat="41.106133" lon="-3.669067">
        <ele>2082.0</ele>
        <time>2017-09-30T12:47:04Z</time>
      </trkpt>
      <trkpt lat="41.106150" lon="-3.669083">
        <ele>2083.0</ele>
        <time>2017-09-30T12:47:05Z</time>
      </trkpt>
      <trkpt lat="41.106167" lon="-3.669100">
        <ele>2084.0</ele>
        <time>2017-09-30T12:47:06Z</time>
      </trkpt>
      <trkpt lat="41.106200" lon="-3.669117">
        <ele>2083.0</ele>
        <time>2017-09-30T12:47:07Z</time>
      </trkpt>
      <trkpt lat="41.106233" lon="-3.669150">
        <ele>2082.0</ele>
        <time>2017-09-30T12:47:08Z</time>
      </trkpt>
      <trkpt lat="41.106300" lon="-3.669167">
        <ele>2081.0</ele>
        <time>2017-09-30T12:47:09Z</time>
      </trkpt>
      <trkpt lat="41.106367" lon="-3.669183">
        <ele>2080.0</ele>
        <time>2017-09-30T12:47:10Z</time>
      </trkpt>
      <trkpt lat="41.106433" lon="-3.669183">
        <ele>2081.0</ele>
        <time>2017-09-30T12:47:11Z</time>
      </trkpt>
      <trkpt lat="41.106500" lon="-3.669183">
        <ele>2083.0</ele>
        <time>2017-09-30T12:47:12Z</time>
      </trkpt>
      <trkpt lat="41.106550" lon="-3.669150">
        <ele>2084.0</ele>
        <time>2017-09-30T12:47:13Z</time>
      </trkpt>
      <trkpt lat="41.106617" lon="-3.669100">
        <ele>2085.0</ele>
        <time>2017-09-30T12:47:14Z</time>
      </trkpt>
      <trkpt lat="41.106667" lon="-3.669050">
        <ele>2084.0</ele>
        <time>2017-09-30T12:47:15Z</time>
      </trkpt>
      <trkpt lat="41.106733" lon="-3.669000">
        <ele>2084.0</ele>
        <time>2017-09-30T12:47:16Z</time>
      </trkpt>
      <trkpt lat="41.106817" lon="-3.668933">
        <ele>2083.0</ele>
        <time>2017-09-30T12:47:17Z</time>
      </trkpt>
      <trkpt lat="41.106883" lon="-3.668833">
        <ele>2082.0</ele>
        <time>2017-09-30T12:47:18Z</time>
      </trkpt>
      <trkpt lat="41.106967" lon="-3.668750">
        <ele>2081.0</ele>
        <time>2017-09-30T12:47:19Z</time>
      </trkpt>
      <trkpt lat="41.107033" lon="-3.668650">
        <ele>2081.0</ele>
        <time>2017-09-30T12:47:20Z</time>
      </trkpt>
      <trkpt lat="41.107100" lon="-3.668567">
        <ele>2080.0</ele>
        <time>2017-09-30T12:47:21Z</time>
      </trkpt>
      <trkpt lat="41.107167" lon="-3.668483">
        <ele>2079.0</ele>
        <time>2017-09-30T12:47:22Z</time>
      </trkpt>
      <trkpt lat="41.107233" lon="-3.668400">
        <ele>2079.0</ele>
        <time>2017-09-30T12:47:23Z</time>
      </trkpt>
      <trkpt lat="41.107300" lon="-3.668300">
        <ele>2079.0</ele>
        <time>2017-09-30T12:47:24Z</time>
      </trkpt>
      <trkpt lat="41.107367" lon="-3.668217">
        <ele>2079.0</ele>
        <time>2017-09-30T12:47:25Z</time>
      </trkpt>
      <trkpt lat="41.107450" lon="-3.668117">
        <ele>2079.0</ele>
        <time>2017-09-30T12:47:26Z</time>
      </trkpt>
      <trkpt lat="41.107517" lon="-3.668000">
        <ele>2079.0</ele>
        <time>2017-09-30T12:47:27Z</time>
      </trkpt>
      <trkpt lat="41.107583" lon="-3.667850">
        <ele>2078.0</ele>
        <time>2017-09-30T12:47:28Z</time>
      </trkpt>
      <trkpt lat="41.107650" lon="-3.667700">
        <ele>2077.0</ele>
        <time>2017-09-30T12:47:29Z</time>
      </trkpt>
      <trkpt lat="41.107717" lon="-3.667567">
        <ele>2077.0</ele>
        <time>2017-09-30T12:47:30Z</time>
      </trkpt>
      <trkpt lat="41.107800" lon="-3.667433">
        <ele>2076.0</ele>
        <time>2017-09-30T12:47:31Z</time>
      </trkpt>
      <trkpt lat="41.107867" lon="-3.667300">
        <ele>2076.0</ele>
        <time>2017-09-30T12:47:32Z</time>
      </trkpt>
      <trkpt lat="41.107933" lon="-3.667150">
        <ele>2076.0</ele>
        <time>2017-09-30T12:47:33Z</time>
      </trkpt>
      <trkpt lat="41.108000" lon="-3.667000">
        <ele>2075.0</ele>
        <time>2017-09-30T12:47:34Z</time>
      </trkpt>
      <trkpt lat="41.108083" lon="-3.666867">
        <ele>2074.0</ele>
        <time>2017-09-30T12:47:35Z</time>
      </trkpt>
      <trkpt lat="41.108150" lon="-3.666717">
        <ele>2073.0</ele>
        <time>2017-09-30T12:47:36Z</time>
      </trkpt>
      <trkpt lat="41.108233" lon="-3.666583">
        <ele>2073.0</ele>
        <time>2017-09-30T12:47:37Z</time>
      </trkpt>
      <trkpt lat="41.108300" lon="-3.666450">
        <ele>2072.0</ele>
        <time>2017-09-30T12:47:38Z</time>
      </trkpt>
      <trkpt lat="41.108383" lon="-3.666333">
        <ele>2071.0</ele>
        <time>2017-09-30T12:47:39Z</time>
      </trkpt>
      <trkpt lat="41.108467" lon="-3.666233">
        <ele>2070.0</ele>
        <time>2017-09-30T12:47:40Z</time>
      </trkpt>
      <trkpt lat="41.108550" lon="-3.666133">
        <ele>2069.0</ele>
        <time>2017-09-30T12:47:41Z</time>
      </trkpt>
      <trkpt lat="41.108650" lon="-3.666067">
        <ele>2069.0</ele>
        <time>2017-09-30T12:47:42Z</time>
      </trkpt>
      <trkpt lat="41.108717" lon="-3.665983">
        <ele>2069.0</ele>
        <time>2017-09-30T12:47:43Z</time>
      </trkpt>
      <trkpt lat="41.108800" lon="-3.665917">
        <ele>2070.0</ele>
        <time>2017-09-30T12:47:44Z</time>
      </trkpt>
      <trkpt lat="41.108867" lon="-3.665850">
        <ele>2070.0</ele>
        <time>2017-09-30T12:47:45Z</time>
      </trkpt>
      <trkpt lat="41.108950" lon="-3.665767">
        <ele>2069.0</ele>
        <time>2017-09-30T12:47:46Z</time>
      </trkpt>
      <trkpt lat="41.109050" lon="-3.665700">
        <ele>2068.0</ele>
        <time>2017-09-30T12:47:47Z</time>
      </trkpt>
      <trkpt lat="41.109150" lon="-3.665650">
        <ele>2068.0</ele>
        <time>2017-09-30T12:47:48Z</time>
      </trkpt>
      <trkpt lat="41.109233" lon="-3.665617">
        <ele>2069.0</ele>
        <time>2017-09-30T12:47:49Z</time>
      </trkpt>
      <trkpt lat="41.109317" lon="-3.665600">
        <ele>2071.0</ele>
        <time>2017-09-30T12:47:50Z</time>
      </trkpt>
      <trkpt lat="41.109383" lon="-3.665567">
        <ele>2071.0</ele>
        <time>2017-09-30T12:47:51Z</time>
      </trkpt>
      <trkpt lat="41.109450" lon="-3.665550">
        <ele>2072.0</ele>
        <time>2017-09-30T12:47:52Z</time>
      </trkpt>
      <trkpt lat="41.109533" lon="-3.665550">
        <ele>2071.0</ele>
        <time>2017-09-30T12:47:53Z</time>
      </trkpt>
      <trkpt lat="41.109617" lon="-3.665533">
        <ele>2072.0</ele>
        <time>2017-09-30T12:47:54Z</time>
      </trkpt>
      <trkpt lat="41.109683" lon="-3.665533">
        <ele>2072.0</ele>
        <time>2017-09-30T12:47:55Z</time>
      </trkpt>
      <trkpt lat="41.109750" lon="-3.665533">
        <ele>2073.0</ele>
        <time>2017-09-30T12:47:56Z</time>
      </trkpt>
      <trkpt lat="41.109817" lon="-3.665533">
        <ele>2074.0</ele>
        <time>2017-09-30T12:47:57Z</time>
      </trkpt>
      <trkpt lat="41.109900" lon="-3.665517">
        <ele>2075.0</ele>
        <time>2017-09-30T12:47:58Z</time>
      </trkpt>
      <trkpt lat="41.109967" lon="-3.665517">
        <ele>2076.0</ele>
        <time>2017-09-30T12:47:59Z</time>
      </trkpt>
      <trkpt lat="41.110050" lon="-3.665500">
        <ele>2076.0</ele>
        <time>2017-09-30T12:48:00Z</time>
      </trkpt>
      <trkpt lat="41.110133" lon="-3.665483">
        <ele>2077.0</ele>
        <time>2017-09-30T12:48:01Z</time>
      </trkpt>
      <trkpt lat="41.110233" lon="-3.665417">
        <ele>2078.0</ele>
        <time>2017-09-30T12:48:02Z</time>
      </trkpt>
      <trkpt lat="41.110317" lon="-3.665333">
        <ele>2078.0</ele>
        <time>2017-09-30T12:48:03Z</time>
      </trkpt>
      <trkpt lat="41.110400" lon="-3.665200">
        <ele>2078.0</ele>
        <time>2017-09-30T12:48:04Z</time>
      </trkpt>
      <trkpt lat="41.110483" lon="-3.665050">
        <ele>2078.0</ele>
        <time>2017-09-30T12:48:05Z</time>
      </trkpt>
      <trkpt lat="41.110533" lon="-3.664883">
        <ele>2078.0</ele>
        <time>2017-09-30T12:48:06Z</time>
      </trkpt>
      <trkpt lat="41.110567" lon="-3.664717">
        <ele>2078.0</ele>
        <time>2017-09-30T12:48:07Z</time>
      </trkpt>
      <trkpt lat="41.110583" lon="-3.664533">
        <ele>2077.0</ele>
        <time>2017-09-30T12:48:08Z</time>
      </trkpt>
      <trkpt lat="41.110567" lon="-3.664367">
        <ele>2075.0</ele>
        <time>2017-09-30T12:48:09Z</time>
      </trkpt>
      <trkpt lat="41.110550" lon="-3.664183">
        <ele>2074.0</ele>
        <time>2017-09-30T12:48:10Z</time>
      </trkpt>
      <trkpt lat="41.110500" lon="-3.664033">
        <ele>2072.0</ele>
        <time>2017-09-30T12:48:11Z</time>
      </trkpt>
      <trkpt lat="41.110433" lon="-3.663917">
        <ele>2071.0</ele>
        <time>2017-09-30T12:48:12Z</time>
      </trkpt>
      <trkpt lat="41.110350" lon="-3.663833">
        <ele>2070.0</ele>
        <time>2017-09-30T12:48:13Z</time>
      </trkpt>
      <trkpt lat="41.110267" lon="-3.663783">
        <ele>2068.0</ele>
        <time>2017-09-30T12:48:14Z</time>
      </trkpt>
      <trkpt lat="41.110200" lon="-3.663750">
        <ele>2066.0</ele>
        <time>2017-09-30T12:48:15Z</time>
      </trkpt>
      <trkpt lat="41.110133" lon="-3.663767">
        <ele>2065.0</ele>
        <time>2017-09-30T12:48:16Z</time>
      </trkpt>
      <trkpt lat="41.110100" lon="-3.663800">
        <ele>2064.0</ele>
        <time>2017-09-30T12:48:17Z</time>
      </trkpt>
      <trkpt lat="41.110083" lon="-3.663850">
        <ele>2063.0</ele>
        <time>2017-09-30T12:48:18Z</time>
      </trkpt>
      <trkpt lat="41.110083" lon="-3.663900">
        <ele>2063.0</ele>
        <time>2017-09-30T12:48:19Z</time>
      </trkpt>
      <trkpt lat="41.110100" lon="-3.663950">
        <ele>2063.0</ele>
        <time>2017-09-30T12:48:20Z</time>
      </trkpt>
      <trkpt lat="41.110150" lon="-3.663983">
        <ele>2064.0</ele>
        <time>2017-09-30T12:48:21Z</time>
      </trkpt>
      <trkpt lat="41.110183" lon="-3.664000">
        <ele>2065.0</ele>
        <time>2017-09-30T12:48:22Z</time>
      </trkpt>
      <trkpt lat="41.110233" lon="-3.664017">
        <ele>2065.0</ele>
        <time>2017-09-30T12:48:23Z</time>
      </trkpt>
      <trkpt lat="41.110283" lon="-3.664017">
        <ele>2065.0</ele>
        <time>2017-09-30T12:48:24Z</time>
      </trkpt>
      <trkpt lat="41.110350" lon="-3.664033">
        <ele>2064.0</ele>
        <time>2017-09-30T12:48:25Z</time>
      </trkpt>
      <trkpt lat="41.110417" lon="-3.664033">
        <ele>2063.0</ele>
        <time>2017-09-30T12:48:26Z</time>
      </trkpt>
      <trkpt lat="41.110467" lon="-3.664067">
        <ele>2063.0</ele>
        <time>2017-09-30T12:48:27Z</time>
      </trkpt>
      <trkpt lat="41.110533" lon="-3.664100">
        <ele>2062.0</ele>
        <time>2017-09-30T12:48:28Z</time>
      </trkpt>
      <trkpt lat="41.110600" lon="-3.664117">
        <ele>2063.0</ele>
        <time>2017-09-30T12:48:29Z</time>
      </trkpt>
      <trkpt lat="41.110650" lon="-3.664117">
        <ele>2064.0</ele>
        <time>2017-09-30T12:48:30Z</time>
      </trkpt>
      <trkpt lat="41.110717" lon="-3.664100">
        <ele>2064.0</ele>
        <time>2017-09-30T12:48:31Z</time>
      </trkpt>
      <trkpt lat="41.110767" lon="-3.664100">
        <ele>2064.0</ele>
        <time>2017-09-30T12:48:32Z</time>
      </trkpt>
      <trkpt lat="41.110833" lon="-3.664100">
        <ele>2063.0</ele>
        <time>2017-09-30T12:48:33Z</time>
      </trkpt>
      <trkpt lat="41.110900" lon="-3.664100">
        <ele>2063.0</ele>
        <time>2017-09-30T12:48:34Z</time>
      </trkpt>
      <trkpt lat="41.110983" lon="-3.664100">
        <ele>2063.0</ele>
        <time>2017-09-30T12:48:35Z</time>
      </trkpt>
      <trkpt lat="41.111050" lon="-3.664117">
        <ele>2064.0</ele>
        <time>2017-09-30T12:48:36Z</time>
      </trkpt>
      <trkpt lat="41.111117" lon="-3.664117">
        <ele>2065.0</ele>
        <time>2017-09-30T12:48:37Z</time>
      </trkpt>
      <trkpt lat="41.111167" lon="-3.664100">
        <ele>2065.0</ele>
        <time>2017-09-30T12:48:38Z</time>
      </trkpt>
      <trkpt lat="41.111233" lon="-3.664100">
        <ele>2065.0</ele>
        <time>2017-09-30T12:48:39Z</time>
      </trkpt>
      <trkpt lat="41.111317" lon="-3.664100">
        <ele>2065.0</ele>
        <time>2017-09-30T12:48:40Z</time>
      </trkpt>
      <trkpt lat="41.111383" lon="-3.664100">
        <ele>2065.0</ele>
        <time>2017-09-30T12:48:41Z</time>
      </trkpt>
      <trkpt lat="41.111467" lon="-3.664083">
        <ele>2067.0</ele>
        <time>2017-09-30T12:48:42Z</time>
      </trkpt>
      <trkpt lat="41.111533" lon="-3.664067">
        <ele>2068.0</ele>
        <time>2017-09-30T12:48:43Z</time>
      </trkpt>
      <trkpt lat="41.111600" lon="-3.664033">
        <ele>2070.0</ele>
        <time>2017-09-30T12:48:44Z</time>
      </trkpt>
      <trkpt lat="41.111667" lon="-3.664017">
        <ele>2071.0</ele>
        <time>2017-09-30T12:48:45Z</time>
      </trkpt>
      <trkpt lat="41.111733" lon="-3.664000">
        <ele>2071.0</ele>
        <time>2017-09-30T12:48:46Z</time>
      </trkpt>
      <trkpt lat="41.111817" lon="-3.663983">
        <ele>2071.0</ele>
        <time>2017-09-30T12:48:47Z</time>
      </trkpt>
      <trkpt lat="41.111900" lon="-3.663967">
        <ele>2071.0</ele>
        <time>2017-09-30T12:48:48Z</time>
      </trkpt>
      <trkpt lat="41.111983" lon="-3.663933">
        <ele>2072.0</ele>
        <time>2017-09-30T12:48:49Z</time>
      </trkpt>
      <trkpt lat="41.112067" lon="-3.663900">
        <ele>2073.0</ele>
        <time>2017-09-30T12:48:50Z</time>
      </trkpt>
      <trkpt lat="41.112133" lon="-3.663833">
        <ele>2074.0</ele>
        <time>2017-09-30T12:48:51Z</time>
      </trkpt>
      <trkpt lat="41.112200" lon="-3.663750">
        <ele>2074.0</ele>
        <time>2017-09-30T12:48:52Z</time>
      </trkpt>
      <trkpt lat="41.112267" lon="-3.663633">
        <ele>2074.0</ele>
        <time>2017-09-30T12:48:53Z</time>
      </trkpt>
      <trkpt lat="41.112317" lon="-3.663500">
        <ele>2074.0</ele>
        <time>2017-09-30T12:48:54Z</time>
      </trkpt>
      <trkpt lat="41.112350" lon="-3.663367">
        <ele>2075.0</ele>
        <time>2017-09-30T12:48:55Z</time>
      </trkpt>
      <trkpt lat="41.112367" lon="-3.663217">
        <ele>2076.0</ele>
        <time>2017-09-30T12:48:56Z</time>
      </trkpt>
      <trkpt lat="41.112350" lon="-3.663083">
        <ele>2077.0</ele>
        <time>2017-09-30T12:48:57Z</time>
      </trkpt>
      <trkpt lat="41.112333" lon="-3.662950">
        <ele>2078.0</ele>
        <time>2017-09-30T12:48:58Z</time>
      </trkpt>
      <trkpt lat="41.112300" lon="-3.662833">
        <ele>2078.0</ele>
        <time>2017-09-30T12:48:59Z</time>
      </trkpt>
      <trkpt lat="41.112233" lon="-3.662700">
        <ele>2077.0</ele>
        <time>2017-09-30T12:49:00Z</time>
      </trkpt>
      <trkpt lat="41.112150" lon="-3.662600">
        <ele>2077.0</ele>
        <time>2017-09-30T12:49:01Z</time>
      </trkpt>
      <trkpt lat="41.112067" lon="-3.662517">
        <ele>2077.0</ele>
        <time>2017-09-30T12:49:02Z</time>
      </trkpt>
      <trkpt lat="41.111967" lon="-3.662450">
        <ele>2077.0</ele>
        <time>2017-09-30T12:49:03Z</time>
      </trkpt>
      <trkpt lat="41.111883" lon="-3.662433">
        <ele>2077.0</ele>
        <time>2017-09-30T12:49:04Z</time>
      </trkpt>
      <trkpt lat="41.111783" lon="-3.662417">
        <ele>2077.0</ele>
        <time>2017-09-30T12:49:05Z</time>
      </trkpt>
      <trkpt lat="41.111700" lon="-3.662433">
        <ele>2077.0</ele>
        <time>2017-09-30T12:49:06Z</time>
      </trkpt>
      <trkpt lat="41.111633" lon="-3.662467">
        <ele>2077.0</ele>
        <time>2017-09-30T12:49:07Z</time>
      </trkpt>
      <trkpt lat="41.111567" lon="-3.662517">
        <ele>2078.0</ele>
        <time>2017-09-30T12:49:08Z</time>
      </trkpt>
      <trkpt lat="41.111517" lon="-3.662600">
        <ele>2078.0</ele>
        <time>2017-09-30T12:49:09Z</time>
      </trkpt>
      <trkpt lat="41.111483" lon="-3.662667">
        <ele>2079.0</ele>
        <time>2017-09-30T12:49:10Z</time>
      </trkpt>
      <trkpt lat="41.111467" lon="-3.662750">
        <ele>2080.0</ele>
        <time>2017-09-30T12:49:11Z</time>
      </trkpt>
      <trkpt lat="41.111467" lon="-3.662833">
        <ele>2081.0</ele>
        <time>2017-09-30T12:49:12Z</time>
      </trkpt>
      <trkpt lat="41.111483" lon="-3.662900">
        <ele>2083.0</ele>
        <time>2017-09-30T12:49:13Z</time>
      </trkpt>
      <trkpt lat="41.111500" lon="-3.662967">
        <ele>2085.0</ele>
        <time>2017-09-30T12:49:14Z</time>
      </trkpt>
      <trkpt lat="41.111533" lon="-3.663033">
        <ele>2088.0</ele>
        <time>2017-09-30T12:49:15Z</time>
      </trkpt>
      <trkpt lat="41.111550" lon="-3.663100">
        <ele>2091.0</ele>
        <time>2017-09-30T12:49:16Z</time>
      </trkpt>
      <trkpt lat="41.111550" lon="-3.663150">
        <ele>2095.0</ele>
        <time>2017-09-30T12:49:17Z</time>
      </trkpt>
      <trkpt lat="41.111567" lon="-3.663200">
        <ele>2097.0</ele>
        <time>2017-09-30T12:49:18Z</time>
      </trkpt>
      <trkpt lat="41.111600" lon="-3.663250">
        <ele>2099.0</ele>
        <time>2017-09-30T12:49:19Z</time>
      </trkpt>
      <trkpt lat="41.111650" lon="-3.663300">
        <ele>2099.0</ele>
        <time>2017-09-30T12:49:20Z</time>
      </trkpt>
      <trkpt lat="41.111717" lon="-3.663333">
        <ele>2100.0</ele>
        <time>2017-09-30T12:49:21Z</time>
      </trkpt>
      <trkpt lat="41.111800" lon="-3.663333">
        <ele>2102.0</ele>
        <time>2017-09-30T12:49:22Z</time>
      </trkpt>
      <trkpt lat="41.111883" lon="-3.663300">
        <ele>2104.0</ele>
        <time>2017-09-30T12:49:23Z</time>
      </trkpt>
      <trkpt lat="41.111967" lon="-3.663217">
        <ele>2106.0</ele>
        <time>2017-09-30T12:49:24Z</time>
      </trkpt>
      <trkpt lat="41.112017" lon="-3.663117">
        <ele>2109.0</ele>
        <time>2017-09-30T12:49:25Z</time>
      </trkpt>
      <trkpt lat="41.112067" lon="-3.662983">
        <ele>2111.0</ele>
        <time>2017-09-30T12:49:26Z</time>
      </trkpt>
      <trkpt lat="41.112083" lon="-3.662833">
        <ele>2114.0</ele>
        <time>2017-09-30T12:49:27Z</time>
      </trkpt>
      <trkpt lat="41.112083" lon="-3.662683">
        <ele>2115.0</ele>
        <time>2017-09-30T12:49:28Z</time>
      </trkpt>
      <trkpt lat="41.112050" lon="-3.662550">
        <ele>2117.0</ele>
        <time>2017-09-30T12:49:29Z</time>
      </trkpt>
      <trkpt lat="41.112000" lon="-3.662417">
        <ele>2118.0</ele>
        <time>2017-09-30T12:49:30Z</time>
      </trkpt>
      <trkpt lat="41.111933" lon="-3.662300">
        <ele>2119.0</ele>
        <time>2017-09-30T12:49:31Z</time>
      </trkpt>
      <trkpt lat="41.111850" lon="-3.662200">
        <ele>2120.0</ele>
        <time>2017-09-30T12:49:32Z</time>
      </trkpt>
      <trkpt lat="41.111767" lon="-3.662117">
        <ele>2121.0</ele>
        <time>2017-09-30T12:49:33Z</time>
      </trkpt>
      <trkpt lat="41.111667" lon="-3.662083">
        <ele>2122.0</ele>
        <time>2017-09-30T12:49:34Z</time>
      </trkpt>
      <trkpt lat="41.111567" lon="-3.662067">
        <ele>2123.0</ele>
        <time>2017-09-30T12:49:35Z</time>
      </trkpt>
      <trkpt lat="41.111467" lon="-3.662083">
        <ele>2124.0</ele>
        <time>2017-09-30T12:49:36Z</time>
      </trkpt>
      <trkpt lat="41.111383" lon="-3.662133">
        <ele>2126.0</ele>
        <time>2017-09-30T12:49:37Z</time>
      </trkpt>
      <trkpt lat="41.111317" lon="-3.662200">
        <ele>2128.0</ele>
        <time>2017-09-30T12:49:38Z</time>
      </trkpt>
      <trkpt lat="41.111267" lon="-3.662250">
        <ele>2131.0</ele>
        <time>2017-09-30T12:49:39Z</time>
      </trkpt>
      <trkpt lat="41.111250" lon="-3.662317">
        <ele>2135.0</ele>
        <time>2017-09-30T12:49:40Z</time>
      </trkpt>
      <trkpt lat="41.111233" lon="-3.662367">
        <ele>2138.0</ele>
        <time>2017-09-30T12:49:41Z</time>
      </trkpt>
      <trkpt lat="41.111250" lon="-3.662417">
        <ele>2141.0</ele>
        <time>2017-09-30T12:49:42Z</time>
      </trkpt>
      <trkpt lat="41.111283" lon="-3.662450">
        <ele>2143.0</ele>
        <time>2017-09-30T12:49:43Z</time>
      </trkpt>
      <trkpt lat="41.111317" lon="-3.662467">
        <ele>2145.0</ele>
        <time>2017-09-30T12:49:44Z</time>
      </trkpt>
      <trkpt lat="41.111350" lon="-3.662467">
        <ele>2148.0</ele>
        <time>2017-09-30T12:49:45Z</time>
      </trkpt>
      <trkpt lat="41.111383" lon="-3.662467">
        <ele>2150.0</ele>
        <time>2017-09-30T12:49:46Z</time>
      </trkpt>
      <trkpt lat="41.111417" lon="-3.662467">
        <ele>2151.0</ele>
        <time>2017-09-30T12:49:47Z</time>
      </trkpt>
      <trkpt lat="41.111450" lon="-3.662483">
        <ele>2151.0</ele>
        <time>2017-09-30T12:49:48Z</time>
      </trkpt>
      <trkpt lat="41.111517" lon="-3.662467">
        <ele>2151.0</ele>
        <time>2017-09-30T12:49:49Z</time>
      </trkpt>
      <trkpt lat="41.111583" lon="-3.662450">
        <ele>2151.0</ele>
        <time>2017-09-30T12:49:50Z</time>
      </trkpt>
      <trkpt lat="41.111667" lon="-3.662400">
        <ele>2154.0</ele>
        <time>2017-09-30T12:49:51Z</time>
      </trkpt>
      <trkpt lat="41.111733" lon="-3.662350">
        <ele>2156.0</ele>
        <time>2017-09-30T12:49:52Z</time>
      </trkpt>
      <trkpt lat="41.111817" lon="-3.662300">
        <ele>2159.0</ele>
        <time>2017-09-30T12:49:53Z</time>
      </trkpt>
      <trkpt lat="41.111883" lon="-3.662267">
        <ele>2160.0</ele>
        <time>2017-09-30T12:49:54Z</time>
      </trkpt>
      <trkpt lat="41.111967" lon="-3.662200">
        <ele>2161.0</ele>
        <time>2017-09-30T12:49:55Z</time>
      </trkpt>
      <trkpt lat="41.112050" lon="-3.662133">
        <ele>2162.0</ele>
        <time>2017-09-30T12:49:56Z</time>
      </trkpt>
      <trkpt lat="41.112133" lon="-3.662067">
        <ele>2162.0</ele>
        <time>2017-09-30T12:49:57Z</time>
      </trkpt>
      <trkpt lat="41.112217" lon="-3.661983">
        <ele>2164.0</ele>
        <time>2017-09-30T12:49:58Z</time>
      </trkpt>
      <trkpt lat="41.112300" lon="-3.661917">
        <ele>2165.0</ele>
        <time>2017-09-30T12:49:59Z</time>
      </trkpt>
      <trkpt lat="41.112383" lon="-3.661833">
        <ele>2167.0</ele>
        <time>2017-09-30T12:50:00Z</time>
      </trkpt>
      <trkpt lat="41.112450" lon="-3.661767">
        <ele>2168.0</ele>
        <time>2017-09-30T12:50:01Z</time>
      </trkpt>
      <trkpt lat="41.112533" lon="-3.661700">
        <ele>2169.0</ele>
        <time>2017-09-30T12:50:02Z</time>
      </trkpt>
      <trkpt lat="41.112617" lon="-3.661650">
        <ele>2169.0</ele>
        <time>2017-09-30T12:50:03Z</time>
      </trkpt>
      <trkpt lat="41.112700" lon="-3.661583">
        <ele>2169.0</ele>
        <time>2017-09-30T12:50:04Z</time>
      </trkpt>
      <trkpt lat="41.112783" lon="-3.661533">
        <ele>2170.0</ele>
        <time>2017-09-30T12:50:05Z</time>
      </trkpt>
      <trkpt lat="41.112883" lon="-3.661483">
        <ele>2171.0</ele>
        <time>2017-09-30T12:50:06Z</time>
      </trkpt>
      <trkpt lat="41.112967" lon="-3.661417">
        <ele>2173.0</ele>
        <time>2017-09-30T12:50:07Z</time>
      </trkpt>
      <trkpt lat="41.113033" lon="-3.661367">
        <ele>2175.0</ele>
        <time>2017-09-30T12:50:08Z</time>
      </trkpt>
      <trkpt lat="41.113117" lon="-3.661317">
        <ele>2176.0</ele>
        <time>2017-09-30T12:50:09Z</time>
      </trkpt>
      <trkpt lat="41.113200" lon="-3.661267">
        <ele>2176.0</ele>
        <time>2017-09-30T12:50:10Z</time>
      </trkpt>
      <trkpt lat="41.113283" lon="-3.661200">
        <ele>2176.0</ele>
        <time>2017-09-30T12:50:11Z</time>
      </trkpt>
      <trkpt lat="41.113383" lon="-3.661150">
        <ele>2177.0</ele>
        <time>2017-09-30T12:50:12Z</time>
      </trkpt>
      <trkpt lat="41.113467" lon="-3.661083">
        <ele>2179.0</ele>
        <time>2017-09-30T12:50:13Z</time>
      </trkpt>
      <trkpt lat="41.113550" lon="-3.661033">
        <ele>2182.0</ele>
        <time>2017-09-30T12:50:14Z</time>
      </trkpt>
      <trkpt lat="41.113617" lon="-3.660967">
        <ele>2184.0</ele>
        <time>2017-09-30T12:50:15Z</time>
      </trkpt>
      <trkpt lat="41.113700" lon="-3.660900">
        <ele>2186.0</ele>
        <time>2017-09-30T12:50:16Z</time>
      </trkpt>
      <trkpt lat="41.113767" lon="-3.660817">
        <ele>2187.0</ele>
        <time>2017-09-30T12:50:17Z</time>
      </trkpt>
      <trkpt lat="41.113850" lon="-3.660767">
        <ele>2188.0</ele>
        <time>2017-09-30T12:50:18Z</time>
      </trkpt>
      <trkpt lat="41.113950" lon="-3.660717">
        <ele>2189.0</ele>
        <time>2017-09-30T12:50:19Z</time>
      </trkpt>
      <trkpt lat="41.114033" lon="-3.660650">
        <ele>2191.0</ele>
        <time>2017-09-30T12:50:20Z</time>
      </trkpt>
      <trkpt lat="41.114117" lon="-3.660600">
        <ele>2192.0</ele>
        <time>2017-09-30T12:50:21Z</time>
      </trkpt>
      <trkpt lat="41.114217" lon="-3.660517">
        <ele>2194.0</ele>
        <time>2017-09-30T12:50:22Z</time>
      </trkpt>
      <trkpt lat="41.114300" lon="-3.660467">
        <ele>2195.0</ele>
        <time>2017-09-30T12:50:23Z</time>
      </trkpt>
      <trkpt lat="41.114383" lon="-3.660400">
        <ele>2196.0</ele>
        <time>2017-09-30T12:50:24Z</time>
      </trkpt>
      <trkpt lat="41.114483" lon="-3.660350">
        <ele>2197.0</ele>
        <time>2017-09-30T12:50:25Z</time>
      </trkpt>
      <trkpt lat="41.114583" lon="-3.660300">
        <ele>2198.0</ele>
        <time>2017-09-30T12:50:26Z</time>
      </trkpt>
      <trkpt lat="41.114683" lon="-3.660233">
        <ele>2199.0</ele>
        <time>2017-09-30T12:50:27Z</time>
      </trkpt>
      <trkpt lat="41.114783" lon="-3.660183">
        <ele>2201.0</ele>
        <time>2017-09-30T12:50:28Z</time>
      </trkpt>
      <trkpt lat="41.114883" lon="-3.660133">
        <ele>2202.0</ele>
        <time>2017-09-30T12:50:29Z</time>
      </trkpt>
      <trkpt lat="41.114983" lon="-3.660083">
        <ele>2204.0</ele>
        <time>2017-09-30T12:50:30Z</time>
      </trkpt>
      <trkpt lat="41.115100" lon="-3.660033">
        <ele>2206.0</ele>
        <time>2017-09-30T12:50:31Z</time>
      </trkpt>
      <trkpt lat="41.115200" lon="-3.659983">
        <ele>2209.0</ele>
        <time>2017-09-30T12:50:32Z</time>
      </trkpt>
      <trkpt lat="41.115283" lon="-3.659917">
        <ele>2210.0</ele>
        <time>2017-09-30T12:50:33Z</time>
      </trkpt>
      <trkpt lat="41.115383" lon="-3.659833">
        <ele>2212.0</ele>
        <time>2017-09-30T12:50:34Z</time>
      </trkpt>
      <trkpt lat="41.115483" lon="-3.659767">
        <ele>2213.0</ele>
        <time>2017-09-30T12:50:35Z</time>
      </trkpt>
      <trkpt lat="41.115583" lon="-3.659700">
        <ele>2214.0</ele>
        <time>2017-09-30T12:50:36Z</time>
      </trkpt>
      <trkpt lat="41.115700" lon="-3.659617">
        <ele>2214.0</ele>
        <time>2017-09-30T12:50:37Z</time>
      </trkpt>
      <trkpt lat="41.115800" lon="-3.659550">
        <ele>2215.0</ele>
        <time>2017-09-30T12:50:38Z</time>
      </trkpt>
      <trkpt lat="41.115900" lon="-3.659467">
        <ele>2217.0</ele>
        <time>2017-09-30T12:50:39Z</time>
      </trkpt>
      <trkpt lat="41.116000" lon="-3.659400">
        <ele>2218.0</ele>
        <time>2017-09-30T12:50:40Z</time>
      </trkpt>
      <trkpt lat="41.116117" lon="-3.659317">
        <ele>2220.0</ele>
        <time>2017-09-30T12:50:41Z</time>
      </trkpt>
      <trkpt lat="41.116217" lon="-3.659233">
        <ele>2221.0</ele>
        <time>2017-09-30T12:50:42Z</time>
      </trkpt>
      <trkpt lat="41.116317" lon="-3.659133">
        <ele>2221.0</ele>
        <time>2017-09-30T12:50:43Z</time>
      </trkpt>
      <trkpt lat="41.116417" lon="-3.659050">
        <ele>2222.0</ele>
        <time>2017-09-30T12:50:44Z</time>
      </trkpt>
      <trkpt lat="41.116533" lon="-3.658967">
        <ele>2223.0</ele>
        <time>2017-09-30T12:50:45Z</time>
      </trkpt>
      <trkpt lat="41.116633" lon="-3.658883">
        <ele>2224.0</ele>
        <time>2017-09-30T12:50:46Z</time>
      </trkpt>
      <trkpt lat="41.116750" lon="-3.658817">
        <ele>2225.0</ele>
        <time>2017-09-30T12:50:47Z</time>
      </trkpt>
      <trkpt lat="41.116850" lon="-3.658750">
        <ele>2227.0</ele>
        <time>2017-09-30T12:50:48Z</time>
      </trkpt>
      <trkpt lat="41.116950" lon="-3.658717">
        <ele>2227.0</ele>
        <time>2017-09-30T12:50:49Z</time>
      </trkpt>
      <trkpt lat="41.117050" lon="-3.658667">
        <ele>2228.0</ele>
        <time>2017-09-30T12:50:50Z</time>
      </trkpt>
      <trkpt lat="41.117167" lon="-3.658617">
        <ele>2228.0</ele>
        <time>2017-09-30T12:50:51Z</time>
      </trkpt>
      <trkpt lat="41.117267" lon="-3.658550">
        <ele>2229.0</ele>
        <time>2017-09-30T12:50:52Z</time>
      </trkpt>
      <trkpt lat="41.117367" lon="-3.658483">
        <ele>2230.0</ele>
        <time>2017-09-30T12:50:53Z</time>
      </trkpt>
      <trkpt lat="41.117450" lon="-3.658417">
        <ele>2230.0</ele>
        <time>2017-09-30T12:50:54Z</time>
      </trkpt>
      <trkpt lat="41.117550" lon="-3.658350">
        <ele>2230.0</ele>
        <time>2017-09-30T12:50:55Z</time>
      </trkpt>
      <trkpt lat="41.117650" lon="-3.658300">
        <ele>2231.0</ele>
        <time>2017-09-30T12:50:56Z</time>
      </trkpt>
      <trkpt lat="41.117733" lon="-3.658217">
        <ele>2231.0</ele>
        <time>2017-09-30T12:50:57Z</time>
      </trkpt>
      <trkpt lat="41.117800" lon="-3.658133">
        <ele>2230.0</ele>
        <time>2017-09-30T12:50:58Z</time>
      </trkpt>
      <trkpt lat="41.117883" lon="-3.658050">
        <ele>2228.0</ele>
        <time>2017-09-30T12:50:59Z</time>
      </trkpt>
      <trkpt lat="41.117967" lon="-3.657950">
        <ele>2226.0</ele>
        <time>2017-09-30T12:51:00Z</time>
      </trkpt>
      <trkpt lat="41.118067" lon="-3.657867">
        <ele>2225.0</ele>
        <time>2017-09-30T12:51:01Z</time>
      </trkpt>
      <trkpt lat="41.118167" lon="-3.657783">
        <ele>2224.0</ele>
        <time>2017-09-30T12:51:02Z</time>
      </trkpt>
      <trkpt lat="41.118250" lon="-3.657700">
        <ele>2224.0</ele>
        <time>2017-09-30T12:51:03Z</time>
      </trkpt>
      <trkpt lat="41.118333" lon="-3.657617">
        <ele>2224.0</ele>
        <time>2017-09-30T12:51:04Z</time>
      </trkpt>
      <trkpt lat="41.118417" lon="-3.657517">
        <ele>2223.0</ele>
        <time>2017-09-30T12:51:05Z</time>
      </trkpt>
      <trkpt lat="41.118500" lon="-3.657433">
        <ele>2222.0</ele>
        <time>2017-09-30T12:51:06Z</time>
      </trkpt>
      <trkpt lat="41.118600" lon="-3.657333">
        <ele>2220.0</ele>
        <time>2017-09-30T12:51:07Z</time>
      </trkpt>
      <trkpt lat="41.118700" lon="-3.657250">
        <ele>2219.0</ele>
        <time>2017-09-30T12:51:08Z</time>
      </trkpt>
      <trkpt lat="41.118783" lon="-3.657150">
        <ele>2218.0</ele>
        <time>2017-09-30T12:51:09Z</time>
      </trkpt>
      <trkpt lat="41.118883" lon="-3.657067">
        <ele>2217.0</ele>
        <time>2017-09-30T12:51:10Z</time>
      </trkpt>
      <trkpt lat="41.118983" lon="-3.656983">
        <ele>2216.0</ele>
        <time>2017-09-30T12:51:11Z</time>
      </trkpt>
      <trkpt lat="41.119083" lon="-3.656900">
        <ele>2216.0</ele>
        <time>2017-09-30T12:51:12Z</time>
      </trkpt>
      <trkpt lat="41.119167" lon="-3.656817">
        <ele>2216.0</ele>
        <time>2017-09-30T12:51:13Z</time>
      </trkpt>
      <trkpt lat="41.119267" lon="-3.656750">
        <ele>2216.0</ele>
        <time>2017-09-30T12:51:14Z</time>
      </trkpt>
      <trkpt lat="41.119350" lon="-3.656667">
        <ele>2215.0</ele>
        <time>2017-09-30T12:51:15Z</time>
      </trkpt>
      <trkpt lat="41.119433" lon="-3.656583">
        <ele>2215.0</ele>
        <time>2017-09-30T12:51:16Z</time>
      </trkpt>
      <trkpt lat="41.119533" lon="-3.656500">
        <ele>2214.0</ele>
        <time>2017-09-30T12:51:17Z</time>
      </trkpt>
      <trkpt lat="41.119617" lon="-3.656433">
        <ele>2214.0</ele>
        <time>2017-09-30T12:51:18Z</time>
      </trkpt>
      <trkpt lat="41.119717" lon="-3.656350">
        <ele>2213.0</ele>
        <time>2017-09-30T12:51:19Z</time>
      </trkpt>
      <trkpt lat="41.119800" lon="-3.656267">
        <ele>2212.0</ele>
        <time>2017-09-30T12:51:20Z</time>
      </trkpt>
      <trkpt lat="41.119900" lon="-3.656200">
        <ele>2212.0</ele>
        <time>2017-09-30T12:51:21Z</time>
      </trkpt>
      <trkpt lat="41.119983" lon="-3.656133">
        <ele>2211.0</ele>
        <time>2017-09-30T12:51:22Z</time>
      </trkpt>
      <trkpt lat="41.120067" lon="-3.656050">
        <ele>2211.0</ele>
        <time>2017-09-30T12:51:23Z</time>
      </trkpt>
      <trkpt lat="41.120150" lon="-3.655983">
        <ele>2210.0</ele>
        <time>2017-09-30T12:51:24Z</time>
      </trkpt>
      <trkpt lat="41.120233" lon="-3.655900">
        <ele>2209.0</ele>
        <time>2017-09-30T12:51:25Z</time>
      </trkpt>
      <trkpt lat="41.120317" lon="-3.655817">
        <ele>2207.0</ele>
        <time>2017-09-30T12:51:26Z</time>
      </trkpt>
      <trkpt lat="41.120400" lon="-3.655733">
        <ele>2206.0</ele>
        <time>2017-09-30T12:51:27Z</time>
      </trkpt>
      <trkpt lat="41.120483" lon="-3.655633">
        <ele>2206.0</ele>
        <time>2017-09-30T12:51:28Z</time>
      </trkpt>
      <trkpt lat="41.120550" lon="-3.655550">
        <ele>2205.0</ele>
        <time>2017-09-30T12:51:29Z</time>
      </trkpt>
      <trkpt lat="41.120633" lon="-3.655467">
        <ele>2204.0</ele>
        <time>2017-09-30T12:51:30Z</time>
      </trkpt>
      <trkpt lat="41.120700" lon="-3.655367">
        <ele>2202.0</ele>
        <time>2017-09-30T12:51:31Z</time>
      </trkpt>
      <trkpt lat="41.120767" lon="-3.655267">
        <ele>2200.0</ele>
        <time>2017-09-30T12:51:32Z</time>
      </trkpt>
      <trkpt lat="41.120850" lon="-3.655150">
        <ele>2197.0</ele>
        <time>2017-09-30T12:51:33Z</time>
      </trkpt>
      <trkpt lat="41.120933" lon="-3.655050">
        <ele>2194.0</ele>
        <time>2017-09-30T12:51:34Z</time>
      </trkpt>
      <trkpt lat="41.121017" lon="-3.654950">
        <ele>2191.0</ele>
        <time>2017-09-30T12:51:35Z</time>
      </trkpt>
      <trkpt lat="41.121083" lon="-3.654850">
        <ele>2188.0</ele>
        <time>2017-09-30T12:51:36Z</time>
      </trkpt>
      <trkpt lat="41.121167" lon="-3.654750">
        <ele>2186.0</ele>
        <time>2017-09-30T12:51:37Z</time>
      </trkpt>
      <trkpt lat="41.121233" lon="-3.654650">
        <ele>2182.0</ele>
        <time>2017-09-30T12:51:38Z</time>
      </trkpt>
      <trkpt lat="41.121317" lon="-3.654550">
        <ele>2179.0</ele>
        <time>2017-09-30T12:51:39Z</time>
      </trkpt>
      <trkpt lat="41.121400" lon="-3.654450">
        <ele>2175.0</ele>
        <time>2017-09-30T12:51:40Z</time>
      </trkpt>
      <trkpt lat="41.121483" lon="-3.654350">
        <ele>2172.0</ele>
        <time>2017-09-30T12:51:41Z</time>
      </trkpt>
      <trkpt lat="41.121583" lon="-3.654267">
        <ele>2169.0</ele>
        <time>2017-09-30T12:51:42Z</time>
      </trkpt>
      <trkpt lat="41.121667" lon="-3.654167">
        <ele>2167.0</ele>
        <time>2017-09-30T12:51:43Z</time>
      </trkpt>
      <trkpt lat="41.121750" lon="-3.654083">
        <ele>2165.0</ele>
        <time>2017-09-30T12:51:44Z</time>
      </trkpt>
      <trkpt lat="41.121833" lon="-3.654000">
        <ele>2162.0</ele>
        <time>2017-09-30T12:51:45Z</time>
      </trkpt>
      <trkpt lat="41.121917" lon="-3.653933">
        <ele>2160.0</ele>
        <time>2017-09-30T12:51:46Z</time>
      </trkpt>
      <trkpt lat="41.122017" lon="-3.653867">
        <ele>2157.0</ele>
        <time>2017-09-30T12:51:47Z</time>
      </trkpt>
      <trkpt lat="41.122117" lon="-3.653783">
        <ele>2155.0</ele>
        <time>2017-09-30T12:51:48Z</time>
      </trkpt>
      <trkpt lat="41.122200" lon="-3.653717">
        <ele>2152.0</ele>
        <time>2017-09-30T12:51:49Z</time>
      </trkpt>
      <trkpt lat="41.122300" lon="-3.653650">
        <ele>2150.0</ele>
        <time>2017-09-30T12:51:50Z</time>
      </trkpt>
      <trkpt lat="41.122383" lon="-3.653583">
        <ele>2148.0</ele>
        <time>2017-09-30T12:51:51Z</time>
      </trkpt>
      <trkpt lat="41.122483" lon="-3.653517">
        <ele>2146.0</ele>
        <time>2017-09-30T12:51:52Z</time>
      </trkpt>
      <trkpt lat="41.122567" lon="-3.653433">
        <ele>2143.0</ele>
        <time>2017-09-30T12:51:53Z</time>
      </trkpt>
      <trkpt lat="41.122650" lon="-3.653350">
        <ele>2141.0</ele>
        <time>2017-09-30T12:51:54Z</time>
      </trkpt>
      <trkpt lat="41.122750" lon="-3.653267">
        <ele>2138.0</ele>
        <time>2017-09-30T12:51:55Z</time>
      </trkpt>
      <trkpt lat="41.122850" lon="-3.653183">
        <ele>2136.0</ele>
        <time>2017-09-30T12:51:56Z</time>
      </trkpt>
      <trkpt lat="41.122933" lon="-3.653083">
        <ele>2134.0</ele>
        <time>2017-09-30T12:51:57Z</time>
      </trkpt>
      <trkpt lat="41.123017" lon="-3.653000">
        <ele>2133.0</ele>
        <time>2017-09-30T12:51:58Z</time>
      </trkpt>
      <trkpt lat="41.123100" lon="-3.652900">
        <ele>2131.0</ele>
        <time>2017-09-30T12:51:59Z</time>
      </trkpt>
      <trkpt lat="41.123167" lon="-3.652817">
        <ele>2129.0</ele>
        <time>2017-09-30T12:52:00Z</time>
      </trkpt>
      <trkpt lat="41.123250" lon="-3.652733">
        <ele>2126.0</ele>
        <time>2017-09-30T12:52:01Z</time>
      </trkpt>
      <trkpt lat="41.123350" lon="-3.652633">
        <ele>2122.0</ele>
        <time>2017-09-30T12:52:02Z</time>
      </trkpt>
      <trkpt lat="41.123433" lon="-3.652550">
        <ele>2119.0</ele>
        <time>2017-09-30T12:52:03Z</time>
      </trkpt>
      <trkpt lat="41.123533" lon="-3.652467">
        <ele>2117.0</ele>
        <time>2017-09-30T12:52:04Z</time>
      </trkpt>
      <trkpt lat="41.123617" lon="-3.652383">
        <ele>2115.0</ele>
        <time>2017-09-30T12:52:05Z</time>
      </trkpt>
      <trkpt lat="41.123700" lon="-3.652300">
        <ele>2113.0</ele>
        <time>2017-09-30T12:52:06Z</time>
      </trkpt>
      <trkpt lat="41.123783" lon="-3.652200">
        <ele>2111.0</ele>
        <time>2017-09-30T12:52:07Z</time>
      </trkpt>
      <trkpt lat="41.123883" lon="-3.652117">
        <ele>2109.0</ele>
        <time>2017-09-30T12:52:08Z</time>
      </trkpt>
      <trkpt lat="41.123967" lon="-3.652017">
        <ele>2109.0</ele>
        <time>2017-09-30T12:52:09Z</time>
      </trkpt>
      <trkpt lat="41.124067" lon="-3.651917">
        <ele>2108.0</ele>
        <time>2017-09-30T12:52:10Z</time>
      </trkpt>
      <trkpt lat="41.124150" lon="-3.651817">
        <ele>2108.0</ele>
        <time>2017-09-30T12:52:11Z</time>
      </trkpt>
      <trkpt lat="41.124233" lon="-3.651717">
        <ele>2107.0</ele>
        <time>2017-09-30T12:52:12Z</time>
      </trkpt>
      <trkpt lat="41.124317" lon="-3.651633">
        <ele>2106.0</ele>
        <time>2017-09-30T12:52:13Z</time>
      </trkpt>
      <trkpt lat="41.124383" lon="-3.651550">
        <ele>2105.0</ele>
        <time>2017-09-30T12:52:14Z</time>
      </trkpt>
      <trkpt lat="41.124467" lon="-3.651467">
        <ele>2103.0</ele>
        <time>2017-09-30T12:52:15Z</time>
      </trkpt>
      <trkpt lat="41.124550" lon="-3.651367">
        <ele>2100.0</ele>
        <time>2017-09-30T12:52:16Z</time>
      </trkpt>
      <trkpt lat="41.124650" lon="-3.651267">
        <ele>2098.0</ele>
        <time>2017-09-30T12:52:17Z</time>
      </trkpt>
      <trkpt lat="41.124733" lon="-3.651167">
        <ele>2096.0</ele>
        <time>2017-09-30T12:52:18Z</time>
      </trkpt>
      <trkpt lat="41.124833" lon="-3.651067">
        <ele>2095.0</ele>
        <time>2017-09-30T12:52:19Z</time>
      </trkpt>
      <trkpt lat="41.124917" lon="-3.650983">
        <ele>2095.0</ele>
        <time>2017-09-30T12:52:20Z</time>
      </trkpt>
      <trkpt lat="41.125000" lon="-3.650883">
        <ele>2093.0</ele>
        <time>2017-09-30T12:52:21Z</time>
      </trkpt>
      <trkpt lat="41.125083" lon="-3.650800">
        <ele>2091.0</ele>
        <time>2017-09-30T12:52:22Z</time>
      </trkpt>
      <trkpt lat="41.125183" lon="-3.650717">
        <ele>2089.0</ele>
        <time>2017-09-30T12:52:23Z</time>
      </trkpt>
      <trkpt lat="41.125267" lon="-3.650600">
        <ele>2087.0</ele>
        <time>2017-09-30T12:52:24Z</time>
      </trkpt>
      <trkpt lat="41.125367" lon="-3.650500">
        <ele>2085.0</ele>
        <time>2017-09-30T12:52:25Z</time>
      </trkpt>
      <trkpt lat="41.125450" lon="-3.650383">
        <ele>2084.0</ele>
        <time>2017-09-30T12:52:26Z</time>
      </trkpt>
      <trkpt lat="41.125533" lon="-3.650283">
        <ele>2082.0</ele>
        <time>2017-09-30T12:52:27Z</time>
      </trkpt>
      <trkpt lat="41.125617" lon="-3.650167">
        <ele>2080.0</ele>
        <time>2017-09-30T12:52:28Z</time>
      </trkpt>
      <trkpt lat="41.125717" lon="-3.650050">
        <ele>2078.0</ele>
        <time>2017-09-30T12:52:29Z</time>
      </trkpt>
      <trkpt lat="41.125800" lon="-3.649933">
        <ele>2076.0</ele>
        <time>2017-09-30T12:52:30Z</time>
      </trkpt>
      <trkpt lat="41.125900" lon="-3.649817">
        <ele>2075.0</ele>
        <time>2017-09-30T12:52:31Z</time>
      </trkpt>
      <trkpt lat="41.125983" lon="-3.649700">
        <ele>2075.0</ele>
        <time>2017-09-30T12:52:32Z</time>
      </trkpt>
      <trkpt lat="41.126067" lon="-3.649600">
        <ele>2074.0</ele>
        <time>2017-09-30T12:52:33Z</time>
      </trkpt>
      <trkpt lat="41.126150" lon="-3.649483">
        <ele>2072.0</ele>
        <time>2017-09-30T12:52:34Z</time>
      </trkpt>
      <trkpt lat="41.126217" lon="-3.649367">
        <ele>2069.0</ele>
        <time>2017-09-30T12:52:35Z</time>
      </trkpt>
      <trkpt lat="41.126317" lon="-3.649250">
        <ele>2066.0</ele>
        <time>2017-09-30T12:52:36Z</time>
      </trkpt>
      <trkpt lat="41.126417" lon="-3.649133">
        <ele>2064.0</ele>
        <time>2017-09-30T12:52:37Z</time>
      </trkpt>
      <trkpt lat="41.126500" lon="-3.649050">
        <ele>2063.0</ele>
        <time>2017-09-30T12:52:38Z</time>
      </trkpt>
      <trkpt lat="41.126583" lon="-3.648967">
        <ele>2062.0</ele>
        <time>2017-09-30T12:52:39Z</time>
      </trkpt>
      <trkpt lat="41.126667" lon="-3.648883">
        <ele>2061.0</ele>
        <time>2017-09-30T12:52:40Z</time>
      </trkpt>
      <trkpt lat="41.126750" lon="-3.648800">
        <ele>2058.0</ele>
        <time>2017-09-30T12:52:41Z</time>
      </trkpt>
      <trkpt lat="41.126833" lon="-3.648717">
        <ele>2056.0</ele>
        <time>2017-09-30T12:52:42Z</time>
      </trkpt>
      <trkpt lat="41.126933" lon="-3.648633">
        <ele>2053.0</ele>
        <time>2017-09-30T12:52:43Z</time>
      </trkpt>
      <trkpt lat="41.127033" lon="-3.648550">
        <ele>2051.0</ele>
        <time>2017-09-30T12:52:44Z</time>
      </trkpt>
      <trkpt lat="41.127117" lon="-3.648467">
        <ele>2050.0</ele>
        <time>2017-09-30T12:52:45Z</time>
      </trkpt>
      <trkpt lat="41.127200" lon="-3.648367">
        <ele>2048.0</ele>
        <time>2017-09-30T12:52:46Z</time>
      </trkpt>
      <trkpt lat="41.127283" lon="-3.648283">
        <ele>2046.0</ele>
        <time>2017-09-30T12:52:47Z</time>
      </trkpt>
      <trkpt lat="41.127383" lon="-3.648200">
        <ele>2044.0</ele>
        <time>2017-09-30T12:52:48Z</time>
      </trkpt>
      <trkpt lat="41.127467" lon="-3.648117">
        <ele>2041.0</ele>
        <time>2017-09-30T12:52:49Z</time>
      </trkpt>
      <trkpt lat="41.127567" lon="-3.648017">
        <ele>2039.0</ele>
        <time>2017-09-30T12:52:50Z</time>
      </trkpt>
      <trkpt lat="41.127650" lon="-3.647917">
        <ele>2037.0</ele>
        <time>2017-09-30T12:52:51Z</time>
      </trkpt>
      <trkpt lat="41.127733" lon="-3.647833">
        <ele>2035.0</ele>
        <time>2017-09-30T12:52:52Z</time>
      </trkpt>
      <trkpt lat="41.127833" lon="-3.647750">
        <ele>2032.0</ele>
        <time>2017-09-30T12:52:53Z</time>
      </trkpt>
      <trkpt lat="41.127917" lon="-3.647650">
        <ele>2030.0</ele>
        <time>2017-09-30T12:52:54Z</time>
      </trkpt>
      <trkpt lat="41.128017" lon="-3.647567">
        <ele>2029.0</ele>
        <time>2017-09-30T12:52:55Z</time>
      </trkpt>
      <trkpt lat="41.128100" lon="-3.647500">
        <ele>2029.0</ele>
        <time>2017-09-30T12:52:56Z</time>
      </trkpt>
      <trkpt lat="41.128200" lon="-3.647450">
        <ele>2028.0</ele>
        <time>2017-09-30T12:52:57Z</time>
      </trkpt>
      <trkpt lat="41.128283" lon="-3.647400">
        <ele>2028.0</ele>
        <time>2017-09-30T12:52:58Z</time>
      </trkpt>
      <trkpt lat="41.128383" lon="-3.647383">
        <ele>2028.0</ele>
        <time>2017-09-30T12:52:59Z</time>
      </trkpt>
      <trkpt lat="41.128483" lon="-3.647367">
        <ele>2029.0</ele>
        <time>2017-09-30T12:53:00Z</time>
      </trkpt>
      <trkpt lat="41.128567" lon="-3.647350">
        <ele>2030.0</ele>
        <time>2017-09-30T12:53:01Z</time>
      </trkpt>
      <trkpt lat="41.128650" lon="-3.647317">
        <ele>2031.0</ele>
        <time>2017-09-30T12:53:02Z</time>
      </trkpt>
      <trkpt lat="41.128717" lon="-3.647300">
        <ele>2032.0</ele>
        <time>2017-09-30T12:53:03Z</time>
      </trkpt>
      <trkpt lat="41.128800" lon="-3.647283">
        <ele>2031.0</ele>
        <time>2017-09-30T12:53:04Z</time>
      </trkpt>
      <trkpt lat="41.128900" lon="-3.647250">
        <ele>2030.0</ele>
        <time>2017-09-30T12:53:05Z</time>
      </trkpt>
      <trkpt lat="41.129000" lon="-3.647233">
        <ele>2029.0</ele>
        <time>2017-09-30T12:53:06Z</time>
      </trkpt>
      <trkpt lat="41.129117" lon="-3.647183">
        <ele>2029.0</ele>
        <time>2017-09-30T12:53:07Z</time>
      </trkpt>
      <trkpt lat="41.129217" lon="-3.647083">
        <ele>2030.0</ele>
        <time>2017-09-30T12:53:08Z</time>
      </trkpt>
      <trkpt lat="41.129300" lon="-3.646983">
        <ele>2031.0</ele>
        <time>2017-09-30T12:53:09Z</time>
      </trkpt>
      <trkpt lat="41.129383" lon="-3.646850">
        <ele>2032.0</ele>
        <time>2017-09-30T12:53:10Z</time>
      </trkpt>
      <trkpt lat="41.129433" lon="-3.646683">
        <ele>2033.0</ele>
        <time>2017-09-30T12:53:11Z</time>
      </trkpt>
      <trkpt lat="41.129450" lon="-3.646517">
        <ele>2033.0</ele>
        <time>2017-09-30T12:53:12Z</time>
      </trkpt>
      <trkpt lat="41.129450" lon="-3.646350">
        <ele>2034.0</ele>
        <time>2017-09-30T12:53:13Z</time>
      </trkpt>
      <trkpt lat="41.129417" lon="-3.646183">
        <ele>2034.0</ele>
        <time>2017-09-30T12:53:14Z</time>
      </trkpt>
      <trkpt lat="41.129350" lon="-3.646050">
        <ele>2035.0</ele>
        <time>2017-09-30T12:53:15Z</time>
      </trkpt>
      <trkpt lat="41.129283" lon="-3.645933">
        <ele>2036.0</ele>
        <time>2017-09-30T12:53:16Z</time>
      </trkpt>
      <trkpt lat="41.129200" lon="-3.645850">
        <ele>2037.0</ele>
        <time>2017-09-30T12:53:17Z</time>
      </trkpt>
      <trkpt lat="41.129117" lon="-3.645817">
        <ele>2037.0</ele>
        <time>2017-09-30T12:53:18Z</time>
      </trkpt>
      <trkpt lat="41.129050" lon="-3.645817">
        <ele>2037.0</ele>
        <time>2017-09-30T12:53:19Z</time>
      </trkpt>
      <trkpt lat="41.128983" lon="-3.645850">
        <ele>2038.0</ele>
        <time>2017-09-30T12:53:20Z</time>
      </trkpt>
      <trkpt lat="41.128933" lon="-3.645883">
        <ele>2039.0</ele>
        <time>2017-09-30T12:53:21Z</time>
      </trkpt>
      <trkpt lat="41.128900" lon="-3.645933">
        <ele>2039.0</ele>
        <time>2017-09-30T12:53:22Z</time>
      </trkpt>
      <trkpt lat="41.128900" lon="-3.646000">
        <ele>2040.0</ele>
        <time>2017-09-30T12:53:23Z</time>
      </trkpt>
      <trkpt lat="41.128900" lon="-3.646067">
        <ele>2039.0</ele>
        <time>2017-09-30T12:53:24Z</time>
      </trkpt>
      <trkpt lat="41.128917" lon="-3.646150">
        <ele>2039.0</ele>
        <time>2017-09-30T12:53:25Z</time>
      </trkpt>
      <trkpt lat="41.128933" lon="-3.646217">
        <ele>2039.0</ele>
        <time>2017-09-30T12:53:26Z</time>
      </trkpt>
      <trkpt lat="41.128967" lon="-3.646283">
        <ele>2041.0</ele>
        <time>2017-09-30T12:53:27Z</time>
      </trkpt>
      <trkpt lat="41.128983" lon="-3.646333">
        <ele>2043.0</ele>
        <time>2017-09-30T12:53:28Z</time>
      </trkpt>
      <trkpt lat="41.129017" lon="-3.646400">
        <ele>2043.0</ele>
        <time>2017-09-30T12:53:29Z</time>
      </trkpt>
      <trkpt lat="41.129050" lon="-3.646450">
        <ele>2044.0</ele>
        <time>2017-09-30T12:53:30Z</time>
      </trkpt>
      <trkpt lat="41.129100" lon="-3.646483">
        <ele>2045.0</ele>
        <time>2017-09-30T12:53:31Z</time>
      </trkpt>
      <trkpt lat="41.129150" lon="-3.646517">
        <ele>2046.0</ele>
        <time>2017-09-30T12:53:32Z</time>
      </trkpt>
      <trkpt lat="41.129200" lon="-3.646550">
        <ele>2047.0</ele>
        <time>2017-09-30T12:53:33Z</time>
      </trkpt>
      <trkpt lat="41.129233" lon="-3.646583">
        <ele>2049.0</ele>
        <time>2017-09-30T12:53:34Z</time>
      </trkpt>
      <trkpt lat="41.129283" lon="-3.646633">
        <ele>2050.0</ele>
        <time>2017-09-30T12:53:35Z</time>
      </trkpt>
      <trkpt lat="41.129333" lon="-3.646667">
        <ele>2051.0</ele>
        <time>2017-09-30T12:53:36Z</time>
      </trkpt>
      <trkpt lat="41.129383" lon="-3.646683">
        <ele>2053.0</ele>
        <time>2017-09-30T12:53:37Z</time>
      </trkpt>
      <trkpt lat="41.129467" lon="-3.646667">
        <ele>2054.0</ele>
        <time>2017-09-30T12:53:38Z</time>
      </trkpt>
      <trkpt lat="41.129550" lon="-3.646633">
        <ele>2054.0</ele>
        <time>2017-09-30T12:53:39Z</time>
      </trkpt>
      <trkpt lat="41.129617" lon="-3.646583">
        <ele>2055.0</ele>
        <time>2017-09-30T12:53:40Z</time>
      </trkpt>
      <trkpt lat="41.129700" lon="-3.646500">
        <ele>2055.0</ele>
        <time>2017-09-30T12:53:41Z</time>
      </trkpt>
      <trkpt lat="41.129783" lon="-3.646417">
        <ele>2056.0</ele>
        <time>2017-09-30T12:53:42Z</time>
      </trkpt>
      <trkpt lat="41.129867" lon="-3.646300">
        <ele>2058.0</ele>
        <time>2017-09-30T12:53:43Z</time>
      </trkpt>
      <trkpt lat="41.129917" lon="-3.646167">
        <ele>2060.0</ele>
        <time>2017-09-30T12:53:44Z</time>
      </trkpt>
      <trkpt lat="41.129950" lon="-3.646017">
        <ele>2062.0</ele>
        <time>2017-09-30T12:53:45Z</time>
      </trkpt>
      <trkpt lat="41.129950" lon="-3.645867">
        <ele>2064.0</ele>
        <time>2017-09-30T12:53:46Z</time>
      </trkpt>
      <trkpt lat="41.129950" lon="-3.645733">
        <ele>2064.0</ele>
        <time>2017-09-30T12:53:47Z</time>
      </trkpt>
      <trkpt lat="41.129933" lon="-3.645583">
        <ele>2065.0</ele>
        <time>2017-09-30T12:53:48Z</time>
      </trkpt>
      <trkpt lat="41.129900" lon="-3.645450">
        <ele>2066.0</ele>
        <time>2017-09-30T12:53:49Z</time>
      </trkpt>
      <trkpt lat="41.129850" lon="-3.645317">
        <ele>2066.0</ele>
        <time>2017-09-30T12:53:50Z</time>
      </trkpt>
      <trkpt lat="41.129783" lon="-3.645217">
        <ele>2067.0</ele>
        <time>2017-09-30T12:53:51Z</time>
      </trkpt>
      <trkpt lat="41.129717" lon="-3.645117">
        <ele>2068.0</ele>
        <time>2017-09-30T12:53:52Z</time>
      </trkpt>
      <trkpt lat="41.129633" lon="-3.645033">
        <ele>2070.0</ele>
        <time>2017-09-30T12:53:53Z</time>
      </trkpt>
      <trkpt lat="41.129533" lon="-3.644967">
        <ele>2071.0</ele>
        <time>2017-09-30T12:53:54Z</time>
      </trkpt>
      <trkpt lat="41.129467" lon="-3.644917">
        <ele>2073.0</ele>
        <time>2017-09-30T12:53:55Z</time>
      </trkpt>
      <trkpt lat="41.129383" lon="-3.644900">
        <ele>2074.0</ele>
        <time>2017-09-30T12:53:56Z</time>
      </trkpt>
      <trkpt lat="41.129317" lon="-3.644900">
        <ele>2075.0</ele>
        <time>2017-09-30T12:53:57Z</time>
      </trkpt>
      <trkpt lat="41.129250" lon="-3.644883">
        <ele>2075.0</ele>
        <time>2017-09-30T12:53:58Z</time>
      </trkpt>
      <trkpt lat="41.129183" lon="-3.644883">
        <ele>2074.0</ele>
        <time>2017-09-30T12:53:59Z</time>
      </trkpt>
      <trkpt lat="41.129117" lon="-3.644917">
        <ele>2073.0</ele>
        <time>2017-09-30T12:54:00Z</time>
      </trkpt>
      <trkpt lat="41.129067" lon="-3.644967">
        <ele>2072.0</ele>
        <time>2017-09-30T12:54:01Z</time>
      </trkpt>
      <trkpt lat="41.129017" lon="-3.645033">
        <ele>2073.0</ele>
        <time>2017-09-30T12:54:02Z</time>
      </trkpt>
      <trkpt lat="41.128983" lon="-3.645100">
        <ele>2074.0</ele>
        <time>2017-09-30T12:54:03Z</time>
      </trkpt>
      <trkpt lat="41.129000" lon="-3.645167">
        <ele>2076.0</ele>
        <time>2017-09-30T12:54:04Z</time>
      </trkpt>
      <trkpt lat="41.129033" lon="-3.645200">
        <ele>2078.0</ele>
        <time>2017-09-30T12:54:05Z</time>
      </trkpt>
      <trkpt lat="41.129083" lon="-3.645217">
        <ele>2078.0</ele>
        <time>2017-09-30T12:54:06Z</time>
      </trkpt>
      <trkpt lat="41.129133" lon="-3.645217">
        <ele>2079.0</ele>
        <time>2017-09-30T12:54:07Z</time>
      </trkpt>
      <trkpt lat="41.129183" lon="-3.645233">
        <ele>2079.0</ele>
        <time>2017-09-30T12:54:08Z</time>
      </trkpt>
      <trkpt lat="41.129250" lon="-3.645250">
        <ele>2079.0</ele>
        <time>2017-09-30T12:54:09Z</time>
      </trkpt>
      <trkpt lat="41.129300" lon="-3.645250">
        <ele>2080.0</ele>
        <time>2017-09-30T12:54:10Z</time>
      </trkpt>
      <trkpt lat="41.129367" lon="-3.645250">
        <ele>2080.0</ele>
        <time>2017-09-30T12:54:11Z</time>
      </trkpt>
      <trkpt lat="41.129450" lon="-3.645233">
        <ele>2081.0</ele>
        <time>2017-09-30T12:54:12Z</time>
      </trkpt>
      <trkpt lat="41.129517" lon="-3.645233">
        <ele>2081.0</ele>
        <time>2017-09-30T12:54:13Z</time>
      </trkpt>
      <trkpt lat="41.129583" lon="-3.645250">
        <ele>2082.0</ele>
        <time>2017-09-30T12:54:14Z</time>
      </trkpt>
      <trkpt lat="41.129667" lon="-3.645250">
        <ele>2084.0</ele>
        <time>2017-09-30T12:54:15Z</time>
      </trkpt>
      <trkpt lat="41.129733" lon="-3.645233">
        <ele>2085.0</ele>
        <time>2017-09-30T12:54:16Z</time>
      </trkpt>
      <trkpt lat="41.129800" lon="-3.645217">
        <ele>2087.0</ele>
        <time>2017-09-30T12:54:17Z</time>
      </trkpt>
      <trkpt lat="41.129867" lon="-3.645183">
        <ele>2087.0</ele>
        <time>2017-09-30T12:54:18Z</time>
      </trkpt>
      <trkpt lat="41.129933" lon="-3.645167">
        <ele>2087.0</ele>
        <time>2017-09-30T12:54:19Z</time>
      </trkpt>
      <trkpt lat="41.130000" lon="-3.645150">
        <ele>2086.0</ele>
        <time>2017-09-30T12:54:20Z</time>
      </trkpt>
      <trkpt lat="41.130100" lon="-3.645133">
        <ele>2086.0</ele>
        <time>2017-09-30T12:54:21Z</time>
      </trkpt>
      <trkpt lat="41.130183" lon="-3.645100">
        <ele>2086.0</ele>
        <time>2017-09-30T12:54:22Z</time>
      </trkpt>
      <trkpt lat="41.130267" lon="-3.645067">
        <ele>2088.0</ele>
        <time>2017-09-30T12:54:23Z</time>
      </trkpt>
      <trkpt lat="41.130350" lon="-3.645033">
        <ele>2091.0</ele>
        <time>2017-09-30T12:54:24Z</time>
      </trkpt>
      <trkpt lat="41.130417" lon="-3.645017">
        <ele>2093.0</ele>
        <time>2017-09-30T12:54:25Z</time>
      </trkpt>
      <trkpt lat="41.130483" lon="-3.644983">
        <ele>2095.0</ele>
        <time>2017-09-30T12:54:26Z</time>
      </trkpt>
      <trkpt lat="41.130550" lon="-3.644967">
        <ele>2095.0</ele>
        <time>2017-09-30T12:54:27Z</time>
      </trkpt>
      <trkpt lat="41.130617" lon="-3.644950">
        <ele>2095.0</ele>
        <time>2017-09-30T12:54:28Z</time>
      </trkpt>
      <trkpt lat="41.130683" lon="-3.644933">
        <ele>2095.0</ele>
        <time>2017-09-30T12:54:29Z</time>
      </trkpt>
      <trkpt lat="41.130767" lon="-3.644883">
        <ele>2096.0</ele>
        <time>2017-09-30T12:54:30Z</time>
      </trkpt>
      <trkpt lat="41.130833" lon="-3.644833">
        <ele>2098.0</ele>
        <time>2017-09-30T12:54:31Z</time>
      </trkpt>
      <trkpt lat="41.130900" lon="-3.644783">
        <ele>2100.0</ele>
        <time>2017-09-30T12:54:32Z</time>
      </trkpt>
      <trkpt lat="41.130967" lon="-3.644733">
        <ele>2101.0</ele>
        <time>2017-09-30T12:54:33Z</time>
      </trkpt>
      <trkpt lat="41.131033" lon="-3.644700">
        <ele>2101.0</ele>
        <time>2017-09-30T12:54:34Z</time>
      </trkpt>
      <trkpt lat="41.131100" lon="-3.644667">
        <ele>2100.0</ele>
        <time>2017-09-30T12:54:35Z</time>
      </trkpt>
      <trkpt lat="41.131183" lon="-3.644633">
        <ele>2100.0</ele>
        <time>2017-09-30T12:54:36Z</time>
      </trkpt>
      <trkpt lat="41.131250" lon="-3.644600">
        <ele>2101.0</ele>
        <time>2017-09-30T12:54:37Z</time>
      </trkpt>
      <trkpt lat="41.131333" lon="-3.644550">
        <ele>2102.0</ele>
        <time>2017-09-30T12:54:38Z</time>
      </trkpt>
      <trkpt lat="41.131400" lon="-3.644500">
        <ele>2103.0</ele>
        <time>2017-09-30T12:54:39Z</time>
      </trkpt>
      <trkpt lat="41.131467" lon="-3.644450">
        <ele>2104.0</ele>
        <time>2017-09-30T12:54:40Z</time>
      </trkpt>
      <trkpt lat="41.131533" lon="-3.644400">
        <ele>2104.0</ele>
        <time>2017-09-30T12:54:41Z</time>
      </trkpt>
      <trkpt lat="41.131617" lon="-3.644350">
        <ele>2105.0</ele>
        <time>2017-09-30T12:54:42Z</time>
      </trkpt>
      <trkpt lat="41.131683" lon="-3.644300">
        <ele>2105.0</ele>
        <time>2017-09-30T12:54:43Z</time>
      </trkpt>
      <trkpt lat="41.131767" lon="-3.644250">
        <ele>2106.0</ele>
        <time>2017-09-30T12:54:44Z</time>
      </trkpt>
      <trkpt lat="41.131850" lon="-3.644183">
        <ele>2108.0</ele>
        <time>2017-09-30T12:54:45Z</time>
      </trkpt>
      <trkpt lat="41.131917" lon="-3.644133">
        <ele>2110.0</ele>
        <time>2017-09-30T12:54:46Z</time>
      </trkpt>
      <trkpt lat="41.131983" lon="-3.644100">
        <ele>2111.0</ele>
        <time>2017-09-30T12:54:47Z</time>
      </trkpt>
      <trkpt lat="41.132050" lon="-3.644050">
        <ele>2112.0</ele>
        <time>2017-09-30T12:54:48Z</time>
      </trkpt>
      <trkpt lat="41.132117" lon="-3.644017">
        <ele>2111.0</ele>
        <time>2017-09-30T12:54:49Z</time>
      </trkpt>
      <trkpt lat="41.132200" lon="-3.643983">
        <ele>2111.0</ele>
        <time>2017-09-30T12:54:50Z</time>
      </trkpt>
      <trkpt lat="41.132283" lon="-3.643950">
        <ele>2112.0</ele>
        <time>2017-09-30T12:54:51Z</time>
      </trkpt>
      <trkpt lat="41.132367" lon="-3.643900">
        <ele>2113.0</ele>
        <time>2017-09-30T12:54:52Z</time>
      </trkpt>
      <trkpt lat="41.132433" lon="-3.643867">
        <ele>2114.0</ele>
        <time>2017-09-30T12:54:53Z</time>
      </trkpt>
      <trkpt lat="41.132500" lon="-3.643833">
        <ele>2114.0</ele>
        <time>2017-09-30T12:54:54Z</time>
      </trkpt>
      <trkpt lat="41.132567" lon="-3.643800">
        <ele>2112.0</ele>
        <time>2017-09-30T12:54:55Z</time>
      </trkpt>
      <trkpt lat="41.132650" lon="-3.643750">
        <ele>2109.0</ele>
        <time>2017-09-30T12:54:56Z</time>
      </trkpt>
      <trkpt lat="41.132733" lon="-3.643717">
        <ele>2107.0</ele>
        <time>2017-09-30T12:54:57Z</time>
      </trkpt>
      <trkpt lat="41.132817" lon="-3.643683">
        <ele>2105.0</ele>
        <time>2017-09-30T12:54:58Z</time>
      </trkpt>
      <trkpt lat="41.132900" lon="-3.643633">
        <ele>2104.0</ele>
        <time>2017-09-30T12:54:59Z</time>
      </trkpt>
      <trkpt lat="41.133000" lon="-3.643583">
        <ele>2102.0</ele>
        <time>2017-09-30T12:55:00Z</time>
      </trkpt>
      <trkpt lat="41.133083" lon="-3.643517">
        <ele>2101.0</ele>
        <time>2017-09-30T12:55:01Z</time>
      </trkpt>
      <trkpt lat="41.133183" lon="-3.643450">
        <ele>2100.0</ele>
        <time>2017-09-30T12:55:02Z</time>
      </trkpt>
      <trkpt lat="41.133267" lon="-3.643367">
        <ele>2101.0</ele>
        <time>2017-09-30T12:55:03Z</time>
      </trkpt>
      <trkpt lat="41.133350" lon="-3.643267">
        <ele>2102.0</ele>
        <time>2017-09-30T12:55:04Z</time>
      </trkpt>
      <trkpt lat="41.133433" lon="-3.643200">
        <ele>2103.0</ele>
        <time>2017-09-30T12:55:05Z</time>
      </trkpt>
      <trkpt lat="41.133500" lon="-3.643133">
        <ele>2103.0</ele>
        <time>2017-09-30T12:55:06Z</time>
      </trkpt>
      <trkpt lat="41.133583" lon="-3.643083">
        <ele>2102.0</ele>
        <time>2017-09-30T12:55:07Z</time>
      </trkpt>
      <trkpt lat="41.133650" lon="-3.643050">
        <ele>2100.0</ele>
        <time>2017-09-30T12:55:08Z</time>
      </trkpt>
      <trkpt lat="41.133750" lon="-3.643033">
        <ele>2098.0</ele>
        <time>2017-09-30T12:55:09Z</time>
      </trkpt>
      <trkpt lat="41.133833" lon="-3.643017">
        <ele>2096.0</ele>
        <time>2017-09-30T12:55:10Z</time>
      </trkpt>
      <trkpt lat="41.133933" lon="-3.643017">
        <ele>2097.0</ele>
        <time>2017-09-30T12:55:11Z</time>
      </trkpt>
      <trkpt lat="41.134017" lon="-3.643017">
        <ele>2099.0</ele>
        <time>2017-09-30T12:55:12Z</time>
      </trkpt>
      <trkpt lat="41.134100" lon="-3.643000">
        <ele>2102.0</ele>
        <time>2017-09-30T12:55:13Z</time>
      </trkpt>
      <trkpt lat="41.134167" lon="-3.642983">
        <ele>2104.0</ele>
        <time>2017-09-30T12:55:14Z</time>
      </trkpt>
      <trkpt lat="41.134233" lon="-3.642950">
        <ele>2105.0</ele>
        <time>2017-09-30T12:55:15Z</time>
      </trkpt>
      <trkpt lat="41.134317" lon="-3.642917">
        <ele>2106.0</ele>
        <time>2017-09-30T12:55:16Z</time>
      </trkpt>
      <trkpt lat="41.134400" lon="-3.642883">
        <ele>2105.0</ele>
        <time>2017-09-30T12:55:17Z</time>
      </trkpt>
      <trkpt lat="41.134483" lon="-3.642850">
        <ele>2106.0</ele>
        <time>2017-09-30T12:55:18Z</time>
      </trkpt>
      <trkpt lat="41.134583" lon="-3.642817">
        <ele>2107.0</ele>
        <time>2017-09-30T12:55:19Z</time>
      </trkpt>
      <trkpt lat="41.134683" lon="-3.642783">
        <ele>2110.0</ele>
        <time>2017-09-30T12:55:20Z</time>
      </trkpt>
      <trkpt lat="41.134767" lon="-3.642733">
        <ele>2114.0</ele>
        <time>2017-09-30T12:55:21Z</time>
      </trkpt>
      <trkpt lat="41.134833" lon="-3.642700">
        <ele>2117.0</ele>
        <time>2017-09-30T12:55:22Z</time>
      </trkpt>
      <trkpt lat="41.134900" lon="-3.642667">
        <ele>2120.0</ele>
        <time>2017-09-30T12:55:23Z</time>
      </trkpt>
      <trkpt lat="41.134967" lon="-3.642617">
        <ele>2123.0</ele>
        <time>2017-09-30T12:55:24Z</time>
      </trkpt>
      <trkpt lat="41.135050" lon="-3.642583">
        <ele>2125.0</ele>
        <time>2017-09-30T12:55:25Z</time>
      </trkpt>
      <trkpt lat="41.135117" lon="-3.642517">
        <ele>2127.0</ele>
        <time>2017-09-30T12:55:26Z</time>
      </trkpt>
      <trkpt lat="41.135200" lon="-3.642467">
        <ele>2129.0</ele>
        <time>2017-09-30T12:55:27Z</time>
      </trkpt>
      <trkpt lat="41.135283" lon="-3.642400">
        <ele>2132.0</ele>
        <time>2017-09-30T12:55:28Z</time>
      </trkpt>
      <trkpt lat="41.135367" lon="-3.642350">
        <ele>2135.0</ele>
        <time>2017-09-30T12:55:29Z</time>
      </trkpt>
      <trkpt lat="41.135433" lon="-3.642300">
        <ele>2137.0</ele>
        <time>2017-09-30T12:55:30Z</time>
      </trkpt>
      <trkpt lat="41.135500" lon="-3.642267">
        <ele>2138.0</ele>
        <time>2017-09-30T12:55:31Z</time>
      </trkpt>
      <trkpt lat="41.135567" lon="-3.642233">
        <ele>2138.0</ele>
        <time>2017-09-30T12:55:32Z</time>
      </trkpt>
      <trkpt lat="41.135667" lon="-3.642200">
        <ele>2138.0</ele>
        <time>2017-09-30T12:55:33Z</time>
      </trkpt>
      <trkpt lat="41.135750" lon="-3.642150">
        <ele>2139.0</ele>
        <time>2017-09-30T12:55:34Z</time>
      </trkpt>
      <trkpt lat="41.135833" lon="-3.642083">
        <ele>2141.0</ele>
        <time>2017-09-30T12:55:35Z</time>
      </trkpt>
      <trkpt lat="41.135917" lon="-3.642017">
        <ele>2142.0</ele>
        <time>2017-09-30T12:55:36Z</time>
      </trkpt>
      <trkpt lat="41.136017" lon="-3.641950">
        <ele>2144.0</ele>
        <time>2017-09-30T12:55:37Z</time>
      </trkpt>
      <trkpt lat="41.136100" lon="-3.641883">
        <ele>2145.0</ele>
        <time>2017-09-30T12:55:38Z</time>
      </trkpt>
      <trkpt lat="41.136183" lon="-3.641817">
        <ele>2146.0</ele>
        <time>2017-09-30T12:55:39Z</time>
      </trkpt>
      <trkpt lat="41.136283" lon="-3.641767">
        <ele>2147.0</ele>
        <time>2017-09-30T12:55:40Z</time>
      </trkpt>
      <trkpt lat="41.136367" lon="-3.641700">
        <ele>2147.0</ele>
        <time>2017-09-30T12:55:41Z</time>
      </trkpt>
      <trkpt lat="41.136467" lon="-3.641633">
        <ele>2147.0</ele>
        <time>2017-09-30T12:55:42Z</time>
      </trkpt>
      <trkpt lat="41.136550" lon="-3.641550">
        <ele>2147.0</ele>
        <time>2017-09-30T12:55:43Z</time>
      </trkpt>
      <trkpt lat="41.136667" lon="-3.641467">
        <ele>2148.0</ele>
        <time>2017-09-30T12:55:44Z</time>
      </trkpt>
      <trkpt lat="41.136750" lon="-3.641383">
        <ele>2150.0</ele>
        <time>2017-09-30T12:55:45Z</time>
      </trkpt>
      <trkpt lat="41.136850" lon="-3.641317">
        <ele>2153.0</ele>
        <time>2017-09-30T12:55:46Z</time>
      </trkpt>
      <trkpt lat="41.136933" lon="-3.641250">
        <ele>2154.0</ele>
        <time>2017-09-30T12:55:47Z</time>
      </trkpt>
      <trkpt lat="41.137017" lon="-3.641200">
        <ele>2154.0</ele>
        <time>2017-09-30T12:55:48Z</time>
      </trkpt>
      <trkpt lat="41.137117" lon="-3.641133">
        <ele>2154.0</ele>
        <time>2017-09-30T12:55:49Z</time>
      </trkpt>
      <trkpt lat="41.137217" lon="-3.641067">
        <ele>2154.0</ele>
        <time>2017-09-30T12:55:50Z</time>
      </trkpt>
      <trkpt lat="41.137317" lon="-3.640983">
        <ele>2153.0</ele>
        <time>2017-09-30T12:55:51Z</time>
      </trkpt>
      <trkpt lat="41.137433" lon="-3.640917">
        <ele>2152.0</ele>
        <time>2017-09-30T12:55:52Z</time>
      </trkpt>
      <trkpt lat="41.137533" lon="-3.640867">
        <ele>2151.0</ele>
        <time>2017-09-30T12:55:53Z</time>
      </trkpt>
      <trkpt lat="41.137650" lon="-3.640800">
        <ele>2151.0</ele>
        <time>2017-09-30T12:55:54Z</time>
      </trkpt>
      <trkpt lat="41.137750" lon="-3.640733">
        <ele>2152.0</ele>
        <time>2017-09-30T12:55:55Z</time>
      </trkpt>
      <trkpt lat="41.137867" lon="-3.640667">
        <ele>2152.0</ele>
        <time>2017-09-30T12:55:56Z</time>
      </trkpt>
      <trkpt lat="41.137983" lon="-3.640600">
        <ele>2153.0</ele>
        <time>2017-09-30T12:55:57Z</time>
      </trkpt>
      <trkpt lat="41.138083" lon="-3.640517">
        <ele>2155.0</ele>
        <time>2017-09-30T12:55:58Z</time>
      </trkpt>
      <trkpt lat="41.138183" lon="-3.640450">
        <ele>2157.0</ele>
        <time>2017-09-30T12:55:59Z</time>
      </trkpt>
      <trkpt lat="41.138283" lon="-3.640367">
        <ele>2158.0</ele>
        <time>2017-09-30T12:56:00Z</time>
      </trkpt>
      <trkpt lat="41.138400" lon="-3.640300">
        <ele>2159.0</ele>
        <time>2017-09-30T12:56:01Z</time>
      </trkpt>
      <trkpt lat="41.138500" lon="-3.640217">
        <ele>2159.0</ele>
        <time>2017-09-30T12:56:02Z</time>
      </trkpt>
      <trkpt lat="41.138617" lon="-3.640117">
        <ele>2159.0</ele>
        <time>2017-09-30T12:56:03Z</time>
      </trkpt>
      <trkpt lat="41.138717" lon="-3.640033">
        <ele>2161.0</ele>
        <time>2017-09-30T12:56:04Z</time>
      </trkpt>
      <trkpt lat="41.138817" lon="-3.639933">
        <ele>2162.0</ele>
        <time>2017-09-30T12:56:05Z</time>
      </trkpt>
      <trkpt lat="41.138900" lon="-3.639817">
        <ele>2163.0</ele>
        <time>2017-09-30T12:56:06Z</time>
      </trkpt>
      <trkpt lat="41.139000" lon="-3.639717">
        <ele>2164.0</ele>
        <time>2017-09-30T12:56:07Z</time>
      </trkpt>
      <trkpt lat="41.139100" lon="-3.639600">
        <ele>2163.0</ele>
        <time>2017-09-30T12:56:08Z</time>
      </trkpt>
      <trkpt lat="41.139200" lon="-3.639483">
        <ele>2163.0</ele>
        <time>2017-09-30T12:56:09Z</time>
      </trkpt>
      <trkpt lat="41.139300" lon="-3.639367">
        <ele>2164.0</ele>
        <time>2017-09-30T12:56:10Z</time>
      </trkpt>
      <trkpt lat="41.139400" lon="-3.639267">
        <ele>2165.0</ele>
        <time>2017-09-30T12:56:11Z</time>
      </trkpt>
      <trkpt lat="41.139500" lon="-3.639167">
        <ele>2166.0</ele>
        <time>2017-09-30T12:56:12Z</time>
      </trkpt>
      <trkpt lat="41.139583" lon="-3.639083">
        <ele>2167.0</ele>
        <time>2017-09-30T12:56:13Z</time>
      </trkpt>
      <trkpt lat="41.139683" lon="-3.639000">
        <ele>2168.0</ele>
        <time>2017-09-30T12:56:14Z</time>
      </trkpt>
      <trkpt lat="41.139767" lon="-3.638933">
        <ele>2168.0</ele>
        <time>2017-09-30T12:56:15Z</time>
      </trkpt>
      <trkpt lat="41.139867" lon="-3.638850">
        <ele>2168.0</ele>
        <time>2017-09-30T12:56:16Z</time>
      </trkpt>
      <trkpt lat="41.139967" lon="-3.638767">
        <ele>2167.0</ele>
        <time>2017-09-30T12:56:17Z</time>
      </trkpt>
      <trkpt lat="41.140067" lon="-3.638700">
        <ele>2167.0</ele>
        <time>2017-09-30T12:56:18Z</time>
      </trkpt>
      <trkpt lat="41.140167" lon="-3.638617">
        <ele>2168.0</ele>
        <time>2017-09-30T12:56:19Z</time>
      </trkpt>
      <trkpt lat="41.140250" lon="-3.638533">
        <ele>2169.0</ele>
        <time>2017-09-30T12:56:20Z</time>
      </trkpt>
      <trkpt lat="41.140333" lon="-3.638467">
        <ele>2170.0</ele>
        <time>2017-09-30T12:56:21Z</time>
      </trkpt>
      <trkpt lat="41.140417" lon="-3.638383">
        <ele>2170.0</ele>
        <time>2017-09-30T12:56:22Z</time>
      </trkpt>
      <trkpt lat="41.140517" lon="-3.638300">
        <ele>2169.0</ele>
        <time>2017-09-30T12:56:23Z</time>
      </trkpt>
      <trkpt lat="41.140617" lon="-3.638200">
        <ele>2169.0</ele>
        <time>2017-09-30T12:56:24Z</time>
      </trkpt>
      <trkpt lat="41.140717" lon="-3.638100">
        <ele>2170.0</ele>
        <time>2017-09-30T12:56:25Z</time>
      </trkpt>
      <trkpt lat="41.140800" lon="-3.638017">
        <ele>2172.0</ele>
        <time>2017-09-30T12:56:26Z</time>
      </trkpt>
      <trkpt lat="41.140883" lon="-3.637917">
        <ele>2173.0</ele>
        <time>2017-09-30T12:56:27Z</time>
      </trkpt>
      <trkpt lat="41.140983" lon="-3.637833">
        <ele>2174.0</ele>
        <time>2017-09-30T12:56:28Z</time>
      </trkpt>
      <trkpt lat="41.141067" lon="-3.637733">
        <ele>2173.0</ele>
        <time>2017-09-30T12:56:29Z</time>
      </trkpt>
      <trkpt lat="41.141150" lon="-3.637650">
        <ele>2172.0</ele>
        <time>2017-09-30T12:56:30Z</time>
      </trkpt>
      <trkpt lat="41.141250" lon="-3.637550">
        <ele>2171.0</ele>
        <time>2017-09-30T12:56:31Z</time>
      </trkpt>
      <trkpt lat="41.141350" lon="-3.637467">
        <ele>2171.0</ele>
        <time>2017-09-30T12:56:32Z</time>
      </trkpt>
      <trkpt lat="41.141433" lon="-3.637367">
        <ele>2171.0</ele>
        <time>2017-09-30T12:56:33Z</time>
      </trkpt>
      <trkpt lat="41.141500" lon="-3.637283">
        <ele>2171.0</ele>
        <time>2017-09-30T12:56:34Z</time>
      </trkpt>
      <trkpt lat="41.141583" lon="-3.637200">
        <ele>2170.0</ele>
        <time>2017-09-30T12:56:35Z</time>
      </trkpt>
      <trkpt lat="41.141683" lon="-3.637100">
        <ele>2169.0</ele>
        <time>2017-09-30T12:56:36Z</time>
      </trkpt>
      <trkpt lat="41.141767" lon="-3.637017">
        <ele>2168.0</ele>
        <time>2017-09-30T12:56:37Z</time>
      </trkpt>
      <trkpt lat="41.141850" lon="-3.636917">
        <ele>2167.0</ele>
        <time>2017-09-30T12:56:38Z</time>
      </trkpt>
      <trkpt lat="41.141933" lon="-3.636833">
        <ele>2167.0</ele>
        <time>2017-09-30T12:56:39Z</time>
      </trkpt>
      <trkpt lat="41.142000" lon="-3.636767">
        <ele>2166.0</ele>
        <time>2017-09-30T12:56:40Z</time>
      </trkpt>
      <trkpt lat="41.142067" lon="-3.636733">
        <ele>2164.0</ele>
        <time>2017-09-30T12:56:41Z</time>
      </trkpt>
      <trkpt lat="41.142133" lon="-3.636617">
        <ele>2162.0</ele>
        <time>2017-09-30T12:56:42Z</time>
      </trkpt>
      <trkpt lat="41.142200" lon="-3.636500">
        <ele>2159.0</ele>
        <time>2017-09-30T12:56:43Z</time>
      </trkpt>
      <trkpt lat="41.142283" lon="-3.636383">
        <ele>2157.0</ele>
        <time>2017-09-30T12:56:44Z</time>
      </trkpt>
      <trkpt lat="41.142367" lon="-3.636267">
        <ele>2155.0</ele>
        <time>2017-09-30T12:56:45Z</time>
      </trkpt>
      <trkpt lat="41.142450" lon="-3.636167">
        <ele>2154.0</ele>
        <time>2017-09-30T12:56:46Z</time>
      </trkpt>
      <trkpt lat="41.142533" lon="-3.636083">
        <ele>2152.0</ele>
        <time>2017-09-30T12:56:47Z</time>
      </trkpt>
      <trkpt lat="41.142600" lon="-3.636017">
        <ele>2151.0</ele>
        <time>2017-09-30T12:56:48Z</time>
      </trkpt>
      <trkpt lat="41.142683" lon="-3.635933">
        <ele>2149.0</ele>
        <time>2017-09-30T12:56:49Z</time>
      </trkpt>
      <trkpt lat="41.142750" lon="-3.635850">
        <ele>2147.0</ele>
        <time>2017-09-30T12:56:50Z</time>
      </trkpt>
      <trkpt lat="41.142833" lon="-3.635767">
        <ele>2145.0</ele>
        <time>2017-09-30T12:56:51Z</time>
      </trkpt>
      <trkpt lat="41.142900" lon="-3.635683">
        <ele>2143.0</ele>
        <time>2017-09-30T12:56:52Z</time>
      </trkpt>
      <trkpt lat="41.142983" lon="-3.635600">
        <ele>2142.0</ele>
        <time>2017-09-30T12:56:53Z</time>
      </trkpt>
      <trkpt lat="41.143050" lon="-3.635517">
        <ele>2140.0</ele>
        <time>2017-09-30T12:56:54Z</time>
      </trkpt>
      <trkpt lat="41.143133" lon="-3.635433">
        <ele>2139.0</ele>
        <time>2017-09-30T12:56:55Z</time>
      </trkpt>
      <trkpt lat="41.143200" lon="-3.635333">
        <ele>2139.0</ele>
        <time>2017-09-30T12:56:56Z</time>
      </trkpt>
      <trkpt lat="41.143267" lon="-3.635233">
        <ele>2138.0</ele>
        <time>2017-09-30T12:56:57Z</time>
      </trkpt>
      <trkpt lat="41.143333" lon="-3.635133">
        <ele>2137.0</ele>
        <time>2017-09-30T12:56:58Z</time>
      </trkpt>
      <trkpt lat="41.143417" lon="-3.635033">
        <ele>2137.0</ele>
        <time>2017-09-30T12:56:59Z</time>
      </trkpt>
      <trkpt lat="41.143483" lon="-3.634950">
        <ele>2136.0</ele>
        <time>2017-09-30T12:57:00Z</time>
      </trkpt>
      <trkpt lat="41.143550" lon="-3.634883">
        <ele>2135.0</ele>
        <time>2017-09-30T12:57:01Z</time>
      </trkpt>
      <trkpt lat="41.143617" lon="-3.634800">
        <ele>2133.0</ele>
        <time>2017-09-30T12:57:02Z</time>
      </trkpt>
      <trkpt lat="41.143700" lon="-3.634717">
        <ele>2131.0</ele>
        <time>2017-09-30T12:57:03Z</time>
      </trkpt>
      <trkpt lat="41.143783" lon="-3.634633">
        <ele>2129.0</ele>
        <time>2017-09-30T12:57:04Z</time>
      </trkpt>
      <trkpt lat="41.143867" lon="-3.634550">
        <ele>2127.0</ele>
        <time>2017-09-30T12:57:05Z</time>
      </trkpt>
      <trkpt lat="41.143950" lon="-3.634467">
        <ele>2126.0</ele>
        <time>2017-09-30T12:57:06Z</time>
      </trkpt>
      <trkpt lat="41.144033" lon="-3.634367">
        <ele>2126.0</ele>
        <time>2017-09-30T12:57:07Z</time>
      </trkpt>
      <trkpt lat="41.144117" lon="-3.634250">
        <ele>2125.0</ele>
        <time>2017-09-30T12:57:08Z</time>
      </trkpt>
      <trkpt lat="41.144200" lon="-3.634133">
        <ele>2126.0</ele>
        <time>2017-09-30T12:57:09Z</time>
      </trkpt>
      <trkpt lat="41.144283" lon="-3.634050">
        <ele>2126.0</ele>
        <time>2017-09-30T12:57:10Z</time>
      </trkpt>
      <trkpt lat="41.144350" lon="-3.633967">
        <ele>2126.0</ele>
        <time>2017-09-30T12:57:11Z</time>
      </trkpt>
      <trkpt lat="41.144417" lon="-3.633900">
        <ele>2126.0</ele>
        <time>2017-09-30T12:57:12Z</time>
      </trkpt>
      <trkpt lat="41.144483" lon="-3.633833">
        <ele>2124.0</ele>
        <time>2017-09-30T12:57:13Z</time>
      </trkpt>
      <trkpt lat="41.144567" lon="-3.633767">
        <ele>2122.0</ele>
        <time>2017-09-30T12:57:14Z</time>
      </trkpt>
      <trkpt lat="41.144633" lon="-3.633683">
        <ele>2121.0</ele>
        <time>2017-09-30T12:57:15Z</time>
      </trkpt>
      <trkpt lat="41.144717" lon="-3.633617">
        <ele>2120.0</ele>
        <time>2017-09-30T12:57:16Z</time>
      </trkpt>
      <trkpt lat="41.144800" lon="-3.633533">
        <ele>2118.0</ele>
        <time>2017-09-30T12:57:17Z</time>
      </trkpt>
      <trkpt lat="41.144883" lon="-3.633467">
        <ele>2118.0</ele>
        <time>2017-09-30T12:57:18Z</time>
      </trkpt>
      <trkpt lat="41.144950" lon="-3.633383">
        <ele>2117.0</ele>
        <time>2017-09-30T12:57:19Z</time>
      </trkpt>
      <trkpt lat="41.145033" lon="-3.633300">
        <ele>2116.0</ele>
        <time>2017-09-30T12:57:20Z</time>
      </trkpt>
      <trkpt lat="41.145100" lon="-3.633217">
        <ele>2115.0</ele>
        <time>2017-09-30T12:57:21Z</time>
      </trkpt>
      <trkpt lat="41.145183" lon="-3.633117">
        <ele>2113.0</ele>
        <time>2017-09-30T12:57:22Z</time>
      </trkpt>
      <trkpt lat="41.145250" lon="-3.633033">
        <ele>2112.0</ele>
        <time>2017-09-30T12:57:23Z</time>
      </trkpt>
      <trkpt lat="41.145333" lon="-3.632933">
        <ele>2111.0</ele>
        <time>2017-09-30T12:57:24Z</time>
      </trkpt>
      <trkpt lat="41.145400" lon="-3.632833">
        <ele>2111.0</ele>
        <time>2017-09-30T12:57:25Z</time>
      </trkpt>
      <trkpt lat="41.145483" lon="-3.632733">
        <ele>2111.0</ele>
        <time>2017-09-30T12:57:26Z</time>
      </trkpt>
      <trkpt lat="41.145550" lon="-3.632633">
        <ele>2110.0</ele>
        <time>2017-09-30T12:57:27Z</time>
      </trkpt>
      <trkpt lat="41.145617" lon="-3.632533">
        <ele>2110.0</ele>
        <time>2017-09-30T12:57:28Z</time>
      </trkpt>
      <trkpt lat="41.145700" lon="-3.632417">
        <ele>2109.0</ele>
        <time>2017-09-30T12:57:29Z</time>
      </trkpt>
      <trkpt lat="41.145783" lon="-3.632317">
        <ele>2109.0</ele>
        <time>2017-09-30T12:57:30Z</time>
      </trkpt>
      <trkpt lat="41.145850" lon="-3.632233">
        <ele>2109.0</ele>
        <time>2017-09-30T12:57:31Z</time>
      </trkpt>
      <trkpt lat="41.145917" lon="-3.632150">
        <ele>2110.0</ele>
        <time>2017-09-30T12:57:32Z</time>
      </trkpt>
      <trkpt lat="41.146000" lon="-3.632083">
        <ele>2111.0</ele>
        <time>2017-09-30T12:57:33Z</time>
      </trkpt>
      <trkpt lat="41.146067" lon="-3.631983">
        <ele>2112.0</ele>
        <time>2017-09-30T12:57:34Z</time>
      </trkpt>
      <trkpt lat="41.146133" lon="-3.631883">
        <ele>2113.0</ele>
        <time>2017-09-30T12:57:35Z</time>
      </trkpt>
      <trkpt lat="41.146217" lon="-3.631783">
        <ele>2114.0</ele>
        <time>2017-09-30T12:57:36Z</time>
      </trkpt>
      <trkpt lat="41.146283" lon="-3.631700">
        <ele>2115.0</ele>
        <time>2017-09-30T12:57:37Z</time>
      </trkpt>
      <trkpt lat="41.146350" lon="-3.631617">
        <ele>2116.0</ele>
        <time>2017-09-30T12:57:38Z</time>
      </trkpt>
      <trkpt lat="41.146417" lon="-3.631550">
        <ele>2116.0</ele>
        <time>2017-09-30T12:57:39Z</time>
      </trkpt>
      <trkpt lat="41.146467" lon="-3.631450">
        <ele>2116.0</ele>
        <time>2017-09-30T12:57:40Z</time>
      </trkpt>
      <trkpt lat="41.146533" lon="-3.631350">
        <ele>2115.0</ele>
        <time>2017-09-30T12:57:41Z</time>
      </trkpt>
      <trkpt lat="41.146600" lon="-3.631233">
        <ele>2115.0</ele>
        <time>2017-09-30T12:57:42Z</time>
      </trkpt>
      <trkpt lat="41.146667" lon="-3.631133">
        <ele>2115.0</ele>
        <time>2017-09-30T12:57:43Z</time>
      </trkpt>
      <trkpt lat="41.146750" lon="-3.631050">
        <ele>2115.0</ele>
        <time>2017-09-30T12:57:44Z</time>
      </trkpt>
      <trkpt lat="41.146817" lon="-3.630950">
        <ele>2114.0</ele>
        <time>2017-09-30T12:57:45Z</time>
      </trkpt>
      <trkpt lat="41.146900" lon="-3.630867">
        <ele>2114.0</ele>
        <time>2017-09-30T12:57:46Z</time>
      </trkpt>
      <trkpt lat="41.146983" lon="-3.630767">
        <ele>2114.0</ele>
        <time>2017-09-30T12:57:47Z</time>
      </trkpt>
      <trkpt lat="41.147067" lon="-3.630667">
        <ele>2115.0</ele>
        <time>2017-09-30T12:57:48Z</time>
      </trkpt>
      <trkpt lat="41.147150" lon="-3.630567">
        <ele>2116.0</ele>
        <time>2017-09-30T12:57:49Z</time>
      </trkpt>
      <trkpt lat="41.147217" lon="-3.630467">
        <ele>2116.0</ele>
        <time>2017-09-30T12:57:50Z</time>
      </trkpt>
      <trkpt lat="41.147300" lon="-3.630367">
        <ele>2117.0</ele>
        <time>2017-09-30T12:57:51Z</time>
      </trkpt>
      <trkpt lat="41.147383" lon="-3.630283">
        <ele>2116.0</ele>
        <time>2017-09-30T12:57:52Z</time>
      </trkpt>
      <trkpt lat="41.147467" lon="-3.630183">
        <ele>2116.0</ele>
        <time>2017-09-30T12:57:53Z</time>
      </trkpt>
      <trkpt lat="41.147533" lon="-3.630083">
        <ele>2115.0</ele>
        <time>2017-09-30T12:57:54Z</time>
      </trkpt>
      <trkpt lat="41.147617" lon="-3.629983">
        <ele>2114.0</ele>
        <time>2017-09-30T12:57:55Z</time>
      </trkpt>
      <trkpt lat="41.147683" lon="-3.629867">
        <ele>2114.0</ele>
        <time>2017-09-30T12:57:56Z</time>
      </trkpt>
      <trkpt lat="41.147733" lon="-3.629767">
        <ele>2113.0</ele>
        <time>2017-09-30T12:57:57Z</time>
      </trkpt>
      <trkpt lat="41.147800" lon="-3.629650">
        <ele>2112.0</ele>
        <time>2017-09-30T12:57:58Z</time>
      </trkpt>
      <trkpt lat="41.147850" lon="-3.629533">
        <ele>2111.0</ele>
        <time>2017-09-30T12:57:59Z</time>
      </trkpt>
      <trkpt lat="41.147917" lon="-3.629433">
        <ele>2110.0</ele>
        <time>2017-09-30T12:58:00Z</time>
      </trkpt>
      <trkpt lat="41.148000" lon="-3.629333">
        <ele>2109.0</ele>
        <time>2017-09-30T12:58:01Z</time>
      </trkpt>
      <trkpt lat="41.148050" lon="-3.629217">
        <ele>2109.0</ele>
        <time>2017-09-30T12:58:02Z</time>
      </trkpt>
      <trkpt lat="41.148117" lon="-3.629100">
        <ele>2108.0</ele>
        <time>2017-09-30T12:58:03Z</time>
      </trkpt>
      <trkpt lat="41.148167" lon="-3.629000">
        <ele>2107.0</ele>
        <time>2017-09-30T12:58:04Z</time>
      </trkpt>
      <trkpt lat="41.148217" lon="-3.628883">
        <ele>2105.0</ele>
        <time>2017-09-30T12:58:05Z</time>
      </trkpt>
      <trkpt lat="41.148283" lon="-3.628750">
        <ele>2102.0</ele>
        <time>2017-09-30T12:58:06Z</time>
      </trkpt>
      <trkpt lat="41.148350" lon="-3.628617">
        <ele>2100.0</ele>
        <time>2017-09-30T12:58:07Z</time>
      </trkpt>
      <trkpt lat="41.148400" lon="-3.628467">
        <ele>2098.0</ele>
        <time>2017-09-30T12:58:08Z</time>
      </trkpt>
      <trkpt lat="41.148450" lon="-3.628333">
        <ele>2097.0</ele>
        <time>2017-09-30T12:58:09Z</time>
      </trkpt>
      <trkpt lat="41.148500" lon="-3.628200">
        <ele>2096.0</ele>
        <time>2017-09-30T12:58:10Z</time>
      </trkpt>
      <trkpt lat="41.148550" lon="-3.628083">
        <ele>2095.0</ele>
        <time>2017-09-30T12:58:11Z</time>
      </trkpt>
      <trkpt lat="41.148583" lon="-3.627967">
        <ele>2093.0</ele>
        <time>2017-09-30T12:58:12Z</time>
      </trkpt>
      <trkpt lat="41.148633" lon="-3.627833">
        <ele>2090.0</ele>
        <time>2017-09-30T12:58:13Z</time>
      </trkpt>
      <trkpt lat="41.148700" lon="-3.627717">
        <ele>2087.0</ele>
        <time>2017-09-30T12:58:14Z</time>
      </trkpt>
      <trkpt lat="41.148767" lon="-3.627600">
        <ele>2085.0</ele>
        <time>2017-09-30T12:58:15Z</time>
      </trkpt>
      <trkpt lat="41.148833" lon="-3.627500">
        <ele>2084.0</ele>
        <time>2017-09-30T12:58:16Z</time>
      </trkpt>
      <trkpt lat="41.148883" lon="-3.627383">
        <ele>2083.0</ele>
        <time>2017-09-30T12:58:17Z</time>
      </trkpt>
      <trkpt lat="41.148950" lon="-3.627283">
        <ele>2082.0</ele>
        <time>2017-09-30T12:58:18Z</time>
      </trkpt>
      <trkpt lat="41.149000" lon="-3.627200">
        <ele>2079.0</ele>
        <time>2017-09-30T12:58:19Z</time>
      </trkpt>
      <trkpt lat="41.149067" lon="-3.627100">
        <ele>2076.0</ele>
        <time>2017-09-30T12:58:20Z</time>
      </trkpt>
      <trkpt lat="41.149133" lon="-3.626983">
        <ele>2073.0</ele>
        <time>2017-09-30T12:58:21Z</time>
      </trkpt>
      <trkpt lat="41.149217" lon="-3.626883">
        <ele>2071.0</ele>
        <time>2017-09-30T12:58:22Z</time>
      </trkpt>
      <trkpt lat="41.149283" lon="-3.626767">
        <ele>2070.0</ele>
        <time>2017-09-30T12:58:23Z</time>
      </trkpt>
      <trkpt lat="41.149367" lon="-3.626667">
        <ele>2069.0</ele>
        <time>2017-09-30T12:58:24Z</time>
      </trkpt>
      <trkpt lat="41.149433" lon="-3.626567">
        <ele>2068.0</ele>
        <time>2017-09-30T12:58:25Z</time>
      </trkpt>
      <trkpt lat="41.149500" lon="-3.626450">
        <ele>2066.0</ele>
        <time>2017-09-30T12:58:26Z</time>
      </trkpt>
      <trkpt lat="41.149567" lon="-3.626350">
        <ele>2063.0</ele>
        <time>2017-09-30T12:58:27Z</time>
      </trkpt>
      <trkpt lat="41.149633" lon="-3.626233">
        <ele>2059.0</ele>
        <time>2017-09-30T12:58:28Z</time>
      </trkpt>
      <trkpt lat="41.149700" lon="-3.626117">
        <ele>2056.0</ele>
        <time>2017-09-30T12:58:29Z</time>
      </trkpt>
      <trkpt lat="41.149783" lon="-3.626000">
        <ele>2053.0</ele>
        <time>2017-09-30T12:58:30Z</time>
      </trkpt>
      <trkpt lat="41.149850" lon="-3.625883">
        <ele>2050.0</ele>
        <time>2017-09-30T12:58:31Z</time>
      </trkpt>
      <trkpt lat="41.149917" lon="-3.625767">
        <ele>2048.0</ele>
        <time>2017-09-30T12:58:32Z</time>
      </trkpt>
      <trkpt lat="41.149983" lon="-3.625633">
        <ele>2047.0</ele>
        <time>2017-09-30T12:58:33Z</time>
      </trkpt>
      <trkpt lat="41.150050" lon="-3.625517">
        <ele>2045.0</ele>
        <time>2017-09-30T12:58:34Z</time>
      </trkpt>
      <trkpt lat="41.150117" lon="-3.625417">
        <ele>2043.0</ele>
        <time>2017-09-30T12:58:35Z</time>
      </trkpt>
      <trkpt lat="41.150200" lon="-3.625317">
        <ele>2041.0</ele>
        <time>2017-09-30T12:58:36Z</time>
      </trkpt>
      <trkpt lat="41.150283" lon="-3.625200">
        <ele>2040.0</ele>
        <time>2017-09-30T12:58:37Z</time>
      </trkpt>
      <trkpt lat="41.150350" lon="-3.625083">
        <ele>2038.0</ele>
        <time>2017-09-30T12:58:38Z</time>
      </trkpt>
      <trkpt lat="41.150417" lon="-3.624983">
        <ele>2038.0</ele>
        <time>2017-09-30T12:58:39Z</time>
      </trkpt>
      <trkpt lat="41.150500" lon="-3.624883">
        <ele>2036.0</ele>
        <time>2017-09-30T12:58:40Z</time>
      </trkpt>
      <trkpt lat="41.150583" lon="-3.624783">
        <ele>2035.0</ele>
        <time>2017-09-30T12:58:41Z</time>
      </trkpt>
      <trkpt lat="41.150650" lon="-3.624667">
        <ele>2034.0</ele>
        <time>2017-09-30T12:58:42Z</time>
      </trkpt>
      <trkpt lat="41.150717" lon="-3.624567">
        <ele>2034.0</ele>
        <time>2017-09-30T12:58:43Z</time>
      </trkpt>
      <trkpt lat="41.150800" lon="-3.624467">
        <ele>2033.0</ele>
        <time>2017-09-30T12:58:44Z</time>
      </trkpt>
      <trkpt lat="41.150867" lon="-3.624367">
        <ele>2032.0</ele>
        <time>2017-09-30T12:58:45Z</time>
      </trkpt>
      <trkpt lat="41.150933" lon="-3.624250">
        <ele>2030.0</ele>
        <time>2017-09-30T12:58:46Z</time>
      </trkpt>
      <trkpt lat="41.151000" lon="-3.624133">
        <ele>2027.0</ele>
        <time>2017-09-30T12:58:47Z</time>
      </trkpt>
      <trkpt lat="41.151083" lon="-3.624000">
        <ele>2024.0</ele>
        <time>2017-09-30T12:58:48Z</time>
      </trkpt>
      <trkpt lat="41.151167" lon="-3.623850">
        <ele>2022.0</ele>
        <time>2017-09-30T12:58:49Z</time>
      </trkpt>
      <trkpt lat="41.151233" lon="-3.623717">
        <ele>2021.0</ele>
        <time>2017-09-30T12:58:50Z</time>
      </trkpt>
      <trkpt lat="41.151317" lon="-3.623583">
        <ele>2021.0</ele>
        <time>2017-09-30T12:58:51Z</time>
      </trkpt>
      <trkpt lat="41.151383" lon="-3.623467">
        <ele>2022.0</ele>
        <time>2017-09-30T12:58:52Z</time>
      </trkpt>
      <trkpt lat="41.151467" lon="-3.623367">
        <ele>2022.0</ele>
        <time>2017-09-30T12:58:53Z</time>
      </trkpt>
      <trkpt lat="41.151567" lon="-3.623283">
        <ele>2023.0</ele>
        <time>2017-09-30T12:58:54Z</time>
      </trkpt>
      <trkpt lat="41.151650" lon="-3.623217">
        <ele>2022.0</ele>
        <time>2017-09-30T12:58:55Z</time>
      </trkpt>
      <trkpt lat="41.151767" lon="-3.623183">
        <ele>2022.0</ele>
        <time>2017-09-30T12:58:56Z</time>
      </trkpt>
      <trkpt lat="41.151850" lon="-3.623133">
        <ele>2023.0</ele>
        <time>2017-09-30T12:58:57Z</time>
      </trkpt>
      <trkpt lat="41.151933" lon="-3.623100">
        <ele>2024.0</ele>
        <time>2017-09-30T12:58:58Z</time>
      </trkpt>
      <trkpt lat="41.152017" lon="-3.623050">
        <ele>2024.0</ele>
        <time>2017-09-30T12:58:59Z</time>
      </trkpt>
      <trkpt lat="41.152083" lon="-3.622983">
        <ele>2024.0</ele>
        <time>2017-09-30T12:59:00Z</time>
      </trkpt>
      <trkpt lat="41.152183" lon="-3.622933">
        <ele>2022.0</ele>
        <time>2017-09-30T12:59:01Z</time>
      </trkpt>
      <trkpt lat="41.152267" lon="-3.622850">
        <ele>2020.0</ele>
        <time>2017-09-30T12:59:02Z</time>
      </trkpt>
      <trkpt lat="41.152367" lon="-3.622783">
        <ele>2019.0</ele>
        <time>2017-09-30T12:59:03Z</time>
      </trkpt>
      <trkpt lat="41.152450" lon="-3.622683">
        <ele>2020.0</ele>
        <time>2017-09-30T12:59:04Z</time>
      </trkpt>
      <trkpt lat="41.152533" lon="-3.622567">
        <ele>2021.0</ele>
        <time>2017-09-30T12:59:05Z</time>
      </trkpt>
      <trkpt lat="41.152617" lon="-3.622433">
        <ele>2021.0</ele>
        <time>2017-09-30T12:59:06Z</time>
      </trkpt>
      <trkpt lat="41.152667" lon="-3.622283">
        <ele>2022.0</ele>
        <time>2017-09-30T12:59:07Z</time>
      </trkpt>
      <trkpt lat="41.152700" lon="-3.622117">
        <ele>2021.0</ele>
        <time>2017-09-30T12:59:08Z</time>
      </trkpt>
      <trkpt lat="41.152733" lon="-3.621933">
        <ele>2021.0</ele>
        <time>2017-09-30T12:59:09Z</time>
      </trkpt>
      <trkpt lat="41.152733" lon="-3.621733">
        <ele>2021.0</ele>
        <time>2017-09-30T12:59:10Z</time>
      </trkpt>
      <trkpt lat="41.152717" lon="-3.621550">
        <ele>2021.0</ele>
        <time>2017-09-30T12:59:11Z</time>
      </trkpt>
      <trkpt lat="41.152667" lon="-3.621383">
        <ele>2022.0</ele>
        <time>2017-09-30T12:59:12Z</time>
      </trkpt>
      <trkpt lat="41.152600" lon="-3.621250">
        <ele>2022.0</ele>
        <time>2017-09-30T12:59:13Z</time>
      </trkpt>
      <trkpt lat="41.152533" lon="-3.621150">
        <ele>2022.0</ele>
        <time>2017-09-30T12:59:14Z</time>
      </trkpt>
      <trkpt lat="41.152450" lon="-3.621083">
        <ele>2022.0</ele>
        <time>2017-09-30T12:59:15Z</time>
      </trkpt>
      <trkpt lat="41.152367" lon="-3.621050">
        <ele>2022.0</ele>
        <time>2017-09-30T12:59:16Z</time>
      </trkpt>
      <trkpt lat="41.152283" lon="-3.621033">
        <ele>2023.0</ele>
        <time>2017-09-30T12:59:17Z</time>
      </trkpt>
      <trkpt lat="41.152233" lon="-3.621050">
        <ele>2022.0</ele>
        <time>2017-09-30T12:59:18Z</time>
      </trkpt>
      <trkpt lat="41.152183" lon="-3.621083">
        <ele>2022.0</ele>
        <time>2017-09-30T12:59:19Z</time>
      </trkpt>
      <trkpt lat="41.152133" lon="-3.621133">
        <ele>2021.0</ele>
        <time>2017-09-30T12:59:20Z</time>
      </trkpt>
      <trkpt lat="41.152117" lon="-3.621183">
        <ele>2021.0</ele>
        <time>2017-09-30T12:59:21Z</time>
      </trkpt>
      <trkpt lat="41.152117" lon="-3.621233">
        <ele>2022.0</ele>
        <time>2017-09-30T12:59:22Z</time>
      </trkpt>
      <trkpt lat="41.152133" lon="-3.621283">
        <ele>2022.0</ele>
        <time>2017-09-30T12:59:23Z</time>
      </trkpt>
      <trkpt lat="41.152200" lon="-3.621300">
        <ele>2022.0</ele>
        <time>2017-09-30T12:59:24Z</time>
      </trkpt>
      <trkpt lat="41.152267" lon="-3.621317">
        <ele>2021.0</ele>
        <time>2017-09-30T12:59:25Z</time>
      </trkpt>
      <trkpt lat="41.152333" lon="-3.621333">
        <ele>2021.0</ele>
        <time>2017-09-30T12:59:26Z</time>
      </trkpt>
      <trkpt lat="41.152417" lon="-3.621333">
        <ele>2021.0</ele>
        <time>2017-09-30T12:59:27Z</time>
      </trkpt>
      <trkpt lat="41.152500" lon="-3.621333">
        <ele>2022.0</ele>
        <time>2017-09-30T12:59:28Z</time>
      </trkpt>
      <trkpt lat="41.152567" lon="-3.621333">
        <ele>2024.0</ele>
        <time>2017-09-30T12:59:29Z</time>
      </trkpt>
      <trkpt lat="41.152633" lon="-3.621317">
        <ele>2025.0</ele>
        <time>2017-09-30T12:59:30Z</time>
      </trkpt>
      <trkpt lat="41.152700" lon="-3.621317">
        <ele>2026.0</ele>
        <time>2017-09-30T12:59:31Z</time>
      </trkpt>
      <trkpt lat="41.152783" lon="-3.621300">
        <ele>2026.0</ele>
        <time>2017-09-30T12:59:32Z</time>
      </trkpt>
      <trkpt lat="41.152867" lon="-3.621283">
        <ele>2026.0</ele>
        <time>2017-09-30T12:59:33Z</time>
      </trkpt>
      <trkpt lat="41.152967" lon="-3.621250">
        <ele>2026.0</ele>
        <time>2017-09-30T12:59:34Z</time>
      </trkpt>
      <trkpt lat="41.153067" lon="-3.621217">
        <ele>2027.0</ele>
        <time>2017-09-30T12:59:35Z</time>
      </trkpt>
      <trkpt lat="41.153150" lon="-3.621150">
        <ele>2028.0</ele>
        <time>2017-09-30T12:59:36Z</time>
      </trkpt>
      <trkpt lat="41.153233" lon="-3.621067">
        <ele>2028.0</ele>
        <time>2017-09-30T12:59:37Z</time>
      </trkpt>
      <trkpt lat="41.153317" lon="-3.620983">
        <ele>2028.0</ele>
        <time>2017-09-30T12:59:38Z</time>
      </trkpt>
      <trkpt lat="41.153400" lon="-3.620867">
        <ele>2028.0</ele>
        <time>2017-09-30T12:59:39Z</time>
      </trkpt>
      <trkpt lat="41.153467" lon="-3.620733">
        <ele>2028.0</ele>
        <time>2017-09-30T12:59:40Z</time>
      </trkpt>
      <trkpt lat="41.153517" lon="-3.620583">
        <ele>2028.0</ele>
        <time>2017-09-30T12:59:41Z</time>
      </trkpt>
      <trkpt lat="41.153550" lon="-3.620417">
        <ele>2027.0</ele>
        <time>2017-09-30T12:59:42Z</time>
      </trkpt>
      <trkpt lat="41.153583" lon="-3.620250">
        <ele>2027.0</ele>
        <time>2017-09-30T12:59:43Z</time>
      </trkpt>
      <trkpt lat="41.153583" lon="-3.620067">
        <ele>2027.0</ele>
        <time>2017-09-30T12:59:44Z</time>
      </trkpt>
      <trkpt lat="41.153583" lon="-3.619900">
        <ele>2026.0</ele>
        <time>2017-09-30T12:59:45Z</time>
      </trkpt>
      <trkpt lat="41.153550" lon="-3.619733">
        <ele>2026.0</ele>
        <time>2017-09-30T12:59:46Z</time>
      </trkpt>
      <trkpt lat="41.153517" lon="-3.619583">
        <ele>2025.0</ele>
        <time>2017-09-30T12:59:47Z</time>
      </trkpt>
      <trkpt lat="41.153467" lon="-3.619433">
        <ele>2025.0</ele>
        <time>2017-09-30T12:59:48Z</time>
      </trkpt>
      <trkpt lat="41.153417" lon="-3.619300">
        <ele>2024.0</ele>
        <time>2017-09-30T12:59:49Z</time>
      </trkpt>
      <trkpt lat="41.153350" lon="-3.619183">
        <ele>2024.0</ele>
        <time>2017-09-30T12:59:50Z</time>
      </trkpt>
      <trkpt lat="41.153283" lon="-3.619083">
        <ele>2023.0</ele>
        <time>2017-09-30T12:59:51Z</time>
      </trkpt>
      <trkpt lat="41.153200" lon="-3.619000">
        <ele>2023.0</ele>
        <time>2017-09-30T12:59:52Z</time>
      </trkpt>
      <trkpt lat="41.153133" lon="-3.618950">
        <ele>2021.0</ele>
        <time>2017-09-30T12:59:53Z</time>
      </trkpt>
      <trkpt lat="41.153050" lon="-3.618933">
        <ele>2020.0</ele>
        <time>2017-09-30T12:59:54Z</time>
      </trkpt>
      <trkpt lat="41.152983" lon="-3.618933">
        <ele>2019.0</ele>
        <time>2017-09-30T12:59:55Z</time>
      </trkpt>
      <trkpt lat="41.152933" lon="-3.618967">
        <ele>2019.0</ele>
        <time>2017-09-30T12:59:56Z</time>
      </trkpt>
      <trkpt lat="41.152917" lon="-3.619017">
        <ele>2020.0</ele>
        <time>2017-09-30T12:59:57Z</time>
      </trkpt>
      <trkpt lat="41.152933" lon="-3.619083">
        <ele>2020.0</ele>
        <time>2017-09-30T12:59:58Z</time>
      </trkpt>
      <trkpt lat="41.152933" lon="-3.619117">
        <ele>2021.0</ele>
        <time>2017-09-30T12:59:59Z</time>
      </trkpt>
      <trkpt lat="41.152950" lon="-3.619150">
        <ele>2022.0</ele>
        <time>2017-09-30T13:00:00Z</time>
      </trkpt>
      <trkpt lat="41.152983" lon="-3.619167">
        <ele>2024.0</ele>
        <time>2017-09-30T13:00:01Z</time>
      </trkpt>
      <trkpt lat="41.153017" lon="-3.619183">
        <ele>2024.0</ele>
        <time>2017-09-30T13:00:02Z</time>
      </trkpt>
      <trkpt lat="41.153067" lon="-3.619183">
        <ele>2025.0</ele>
        <time>2017-09-30T13:00:03Z</time>
      </trkpt>
      <trkpt lat="41.153117" lon="-3.619200">
        <ele>2026.0</ele>
        <time>2017-09-30T13:00:04Z</time>
      </trkpt>
      <trkpt lat="41.153167" lon="-3.619200">
        <ele>2028.0</ele>
        <time>2017-09-30T13:00:05Z</time>
      </trkpt>
      <trkpt lat="41.153217" lon="-3.619200">
        <ele>2029.0</ele>
        <time>2017-09-30T13:00:06Z</time>
      </trkpt>
      <trkpt lat="41.153267" lon="-3.619217">
        <ele>2031.0</ele>
        <time>2017-09-30T13:00:07Z</time>
      </trkpt>
      <trkpt lat="41.153317" lon="-3.619217">
        <ele>2032.0</ele>
        <time>2017-09-30T13:00:08Z</time>
      </trkpt>
      <trkpt lat="41.153367" lon="-3.619217">
        <ele>2032.0</ele>
        <time>2017-09-30T13:00:09Z</time>
      </trkpt>
      <trkpt lat="41.153450" lon="-3.619233">
        <ele>2032.0</ele>
        <time>2017-09-30T13:00:10Z</time>
      </trkpt>
      <trkpt lat="41.153533" lon="-3.619233">
        <ele>2031.0</ele>
        <time>2017-09-30T13:00:11Z</time>
      </trkpt>
      <trkpt lat="41.153617" lon="-3.619217">
        <ele>2033.0</ele>
        <time>2017-09-30T13:00:12Z</time>
      </trkpt>
      <trkpt lat="41.153683" lon="-3.619200">
        <ele>2034.0</ele>
        <time>2017-09-30T13:00:13Z</time>
      </trkpt>
      <trkpt lat="41.153750" lon="-3.619183">
        <ele>2034.0</ele>
        <time>2017-09-30T13:00:14Z</time>
      </trkpt>
      <trkpt lat="41.153817" lon="-3.619167">
        <ele>2033.0</ele>
        <time>2017-09-30T13:00:15Z</time>
      </trkpt>
      <trkpt lat="41.153900" lon="-3.619150">
        <ele>2032.0</ele>
        <time>2017-09-30T13:00:16Z</time>
      </trkpt>
      <trkpt lat="41.154000" lon="-3.619117">
        <ele>2030.0</ele>
        <time>2017-09-30T13:00:17Z</time>
      </trkpt>
      <trkpt lat="41.154100" lon="-3.619083">
        <ele>2030.0</ele>
        <time>2017-09-30T13:00:18Z</time>
      </trkpt>
      <trkpt lat="41.154183" lon="-3.619017">
        <ele>2030.0</ele>
        <time>2017-09-30T13:00:19Z</time>
      </trkpt>
      <trkpt lat="41.154267" lon="-3.618950">
        <ele>2031.0</ele>
        <time>2017-09-30T13:00:20Z</time>
      </trkpt>
      <trkpt lat="41.154350" lon="-3.618883">
        <ele>2030.0</ele>
        <time>2017-09-30T13:00:21Z</time>
      </trkpt>
      <trkpt lat="41.154450" lon="-3.618783">
        <ele>2029.0</ele>
        <time>2017-09-30T13:00:22Z</time>
      </trkpt>
      <trkpt lat="41.154533" lon="-3.618700">
        <ele>2028.0</ele>
        <time>2017-09-30T13:00:23Z</time>
      </trkpt>
      <trkpt lat="41.154633" lon="-3.618600">
        <ele>2028.0</ele>
        <time>2017-09-30T13:00:24Z</time>
      </trkpt>
      <trkpt lat="41.154733" lon="-3.618483">
        <ele>2028.0</ele>
        <time>2017-09-30T13:00:25Z</time>
      </trkpt>
      <trkpt lat="41.154817" lon="-3.618367">
        <ele>2028.0</ele>
        <time>2017-09-30T13:00:26Z</time>
      </trkpt>
      <trkpt lat="41.154883" lon="-3.618250">
        <ele>2028.0</ele>
        <time>2017-09-30T13:00:27Z</time>
      </trkpt>
      <trkpt lat="41.154967" lon="-3.618133">
        <ele>2027.0</ele>
        <time>2017-09-30T13:00:28Z</time>
      </trkpt>
      <trkpt lat="41.155033" lon="-3.618017">
        <ele>2026.0</ele>
        <time>2017-09-30T13:00:29Z</time>
      </trkpt>
      <trkpt lat="41.155117" lon="-3.617883">
        <ele>2024.0</ele>
        <time>2017-09-30T13:00:30Z</time>
      </trkpt>
      <trkpt lat="41.155200" lon="-3.617750">
        <ele>2024.0</ele>
        <time>2017-09-30T13:00:31Z</time>
      </trkpt>
      <trkpt lat="41.155267" lon="-3.617633">
        <ele>2024.0</ele>
        <time>2017-09-30T13:00:32Z</time>
      </trkpt>
      <trkpt lat="41.155350" lon="-3.617517">
        <ele>2024.0</ele>
        <time>2017-09-30T13:00:33Z</time>
      </trkpt>
      <trkpt lat="41.155417" lon="-3.617417">
        <ele>2024.0</ele>
        <time>2017-09-30T13:00:34Z</time>
      </trkpt>
      <trkpt lat="41.155517" lon="-3.617300">
        <ele>2023.0</ele>
        <time>2017-09-30T13:00:35Z</time>
      </trkpt>
      <trkpt lat="41.155600" lon="-3.617200">
        <ele>2022.0</ele>
        <time>2017-09-30T13:00:36Z</time>
      </trkpt>
      <trkpt lat="41.155683" lon="-3.617083">
        <ele>2021.0</ele>
        <time>2017-09-30T13:00:37Z</time>
      </trkpt>
      <trkpt lat="41.155783" lon="-3.616967">
        <ele>2020.0</ele>
        <time>2017-09-30T13:00:38Z</time>
      </trkpt>
      <trkpt lat="41.155867" lon="-3.616867">
        <ele>2020.0</ele>
        <time>2017-09-30T13:00:39Z</time>
      </trkpt>
      <trkpt lat="41.155967" lon="-3.616750">
        <ele>2021.0</ele>
        <time>2017-09-30T13:00:40Z</time>
      </trkpt>
      <trkpt lat="41.156050" lon="-3.616650">
        <ele>2022.0</ele>
        <time>2017-09-30T13:00:41Z</time>
      </trkpt>
      <trkpt lat="41.156150" lon="-3.616583">
        <ele>2023.0</ele>
        <time>2017-09-30T13:00:42Z</time>
      </trkpt>
      <trkpt lat="41.156233" lon="-3.616517">
        <ele>2023.0</ele>
        <time>2017-09-30T13:00:43Z</time>
      </trkpt>
      <trkpt lat="41.156333" lon="-3.616500">
        <ele>2023.0</ele>
        <time>2017-09-30T13:00:44Z</time>
      </trkpt>
      <trkpt lat="41.156433" lon="-3.616517">
        <ele>2023.0</ele>
        <time>2017-09-30T13:00:45Z</time>
      </trkpt>
      <trkpt lat="41.156533" lon="-3.616517">
        <ele>2024.0</ele>
        <time>2017-09-30T13:00:46Z</time>
      </trkpt>
      <trkpt lat="41.156633" lon="-3.616500">
        <ele>2026.0</ele>
        <time>2017-09-30T13:00:47Z</time>
      </trkpt>
      <trkpt lat="41.156733" lon="-3.616467">
        <ele>2027.0</ele>
        <time>2017-09-30T13:00:48Z</time>
      </trkpt>
      <trkpt lat="41.156817" lon="-3.616450">
        <ele>2028.0</ele>
        <time>2017-09-30T13:00:49Z</time>
      </trkpt>
      <trkpt lat="41.156900" lon="-3.616417">
        <ele>2028.0</ele>
        <time>2017-09-30T13:00:50Z</time>
      </trkpt>
      <trkpt lat="41.157000" lon="-3.616400">
        <ele>2027.0</ele>
        <time>2017-09-30T13:00:51Z</time>
      </trkpt>
      <trkpt lat="41.157117" lon="-3.616350">
        <ele>2027.0</ele>
        <time>2017-09-30T13:00:52Z</time>
      </trkpt>
      <trkpt lat="41.157217" lon="-3.616317">
        <ele>2028.0</ele>
        <time>2017-09-30T13:00:53Z</time>
      </trkpt>
      <trkpt lat="41.157317" lon="-3.616267">
        <ele>2030.0</ele>
        <time>2017-09-30T13:00:54Z</time>
      </trkpt>
      <trkpt lat="41.157417" lon="-3.616217">
        <ele>2031.0</ele>
        <time>2017-09-30T13:00:55Z</time>
      </trkpt>
      <trkpt lat="41.157500" lon="-3.616150">
        <ele>2033.0</ele>
        <time>2017-09-30T13:00:56Z</time>
      </trkpt>
      <trkpt lat="41.157600" lon="-3.616083">
        <ele>2034.0</ele>
        <time>2017-09-30T13:00:57Z</time>
      </trkpt>
      <trkpt lat="41.157683" lon="-3.615983">
        <ele>2034.0</ele>
        <time>2017-09-30T13:00:58Z</time>
      </trkpt>
      <trkpt lat="41.157767" lon="-3.615867">
        <ele>2034.0</ele>
        <time>2017-09-30T13:00:59Z</time>
      </trkpt>
      <trkpt lat="41.157817" lon="-3.615717">
        <ele>2035.0</ele>
        <time>2017-09-30T13:01:00Z</time>
      </trkpt>
      <trkpt lat="41.157850" lon="-3.615567">
        <ele>2036.0</ele>
        <time>2017-09-30T13:01:01Z</time>
      </trkpt>
      <trkpt lat="41.157867" lon="-3.615417">
        <ele>2037.0</ele>
        <time>2017-09-30T13:01:02Z</time>
      </trkpt>
      <trkpt lat="41.157867" lon="-3.615283">
        <ele>2039.0</ele>
        <time>2017-09-30T13:01:03Z</time>
      </trkpt>
      <trkpt lat="41.157833" lon="-3.615150">
        <ele>2040.0</ele>
        <time>2017-09-30T13:01:04Z</time>
      </trkpt>
      <trkpt lat="41.157783" lon="-3.615033">
        <ele>2041.0</ele>
        <time>2017-09-30T13:01:05Z</time>
      </trkpt>
      <trkpt lat="41.157717" lon="-3.614950">
        <ele>2043.0</ele>
        <time>2017-09-30T13:01:06Z</time>
      </trkpt>
      <trkpt lat="41.157633" lon="-3.614900">
        <ele>2044.0</ele>
        <time>2017-09-30T13:01:07Z</time>
      </trkpt>
      <trkpt lat="41.157550" lon="-3.614867">
        <ele>2046.0</ele>
        <time>2017-09-30T13:01:08Z</time>
      </trkpt>
      <trkpt lat="41.157483" lon="-3.614883">
        <ele>2047.0</ele>
        <time>2017-09-30T13:01:09Z</time>
      </trkpt>
      <trkpt lat="41.157433" lon="-3.614917">
        <ele>2048.0</ele>
        <time>2017-09-30T13:01:10Z</time>
      </trkpt>
      <trkpt lat="41.157383" lon="-3.614967">
        <ele>2049.0</ele>
        <time>2017-09-30T13:01:11Z</time>
      </trkpt>
      <trkpt lat="41.157367" lon="-3.615033">
        <ele>2049.0</ele>
        <time>2017-09-30T13:01:12Z</time>
      </trkpt>
      <trkpt lat="41.157367" lon="-3.615117">
        <ele>2050.0</ele>
        <time>2017-09-30T13:01:13Z</time>
      </trkpt>
      <trkpt lat="41.157383" lon="-3.615167">
        <ele>2052.0</ele>
        <time>2017-09-30T13:01:14Z</time>
      </trkpt>
      <trkpt lat="41.157417" lon="-3.615233">
        <ele>2053.0</ele>
        <time>2017-09-30T13:01:15Z</time>
      </trkpt>
      <trkpt lat="41.157467" lon="-3.615283">
        <ele>2053.0</ele>
        <time>2017-09-30T13:01:16Z</time>
      </trkpt>
      <trkpt lat="41.157533" lon="-3.615317">
        <ele>2054.0</ele>
        <time>2017-09-30T13:01:17Z</time>
      </trkpt>
      <trkpt lat="41.157617" lon="-3.615350">
        <ele>2054.0</ele>
        <time>2017-09-30T13:01:18Z</time>
      </trkpt>
      <trkpt lat="41.157683" lon="-3.615367">
        <ele>2056.0</ele>
        <time>2017-09-30T13:01:19Z</time>
      </trkpt>
      <trkpt lat="41.157767" lon="-3.615383">
        <ele>2057.0</ele>
        <time>2017-09-30T13:01:20Z</time>
      </trkpt>
      <trkpt lat="41.157850" lon="-3.615400">
        <ele>2058.0</ele>
        <time>2017-09-30T13:01:21Z</time>
      </trkpt>
      <trkpt lat="41.157933" lon="-3.615417">
        <ele>2060.0</ele>
        <time>2017-09-30T13:01:22Z</time>
      </trkpt>
      <trkpt lat="41.158017" lon="-3.615400">
        <ele>2061.0</ele>
        <time>2017-09-30T13:01:23Z</time>
      </trkpt>
      <trkpt lat="41.158100" lon="-3.615383">
        <ele>2062.0</ele>
        <time>2017-09-30T13:01:24Z</time>
      </trkpt>
      <trkpt lat="41.158183" lon="-3.615350">
        <ele>2063.0</ele>
        <time>2017-09-30T13:01:25Z</time>
      </trkpt>
      <trkpt lat="41.158283" lon="-3.615283">
        <ele>2064.0</ele>
        <time>2017-09-30T13:01:26Z</time>
      </trkpt>
      <trkpt lat="41.158367" lon="-3.615183">
        <ele>2064.0</ele>
        <time>2017-09-30T13:01:27Z</time>
      </trkpt>
      <trkpt lat="41.158450" lon="-3.615050">
        <ele>2065.0</ele>
        <time>2017-09-30T13:01:28Z</time>
      </trkpt>
      <trkpt lat="41.158500" lon="-3.614917">
        <ele>2066.0</ele>
        <time>2017-09-30T13:01:29Z</time>
      </trkpt>
      <trkpt lat="41.158550" lon="-3.614783">
        <ele>2068.0</ele>
        <time>2017-09-30T13:01:30Z</time>
      </trkpt>
      <trkpt lat="41.158567" lon="-3.614633">
        <ele>2069.0</ele>
        <time>2017-09-30T13:01:31Z</time>
      </trkpt>
      <trkpt lat="41.158567" lon="-3.614500">
        <ele>2069.0</ele>
        <time>2017-09-30T13:01:32Z</time>
      </trkpt>
      <trkpt lat="41.158567" lon="-3.614350">
        <ele>2069.0</ele>
        <time>2017-09-30T13:01:33Z</time>
      </trkpt>
      <trkpt lat="41.158550" lon="-3.614200">
        <ele>2068.0</ele>
        <time>2017-09-30T13:01:34Z</time>
      </trkpt>
      <trkpt lat="41.158500" lon="-3.614050">
        <ele>2068.0</ele>
        <time>2017-09-30T13:01:35Z</time>
      </trkpt>
      <trkpt lat="41.158433" lon="-3.613917">
        <ele>2068.0</ele>
        <time>2017-09-30T13:01:36Z</time>
      </trkpt>
      <trkpt lat="41.158367" lon="-3.613817">
        <ele>2069.0</ele>
        <time>2017-09-30T13:01:37Z</time>
      </trkpt>
      <trkpt lat="41.158300" lon="-3.613750">
        <ele>2070.0</ele>
        <time>2017-09-30T13:01:38Z</time>
      </trkpt>
      <trkpt lat="41.158233" lon="-3.613683">
        <ele>2072.0</ele>
        <time>2017-09-30T13:01:39Z</time>
      </trkpt>
      <trkpt lat="41.158167" lon="-3.613667">
        <ele>2073.0</ele>
        <time>2017-09-30T13:01:40Z</time>
      </trkpt>
      <trkpt lat="41.158100" lon="-3.613650">
        <ele>2074.0</ele>
        <time>2017-09-30T13:01:41Z</time>
      </trkpt>
      <trkpt lat="41.158033" lon="-3.613683">
        <ele>2076.0</ele>
        <time>2017-09-30T13:01:42Z</time>
      </trkpt>
      <trkpt lat="41.157983" lon="-3.613717">
        <ele>2077.0</ele>
        <time>2017-09-30T13:01:43Z</time>
      </trkpt>
      <trkpt lat="41.157950" lon="-3.613783">
        <ele>2077.0</ele>
        <time>2017-09-30T13:01:44Z</time>
      </trkpt>
      <trkpt lat="41.157933" lon="-3.613783">
        <ele>2078.0</ele>
        <time>2017-09-30T13:01:45Z</time>
      </trkpt>
      <trkpt lat="41.157950" lon="-3.613867">
        <ele>2078.0</ele>
        <time>2017-09-30T13:01:46Z</time>
      </trkpt>
      <trkpt lat="41.157967" lon="-3.613933">
        <ele>2078.0</ele>
        <time>2017-09-30T13:01:47Z</time>
      </trkpt>
      <trkpt lat="41.158017" lon="-3.614017">
        <ele>2078.0</ele>
        <time>2017-09-30T13:01:48Z</time>
      </trkpt>
      <trkpt lat="41.158067" lon="-3.614083">
        <ele>2079.0</ele>
        <time>2017-09-30T13:01:49Z</time>
      </trkpt>
      <trkpt lat="41.158150" lon="-3.614117">
        <ele>2080.0</ele>
        <time>2017-09-30T13:01:50Z</time>
      </trkpt>
      <trkpt lat="41.158250" lon="-3.614117">
        <ele>2081.0</ele>
        <time>2017-09-30T13:01:51Z</time>
      </trkpt>
      <trkpt lat="41.158350" lon="-3.614100">
        <ele>2081.0</ele>
        <time>2017-09-30T13:01:52Z</time>
      </trkpt>
      <trkpt lat="41.158433" lon="-3.614050">
        <ele>2082.0</ele>
        <time>2017-09-30T13:01:53Z</time>
      </trkpt>
      <trkpt lat="41.158533" lon="-3.614000">
        <ele>2082.0</ele>
        <time>2017-09-30T13:01:54Z</time>
      </trkpt>
      <trkpt lat="41.158617" lon="-3.613900">
        <ele>2082.0</ele>
        <time>2017-09-30T13:01:55Z</time>
      </trkpt>
      <trkpt lat="41.158683" lon="-3.613783">
        <ele>2082.0</ele>
        <time>2017-09-30T13:01:56Z</time>
      </trkpt>
      <trkpt lat="41.158750" lon="-3.613633">
        <ele>2083.0</ele>
        <time>2017-09-30T13:01:57Z</time>
      </trkpt>
      <trkpt lat="41.158783" lon="-3.613500">
        <ele>2085.0</ele>
        <time>2017-09-30T13:01:58Z</time>
      </trkpt>
      <trkpt lat="41.158800" lon="-3.613367">
        <ele>2086.0</ele>
        <time>2017-09-30T13:01:59Z</time>
      </trkpt>
      <trkpt lat="41.158800" lon="-3.613233">
        <ele>2086.0</ele>
        <time>2017-09-30T13:02:00Z</time>
      </trkpt>
      <trkpt lat="41.158783" lon="-3.613100">
        <ele>2086.0</ele>
        <time>2017-09-30T13:02:01Z</time>
      </trkpt>
      <trkpt lat="41.158750" lon="-3.612950">
        <ele>2086.0</ele>
        <time>2017-09-30T13:02:02Z</time>
      </trkpt>
      <trkpt lat="41.158683" lon="-3.612833">
        <ele>2086.0</ele>
        <time>2017-09-30T13:02:03Z</time>
      </trkpt>
      <trkpt lat="41.158617" lon="-3.612717">
        <ele>2086.0</ele>
        <time>2017-09-30T13:02:04Z</time>
      </trkpt>
      <trkpt lat="41.158533" lon="-3.612633">
        <ele>2086.0</ele>
        <time>2017-09-30T13:02:05Z</time>
      </trkpt>
      <trkpt lat="41.158450" lon="-3.612550">
        <ele>2087.0</ele>
        <time>2017-09-30T13:02:06Z</time>
      </trkpt>
      <trkpt lat="41.158367" lon="-3.612500">
        <ele>2087.0</ele>
        <time>2017-09-30T13:02:07Z</time>
      </trkpt>
      <trkpt lat="41.158267" lon="-3.612467">
        <ele>2087.0</ele>
        <time>2017-09-30T13:02:08Z</time>
      </trkpt>
      <trkpt lat="41.158183" lon="-3.612450">
        <ele>2088.0</ele>
        <time>2017-09-30T13:02:09Z</time>
      </trkpt>
      <trkpt lat="41.158100" lon="-3.612450">
        <ele>2090.0</ele>
        <time>2017-09-30T13:02:10Z</time>
      </trkpt>
      <trkpt lat="41.158050" lon="-3.612483">
        <ele>2091.0</ele>
        <time>2017-09-30T13:02:11Z</time>
      </trkpt>
      <trkpt lat="41.158000" lon="-3.612533">
        <ele>2092.0</ele>
        <time>2017-09-30T13:02:12Z</time>
      </trkpt>
      <trkpt lat="41.157967" lon="-3.612600">
        <ele>2093.0</ele>
        <time>2017-09-30T13:02:13Z</time>
      </trkpt>
      <trkpt lat="41.157933" lon="-3.612683">
        <ele>2094.0</ele>
        <time>2017-09-30T13:02:14Z</time>
      </trkpt>
      <trkpt lat="41.157933" lon="-3.612767">
        <ele>2095.0</ele>
        <time>2017-09-30T13:02:15Z</time>
      </trkpt>
      <trkpt lat="41.157950" lon="-3.612833">
        <ele>2096.0</ele>
        <time>2017-09-30T13:02:16Z</time>
      </trkpt>
      <trkpt lat="41.157983" lon="-3.612900">
        <ele>2097.0</ele>
        <time>2017-09-30T13:02:17Z</time>
      </trkpt>
      <trkpt lat="41.158033" lon="-3.612950">
        <ele>2097.0</ele>
        <time>2017-09-30T13:02:18Z</time>
      </trkpt>
      <trkpt lat="41.158083" lon="-3.613000">
        <ele>2097.0</ele>
        <time>2017-09-30T13:02:19Z</time>
      </trkpt>
      <trkpt lat="41.158167" lon="-3.613017">
        <ele>2096.0</ele>
        <time>2017-09-30T13:02:20Z</time>
      </trkpt>
      <trkpt lat="41.158250" lon="-3.613017">
        <ele>2096.0</ele>
        <time>2017-09-30T13:02:21Z</time>
      </trkpt>
      <trkpt lat="41.158333" lon="-3.613017">
        <ele>2095.0</ele>
        <time>2017-09-30T13:02:22Z</time>
      </trkpt>
      <trkpt lat="41.158433" lon="-3.612983">
        <ele>2095.0</ele>
        <time>2017-09-30T13:02:23Z</time>
      </trkpt>
      <trkpt lat="41.158517" lon="-3.612950">
        <ele>2095.0</ele>
        <time>2017-09-30T13:02:24Z</time>
      </trkpt>
      <trkpt lat="41.158617" lon="-3.612917">
        <ele>2095.0</ele>
        <time>2017-09-30T13:02:25Z</time>
      </trkpt>
      <trkpt lat="41.158717" lon="-3.612850">
        <ele>2095.0</ele>
        <time>2017-09-30T13:02:26Z</time>
      </trkpt>
      <trkpt lat="41.158800" lon="-3.612783">
        <ele>2095.0</ele>
        <time>2017-09-30T13:02:27Z</time>
      </trkpt>
      <trkpt lat="41.158883" lon="-3.612717">
        <ele>2095.0</ele>
        <time>2017-09-30T13:02:28Z</time>
      </trkpt>
      <trkpt lat="41.158967" lon="-3.612650">
        <ele>2095.0</ele>
        <time>2017-09-30T13:02:29Z</time>
      </trkpt>
      <trkpt lat="41.159050" lon="-3.612567">
        <ele>2095.0</ele>
        <time>2017-09-30T13:02:30Z</time>
      </trkpt>
      <trkpt lat="41.159133" lon="-3.612483">
        <ele>2094.0</ele>
        <time>2017-09-30T13:02:31Z</time>
      </trkpt>
      <trkpt lat="41.159217" lon="-3.612400">
        <ele>2095.0</ele>
        <time>2017-09-30T13:02:32Z</time>
      </trkpt>
      <trkpt lat="41.159283" lon="-3.612317">
        <ele>2095.0</ele>
        <time>2017-09-30T13:02:33Z</time>
      </trkpt>
      <trkpt lat="41.159350" lon="-3.612250">
        <ele>2094.0</ele>
        <time>2017-09-30T13:02:34Z</time>
      </trkpt>
      <trkpt lat="41.159417" lon="-3.612167">
        <ele>2092.0</ele>
        <time>2017-09-30T13:02:35Z</time>
      </trkpt>
      <trkpt lat="41.159500" lon="-3.612067">
        <ele>2090.0</ele>
        <time>2017-09-30T13:02:36Z</time>
      </trkpt>
      <trkpt lat="41.159567" lon="-3.611967">
        <ele>2088.0</ele>
        <time>2017-09-30T13:02:37Z</time>
      </trkpt>
      <trkpt lat="41.159650" lon="-3.611867">
        <ele>2086.0</ele>
        <time>2017-09-30T13:02:38Z</time>
      </trkpt>
      <trkpt lat="41.159733" lon="-3.611750">
        <ele>2087.0</ele>
        <time>2017-09-30T13:02:39Z</time>
      </trkpt>
      <trkpt lat="41.159817" lon="-3.611633">
        <ele>2088.0</ele>
        <time>2017-09-30T13:02:40Z</time>
      </trkpt>
      <trkpt lat="41.159900" lon="-3.611533">
        <ele>2090.0</ele>
        <time>2017-09-30T13:02:41Z</time>
      </trkpt>
      <trkpt lat="41.159967" lon="-3.611450">
        <ele>2091.0</ele>
        <time>2017-09-30T13:02:42Z</time>
      </trkpt>
      <trkpt lat="41.160033" lon="-3.611350">
        <ele>2093.0</ele>
        <time>2017-09-30T13:02:43Z</time>
      </trkpt>
      <trkpt lat="41.160117" lon="-3.611250">
        <ele>2094.0</ele>
        <time>2017-09-30T13:02:44Z</time>
      </trkpt>
      <trkpt lat="41.160217" lon="-3.611183">
        <ele>2095.0</ele>
        <time>2017-09-30T13:02:45Z</time>
      </trkpt>
      <trkpt lat="41.160300" lon="-3.611100">
        <ele>2097.0</ele>
        <time>2017-09-30T13:02:46Z</time>
      </trkpt>
      <trkpt lat="41.160383" lon="-3.611033">
        <ele>2099.0</ele>
        <time>2017-09-30T13:02:47Z</time>
      </trkpt>
      <trkpt lat="41.160450" lon="-3.610950">
        <ele>2101.0</ele>
        <time>2017-09-30T13:02:48Z</time>
      </trkpt>
      <trkpt lat="41.160517" lon="-3.610850">
        <ele>2102.0</ele>
        <time>2017-09-30T13:02:49Z</time>
      </trkpt>
      <trkpt lat="41.160600" lon="-3.610767">
        <ele>2102.0</ele>
        <time>2017-09-30T13:02:50Z</time>
      </trkpt>
      <trkpt lat="41.160700" lon="-3.610700">
        <ele>2102.0</ele>
        <time>2017-09-30T13:02:51Z</time>
      </trkpt>
      <trkpt lat="41.160783" lon="-3.610633">
        <ele>2105.0</ele>
        <time>2017-09-30T13:02:52Z</time>
      </trkpt>
      <trkpt lat="41.160867" lon="-3.610567">
        <ele>2108.0</ele>
        <time>2017-09-30T13:02:53Z</time>
      </trkpt>
      <trkpt lat="41.160933" lon="-3.610517">
        <ele>2110.0</ele>
        <time>2017-09-30T13:02:54Z</time>
      </trkpt>
      <trkpt lat="41.161000" lon="-3.610450">
        <ele>2111.0</ele>
        <time>2017-09-30T13:02:55Z</time>
      </trkpt>
      <trkpt lat="41.161067" lon="-3.610383">
        <ele>2111.0</ele>
        <time>2017-09-30T13:02:56Z</time>
      </trkpt>
      <trkpt lat="41.161150" lon="-3.610300">
        <ele>2111.0</ele>
        <time>2017-09-30T13:02:57Z</time>
      </trkpt>
      <trkpt lat="41.161233" lon="-3.610217">
        <ele>2111.0</ele>
        <time>2017-09-30T13:02:58Z</time>
      </trkpt>
      <trkpt lat="41.161300" lon="-3.610133">
        <ele>2113.0</ele>
        <time>2017-09-30T13:02:59Z</time>
      </trkpt>
      <trkpt lat="41.161383" lon="-3.610050">
        <ele>2115.0</ele>
        <time>2017-09-30T13:03:00Z</time>
      </trkpt>
      <trkpt lat="41.161450" lon="-3.609967">
        <ele>2117.0</ele>
        <time>2017-09-30T13:03:01Z</time>
      </trkpt>
      <trkpt lat="41.161517" lon="-3.609883">
        <ele>2120.0</ele>
        <time>2017-09-30T13:03:02Z</time>
      </trkpt>
      <trkpt lat="41.161583" lon="-3.609800">
        <ele>2122.0</ele>
        <time>2017-09-30T13:03:03Z</time>
      </trkpt>
      <trkpt lat="41.161650" lon="-3.609717">
        <ele>2125.0</ele>
        <time>2017-09-30T13:03:04Z</time>
      </trkpt>
      <trkpt lat="41.161733" lon="-3.609617">
        <ele>2127.0</ele>
        <time>2017-09-30T13:03:05Z</time>
      </trkpt>
      <trkpt lat="41.161800" lon="-3.609533">
        <ele>2130.0</ele>
        <time>2017-09-30T13:03:06Z</time>
      </trkpt>
      <trkpt lat="41.161867" lon="-3.609450">
        <ele>2132.0</ele>
        <time>2017-09-30T13:03:07Z</time>
      </trkpt>
      <trkpt lat="41.161933" lon="-3.609367">
        <ele>2135.0</ele>
        <time>2017-09-30T13:03:08Z</time>
      </trkpt>
      <trkpt lat="41.162000" lon="-3.609283">
        <ele>2137.0</ele>
        <time>2017-09-30T13:03:09Z</time>
      </trkpt>
      <trkpt lat="41.162067" lon="-3.609217">
        <ele>2138.0</ele>
        <time>2017-09-30T13:03:10Z</time>
      </trkpt>
      <trkpt lat="41.162150" lon="-3.609117">
        <ele>2139.0</ele>
        <time>2017-09-30T13:03:11Z</time>
      </trkpt>
      <trkpt lat="41.162217" lon="-3.609017">
        <ele>2140.0</ele>
        <time>2017-09-30T13:03:12Z</time>
      </trkpt>
      <trkpt lat="41.162317" lon="-3.608917">
        <ele>2143.0</ele>
        <time>2017-09-30T13:03:13Z</time>
      </trkpt>
      <trkpt lat="41.162400" lon="-3.608850">
        <ele>2146.0</ele>
        <time>2017-09-30T13:03:14Z</time>
      </trkpt>
      <trkpt lat="41.162483" lon="-3.608783">
        <ele>2150.0</ele>
        <time>2017-09-30T13:03:15Z</time>
      </trkpt>
      <trkpt lat="41.162567" lon="-3.608717">
        <ele>2155.0</ele>
        <time>2017-09-30T13:03:16Z</time>
      </trkpt>
      <trkpt lat="41.162633" lon="-3.608667">
        <ele>2158.0</ele>
        <time>2017-09-30T13:03:17Z</time>
      </trkpt>
      <trkpt lat="41.162717" lon="-3.608617">
        <ele>2160.0</ele>
        <time>2017-09-30T13:03:18Z</time>
      </trkpt>
      <trkpt lat="41.162817" lon="-3.608567">
        <ele>2161.0</ele>
        <time>2017-09-30T13:03:19Z</time>
      </trkpt>
      <trkpt lat="41.162917" lon="-3.608517">
        <ele>2163.0</ele>
        <time>2017-09-30T13:03:20Z</time>
      </trkpt>
      <trkpt lat="41.163017" lon="-3.608450">
        <ele>2165.0</ele>
        <time>2017-09-30T13:03:21Z</time>
      </trkpt>
      <trkpt lat="41.163117" lon="-3.608383">
        <ele>2169.0</ele>
        <time>2017-09-30T13:03:22Z</time>
      </trkpt>
      <trkpt lat="41.163217" lon="-3.608317">
        <ele>2172.0</ele>
        <time>2017-09-30T13:03:23Z</time>
      </trkpt>
      <trkpt lat="41.163283" lon="-3.608250">
        <ele>2174.0</ele>
        <time>2017-09-30T13:03:24Z</time>
      </trkpt>
      <trkpt lat="41.163350" lon="-3.608183">
        <ele>2174.0</ele>
        <time>2017-09-30T13:03:25Z</time>
      </trkpt>
      <trkpt lat="41.163433" lon="-3.608100">
        <ele>2173.0</ele>
        <time>2017-09-30T13:03:26Z</time>
      </trkpt>
      <trkpt lat="41.163517" lon="-3.608000">
        <ele>2172.0</ele>
        <time>2017-09-30T13:03:27Z</time>
      </trkpt>
      <trkpt lat="41.163617" lon="-3.607917">
        <ele>2171.0</ele>
        <time>2017-09-30T13:03:28Z</time>
      </trkpt>
      <trkpt lat="41.163717" lon="-3.607817">
        <ele>2173.0</ele>
        <time>2017-09-30T13:03:29Z</time>
      </trkpt>
      <trkpt lat="41.163817" lon="-3.607750">
        <ele>2175.0</ele>
        <time>2017-09-30T13:03:30Z</time>
      </trkpt>
      <trkpt lat="41.163900" lon="-3.607667">
        <ele>2176.0</ele>
        <time>2017-09-30T13:03:31Z</time>
      </trkpt>
      <trkpt lat="41.163983" lon="-3.607583">
        <ele>2177.0</ele>
        <time>2017-09-30T13:03:32Z</time>
      </trkpt>
      <trkpt lat="41.164067" lon="-3.607500">
        <ele>2177.0</ele>
        <time>2017-09-30T13:03:33Z</time>
      </trkpt>
      <trkpt lat="41.164150" lon="-3.607400">
        <ele>2177.0</ele>
        <time>2017-09-30T13:03:34Z</time>
      </trkpt>
      <trkpt lat="41.164250" lon="-3.607300">
        <ele>2177.0</ele>
        <time>2017-09-30T13:03:35Z</time>
      </trkpt>
      <trkpt lat="41.164350" lon="-3.607200">
        <ele>2177.0</ele>
        <time>2017-09-30T13:03:36Z</time>
      </trkpt>
      <trkpt lat="41.164433" lon="-3.607100">
        <ele>2178.0</ele>
        <time>2017-09-30T13:03:37Z</time>
      </trkpt>
      <trkpt lat="41.164517" lon="-3.607017">
        <ele>2178.0</ele>
        <time>2017-09-30T13:03:38Z</time>
      </trkpt>
      <trkpt lat="41.164600" lon="-3.606933">
        <ele>2177.0</ele>
        <time>2017-09-30T13:03:39Z</time>
      </trkpt>
      <trkpt lat="41.164700" lon="-3.606833">
        <ele>2176.0</ele>
        <time>2017-09-30T13:03:40Z</time>
      </trkpt>
      <trkpt lat="41.164800" lon="-3.606750">
        <ele>2175.0</ele>
        <time>2017-09-30T13:03:41Z</time>
      </trkpt>
      <trkpt lat="41.164900" lon="-3.606683">
        <ele>2175.0</ele>
        <time>2017-09-30T13:03:42Z</time>
      </trkpt>
      <trkpt lat="41.164983" lon="-3.606583">
        <ele>2176.0</ele>
        <time>2017-09-30T13:03:43Z</time>
      </trkpt>
      <trkpt lat="41.165083" lon="-3.606500">
        <ele>2177.0</ele>
        <time>2017-09-30T13:03:44Z</time>
      </trkpt>
      <trkpt lat="41.165150" lon="-3.606383">
        <ele>2178.0</ele>
        <time>2017-09-30T13:03:45Z</time>
      </trkpt>
      <trkpt lat="41.165233" lon="-3.606300">
        <ele>2179.0</ele>
        <time>2017-09-30T13:03:46Z</time>
      </trkpt>
      <trkpt lat="41.165300" lon="-3.606200">
        <ele>2180.0</ele>
        <time>2017-09-30T13:03:47Z</time>
      </trkpt>
      <trkpt lat="41.165383" lon="-3.606133">
        <ele>2181.0</ele>
        <time>2017-09-30T13:03:48Z</time>
      </trkpt>
      <trkpt lat="41.165450" lon="-3.606050">
        <ele>2182.0</ele>
        <time>2017-09-30T13:03:49Z</time>
      </trkpt>
      <trkpt lat="41.165517" lon="-3.605967">
        <ele>2182.0</ele>
        <time>2017-09-30T13:03:50Z</time>
      </trkpt>
      <trkpt lat="41.165583" lon="-3.605867">
        <ele>2182.0</ele>
        <time>2017-09-30T13:03:51Z</time>
      </trkpt>
      <trkpt lat="41.165650" lon="-3.605767">
        <ele>2182.0</ele>
        <time>2017-09-30T13:03:52Z</time>
      </trkpt>
      <trkpt lat="41.165717" lon="-3.605667">
        <ele>2183.0</ele>
        <time>2017-09-30T13:03:53Z</time>
      </trkpt>
      <trkpt lat="41.165800" lon="-3.605567">
        <ele>2184.0</ele>
        <time>2017-09-30T13:03:54Z</time>
      </trkpt>
      <trkpt lat="41.165867" lon="-3.605483">
        <ele>2185.0</ele>
        <time>2017-09-30T13:03:55Z</time>
      </trkpt>
      <trkpt lat="41.165950" lon="-3.605383">
        <ele>2187.0</ele>
        <time>2017-09-30T13:03:56Z</time>
      </trkpt>
      <trkpt lat="41.166050" lon="-3.605300">
        <ele>2190.0</ele>
        <time>2017-09-30T13:03:57Z</time>
      </trkpt>
      <trkpt lat="41.166133" lon="-3.605217">
        <ele>2192.0</ele>
        <time>2017-09-30T13:03:58Z</time>
      </trkpt>
      <trkpt lat="41.166217" lon="-3.605133">
        <ele>2194.0</ele>
        <time>2017-09-30T13:03:59Z</time>
      </trkpt>
      <trkpt lat="41.166283" lon="-3.605067">
        <ele>2196.0</ele>
        <time>2017-09-30T13:04:00Z</time>
      </trkpt>
      <trkpt lat="41.166367" lon="-3.604983">
        <ele>2197.0</ele>
        <time>2017-09-30T13:04:01Z</time>
      </trkpt>
      <trkpt lat="41.166450" lon="-3.604900">
        <ele>2198.0</ele>
        <time>2017-09-30T13:04:02Z</time>
      </trkpt>
      <trkpt lat="41.166550" lon="-3.604817">
        <ele>2199.0</ele>
        <time>2017-09-30T13:04:03Z</time>
      </trkpt>
      <trkpt lat="41.166633" lon="-3.604733">
        <ele>2201.0</ele>
        <time>2017-09-30T13:04:04Z</time>
      </trkpt>
      <trkpt lat="41.166717" lon="-3.604633">
        <ele>2203.0</ele>
        <time>2017-09-30T13:04:05Z</time>
      </trkpt>
      <trkpt lat="41.166783" lon="-3.604550">
        <ele>2205.0</ele>
        <time>2017-09-30T13:04:06Z</time>
      </trkpt>
      <trkpt lat="41.166867" lon="-3.604483">
        <ele>2205.0</ele>
        <time>2017-09-30T13:04:07Z</time>
      </trkpt>
      <trkpt lat="41.166933" lon="-3.604400">
        <ele>2205.0</ele>
        <time>2017-09-30T13:04:08Z</time>
      </trkpt>
      <trkpt lat="41.167033" lon="-3.604333">
        <ele>2203.0</ele>
        <time>2017-09-30T13:04:09Z</time>
      </trkpt>
      <trkpt lat="41.167117" lon="-3.604233">
        <ele>2203.0</ele>
        <time>2017-09-30T13:04:10Z</time>
      </trkpt>
      <trkpt lat="41.167217" lon="-3.604133">
        <ele>2204.0</ele>
        <time>2017-09-30T13:04:11Z</time>
      </trkpt>
      <trkpt lat="41.167283" lon="-3.604050">
        <ele>2206.0</ele>
        <time>2017-09-30T13:04:12Z</time>
      </trkpt>
      <trkpt lat="41.167350" lon="-3.603950">
        <ele>2207.0</ele>
        <time>2017-09-30T13:04:13Z</time>
      </trkpt>
      <trkpt lat="41.167417" lon="-3.603850">
        <ele>2208.0</ele>
        <time>2017-09-30T13:04:14Z</time>
      </trkpt>
      <trkpt lat="41.167483" lon="-3.603750">
        <ele>2208.0</ele>
        <time>2017-09-30T13:04:15Z</time>
      </trkpt>
      <trkpt lat="41.167567" lon="-3.603650">
        <ele>2208.0</ele>
        <time>2017-09-30T13:04:16Z</time>
      </trkpt>
      <trkpt lat="41.167650" lon="-3.603533">
        <ele>2209.0</ele>
        <time>2017-09-30T13:04:17Z</time>
      </trkpt>
      <trkpt lat="41.167717" lon="-3.603450">
        <ele>2210.0</ele>
        <time>2017-09-30T13:04:18Z</time>
      </trkpt>
      <trkpt lat="41.167767" lon="-3.603350">
        <ele>2211.0</ele>
        <time>2017-09-30T13:04:19Z</time>
      </trkpt>
      <trkpt lat="41.167833" lon="-3.603250">
        <ele>2211.0</ele>
        <time>2017-09-30T13:04:20Z</time>
      </trkpt>
      <trkpt lat="41.167900" lon="-3.603150">
        <ele>2210.0</ele>
        <time>2017-09-30T13:04:21Z</time>
      </trkpt>
      <trkpt lat="41.167967" lon="-3.603017">
        <ele>2210.0</ele>
        <time>2017-09-30T13:04:22Z</time>
      </trkpt>
      <trkpt lat="41.168033" lon="-3.602917">
        <ele>2211.0</ele>
        <time>2017-09-30T13:04:23Z</time>
      </trkpt>
      <trkpt lat="41.168100" lon="-3.602800">
        <ele>2212.0</ele>
        <time>2017-09-30T13:04:24Z</time>
      </trkpt>
      <trkpt lat="41.168167" lon="-3.602717">
        <ele>2213.0</ele>
        <time>2017-09-30T13:04:25Z</time>
      </trkpt>
      <trkpt lat="41.168233" lon="-3.602617">
        <ele>2213.0</ele>
        <time>2017-09-30T13:04:26Z</time>
      </trkpt>
      <trkpt lat="41.168300" lon="-3.602517">
        <ele>2214.0</ele>
        <time>2017-09-30T13:04:27Z</time>
      </trkpt>
      <trkpt lat="41.168383" lon="-3.602417">
        <ele>2215.0</ele>
        <time>2017-09-30T13:04:28Z</time>
      </trkpt>
      <trkpt lat="41.168450" lon="-3.602300">
        <ele>2217.0</ele>
        <time>2017-09-30T13:04:29Z</time>
      </trkpt>
      <trkpt lat="41.168517" lon="-3.602200">
        <ele>2218.0</ele>
        <time>2017-09-30T13:04:30Z</time>
      </trkpt>
      <trkpt lat="41.168583" lon="-3.602117">
        <ele>2220.0</ele>
        <time>2017-09-30T13:04:31Z</time>
      </trkpt>
      <trkpt lat="41.168633" lon="-3.602017">
        <ele>2220.0</ele>
        <time>2017-09-30T13:04:32Z</time>
      </trkpt>
      <trkpt lat="41.168683" lon="-3.601933">
        <ele>2219.0</ele>
        <time>2017-09-30T13:04:33Z</time>
      </trkpt>
      <trkpt lat="41.168750" lon="-3.601817">
        <ele>2217.0</ele>
        <time>2017-09-30T13:04:34Z</time>
      </trkpt>
      <trkpt lat="41.168833" lon="-3.601700">
        <ele>2216.0</ele>
        <time>2017-09-30T13:04:35Z</time>
      </trkpt>
      <trkpt lat="41.168917" lon="-3.601567">
        <ele>2216.0</ele>
        <time>2017-09-30T13:04:36Z</time>
      </trkpt>
      <trkpt lat="41.168983" lon="-3.601450">
        <ele>2218.0</ele>
        <time>2017-09-30T13:04:37Z</time>
      </trkpt>
      <trkpt lat="41.169033" lon="-3.601333">
        <ele>2220.0</ele>
        <time>2017-09-30T13:04:38Z</time>
      </trkpt>
      <trkpt lat="41.169083" lon="-3.601233">
        <ele>2220.0</ele>
        <time>2017-09-30T13:04:39Z</time>
      </trkpt>
      <trkpt lat="41.169150" lon="-3.601133">
        <ele>2219.0</ele>
        <time>2017-09-30T13:04:40Z</time>
      </trkpt>
      <trkpt lat="41.169217" lon="-3.601033">
        <ele>2218.0</ele>
        <time>2017-09-30T13:04:41Z</time>
      </trkpt>
      <trkpt lat="41.169300" lon="-3.600917">
        <ele>2217.0</ele>
        <time>2017-09-30T13:04:42Z</time>
      </trkpt>
      <trkpt lat="41.169367" lon="-3.600817">
        <ele>2217.0</ele>
        <time>2017-09-30T13:04:43Z</time>
      </trkpt>
      <trkpt lat="41.169433" lon="-3.600700">
        <ele>2217.0</ele>
        <time>2017-09-30T13:04:44Z</time>
      </trkpt>
      <trkpt lat="41.169483" lon="-3.600617">
        <ele>2217.0</ele>
        <time>2017-09-30T13:04:45Z</time>
      </trkpt>
      <trkpt lat="41.169550" lon="-3.600517">
        <ele>2216.0</ele>
        <time>2017-09-30T13:04:46Z</time>
      </trkpt>
      <trkpt lat="41.169617" lon="-3.600400">
        <ele>2215.0</ele>
        <time>2017-09-30T13:04:47Z</time>
      </trkpt>
      <trkpt lat="41.169700" lon="-3.600300">
        <ele>2214.0</ele>
        <time>2017-09-30T13:04:48Z</time>
      </trkpt>
      <trkpt lat="41.169783" lon="-3.600183">
        <ele>2213.0</ele>
        <time>2017-09-30T13:04:49Z</time>
      </trkpt>
      <trkpt lat="41.169850" lon="-3.600083">
        <ele>2213.0</ele>
        <time>2017-09-30T13:04:50Z</time>
      </trkpt>
      <trkpt lat="41.169917" lon="-3.599983">
        <ele>2213.0</ele>
        <time>2017-09-30T13:04:51Z</time>
      </trkpt>
      <trkpt lat="41.170000" lon="-3.599883">
        <ele>2212.0</ele>
        <time>2017-09-30T13:04:52Z</time>
      </trkpt>
      <trkpt lat="41.170067" lon="-3.599767">
        <ele>2210.0</ele>
        <time>2017-09-30T13:04:53Z</time>
      </trkpt>
      <trkpt lat="41.170150" lon="-3.599667">
        <ele>2209.0</ele>
        <time>2017-09-30T13:04:54Z</time>
      </trkpt>
      <trkpt lat="41.170233" lon="-3.599567">
        <ele>2209.0</ele>
        <time>2017-09-30T13:04:55Z</time>
      </trkpt>
      <trkpt lat="41.170300" lon="-3.599450">
        <ele>2209.0</ele>
        <time>2017-09-30T13:04:56Z</time>
      </trkpt>
      <trkpt lat="41.170383" lon="-3.599367">
        <ele>2209.0</ele>
        <time>2017-09-30T13:04:57Z</time>
      </trkpt>
      <trkpt lat="41.170450" lon="-3.599267">
        <ele>2210.0</ele>
        <time>2017-09-30T13:04:58Z</time>
      </trkpt>
      <trkpt lat="41.170517" lon="-3.599183">
        <ele>2208.0</ele>
        <time>2017-09-30T13:04:59Z</time>
      </trkpt>
      <trkpt lat="41.170600" lon="-3.599100">
        <ele>2206.0</ele>
        <time>2017-09-30T13:05:00Z</time>
      </trkpt>
      <trkpt lat="41.170700" lon="-3.599017">
        <ele>2204.0</ele>
        <time>2017-09-30T13:05:01Z</time>
      </trkpt>
      <trkpt lat="41.170800" lon="-3.598950">
        <ele>2203.0</ele>
        <time>2017-09-30T13:05:02Z</time>
      </trkpt>
      <trkpt lat="41.170900" lon="-3.598850">
        <ele>2204.0</ele>
        <time>2017-09-30T13:05:03Z</time>
      </trkpt>
      <trkpt lat="41.170967" lon="-3.598750">
        <ele>2204.0</ele>
        <time>2017-09-30T13:05:04Z</time>
      </trkpt>
      <trkpt lat="41.171033" lon="-3.598633">
        <ele>2204.0</ele>
        <time>2017-09-30T13:05:05Z</time>
      </trkpt>
      <trkpt lat="41.171100" lon="-3.598500">
        <ele>2203.0</ele>
        <time>2017-09-30T13:05:06Z</time>
      </trkpt>
      <trkpt lat="41.171183" lon="-3.598383">
        <ele>2200.0</ele>
        <time>2017-09-30T13:05:07Z</time>
      </trkpt>
      <trkpt lat="41.171250" lon="-3.598250">
        <ele>2199.0</ele>
        <time>2017-09-30T13:05:08Z</time>
      </trkpt>
      <trkpt lat="41.171333" lon="-3.598133">
        <ele>2199.0</ele>
        <time>2017-09-30T13:05:09Z</time>
      </trkpt>
      <trkpt lat="41.171400" lon="-3.598000">
        <ele>2198.0</ele>
        <time>2017-09-30T13:05:10Z</time>
      </trkpt>
      <trkpt lat="41.171467" lon="-3.597883">
        <ele>2197.0</ele>
        <time>2017-09-30T13:05:11Z</time>
      </trkpt>
      <trkpt lat="41.171533" lon="-3.597750">
        <ele>2196.0</ele>
        <time>2017-09-30T13:05:12Z</time>
      </trkpt>
      <trkpt lat="41.171600" lon="-3.597617">
        <ele>2195.0</ele>
        <time>2017-09-30T13:05:13Z</time>
      </trkpt>
      <trkpt lat="41.171683" lon="-3.597483">
        <ele>2195.0</ele>
        <time>2017-09-30T13:05:14Z</time>
      </trkpt>
      <trkpt lat="41.171750" lon="-3.597350">
        <ele>2194.0</ele>
        <time>2017-09-30T13:05:15Z</time>
      </trkpt>
      <trkpt lat="41.171817" lon="-3.597217">
        <ele>2193.0</ele>
        <time>2017-09-30T13:05:16Z</time>
      </trkpt>
      <trkpt lat="41.171883" lon="-3.597083">
        <ele>2192.0</ele>
        <time>2017-09-30T13:05:17Z</time>
      </trkpt>
      <trkpt lat="41.171967" lon="-3.596950">
        <ele>2190.0</ele>
        <time>2017-09-30T13:05:18Z</time>
      </trkpt>
      <trkpt lat="41.172050" lon="-3.596800">
        <ele>2190.0</ele>
        <time>2017-09-30T13:05:19Z</time>
      </trkpt>
      <trkpt lat="41.172133" lon="-3.596667">
        <ele>2191.0</ele>
        <time>2017-09-30T13:05:20Z</time>
      </trkpt>
      <trkpt lat="41.172200" lon="-3.596517">
        <ele>2192.0</ele>
        <time>2017-09-30T13:05:21Z</time>
      </trkpt>
      <trkpt lat="41.172267" lon="-3.596400">
        <ele>2193.0</ele>
        <time>2017-09-30T13:05:22Z</time>
      </trkpt>
      <trkpt lat="41.172350" lon="-3.596283">
        <ele>2192.0</ele>
        <time>2017-09-30T13:05:23Z</time>
      </trkpt>
      <trkpt lat="41.172433" lon="-3.596150">
        <ele>2191.0</ele>
        <time>2017-09-30T13:05:24Z</time>
      </trkpt>
      <trkpt lat="41.172517" lon="-3.596017">
        <ele>2191.0</ele>
        <time>2017-09-30T13:05:25Z</time>
      </trkpt>
      <trkpt lat="41.172617" lon="-3.595883">
        <ele>2191.0</ele>
        <time>2017-09-30T13:05:26Z</time>
      </trkpt>
      <trkpt lat="41.172700" lon="-3.595767">
        <ele>2192.0</ele>
        <time>2017-09-30T13:05:27Z</time>
      </trkpt>
      <trkpt lat="41.172783" lon="-3.595633">
        <ele>2193.0</ele>
        <time>2017-09-30T13:05:28Z</time>
      </trkpt>
      <trkpt lat="41.172883" lon="-3.595517">
        <ele>2193.0</ele>
        <time>2017-09-30T13:05:29Z</time>
      </trkpt>
      <trkpt lat="41.172967" lon="-3.595400">
        <ele>2194.0</ele>
        <time>2017-09-30T13:05:30Z</time>
      </trkpt>
      <trkpt lat="41.173050" lon="-3.595283">
        <ele>2195.0</ele>
        <time>2017-09-30T13:05:31Z</time>
      </trkpt>
      <trkpt lat="41.173133" lon="-3.595167">
        <ele>2196.0</ele>
        <time>2017-09-30T13:05:32Z</time>
      </trkpt>
      <trkpt lat="41.173217" lon="-3.595033">
        <ele>2198.0</ele>
        <time>2017-09-30T13:05:33Z</time>
      </trkpt>
      <trkpt lat="41.173283" lon="-3.594900">
        <ele>2199.0</ele>
        <time>2017-09-30T13:05:34Z</time>
      </trkpt>
      <trkpt lat="41.173350" lon="-3.594767">
        <ele>2200.0</ele>
        <time>2017-09-30T13:05:35Z</time>
      </trkpt>
      <trkpt lat="41.173433" lon="-3.594650">
        <ele>2201.0</ele>
        <time>2017-09-30T13:05:36Z</time>
      </trkpt>
      <trkpt lat="41.173517" lon="-3.594517">
        <ele>2202.0</ele>
        <time>2017-09-30T13:05:37Z</time>
      </trkpt>
      <trkpt lat="41.173600" lon="-3.594400">
        <ele>2202.0</ele>
        <time>2017-09-30T13:05:38Z</time>
      </trkpt>
      <trkpt lat="41.173667" lon="-3.594267">
        <ele>2203.0</ele>
        <time>2017-09-30T13:05:39Z</time>
      </trkpt>
      <trkpt lat="41.173750" lon="-3.594133">
        <ele>2203.0</ele>
        <time>2017-09-30T13:05:40Z</time>
      </trkpt>
      <trkpt lat="41.173817" lon="-3.594000">
        <ele>2203.0</ele>
        <time>2017-09-30T13:05:41Z</time>
      </trkpt>
      <trkpt lat="41.173900" lon="-3.593867">
        <ele>2203.0</ele>
        <time>2017-09-30T13:05:42Z</time>
      </trkpt>
      <trkpt lat="41.173983" lon="-3.593733">
        <ele>2204.0</ele>
        <time>2017-09-30T13:05:43Z</time>
      </trkpt>
      <trkpt lat="41.174067" lon="-3.593600">
        <ele>2206.0</ele>
        <time>2017-09-30T13:05:44Z</time>
      </trkpt>
      <trkpt lat="41.174133" lon="-3.593483">
        <ele>2208.0</ele>
        <time>2017-09-30T13:05:45Z</time>
      </trkpt>
      <trkpt lat="41.174200" lon="-3.593350">
        <ele>2210.0</ele>
        <time>2017-09-30T13:05:46Z</time>
      </trkpt>
      <trkpt lat="41.174267" lon="-3.593233">
        <ele>2212.0</ele>
        <time>2017-09-30T13:05:47Z</time>
      </trkpt>
      <trkpt lat="41.174350" lon="-3.593117">
        <ele>2213.0</ele>
        <time>2017-09-30T13:05:48Z</time>
      </trkpt>
      <trkpt lat="41.174417" lon="-3.593017">
        <ele>2213.0</ele>
        <time>2017-09-30T13:05:49Z</time>
      </trkpt>
      <trkpt lat="41.174483" lon="-3.592900">
        <ele>2214.0</ele>
        <time>2017-09-30T13:05:50Z</time>
      </trkpt>
      <trkpt lat="41.174567" lon="-3.592800">
        <ele>2215.0</ele>
        <time>2017-09-30T13:05:51Z</time>
      </trkpt>
      <trkpt lat="41.174633" lon="-3.592683">
        <ele>2215.0</ele>
        <time>2017-09-30T13:05:52Z</time>
      </trkpt>
      <trkpt lat="41.174700" lon="-3.592583">
        <ele>2216.0</ele>
        <time>2017-09-30T13:05:53Z</time>
      </trkpt>
      <trkpt lat="41.174767" lon="-3.592467">
        <ele>2216.0</ele>
        <time>2017-09-30T13:05:54Z</time>
      </trkpt>
      <trkpt lat="41.174850" lon="-3.592350">
        <ele>2215.0</ele>
        <time>2017-09-30T13:05:55Z</time>
      </trkpt>
      <trkpt lat="41.174900" lon="-3.592233">
        <ele>2215.0</ele>
        <time>2017-09-30T13:05:56Z</time>
      </trkpt>
      <trkpt lat="41.174983" lon="-3.592117">
        <ele>2214.0</ele>
        <time>2017-09-30T13:05:57Z</time>
      </trkpt>
      <trkpt lat="41.175050" lon="-3.592000">
        <ele>2213.0</ele>
        <time>2017-09-30T13:05:58Z</time>
      </trkpt>
      <trkpt lat="41.175133" lon="-3.591883">
        <ele>2213.0</ele>
        <time>2017-09-30T13:05:59Z</time>
      </trkpt>
      <trkpt lat="41.175217" lon="-3.591767">
        <ele>2213.0</ele>
        <time>2017-09-30T13:06:00Z</time>
      </trkpt>
      <trkpt lat="41.175300" lon="-3.591650">
        <ele>2213.0</ele>
        <time>2017-09-30T13:06:01Z</time>
      </trkpt>
      <trkpt lat="41.175367" lon="-3.591517">
        <ele>2213.0</ele>
        <time>2017-09-30T13:06:02Z</time>
      </trkpt>
      <trkpt lat="41.175433" lon="-3.591383">
        <ele>2212.0</ele>
        <time>2017-09-30T13:06:03Z</time>
      </trkpt>
      <trkpt lat="41.175500" lon="-3.591267">
        <ele>2210.0</ele>
        <time>2017-09-30T13:06:04Z</time>
      </trkpt>
      <trkpt lat="41.175583" lon="-3.591117">
        <ele>2208.0</ele>
        <time>2017-09-30T13:06:05Z</time>
      </trkpt>
      <trkpt lat="41.175667" lon="-3.590967">
        <ele>2205.0</ele>
        <time>2017-09-30T13:06:06Z</time>
      </trkpt>
      <trkpt lat="41.175767" lon="-3.590833">
        <ele>2205.0</ele>
        <time>2017-09-30T13:06:07Z</time>
      </trkpt>
      <trkpt lat="41.175833" lon="-3.590700">
        <ele>2206.0</ele>
        <time>2017-09-30T13:06:08Z</time>
      </trkpt>
      <trkpt lat="41.175900" lon="-3.590600">
        <ele>2207.0</ele>
        <time>2017-09-30T13:06:09Z</time>
      </trkpt>
      <trkpt lat="41.175967" lon="-3.590483">
        <ele>2207.0</ele>
        <time>2017-09-30T13:06:10Z</time>
      </trkpt>
      <trkpt lat="41.176033" lon="-3.590383">
        <ele>2206.0</ele>
        <time>2017-09-30T13:06:11Z</time>
      </trkpt>
      <trkpt lat="41.176117" lon="-3.590283">
        <ele>2206.0</ele>
        <time>2017-09-30T13:06:12Z</time>
      </trkpt>
      <trkpt lat="41.176183" lon="-3.590167">
        <ele>2205.0</ele>
        <time>2017-09-30T13:06:13Z</time>
      </trkpt>
      <trkpt lat="41.176267" lon="-3.590067">
        <ele>2205.0</ele>
        <time>2017-09-30T13:06:14Z</time>
      </trkpt>
      <trkpt lat="41.176333" lon="-3.589950">
        <ele>2205.0</ele>
        <time>2017-09-30T13:06:15Z</time>
      </trkpt>
      <trkpt lat="41.176417" lon="-3.589850">
        <ele>2206.0</ele>
        <time>2017-09-30T13:06:16Z</time>
      </trkpt>
      <trkpt lat="41.176483" lon="-3.589750">
        <ele>2206.0</ele>
        <time>2017-09-30T13:06:17Z</time>
      </trkpt>
      <trkpt lat="41.176567" lon="-3.589650">
        <ele>2205.0</ele>
        <time>2017-09-30T13:06:18Z</time>
      </trkpt>
      <trkpt lat="41.176650" lon="-3.589550">
        <ele>2204.0</ele>
        <time>2017-09-30T13:06:19Z</time>
      </trkpt>
      <trkpt lat="41.176733" lon="-3.589450">
        <ele>2203.0</ele>
        <time>2017-09-30T13:06:20Z</time>
      </trkpt>
      <trkpt lat="41.176817" lon="-3.589350">
        <ele>2204.0</ele>
        <time>2017-09-30T13:06:21Z</time>
      </trkpt>
      <trkpt lat="41.176917" lon="-3.589267">
        <ele>2205.0</ele>
        <time>2017-09-30T13:06:22Z</time>
      </trkpt>
      <trkpt lat="41.177000" lon="-3.589200">
        <ele>2207.0</ele>
        <time>2017-09-30T13:06:23Z</time>
      </trkpt>
      <trkpt lat="41.177067" lon="-3.589133">
        <ele>2210.0</ele>
        <time>2017-09-30T13:06:24Z</time>
      </trkpt>
      <trkpt lat="41.177117" lon="-3.589050">
        <ele>2211.0</ele>
        <time>2017-09-30T13:06:25Z</time>
      </trkpt>
      <trkpt lat="41.177183" lon="-3.588967">
        <ele>2212.0</ele>
        <time>2017-09-30T13:06:26Z</time>
      </trkpt>
      <trkpt lat="41.177250" lon="-3.588867">
        <ele>2211.0</ele>
        <time>2017-09-30T13:06:27Z</time>
      </trkpt>
      <trkpt lat="41.177350" lon="-3.588783">
        <ele>2210.0</ele>
        <time>2017-09-30T13:06:28Z</time>
      </trkpt>
      <trkpt lat="41.177433" lon="-3.588683">
        <ele>2212.0</ele>
        <time>2017-09-30T13:06:29Z</time>
      </trkpt>
      <trkpt lat="41.177517" lon="-3.588600">
        <ele>2214.0</ele>
        <time>2017-09-30T13:06:30Z</time>
      </trkpt>
      <trkpt lat="41.177583" lon="-3.588500">
        <ele>2217.0</ele>
        <time>2017-09-30T13:06:31Z</time>
      </trkpt>
      <trkpt lat="41.177650" lon="-3.588400">
        <ele>2218.0</ele>
        <time>2017-09-30T13:06:32Z</time>
      </trkpt>
      <trkpt lat="41.177717" lon="-3.588300">
        <ele>2218.0</ele>
        <time>2017-09-30T13:06:33Z</time>
      </trkpt>
      <trkpt lat="41.177800" lon="-3.588183">
        <ele>2219.0</ele>
        <time>2017-09-30T13:06:34Z</time>
      </trkpt>
      <trkpt lat="41.177867" lon="-3.588067">
        <ele>2218.0</ele>
        <time>2017-09-30T13:06:35Z</time>
      </trkpt>
      <trkpt lat="41.177933" lon="-3.587950">
        <ele>2218.0</ele>
        <time>2017-09-30T13:06:36Z</time>
      </trkpt>
      <trkpt lat="41.178000" lon="-3.587833">
        <ele>2217.0</ele>
        <time>2017-09-30T13:06:37Z</time>
      </trkpt>
      <trkpt lat="41.178083" lon="-3.587717">
        <ele>2216.0</ele>
        <time>2017-09-30T13:06:38Z</time>
      </trkpt>
      <trkpt lat="41.178150" lon="-3.587600">
        <ele>2214.0</ele>
        <time>2017-09-30T13:06:39Z</time>
      </trkpt>
      <trkpt lat="41.178250" lon="-3.587500">
        <ele>2212.0</ele>
        <time>2017-09-30T13:06:40Z</time>
      </trkpt>
      <trkpt lat="41.178333" lon="-3.587383">
        <ele>2212.0</ele>
        <time>2017-09-30T13:06:41Z</time>
      </trkpt>
      <trkpt lat="41.178400" lon="-3.587267">
        <ele>2211.0</ele>
        <time>2017-09-30T13:06:42Z</time>
      </trkpt>
      <trkpt lat="41.178467" lon="-3.587150">
        <ele>2211.0</ele>
        <time>2017-09-30T13:06:43Z</time>
      </trkpt>
      <trkpt lat="41.178533" lon="-3.587033">
        <ele>2210.0</ele>
        <time>2017-09-30T13:06:44Z</time>
      </trkpt>
      <trkpt lat="41.178617" lon="-3.586917">
        <ele>2209.0</ele>
        <time>2017-09-30T13:06:45Z</time>
      </trkpt>
      <trkpt lat="41.178700" lon="-3.586817">
        <ele>2208.0</ele>
        <time>2017-09-30T13:06:46Z</time>
      </trkpt>
      <trkpt lat="41.178783" lon="-3.586700">
        <ele>2207.0</ele>
        <time>2017-09-30T13:06:47Z</time>
      </trkpt>
      <trkpt lat="41.178867" lon="-3.586600">
        <ele>2206.0</ele>
        <time>2017-09-30T13:06:48Z</time>
      </trkpt>
      <trkpt lat="41.178950" lon="-3.586483">
        <ele>2206.0</ele>
        <time>2017-09-30T13:06:49Z</time>
      </trkpt>
      <trkpt lat="41.179017" lon="-3.586350">
        <ele>2204.0</ele>
        <time>2017-09-30T13:06:50Z</time>
      </trkpt>
      <trkpt lat="41.179100" lon="-3.586217">
        <ele>2203.0</ele>
        <time>2017-09-30T13:06:51Z</time>
      </trkpt>
      <trkpt lat="41.179183" lon="-3.586100">
        <ele>2201.0</ele>
        <time>2017-09-30T13:06:52Z</time>
      </trkpt>
      <trkpt lat="41.179267" lon="-3.586000">
        <ele>2200.0</ele>
        <time>2017-09-30T13:06:53Z</time>
      </trkpt>
      <trkpt lat="41.179367" lon="-3.585900">
        <ele>2199.0</ele>
        <time>2017-09-30T13:06:54Z</time>
      </trkpt>
      <trkpt lat="41.179433" lon="-3.585783">
        <ele>2197.0</ele>
        <time>2017-09-30T13:06:55Z</time>
      </trkpt>
      <trkpt lat="41.179517" lon="-3.585667">
        <ele>2195.0</ele>
        <time>2017-09-30T13:06:56Z</time>
      </trkpt>
      <trkpt lat="41.179583" lon="-3.585550">
        <ele>2192.0</ele>
        <time>2017-09-30T13:06:57Z</time>
      </trkpt>
      <trkpt lat="41.179650" lon="-3.585450">
        <ele>2188.0</ele>
        <time>2017-09-30T13:06:58Z</time>
      </trkpt>
      <trkpt lat="41.179733" lon="-3.585317">
        <ele>2185.0</ele>
        <time>2017-09-30T13:06:59Z</time>
      </trkpt>
      <trkpt lat="41.179800" lon="-3.585200">
        <ele>2182.0</ele>
        <time>2017-09-30T13:07:00Z</time>
      </trkpt>
      <trkpt lat="41.179883" lon="-3.585067">
        <ele>2179.0</ele>
        <time>2017-09-30T13:07:01Z</time>
      </trkpt>
      <trkpt lat="41.179967" lon="-3.584967">
        <ele>2177.0</ele>
        <time>2017-09-30T13:07:02Z</time>
      </trkpt>
      <trkpt lat="41.180033" lon="-3.584850">
        <ele>2175.0</ele>
        <time>2017-09-30T13:07:03Z</time>
      </trkpt>
      <trkpt lat="41.180117" lon="-3.584750">
        <ele>2172.0</ele>
        <time>2017-09-30T13:07:04Z</time>
      </trkpt>
      <trkpt lat="41.180200" lon="-3.584650">
        <ele>2169.0</ele>
        <time>2017-09-30T13:07:05Z</time>
      </trkpt>
      <trkpt lat="41.180283" lon="-3.584533">
        <ele>2166.0</ele>
        <time>2017-09-30T13:07:06Z</time>
      </trkpt>
      <trkpt lat="41.180367" lon="-3.584417">
        <ele>2163.0</ele>
        <time>2017-09-30T13:07:07Z</time>
      </trkpt>
      <trkpt lat="41.180467" lon="-3.584317">
        <ele>2161.0</ele>
        <time>2017-09-30T13:07:08Z</time>
      </trkpt>
      <trkpt lat="41.180550" lon="-3.584200">
        <ele>2159.0</ele>
        <time>2017-09-30T13:07:09Z</time>
      </trkpt>
      <trkpt lat="41.180617" lon="-3.584083">
        <ele>2157.0</ele>
        <time>2017-09-30T13:07:10Z</time>
      </trkpt>
      <trkpt lat="41.180683" lon="-3.583983">
        <ele>2154.0</ele>
        <time>2017-09-30T13:07:11Z</time>
      </trkpt>
      <trkpt lat="41.180733" lon="-3.583850">
        <ele>2150.0</ele>
        <time>2017-09-30T13:07:12Z</time>
      </trkpt>
      <trkpt lat="41.180817" lon="-3.583717">
        <ele>2146.0</ele>
        <time>2017-09-30T13:07:13Z</time>
      </trkpt>
      <trkpt lat="41.180917" lon="-3.583583">
        <ele>2142.0</ele>
        <time>2017-09-30T13:07:14Z</time>
      </trkpt>
      <trkpt lat="41.181017" lon="-3.583467">
        <ele>2142.0</ele>
        <time>2017-09-30T13:07:15Z</time>
      </trkpt>
      <trkpt lat="41.181083" lon="-3.583367">
        <ele>2142.0</ele>
        <time>2017-09-30T13:07:16Z</time>
      </trkpt>
      <trkpt lat="41.181133" lon="-3.583267">
        <ele>2140.0</ele>
        <time>2017-09-30T13:07:17Z</time>
      </trkpt>
      <trkpt lat="41.181200" lon="-3.583167">
        <ele>2138.0</ele>
        <time>2017-09-30T13:07:18Z</time>
      </trkpt>
      <trkpt lat="41.181267" lon="-3.583050">
        <ele>2133.0</ele>
        <time>2017-09-30T13:07:19Z</time>
      </trkpt>
      <trkpt lat="41.181350" lon="-3.582917">
        <ele>2129.0</ele>
        <time>2017-09-30T13:07:20Z</time>
      </trkpt>
      <trkpt lat="41.181417" lon="-3.582767">
        <ele>2127.0</ele>
        <time>2017-09-30T13:07:21Z</time>
      </trkpt>
      <trkpt lat="41.181483" lon="-3.582617">
        <ele>2126.0</ele>
        <time>2017-09-30T13:07:22Z</time>
      </trkpt>
      <trkpt lat="41.181550" lon="-3.582483">
        <ele>2125.0</ele>
        <time>2017-09-30T13:07:23Z</time>
      </trkpt>
      <trkpt lat="41.181600" lon="-3.582350">
        <ele>2123.0</ele>
        <time>2017-09-30T13:07:24Z</time>
      </trkpt>
      <trkpt lat="41.181650" lon="-3.582217">
        <ele>2121.0</ele>
        <time>2017-09-30T13:07:25Z</time>
      </trkpt>
      <trkpt lat="41.181733" lon="-3.582083">
        <ele>2117.0</ele>
        <time>2017-09-30T13:07:26Z</time>
      </trkpt>
      <trkpt lat="41.181800" lon="-3.581967">
        <ele>2114.0</ele>
        <time>2017-09-30T13:07:27Z</time>
      </trkpt>
      <trkpt lat="41.181867" lon="-3.581850">
        <ele>2112.0</ele>
        <time>2017-09-30T13:07:28Z</time>
      </trkpt>
      <trkpt lat="41.181950" lon="-3.581733">
        <ele>2110.0</ele>
        <time>2017-09-30T13:07:29Z</time>
      </trkpt>
      <trkpt lat="41.182033" lon="-3.581600">
        <ele>2107.0</ele>
        <time>2017-09-30T13:07:30Z</time>
      </trkpt>
      <trkpt lat="41.182100" lon="-3.581483">
        <ele>2105.0</ele>
        <time>2017-09-30T13:07:31Z</time>
      </trkpt>
      <trkpt lat="41.182183" lon="-3.581367">
        <ele>2103.0</ele>
        <time>2017-09-30T13:07:32Z</time>
      </trkpt>
      <trkpt lat="41.182250" lon="-3.581233">
        <ele>2100.0</ele>
        <time>2017-09-30T13:07:33Z</time>
      </trkpt>
      <trkpt lat="41.182333" lon="-3.581083">
        <ele>2098.0</ele>
        <time>2017-09-30T13:07:34Z</time>
      </trkpt>
      <trkpt lat="41.182400" lon="-3.580933">
        <ele>2096.0</ele>
        <time>2017-09-30T13:07:35Z</time>
      </trkpt>
      <trkpt lat="41.182467" lon="-3.580783">
        <ele>2095.0</ele>
        <time>2017-09-30T13:07:36Z</time>
      </trkpt>
      <trkpt lat="41.182533" lon="-3.580633">
        <ele>2094.0</ele>
        <time>2017-09-30T13:07:37Z</time>
      </trkpt>
      <trkpt lat="41.182600" lon="-3.580483">
        <ele>2093.0</ele>
        <time>2017-09-30T13:07:38Z</time>
      </trkpt>
      <trkpt lat="41.182667" lon="-3.580350">
        <ele>2092.0</ele>
        <time>2017-09-30T13:07:39Z</time>
      </trkpt>
      <trkpt lat="41.182717" lon="-3.580217">
        <ele>2089.0</ele>
        <time>2017-09-30T13:07:40Z</time>
      </trkpt>
      <trkpt lat="41.182783" lon="-3.580083">
        <ele>2087.0</ele>
        <time>2017-09-30T13:07:41Z</time>
      </trkpt>
      <trkpt lat="41.182833" lon="-3.579933">
        <ele>2084.0</ele>
        <time>2017-09-30T13:07:42Z</time>
      </trkpt>
      <trkpt lat="41.182883" lon="-3.579767">
        <ele>2082.0</ele>
        <time>2017-09-30T13:07:43Z</time>
      </trkpt>
      <trkpt lat="41.182950" lon="-3.579617">
        <ele>2081.0</ele>
        <time>2017-09-30T13:07:44Z</time>
      </trkpt>
      <trkpt lat="41.183017" lon="-3.579483">
        <ele>2080.0</ele>
        <time>2017-09-30T13:07:45Z</time>
      </trkpt>
      <trkpt lat="41.183083" lon="-3.579350">
        <ele>2079.0</ele>
        <time>2017-09-30T13:07:46Z</time>
      </trkpt>
      <trkpt lat="41.183167" lon="-3.579217">
        <ele>2077.0</ele>
        <time>2017-09-30T13:07:47Z</time>
      </trkpt>
      <trkpt lat="41.183233" lon="-3.579067">
        <ele>2075.0</ele>
        <time>2017-09-30T13:07:48Z</time>
      </trkpt>
      <trkpt lat="41.183300" lon="-3.578933">
        <ele>2073.0</ele>
        <time>2017-09-30T13:07:49Z</time>
      </trkpt>
      <trkpt lat="41.183383" lon="-3.578783">
        <ele>2071.0</ele>
        <time>2017-09-30T13:07:50Z</time>
      </trkpt>
      <trkpt lat="41.183467" lon="-3.578650">
        <ele>2069.0</ele>
        <time>2017-09-30T13:07:51Z</time>
      </trkpt>
      <trkpt lat="41.183550" lon="-3.578517">
        <ele>2067.0</ele>
        <time>2017-09-30T13:07:52Z</time>
      </trkpt>
      <trkpt lat="41.183617" lon="-3.578383">
        <ele>2066.0</ele>
        <time>2017-09-30T13:07:53Z</time>
      </trkpt>
      <trkpt lat="41.183700" lon="-3.578267">
        <ele>2064.0</ele>
        <time>2017-09-30T13:07:54Z</time>
      </trkpt>
      <trkpt lat="41.183783" lon="-3.578150">
        <ele>2062.0</ele>
        <time>2017-09-30T13:07:55Z</time>
      </trkpt>
      <trkpt lat="41.183883" lon="-3.578033">
        <ele>2060.0</ele>
        <time>2017-09-30T13:07:56Z</time>
      </trkpt>
      <trkpt lat="41.183967" lon="-3.577900">
        <ele>2057.0</ele>
        <time>2017-09-30T13:07:57Z</time>
      </trkpt>
      <trkpt lat="41.184067" lon="-3.577767">
        <ele>2054.0</ele>
        <time>2017-09-30T13:07:58Z</time>
      </trkpt>
      <trkpt lat="41.184150" lon="-3.577633">
        <ele>2052.0</ele>
        <time>2017-09-30T13:07:59Z</time>
      </trkpt>
      <trkpt lat="41.184233" lon="-3.577483">
        <ele>2051.0</ele>
        <time>2017-09-30T13:08:00Z</time>
      </trkpt>
      <trkpt lat="41.184317" lon="-3.577350">
        <ele>2050.0</ele>
        <time>2017-09-30T13:08:01Z</time>
      </trkpt>
      <trkpt lat="41.184400" lon="-3.577217">
        <ele>2050.0</ele>
        <time>2017-09-30T13:08:02Z</time>
      </trkpt>
      <trkpt lat="41.184467" lon="-3.577083">
        <ele>2050.0</ele>
        <time>2017-09-30T13:08:03Z</time>
      </trkpt>
      <trkpt lat="41.184517" lon="-3.576950">
        <ele>2049.0</ele>
        <time>2017-09-30T13:08:04Z</time>
      </trkpt>
      <trkpt lat="41.184567" lon="-3.576817">
        <ele>2048.0</ele>
        <time>2017-09-30T13:08:05Z</time>
      </trkpt>
      <trkpt lat="41.184617" lon="-3.576667">
        <ele>2046.0</ele>
        <time>2017-09-30T13:08:06Z</time>
      </trkpt>
      <trkpt lat="41.184650" lon="-3.576533">
        <ele>2043.0</ele>
        <time>2017-09-30T13:08:07Z</time>
      </trkpt>
      <trkpt lat="41.184700" lon="-3.576383">
        <ele>2040.0</ele>
        <time>2017-09-30T13:08:08Z</time>
      </trkpt>
      <trkpt lat="41.184750" lon="-3.576233">
        <ele>2038.0</ele>
        <time>2017-09-30T13:08:09Z</time>
      </trkpt>
      <trkpt lat="41.184800" lon="-3.576083">
        <ele>2036.0</ele>
        <time>2017-09-30T13:08:10Z</time>
      </trkpt>
      <trkpt lat="41.184833" lon="-3.575933">
        <ele>2034.0</ele>
        <time>2017-09-30T13:08:11Z</time>
      </trkpt>
      <trkpt lat="41.184883" lon="-3.575800">
        <ele>2032.0</ele>
        <time>2017-09-30T13:08:12Z</time>
      </trkpt>
      <trkpt lat="41.184917" lon="-3.575650">
        <ele>2030.0</ele>
        <time>2017-09-30T13:08:13Z</time>
      </trkpt>
      <trkpt lat="41.184967" lon="-3.575500">
        <ele>2027.0</ele>
        <time>2017-09-30T13:08:14Z</time>
      </trkpt>
      <trkpt lat="41.185000" lon="-3.575350">
        <ele>2024.0</ele>
        <time>2017-09-30T13:08:15Z</time>
      </trkpt>
      <trkpt lat="41.185033" lon="-3.575183">
        <ele>2022.0</ele>
        <time>2017-09-30T13:08:16Z</time>
      </trkpt>
      <trkpt lat="41.185067" lon="-3.575017">
        <ele>2020.0</ele>
        <time>2017-09-30T13:08:17Z</time>
      </trkpt>
      <trkpt lat="41.185100" lon="-3.574850">
        <ele>2018.0</ele>
        <time>2017-09-30T13:08:18Z</time>
      </trkpt>
      <trkpt lat="41.185133" lon="-3.574700">
        <ele>2016.0</ele>
        <time>2017-09-30T13:08:19Z</time>
      </trkpt>
      <trkpt lat="41.185167" lon="-3.574550">
        <ele>2013.0</ele>
        <time>2017-09-30T13:08:20Z</time>
      </trkpt>
      <trkpt lat="41.185200" lon="-3.574400">
        <ele>2010.0</ele>
        <time>2017-09-30T13:08:21Z</time>
      </trkpt>
      <trkpt lat="41.185233" lon="-3.574233">
        <ele>2007.0</ele>
        <time>2017-09-30T13:08:22Z</time>
      </trkpt>
      <trkpt lat="41.185283" lon="-3.574067">
        <ele>2005.0</ele>
        <time>2017-09-30T13:08:23Z</time>
      </trkpt>
      <trkpt lat="41.185317" lon="-3.573900">
        <ele>2004.0</ele>
        <time>2017-09-30T13:08:24Z</time>
      </trkpt>
      <trkpt lat="41.185350" lon="-3.573733">
        <ele>2003.0</ele>
        <time>2017-09-30T13:08:25Z</time>
      </trkpt>
      <trkpt lat="41.185367" lon="-3.573567">
        <ele>2003.0</ele>
        <time>2017-09-30T13:08:26Z</time>
      </trkpt>
      <trkpt lat="41.185383" lon="-3.573417">
        <ele>2002.0</ele>
        <time>2017-09-30T13:08:27Z</time>
      </trkpt>
      <trkpt lat="41.185383" lon="-3.573250">
        <ele>2001.0</ele>
        <time>2017-09-30T13:08:28Z</time>
      </trkpt>
      <trkpt lat="41.185367" lon="-3.573100">
        <ele>2000.0</ele>
        <time>2017-09-30T13:08:29Z</time>
      </trkpt>
      <trkpt lat="41.185333" lon="-3.572933">
        <ele>2001.0</ele>
        <time>2017-09-30T13:08:30Z</time>
      </trkpt>
      <trkpt lat="41.185300" lon="-3.572800">
        <ele>2001.0</ele>
        <time>2017-09-30T13:08:31Z</time>
      </trkpt>
      <trkpt lat="41.185283" lon="-3.572667">
        <ele>2002.0</ele>
        <time>2017-09-30T13:08:32Z</time>
      </trkpt>
      <trkpt lat="41.185233" lon="-3.572533">
        <ele>2002.0</ele>
        <time>2017-09-30T13:08:33Z</time>
      </trkpt>
      <trkpt lat="41.185183" lon="-3.572417">
        <ele>2001.0</ele>
        <time>2017-09-30T13:08:34Z</time>
      </trkpt>
      <trkpt lat="41.185117" lon="-3.572300">
        <ele>2001.0</ele>
        <time>2017-09-30T13:08:35Z</time>
      </trkpt>
      <trkpt lat="41.185050" lon="-3.572183">
        <ele>2001.0</ele>
        <time>2017-09-30T13:08:36Z</time>
      </trkpt>
      <trkpt lat="41.184983" lon="-3.572100">
        <ele>2002.0</ele>
        <time>2017-09-30T13:08:37Z</time>
      </trkpt>
      <trkpt lat="41.184900" lon="-3.572033">
        <ele>2001.0</ele>
        <time>2017-09-30T13:08:38Z</time>
      </trkpt>
      <trkpt lat="41.184817" lon="-3.571983">
        <ele>2001.0</ele>
        <time>2017-09-30T13:08:39Z</time>
      </trkpt>
      <trkpt lat="41.184750" lon="-3.571967">
        <ele>2000.0</ele>
        <time>2017-09-30T13:08:40Z</time>
      </trkpt>
      <trkpt lat="41.184667" lon="-3.571967">
        <ele>2000.0</ele>
        <time>2017-09-30T13:08:41Z</time>
      </trkpt>
      <trkpt lat="41.184600" lon="-3.572000">
        <ele>1999.0</ele>
        <time>2017-09-30T13:08:42Z</time>
      </trkpt>
      <trkpt lat="41.184550" lon="-3.572033">
        <ele>1999.0</ele>
        <time>2017-09-30T13:08:43Z</time>
      </trkpt>
      <trkpt lat="41.184533" lon="-3.572100">
        <ele>1998.0</ele>
        <time>2017-09-30T13:08:44Z</time>
      </trkpt>
      <trkpt lat="41.184517" lon="-3.572167">
        <ele>1997.0</ele>
        <time>2017-09-30T13:08:45Z</time>
      </trkpt>
      <trkpt lat="41.184550" lon="-3.572233">
        <ele>1997.0</ele>
        <time>2017-09-30T13:08:46Z</time>
      </trkpt>
      <trkpt lat="41.184583" lon="-3.572283">
        <ele>1996.0</ele>
        <time>2017-09-30T13:08:47Z</time>
      </trkpt>
      <trkpt lat="41.184633" lon="-3.572333">
        <ele>1996.0</ele>
        <time>2017-09-30T13:08:48Z</time>
      </trkpt>
      <trkpt lat="41.184700" lon="-3.572367">
        <ele>1994.0</ele>
        <time>2017-09-30T13:08:49Z</time>
      </trkpt>
      <trkpt lat="41.184767" lon="-3.572400">
        <ele>1994.0</ele>
        <time>2017-09-30T13:08:50Z</time>
      </trkpt>
      <trkpt lat="41.184850" lon="-3.572417">
        <ele>1993.0</ele>
        <time>2017-09-30T13:08:51Z</time>
      </trkpt>
      <trkpt lat="41.184950" lon="-3.572400">
        <ele>1992.0</ele>
        <time>2017-09-30T13:08:52Z</time>
      </trkpt>
      <trkpt lat="41.185033" lon="-3.572350">
        <ele>1992.0</ele>
        <time>2017-09-30T13:08:53Z</time>
      </trkpt>
      <trkpt lat="41.185133" lon="-3.572300">
        <ele>1992.0</ele>
        <time>2017-09-30T13:08:54Z</time>
      </trkpt>
      <trkpt lat="41.185233" lon="-3.572250">
        <ele>1992.0</ele>
        <time>2017-09-30T13:08:55Z</time>
      </trkpt>
      <trkpt lat="41.185333" lon="-3.572200">
        <ele>1992.0</ele>
        <time>2017-09-30T13:08:56Z</time>
      </trkpt>
      <trkpt lat="41.185433" lon="-3.572150">
        <ele>1993.0</ele>
        <time>2017-09-30T13:08:57Z</time>
      </trkpt>
      <trkpt lat="41.185533" lon="-3.572067">
        <ele>1994.0</ele>
        <time>2017-09-30T13:08:58Z</time>
      </trkpt>
      <trkpt lat="41.185617" lon="-3.571983">
        <ele>1994.0</ele>
        <time>2017-09-30T13:08:59Z</time>
      </trkpt>
      <trkpt lat="41.185717" lon="-3.571883">
        <ele>1994.0</ele>
        <time>2017-09-30T13:09:00Z</time>
      </trkpt>
      <trkpt lat="41.185783" lon="-3.571783">
        <ele>1994.0</ele>
        <time>2017-09-30T13:09:01Z</time>
      </trkpt>
      <trkpt lat="41.185850" lon="-3.571667">
        <ele>1994.0</ele>
        <time>2017-09-30T13:09:02Z</time>
      </trkpt>
      <trkpt lat="41.185900" lon="-3.571533">
        <ele>1993.0</ele>
        <time>2017-09-30T13:09:03Z</time>
      </trkpt>
      <trkpt lat="41.185950" lon="-3.571367">
        <ele>1992.0</ele>
        <time>2017-09-30T13:09:04Z</time>
      </trkpt>
      <trkpt lat="41.185983" lon="-3.571200">
        <ele>1991.0</ele>
        <time>2017-09-30T13:09:05Z</time>
      </trkpt>
      <trkpt lat="41.185983" lon="-3.571033">
        <ele>1991.0</ele>
        <time>2017-09-30T13:09:06Z</time>
      </trkpt>
      <trkpt lat="41.185967" lon="-3.570883">
        <ele>1990.0</ele>
        <time>2017-09-30T13:09:07Z</time>
      </trkpt>
      <trkpt lat="41.185917" lon="-3.570750">
        <ele>1989.0</ele>
        <time>2017-09-30T13:09:08Z</time>
      </trkpt>
      <trkpt lat="41.185867" lon="-3.570633">
        <ele>1987.0</ele>
        <time>2017-09-30T13:09:09Z</time>
      </trkpt>
      <trkpt lat="41.185817" lon="-3.570517">
        <ele>1986.0</ele>
        <time>2017-09-30T13:09:10Z</time>
      </trkpt>
      <trkpt lat="41.185750" lon="-3.570417">
        <ele>1985.0</ele>
        <time>2017-09-30T13:09:11Z</time>
      </trkpt>
      <trkpt lat="41.185667" lon="-3.570350">
        <ele>1983.0</ele>
        <time>2017-09-30T13:09:12Z</time>
      </trkpt>
      <trkpt lat="41.185583" lon="-3.570283">
        <ele>1981.0</ele>
        <time>2017-09-30T13:09:13Z</time>
      </trkpt>
      <trkpt lat="41.185500" lon="-3.570233">
        <ele>1979.0</ele>
        <time>2017-09-30T13:09:14Z</time>
      </trkpt>
      <trkpt lat="41.185417" lon="-3.570217">
        <ele>1978.0</ele>
        <time>2017-09-30T13:09:15Z</time>
      </trkpt>
      <trkpt lat="41.185333" lon="-3.570250">
        <ele>1976.0</ele>
        <time>2017-09-30T13:09:16Z</time>
      </trkpt>
      <trkpt lat="41.185283" lon="-3.570333">
        <ele>1974.0</ele>
        <time>2017-09-30T13:09:17Z</time>
      </trkpt>
      <trkpt lat="41.185233" lon="-3.570400">
        <ele>1973.0</ele>
        <time>2017-09-30T13:09:18Z</time>
      </trkpt>
      <trkpt lat="41.185183" lon="-3.570483">
        <ele>1975.0</ele>
        <time>2017-09-30T13:09:19Z</time>
      </trkpt>
      <trkpt lat="41.185167" lon="-3.570533">
        <ele>1977.0</ele>
        <time>2017-09-30T13:09:20Z</time>
      </trkpt>
      <trkpt lat="41.185167" lon="-3.570600">
        <ele>1978.0</ele>
        <time>2017-09-30T13:09:21Z</time>
      </trkpt>
      <trkpt lat="41.185183" lon="-3.570650">
        <ele>1977.0</ele>
        <time>2017-09-30T13:09:22Z</time>
      </trkpt>
      <trkpt lat="41.185217" lon="-3.570733">
        <ele>1976.0</ele>
        <time>2017-09-30T13:09:23Z</time>
      </trkpt>
      <trkpt lat="41.185267" lon="-3.570817">
        <ele>1976.0</ele>
        <time>2017-09-30T13:09:24Z</time>
      </trkpt>
      <trkpt lat="41.185317" lon="-3.570900">
        <ele>1977.0</ele>
        <time>2017-09-30T13:09:25Z</time>
      </trkpt>
      <trkpt lat="41.185383" lon="-3.570950">
        <ele>1978.0</ele>
        <time>2017-09-30T13:09:26Z</time>
      </trkpt>
      <trkpt lat="41.185450" lon="-3.570967">
        <ele>1979.0</ele>
        <time>2017-09-30T13:09:27Z</time>
      </trkpt>
      <trkpt lat="41.185533" lon="-3.570967">
        <ele>1981.0</ele>
        <time>2017-09-30T13:09:28Z</time>
      </trkpt>
      <trkpt lat="41.185600" lon="-3.570950">
        <ele>1981.0</ele>
        <time>2017-09-30T13:09:29Z</time>
      </trkpt>
      <trkpt lat="41.185683" lon="-3.570933">
        <ele>1982.0</ele>
        <time>2017-09-30T13:09:30Z</time>
      </trkpt>
      <trkpt lat="41.185767" lon="-3.570900">
        <ele>1981.0</ele>
        <time>2017-09-30T13:09:31Z</time>
      </trkpt>
      <trkpt lat="41.185867" lon="-3.570850">
        <ele>1981.0</ele>
        <time>2017-09-30T13:09:32Z</time>
      </trkpt>
      <trkpt lat="41.185967" lon="-3.570767">
        <ele>1981.0</ele>
        <time>2017-09-30T13:09:33Z</time>
      </trkpt>
      <trkpt lat="41.186067" lon="-3.570667">
        <ele>1981.0</ele>
        <time>2017-09-30T13:09:34Z</time>
      </trkpt>
      <trkpt lat="41.186133" lon="-3.570533">
        <ele>1982.0</ele>
        <time>2017-09-30T13:09:35Z</time>
      </trkpt>
      <trkpt lat="41.186167" lon="-3.570400">
        <ele>1982.0</ele>
        <time>2017-09-30T13:09:36Z</time>
      </trkpt>
      <trkpt lat="41.186200" lon="-3.570233">
        <ele>1982.0</ele>
        <time>2017-09-30T13:09:37Z</time>
      </trkpt>
      <trkpt lat="41.186233" lon="-3.570083">
        <ele>1980.0</ele>
        <time>2017-09-30T13:09:38Z</time>
      </trkpt>
      <trkpt lat="41.186250" lon="-3.569933">
        <ele>1980.0</ele>
        <time>2017-09-30T13:09:39Z</time>
      </trkpt>
      <trkpt lat="41.186250" lon="-3.569767">
        <ele>1980.0</ele>
        <time>2017-09-30T13:09:40Z</time>
      </trkpt>
      <trkpt lat="41.186250" lon="-3.569633">
        <ele>1980.0</ele>
        <time>2017-09-30T13:09:41Z</time>
      </trkpt>
      <trkpt lat="41.186217" lon="-3.569517">
        <ele>1980.0</ele>
        <time>2017-09-30T13:09:42Z</time>
      </trkpt>
      <trkpt lat="41.186167" lon="-3.569400">
        <ele>1979.0</ele>
        <time>2017-09-30T13:09:43Z</time>
      </trkpt>
      <trkpt lat="41.186117" lon="-3.569300">
        <ele>1977.0</ele>
        <time>2017-09-30T13:09:44Z</time>
      </trkpt>
      <trkpt lat="41.186033" lon="-3.569217">
        <ele>1976.0</ele>
        <time>2017-09-30T13:09:45Z</time>
      </trkpt>
      <trkpt lat="41.185967" lon="-3.569150">
        <ele>1975.0</ele>
        <time>2017-09-30T13:09:46Z</time>
      </trkpt>
      <trkpt lat="41.185883" lon="-3.569100">
        <ele>1975.0</ele>
        <time>2017-09-30T13:09:47Z</time>
      </trkpt>
      <trkpt lat="41.185800" lon="-3.569083">
        <ele>1974.0</ele>
        <time>2017-09-30T13:09:48Z</time>
      </trkpt>
      <trkpt lat="41.185733" lon="-3.569083">
        <ele>1973.0</ele>
        <time>2017-09-30T13:09:49Z</time>
      </trkpt>
      <trkpt lat="41.185650" lon="-3.569100">
        <ele>1971.0</ele>
        <time>2017-09-30T13:09:50Z</time>
      </trkpt>
      <trkpt lat="41.185583" lon="-3.569133">
        <ele>1970.0</ele>
        <time>2017-09-30T13:09:51Z</time>
      </trkpt>
      <trkpt lat="41.185533" lon="-3.569200">
        <ele>1970.0</ele>
        <time>2017-09-30T13:09:52Z</time>
      </trkpt>
      <trkpt lat="41.185500" lon="-3.569267">
        <ele>1970.0</ele>
        <time>2017-09-30T13:09:53Z</time>
      </trkpt>
      <trkpt lat="41.185483" lon="-3.569350">
        <ele>1969.0</ele>
        <time>2017-09-30T13:09:54Z</time>
      </trkpt>
      <trkpt lat="41.185517" lon="-3.569433">
        <ele>1969.0</ele>
        <time>2017-09-30T13:09:55Z</time>
      </trkpt>
      <trkpt lat="41.185550" lon="-3.569517">
        <ele>1970.0</ele>
        <time>2017-09-30T13:09:56Z</time>
      </trkpt>
      <trkpt lat="41.185617" lon="-3.569567">
        <ele>1972.0</ele>
        <time>2017-09-30T13:09:57Z</time>
      </trkpt>
      <trkpt lat="41.185667" lon="-3.569600">
        <ele>1973.0</ele>
        <time>2017-09-30T13:09:58Z</time>
      </trkpt>
      <trkpt lat="41.185750" lon="-3.569617">
        <ele>1973.0</ele>
        <time>2017-09-30T13:09:59Z</time>
      </trkpt>
      <trkpt lat="41.185850" lon="-3.569617">
        <ele>1973.0</ele>
        <time>2017-09-30T13:10:00Z</time>
      </trkpt>
      <trkpt lat="41.185950" lon="-3.569617">
        <ele>1974.0</ele>
        <time>2017-09-30T13:10:01Z</time>
      </trkpt>
      <trkpt lat="41.186033" lon="-3.569567">
        <ele>1976.0</ele>
        <time>2017-09-30T13:10:02Z</time>
      </trkpt>
      <trkpt lat="41.186083" lon="-3.569500">
        <ele>1976.0</ele>
        <time>2017-09-30T13:10:03Z</time>
      </trkpt>
      <trkpt lat="41.186150" lon="-3.569400">
        <ele>1976.0</ele>
        <time>2017-09-30T13:10:04Z</time>
      </trkpt>
      <trkpt lat="41.186200" lon="-3.569283">
        <ele>1974.0</ele>
        <time>2017-09-30T13:10:05Z</time>
      </trkpt>
      <trkpt lat="41.186283" lon="-3.569167">
        <ele>1973.0</ele>
        <time>2017-09-30T13:10:06Z</time>
      </trkpt>
      <trkpt lat="41.186350" lon="-3.569033">
        <ele>1973.0</ele>
        <time>2017-09-30T13:10:07Z</time>
      </trkpt>
      <trkpt lat="41.186383" lon="-3.568900">
        <ele>1974.0</ele>
        <time>2017-09-30T13:10:08Z</time>
      </trkpt>
      <trkpt lat="41.186400" lon="-3.568750">
        <ele>1974.0</ele>
        <time>2017-09-30T13:10:09Z</time>
      </trkpt>
      <trkpt lat="41.186400" lon="-3.568617">
        <ele>1973.0</ele>
        <time>2017-09-30T13:10:10Z</time>
      </trkpt>
      <trkpt lat="41.186367" lon="-3.568500">
        <ele>1972.0</ele>
        <time>2017-09-30T13:10:11Z</time>
      </trkpt>
      <trkpt lat="41.186333" lon="-3.568367">
        <ele>1971.0</ele>
        <time>2017-09-30T13:10:12Z</time>
      </trkpt>
      <trkpt lat="41.186300" lon="-3.568267">
        <ele>1971.0</ele>
        <time>2017-09-30T13:10:13Z</time>
      </trkpt>
      <trkpt lat="41.186250" lon="-3.568167">
        <ele>1970.0</ele>
        <time>2017-09-30T13:10:14Z</time>
      </trkpt>
      <trkpt lat="41.186183" lon="-3.568100">
        <ele>1969.0</ele>
        <time>2017-09-30T13:10:15Z</time>
      </trkpt>
      <trkpt lat="41.186100" lon="-3.568050">
        <ele>1968.0</ele>
        <time>2017-09-30T13:10:16Z</time>
      </trkpt>
      <trkpt lat="41.186017" lon="-3.568033">
        <ele>1968.0</ele>
        <time>2017-09-30T13:10:17Z</time>
      </trkpt>
      <trkpt lat="41.185933" lon="-3.568017">
        <ele>1968.0</ele>
        <time>2017-09-30T13:10:18Z</time>
      </trkpt>
      <trkpt lat="41.185867" lon="-3.568033">
        <ele>1968.0</ele>
        <time>2017-09-30T13:10:19Z</time>
      </trkpt>
      <trkpt lat="41.185800" lon="-3.568067">
        <ele>1967.0</ele>
        <time>2017-09-30T13:10:20Z</time>
      </trkpt>
      <trkpt lat="41.185750" lon="-3.568117">
        <ele>1966.0</ele>
        <time>2017-09-30T13:10:21Z</time>
      </trkpt>
      <trkpt lat="41.185700" lon="-3.568183">
        <ele>1964.0</ele>
        <time>2017-09-30T13:10:22Z</time>
      </trkpt>
      <trkpt lat="41.185683" lon="-3.568267">
        <ele>1963.0</ele>
        <time>2017-09-30T13:10:23Z</time>
      </trkpt>
      <trkpt lat="41.185650" lon="-3.568350">
        <ele>1963.0</ele>
        <time>2017-09-30T13:10:24Z</time>
      </trkpt>
      <trkpt lat="41.185650" lon="-3.568417">
        <ele>1963.0</ele>
        <time>2017-09-30T13:10:25Z</time>
      </trkpt>
      <trkpt lat="41.185667" lon="-3.568500">
        <ele>1963.0</ele>
        <time>2017-09-30T13:10:26Z</time>
      </trkpt>
      <trkpt lat="41.185717" lon="-3.568583">
        <ele>1962.0</ele>
        <time>2017-09-30T13:10:27Z</time>
      </trkpt>
      <trkpt lat="41.185783" lon="-3.568633">
        <ele>1963.0</ele>
        <time>2017-09-30T13:10:28Z</time>
      </trkpt>
      <trkpt lat="41.185850" lon="-3.568667">
        <ele>1965.0</ele>
        <time>2017-09-30T13:10:29Z</time>
      </trkpt>
      <trkpt lat="41.185933" lon="-3.568683">
        <ele>1965.0</ele>
        <time>2017-09-30T13:10:30Z</time>
      </trkpt>
      <trkpt lat="41.186000" lon="-3.568683">
        <ele>1966.0</ele>
        <time>2017-09-30T13:10:31Z</time>
      </trkpt>
      <trkpt lat="41.186083" lon="-3.568683">
        <ele>1966.0</ele>
        <time>2017-09-30T13:10:32Z</time>
      </trkpt>
      <trkpt lat="41.186150" lon="-3.568683">
        <ele>1966.0</ele>
        <time>2017-09-30T13:10:33Z</time>
      </trkpt>
      <trkpt lat="41.186233" lon="-3.568700">
        <ele>1965.0</ele>
        <time>2017-09-30T13:10:34Z</time>
      </trkpt>
      <trkpt lat="41.186333" lon="-3.568683">
        <ele>1964.0</ele>
        <time>2017-09-30T13:10:35Z</time>
      </trkpt>
      <trkpt lat="41.186433" lon="-3.568617">
        <ele>1963.0</ele>
        <time>2017-09-30T13:10:36Z</time>
      </trkpt>
      <trkpt lat="41.186517" lon="-3.568533">
        <ele>1962.0</ele>
        <time>2017-09-30T13:10:37Z</time>
      </trkpt>
      <trkpt lat="41.186617" lon="-3.568450">
        <ele>1961.0</ele>
        <time>2017-09-30T13:10:38Z</time>
      </trkpt>
      <trkpt lat="41.186700" lon="-3.568350">
        <ele>1961.0</ele>
        <time>2017-09-30T13:10:39Z</time>
      </trkpt>
      <trkpt lat="41.186783" lon="-3.568267">
        <ele>1960.0</ele>
        <time>2017-09-30T13:10:40Z</time>
      </trkpt>
      <trkpt lat="41.186850" lon="-3.568150">
        <ele>1958.0</ele>
        <time>2017-09-30T13:10:41Z</time>
      </trkpt>
      <trkpt lat="41.186933" lon="-3.568050">
        <ele>1957.0</ele>
        <time>2017-09-30T13:10:42Z</time>
      </trkpt>
      <trkpt lat="41.187017" lon="-3.567933">
        <ele>1956.0</ele>
        <time>2017-09-30T13:10:43Z</time>
      </trkpt>
      <trkpt lat="41.187100" lon="-3.567817">
        <ele>1955.0</ele>
        <time>2017-09-30T13:10:44Z</time>
      </trkpt>
      <trkpt lat="41.187183" lon="-3.567717">
        <ele>1954.0</ele>
        <time>2017-09-30T13:10:45Z</time>
      </trkpt>
      <trkpt lat="41.187267" lon="-3.567600">
        <ele>1954.0</ele>
        <time>2017-09-30T13:10:46Z</time>
      </trkpt>
      <trkpt lat="41.187350" lon="-3.567483">
        <ele>1954.0</ele>
        <time>2017-09-30T13:10:47Z</time>
      </trkpt>
      <trkpt lat="41.187417" lon="-3.567350">
        <ele>1954.0</ele>
        <time>2017-09-30T13:10:48Z</time>
      </trkpt>
      <trkpt lat="41.187500" lon="-3.567250">
        <ele>1954.0</ele>
        <time>2017-09-30T13:10:49Z</time>
      </trkpt>
      <trkpt lat="41.187583" lon="-3.567133">
        <ele>1953.0</ele>
        <time>2017-09-30T13:10:50Z</time>
      </trkpt>
      <trkpt lat="41.187650" lon="-3.567050">
        <ele>1952.0</ele>
        <time>2017-09-30T13:10:51Z</time>
      </trkpt>
      <trkpt lat="41.187733" lon="-3.566950">
        <ele>1951.0</ele>
        <time>2017-09-30T13:10:52Z</time>
      </trkpt>
      <trkpt lat="41.187817" lon="-3.566850">
        <ele>1949.0</ele>
        <time>2017-09-30T13:10:53Z</time>
      </trkpt>
      <trkpt lat="41.187883" lon="-3.566733">
        <ele>1947.0</ele>
        <time>2017-09-30T13:10:54Z</time>
      </trkpt>
      <trkpt lat="41.187967" lon="-3.566600">
        <ele>1945.0</ele>
        <time>2017-09-30T13:10:55Z</time>
      </trkpt>
      <trkpt lat="41.188050" lon="-3.566483">
        <ele>1943.0</ele>
        <time>2017-09-30T13:10:56Z</time>
      </trkpt>
      <trkpt lat="41.188117" lon="-3.566350">
        <ele>1941.0</ele>
        <time>2017-09-30T13:10:57Z</time>
      </trkpt>
      <trkpt lat="41.188183" lon="-3.566217">
        <ele>1940.0</ele>
        <time>2017-09-30T13:10:58Z</time>
      </trkpt>
      <trkpt lat="41.188250" lon="-3.566083">
        <ele>1938.0</ele>
        <time>2017-09-30T13:10:59Z</time>
      </trkpt>
      <trkpt lat="41.188317" lon="-3.565950">
        <ele>1936.0</ele>
        <time>2017-09-30T13:11:00Z</time>
      </trkpt>
      <trkpt lat="41.188383" lon="-3.565817">
        <ele>1933.0</ele>
        <time>2017-09-30T13:11:01Z</time>
      </trkpt>
      <trkpt lat="41.188467" lon="-3.565667">
        <ele>1931.0</ele>
        <time>2017-09-30T13:11:02Z</time>
      </trkpt>
      <trkpt lat="41.188533" lon="-3.565517">
        <ele>1929.0</ele>
        <time>2017-09-30T13:11:03Z</time>
      </trkpt>
      <trkpt lat="41.188600" lon="-3.565383">
        <ele>1929.0</ele>
        <time>2017-09-30T13:11:04Z</time>
      </trkpt>
      <trkpt lat="41.188683" lon="-3.565267">
        <ele>1928.0</ele>
        <time>2017-09-30T13:11:05Z</time>
      </trkpt>
      <trkpt lat="41.188750" lon="-3.565167">
        <ele>1927.0</ele>
        <time>2017-09-30T13:11:06Z</time>
      </trkpt>
      <trkpt lat="41.188833" lon="-3.565067">
        <ele>1926.0</ele>
        <time>2017-09-30T13:11:07Z</time>
      </trkpt>
      <trkpt lat="41.188917" lon="-3.564967">
        <ele>1923.0</ele>
        <time>2017-09-30T13:11:08Z</time>
      </trkpt>
      <trkpt lat="41.189017" lon="-3.564867">
        <ele>1920.0</ele>
        <time>2017-09-30T13:11:09Z</time>
      </trkpt>
      <trkpt lat="41.189117" lon="-3.564750">
        <ele>1919.0</ele>
        <time>2017-09-30T13:11:10Z</time>
      </trkpt>
      <trkpt lat="41.189200" lon="-3.564633">
        <ele>1918.0</ele>
        <time>2017-09-30T13:11:11Z</time>
      </trkpt>
      <trkpt lat="41.189283" lon="-3.564500">
        <ele>1917.0</ele>
        <time>2017-09-30T13:11:12Z</time>
      </trkpt>
      <trkpt lat="41.189350" lon="-3.564367">
        <ele>1916.0</ele>
        <time>2017-09-30T13:11:13Z</time>
      </trkpt>
      <trkpt lat="41.189433" lon="-3.564233">
        <ele>1915.0</ele>
        <time>2017-09-30T13:11:14Z</time>
      </trkpt>
      <trkpt lat="41.189500" lon="-3.564100">
        <ele>1914.0</ele>
        <time>2017-09-30T13:11:15Z</time>
      </trkpt>
      <trkpt lat="41.189583" lon="-3.563967">
        <ele>1913.0</ele>
        <time>2017-09-30T13:11:16Z</time>
      </trkpt>
      <trkpt lat="41.189667" lon="-3.563833">
        <ele>1913.0</ele>
        <time>2017-09-30T13:11:17Z</time>
      </trkpt>
      <trkpt lat="41.189750" lon="-3.563700">
        <ele>1912.0</ele>
        <time>2017-09-30T13:11:18Z</time>
      </trkpt>
      <trkpt lat="41.189833" lon="-3.563583">
        <ele>1912.0</ele>
        <time>2017-09-30T13:11:19Z</time>
      </trkpt>
      <trkpt lat="41.189900" lon="-3.563450">
        <ele>1911.0</ele>
        <time>2017-09-30T13:11:20Z</time>
      </trkpt>
      <trkpt lat="41.189983" lon="-3.563317">
        <ele>1909.0</ele>
        <time>2017-09-30T13:11:21Z</time>
      </trkpt>
      <trkpt lat="41.190067" lon="-3.563183">
        <ele>1909.0</ele>
        <time>2017-09-30T13:11:22Z</time>
      </trkpt>
      <trkpt lat="41.190150" lon="-3.563033">
        <ele>1909.0</ele>
        <time>2017-09-30T13:11:23Z</time>
      </trkpt>
      <trkpt lat="41.190217" lon="-3.562900">
        <ele>1909.0</ele>
        <time>2017-09-30T13:11:24Z</time>
      </trkpt>
      <trkpt lat="41.190300" lon="-3.562767">
        <ele>1908.0</ele>
        <time>2017-09-30T13:11:25Z</time>
      </trkpt>
      <trkpt lat="41.190367" lon="-3.562617">
        <ele>1908.0</ele>
        <time>2017-09-30T13:11:26Z</time>
      </trkpt>
      <trkpt lat="41.190450" lon="-3.562467">
        <ele>1909.0</ele>
        <time>2017-09-30T13:11:27Z</time>
      </trkpt>
      <trkpt lat="41.190517" lon="-3.562333">
        <ele>1910.0</ele>
        <time>2017-09-30T13:11:28Z</time>
      </trkpt>
      <trkpt lat="41.190583" lon="-3.562217">
        <ele>1911.0</ele>
        <time>2017-09-30T13:11:29Z</time>
      </trkpt>
      <trkpt lat="41.190667" lon="-3.562100">
        <ele>1911.0</ele>
        <time>2017-09-30T13:11:30Z</time>
      </trkpt>
      <trkpt lat="41.190733" lon="-3.561983">
        <ele>1910.0</ele>
        <time>2017-09-30T13:11:31Z</time>
      </trkpt>
      <trkpt lat="41.190833" lon="-3.561900">
        <ele>1910.0</ele>
        <time>2017-09-30T13:11:32Z</time>
      </trkpt>
      <trkpt lat="41.190917" lon="-3.561817">
        <ele>1910.0</ele>
        <time>2017-09-30T13:11:33Z</time>
      </trkpt>
      <trkpt lat="41.191000" lon="-3.561733">
        <ele>1911.0</ele>
        <time>2017-09-30T13:11:34Z</time>
      </trkpt>
      <trkpt lat="41.191083" lon="-3.561650">
        <ele>1912.0</ele>
        <time>2017-09-30T13:11:35Z</time>
      </trkpt>
      <trkpt lat="41.191150" lon="-3.561567">
        <ele>1912.0</ele>
        <time>2017-09-30T13:11:36Z</time>
      </trkpt>
      <trkpt lat="41.191233" lon="-3.561500">
        <ele>1911.0</ele>
        <time>2017-09-30T13:11:37Z</time>
      </trkpt>
      <trkpt lat="41.191317" lon="-3.561450">
        <ele>1910.0</ele>
        <time>2017-09-30T13:11:38Z</time>
      </trkpt>
      <trkpt lat="41.191400" lon="-3.561417">
        <ele>1909.0</ele>
        <time>2017-09-30T13:11:39Z</time>
      </trkpt>
      <trkpt lat="41.191467" lon="-3.561383">
        <ele>1909.0</ele>
        <time>2017-09-30T13:11:40Z</time>
      </trkpt>
      <trkpt lat="41.191550" lon="-3.561350">
        <ele>1909.0</ele>
        <time>2017-09-30T13:11:41Z</time>
      </trkpt>
      <trkpt lat="41.191617" lon="-3.561317">
        <ele>1909.0</ele>
        <time>2017-09-30T13:11:42Z</time>
      </trkpt>
      <trkpt lat="41.191683" lon="-3.561283">
        <ele>1908.0</ele>
        <time>2017-09-30T13:11:43Z</time>
      </trkpt>
      <trkpt lat="41.191750" lon="-3.561250">
        <ele>1908.0</ele>
        <time>2017-09-30T13:11:44Z</time>
      </trkpt>
      <trkpt lat="41.191833" lon="-3.561233">
        <ele>1908.0</ele>
        <time>2017-09-30T13:11:45Z</time>
      </trkpt>
      <trkpt lat="41.191917" lon="-3.561217">
        <ele>1909.0</ele>
        <time>2017-09-30T13:11:46Z</time>
      </trkpt>
      <trkpt lat="41.191983" lon="-3.561200">
        <ele>1910.0</ele>
        <time>2017-09-30T13:11:47Z</time>
      </trkpt>
      <trkpt lat="41.192033" lon="-3.561183">
        <ele>1913.0</ele>
        <time>2017-09-30T13:11:48Z</time>
      </trkpt>
      <trkpt lat="41.192100" lon="-3.561150">
        <ele>1915.0</ele>
        <time>2017-09-30T13:11:49Z</time>
      </trkpt>
      <trkpt lat="41.192167" lon="-3.561100">
        <ele>1916.0</ele>
        <time>2017-09-30T13:11:50Z</time>
      </trkpt>
      <trkpt lat="41.192233" lon="-3.561017">
        <ele>1916.0</ele>
        <time>2017-09-30T13:11:51Z</time>
      </trkpt>
      <trkpt lat="41.192283" lon="-3.560900">
        <ele>1916.0</ele>
        <time>2017-09-30T13:11:52Z</time>
      </trkpt>
      <trkpt lat="41.192317" lon="-3.560750">
        <ele>1918.0</ele>
        <time>2017-09-30T13:11:53Z</time>
      </trkpt>
      <trkpt lat="41.192333" lon="-3.560617">
        <ele>1920.0</ele>
        <time>2017-09-30T13:11:54Z</time>
      </trkpt>
      <trkpt lat="41.192333" lon="-3.560483">
        <ele>1921.0</ele>
        <time>2017-09-30T13:11:55Z</time>
      </trkpt>
      <trkpt lat="41.192317" lon="-3.560333">
        <ele>1921.0</ele>
        <time>2017-09-30T13:11:56Z</time>
      </trkpt>
      <trkpt lat="41.192283" lon="-3.560150">
        <ele>1921.0</ele>
        <time>2017-09-30T13:11:57Z</time>
      </trkpt>
      <trkpt lat="41.192233" lon="-3.559967">
        <ele>1922.0</ele>
        <time>2017-09-30T13:11:58Z</time>
      </trkpt>
      <trkpt lat="41.192183" lon="-3.559817">
        <ele>1925.0</ele>
        <time>2017-09-30T13:11:59Z</time>
      </trkpt>
      <trkpt lat="41.192150" lon="-3.559667">
        <ele>1928.0</ele>
        <time>2017-09-30T13:12:00Z</time>
      </trkpt>
      <trkpt lat="41.192100" lon="-3.559567">
        <ele>1930.0</ele>
        <time>2017-09-30T13:12:01Z</time>
      </trkpt>
      <trkpt lat="41.192050" lon="-3.559467">
        <ele>1931.0</ele>
        <time>2017-09-30T13:12:02Z</time>
      </trkpt>
      <trkpt lat="41.191983" lon="-3.559367">
        <ele>1930.0</ele>
        <time>2017-09-30T13:12:03Z</time>
      </trkpt>
      <trkpt lat="41.191900" lon="-3.559283">
        <ele>1929.0</ele>
        <time>2017-09-30T13:12:04Z</time>
      </trkpt>
      <trkpt lat="41.191817" lon="-3.559200">
        <ele>1929.0</ele>
        <time>2017-09-30T13:12:05Z</time>
      </trkpt>
      <trkpt lat="41.191717" lon="-3.559167">
        <ele>1928.0</ele>
        <time>2017-09-30T13:12:06Z</time>
      </trkpt>
      <trkpt lat="41.191650" lon="-3.559167">
        <ele>1928.0</ele>
        <time>2017-09-30T13:12:07Z</time>
      </trkpt>
      <trkpt lat="41.191583" lon="-3.559183">
        <ele>1928.0</ele>
        <time>2017-09-30T13:12:08Z</time>
      </trkpt>
      <trkpt lat="41.191550" lon="-3.559233">
        <ele>1928.0</ele>
        <time>2017-09-30T13:12:09Z</time>
      </trkpt>
      <trkpt lat="41.191533" lon="-3.559267">
        <ele>1929.0</ele>
        <time>2017-09-30T13:12:10Z</time>
      </trkpt>
      <trkpt lat="41.191500" lon="-3.559317">
        <ele>1929.0</ele>
        <time>2017-09-30T13:12:11Z</time>
      </trkpt>
      <trkpt lat="41.191483" lon="-3.559350">
        <ele>1929.0</ele>
        <time>2017-09-30T13:12:12Z</time>
      </trkpt>
      <trkpt lat="41.191483" lon="-3.559417">
        <ele>1929.0</ele>
        <time>2017-09-30T13:12:13Z</time>
      </trkpt>
      <trkpt lat="41.191500" lon="-3.559467">
        <ele>1929.0</ele>
        <time>2017-09-30T13:12:14Z</time>
      </trkpt>
      <trkpt lat="41.191517" lon="-3.559517">
        <ele>1930.0</ele>
        <time>2017-09-30T13:12:15Z</time>
      </trkpt>
      <trkpt lat="41.191550" lon="-3.559533">
        <ele>1932.0</ele>
        <time>2017-09-30T13:12:16Z</time>
      </trkpt>
      <trkpt lat="41.191600" lon="-3.559533">
        <ele>1934.0</ele>
        <time>2017-09-30T13:12:17Z</time>
      </trkpt>
      <trkpt lat="41.191633" lon="-3.559517">
        <ele>1935.0</ele>
        <time>2017-09-30T13:12:18Z</time>
      </trkpt>
      <trkpt lat="41.191683" lon="-3.559500">
        <ele>1935.0</ele>
        <time>2017-09-30T13:12:19Z</time>
      </trkpt>
      <trkpt lat="41.191733" lon="-3.559483">
        <ele>1935.0</ele>
        <time>2017-09-30T13:12:20Z</time>
      </trkpt>
      <trkpt lat="41.191800" lon="-3.559450">
        <ele>1935.0</ele>
        <time>2017-09-30T13:12:21Z</time>
      </trkpt>
      <trkpt lat="41.191867" lon="-3.559400">
        <ele>1936.0</ele>
        <time>2017-09-30T13:12:22Z</time>
      </trkpt>
      <trkpt lat="41.191933" lon="-3.559333">
        <ele>1937.0</ele>
        <time>2017-09-30T13:12:23Z</time>
      </trkpt>
      <trkpt lat="41.192000" lon="-3.559250">
        <ele>1938.0</ele>
        <time>2017-09-30T13:12:24Z</time>
      </trkpt>
      <trkpt lat="41.192050" lon="-3.559167">
        <ele>1939.0</ele>
        <time>2017-09-30T13:12:25Z</time>
      </trkpt>
      <trkpt lat="41.192117" lon="-3.559083">
        <ele>1940.0</ele>
        <time>2017-09-30T13:12:26Z</time>
      </trkpt>
      <trkpt lat="41.192183" lon="-3.558983">
        <ele>1941.0</ele>
        <time>2017-09-30T13:12:27Z</time>
      </trkpt>
      <trkpt lat="41.192250" lon="-3.558867">
        <ele>1942.0</ele>
        <time>2017-09-30T13:12:28Z</time>
      </trkpt>
      <trkpt lat="41.192267" lon="-3.558717">
        <ele>1943.0</ele>
        <time>2017-09-30T13:12:29Z</time>
      </trkpt>
      <trkpt lat="41.192267" lon="-3.558550">
        <ele>1943.0</ele>
        <time>2017-09-30T13:12:30Z</time>
      </trkpt>
      <trkpt lat="41.192250" lon="-3.558383">
        <ele>1944.0</ele>
        <time>2017-09-30T13:12:31Z</time>
      </trkpt>
      <trkpt lat="41.192200" lon="-3.558217">
        <ele>1946.0</ele>
        <time>2017-09-30T13:12:32Z</time>
      </trkpt>
      <trkpt lat="41.192150" lon="-3.558067">
        <ele>1947.0</ele>
        <time>2017-09-30T13:12:33Z</time>
      </trkpt>
      <trkpt lat="41.192067" lon="-3.557933">
        <ele>1948.0</ele>
        <time>2017-09-30T13:12:34Z</time>
      </trkpt>
      <trkpt lat="41.191983" lon="-3.557817">
        <ele>1948.0</ele>
        <time>2017-09-30T13:12:35Z</time>
      </trkpt>
      <trkpt lat="41.191883" lon="-3.557700">
        <ele>1948.0</ele>
        <time>2017-09-30T13:12:36Z</time>
      </trkpt>
      <trkpt lat="41.191783" lon="-3.557617">
        <ele>1949.0</ele>
        <time>2017-09-30T13:12:37Z</time>
      </trkpt>
      <trkpt lat="41.191667" lon="-3.557550">
        <ele>1949.0</ele>
        <time>2017-09-30T13:12:38Z</time>
      </trkpt>
      <trkpt lat="41.191567" lon="-3.557517">
        <ele>1950.0</ele>
        <time>2017-09-30T13:12:39Z</time>
      </trkpt>
      <trkpt lat="41.191467" lon="-3.557517">
        <ele>1951.0</ele>
        <time>2017-09-30T13:12:40Z</time>
      </trkpt>
      <trkpt lat="41.191383" lon="-3.557533">
        <ele>1952.0</ele>
        <time>2017-09-30T13:12:41Z</time>
      </trkpt>
      <trkpt lat="41.191333" lon="-3.557583">
        <ele>1952.0</ele>
        <time>2017-09-30T13:12:42Z</time>
      </trkpt>
      <trkpt lat="41.191300" lon="-3.557617">
        <ele>1953.0</ele>
        <time>2017-09-30T13:12:43Z</time>
      </trkpt>
      <trkpt lat="41.191317" lon="-3.557667">
        <ele>1954.0</ele>
        <time>2017-09-30T13:12:44Z</time>
      </trkpt>
      <trkpt lat="41.191333" lon="-3.557683">
        <ele>1954.0</ele>
        <time>2017-09-30T13:12:45Z</time>
      </trkpt>
      <trkpt lat="41.191383" lon="-3.557700">
        <ele>1955.0</ele>
        <time>2017-09-30T13:12:46Z</time>
      </trkpt>
      <trkpt lat="41.191433" lon="-3.557683">
        <ele>1956.0</ele>
        <time>2017-09-30T13:12:47Z</time>
      </trkpt>
      <trkpt lat="41.191500" lon="-3.557650">
        <ele>1957.0</ele>
        <time>2017-09-30T13:12:48Z</time>
      </trkpt>
      <trkpt lat="41.191567" lon="-3.557583">
        <ele>1958.0</ele>
        <time>2017-09-30T13:12:49Z</time>
      </trkpt>
      <trkpt lat="41.191633" lon="-3.557500">
        <ele>1959.0</ele>
        <time>2017-09-30T13:12:50Z</time>
      </trkpt>
      <trkpt lat="41.191700" lon="-3.557400">
        <ele>1961.0</ele>
        <time>2017-09-30T13:12:51Z</time>
      </trkpt>
      <trkpt lat="41.191750" lon="-3.557283">
        <ele>1963.0</ele>
        <time>2017-09-30T13:12:52Z</time>
      </trkpt>
      <trkpt lat="41.191800" lon="-3.557150">
        <ele>1964.0</ele>
        <time>2017-09-30T13:12:53Z</time>
      </trkpt>
      <trkpt lat="41.191850" lon="-3.557000">
        <ele>1965.0</ele>
        <time>2017-09-30T13:12:54Z</time>
      </trkpt>
      <trkpt lat="41.191883" lon="-3.556850">
        <ele>1966.0</ele>
        <time>2017-09-30T13:12:55Z</time>
      </trkpt>
      <trkpt lat="41.191883" lon="-3.556667">
        <ele>1967.0</ele>
        <time>2017-09-30T13:12:56Z</time>
      </trkpt>
      <trkpt lat="41.191883" lon="-3.556500">
        <ele>1968.0</ele>
        <time>2017-09-30T13:12:57Z</time>
      </trkpt>
      <trkpt lat="41.191867" lon="-3.556333">
        <ele>1969.0</ele>
        <time>2017-09-30T13:12:58Z</time>
      </trkpt>
      <trkpt lat="41.191833" lon="-3.556167">
        <ele>1970.0</ele>
        <time>2017-09-30T13:12:59Z</time>
      </trkpt>
      <trkpt lat="41.191783" lon="-3.556033">
        <ele>1970.0</ele>
        <time>2017-09-30T13:13:00Z</time>
      </trkpt>
      <trkpt lat="41.191717" lon="-3.555900">
        <ele>1969.0</ele>
        <time>2017-09-30T13:13:01Z</time>
      </trkpt>
      <trkpt lat="41.191633" lon="-3.555800">
        <ele>1969.0</ele>
        <time>2017-09-30T13:13:02Z</time>
      </trkpt>
      <trkpt lat="41.191550" lon="-3.555700">
        <ele>1970.0</ele>
        <time>2017-09-30T13:13:03Z</time>
      </trkpt>
      <trkpt lat="41.191483" lon="-3.555617">
        <ele>1972.0</ele>
        <time>2017-09-30T13:13:04Z</time>
      </trkpt>
      <trkpt lat="41.191417" lon="-3.555567">
        <ele>1973.0</ele>
        <time>2017-09-30T13:13:05Z</time>
      </trkpt>
      <trkpt lat="41.191367" lon="-3.555517">
        <ele>1972.0</ele>
        <time>2017-09-30T13:13:06Z</time>
      </trkpt>
      <trkpt lat="41.191300" lon="-3.555467">
        <ele>1971.0</ele>
        <time>2017-09-30T13:13:07Z</time>
      </trkpt>
      <trkpt lat="41.191217" lon="-3.555433">
        <ele>1970.0</ele>
        <time>2017-09-30T13:13:08Z</time>
      </trkpt>
      <trkpt lat="41.191117" lon="-3.555417">
        <ele>1969.0</ele>
        <time>2017-09-30T13:13:09Z</time>
      </trkpt>
      <trkpt lat="41.191033" lon="-3.555400">
        <ele>1968.0</ele>
        <time>2017-09-30T13:13:10Z</time>
      </trkpt>
      <trkpt lat="41.190967" lon="-3.555400">
        <ele>1968.0</ele>
        <time>2017-09-30T13:13:11Z</time>
      </trkpt>
      <trkpt lat="41.190900" lon="-3.555417">
        <ele>1968.0</ele>
        <time>2017-09-30T13:13:12Z</time>
      </trkpt>
      <trkpt lat="41.190867" lon="-3.555433">
        <ele>1967.0</ele>
        <time>2017-09-30T13:13:13Z</time>
      </trkpt>
      <trkpt lat="41.190833" lon="-3.555467">
        <ele>1966.0</ele>
        <time>2017-09-30T13:13:14Z</time>
      </trkpt>
      <trkpt lat="41.190817" lon="-3.555500">
        <ele>1965.0</ele>
        <time>2017-09-30T13:13:15Z</time>
      </trkpt>
      <trkpt lat="41.190800" lon="-3.555533">
        <ele>1964.0</ele>
        <time>2017-09-30T13:13:16Z</time>
      </trkpt>
      <trkpt lat="41.190817" lon="-3.555583">
        <ele>1963.0</ele>
        <time>2017-09-30T13:13:17Z</time>
      </trkpt>
      <trkpt lat="41.190833" lon="-3.555617">
        <ele>1962.0</ele>
        <time>2017-09-30T13:13:18Z</time>
      </trkpt>
      <trkpt lat="41.190850" lon="-3.555633">
        <ele>1963.0</ele>
        <time>2017-09-30T13:13:19Z</time>
      </trkpt>
      <trkpt lat="41.190883" lon="-3.555633">
        <ele>1962.0</ele>
        <time>2017-09-30T13:13:20Z</time>
      </trkpt>
      <trkpt lat="41.190950" lon="-3.555617">
        <ele>1962.0</ele>
        <time>2017-09-30T13:13:21Z</time>
      </trkpt>
      <trkpt lat="41.191000" lon="-3.555583">
        <ele>1961.0</ele>
        <time>2017-09-30T13:13:22Z</time>
      </trkpt>
      <trkpt lat="41.191083" lon="-3.555550">
        <ele>1960.0</ele>
        <time>2017-09-30T13:13:23Z</time>
      </trkpt>
      <trkpt lat="41.191150" lon="-3.555517">
        <ele>1961.0</ele>
        <time>2017-09-30T13:13:24Z</time>
      </trkpt>
      <trkpt lat="41.191217" lon="-3.555483">
        <ele>1963.0</ele>
        <time>2017-09-30T13:13:25Z</time>
      </trkpt>
      <trkpt lat="41.191283" lon="-3.555433">
        <ele>1965.0</ele>
        <time>2017-09-30T13:13:26Z</time>
      </trkpt>
      <trkpt lat="41.191350" lon="-3.555367">
        <ele>1966.0</ele>
        <time>2017-09-30T13:13:27Z</time>
      </trkpt>
      <trkpt lat="41.191400" lon="-3.555283">
        <ele>1966.0</ele>
        <time>2017-09-30T13:13:28Z</time>
      </trkpt>
      <trkpt lat="41.191467" lon="-3.555167">
        <ele>1967.0</ele>
        <time>2017-09-30T13:13:29Z</time>
      </trkpt>
      <trkpt lat="41.191517" lon="-3.555050">
        <ele>1969.0</ele>
        <time>2017-09-30T13:13:30Z</time>
      </trkpt>
      <trkpt lat="41.191550" lon="-3.554917">
        <ele>1970.0</ele>
        <time>2017-09-30T13:13:31Z</time>
      </trkpt>
      <trkpt lat="41.191567" lon="-3.554767">
        <ele>1972.0</ele>
        <time>2017-09-30T13:13:32Z</time>
      </trkpt>
      <trkpt lat="41.191583" lon="-3.554617">
        <ele>1974.0</ele>
        <time>2017-09-30T13:13:33Z</time>
      </trkpt>
      <trkpt lat="41.191567" lon="-3.554450">
        <ele>1975.0</ele>
        <time>2017-09-30T13:13:34Z</time>
      </trkpt>
      <trkpt lat="41.191550" lon="-3.554300">
        <ele>1975.0</ele>
        <time>2017-09-30T13:13:35Z</time>
      </trkpt>
      <trkpt lat="41.191500" lon="-3.554150">
        <ele>1976.0</ele>
        <time>2017-09-30T13:13:36Z</time>
      </trkpt>
      <trkpt lat="41.191450" lon="-3.554017">
        <ele>1977.0</ele>
        <time>2017-09-30T13:13:37Z</time>
      </trkpt>
      <trkpt lat="41.191383" lon="-3.553883">
        <ele>1977.0</ele>
        <time>2017-09-30T13:13:38Z</time>
      </trkpt>
      <trkpt lat="41.191317" lon="-3.553767">
        <ele>1978.0</ele>
        <time>2017-09-30T13:13:39Z</time>
      </trkpt>
      <trkpt lat="41.191233" lon="-3.553650">
        <ele>1979.0</ele>
        <time>2017-09-30T13:13:40Z</time>
      </trkpt>
      <trkpt lat="41.191167" lon="-3.553550">
        <ele>1982.0</ele>
        <time>2017-09-30T13:13:41Z</time>
      </trkpt>
      <trkpt lat="41.191100" lon="-3.553483">
        <ele>1983.0</ele>
        <time>2017-09-30T13:13:42Z</time>
      </trkpt>
      <trkpt lat="41.191033" lon="-3.553450">
        <ele>1982.0</ele>
        <time>2017-09-30T13:13:43Z</time>
      </trkpt>
      <trkpt lat="41.190950" lon="-3.553450">
        <ele>1981.0</ele>
        <time>2017-09-30T13:13:44Z</time>
      </trkpt>
      <trkpt lat="41.190883" lon="-3.553450">
        <ele>1981.0</ele>
        <time>2017-09-30T13:13:45Z</time>
      </trkpt>
      <trkpt lat="41.190817" lon="-3.553467">
        <ele>1981.0</ele>
        <time>2017-09-30T13:13:46Z</time>
      </trkpt>
      <trkpt lat="41.190783" lon="-3.553517">
        <ele>1981.0</ele>
        <time>2017-09-30T13:13:47Z</time>
      </trkpt>
      <trkpt lat="41.190783" lon="-3.553567">
        <ele>1981.0</ele>
        <time>2017-09-30T13:13:48Z</time>
      </trkpt>
      <trkpt lat="41.190800" lon="-3.553633">
        <ele>1981.0</ele>
        <time>2017-09-30T13:13:49Z</time>
      </trkpt>
      <trkpt lat="41.190833" lon="-3.553683">
        <ele>1982.0</ele>
        <time>2017-09-30T13:13:50Z</time>
      </trkpt>
      <trkpt lat="41.190850" lon="-3.553717">
        <ele>1984.0</ele>
        <time>2017-09-30T13:13:51Z</time>
      </trkpt>
      <trkpt lat="41.190900" lon="-3.553750">
        <ele>1986.0</ele>
        <time>2017-09-30T13:13:52Z</time>
      </trkpt>
      <trkpt lat="41.190933" lon="-3.553767">
        <ele>1987.0</ele>
        <time>2017-09-30T13:13:53Z</time>
      </trkpt>
      <trkpt lat="41.190983" lon="-3.553783">
        <ele>1987.0</ele>
        <time>2017-09-30T13:13:54Z</time>
      </trkpt>
      <trkpt lat="41.191050" lon="-3.553783">
        <ele>1988.0</ele>
        <time>2017-09-30T13:13:55Z</time>
      </trkpt>
      <trkpt lat="41.191100" lon="-3.553783">
        <ele>1988.0</ele>
        <time>2017-09-30T13:13:56Z</time>
      </trkpt>
      <trkpt lat="41.191183" lon="-3.553783">
        <ele>1989.0</ele>
        <time>2017-09-30T13:13:57Z</time>
      </trkpt>
      <trkpt lat="41.191250" lon="-3.553767">
        <ele>1991.0</ele>
        <time>2017-09-30T13:13:58Z</time>
      </trkpt>
      <trkpt lat="41.191333" lon="-3.553733">
        <ele>1992.0</ele>
        <time>2017-09-30T13:13:59Z</time>
      </trkpt>
      <trkpt lat="41.191400" lon="-3.553700">
        <ele>1993.0</ele>
        <time>2017-09-30T13:14:00Z</time>
      </trkpt>
      <trkpt lat="41.191467" lon="-3.553650">
        <ele>1994.0</ele>
        <time>2017-09-30T13:14:01Z</time>
      </trkpt>
      <trkpt lat="41.191550" lon="-3.553600">
        <ele>1994.0</ele>
        <time>2017-09-30T13:14:02Z</time>
      </trkpt>
      <trkpt lat="41.191633" lon="-3.553533">
        <ele>1994.0</ele>
        <time>2017-09-30T13:14:03Z</time>
      </trkpt>
      <trkpt lat="41.191717" lon="-3.553450">
        <ele>1995.0</ele>
        <time>2017-09-30T13:14:04Z</time>
      </trkpt>
      <trkpt lat="41.191783" lon="-3.553350">
        <ele>1996.0</ele>
        <time>2017-09-30T13:14:05Z</time>
      </trkpt>
      <trkpt lat="41.191850" lon="-3.553250">
        <ele>1998.0</ele>
        <time>2017-09-30T13:14:06Z</time>
      </trkpt>
      <trkpt lat="41.191917" lon="-3.553133">
        <ele>1999.0</ele>
        <time>2017-09-30T13:14:07Z</time>
      </trkpt>
      <trkpt lat="41.191950" lon="-3.553000">
        <ele>2000.0</ele>
        <time>2017-09-30T13:14:08Z</time>
      </trkpt>
      <trkpt lat="41.191967" lon="-3.552867">
        <ele>2000.0</ele>
        <time>2017-09-30T13:14:09Z</time>
      </trkpt>
      <trkpt lat="41.191983" lon="-3.552717">
        <ele>2001.0</ele>
        <time>2017-09-30T13:14:10Z</time>
      </trkpt>
      <trkpt lat="41.191983" lon="-3.552567">
        <ele>2001.0</ele>
        <time>2017-09-30T13:14:11Z</time>
      </trkpt>
      <trkpt lat="41.191950" lon="-3.552417">
        <ele>2001.0</ele>
        <time>2017-09-30T13:14:12Z</time>
      </trkpt>
      <trkpt lat="41.191917" lon="-3.552267">
        <ele>2002.0</ele>
        <time>2017-09-30T13:14:13Z</time>
      </trkpt>
      <trkpt lat="41.191867" lon="-3.552133">
        <ele>2003.0</ele>
        <time>2017-09-30T13:14:14Z</time>
      </trkpt>
      <trkpt lat="41.191800" lon="-3.552017">
        <ele>2004.0</ele>
        <time>2017-09-30T13:14:15Z</time>
      </trkpt>
      <trkpt lat="41.191733" lon="-3.551933">
        <ele>2005.0</ele>
        <time>2017-09-30T13:14:16Z</time>
      </trkpt>
      <trkpt lat="41.191667" lon="-3.551850">
        <ele>2004.0</ele>
        <time>2017-09-30T13:14:17Z</time>
      </trkpt>
      <trkpt lat="41.191583" lon="-3.551800">
        <ele>2003.0</ele>
        <time>2017-09-30T13:14:18Z</time>
      </trkpt>
      <trkpt lat="41.191483" lon="-3.551767">
        <ele>2003.0</ele>
        <time>2017-09-30T13:14:19Z</time>
      </trkpt>
      <trkpt lat="41.191400" lon="-3.551750">
        <ele>2002.0</ele>
        <time>2017-09-30T13:14:20Z</time>
      </trkpt>
      <trkpt lat="41.191317" lon="-3.551750">
        <ele>2002.0</ele>
        <time>2017-09-30T13:14:21Z</time>
      </trkpt>
      <trkpt lat="41.191233" lon="-3.551767">
        <ele>2003.0</ele>
        <time>2017-09-30T13:14:22Z</time>
      </trkpt>
      <trkpt lat="41.191167" lon="-3.551800">
        <ele>2003.0</ele>
        <time>2017-09-30T13:14:23Z</time>
      </trkpt>
      <trkpt lat="41.191133" lon="-3.551833">
        <ele>2003.0</ele>
        <time>2017-09-30T13:14:24Z</time>
      </trkpt>
      <trkpt lat="41.191100" lon="-3.551883">
        <ele>2004.0</ele>
        <time>2017-09-30T13:14:25Z</time>
      </trkpt>
      <trkpt lat="41.191100" lon="-3.551950">
        <ele>2006.0</ele>
        <time>2017-09-30T13:14:26Z</time>
      </trkpt>
      <trkpt lat="41.191100" lon="-3.552000">
        <ele>2008.0</ele>
        <time>2017-09-30T13:14:27Z</time>
      </trkpt>
      <trkpt lat="41.191100" lon="-3.552050">
        <ele>2010.0</ele>
        <time>2017-09-30T13:14:28Z</time>
      </trkpt>
      <trkpt lat="41.191117" lon="-3.552100">
        <ele>2012.0</ele>
        <time>2017-09-30T13:14:29Z</time>
      </trkpt>
      <trkpt lat="41.191133" lon="-3.552150">
        <ele>2014.0</ele>
        <time>2017-09-30T13:14:30Z</time>
      </trkpt>
      <trkpt lat="41.191167" lon="-3.552200">
        <ele>2015.0</ele>
        <time>2017-09-30T13:14:31Z</time>
      </trkpt>
      <trkpt lat="41.191233" lon="-3.552250">
        <ele>2015.0</ele>
        <time>2017-09-30T13:14:32Z</time>
      </trkpt>
      <trkpt lat="41.191300" lon="-3.552283">
        <ele>2015.0</ele>
        <time>2017-09-30T13:14:33Z</time>
      </trkpt>
      <trkpt lat="41.191400" lon="-3.552267">
        <ele>2015.0</ele>
        <time>2017-09-30T13:14:34Z</time>
      </trkpt>
      <trkpt lat="41.191517" lon="-3.552250">
        <ele>2015.0</ele>
        <time>2017-09-30T13:14:35Z</time>
      </trkpt>
      <trkpt lat="41.191617" lon="-3.552183">
        <ele>2017.0</ele>
        <time>2017-09-30T13:14:36Z</time>
      </trkpt>
      <trkpt lat="41.191700" lon="-3.552100">
        <ele>2019.0</ele>
        <time>2017-09-30T13:14:37Z</time>
      </trkpt>
      <trkpt lat="41.191783" lon="-3.552000">
        <ele>2021.0</ele>
        <time>2017-09-30T13:14:38Z</time>
      </trkpt>
      <trkpt lat="41.191850" lon="-3.551883">
        <ele>2022.0</ele>
        <time>2017-09-30T13:14:39Z</time>
      </trkpt>
      <trkpt lat="41.191917" lon="-3.551750">
        <ele>2023.0</ele>
        <time>2017-09-30T13:14:40Z</time>
      </trkpt>
      <trkpt lat="41.191967" lon="-3.551600">
        <ele>2024.0</ele>
        <time>2017-09-30T13:14:41Z</time>
      </trkpt>
      <trkpt lat="41.191983" lon="-3.551450">
        <ele>2024.0</ele>
        <time>2017-09-30T13:14:42Z</time>
      </trkpt>
      <trkpt lat="41.191983" lon="-3.551283">
        <ele>2025.0</ele>
        <time>2017-09-30T13:14:43Z</time>
      </trkpt>
      <trkpt lat="41.191967" lon="-3.551133">
        <ele>2026.0</ele>
        <time>2017-09-30T13:14:44Z</time>
      </trkpt>
      <trkpt lat="41.191933" lon="-3.550967">
        <ele>2028.0</ele>
        <time>2017-09-30T13:14:45Z</time>
      </trkpt>
      <trkpt lat="41.191900" lon="-3.550833">
        <ele>2029.0</ele>
        <time>2017-09-30T13:14:46Z</time>
      </trkpt>
      <trkpt lat="41.191850" lon="-3.550717">
        <ele>2029.0</ele>
        <time>2017-09-30T13:14:47Z</time>
      </trkpt>
      <trkpt lat="41.191783" lon="-3.550600">
        <ele>2028.0</ele>
        <time>2017-09-30T13:14:48Z</time>
      </trkpt>
      <trkpt lat="41.191717" lon="-3.550500">
        <ele>2027.0</ele>
        <time>2017-09-30T13:14:49Z</time>
      </trkpt>
      <trkpt lat="41.191650" lon="-3.550417">
        <ele>2027.0</ele>
        <time>2017-09-30T13:14:50Z</time>
      </trkpt>
      <trkpt lat="41.191567" lon="-3.550333">
        <ele>2028.0</ele>
        <time>2017-09-30T13:14:51Z</time>
      </trkpt>
      <trkpt lat="41.191483" lon="-3.550300">
        <ele>2028.0</ele>
        <time>2017-09-30T13:14:52Z</time>
      </trkpt>
      <trkpt lat="41.191400" lon="-3.550267">
        <ele>2028.0</ele>
        <time>2017-09-30T13:14:53Z</time>
      </trkpt>
      <trkpt lat="41.191317" lon="-3.550267">
        <ele>2027.0</ele>
        <time>2017-09-30T13:14:54Z</time>
      </trkpt>
      <trkpt lat="41.191233" lon="-3.550267">
        <ele>2027.0</ele>
        <time>2017-09-30T13:14:55Z</time>
      </trkpt>
      <trkpt lat="41.191167" lon="-3.550283">
        <ele>2028.0</ele>
        <time>2017-09-30T13:14:56Z</time>
      </trkpt>
      <trkpt lat="41.191117" lon="-3.550333">
        <ele>2031.0</ele>
        <time>2017-09-30T13:14:57Z</time>
      </trkpt>
      <trkpt lat="41.191083" lon="-3.550383">
        <ele>2034.0</ele>
        <time>2017-09-30T13:14:58Z</time>
      </trkpt>
      <trkpt lat="41.191083" lon="-3.550433">
        <ele>2036.0</ele>
        <time>2017-09-30T13:14:59Z</time>
      </trkpt>
      <trkpt lat="41.191100" lon="-3.550467">
        <ele>2037.0</ele>
        <time>2017-09-30T13:15:00Z</time>
      </trkpt>
      <trkpt lat="41.191150" lon="-3.550517">
        <ele>2038.0</ele>
        <time>2017-09-30T13:15:01Z</time>
      </trkpt>
      <trkpt lat="41.191233" lon="-3.550550">
        <ele>2038.0</ele>
        <time>2017-09-30T13:15:02Z</time>
      </trkpt>
      <trkpt lat="41.191317" lon="-3.550550">
        <ele>2040.0</ele>
        <time>2017-09-30T13:15:03Z</time>
      </trkpt>
      <trkpt lat="41.191400" lon="-3.550533">
        <ele>2043.0</ele>
        <time>2017-09-30T13:15:04Z</time>
      </trkpt>
      <trkpt lat="41.191500" lon="-3.550483">
        <ele>2045.0</ele>
        <time>2017-09-30T13:15:05Z</time>
      </trkpt>
      <trkpt lat="41.191583" lon="-3.550383">
        <ele>2046.0</ele>
        <time>2017-09-30T13:15:06Z</time>
      </trkpt>
      <trkpt lat="41.191667" lon="-3.550267">
        <ele>2048.0</ele>
        <time>2017-09-30T13:15:07Z</time>
      </trkpt>
      <trkpt lat="41.191733" lon="-3.550117">
        <ele>2050.0</ele>
        <time>2017-09-30T13:15:08Z</time>
      </trkpt>
      <trkpt lat="41.191783" lon="-3.549967">
        <ele>2052.0</ele>
        <time>2017-09-30T13:15:09Z</time>
      </trkpt>
      <trkpt lat="41.191800" lon="-3.549817">
        <ele>2054.0</ele>
        <time>2017-09-30T13:15:10Z</time>
      </trkpt>
      <trkpt lat="41.191817" lon="-3.549683">
        <ele>2055.0</ele>
        <time>2017-09-30T13:15:11Z</time>
      </trkpt>
      <trkpt lat="41.191817" lon="-3.549550">
        <ele>2056.0</ele>
        <time>2017-09-30T13:15:12Z</time>
      </trkpt>
      <trkpt lat="41.191817" lon="-3.549417">
        <ele>2055.0</ele>
        <time>2017-09-30T13:15:13Z</time>
      </trkpt>
      <trkpt lat="41.191800" lon="-3.549267">
        <ele>2055.0</ele>
        <time>2017-09-30T13:15:14Z</time>
      </trkpt>
      <trkpt lat="41.191783" lon="-3.549100">
        <ele>2055.0</ele>
        <time>2017-09-30T13:15:15Z</time>
      </trkpt>
      <trkpt lat="41.191767" lon="-3.548933">
        <ele>2056.0</ele>
        <time>2017-09-30T13:15:16Z</time>
      </trkpt>
      <trkpt lat="41.191733" lon="-3.548783">
        <ele>2058.0</ele>
        <time>2017-09-30T13:15:17Z</time>
      </trkpt>
      <trkpt lat="41.191683" lon="-3.548667">
        <ele>2060.0</ele>
        <time>2017-09-30T13:15:18Z</time>
      </trkpt>
      <trkpt lat="41.191617" lon="-3.548567">
        <ele>2061.0</ele>
        <time>2017-09-30T13:15:19Z</time>
      </trkpt>
      <trkpt lat="41.191550" lon="-3.548467">
        <ele>2061.0</ele>
        <time>2017-09-30T13:15:20Z</time>
      </trkpt>
      <trkpt lat="41.191483" lon="-3.548400">
        <ele>2062.0</ele>
        <time>2017-09-30T13:15:21Z</time>
      </trkpt>
      <trkpt lat="41.191400" lon="-3.548350">
        <ele>2063.0</ele>
        <time>2017-09-30T13:15:22Z</time>
      </trkpt>
      <trkpt lat="41.191317" lon="-3.548333">
        <ele>2063.0</ele>
        <time>2017-09-30T13:15:23Z</time>
      </trkpt>
      <trkpt lat="41.191233" lon="-3.548317">
        <ele>2064.0</ele>
        <time>2017-09-30T13:15:24Z</time>
      </trkpt>
      <trkpt lat="41.191167" lon="-3.548317">
        <ele>2064.0</ele>
        <time>2017-09-30T13:15:25Z</time>
      </trkpt>
      <trkpt lat="41.191117" lon="-3.548350">
        <ele>2065.0</ele>
        <time>2017-09-30T13:15:26Z</time>
      </trkpt>
      <trkpt lat="41.191083" lon="-3.548400">
        <ele>2066.0</ele>
        <time>2017-09-30T13:15:27Z</time>
      </trkpt>
      <trkpt lat="41.191050" lon="-3.548450">
        <ele>2068.0</ele>
        <time>2017-09-30T13:15:28Z</time>
      </trkpt>
      <trkpt lat="41.191050" lon="-3.548500">
        <ele>2070.0</ele>
        <time>2017-09-30T13:15:29Z</time>
      </trkpt>
      <trkpt lat="41.191067" lon="-3.548550">
        <ele>2072.0</ele>
        <time>2017-09-30T13:15:30Z</time>
      </trkpt>
      <trkpt lat="41.191100" lon="-3.548600">
        <ele>2073.0</ele>
        <time>2017-09-30T13:15:31Z</time>
      </trkpt>
      <trkpt lat="41.191167" lon="-3.548633">
        <ele>2074.0</ele>
        <time>2017-09-30T13:15:32Z</time>
      </trkpt>
      <trkpt lat="41.191233" lon="-3.548650">
        <ele>2076.0</ele>
        <time>2017-09-30T13:15:33Z</time>
      </trkpt>
      <trkpt lat="41.191300" lon="-3.548667">
        <ele>2079.0</ele>
        <time>2017-09-30T13:15:34Z</time>
      </trkpt>
      <trkpt lat="41.191383" lon="-3.548650">
        <ele>2081.0</ele>
        <time>2017-09-30T13:15:35Z</time>
      </trkpt>
      <trkpt lat="41.191467" lon="-3.548600">
        <ele>2083.0</ele>
        <time>2017-09-30T13:15:36Z</time>
      </trkpt>
      <trkpt lat="41.191550" lon="-3.548550">
        <ele>2083.0</ele>
        <time>2017-09-30T13:15:37Z</time>
      </trkpt>
      <trkpt lat="41.191650" lon="-3.548450">
        <ele>2083.0</ele>
        <time>2017-09-30T13:15:38Z</time>
      </trkpt>
      <trkpt lat="41.191717" lon="-3.548333">
        <ele>2083.0</ele>
        <time>2017-09-30T13:15:39Z</time>
      </trkpt>
      <trkpt lat="41.191783" lon="-3.548200">
        <ele>2083.0</ele>
        <time>2017-09-30T13:15:40Z</time>
      </trkpt>
      <trkpt lat="41.191833" lon="-3.548033">
        <ele>2084.0</ele>
        <time>2017-09-30T13:15:41Z</time>
      </trkpt>
      <trkpt lat="41.191883" lon="-3.547883">
        <ele>2086.0</ele>
        <time>2017-09-30T13:15:42Z</time>
      </trkpt>
      <trkpt lat="41.191950" lon="-3.547750">
        <ele>2089.0</ele>
        <time>2017-09-30T13:15:43Z</time>
      </trkpt>
      <trkpt lat="41.192000" lon="-3.547617">
        <ele>2092.0</ele>
        <time>2017-09-30T13:15:44Z</time>
      </trkpt>
      <trkpt lat="41.192067" lon="-3.547500">
        <ele>2094.0</ele>
        <time>2017-09-30T13:15:45Z</time>
      </trkpt>
      <trkpt lat="41.192100" lon="-3.547367">
        <ele>2095.0</ele>
        <time>2017-09-30T13:15:46Z</time>
      </trkpt>
      <trkpt lat="41.192133" lon="-3.547233">
        <ele>2095.0</ele>
        <time>2017-09-30T13:15:47Z</time>
      </trkpt>
      <trkpt lat="41.192167" lon="-3.547083">
        <ele>2095.0</ele>
        <time>2017-09-30T13:15:48Z</time>
      </trkpt>
      <trkpt lat="41.192183" lon="-3.546917">
        <ele>2095.0</ele>
        <time>2017-09-30T13:15:49Z</time>
      </trkpt>
      <trkpt lat="41.192183" lon="-3.546767">
        <ele>2095.0</ele>
        <time>2017-09-30T13:15:50Z</time>
      </trkpt>
      <trkpt lat="41.192167" lon="-3.546617">
        <ele>2095.0</ele>
        <time>2017-09-30T13:15:51Z</time>
      </trkpt>
      <trkpt lat="41.192133" lon="-3.546500">
        <ele>2094.0</ele>
        <time>2017-09-30T13:15:52Z</time>
      </trkpt>
      <trkpt lat="41.192083" lon="-3.546383">
        <ele>2093.0</ele>
        <time>2017-09-30T13:15:53Z</time>
      </trkpt>
      <trkpt lat="41.192033" lon="-3.546267">
        <ele>2092.0</ele>
        <time>2017-09-30T13:15:54Z</time>
      </trkpt>
      <trkpt lat="41.191967" lon="-3.546183">
        <ele>2091.0</ele>
        <time>2017-09-30T13:15:55Z</time>
      </trkpt>
      <trkpt lat="41.191900" lon="-3.546117">
        <ele>2092.0</ele>
        <time>2017-09-30T13:15:56Z</time>
      </trkpt>
      <trkpt lat="41.191833" lon="-3.546067">
        <ele>2092.0</ele>
        <time>2017-09-30T13:15:57Z</time>
      </trkpt>
      <trkpt lat="41.191783" lon="-3.546033">
        <ele>2093.0</ele>
        <time>2017-09-30T13:15:58Z</time>
      </trkpt>
      <trkpt lat="41.191733" lon="-3.546000">
        <ele>2092.0</ele>
        <time>2017-09-30T13:15:59Z</time>
      </trkpt>
      <trkpt lat="41.191683" lon="-3.546000">
        <ele>2091.0</ele>
        <time>2017-09-30T13:16:00Z</time>
      </trkpt>
      <trkpt lat="41.191617" lon="-3.546017">
        <ele>2089.0</ele>
        <time>2017-09-30T13:16:01Z</time>
      </trkpt>
      <trkpt lat="41.191567" lon="-3.546050">
        <ele>2087.0</ele>
        <time>2017-09-30T13:16:02Z</time>
      </trkpt>
      <trkpt lat="41.191533" lon="-3.546100">
        <ele>2086.0</ele>
        <time>2017-09-30T13:16:03Z</time>
      </trkpt>
      <trkpt lat="41.191517" lon="-3.546167">
        <ele>2087.0</ele>
        <time>2017-09-30T13:16:04Z</time>
      </trkpt>
      <trkpt lat="41.191517" lon="-3.546233">
        <ele>2088.0</ele>
        <time>2017-09-30T13:16:05Z</time>
      </trkpt>
      <trkpt lat="41.191533" lon="-3.546283">
        <ele>2089.0</ele>
        <time>2017-09-30T13:16:06Z</time>
      </trkpt>
      <trkpt lat="41.191583" lon="-3.546333">
        <ele>2090.0</ele>
        <time>2017-09-30T13:16:07Z</time>
      </trkpt>
      <trkpt lat="41.191633" lon="-3.546383">
        <ele>2091.0</ele>
        <time>2017-09-30T13:16:08Z</time>
      </trkpt>
      <trkpt lat="41.191717" lon="-3.546400">
        <ele>2092.0</ele>
        <time>2017-09-30T13:16:09Z</time>
      </trkpt>
      <trkpt lat="41.191800" lon="-3.546383">
        <ele>2093.0</ele>
        <time>2017-09-30T13:16:10Z</time>
      </trkpt>
      <trkpt lat="41.191900" lon="-3.546317">
        <ele>2094.0</ele>
        <time>2017-09-30T13:16:11Z</time>
      </trkpt>
      <trkpt lat="41.191983" lon="-3.546233">
        <ele>2095.0</ele>
        <time>2017-09-30T13:16:12Z</time>
      </trkpt>
      <trkpt lat="41.192067" lon="-3.546100">
        <ele>2096.0</ele>
        <time>2017-09-30T13:16:13Z</time>
      </trkpt>
      <trkpt lat="41.192133" lon="-3.545983">
        <ele>2098.0</ele>
        <time>2017-09-30T13:16:14Z</time>
      </trkpt>
      <trkpt lat="41.192200" lon="-3.545850">
        <ele>2099.0</ele>
        <time>2017-09-30T13:16:15Z</time>
      </trkpt>
      <trkpt lat="41.192250" lon="-3.545733">
        <ele>2100.0</ele>
        <time>2017-09-30T13:16:16Z</time>
      </trkpt>
      <trkpt lat="41.192317" lon="-3.545600">
        <ele>2100.0</ele>
        <time>2017-09-30T13:16:17Z</time>
      </trkpt>
      <trkpt lat="41.192383" lon="-3.545483">
        <ele>2100.0</ele>
        <time>2017-09-30T13:16:18Z</time>
      </trkpt>
      <trkpt lat="41.192417" lon="-3.545333">
        <ele>2099.0</ele>
        <time>2017-09-30T13:16:19Z</time>
      </trkpt>
      <trkpt lat="41.192450" lon="-3.545183">
        <ele>2098.0</ele>
        <time>2017-09-30T13:16:20Z</time>
      </trkpt>
      <trkpt lat="41.192467" lon="-3.545017">
        <ele>2098.0</ele>
        <time>2017-09-30T13:16:21Z</time>
      </trkpt>
      <trkpt lat="41.192483" lon="-3.544883">
        <ele>2097.0</ele>
        <time>2017-09-30T13:16:22Z</time>
      </trkpt>
      <trkpt lat="41.192483" lon="-3.544733">
        <ele>2097.0</ele>
        <time>2017-09-30T13:16:23Z</time>
      </trkpt>
      <trkpt lat="41.192467" lon="-3.544583">
        <ele>2095.0</ele>
        <time>2017-09-30T13:16:24Z</time>
      </trkpt>
      <trkpt lat="41.192450" lon="-3.544417">
        <ele>2094.0</ele>
        <time>2017-09-30T13:16:25Z</time>
      </trkpt>
      <trkpt lat="41.192417" lon="-3.544267">
        <ele>2093.0</ele>
        <time>2017-09-30T13:16:26Z</time>
      </trkpt>
      <trkpt lat="41.192383" lon="-3.544133">
        <ele>2092.0</ele>
        <time>2017-09-30T13:16:27Z</time>
      </trkpt>
      <trkpt lat="41.192333" lon="-3.544000">
        <ele>2093.0</ele>
        <time>2017-09-30T13:16:28Z</time>
      </trkpt>
      <trkpt lat="41.192283" lon="-3.543900">
        <ele>2093.0</ele>
        <time>2017-09-30T13:16:29Z</time>
      </trkpt>
      <trkpt lat="41.192233" lon="-3.543817">
        <ele>2093.0</ele>
        <time>2017-09-30T13:16:30Z</time>
      </trkpt>
      <trkpt lat="41.192167" lon="-3.543750">
        <ele>2093.0</ele>
        <time>2017-09-30T13:16:31Z</time>
      </trkpt>
      <trkpt lat="41.192100" lon="-3.543700">
        <ele>2092.0</ele>
        <time>2017-09-30T13:16:32Z</time>
      </trkpt>
      <trkpt lat="41.192033" lon="-3.543667">
        <ele>2091.0</ele>
        <time>2017-09-30T13:16:33Z</time>
      </trkpt>
      <trkpt lat="41.191967" lon="-3.543650">
        <ele>2090.0</ele>
        <time>2017-09-30T13:16:34Z</time>
      </trkpt>
      <trkpt lat="41.191900" lon="-3.543667">
        <ele>2089.0</ele>
        <time>2017-09-30T13:16:35Z</time>
      </trkpt>
      <trkpt lat="41.191850" lon="-3.543700">
        <ele>2089.0</ele>
        <time>2017-09-30T13:16:36Z</time>
      </trkpt>
      <trkpt lat="41.191800" lon="-3.543733">
        <ele>2089.0</ele>
        <time>2017-09-30T13:16:37Z</time>
      </trkpt>
      <trkpt lat="41.191767" lon="-3.543800">
        <ele>2088.0</ele>
        <time>2017-09-30T13:16:38Z</time>
      </trkpt>
      <trkpt lat="41.191767" lon="-3.543867">
        <ele>2088.0</ele>
        <time>2017-09-30T13:16:39Z</time>
      </trkpt>
      <trkpt lat="41.191767" lon="-3.543933">
        <ele>2087.0</ele>
        <time>2017-09-30T13:16:40Z</time>
      </trkpt>
      <trkpt lat="41.191800" lon="-3.544000">
        <ele>2087.0</ele>
        <time>2017-09-30T13:16:41Z</time>
      </trkpt>
      <trkpt lat="41.191850" lon="-3.544067">
        <ele>2088.0</ele>
        <time>2017-09-30T13:16:42Z</time>
      </trkpt>
      <trkpt lat="41.191900" lon="-3.544100">
        <ele>2089.0</ele>
        <time>2017-09-30T13:16:43Z</time>
      </trkpt>
      <trkpt lat="41.191967" lon="-3.544117">
        <ele>2091.0</ele>
        <time>2017-09-30T13:16:44Z</time>
      </trkpt>
      <trkpt lat="41.192033" lon="-3.544117">
        <ele>2093.0</ele>
        <time>2017-09-30T13:16:45Z</time>
      </trkpt>
      <trkpt lat="41.192117" lon="-3.544100">
        <ele>2093.0</ele>
        <time>2017-09-30T13:16:46Z</time>
      </trkpt>
      <trkpt lat="41.192200" lon="-3.544100">
        <ele>2094.0</ele>
        <time>2017-09-30T13:16:47Z</time>
      </trkpt>
      <trkpt lat="41.192283" lon="-3.544083">
        <ele>2094.0</ele>
        <time>2017-09-30T13:16:48Z</time>
      </trkpt>
      <trkpt lat="41.192383" lon="-3.544067">
        <ele>2094.0</ele>
        <time>2017-09-30T13:16:49Z</time>
      </trkpt>
      <trkpt lat="41.192467" lon="-3.544033">
        <ele>2094.0</ele>
        <time>2017-09-30T13:16:50Z</time>
      </trkpt>
      <trkpt lat="41.192567" lon="-3.544000">
        <ele>2094.0</ele>
        <time>2017-09-30T13:16:51Z</time>
      </trkpt>
      <trkpt lat="41.192667" lon="-3.543950">
        <ele>2093.0</ele>
        <time>2017-09-30T13:16:52Z</time>
      </trkpt>
      <trkpt lat="41.192767" lon="-3.543883">
        <ele>2093.0</ele>
        <time>2017-09-30T13:16:53Z</time>
      </trkpt>
      <trkpt lat="41.192867" lon="-3.543800">
        <ele>2092.0</ele>
        <time>2017-09-30T13:16:54Z</time>
      </trkpt>
      <trkpt lat="41.192983" lon="-3.543717">
        <ele>2091.0</ele>
        <time>2017-09-30T13:16:55Z</time>
      </trkpt>
      <trkpt lat="41.193067" lon="-3.543650">
        <ele>2089.0</ele>
        <time>2017-09-30T13:16:56Z</time>
      </trkpt>
      <trkpt lat="41.193167" lon="-3.543583">
        <ele>2088.0</ele>
        <time>2017-09-30T13:16:57Z</time>
      </trkpt>
      <trkpt lat="41.193250" lon="-3.543500">
        <ele>2085.0</ele>
        <time>2017-09-30T13:16:58Z</time>
      </trkpt>
      <trkpt lat="41.193367" lon="-3.543433">
        <ele>2082.0</ele>
        <time>2017-09-30T13:16:59Z</time>
      </trkpt>
      <trkpt lat="41.193500" lon="-3.543383">
        <ele>2080.0</ele>
        <time>2017-09-30T13:17:00Z</time>
      </trkpt>
      <trkpt lat="41.193617" lon="-3.543367">
        <ele>2080.0</ele>
        <time>2017-09-30T13:17:01Z</time>
      </trkpt>
      <trkpt lat="41.193700" lon="-3.543333">
        <ele>2081.0</ele>
        <time>2017-09-30T13:17:02Z</time>
      </trkpt>
      <trkpt lat="41.193783" lon="-3.543333">
        <ele>2082.0</ele>
        <time>2017-09-30T13:17:03Z</time>
      </trkpt>
      <trkpt lat="41.193850" lon="-3.543300">
        <ele>2081.0</ele>
        <time>2017-09-30T13:17:04Z</time>
      </trkpt>
      <trkpt lat="41.193950" lon="-3.543267">
        <ele>2079.0</ele>
        <time>2017-09-30T13:17:05Z</time>
      </trkpt>
      <trkpt lat="41.194050" lon="-3.543217">
        <ele>2076.0</ele>
        <time>2017-09-30T13:17:06Z</time>
      </trkpt>
      <trkpt lat="41.194167" lon="-3.543183">
        <ele>2075.0</ele>
        <time>2017-09-30T13:17:07Z</time>
      </trkpt>
      <trkpt lat="41.194283" lon="-3.543167">
        <ele>2075.0</ele>
        <time>2017-09-30T13:17:08Z</time>
      </trkpt>
      <trkpt lat="41.194367" lon="-3.543150">
        <ele>2076.0</ele>
        <time>2017-09-30T13:17:09Z</time>
      </trkpt>
      <trkpt lat="41.194450" lon="-3.543133">
        <ele>2076.0</ele>
        <time>2017-09-30T13:17:10Z</time>
      </trkpt>
      <trkpt lat="41.194550" lon="-3.543117">
        <ele>2075.0</ele>
        <time>2017-09-30T13:17:11Z</time>
      </trkpt>
      <trkpt lat="41.194633" lon="-3.543117">
        <ele>2073.0</ele>
        <time>2017-09-30T13:17:12Z</time>
      </trkpt>
      <trkpt lat="41.194733" lon="-3.543100">
        <ele>2071.0</ele>
        <time>2017-09-30T13:17:13Z</time>
      </trkpt>
      <trkpt lat="41.194833" lon="-3.543100">
        <ele>2070.0</ele>
        <time>2017-09-30T13:17:14Z</time>
      </trkpt>
      <trkpt lat="41.194950" lon="-3.543100">
        <ele>2069.0</ele>
        <time>2017-09-30T13:17:15Z</time>
      </trkpt>
      <trkpt lat="41.195050" lon="-3.543083">
        <ele>2069.0</ele>
        <time>2017-09-30T13:17:16Z</time>
      </trkpt>
      <trkpt lat="41.195133" lon="-3.543083">
        <ele>2070.0</ele>
        <time>2017-09-30T13:17:17Z</time>
      </trkpt>
      <trkpt lat="41.195233" lon="-3.543067">
        <ele>2070.0</ele>
        <time>2017-09-30T13:17:18Z</time>
      </trkpt>
      <trkpt lat="41.195317" lon="-3.543033">
        <ele>2069.0</ele>
        <time>2017-09-30T13:17:19Z</time>
      </trkpt>
      <trkpt lat="41.195417" lon="-3.543017">
        <ele>2068.0</ele>
        <time>2017-09-30T13:17:20Z</time>
      </trkpt>
      <trkpt lat="41.195517" lon="-3.543017">
        <ele>2067.0</ele>
        <time>2017-09-30T13:17:21Z</time>
      </trkpt>
      <trkpt lat="41.195633" lon="-3.543000">
        <ele>2066.0</ele>
        <time>2017-09-30T13:17:22Z</time>
      </trkpt>
      <trkpt lat="41.195733" lon="-3.542983">
        <ele>2066.0</ele>
        <time>2017-09-30T13:17:23Z</time>
      </trkpt>
      <trkpt lat="41.195833" lon="-3.542967">
        <ele>2066.0</ele>
        <time>2017-09-30T13:17:24Z</time>
      </trkpt>
      <trkpt lat="41.195933" lon="-3.542950">
        <ele>2065.0</ele>
        <time>2017-09-30T13:17:25Z</time>
      </trkpt>
      <trkpt lat="41.196017" lon="-3.542933">
        <ele>2064.0</ele>
        <time>2017-09-30T13:17:26Z</time>
      </trkpt>
      <trkpt lat="41.196117" lon="-3.542917">
        <ele>2062.0</ele>
        <time>2017-09-30T13:17:27Z</time>
      </trkpt>
      <trkpt lat="41.196217" lon="-3.542900">
        <ele>2061.0</ele>
        <time>2017-09-30T13:17:28Z</time>
      </trkpt>
      <trkpt lat="41.196333" lon="-3.542900">
        <ele>2059.0</ele>
        <time>2017-09-30T13:17:29Z</time>
      </trkpt>
      <trkpt lat="41.196433" lon="-3.542900">
        <ele>2059.0</ele>
        <time>2017-09-30T13:17:30Z</time>
      </trkpt>
      <trkpt lat="41.196533" lon="-3.542883">
        <ele>2059.0</ele>
        <time>2017-09-30T13:17:31Z</time>
      </trkpt>
      <trkpt lat="41.196633" lon="-3.542883">
        <ele>2059.0</ele>
        <time>2017-09-30T13:17:32Z</time>
      </trkpt>
      <trkpt lat="41.196717" lon="-3.542900">
        <ele>2059.0</ele>
        <time>2017-09-30T13:17:33Z</time>
      </trkpt>
      <trkpt lat="41.196783" lon="-3.542933">
        <ele>2058.0</ele>
        <time>2017-09-30T13:17:34Z</time>
      </trkpt>
      <trkpt lat="41.196867" lon="-3.542983">
        <ele>2058.0</ele>
        <time>2017-09-30T13:17:35Z</time>
      </trkpt>
      <trkpt lat="41.196933" lon="-3.543033">
        <ele>2057.0</ele>
        <time>2017-09-30T13:17:36Z</time>
      </trkpt>
      <trkpt lat="41.196983" lon="-3.543083">
        <ele>2057.0</ele>
        <time>2017-09-30T13:17:37Z</time>
      </trkpt>
      <trkpt lat="41.197050" lon="-3.543117">
        <ele>2057.0</ele>
        <time>2017-09-30T13:17:38Z</time>
      </trkpt>
      <trkpt lat="41.197100" lon="-3.543150">
        <ele>2056.0</ele>
        <time>2017-09-30T13:17:39Z</time>
      </trkpt>
      <trkpt lat="41.197167" lon="-3.543183">
        <ele>2055.0</ele>
        <time>2017-09-30T13:17:40Z</time>
      </trkpt>
      <trkpt lat="41.197250" lon="-3.543217">
        <ele>2054.0</ele>
        <time>2017-09-30T13:17:41Z</time>
      </trkpt>
      <trkpt lat="41.197317" lon="-3.543250">
        <ele>2054.0</ele>
        <time>2017-09-30T13:17:42Z</time>
      </trkpt>
      <trkpt lat="41.197383" lon="-3.543283">
        <ele>2055.0</ele>
        <time>2017-09-30T13:17:43Z</time>
      </trkpt>
      <trkpt lat="41.197433" lon="-3.543300">
        <ele>2055.0</ele>
        <time>2017-09-30T13:17:44Z</time>
      </trkpt>
      <trkpt lat="41.197500" lon="-3.543333">
        <ele>2054.0</ele>
        <time>2017-09-30T13:17:45Z</time>
      </trkpt>
      <trkpt lat="41.197550" lon="-3.543367">
        <ele>2051.0</ele>
        <time>2017-09-30T13:17:46Z</time>
      </trkpt>
      <trkpt lat="41.197617" lon="-3.543383">
        <ele>2049.0</ele>
        <time>2017-09-30T13:17:47Z</time>
      </trkpt>
      <trkpt lat="41.197683" lon="-3.543417">
        <ele>2046.0</ele>
        <time>2017-09-30T13:17:48Z</time>
      </trkpt>
      <trkpt lat="41.197767" lon="-3.543433">
        <ele>2044.0</ele>
        <time>2017-09-30T13:17:49Z</time>
      </trkpt>
      <trkpt lat="41.197833" lon="-3.543450">
        <ele>2043.0</ele>
        <time>2017-09-30T13:17:50Z</time>
      </trkpt>
      <trkpt lat="41.197900" lon="-3.543450">
        <ele>2042.0</ele>
        <time>2017-09-30T13:17:51Z</time>
      </trkpt>
      <trkpt lat="41.197967" lon="-3.543467">
        <ele>2040.0</ele>
        <time>2017-09-30T13:17:52Z</time>
      </trkpt>
      <trkpt lat="41.198033" lon="-3.543483">
        <ele>2038.0</ele>
        <time>2017-09-30T13:17:53Z</time>
      </trkpt>
      <trkpt lat="41.198117" lon="-3.543500">
        <ele>2037.0</ele>
        <time>2017-09-30T13:17:54Z</time>
      </trkpt>
      <trkpt lat="41.198200" lon="-3.543500">
        <ele>2036.0</ele>
        <time>2017-09-30T13:17:55Z</time>
      </trkpt>
      <trkpt lat="41.198283" lon="-3.543500">
        <ele>2035.0</ele>
        <time>2017-09-30T13:17:56Z</time>
      </trkpt>
      <trkpt lat="41.198350" lon="-3.543517">
        <ele>2034.0</ele>
        <time>2017-09-30T13:17:57Z</time>
      </trkpt>
      <trkpt lat="41.198417" lon="-3.543517">
        <ele>2034.0</ele>
        <time>2017-09-30T13:17:58Z</time>
      </trkpt>
      <trkpt lat="41.198483" lon="-3.543533">
        <ele>2032.0</ele>
        <time>2017-09-30T13:17:59Z</time>
      </trkpt>
      <trkpt lat="41.198550" lon="-3.543550">
        <ele>2030.0</ele>
        <time>2017-09-30T13:18:00Z</time>
      </trkpt>
      <trkpt lat="41.198633" lon="-3.543567">
        <ele>2029.0</ele>
        <time>2017-09-30T13:18:01Z</time>
      </trkpt>
      <trkpt lat="41.198717" lon="-3.543583">
        <ele>2027.0</ele>
        <time>2017-09-30T13:18:02Z</time>
      </trkpt>
      <trkpt lat="41.198783" lon="-3.543600">
        <ele>2026.0</ele>
        <time>2017-09-30T13:18:03Z</time>
      </trkpt>
      <trkpt lat="41.198867" lon="-3.543617">
        <ele>2026.0</ele>
        <time>2017-09-30T13:18:04Z</time>
      </trkpt>
      <trkpt lat="41.198933" lon="-3.543617">
        <ele>2025.0</ele>
        <time>2017-09-30T13:18:05Z</time>
      </trkpt>
      <trkpt lat="41.199000" lon="-3.543633">
        <ele>2023.0</ele>
        <time>2017-09-30T13:18:06Z</time>
      </trkpt>
      <trkpt lat="41.199067" lon="-3.543650">
        <ele>2020.0</ele>
        <time>2017-09-30T13:18:07Z</time>
      </trkpt>
      <trkpt lat="41.199133" lon="-3.543683">
        <ele>2017.0</ele>
        <time>2017-09-30T13:18:08Z</time>
      </trkpt>
      <trkpt lat="41.199217" lon="-3.543733">
        <ele>2013.0</ele>
        <time>2017-09-30T13:18:09Z</time>
      </trkpt>
      <trkpt lat="41.199300" lon="-3.543800">
        <ele>2011.0</ele>
        <time>2017-09-30T13:18:10Z</time>
      </trkpt>
      <trkpt lat="41.199383" lon="-3.543850">
        <ele>2010.0</ele>
        <time>2017-09-30T13:18:11Z</time>
      </trkpt>
      <trkpt lat="41.199450" lon="-3.543883">
        <ele>2009.0</ele>
        <time>2017-09-30T13:18:12Z</time>
      </trkpt>
      <trkpt lat="41.199517" lon="-3.543900">
        <ele>2009.0</ele>
        <time>2017-09-30T13:18:13Z</time>
      </trkpt>
      <trkpt lat="41.199567" lon="-3.543933">
        <ele>2007.0</ele>
        <time>2017-09-30T13:18:14Z</time>
      </trkpt>
      <trkpt lat="41.199633" lon="-3.543967">
        <ele>2005.0</ele>
        <time>2017-09-30T13:18:15Z</time>
      </trkpt>
      <trkpt lat="41.199717" lon="-3.544000">
        <ele>2003.0</ele>
        <time>2017-09-30T13:18:16Z</time>
      </trkpt>
      <trkpt lat="41.199800" lon="-3.544017">
        <ele>2001.0</ele>
        <time>2017-09-30T13:18:17Z</time>
      </trkpt>
      <trkpt lat="41.199883" lon="-3.544033">
        <ele>2001.0</ele>
        <time>2017-09-30T13:18:18Z</time>
      </trkpt>
      <trkpt lat="41.199967" lon="-3.544033">
        <ele>2000.0</ele>
        <time>2017-09-30T13:18:19Z</time>
      </trkpt>
      <trkpt lat="41.200050" lon="-3.544033">
        <ele>2000.0</ele>
        <time>2017-09-30T13:18:20Z</time>
      </trkpt>
      <trkpt lat="41.200117" lon="-3.544017">
        <ele>1999.0</ele>
        <time>2017-09-30T13:18:21Z</time>
      </trkpt>
      <trkpt lat="41.200200" lon="-3.544017">
        <ele>1997.0</ele>
        <time>2017-09-30T13:18:22Z</time>
      </trkpt>
      <trkpt lat="41.200283" lon="-3.544033">
        <ele>1996.0</ele>
        <time>2017-09-30T13:18:23Z</time>
      </trkpt>
      <trkpt lat="41.200367" lon="-3.544050">
        <ele>1994.0</ele>
        <time>2017-09-30T13:18:24Z</time>
      </trkpt>
      <trkpt lat="41.200450" lon="-3.544050">
        <ele>1992.0</ele>
        <time>2017-09-30T13:18:25Z</time>
      </trkpt>
      <trkpt lat="41.200533" lon="-3.544067">
        <ele>1991.0</ele>
        <time>2017-09-30T13:18:26Z</time>
      </trkpt>
      <trkpt lat="41.200600" lon="-3.544083">
        <ele>1990.0</ele>
        <time>2017-09-30T13:18:27Z</time>
      </trkpt>
      <trkpt lat="41.200683" lon="-3.544083">
        <ele>1990.0</ele>
        <time>2017-09-30T13:18:28Z</time>
      </trkpt>
      <trkpt lat="41.200767" lon="-3.544100">
        <ele>1989.0</ele>
        <time>2017-09-30T13:18:29Z</time>
      </trkpt>
      <trkpt lat="41.200833" lon="-3.544100">
        <ele>1989.0</ele>
        <time>2017-09-30T13:18:30Z</time>
      </trkpt>
      <trkpt lat="41.200900" lon="-3.544117">
        <ele>1988.0</ele>
        <time>2017-09-30T13:18:31Z</time>
      </trkpt>
      <trkpt lat="41.200983" lon="-3.544133">
        <ele>1986.0</ele>
        <time>2017-09-30T13:18:32Z</time>
      </trkpt>
      <trkpt lat="41.201050" lon="-3.544150">
        <ele>1983.0</ele>
        <time>2017-09-30T13:18:33Z</time>
      </trkpt>
      <trkpt lat="41.201133" lon="-3.544183">
        <ele>1981.0</ele>
        <time>2017-09-30T13:18:34Z</time>
      </trkpt>
      <trkpt lat="41.201217" lon="-3.544233">
        <ele>1980.0</ele>
        <time>2017-09-30T13:18:35Z</time>
      </trkpt>
      <trkpt lat="41.201300" lon="-3.544267">
        <ele>1980.0</ele>
        <time>2017-09-30T13:18:36Z</time>
      </trkpt>
      <trkpt lat="41.201367" lon="-3.544300">
        <ele>1979.0</ele>
        <time>2017-09-30T13:18:37Z</time>
      </trkpt>
      <trkpt lat="41.201433" lon="-3.544317">
        <ele>1978.0</ele>
        <time>2017-09-30T13:18:38Z</time>
      </trkpt>
      <trkpt lat="41.201500" lon="-3.544333">
        <ele>1976.0</ele>
        <time>2017-09-30T13:18:39Z</time>
      </trkpt>
      <trkpt lat="41.201583" lon="-3.544350">
        <ele>1973.0</ele>
        <time>2017-09-30T13:18:40Z</time>
      </trkpt>
      <trkpt lat="41.201667" lon="-3.544350">
        <ele>1970.0</ele>
        <time>2017-09-30T13:18:41Z</time>
      </trkpt>
      <trkpt lat="41.201767" lon="-3.544350">
        <ele>1969.0</ele>
        <time>2017-09-30T13:18:42Z</time>
      </trkpt>
      <trkpt lat="41.201850" lon="-3.544367">
        <ele>1967.0</ele>
        <time>2017-09-30T13:18:43Z</time>
      </trkpt>
      <trkpt lat="41.201933" lon="-3.544383">
        <ele>1966.0</ele>
        <time>2017-09-30T13:18:44Z</time>
      </trkpt>
      <trkpt lat="41.202017" lon="-3.544383">
        <ele>1966.0</ele>
        <time>2017-09-30T13:18:45Z</time>
      </trkpt>
      <trkpt lat="41.202100" lon="-3.544383">
        <ele>1965.0</ele>
        <time>2017-09-30T13:18:46Z</time>
      </trkpt>
      <trkpt lat="41.202183" lon="-3.544383">
        <ele>1963.0</ele>
        <time>2017-09-30T13:18:47Z</time>
      </trkpt>
      <trkpt lat="41.202267" lon="-3.544367">
        <ele>1962.0</ele>
        <time>2017-09-30T13:18:48Z</time>
      </trkpt>
      <trkpt lat="41.202350" lon="-3.544350">
        <ele>1961.0</ele>
        <time>2017-09-30T13:18:49Z</time>
      </trkpt>
      <trkpt lat="41.202433" lon="-3.544317">
        <ele>1960.0</ele>
        <time>2017-09-30T13:18:50Z</time>
      </trkpt>
      <trkpt lat="41.202517" lon="-3.544317">
        <ele>1959.0</ele>
        <time>2017-09-30T13:18:51Z</time>
      </trkpt>
      <trkpt lat="41.202600" lon="-3.544300">
        <ele>1958.0</ele>
        <time>2017-09-30T13:18:52Z</time>
      </trkpt>
      <trkpt lat="41.202700" lon="-3.544317">
        <ele>1957.0</ele>
        <time>2017-09-30T13:18:53Z</time>
      </trkpt>
      <trkpt lat="41.202767" lon="-3.544317">
        <ele>1956.0</ele>
        <time>2017-09-30T13:18:54Z</time>
      </trkpt>
      <trkpt lat="41.202850" lon="-3.544300">
        <ele>1955.0</ele>
        <time>2017-09-30T13:18:55Z</time>
      </trkpt>
      <trkpt lat="41.202917" lon="-3.544300">
        <ele>1954.0</ele>
        <time>2017-09-30T13:18:56Z</time>
      </trkpt>
      <trkpt lat="41.203000" lon="-3.544300">
        <ele>1952.0</ele>
        <time>2017-09-30T13:18:57Z</time>
      </trkpt>
      <trkpt lat="41.203083" lon="-3.544300">
        <ele>1951.0</ele>
        <time>2017-09-30T13:18:58Z</time>
      </trkpt>
      <trkpt lat="41.203167" lon="-3.544283">
        <ele>1949.0</ele>
        <time>2017-09-30T13:18:59Z</time>
      </trkpt>
      <trkpt lat="41.203233" lon="-3.544283">
        <ele>1947.0</ele>
        <time>2017-09-30T13:19:00Z</time>
      </trkpt>
      <trkpt lat="41.203317" lon="-3.544267">
        <ele>1946.0</ele>
        <time>2017-09-30T13:19:01Z</time>
      </trkpt>
      <trkpt lat="41.203400" lon="-3.544250">
        <ele>1944.0</ele>
        <time>2017-09-30T13:19:02Z</time>
      </trkpt>
      <trkpt lat="41.203483" lon="-3.544250">
        <ele>1943.0</ele>
        <time>2017-09-30T13:19:03Z</time>
      </trkpt>
      <trkpt lat="41.203567" lon="-3.544267">
        <ele>1941.0</ele>
        <time>2017-09-30T13:19:04Z</time>
      </trkpt>
      <trkpt lat="41.203650" lon="-3.544267">
        <ele>1940.0</ele>
        <time>2017-09-30T13:19:05Z</time>
      </trkpt>
      <trkpt lat="41.203733" lon="-3.544267">
        <ele>1939.0</ele>
        <time>2017-09-30T13:19:06Z</time>
      </trkpt>
      <trkpt lat="41.203800" lon="-3.544267">
        <ele>1938.0</ele>
        <time>2017-09-30T13:19:07Z</time>
      </trkpt>
      <trkpt lat="41.203883" lon="-3.544283">
        <ele>1937.0</ele>
        <time>2017-09-30T13:19:08Z</time>
      </trkpt>
      <trkpt lat="41.203967" lon="-3.544300">
        <ele>1936.0</ele>
        <time>2017-09-30T13:19:09Z</time>
      </trkpt>
      <trkpt lat="41.204033" lon="-3.544317">
        <ele>1935.0</ele>
        <time>2017-09-30T13:19:10Z</time>
      </trkpt>
      <trkpt lat="41.204117" lon="-3.544317">
        <ele>1934.0</ele>
        <time>2017-09-30T13:19:11Z</time>
      </trkpt>
      <trkpt lat="41.204200" lon="-3.544300">
        <ele>1933.0</ele>
        <time>2017-09-30T13:19:12Z</time>
      </trkpt>
      <trkpt lat="41.204283" lon="-3.544300">
        <ele>1932.0</ele>
        <time>2017-09-30T13:19:13Z</time>
      </trkpt>
      <trkpt lat="41.204350" lon="-3.544317">
        <ele>1930.0</ele>
        <time>2017-09-30T13:19:14Z</time>
      </trkpt>
      <trkpt lat="41.204433" lon="-3.544317">
        <ele>1928.0</ele>
        <time>2017-09-30T13:19:15Z</time>
      </trkpt>
      <trkpt lat="41.204517" lon="-3.544317">
        <ele>1927.0</ele>
        <time>2017-09-30T13:19:16Z</time>
      </trkpt>
      <trkpt lat="41.204617" lon="-3.544333">
        <ele>1926.0</ele>
        <time>2017-09-30T13:19:17Z</time>
      </trkpt>
      <trkpt lat="41.204700" lon="-3.544333">
        <ele>1926.0</ele>
        <time>2017-09-30T13:19:18Z</time>
      </trkpt>
      <trkpt lat="41.204783" lon="-3.544317">
        <ele>1925.0</ele>
        <time>2017-09-30T13:19:19Z</time>
      </trkpt>
      <trkpt lat="41.204867" lon="-3.544317">
        <ele>1924.0</ele>
        <time>2017-09-30T13:19:20Z</time>
      </trkpt>
      <trkpt lat="41.204950" lon="-3.544317">
        <ele>1923.0</ele>
        <time>2017-09-30T13:19:21Z</time>
      </trkpt>
      <trkpt lat="41.205033" lon="-3.544317">
        <ele>1921.0</ele>
        <time>2017-09-30T13:19:22Z</time>
      </trkpt>
      <trkpt lat="41.205133" lon="-3.544317">
        <ele>1920.0</ele>
        <time>2017-09-30T13:19:23Z</time>
      </trkpt>
      <trkpt lat="41.205217" lon="-3.544317">
        <ele>1919.0</ele>
        <time>2017-09-30T13:19:24Z</time>
      </trkpt>
      <trkpt lat="41.205317" lon="-3.544300">
        <ele>1918.0</ele>
        <time>2017-09-30T13:19:25Z</time>
      </trkpt>
      <trkpt lat="41.205400" lon="-3.544300">
        <ele>1916.0</ele>
        <time>2017-09-30T13:19:26Z</time>
      </trkpt>
      <trkpt lat="41.205483" lon="-3.544300">
        <ele>1914.0</ele>
        <time>2017-09-30T13:19:27Z</time>
      </trkpt>
      <trkpt lat="41.205567" lon="-3.544283">
        <ele>1912.0</ele>
        <time>2017-09-30T13:19:28Z</time>
      </trkpt>
      <trkpt lat="41.205667" lon="-3.544283">
        <ele>1910.0</ele>
        <time>2017-09-30T13:19:29Z</time>
      </trkpt>
      <trkpt lat="41.205750" lon="-3.544267">
        <ele>1909.0</ele>
        <time>2017-09-30T13:19:30Z</time>
      </trkpt>
      <trkpt lat="41.205850" lon="-3.544250">
        <ele>1907.0</ele>
        <time>2017-09-30T13:19:31Z</time>
      </trkpt>
      <trkpt lat="41.205933" lon="-3.544250">
        <ele>1905.0</ele>
        <time>2017-09-30T13:19:32Z</time>
      </trkpt>
      <trkpt lat="41.206017" lon="-3.544233">
        <ele>1903.0</ele>
        <time>2017-09-30T13:19:33Z</time>
      </trkpt>
      <trkpt lat="41.206117" lon="-3.544200">
        <ele>1901.0</ele>
        <time>2017-09-30T13:19:34Z</time>
      </trkpt>
      <trkpt lat="41.206217" lon="-3.544167">
        <ele>1899.0</ele>
        <time>2017-09-30T13:19:35Z</time>
      </trkpt>
      <trkpt lat="41.206300" lon="-3.544150">
        <ele>1897.0</ele>
        <time>2017-09-30T13:19:36Z</time>
      </trkpt>
      <trkpt lat="41.206383" lon="-3.544150">
        <ele>1895.0</ele>
        <time>2017-09-30T13:19:37Z</time>
      </trkpt>
      <trkpt lat="41.206450" lon="-3.544150">
        <ele>1893.0</ele>
        <time>2017-09-30T13:19:38Z</time>
      </trkpt>
      <trkpt lat="41.206533" lon="-3.544133">
        <ele>1890.0</ele>
        <time>2017-09-30T13:19:39Z</time>
      </trkpt>
      <trkpt lat="41.206617" lon="-3.544133">
        <ele>1887.0</ele>
        <time>2017-09-30T13:19:40Z</time>
      </trkpt>
      <trkpt lat="41.206717" lon="-3.544133">
        <ele>1885.0</ele>
        <time>2017-09-30T13:19:41Z</time>
      </trkpt>
      <trkpt lat="41.206800" lon="-3.544117">
        <ele>1884.0</ele>
        <time>2017-09-30T13:19:42Z</time>
      </trkpt>
      <trkpt lat="41.206883" lon="-3.544100">
        <ele>1883.0</ele>
        <time>2017-09-30T13:19:43Z</time>
      </trkpt>
      <trkpt lat="41.206950" lon="-3.544083">
        <ele>1882.0</ele>
        <time>2017-09-30T13:19:44Z</time>
      </trkpt>
      <trkpt lat="41.207033" lon="-3.544083">
        <ele>1880.0</ele>
        <time>2017-09-30T13:19:45Z</time>
      </trkpt>
      <trkpt lat="41.207100" lon="-3.544083">
        <ele>1877.0</ele>
        <time>2017-09-30T13:19:46Z</time>
      </trkpt>
      <trkpt lat="41.207200" lon="-3.544067">
        <ele>1875.0</ele>
        <time>2017-09-30T13:19:47Z</time>
      </trkpt>
      <trkpt lat="41.207283" lon="-3.544067">
        <ele>1873.0</ele>
        <time>2017-09-30T13:19:48Z</time>
      </trkpt>
      <trkpt lat="41.207367" lon="-3.544050">
        <ele>1871.0</ele>
        <time>2017-09-30T13:19:49Z</time>
      </trkpt>
      <trkpt lat="41.207450" lon="-3.544050">
        <ele>1871.0</ele>
        <time>2017-09-30T13:19:50Z</time>
      </trkpt>
      <trkpt lat="41.207517" lon="-3.544050">
        <ele>1870.0</ele>
        <time>2017-09-30T13:19:51Z</time>
      </trkpt>
      <trkpt lat="41.207600" lon="-3.544050">
        <ele>1869.0</ele>
        <time>2017-09-30T13:19:52Z</time>
      </trkpt>
      <trkpt lat="41.207683" lon="-3.544050">
        <ele>1867.0</ele>
        <time>2017-09-30T13:19:53Z</time>
      </trkpt>
      <trkpt lat="41.207783" lon="-3.544050">
        <ele>1865.0</ele>
        <time>2017-09-30T13:19:54Z</time>
      </trkpt>
      <trkpt lat="41.207867" lon="-3.544033">
        <ele>1865.0</ele>
        <time>2017-09-30T13:19:55Z</time>
      </trkpt>
      <trkpt lat="41.207950" lon="-3.544033">
        <ele>1864.0</ele>
        <time>2017-09-30T13:19:56Z</time>
      </trkpt>
      <trkpt lat="41.208033" lon="-3.544033">
        <ele>1863.0</ele>
        <time>2017-09-30T13:19:57Z</time>
      </trkpt>
      <trkpt lat="41.208117" lon="-3.544033">
        <ele>1861.0</ele>
        <time>2017-09-30T13:19:58Z</time>
      </trkpt>
      <trkpt lat="41.208200" lon="-3.544017">
        <ele>1860.0</ele>
        <time>2017-09-30T13:19:59Z</time>
      </trkpt>
      <trkpt lat="41.208283" lon="-3.544000">
        <ele>1859.0</ele>
        <time>2017-09-30T13:20:00Z</time>
      </trkpt>
      <trkpt lat="41.208350" lon="-3.543983">
        <ele>1858.0</ele>
        <time>2017-09-30T13:20:01Z</time>
      </trkpt>
      <trkpt lat="41.208433" lon="-3.543983">
        <ele>1856.0</ele>
        <time>2017-09-30T13:20:02Z</time>
      </trkpt>
      <trkpt lat="41.208500" lon="-3.544000">
        <ele>1855.0</ele>
        <time>2017-09-30T13:20:03Z</time>
      </trkpt>
      <trkpt lat="41.208583" lon="-3.544017">
        <ele>1853.0</ele>
        <time>2017-09-30T13:20:04Z</time>
      </trkpt>
      <trkpt lat="41.208650" lon="-3.544050">
        <ele>1853.0</ele>
        <time>2017-09-30T13:20:05Z</time>
      </trkpt>
      <trkpt lat="41.208717" lon="-3.544100">
        <ele>1853.0</ele>
        <time>2017-09-30T13:20:06Z</time>
      </trkpt>
      <trkpt lat="41.208750" lon="-3.544167">
        <ele>1853.0</ele>
        <time>2017-09-30T13:20:07Z</time>
      </trkpt>
      <trkpt lat="41.208783" lon="-3.544217">
        <ele>1853.0</ele>
        <time>2017-09-30T13:20:08Z</time>
      </trkpt>
      <trkpt lat="41.208817" lon="-3.544267">
        <ele>1851.0</ele>
        <time>2017-09-30T13:20:09Z</time>
      </trkpt>
      <trkpt lat="41.208850" lon="-3.544317">
        <ele>1850.0</ele>
        <time>2017-09-30T13:20:10Z</time>
      </trkpt>
      <trkpt lat="41.208900" lon="-3.544367">
        <ele>1847.0</ele>
        <time>2017-09-30T13:20:11Z</time>
      </trkpt>
      <trkpt lat="41.208950" lon="-3.544417">
        <ele>1845.0</ele>
        <time>2017-09-30T13:20:12Z</time>
      </trkpt>
      <trkpt lat="41.209017" lon="-3.544483">
        <ele>1843.0</ele>
        <time>2017-09-30T13:20:13Z</time>
      </trkpt>
      <trkpt lat="41.209083" lon="-3.544517">
        <ele>1842.0</ele>
        <time>2017-09-30T13:20:14Z</time>
      </trkpt>
      <trkpt lat="41.209150" lon="-3.544533">
        <ele>1842.0</ele>
        <time>2017-09-30T13:20:15Z</time>
      </trkpt>
      <trkpt lat="41.209200" lon="-3.544550">
        <ele>1842.0</ele>
        <time>2017-09-30T13:20:16Z</time>
      </trkpt>
      <trkpt lat="41.209250" lon="-3.544583">
        <ele>1840.0</ele>
        <time>2017-09-30T13:20:17Z</time>
      </trkpt>
      <trkpt lat="41.209317" lon="-3.544617">
        <ele>1838.0</ele>
        <time>2017-09-30T13:20:18Z</time>
      </trkpt>
      <trkpt lat="41.209383" lon="-3.544650">
        <ele>1836.0</ele>
        <time>2017-09-30T13:20:19Z</time>
      </trkpt>
      <trkpt lat="41.209467" lon="-3.544650">
        <ele>1835.0</ele>
        <time>2017-09-30T13:20:20Z</time>
      </trkpt>
      <trkpt lat="41.209533" lon="-3.544667">
        <ele>1835.0</ele>
        <time>2017-09-30T13:20:21Z</time>
      </trkpt>
      <trkpt lat="41.209600" lon="-3.544667">
        <ele>1834.0</ele>
        <time>2017-09-30T13:20:22Z</time>
      </trkpt>
      <trkpt lat="41.209650" lon="-3.544667">
        <ele>1832.0</ele>
        <time>2017-09-30T13:20:23Z</time>
      </trkpt>
      <trkpt lat="41.209717" lon="-3.544683">
        <ele>1829.0</ele>
        <time>2017-09-30T13:20:24Z</time>
      </trkpt>
      <trkpt lat="41.209783" lon="-3.544717">
        <ele>1826.0</ele>
        <time>2017-09-30T13:20:25Z</time>
      </trkpt>
      <trkpt lat="41.209867" lon="-3.544733">
        <ele>1824.0</ele>
        <time>2017-09-30T13:20:26Z</time>
      </trkpt>
      <trkpt lat="41.209933" lon="-3.544767">
        <ele>1823.0</ele>
        <time>2017-09-30T13:20:27Z</time>
      </trkpt>
      <trkpt lat="41.210017" lon="-3.544767">
        <ele>1822.0</ele>
        <time>2017-09-30T13:20:28Z</time>
      </trkpt>
      <trkpt lat="41.210083" lon="-3.544767">
        <ele>1821.0</ele>
        <time>2017-09-30T13:20:29Z</time>
      </trkpt>
      <trkpt lat="41.210133" lon="-3.544767">
        <ele>1819.0</ele>
        <time>2017-09-30T13:20:30Z</time>
      </trkpt>
      <trkpt lat="41.210200" lon="-3.544800">
        <ele>1815.0</ele>
        <time>2017-09-30T13:20:31Z</time>
      </trkpt>
      <trkpt lat="41.210267" lon="-3.544817">
        <ele>1812.0</ele>
        <time>2017-09-30T13:20:32Z</time>
      </trkpt>
      <trkpt lat="41.210350" lon="-3.544833">
        <ele>1809.0</ele>
        <time>2017-09-30T13:20:33Z</time>
      </trkpt>
      <trkpt lat="41.210450" lon="-3.544850">
        <ele>1807.0</ele>
        <time>2017-09-30T13:20:34Z</time>
      </trkpt>
      <trkpt lat="41.210533" lon="-3.544867">
        <ele>1805.0</ele>
        <time>2017-09-30T13:20:35Z</time>
      </trkpt>
      <trkpt lat="41.210617" lon="-3.544900">
        <ele>1803.0</ele>
        <time>2017-09-30T13:20:36Z</time>
      </trkpt>
      <trkpt lat="41.210683" lon="-3.544917">
        <ele>1802.0</ele>
        <time>2017-09-30T13:20:37Z</time>
      </trkpt>
      <trkpt lat="41.210767" lon="-3.544950">
        <ele>1800.0</ele>
        <time>2017-09-30T13:20:38Z</time>
      </trkpt>
      <trkpt lat="41.210850" lon="-3.544967">
        <ele>1798.0</ele>
        <time>2017-09-30T13:20:39Z</time>
      </trkpt>
      <trkpt lat="41.210933" lon="-3.544967">
        <ele>1795.0</ele>
        <time>2017-09-30T13:20:40Z</time>
      </trkpt>
      <trkpt lat="41.211017" lon="-3.544983">
        <ele>1793.0</ele>
        <time>2017-09-30T13:20:41Z</time>
      </trkpt>
      <trkpt lat="41.211100" lon="-3.545000">
        <ele>1792.0</ele>
        <time>2017-09-30T13:20:42Z</time>
      </trkpt>
      <trkpt lat="41.211183" lon="-3.545000">
        <ele>1790.0</ele>
        <time>2017-09-30T13:20:43Z</time>
      </trkpt>
      <trkpt lat="41.211267" lon="-3.545017">
        <ele>1789.0</ele>
        <time>2017-09-30T13:20:44Z</time>
      </trkpt>
      <trkpt lat="41.211350" lon="-3.545017">
        <ele>1787.0</ele>
        <time>2017-09-30T13:20:45Z</time>
      </trkpt>
      <trkpt lat="41.211417" lon="-3.545033">
        <ele>1785.0</ele>
        <time>2017-09-30T13:20:46Z</time>
      </trkpt>
      <trkpt lat="41.211483" lon="-3.545050">
        <ele>1783.0</ele>
        <time>2017-09-30T13:20:47Z</time>
      </trkpt>
      <trkpt lat="41.211567" lon="-3.545067">
        <ele>1780.0</ele>
        <time>2017-09-30T13:20:48Z</time>
      </trkpt>
      <trkpt lat="41.211667" lon="-3.545083">
        <ele>1778.0</ele>
        <time>2017-09-30T13:20:49Z</time>
      </trkpt>
      <trkpt lat="41.211750" lon="-3.545083">
        <ele>1776.0</ele>
        <time>2017-09-30T13:20:50Z</time>
      </trkpt>
      <trkpt lat="41.211833" lon="-3.545083">
        <ele>1774.0</ele>
        <time>2017-09-30T13:20:51Z</time>
      </trkpt>
      <trkpt lat="41.211917" lon="-3.545100">
        <ele>1773.0</ele>
        <time>2017-09-30T13:20:52Z</time>
      </trkpt>
      <trkpt lat="41.212000" lon="-3.545100">
        <ele>1771.0</ele>
        <time>2017-09-30T13:20:53Z</time>
      </trkpt>
      <trkpt lat="41.212083" lon="-3.545117">
        <ele>1769.0</ele>
        <time>2017-09-30T13:20:54Z</time>
      </trkpt>
      <trkpt lat="41.212167" lon="-3.545117">
        <ele>1766.0</ele>
        <time>2017-09-30T13:20:55Z</time>
      </trkpt>
      <trkpt lat="41.212267" lon="-3.545117">
        <ele>1764.0</ele>
        <time>2017-09-30T13:20:56Z</time>
      </trkpt>
      <trkpt lat="41.212367" lon="-3.545117">
        <ele>1763.0</ele>
        <time>2017-09-30T13:20:57Z</time>
      </trkpt>
      <trkpt lat="41.212450" lon="-3.545100">
        <ele>1762.0</ele>
        <time>2017-09-30T13:20:58Z</time>
      </trkpt>
      <trkpt lat="41.212517" lon="-3.545100">
        <ele>1762.0</ele>
        <time>2017-09-30T13:20:59Z</time>
      </trkpt>
      <trkpt lat="41.212583" lon="-3.545117">
        <ele>1761.0</ele>
        <time>2017-09-30T13:21:00Z</time>
      </trkpt>
      <trkpt lat="41.212650" lon="-3.545117">
        <ele>1760.0</ele>
        <time>2017-09-30T13:21:01Z</time>
      </trkpt>
      <trkpt lat="41.212700" lon="-3.545133">
        <ele>1758.0</ele>
        <time>2017-09-30T13:21:02Z</time>
      </trkpt>
      <trkpt lat="41.212767" lon="-3.545167">
        <ele>1756.0</ele>
        <time>2017-09-30T13:21:03Z</time>
      </trkpt>
      <trkpt lat="41.212833" lon="-3.545200">
        <ele>1754.0</ele>
        <time>2017-09-30T13:21:04Z</time>
      </trkpt>
      <trkpt lat="41.212900" lon="-3.545217">
        <ele>1754.0</ele>
        <time>2017-09-30T13:21:05Z</time>
      </trkpt>
      <trkpt lat="41.212950" lon="-3.545233">
        <ele>1753.0</ele>
        <time>2017-09-30T13:21:06Z</time>
      </trkpt>
      <trkpt lat="41.213017" lon="-3.545250">
        <ele>1753.0</ele>
        <time>2017-09-30T13:21:07Z</time>
      </trkpt>
      <trkpt lat="41.213067" lon="-3.545283">
        <ele>1752.0</ele>
        <time>2017-09-30T13:21:08Z</time>
      </trkpt>
      <trkpt lat="41.213117" lon="-3.545317">
        <ele>1749.0</ele>
        <time>2017-09-30T13:21:09Z</time>
      </trkpt>
      <trkpt lat="41.213183" lon="-3.545350">
        <ele>1747.0</ele>
        <time>2017-09-30T13:21:10Z</time>
      </trkpt>
      <trkpt lat="41.213250" lon="-3.545383">
        <ele>1745.0</ele>
        <time>2017-09-30T13:21:11Z</time>
      </trkpt>
      <trkpt lat="41.213317" lon="-3.545400">
        <ele>1743.0</ele>
        <time>2017-09-30T13:21:12Z</time>
      </trkpt>
      <trkpt lat="41.213383" lon="-3.545417">
        <ele>1742.0</ele>
        <time>2017-09-30T13:21:13Z</time>
      </trkpt>
      <trkpt lat="41.213450" lon="-3.545450">
        <ele>1741.0</ele>
        <time>2017-09-30T13:21:14Z</time>
      </trkpt>
      <trkpt lat="41.213517" lon="-3.545467">
        <ele>1739.0</ele>
        <time>2017-09-30T13:21:15Z</time>
      </trkpt>
      <trkpt lat="41.213567" lon="-3.545467">
        <ele>1737.0</ele>
        <time>2017-09-30T13:21:16Z</time>
      </trkpt>
      <trkpt lat="41.213633" lon="-3.545483">
        <ele>1734.0</ele>
        <time>2017-09-30T13:21:17Z</time>
      </trkpt>
      <trkpt lat="41.213700" lon="-3.545483">
        <ele>1731.0</ele>
        <time>2017-09-30T13:21:18Z</time>
      </trkpt>
      <trkpt lat="41.213783" lon="-3.545500">
        <ele>1728.0</ele>
        <time>2017-09-30T13:21:19Z</time>
      </trkpt>
      <trkpt lat="41.213867" lon="-3.545517">
        <ele>1727.0</ele>
        <time>2017-09-30T13:21:20Z</time>
      </trkpt>
      <trkpt lat="41.213933" lon="-3.545517">
        <ele>1726.0</ele>
        <time>2017-09-30T13:21:21Z</time>
      </trkpt>
      <trkpt lat="41.214000" lon="-3.545517">
        <ele>1725.0</ele>
        <time>2017-09-30T13:21:22Z</time>
      </trkpt>
      <trkpt lat="41.214067" lon="-3.545533">
        <ele>1724.0</ele>
        <time>2017-09-30T13:21:23Z</time>
      </trkpt>
      <trkpt lat="41.214133" lon="-3.545533">
        <ele>1723.0</ele>
        <time>2017-09-30T13:21:24Z</time>
      </trkpt>
      <trkpt lat="41.214183" lon="-3.545550">
        <ele>1721.0</ele>
        <time>2017-09-30T13:21:25Z</time>
      </trkpt>
      <trkpt lat="41.214250" lon="-3.545567">
        <ele>1719.0</ele>
        <time>2017-09-30T13:21:26Z</time>
      </trkpt>
      <trkpt lat="41.214317" lon="-3.545600">
        <ele>1718.0</ele>
        <time>2017-09-30T13:21:27Z</time>
      </trkpt>
      <trkpt lat="41.214367" lon="-3.545617">
        <ele>1717.0</ele>
        <time>2017-09-30T13:21:28Z</time>
      </trkpt>
      <trkpt lat="41.214417" lon="-3.545633">
        <ele>1716.0</ele>
        <time>2017-09-30T13:21:29Z</time>
      </trkpt>
      <trkpt lat="41.214483" lon="-3.545650">
        <ele>1714.0</ele>
        <time>2017-09-30T13:21:30Z</time>
      </trkpt>
      <trkpt lat="41.214517" lon="-3.545683">
        <ele>1713.0</ele>
        <time>2017-09-30T13:21:31Z</time>
      </trkpt>
      <trkpt lat="41.214567" lon="-3.545717">
        <ele>1711.0</ele>
        <time>2017-09-30T13:21:32Z</time>
      </trkpt>
      <trkpt lat="41.214600" lon="-3.545750">
        <ele>1709.0</ele>
        <time>2017-09-30T13:21:33Z</time>
      </trkpt>
      <trkpt lat="41.214667" lon="-3.545767">
        <ele>1706.0</ele>
        <time>2017-09-30T13:21:34Z</time>
      </trkpt>
      <trkpt lat="41.214717" lon="-3.545783">
        <ele>1704.0</ele>
        <time>2017-09-30T13:21:35Z</time>
      </trkpt>
      <trkpt lat="41.214783" lon="-3.545800">
        <ele>1702.0</ele>
        <time>2017-09-30T13:21:36Z</time>
      </trkpt>
      <trkpt lat="41.214833" lon="-3.545817">
        <ele>1701.0</ele>
        <time>2017-09-30T13:21:37Z</time>
      </trkpt>
      <trkpt lat="41.214883" lon="-3.545833">
        <ele>1700.0</ele>
        <time>2017-09-30T13:21:38Z</time>
      </trkpt>
      <trkpt lat="41.214917" lon="-3.545850">
        <ele>1699.0</ele>
        <time>2017-09-30T13:21:39Z</time>
      </trkpt>
      <trkpt lat="41.214967" lon="-3.545867">
        <ele>1698.0</ele>
        <time>2017-09-30T13:21:40Z</time>
      </trkpt>
      <trkpt lat="41.215033" lon="-3.545900">
        <ele>1697.0</ele>
        <time>2017-09-30T13:21:41Z</time>
      </trkpt>
      <trkpt lat="41.215083" lon="-3.545917">
        <ele>1697.0</ele>
        <time>2017-09-30T13:21:42Z</time>
      </trkpt>
      <trkpt lat="41.215117" lon="-3.545967">
        <ele>1697.0</ele>
        <time>2017-09-30T13:21:43Z</time>
      </trkpt>
      <trkpt lat="41.215150" lon="-3.546000">
        <ele>1697.0</ele>
        <time>2017-09-30T13:21:44Z</time>
      </trkpt>
      <trkpt lat="41.215200" lon="-3.546033">
        <ele>1697.0</ele>
        <time>2017-09-30T13:21:45Z</time>
      </trkpt>
      <trkpt lat="41.215233" lon="-3.546067">
        <ele>1696.0</ele>
        <time>2017-09-30T13:21:46Z</time>
      </trkpt>
      <trkpt lat="41.215300" lon="-3.546117">
        <ele>1696.0</ele>
        <time>2017-09-30T13:21:47Z</time>
      </trkpt>
      <trkpt lat="41.215367" lon="-3.546150">
        <ele>1697.0</ele>
        <time>2017-09-30T13:21:48Z</time>
      </trkpt>
      <trkpt lat="41.215433" lon="-3.546183">
        <ele>1699.0</ele>
        <time>2017-09-30T13:21:49Z</time>
      </trkpt>
      <trkpt lat="41.215500" lon="-3.546200">
        <ele>1702.0</ele>
        <time>2017-09-30T13:21:50Z</time>
      </trkpt>
      <trkpt lat="41.215567" lon="-3.546183">
        <ele>1704.0</ele>
        <time>2017-09-30T13:21:51Z</time>
      </trkpt>
      <trkpt lat="41.215633" lon="-3.546167">
        <ele>1705.0</ele>
        <time>2017-09-30T13:21:52Z</time>
      </trkpt>
      <trkpt lat="41.215717" lon="-3.546133">
        <ele>1706.0</ele>
        <time>2017-09-30T13:21:53Z</time>
      </trkpt>
      <trkpt lat="41.215800" lon="-3.546050">
        <ele>1705.0</ele>
        <time>2017-09-30T13:21:54Z</time>
      </trkpt>
      <trkpt lat="41.215900" lon="-3.545950">
        <ele>1705.0</ele>
        <time>2017-09-30T13:21:55Z</time>
      </trkpt>
      <trkpt lat="41.215983" lon="-3.545817">
        <ele>1706.0</ele>
        <time>2017-09-30T13:21:56Z</time>
      </trkpt>
      <trkpt lat="41.216050" lon="-3.545700">
        <ele>1709.0</ele>
        <time>2017-09-30T13:21:57Z</time>
      </trkpt>
      <trkpt lat="41.216083" lon="-3.545567">
        <ele>1712.0</ele>
        <time>2017-09-30T13:21:58Z</time>
      </trkpt>
      <trkpt lat="41.216083" lon="-3.545433">
        <ele>1714.0</ele>
        <time>2017-09-30T13:21:59Z</time>
      </trkpt>
      <trkpt lat="41.216067" lon="-3.545300">
        <ele>1714.0</ele>
        <time>2017-09-30T13:22:00Z</time>
      </trkpt>
      <trkpt lat="41.216033" lon="-3.545150">
        <ele>1714.0</ele>
        <time>2017-09-30T13:22:01Z</time>
      </trkpt>
      <trkpt lat="41.215967" lon="-3.545017">
        <ele>1714.0</ele>
        <time>2017-09-30T13:22:02Z</time>
      </trkpt>
      <trkpt lat="41.215900" lon="-3.544917">
        <ele>1714.0</ele>
        <time>2017-09-30T13:22:03Z</time>
      </trkpt>
      <trkpt lat="41.215817" lon="-3.544850">
        <ele>1715.0</ele>
        <time>2017-09-30T13:22:04Z</time>
      </trkpt>
      <trkpt lat="41.215733" lon="-3.544817">
        <ele>1716.0</ele>
        <time>2017-09-30T13:22:05Z</time>
      </trkpt>
      <trkpt lat="41.215650" lon="-3.544800">
        <ele>1717.0</ele>
        <time>2017-09-30T13:22:06Z</time>
      </trkpt>
      <trkpt lat="41.215567" lon="-3.544783">
        <ele>1718.0</ele>
        <time>2017-09-30T13:22:07Z</time>
      </trkpt>
      <trkpt lat="41.215500" lon="-3.544800">
        <ele>1720.0</ele>
        <time>2017-09-30T13:22:08Z</time>
      </trkpt>
      <trkpt lat="41.215450" lon="-3.544833">
        <ele>1720.0</ele>
        <time>2017-09-30T13:22:09Z</time>
      </trkpt>
      <trkpt lat="41.215417" lon="-3.544883">
        <ele>1721.0</ele>
        <time>2017-09-30T13:22:10Z</time>
      </trkpt>
      <trkpt lat="41.215383" lon="-3.544967">
        <ele>1722.0</ele>
        <time>2017-09-30T13:22:11Z</time>
      </trkpt>
      <trkpt lat="41.215383" lon="-3.545033">
        <ele>1722.0</ele>
        <time>2017-09-30T13:22:12Z</time>
      </trkpt>
      <trkpt lat="41.215400" lon="-3.545117">
        <ele>1724.0</ele>
        <time>2017-09-30T13:22:13Z</time>
      </trkpt>
      <trkpt lat="41.215433" lon="-3.545183">
        <ele>1725.0</ele>
        <time>2017-09-30T13:22:14Z</time>
      </trkpt>
      <trkpt lat="41.215450" lon="-3.545217">
        <ele>1726.0</ele>
        <time>2017-09-30T13:22:15Z</time>
      </trkpt>
      <trkpt lat="41.215500" lon="-3.545267">
        <ele>1727.0</ele>
        <time>2017-09-30T13:22:16Z</time>
      </trkpt>
      <trkpt lat="41.215567" lon="-3.545283">
        <ele>1727.0</ele>
        <time>2017-09-30T13:22:17Z</time>
      </trkpt>
      <trkpt lat="41.215650" lon="-3.545283">
        <ele>1726.0</ele>
        <time>2017-09-30T13:22:18Z</time>
      </trkpt>
      <trkpt lat="41.215750" lon="-3.545267">
        <ele>1726.0</ele>
        <time>2017-09-30T13:22:19Z</time>
      </trkpt>
      <trkpt lat="41.215850" lon="-3.545233">
        <ele>1727.0</ele>
        <time>2017-09-30T13:22:20Z</time>
      </trkpt>
      <trkpt lat="41.215933" lon="-3.545183">
        <ele>1728.0</ele>
        <time>2017-09-30T13:22:21Z</time>
      </trkpt>
      <trkpt lat="41.216017" lon="-3.545100">
        <ele>1729.0</ele>
        <time>2017-09-30T13:22:22Z</time>
      </trkpt>
      <trkpt lat="41.216100" lon="-3.544983">
        <ele>1729.0</ele>
        <time>2017-09-30T13:22:23Z</time>
      </trkpt>
      <trkpt lat="41.216150" lon="-3.544850">
        <ele>1730.0</ele>
        <time>2017-09-30T13:22:24Z</time>
      </trkpt>
      <trkpt lat="41.216200" lon="-3.544717">
        <ele>1732.0</ele>
        <time>2017-09-30T13:22:25Z</time>
      </trkpt>
      <trkpt lat="41.216200" lon="-3.544583">
        <ele>1734.0</ele>
        <time>2017-09-30T13:22:26Z</time>
      </trkpt>
      <trkpt lat="41.216200" lon="-3.544433">
        <ele>1735.0</ele>
        <time>2017-09-30T13:22:27Z</time>
      </trkpt>
      <trkpt lat="41.216150" lon="-3.544300">
        <ele>1736.0</ele>
        <time>2017-09-30T13:22:28Z</time>
      </trkpt>
      <trkpt lat="41.216100" lon="-3.544200">
        <ele>1737.0</ele>
        <time>2017-09-30T13:22:29Z</time>
      </trkpt>
      <trkpt lat="41.216033" lon="-3.544100">
        <ele>1738.0</ele>
        <time>2017-09-30T13:22:30Z</time>
      </trkpt>
      <trkpt lat="41.215950" lon="-3.544050">
        <ele>1738.0</ele>
        <time>2017-09-30T13:22:31Z</time>
      </trkpt>
      <trkpt lat="41.215867" lon="-3.544000">
        <ele>1739.0</ele>
        <time>2017-09-30T13:22:32Z</time>
      </trkpt>
      <trkpt lat="41.215783" lon="-3.543967">
        <ele>1740.0</ele>
        <time>2017-09-30T13:22:33Z</time>
      </trkpt>
      <trkpt lat="41.215700" lon="-3.543967">
        <ele>1740.0</ele>
        <time>2017-09-30T13:22:34Z</time>
      </trkpt>
      <trkpt lat="41.215617" lon="-3.544000">
        <ele>1741.0</ele>
        <time>2017-09-30T13:22:35Z</time>
      </trkpt>
      <trkpt lat="41.215567" lon="-3.544050">
        <ele>1741.0</ele>
        <time>2017-09-30T13:22:36Z</time>
      </trkpt>
      <trkpt lat="41.215517" lon="-3.544117">
        <ele>1741.0</ele>
        <time>2017-09-30T13:22:37Z</time>
      </trkpt>
      <trkpt lat="41.215500" lon="-3.544183">
        <ele>1742.0</ele>
        <time>2017-09-30T13:22:38Z</time>
      </trkpt>
      <trkpt lat="41.215500" lon="-3.544267">
        <ele>1743.0</ele>
        <time>2017-09-30T13:22:39Z</time>
      </trkpt>
      <trkpt lat="41.215517" lon="-3.544333">
        <ele>1744.0</ele>
        <time>2017-09-30T13:22:40Z</time>
      </trkpt>
      <trkpt lat="41.215550" lon="-3.544400">
        <ele>1745.0</ele>
        <time>2017-09-30T13:22:41Z</time>
      </trkpt>
      <trkpt lat="41.215567" lon="-3.544467">
        <ele>1745.0</ele>
        <time>2017-09-30T13:22:42Z</time>
      </trkpt>
      <trkpt lat="41.215600" lon="-3.544533">
        <ele>1746.0</ele>
        <time>2017-09-30T13:22:43Z</time>
      </trkpt>
      <trkpt lat="41.215650" lon="-3.544583">
        <ele>1745.0</ele>
        <time>2017-09-30T13:22:44Z</time>
      </trkpt>
      <trkpt lat="41.215700" lon="-3.544617">
        <ele>1744.0</ele>
        <time>2017-09-30T13:22:45Z</time>
      </trkpt>
      <trkpt lat="41.215783" lon="-3.544633">
        <ele>1742.0</ele>
        <time>2017-09-30T13:22:46Z</time>
      </trkpt>
      <trkpt lat="41.215867" lon="-3.544650">
        <ele>1741.0</ele>
        <time>2017-09-30T13:22:47Z</time>
      </trkpt>
      <trkpt lat="41.215950" lon="-3.544650">
        <ele>1740.0</ele>
        <time>2017-09-30T13:22:48Z</time>
      </trkpt>
      <trkpt lat="41.216050" lon="-3.544633">
        <ele>1740.0</ele>
        <time>2017-09-30T13:22:49Z</time>
      </trkpt>
      <trkpt lat="41.216150" lon="-3.544583">
        <ele>1742.0</ele>
        <time>2017-09-30T13:22:50Z</time>
      </trkpt>
      <trkpt lat="41.216233" lon="-3.544517">
        <ele>1744.0</ele>
        <time>2017-09-30T13:22:51Z</time>
      </trkpt>
      <trkpt lat="41.216300" lon="-3.544450">
        <ele>1747.0</ele>
        <time>2017-09-30T13:22:52Z</time>
      </trkpt>
      <trkpt lat="41.216367" lon="-3.544367">
        <ele>1749.0</ele>
        <time>2017-09-30T13:22:53Z</time>
      </trkpt>
      <trkpt lat="41.216433" lon="-3.544300">
        <ele>1750.0</ele>
        <time>2017-09-30T13:22:54Z</time>
      </trkpt>
      <trkpt lat="41.216483" lon="-3.544200">
        <ele>1751.0</ele>
        <time>2017-09-30T13:22:55Z</time>
      </trkpt>
      <trkpt lat="41.216517" lon="-3.544083">
        <ele>1750.0</ele>
        <time>2017-09-30T13:22:56Z</time>
      </trkpt>
      <trkpt lat="41.216533" lon="-3.543933">
        <ele>1750.0</ele>
        <time>2017-09-30T13:22:57Z</time>
      </trkpt>
      <trkpt lat="41.216500" lon="-3.543800">
        <ele>1750.0</ele>
        <time>2017-09-30T13:22:58Z</time>
      </trkpt>
      <trkpt lat="41.216450" lon="-3.543667">
        <ele>1751.0</ele>
        <time>2017-09-30T13:22:59Z</time>
      </trkpt>
      <trkpt lat="41.216400" lon="-3.543583">
        <ele>1752.0</ele>
        <time>2017-09-30T13:23:00Z</time>
      </trkpt>
      <trkpt lat="41.216317" lon="-3.543517">
        <ele>1753.0</ele>
        <time>2017-09-30T13:23:01Z</time>
      </trkpt>
      <trkpt lat="41.216233" lon="-3.543483">
        <ele>1754.0</ele>
        <time>2017-09-30T13:23:02Z</time>
      </trkpt>
      <trkpt lat="41.216150" lon="-3.543467">
        <ele>1755.0</ele>
        <time>2017-09-30T13:23:03Z</time>
      </trkpt>
      <trkpt lat="41.216083" lon="-3.543500">
        <ele>1756.0</ele>
        <time>2017-09-30T13:23:04Z</time>
      </trkpt>
      <trkpt lat="41.216033" lon="-3.543550">
        <ele>1757.0</ele>
        <time>2017-09-30T13:23:05Z</time>
      </trkpt>
      <trkpt lat="41.215983" lon="-3.543617">
        <ele>1758.0</ele>
        <time>2017-09-30T13:23:06Z</time>
      </trkpt>
      <trkpt lat="41.215967" lon="-3.543700">
        <ele>1759.0</ele>
        <time>2017-09-30T13:23:07Z</time>
      </trkpt>
      <trkpt lat="41.215983" lon="-3.543783">
        <ele>1760.0</ele>
        <time>2017-09-30T13:23:08Z</time>
      </trkpt>
      <trkpt lat="41.216017" lon="-3.543867">
        <ele>1761.0</ele>
        <time>2017-09-30T13:23:09Z</time>
      </trkpt>
      <trkpt lat="41.216083" lon="-3.543917">
        <ele>1761.0</ele>
        <time>2017-09-30T13:23:10Z</time>
      </trkpt>
      <trkpt lat="41.216133" lon="-3.543967">
        <ele>1762.0</ele>
        <time>2017-09-30T13:23:11Z</time>
      </trkpt>
      <trkpt lat="41.216200" lon="-3.544033">
        <ele>1762.0</ele>
        <time>2017-09-30T13:23:12Z</time>
      </trkpt>
      <trkpt lat="41.216250" lon="-3.544067">
        <ele>1764.0</ele>
        <time>2017-09-30T13:23:13Z</time>
      </trkpt>
      <trkpt lat="41.216317" lon="-3.544117">
        <ele>1764.0</ele>
        <time>2017-09-30T13:23:14Z</time>
      </trkpt>
      <trkpt lat="41.216383" lon="-3.544150">
        <ele>1765.0</ele>
        <time>2017-09-30T13:23:15Z</time>
      </trkpt>
      <trkpt lat="41.216450" lon="-3.544167">
        <ele>1765.0</ele>
        <time>2017-09-30T13:23:16Z</time>
      </trkpt>
      <trkpt lat="41.216533" lon="-3.544150">
        <ele>1766.0</ele>
        <time>2017-09-30T13:23:17Z</time>
      </trkpt>
      <trkpt lat="41.216617" lon="-3.544100">
        <ele>1767.0</ele>
        <time>2017-09-30T13:23:18Z</time>
      </trkpt>
      <trkpt lat="41.216700" lon="-3.544000">
        <ele>1768.0</ele>
        <time>2017-09-30T13:23:19Z</time>
      </trkpt>
      <trkpt lat="41.216750" lon="-3.543883">
        <ele>1768.0</ele>
        <time>2017-09-30T13:23:20Z</time>
      </trkpt>
      <trkpt lat="41.216800" lon="-3.543750">
        <ele>1770.0</ele>
        <time>2017-09-30T13:23:21Z</time>
      </trkpt>
      <trkpt lat="41.216833" lon="-3.543617">
        <ele>1772.0</ele>
        <time>2017-09-30T13:23:22Z</time>
      </trkpt>
      <trkpt lat="41.216833" lon="-3.543467">
        <ele>1774.0</ele>
        <time>2017-09-30T13:23:23Z</time>
      </trkpt>
      <trkpt lat="41.216817" lon="-3.543333">
        <ele>1776.0</ele>
        <time>2017-09-30T13:23:24Z</time>
      </trkpt>
      <trkpt lat="41.216767" lon="-3.543217">
        <ele>1777.0</ele>
        <time>2017-09-30T13:23:25Z</time>
      </trkpt>
      <trkpt lat="41.216700" lon="-3.543117">
        <ele>1778.0</ele>
        <time>2017-09-30T13:23:26Z</time>
      </trkpt>
      <trkpt lat="41.216617" lon="-3.543050">
        <ele>1779.0</ele>
        <time>2017-09-30T13:23:27Z</time>
      </trkpt>
      <trkpt lat="41.216533" lon="-3.543033">
        <ele>1780.0</ele>
        <time>2017-09-30T13:23:28Z</time>
      </trkpt>
      <trkpt lat="41.216450" lon="-3.543033">
        <ele>1780.0</ele>
        <time>2017-09-30T13:23:29Z</time>
      </trkpt>
      <trkpt lat="41.216383" lon="-3.543067">
        <ele>1780.0</ele>
        <time>2017-09-30T13:23:30Z</time>
      </trkpt>
      <trkpt lat="41.216317" lon="-3.543117">
        <ele>1780.0</ele>
        <time>2017-09-30T13:23:31Z</time>
      </trkpt>
      <trkpt lat="41.216267" lon="-3.543200">
        <ele>1781.0</ele>
        <time>2017-09-30T13:23:32Z</time>
      </trkpt>
      <trkpt lat="41.216250" lon="-3.543283">
        <ele>1782.0</ele>
        <time>2017-09-30T13:23:33Z</time>
      </trkpt>
      <trkpt lat="41.216267" lon="-3.543367">
        <ele>1782.0</ele>
        <time>2017-09-30T13:23:34Z</time>
      </trkpt>
      <trkpt lat="41.216317" lon="-3.543450">
        <ele>1783.0</ele>
        <time>2017-09-30T13:23:35Z</time>
      </trkpt>
      <trkpt lat="41.216383" lon="-3.543500">
        <ele>1784.0</ele>
        <time>2017-09-30T13:23:36Z</time>
      </trkpt>
      <trkpt lat="41.216450" lon="-3.543550">
        <ele>1786.0</ele>
        <time>2017-09-30T13:23:37Z</time>
      </trkpt>
      <trkpt lat="41.216517" lon="-3.543567">
        <ele>1787.0</ele>
        <time>2017-09-30T13:23:38Z</time>
      </trkpt>
      <trkpt lat="41.216583" lon="-3.543567">
        <ele>1788.0</ele>
        <time>2017-09-30T13:23:39Z</time>
      </trkpt>
      <trkpt lat="41.216650" lon="-3.543550">
        <ele>1788.0</ele>
        <time>2017-09-30T13:23:40Z</time>
      </trkpt>
      <trkpt lat="41.216750" lon="-3.543517">
        <ele>1787.0</ele>
        <time>2017-09-30T13:23:41Z</time>
      </trkpt>
      <trkpt lat="41.216833" lon="-3.543450">
        <ele>1787.0</ele>
        <time>2017-09-30T13:23:42Z</time>
      </trkpt>
      <trkpt lat="41.216917" lon="-3.543367">
        <ele>1788.0</ele>
        <time>2017-09-30T13:23:43Z</time>
      </trkpt>
      <trkpt lat="41.217000" lon="-3.543267">
        <ele>1789.0</ele>
        <time>2017-09-30T13:23:44Z</time>
      </trkpt>
      <trkpt lat="41.217050" lon="-3.543133">
        <ele>1790.0</ele>
        <time>2017-09-30T13:23:45Z</time>
      </trkpt>
      <trkpt lat="41.217083" lon="-3.542983">
        <ele>1792.0</ele>
        <time>2017-09-30T13:23:46Z</time>
      </trkpt>
      <trkpt lat="41.217100" lon="-3.542850">
        <ele>1793.0</ele>
        <time>2017-09-30T13:23:47Z</time>
      </trkpt>
      <trkpt lat="41.217083" lon="-3.542700">
        <ele>1795.0</ele>
        <time>2017-09-30T13:23:48Z</time>
      </trkpt>
      <trkpt lat="41.217050" lon="-3.542583">
        <ele>1797.0</ele>
        <time>2017-09-30T13:23:49Z</time>
      </trkpt>
      <trkpt lat="41.217000" lon="-3.542483">
        <ele>1799.0</ele>
        <time>2017-09-30T13:23:50Z</time>
      </trkpt>
      <trkpt lat="41.216933" lon="-3.542400">
        <ele>1799.0</ele>
        <time>2017-09-30T13:23:51Z</time>
      </trkpt>
      <trkpt lat="41.216850" lon="-3.542333">
        <ele>1801.0</ele>
        <time>2017-09-30T13:23:52Z</time>
      </trkpt>
      <trkpt lat="41.216767" lon="-3.542300">
        <ele>1802.0</ele>
        <time>2017-09-30T13:23:53Z</time>
      </trkpt>
      <trkpt lat="41.216683" lon="-3.542333">
        <ele>1804.0</ele>
        <time>2017-09-30T13:23:54Z</time>
      </trkpt>
      <trkpt lat="41.216633" lon="-3.542383">
        <ele>1805.0</ele>
        <time>2017-09-30T13:23:55Z</time>
      </trkpt>
      <trkpt lat="41.216583" lon="-3.542450">
        <ele>1806.0</ele>
        <time>2017-09-30T13:23:56Z</time>
      </trkpt>
      <trkpt lat="41.216583" lon="-3.542517">
        <ele>1807.0</ele>
        <time>2017-09-30T13:23:57Z</time>
      </trkpt>
      <trkpt lat="41.216600" lon="-3.542600">
        <ele>1808.0</ele>
        <time>2017-09-30T13:23:58Z</time>
      </trkpt>
      <trkpt lat="41.216633" lon="-3.542667">
        <ele>1808.0</ele>
        <time>2017-09-30T13:23:59Z</time>
      </trkpt>
      <trkpt lat="41.216667" lon="-3.542733">
        <ele>1808.0</ele>
        <time>2017-09-30T13:24:00Z</time>
      </trkpt>
      <trkpt lat="41.216717" lon="-3.542783">
        <ele>1809.0</ele>
        <time>2017-09-30T13:24:01Z</time>
      </trkpt>
      <trkpt lat="41.216767" lon="-3.542833">
        <ele>1810.0</ele>
        <time>2017-09-30T13:24:02Z</time>
      </trkpt>
      <trkpt lat="41.216833" lon="-3.542850">
        <ele>1811.0</ele>
        <time>2017-09-30T13:24:03Z</time>
      </trkpt>
      <trkpt lat="41.216917" lon="-3.542850">
        <ele>1811.0</ele>
        <time>2017-09-30T13:24:04Z</time>
      </trkpt>
      <trkpt lat="41.217017" lon="-3.542817">
        <ele>1812.0</ele>
        <time>2017-09-30T13:24:05Z</time>
      </trkpt>
      <trkpt lat="41.217100" lon="-3.542767">
        <ele>1813.0</ele>
        <time>2017-09-30T13:24:06Z</time>
      </trkpt>
      <trkpt lat="41.217183" lon="-3.542683">
        <ele>1814.0</ele>
        <time>2017-09-30T13:24:07Z</time>
      </trkpt>
      <trkpt lat="41.217267" lon="-3.542583">
        <ele>1814.0</ele>
        <time>2017-09-30T13:24:08Z</time>
      </trkpt>
      <trkpt lat="41.217333" lon="-3.542467">
        <ele>1815.0</ele>
        <time>2017-09-30T13:24:09Z</time>
      </trkpt>
      <trkpt lat="41.217383" lon="-3.542333">
        <ele>1815.0</ele>
        <time>2017-09-30T13:24:10Z</time>
      </trkpt>
      <trkpt lat="41.217417" lon="-3.542200">
        <ele>1816.0</ele>
        <time>2017-09-30T13:24:11Z</time>
      </trkpt>
      <trkpt lat="41.217433" lon="-3.542050">
        <ele>1815.0</ele>
        <time>2017-09-30T13:24:12Z</time>
      </trkpt>
      <trkpt lat="41.217417" lon="-3.541900">
        <ele>1815.0</ele>
        <time>2017-09-30T13:24:13Z</time>
      </trkpt>
      <trkpt lat="41.217367" lon="-3.541767">
        <ele>1816.0</ele>
        <time>2017-09-30T13:24:14Z</time>
      </trkpt>
      <trkpt lat="41.217300" lon="-3.541650">
        <ele>1818.0</ele>
        <time>2017-09-30T13:24:15Z</time>
      </trkpt>
      <trkpt lat="41.217233" lon="-3.541567">
        <ele>1820.0</ele>
        <time>2017-09-30T13:24:16Z</time>
      </trkpt>
      <trkpt lat="41.217167" lon="-3.541533">
        <ele>1822.0</ele>
        <time>2017-09-30T13:24:17Z</time>
      </trkpt>
      <trkpt lat="41.217100" lon="-3.541517">
        <ele>1822.0</ele>
        <time>2017-09-30T13:24:18Z</time>
      </trkpt>
      <trkpt lat="41.217033" lon="-3.541533">
        <ele>1823.0</ele>
        <time>2017-09-30T13:24:19Z</time>
      </trkpt>
      <trkpt lat="41.216983" lon="-3.541583">
        <ele>1824.0</ele>
        <time>2017-09-30T13:24:20Z</time>
      </trkpt>
      <trkpt lat="41.216950" lon="-3.541633">
        <ele>1826.0</ele>
        <time>2017-09-30T13:24:21Z</time>
      </trkpt>
      <trkpt lat="41.216917" lon="-3.541683">
        <ele>1827.0</ele>
        <time>2017-09-30T13:24:22Z</time>
      </trkpt>
      <trkpt lat="41.216917" lon="-3.541750">
        <ele>1827.0</ele>
        <time>2017-09-30T13:24:23Z</time>
      </trkpt>
      <trkpt lat="41.216933" lon="-3.541817">
        <ele>1827.0</ele>
        <time>2017-09-30T13:24:24Z</time>
      </trkpt>
      <trkpt lat="41.216983" lon="-3.541900">
        <ele>1827.0</ele>
        <time>2017-09-30T13:24:25Z</time>
      </trkpt>
      <trkpt lat="41.217033" lon="-3.541967">
        <ele>1828.0</ele>
        <time>2017-09-30T13:24:26Z</time>
      </trkpt>
      <trkpt lat="41.217083" lon="-3.542017">
        <ele>1829.0</ele>
        <time>2017-09-30T13:24:27Z</time>
      </trkpt>
      <trkpt lat="41.217167" lon="-3.542033">
        <ele>1829.0</ele>
        <time>2017-09-30T13:24:28Z</time>
      </trkpt>
      <trkpt lat="41.217250" lon="-3.542033">
        <ele>1829.0</ele>
        <time>2017-09-30T13:24:29Z</time>
      </trkpt>
      <trkpt lat="41.217333" lon="-3.542017">
        <ele>1829.0</ele>
        <time>2017-09-30T13:24:30Z</time>
      </trkpt>
      <trkpt lat="41.217417" lon="-3.541967">
        <ele>1829.0</ele>
        <time>2017-09-30T13:24:31Z</time>
      </trkpt>
      <trkpt lat="41.217517" lon="-3.541883">
        <ele>1829.0</ele>
        <time>2017-09-30T13:24:32Z</time>
      </trkpt>
      <trkpt lat="41.217583" lon="-3.541800">
        <ele>1830.0</ele>
        <time>2017-09-30T13:24:33Z</time>
      </trkpt>
      <trkpt lat="41.217650" lon="-3.541683">
        <ele>1829.0</ele>
        <time>2017-09-30T13:24:34Z</time>
      </trkpt>
      <trkpt lat="41.217700" lon="-3.541550">
        <ele>1829.0</ele>
        <time>2017-09-30T13:24:35Z</time>
      </trkpt>
      <trkpt lat="41.217750" lon="-3.541400">
        <ele>1829.0</ele>
        <time>2017-09-30T13:24:36Z</time>
      </trkpt>
      <trkpt lat="41.217783" lon="-3.541250">
        <ele>1829.0</ele>
        <time>2017-09-30T13:24:37Z</time>
      </trkpt>
      <trkpt lat="41.217800" lon="-3.541100">
        <ele>1829.0</ele>
        <time>2017-09-30T13:24:38Z</time>
      </trkpt>
      <trkpt lat="41.217800" lon="-3.540933">
        <ele>1828.0</ele>
        <time>2017-09-30T13:24:39Z</time>
      </trkpt>
      <trkpt lat="41.217800" lon="-3.540800">
        <ele>1829.0</ele>
        <time>2017-09-30T13:24:40Z</time>
      </trkpt>
      <trkpt lat="41.217783" lon="-3.540667">
        <ele>1831.0</ele>
        <time>2017-09-30T13:24:41Z</time>
      </trkpt>
      <trkpt lat="41.217767" lon="-3.540550">
        <ele>1832.0</ele>
        <time>2017-09-30T13:24:42Z</time>
      </trkpt>
      <trkpt lat="41.217733" lon="-3.540450">
        <ele>1832.0</ele>
        <time>2017-09-30T13:24:43Z</time>
      </trkpt>
      <trkpt lat="41.217700" lon="-3.540367">
        <ele>1831.0</ele>
        <time>2017-09-30T13:24:44Z</time>
      </trkpt>
      <trkpt lat="41.217633" lon="-3.540283">
        <ele>1829.0</ele>
        <time>2017-09-30T13:24:45Z</time>
      </trkpt>
      <trkpt lat="41.217550" lon="-3.540200">
        <ele>1829.0</ele>
        <time>2017-09-30T13:24:46Z</time>
      </trkpt>
      <trkpt lat="41.217483" lon="-3.540150">
        <ele>1831.0</ele>
        <time>2017-09-30T13:24:47Z</time>
      </trkpt>
      <trkpt lat="41.217417" lon="-3.540133">
        <ele>1833.0</ele>
        <time>2017-09-30T13:24:48Z</time>
      </trkpt>
      <trkpt lat="41.217350" lon="-3.540133">
        <ele>1835.0</ele>
        <time>2017-09-30T13:24:49Z</time>
      </trkpt>
      <trkpt lat="41.217283" lon="-3.540150">
        <ele>1836.0</ele>
        <time>2017-09-30T13:24:50Z</time>
      </trkpt>
      <trkpt lat="41.217217" lon="-3.540167">
        <ele>1837.0</ele>
        <time>2017-09-30T13:24:51Z</time>
      </trkpt>
      <trkpt lat="41.217167" lon="-3.540217">
        <ele>1838.0</ele>
        <time>2017-09-30T13:24:52Z</time>
      </trkpt>
      <trkpt lat="41.217150" lon="-3.540283">
        <ele>1839.0</ele>
        <time>2017-09-30T13:24:53Z</time>
      </trkpt>
      <trkpt lat="41.217150" lon="-3.540367">
        <ele>1840.0</ele>
        <time>2017-09-30T13:24:54Z</time>
      </trkpt>
      <trkpt lat="41.217183" lon="-3.540433">
        <ele>1840.0</ele>
        <time>2017-09-30T13:24:55Z</time>
      </trkpt>
      <trkpt lat="41.217250" lon="-3.540500">
        <ele>1841.0</ele>
        <time>2017-09-30T13:24:56Z</time>
      </trkpt>
      <trkpt lat="41.217317" lon="-3.540533">
        <ele>1842.0</ele>
        <time>2017-09-30T13:24:57Z</time>
      </trkpt>
      <trkpt lat="41.217400" lon="-3.540533">
        <ele>1843.0</ele>
        <time>2017-09-30T13:24:58Z</time>
      </trkpt>
      <trkpt lat="41.217500" lon="-3.540500">
        <ele>1843.0</ele>
        <time>2017-09-30T13:24:59Z</time>
      </trkpt>
      <trkpt lat="41.217583" lon="-3.540433">
        <ele>1843.0</ele>
        <time>2017-09-30T13:25:00Z</time>
      </trkpt>
      <trkpt lat="41.217667" lon="-3.540350">
        <ele>1844.0</ele>
        <time>2017-09-30T13:25:01Z</time>
      </trkpt>
      <trkpt lat="41.217733" lon="-3.540217">
        <ele>1844.0</ele>
        <time>2017-09-30T13:25:02Z</time>
      </trkpt>
      <trkpt lat="41.217767" lon="-3.540083">
        <ele>1845.0</ele>
        <time>2017-09-30T13:25:03Z</time>
      </trkpt>
      <trkpt lat="41.217783" lon="-3.539950">
        <ele>1845.0</ele>
        <time>2017-09-30T13:25:04Z</time>
      </trkpt>
      <trkpt lat="41.217783" lon="-3.539817">
        <ele>1845.0</ele>
        <time>2017-09-30T13:25:05Z</time>
      </trkpt>
      <trkpt lat="41.217750" lon="-3.539683">
        <ele>1845.0</ele>
        <time>2017-09-30T13:25:06Z</time>
      </trkpt>
      <trkpt lat="41.217717" lon="-3.539567">
        <ele>1846.0</ele>
        <time>2017-09-30T13:25:07Z</time>
      </trkpt>
      <trkpt lat="41.217667" lon="-3.539450">
        <ele>1848.0</ele>
        <time>2017-09-30T13:25:08Z</time>
      </trkpt>
      <trkpt lat="41.217633" lon="-3.539350">
        <ele>1849.0</ele>
        <time>2017-09-30T13:25:09Z</time>
      </trkpt>
      <trkpt lat="41.217600" lon="-3.539250">
        <ele>1849.0</ele>
        <time>2017-09-30T13:25:10Z</time>
      </trkpt>
      <trkpt lat="41.217533" lon="-3.539150">
        <ele>1850.0</ele>
        <time>2017-09-30T13:25:11Z</time>
      </trkpt>
      <trkpt lat="41.217467" lon="-3.539083">
        <ele>1851.0</ele>
        <time>2017-09-30T13:25:12Z</time>
      </trkpt>
      <trkpt lat="41.217400" lon="-3.539017">
        <ele>1852.0</ele>
        <time>2017-09-30T13:25:13Z</time>
      </trkpt>
      <trkpt lat="41.217333" lon="-3.538967">
        <ele>1853.0</ele>
        <time>2017-09-30T13:25:14Z</time>
      </trkpt>
      <trkpt lat="41.217250" lon="-3.538933">
        <ele>1854.0</ele>
        <time>2017-09-30T13:25:15Z</time>
      </trkpt>
      <trkpt lat="41.217183" lon="-3.538917">
        <ele>1855.0</ele>
        <time>2017-09-30T13:25:16Z</time>
      </trkpt>
      <trkpt lat="41.217117" lon="-3.538917">
        <ele>1856.0</ele>
        <time>2017-09-30T13:25:17Z</time>
      </trkpt>
      <trkpt lat="41.217033" lon="-3.538950">
        <ele>1857.0</ele>
        <time>2017-09-30T13:25:18Z</time>
      </trkpt>
      <trkpt lat="41.216983" lon="-3.538983">
        <ele>1858.0</ele>
        <time>2017-09-30T13:25:19Z</time>
      </trkpt>
      <trkpt lat="41.216933" lon="-3.539033">
        <ele>1859.0</ele>
        <time>2017-09-30T13:25:20Z</time>
      </trkpt>
      <trkpt lat="41.216900" lon="-3.539100">
        <ele>1861.0</ele>
        <time>2017-09-30T13:25:21Z</time>
      </trkpt>
      <trkpt lat="41.216883" lon="-3.539167">
        <ele>1861.0</ele>
        <time>2017-09-30T13:25:22Z</time>
      </trkpt>
      <trkpt lat="41.216883" lon="-3.539233">
        <ele>1861.0</ele>
        <time>2017-09-30T13:25:23Z</time>
      </trkpt>
      <trkpt lat="41.216900" lon="-3.539317">
        <ele>1861.0</ele>
        <time>2017-09-30T13:25:24Z</time>
      </trkpt>
      <trkpt lat="41.216933" lon="-3.539400">
        <ele>1861.0</ele>
        <time>2017-09-30T13:25:25Z</time>
      </trkpt>
      <trkpt lat="41.216967" lon="-3.539450">
        <ele>1862.0</ele>
        <time>2017-09-30T13:25:26Z</time>
      </trkpt>
      <trkpt lat="41.217033" lon="-3.539500">
        <ele>1863.0</ele>
        <time>2017-09-30T13:25:27Z</time>
      </trkpt>
      <trkpt lat="41.217100" lon="-3.539517">
        <ele>1863.0</ele>
        <time>2017-09-30T13:25:28Z</time>
      </trkpt>
      <trkpt lat="41.217183" lon="-3.539533">
        <ele>1862.0</ele>
        <time>2017-09-30T13:25:29Z</time>
      </trkpt>
      <trkpt lat="41.217267" lon="-3.539517">
        <ele>1862.0</ele>
        <time>2017-09-30T13:25:30Z</time>
      </trkpt>
      <trkpt lat="41.217350" lon="-3.539500">
        <ele>1862.0</ele>
        <time>2017-09-30T13:25:31Z</time>
      </trkpt>
      <trkpt lat="41.217433" lon="-3.539450">
        <ele>1862.0</ele>
        <time>2017-09-30T13:25:32Z</time>
      </trkpt>
      <trkpt lat="41.217533" lon="-3.539383">
        <ele>1861.0</ele>
        <time>2017-09-30T13:25:33Z</time>
      </trkpt>
      <trkpt lat="41.217617" lon="-3.539283">
        <ele>1861.0</ele>
        <time>2017-09-30T13:25:34Z</time>
      </trkpt>
      <trkpt lat="41.217683" lon="-3.539167">
        <ele>1861.0</ele>
        <time>2017-09-30T13:25:35Z</time>
      </trkpt>
      <trkpt lat="41.217750" lon="-3.539033">
        <ele>1863.0</ele>
        <time>2017-09-30T13:25:36Z</time>
      </trkpt>
      <trkpt lat="41.217800" lon="-3.538900">
        <ele>1865.0</ele>
        <time>2017-09-30T13:25:37Z</time>
      </trkpt>
      <trkpt lat="41.217833" lon="-3.538783">
        <ele>1867.0</ele>
        <time>2017-09-30T13:25:38Z</time>
      </trkpt>
      <trkpt lat="41.217867" lon="-3.538650">
        <ele>1868.0</ele>
        <time>2017-09-30T13:25:39Z</time>
      </trkpt>
      <trkpt lat="41.217883" lon="-3.538517">
        <ele>1869.0</ele>
        <time>2017-09-30T13:25:40Z</time>
      </trkpt>
      <trkpt lat="41.217867" lon="-3.538367">
        <ele>1869.0</ele>
        <time>2017-09-30T13:25:41Z</time>
      </trkpt>
      <trkpt lat="41.217850" lon="-3.538233">
        <ele>1870.0</ele>
        <time>2017-09-30T13:25:42Z</time>
      </trkpt>
      <trkpt lat="41.217817" lon="-3.538100">
        <ele>1870.0</ele>
        <time>2017-09-30T13:25:43Z</time>
      </trkpt>
      <trkpt lat="41.217783" lon="-3.537983">
        <ele>1871.0</ele>
        <time>2017-09-30T13:25:44Z</time>
      </trkpt>
      <trkpt lat="41.217733" lon="-3.537883">
        <ele>1871.0</ele>
        <time>2017-09-30T13:25:45Z</time>
      </trkpt>
      <trkpt lat="41.217667" lon="-3.537817">
        <ele>1872.0</ele>
        <time>2017-09-30T13:25:46Z</time>
      </trkpt>
      <trkpt lat="41.217600" lon="-3.537750">
        <ele>1872.0</ele>
        <time>2017-09-30T13:25:47Z</time>
      </trkpt>
      <trkpt lat="41.217533" lon="-3.537700">
        <ele>1872.0</ele>
        <time>2017-09-30T13:25:48Z</time>
      </trkpt>
      <trkpt lat="41.217450" lon="-3.537667">
        <ele>1873.0</ele>
        <time>2017-09-30T13:25:49Z</time>
      </trkpt>
      <trkpt lat="41.217367" lon="-3.537633">
        <ele>1873.0</ele>
        <time>2017-09-30T13:25:50Z</time>
      </trkpt>
      <trkpt lat="41.217300" lon="-3.537617">
        <ele>1875.0</ele>
        <time>2017-09-30T13:25:51Z</time>
      </trkpt>
      <trkpt lat="41.217250" lon="-3.537583">
        <ele>1877.0</ele>
        <time>2017-09-30T13:25:52Z</time>
      </trkpt>
      <trkpt lat="41.217183" lon="-3.537567">
        <ele>1879.0</ele>
        <time>2017-09-30T13:25:53Z</time>
      </trkpt>
      <trkpt lat="41.217117" lon="-3.537550">
        <ele>1879.0</ele>
        <time>2017-09-30T13:25:54Z</time>
      </trkpt>
      <trkpt lat="41.217050" lon="-3.537567">
        <ele>1879.0</ele>
        <time>2017-09-30T13:25:55Z</time>
      </trkpt>
      <trkpt lat="41.217000" lon="-3.537600">
        <ele>1879.0</ele>
        <time>2017-09-30T13:25:56Z</time>
      </trkpt>
      <trkpt lat="41.216950" lon="-3.537650">
        <ele>1880.0</ele>
        <time>2017-09-30T13:25:57Z</time>
      </trkpt>
      <trkpt lat="41.216917" lon="-3.537700">
        <ele>1880.0</ele>
        <time>2017-09-30T13:25:58Z</time>
      </trkpt>
      <trkpt lat="41.216883" lon="-3.537767">
        <ele>1881.0</ele>
        <time>2017-09-30T13:25:59Z</time>
      </trkpt>
      <trkpt lat="41.216883" lon="-3.537833">
        <ele>1881.0</ele>
        <time>2017-09-30T13:26:00Z</time>
      </trkpt>
      <trkpt lat="41.216900" lon="-3.537900">
        <ele>1882.0</ele>
        <time>2017-09-30T13:26:01Z</time>
      </trkpt>
      <trkpt lat="41.216917" lon="-3.537967">
        <ele>1882.0</ele>
        <time>2017-09-30T13:26:02Z</time>
      </trkpt>
      <trkpt lat="41.216967" lon="-3.538033">
        <ele>1882.0</ele>
        <time>2017-09-30T13:26:03Z</time>
      </trkpt>
      <trkpt lat="41.217017" lon="-3.538067">
        <ele>1881.0</ele>
        <time>2017-09-30T13:26:04Z</time>
      </trkpt>
      <trkpt lat="41.217067" lon="-3.538100">
        <ele>1880.0</ele>
        <time>2017-09-30T13:26:05Z</time>
      </trkpt>
      <trkpt lat="41.217133" lon="-3.538133">
        <ele>1879.0</ele>
        <time>2017-09-30T13:26:06Z</time>
      </trkpt>
      <trkpt lat="41.217217" lon="-3.538150">
        <ele>1877.0</ele>
        <time>2017-09-30T13:26:07Z</time>
      </trkpt>
      <trkpt lat="41.217317" lon="-3.538150">
        <ele>1875.0</ele>
        <time>2017-09-30T13:26:08Z</time>
      </trkpt>
      <trkpt lat="41.217417" lon="-3.538133">
        <ele>1874.0</ele>
        <time>2017-09-30T13:26:09Z</time>
      </trkpt>
      <trkpt lat="41.217517" lon="-3.538083">
        <ele>1873.0</ele>
        <time>2017-09-30T13:26:10Z</time>
      </trkpt>
      <trkpt lat="41.217617" lon="-3.538050">
        <ele>1875.0</ele>
        <time>2017-09-30T13:26:11Z</time>
      </trkpt>
      <trkpt lat="41.217700" lon="-3.537983">
        <ele>1876.0</ele>
        <time>2017-09-30T13:26:12Z</time>
      </trkpt>
      <trkpt lat="41.217767" lon="-3.537883">
        <ele>1876.0</ele>
        <time>2017-09-30T13:26:13Z</time>
      </trkpt>
      <trkpt lat="41.217833" lon="-3.537767">
        <ele>1877.0</ele>
        <time>2017-09-30T13:26:14Z</time>
      </trkpt>
      <trkpt lat="41.217867" lon="-3.537650">
        <ele>1877.0</ele>
        <time>2017-09-30T13:26:15Z</time>
      </trkpt>
      <trkpt lat="41.217900" lon="-3.537533">
        <ele>1878.0</ele>
        <time>2017-09-30T13:26:16Z</time>
      </trkpt>
      <trkpt lat="41.217917" lon="-3.537400">
        <ele>1878.0</ele>
        <time>2017-09-30T13:26:17Z</time>
      </trkpt>
      <trkpt lat="41.217917" lon="-3.537283">
        <ele>1878.0</ele>
        <time>2017-09-30T13:26:18Z</time>
      </trkpt>
      <trkpt lat="41.217900" lon="-3.537167">
        <ele>1879.0</ele>
        <time>2017-09-30T13:26:19Z</time>
      </trkpt>
      <trkpt lat="41.217883" lon="-3.537050">
        <ele>1880.0</ele>
        <time>2017-09-30T13:26:20Z</time>
      </trkpt>
      <trkpt lat="41.217850" lon="-3.536933">
        <ele>1881.0</ele>
        <time>2017-09-30T13:26:21Z</time>
      </trkpt>
      <trkpt lat="41.217817" lon="-3.536817">
        <ele>1882.0</ele>
        <time>2017-09-30T13:26:22Z</time>
      </trkpt>
      <trkpt lat="41.217767" lon="-3.536733">
        <ele>1883.0</ele>
        <time>2017-09-30T13:26:23Z</time>
      </trkpt>
      <trkpt lat="41.217700" lon="-3.536650">
        <ele>1883.0</ele>
        <time>2017-09-30T13:26:24Z</time>
      </trkpt>
      <trkpt lat="41.217633" lon="-3.536617">
        <ele>1884.0</ele>
        <time>2017-09-30T13:26:25Z</time>
      </trkpt>
      <trkpt lat="41.217550" lon="-3.536600">
        <ele>1885.0</ele>
        <time>2017-09-30T13:26:26Z</time>
      </trkpt>
      <trkpt lat="41.217500" lon="-3.536600">
        <ele>1886.0</ele>
        <time>2017-09-30T13:26:27Z</time>
      </trkpt>
      <trkpt lat="41.217433" lon="-3.536617">
        <ele>1886.0</ele>
        <time>2017-09-30T13:26:28Z</time>
      </trkpt>
      <trkpt lat="41.217383" lon="-3.536650">
        <ele>1886.0</ele>
        <time>2017-09-30T13:26:29Z</time>
      </trkpt>
      <trkpt lat="41.217350" lon="-3.536717">
        <ele>1885.0</ele>
        <time>2017-09-30T13:26:30Z</time>
      </trkpt>
      <trkpt lat="41.217333" lon="-3.536800">
        <ele>1885.0</ele>
        <time>2017-09-30T13:26:31Z</time>
      </trkpt>
      <trkpt lat="41.217333" lon="-3.536867">
        <ele>1885.0</ele>
        <time>2017-09-30T13:26:32Z</time>
      </trkpt>
      <trkpt lat="41.217350" lon="-3.536950">
        <ele>1886.0</ele>
        <time>2017-09-30T13:26:33Z</time>
      </trkpt>
      <trkpt lat="41.217383" lon="-3.537017">
        <ele>1887.0</ele>
        <time>2017-09-30T13:26:34Z</time>
      </trkpt>
      <trkpt lat="41.217433" lon="-3.537083">
        <ele>1887.0</ele>
        <time>2017-09-30T13:26:35Z</time>
      </trkpt>
      <trkpt lat="41.217483" lon="-3.537150">
        <ele>1888.0</ele>
        <time>2017-09-30T13:26:36Z</time>
      </trkpt>
      <trkpt lat="41.217550" lon="-3.537217">
        <ele>1889.0</ele>
        <time>2017-09-30T13:26:37Z</time>
      </trkpt>
      <trkpt lat="41.217617" lon="-3.537267">
        <ele>1889.0</ele>
        <time>2017-09-30T13:26:38Z</time>
      </trkpt>
      <trkpt lat="41.217700" lon="-3.537317">
        <ele>1890.0</ele>
        <time>2017-09-30T13:26:39Z</time>
      </trkpt>
      <trkpt lat="41.217800" lon="-3.537333">
        <ele>1891.0</ele>
        <time>2017-09-30T13:26:40Z</time>
      </trkpt>
      <trkpt lat="41.217900" lon="-3.537333">
        <ele>1891.0</ele>
        <time>2017-09-30T13:26:41Z</time>
      </trkpt>
      <trkpt lat="41.218000" lon="-3.537317">
        <ele>1892.0</ele>
        <time>2017-09-30T13:26:42Z</time>
      </trkpt>
      <trkpt lat="41.218083" lon="-3.537283">
        <ele>1893.0</ele>
        <time>2017-09-30T13:26:43Z</time>
      </trkpt>
      <trkpt lat="41.218167" lon="-3.537217">
        <ele>1894.0</ele>
        <time>2017-09-30T13:26:44Z</time>
      </trkpt>
      <trkpt lat="41.218233" lon="-3.537150">
        <ele>1894.0</ele>
        <time>2017-09-30T13:26:45Z</time>
      </trkpt>
      <trkpt lat="41.218300" lon="-3.537050">
        <ele>1893.0</ele>
        <time>2017-09-30T13:26:46Z</time>
      </trkpt>
      <trkpt lat="41.218350" lon="-3.536933">
        <ele>1892.0</ele>
        <time>2017-09-30T13:26:47Z</time>
      </trkpt>
      <trkpt lat="41.218383" lon="-3.536800">
        <ele>1891.0</ele>
        <time>2017-09-30T13:26:48Z</time>
      </trkpt>
      <trkpt lat="41.218400" lon="-3.536650">
        <ele>1891.0</ele>
        <time>2017-09-30T13:26:49Z</time>
      </trkpt>
      <trkpt lat="41.218400" lon="-3.536517">
        <ele>1891.0</ele>
        <time>2017-09-30T13:26:50Z</time>
      </trkpt>
      <trkpt lat="41.218383" lon="-3.536383">
        <ele>1892.0</ele>
        <time>2017-09-30T13:26:51Z</time>
      </trkpt>
      <trkpt lat="41.218350" lon="-3.536283">
        <ele>1893.0</ele>
        <time>2017-09-30T13:26:52Z</time>
      </trkpt>
      <trkpt lat="41.218317" lon="-3.536167">
        <ele>1894.0</ele>
        <time>2017-09-30T13:26:53Z</time>
      </trkpt>
      <trkpt lat="41.218283" lon="-3.536067">
        <ele>1894.0</ele>
        <time>2017-09-30T13:26:54Z</time>
      </trkpt>
      <trkpt lat="41.218233" lon="-3.535950">
        <ele>1894.0</ele>
        <time>2017-09-30T13:26:55Z</time>
      </trkpt>
      <trkpt lat="41.218183" lon="-3.535867">
        <ele>1895.0</ele>
        <time>2017-09-30T13:26:56Z</time>
      </trkpt>
      <trkpt lat="41.218117" lon="-3.535817">
        <ele>1896.0</ele>
        <time>2017-09-30T13:26:57Z</time>
      </trkpt>
      <trkpt lat="41.218067" lon="-3.535767">
        <ele>1898.0</ele>
        <time>2017-09-30T13:26:58Z</time>
      </trkpt>
      <trkpt lat="41.218000" lon="-3.535733">
        <ele>1898.0</ele>
        <time>2017-09-30T13:26:59Z</time>
      </trkpt>
      <trkpt lat="41.217950" lon="-3.535717">
        <ele>1899.0</ele>
        <time>2017-09-30T13:27:00Z</time>
      </trkpt>
      <trkpt lat="41.217883" lon="-3.535717">
        <ele>1899.0</ele>
        <time>2017-09-30T13:27:01Z</time>
      </trkpt>
      <trkpt lat="41.217817" lon="-3.535733">
        <ele>1899.0</ele>
        <time>2017-09-30T13:27:02Z</time>
      </trkpt>
      <trkpt lat="41.217767" lon="-3.535767">
        <ele>1900.0</ele>
        <time>2017-09-30T13:27:03Z</time>
      </trkpt>
      <trkpt lat="41.217733" lon="-3.535817">
        <ele>1901.0</ele>
        <time>2017-09-30T13:27:04Z</time>
      </trkpt>
      <trkpt lat="41.217700" lon="-3.535883">
        <ele>1902.0</ele>
        <time>2017-09-30T13:27:05Z</time>
      </trkpt>
      <trkpt lat="41.217700" lon="-3.535967">
        <ele>1903.0</ele>
        <time>2017-09-30T13:27:06Z</time>
      </trkpt>
      <trkpt lat="41.217683" lon="-3.536050">
        <ele>1904.0</ele>
        <time>2017-09-30T13:27:07Z</time>
      </trkpt>
      <trkpt lat="41.217700" lon="-3.536133">
        <ele>1906.0</ele>
        <time>2017-09-30T13:27:08Z</time>
      </trkpt>
      <trkpt lat="41.217717" lon="-3.536217">
        <ele>1907.0</ele>
        <time>2017-09-30T13:27:09Z</time>
      </trkpt>
      <trkpt lat="41.217750" lon="-3.536283">
        <ele>1907.0</ele>
        <time>2017-09-30T13:27:10Z</time>
      </trkpt>
      <trkpt lat="41.217800" lon="-3.536367">
        <ele>1908.0</ele>
        <time>2017-09-30T13:27:11Z</time>
      </trkpt>
      <trkpt lat="41.217867" lon="-3.536433">
        <ele>1909.0</ele>
        <time>2017-09-30T13:27:12Z</time>
      </trkpt>
      <trkpt lat="41.217933" lon="-3.536500">
        <ele>1910.0</ele>
        <time>2017-09-30T13:27:13Z</time>
      </trkpt>
      <trkpt lat="41.218017" lon="-3.536533">
        <ele>1911.0</ele>
        <time>2017-09-30T13:27:14Z</time>
      </trkpt>
      <trkpt lat="41.218100" lon="-3.536550">
        <ele>1912.0</ele>
        <time>2017-09-30T13:27:15Z</time>
      </trkpt>
      <trkpt lat="41.218183" lon="-3.536550">
        <ele>1912.0</ele>
        <time>2017-09-30T13:27:16Z</time>
      </trkpt>
      <trkpt lat="41.218283" lon="-3.536517">
        <ele>1912.0</ele>
        <time>2017-09-30T13:27:17Z</time>
      </trkpt>
      <trkpt lat="41.218367" lon="-3.536467">
        <ele>1912.0</ele>
        <time>2017-09-30T13:27:18Z</time>
      </trkpt>
      <trkpt lat="41.218450" lon="-3.536383">
        <ele>1912.0</ele>
        <time>2017-09-30T13:27:19Z</time>
      </trkpt>
      <trkpt lat="41.218517" lon="-3.536283">
        <ele>1912.0</ele>
        <time>2017-09-30T13:27:20Z</time>
      </trkpt>
      <trkpt lat="41.218583" lon="-3.536167">
        <ele>1912.0</ele>
        <time>2017-09-30T13:27:21Z</time>
      </trkpt>
      <trkpt lat="41.218633" lon="-3.536050">
        <ele>1912.0</ele>
        <time>2017-09-30T13:27:22Z</time>
      </trkpt>
      <trkpt lat="41.218667" lon="-3.535917">
        <ele>1912.0</ele>
        <time>2017-09-30T13:27:23Z</time>
      </trkpt>
      <trkpt lat="41.218667" lon="-3.535767">
        <ele>1911.0</ele>
        <time>2017-09-30T13:27:24Z</time>
      </trkpt>
      <trkpt lat="41.218667" lon="-3.535633">
        <ele>1911.0</ele>
        <time>2017-09-30T13:27:25Z</time>
      </trkpt>
      <trkpt lat="41.218650" lon="-3.535483">
        <ele>1911.0</ele>
        <time>2017-09-30T13:27:26Z</time>
      </trkpt>
      <trkpt lat="41.218633" lon="-3.535367">
        <ele>1912.0</ele>
        <time>2017-09-30T13:27:27Z</time>
      </trkpt>
      <trkpt lat="41.218600" lon="-3.535233">
        <ele>1912.0</ele>
        <time>2017-09-30T13:27:28Z</time>
      </trkpt>
      <trkpt lat="41.218567" lon="-3.535133">
        <ele>1913.0</ele>
        <time>2017-09-30T13:27:29Z</time>
      </trkpt>
      <trkpt lat="41.218533" lon="-3.535017">
        <ele>1912.0</ele>
        <time>2017-09-30T13:27:30Z</time>
      </trkpt>
      <trkpt lat="41.218483" lon="-3.534900">
        <ele>1913.0</ele>
        <time>2017-09-30T13:27:31Z</time>
      </trkpt>
      <trkpt lat="41.218433" lon="-3.534800">
        <ele>1913.0</ele>
        <time>2017-09-30T13:27:32Z</time>
      </trkpt>
      <trkpt lat="41.218383" lon="-3.534717">
        <ele>1915.0</ele>
        <time>2017-09-30T13:27:33Z</time>
      </trkpt>
      <trkpt lat="41.218333" lon="-3.534633">
        <ele>1915.0</ele>
        <time>2017-09-30T13:27:34Z</time>
      </trkpt>
      <trkpt lat="41.218283" lon="-3.534583">
        <ele>1915.0</ele>
        <time>2017-09-30T13:27:35Z</time>
      </trkpt>
      <trkpt lat="41.218217" lon="-3.534517">
        <ele>1914.0</ele>
        <time>2017-09-30T13:27:36Z</time>
      </trkpt>
      <trkpt lat="41.218133" lon="-3.534483">
        <ele>1914.0</ele>
        <time>2017-09-30T13:27:37Z</time>
      </trkpt>
      <trkpt lat="41.218050" lon="-3.534467">
        <ele>1915.0</ele>
        <time>2017-09-30T13:27:38Z</time>
      </trkpt>
      <trkpt lat="41.217983" lon="-3.534483">
        <ele>1916.0</ele>
        <time>2017-09-30T13:27:39Z</time>
      </trkpt>
      <trkpt lat="41.217933" lon="-3.534517">
        <ele>1918.0</ele>
        <time>2017-09-30T13:27:40Z</time>
      </trkpt>
      <trkpt lat="41.217883" lon="-3.534550">
        <ele>1919.0</ele>
        <time>2017-09-30T13:27:41Z</time>
      </trkpt>
      <trkpt lat="41.217850" lon="-3.534600">
        <ele>1920.0</ele>
        <time>2017-09-30T13:27:42Z</time>
      </trkpt>
      <trkpt lat="41.217817" lon="-3.534650">
        <ele>1921.0</ele>
        <time>2017-09-30T13:27:43Z</time>
      </trkpt>
      <trkpt lat="41.217817" lon="-3.534700">
        <ele>1921.0</ele>
        <time>2017-09-30T13:27:44Z</time>
      </trkpt>
      <trkpt lat="41.217817" lon="-3.534783">
        <ele>1920.0</ele>
        <time>2017-09-30T13:27:45Z</time>
      </trkpt>
      <trkpt lat="41.217833" lon="-3.534867">
        <ele>1919.0</ele>
        <time>2017-09-30T13:27:46Z</time>
      </trkpt>
      <trkpt lat="41.217867" lon="-3.534967">
        <ele>1920.0</ele>
        <time>2017-09-30T13:27:47Z</time>
      </trkpt>
      <trkpt lat="41.217900" lon="-3.535050">
        <ele>1921.0</ele>
        <time>2017-09-30T13:27:48Z</time>
      </trkpt>
      <trkpt lat="41.217950" lon="-3.535117">
        <ele>1922.0</ele>
        <time>2017-09-30T13:27:49Z</time>
      </trkpt>
      <trkpt lat="41.218017" lon="-3.535167">
        <ele>1923.0</ele>
        <time>2017-09-30T13:27:50Z</time>
      </trkpt>
      <trkpt lat="41.218100" lon="-3.535200">
        <ele>1923.0</ele>
        <time>2017-09-30T13:27:51Z</time>
      </trkpt>
      <trkpt lat="41.218183" lon="-3.535217">
        <ele>1923.0</ele>
        <time>2017-09-30T13:27:52Z</time>
      </trkpt>
      <trkpt lat="41.218283" lon="-3.535217">
        <ele>1923.0</ele>
        <time>2017-09-30T13:27:53Z</time>
      </trkpt>
      <trkpt lat="41.218367" lon="-3.535167">
        <ele>1923.0</ele>
        <time>2017-09-30T13:27:54Z</time>
      </trkpt>
      <trkpt lat="41.218467" lon="-3.535100">
        <ele>1922.0</ele>
        <time>2017-09-30T13:27:55Z</time>
      </trkpt>
      <trkpt lat="41.218550" lon="-3.535000">
        <ele>1923.0</ele>
        <time>2017-09-30T13:27:56Z</time>
      </trkpt>
      <trkpt lat="41.218617" lon="-3.534900">
        <ele>1923.0</ele>
        <time>2017-09-30T13:27:57Z</time>
      </trkpt>
      <trkpt lat="41.218667" lon="-3.534783">
        <ele>1923.0</ele>
        <time>2017-09-30T13:27:58Z</time>
      </trkpt>
      <trkpt lat="41.218700" lon="-3.534667">
        <ele>1923.0</ele>
        <time>2017-09-30T13:27:59Z</time>
      </trkpt>
      <trkpt lat="41.218733" lon="-3.534533">
        <ele>1923.0</ele>
        <time>2017-09-30T13:28:00Z</time>
      </trkpt>
      <trkpt lat="41.218750" lon="-3.534383">
        <ele>1922.0</ele>
        <time>2017-09-30T13:28:01Z</time>
      </trkpt>
      <trkpt lat="41.218750" lon="-3.534250">
        <ele>1922.0</ele>
        <time>2017-09-30T13:28:02Z</time>
      </trkpt>
      <trkpt lat="41.218750" lon="-3.534117">
        <ele>1922.0</ele>
        <time>2017-09-30T13:28:03Z</time>
      </trkpt>
      <trkpt lat="41.218750" lon="-3.533983">
        <ele>1923.0</ele>
        <time>2017-09-30T13:28:04Z</time>
      </trkpt>
      <trkpt lat="41.218733" lon="-3.533850">
        <ele>1923.0</ele>
        <time>2017-09-30T13:28:05Z</time>
      </trkpt>
      <trkpt lat="41.218717" lon="-3.533733">
        <ele>1923.0</ele>
        <time>2017-09-30T13:28:06Z</time>
      </trkpt>
      <trkpt lat="41.218700" lon="-3.533600">
        <ele>1923.0</ele>
        <time>2017-09-30T13:28:07Z</time>
      </trkpt>
      <trkpt lat="41.218667" lon="-3.533483">
        <ele>1922.0</ele>
        <time>2017-09-30T13:28:08Z</time>
      </trkpt>
      <trkpt lat="41.218617" lon="-3.533383">
        <ele>1922.0</ele>
        <time>2017-09-30T13:28:09Z</time>
      </trkpt>
      <trkpt lat="41.218567" lon="-3.533283">
        <ele>1922.0</ele>
        <time>2017-09-30T13:28:10Z</time>
      </trkpt>
      <trkpt lat="41.218517" lon="-3.533183">
        <ele>1923.0</ele>
        <time>2017-09-30T13:28:11Z</time>
      </trkpt>
      <trkpt lat="41.218467" lon="-3.533100">
        <ele>1922.0</ele>
        <time>2017-09-30T13:28:12Z</time>
      </trkpt>
      <trkpt lat="41.218400" lon="-3.533017">
        <ele>1922.0</ele>
        <time>2017-09-30T13:28:13Z</time>
      </trkpt>
      <trkpt lat="41.218333" lon="-3.532933">
        <ele>1923.0</ele>
        <time>2017-09-30T13:28:14Z</time>
      </trkpt>
      <trkpt lat="41.218267" lon="-3.532867">
        <ele>1924.0</ele>
        <time>2017-09-30T13:28:15Z</time>
      </trkpt>
      <trkpt lat="41.218200" lon="-3.532817">
        <ele>1924.0</ele>
        <time>2017-09-30T13:28:16Z</time>
      </trkpt>
      <trkpt lat="41.218133" lon="-3.532783">
        <ele>1925.0</ele>
        <time>2017-09-30T13:28:17Z</time>
      </trkpt>
      <trkpt lat="41.218067" lon="-3.532767">
        <ele>1925.0</ele>
        <time>2017-09-30T13:28:18Z</time>
      </trkpt>
      <trkpt lat="41.218000" lon="-3.532767">
        <ele>1925.0</ele>
        <time>2017-09-30T13:28:19Z</time>
      </trkpt>
      <trkpt lat="41.217933" lon="-3.532767">
        <ele>1926.0</ele>
        <time>2017-09-30T13:28:20Z</time>
      </trkpt>
      <trkpt lat="41.217883" lon="-3.532800">
        <ele>1927.0</ele>
        <time>2017-09-30T13:28:21Z</time>
      </trkpt>
      <trkpt lat="41.217833" lon="-3.532833">
        <ele>1927.0</ele>
        <time>2017-09-30T13:28:22Z</time>
      </trkpt>
      <trkpt lat="41.217800" lon="-3.532900">
        <ele>1926.0</ele>
        <time>2017-09-30T13:28:23Z</time>
      </trkpt>
      <trkpt lat="41.217767" lon="-3.532967">
        <ele>1925.0</ele>
        <time>2017-09-30T13:28:24Z</time>
      </trkpt>
      <trkpt lat="41.217750" lon="-3.533050">
        <ele>1926.0</ele>
        <time>2017-09-30T13:28:25Z</time>
      </trkpt>
      <trkpt lat="41.217750" lon="-3.533133">
        <ele>1926.0</ele>
        <time>2017-09-30T13:28:26Z</time>
      </trkpt>
      <trkpt lat="41.217767" lon="-3.533200">
        <ele>1927.0</ele>
        <time>2017-09-30T13:28:27Z</time>
      </trkpt>
      <trkpt lat="41.217800" lon="-3.533283">
        <ele>1927.0</ele>
        <time>2017-09-30T13:28:28Z</time>
      </trkpt>
      <trkpt lat="41.217833" lon="-3.533367">
        <ele>1926.0</ele>
        <time>2017-09-30T13:28:29Z</time>
      </trkpt>
      <trkpt lat="41.217900" lon="-3.533417">
        <ele>1926.0</ele>
        <time>2017-09-30T13:28:30Z</time>
      </trkpt>
      <trkpt lat="41.217967" lon="-3.533467">
        <ele>1926.0</ele>
        <time>2017-09-30T13:28:31Z</time>
      </trkpt>
      <trkpt lat="41.218050" lon="-3.533500">
        <ele>1926.0</ele>
        <time>2017-09-30T13:28:32Z</time>
      </trkpt>
      <trkpt lat="41.218117" lon="-3.533500">
        <ele>1925.0</ele>
        <time>2017-09-30T13:28:33Z</time>
      </trkpt>
      <trkpt lat="41.218200" lon="-3.533500">
        <ele>1924.0</ele>
        <time>2017-09-30T13:28:34Z</time>
      </trkpt>
      <trkpt lat="41.218300" lon="-3.533467">
        <ele>1923.0</ele>
        <time>2017-09-30T13:28:35Z</time>
      </trkpt>
      <trkpt lat="41.218383" lon="-3.533417">
        <ele>1923.0</ele>
        <time>2017-09-30T13:28:36Z</time>
      </trkpt>
      <trkpt lat="41.218450" lon="-3.533333">
        <ele>1923.0</ele>
        <time>2017-09-30T13:28:37Z</time>
      </trkpt>
      <trkpt lat="41.218517" lon="-3.533250">
        <ele>1923.0</ele>
        <time>2017-09-30T13:28:38Z</time>
      </trkpt>
      <trkpt lat="41.218583" lon="-3.533167">
        <ele>1922.0</ele>
        <time>2017-09-30T13:28:39Z</time>
      </trkpt>
      <trkpt lat="41.218633" lon="-3.533067">
        <ele>1921.0</ele>
        <time>2017-09-30T13:28:40Z</time>
      </trkpt>
      <trkpt lat="41.218683" lon="-3.532950">
        <ele>1919.0</ele>
        <time>2017-09-30T13:28:41Z</time>
      </trkpt>
      <trkpt lat="41.218717" lon="-3.532800">
        <ele>1918.0</ele>
        <time>2017-09-30T13:28:42Z</time>
      </trkpt>
      <trkpt lat="41.218750" lon="-3.532650">
        <ele>1918.0</ele>
        <time>2017-09-30T13:28:43Z</time>
      </trkpt>
      <trkpt lat="41.218750" lon="-3.532500">
        <ele>1918.0</ele>
        <time>2017-09-30T13:28:44Z</time>
      </trkpt>
      <trkpt lat="41.218750" lon="-3.532367">
        <ele>1918.0</ele>
        <time>2017-09-30T13:28:45Z</time>
      </trkpt>
      <trkpt lat="41.218717" lon="-3.532217">
        <ele>1918.0</ele>
        <time>2017-09-30T13:28:46Z</time>
      </trkpt>
      <trkpt lat="41.218683" lon="-3.532067">
        <ele>1919.0</ele>
        <time>2017-09-30T13:28:47Z</time>
      </trkpt>
      <trkpt lat="41.218633" lon="-3.531950">
        <ele>1920.0</ele>
        <time>2017-09-30T13:28:48Z</time>
      </trkpt>
      <trkpt lat="41.218567" lon="-3.531833">
        <ele>1921.0</ele>
        <time>2017-09-30T13:28:49Z</time>
      </trkpt>
      <trkpt lat="41.218483" lon="-3.531733">
        <ele>1921.0</ele>
        <time>2017-09-30T13:28:50Z</time>
      </trkpt>
      <trkpt lat="41.218417" lon="-3.531650">
        <ele>1922.0</ele>
        <time>2017-09-30T13:28:51Z</time>
      </trkpt>
      <trkpt lat="41.218333" lon="-3.531600">
        <ele>1923.0</ele>
        <time>2017-09-30T13:28:52Z</time>
      </trkpt>
      <trkpt lat="41.218250" lon="-3.531567">
        <ele>1923.0</ele>
        <time>2017-09-30T13:28:53Z</time>
      </trkpt>
      <trkpt lat="41.218183" lon="-3.531583">
        <ele>1922.0</ele>
        <time>2017-09-30T13:28:54Z</time>
      </trkpt>
      <trkpt lat="41.218100" lon="-3.531633">
        <ele>1921.0</ele>
        <time>2017-09-30T13:28:55Z</time>
      </trkpt>
      <trkpt lat="41.218033" lon="-3.531717">
        <ele>1919.0</ele>
        <time>2017-09-30T13:28:56Z</time>
      </trkpt>
      <trkpt lat="41.217983" lon="-3.531800">
        <ele>1919.0</ele>
        <time>2017-09-30T13:28:57Z</time>
      </trkpt>
      <trkpt lat="41.217950" lon="-3.531883">
        <ele>1920.0</ele>
        <time>2017-09-30T13:28:58Z</time>
      </trkpt>
      <trkpt lat="41.217933" lon="-3.531950">
        <ele>1921.0</ele>
        <time>2017-09-30T13:28:59Z</time>
      </trkpt>
      <trkpt lat="41.217950" lon="-3.532017">
        <ele>1920.0</ele>
        <time>2017-09-30T13:29:00Z</time>
      </trkpt>
      <trkpt lat="41.217967" lon="-3.532100">
        <ele>1919.0</ele>
        <time>2017-09-30T13:29:01Z</time>
      </trkpt>
      <trkpt lat="41.218017" lon="-3.532167">
        <ele>1918.0</ele>
        <time>2017-09-30T13:29:02Z</time>
      </trkpt>
      <trkpt lat="41.218067" lon="-3.532217">
        <ele>1917.0</ele>
        <time>2017-09-30T13:29:03Z</time>
      </trkpt>
      <trkpt lat="41.218133" lon="-3.532250">
        <ele>1915.0</ele>
        <time>2017-09-30T13:29:04Z</time>
      </trkpt>
      <trkpt lat="41.218233" lon="-3.532250">
        <ele>1913.0</ele>
        <time>2017-09-30T13:29:05Z</time>
      </trkpt>
      <trkpt lat="41.218317" lon="-3.532217">
        <ele>1912.0</ele>
        <time>2017-09-30T13:29:06Z</time>
      </trkpt>
      <trkpt lat="41.218400" lon="-3.532167">
        <ele>1911.0</ele>
        <time>2017-09-30T13:29:07Z</time>
      </trkpt>
      <trkpt lat="41.218483" lon="-3.532100">
        <ele>1910.0</ele>
        <time>2017-09-30T13:29:08Z</time>
      </trkpt>
      <trkpt lat="41.218550" lon="-3.532017">
        <ele>1908.0</ele>
        <time>2017-09-30T13:29:09Z</time>
      </trkpt>
      <trkpt lat="41.218617" lon="-3.531900">
        <ele>1906.0</ele>
        <time>2017-09-30T13:29:10Z</time>
      </trkpt>
      <trkpt lat="41.218667" lon="-3.531750">
        <ele>1904.0</ele>
        <time>2017-09-30T13:29:11Z</time>
      </trkpt>
      <trkpt lat="41.218683" lon="-3.531567">
        <ele>1904.0</ele>
        <time>2017-09-30T13:29:12Z</time>
      </trkpt>
      <trkpt lat="41.218700" lon="-3.531400">
        <ele>1905.0</ele>
        <time>2017-09-30T13:29:13Z</time>
      </trkpt>
      <trkpt lat="41.218700" lon="-3.531233">
        <ele>1906.0</ele>
        <time>2017-09-30T13:29:14Z</time>
      </trkpt>
      <trkpt lat="41.218683" lon="-3.531083">
        <ele>1908.0</ele>
        <time>2017-09-30T13:29:15Z</time>
      </trkpt>
      <trkpt lat="41.218667" lon="-3.530933">
        <ele>1908.0</ele>
        <time>2017-09-30T13:29:16Z</time>
      </trkpt>
      <trkpt lat="41.218617" lon="-3.530783">
        <ele>1909.0</ele>
        <time>2017-09-30T13:29:17Z</time>
      </trkpt>
      <trkpt lat="41.218567" lon="-3.530633">
        <ele>1909.0</ele>
        <time>2017-09-30T13:29:18Z</time>
      </trkpt>
      <trkpt lat="41.218483" lon="-3.530517">
        <ele>1910.0</ele>
        <time>2017-09-30T13:29:19Z</time>
      </trkpt>
      <trkpt lat="41.218417" lon="-3.530433">
        <ele>1911.0</ele>
        <time>2017-09-30T13:29:20Z</time>
      </trkpt>
      <trkpt lat="41.218333" lon="-3.530350">
        <ele>1911.0</ele>
        <time>2017-09-30T13:29:21Z</time>
      </trkpt>
      <trkpt lat="41.218250" lon="-3.530283">
        <ele>1911.0</ele>
        <time>2017-09-30T13:29:22Z</time>
      </trkpt>
      <trkpt lat="41.218150" lon="-3.530267">
        <ele>1910.0</ele>
        <time>2017-09-30T13:29:23Z</time>
      </trkpt>
      <trkpt lat="41.218067" lon="-3.530250">
        <ele>1910.0</ele>
        <time>2017-09-30T13:29:24Z</time>
      </trkpt>
      <trkpt lat="41.217983" lon="-3.530267">
        <ele>1911.0</ele>
        <time>2017-09-30T13:29:25Z</time>
      </trkpt>
      <trkpt lat="41.217917" lon="-3.530300">
        <ele>1911.0</ele>
        <time>2017-09-30T13:29:26Z</time>
      </trkpt>
      <trkpt lat="41.217867" lon="-3.530350">
        <ele>1910.0</ele>
        <time>2017-09-30T13:29:27Z</time>
      </trkpt>
      <trkpt lat="41.217817" lon="-3.530417">
        <ele>1910.0</ele>
        <time>2017-09-30T13:29:28Z</time>
      </trkpt>
      <trkpt lat="41.217800" lon="-3.530483">
        <ele>1909.0</ele>
        <time>2017-09-30T13:29:29Z</time>
      </trkpt>
      <trkpt lat="41.217800" lon="-3.530567">
        <ele>1908.0</ele>
        <time>2017-09-30T13:29:30Z</time>
      </trkpt>
      <trkpt lat="41.217817" lon="-3.530633">
        <ele>1908.0</ele>
        <time>2017-09-30T13:29:31Z</time>
      </trkpt>
      <trkpt lat="41.217850" lon="-3.530683">
        <ele>1908.0</ele>
        <time>2017-09-30T13:29:32Z</time>
      </trkpt>
      <trkpt lat="41.217900" lon="-3.530733">
        <ele>1908.0</ele>
        <time>2017-09-30T13:29:33Z</time>
      </trkpt>
      <trkpt lat="41.217950" lon="-3.530750">
        <ele>1907.0</ele>
        <time>2017-09-30T13:29:34Z</time>
      </trkpt>
      <trkpt lat="41.218017" lon="-3.530767">
        <ele>1905.0</ele>
        <time>2017-09-30T13:29:35Z</time>
      </trkpt>
      <trkpt lat="41.218100" lon="-3.530767">
        <ele>1904.0</ele>
        <time>2017-09-30T13:29:36Z</time>
      </trkpt>
      <trkpt lat="41.218183" lon="-3.530733">
        <ele>1903.0</ele>
        <time>2017-09-30T13:29:37Z</time>
      </trkpt>
      <trkpt lat="41.218267" lon="-3.530683">
        <ele>1903.0</ele>
        <time>2017-09-30T13:29:38Z</time>
      </trkpt>
      <trkpt lat="41.218350" lon="-3.530600">
        <ele>1902.0</ele>
        <time>2017-09-30T13:29:39Z</time>
      </trkpt>
      <trkpt lat="41.218400" lon="-3.530483">
        <ele>1901.0</ele>
        <time>2017-09-30T13:29:40Z</time>
      </trkpt>
      <trkpt lat="41.218467" lon="-3.530350">
        <ele>1900.0</ele>
        <time>2017-09-30T13:29:41Z</time>
      </trkpt>
      <trkpt lat="41.218500" lon="-3.530200">
        <ele>1900.0</ele>
        <time>2017-09-30T13:29:42Z</time>
      </trkpt>
      <trkpt lat="41.218533" lon="-3.530050">
        <ele>1902.0</ele>
        <time>2017-09-30T13:29:43Z</time>
      </trkpt>
      <trkpt lat="41.218550" lon="-3.529917">
        <ele>1903.0</ele>
        <time>2017-09-30T13:29:44Z</time>
      </trkpt>
      <trkpt lat="41.218550" lon="-3.529767">
        <ele>1903.0</ele>
        <time>2017-09-30T13:29:45Z</time>
      </trkpt>
      <trkpt lat="41.218567" lon="-3.529617">
        <ele>1903.0</ele>
        <time>2017-09-30T13:29:46Z</time>
      </trkpt>
      <trkpt lat="41.218567" lon="-3.529450">
        <ele>1903.0</ele>
        <time>2017-09-30T13:29:47Z</time>
      </trkpt>
      <trkpt lat="41.218550" lon="-3.529267">
        <ele>1903.0</ele>
        <time>2017-09-30T13:29:48Z</time>
      </trkpt>
      <trkpt lat="41.218517" lon="-3.529117">
        <ele>1905.0</ele>
        <time>2017-09-30T13:29:49Z</time>
      </trkpt>
      <trkpt lat="41.218467" lon="-3.528983">
        <ele>1906.0</ele>
        <time>2017-09-30T13:29:50Z</time>
      </trkpt>
      <trkpt lat="41.218417" lon="-3.528867">
        <ele>1907.0</ele>
        <time>2017-09-30T13:29:51Z</time>
      </trkpt>
      <trkpt lat="41.218367" lon="-3.528767">
        <ele>1907.0</ele>
        <time>2017-09-30T13:29:52Z</time>
      </trkpt>
      <trkpt lat="41.218300" lon="-3.528667">
        <ele>1905.0</ele>
        <time>2017-09-30T13:29:53Z</time>
      </trkpt>
      <trkpt lat="41.218233" lon="-3.528600">
        <ele>1902.0</ele>
        <time>2017-09-30T13:29:54Z</time>
      </trkpt>
      <trkpt lat="41.218133" lon="-3.528517">
        <ele>1900.0</ele>
        <time>2017-09-30T13:29:55Z</time>
      </trkpt>
      <trkpt lat="41.218033" lon="-3.528433">
        <ele>1899.0</ele>
        <time>2017-09-30T13:29:56Z</time>
      </trkpt>
      <trkpt lat="41.217950" lon="-3.528400">
        <ele>1899.0</ele>
        <time>2017-09-30T13:29:57Z</time>
      </trkpt>
      <trkpt lat="41.217850" lon="-3.528383">
        <ele>1899.0</ele>
        <time>2017-09-30T13:29:58Z</time>
      </trkpt>
      <trkpt lat="41.217767" lon="-3.528400">
        <ele>1899.0</ele>
        <time>2017-09-30T13:29:59Z</time>
      </trkpt>
      <trkpt lat="41.217683" lon="-3.528433">
        <ele>1900.0</ele>
        <time>2017-09-30T13:30:00Z</time>
      </trkpt>
      <trkpt lat="41.217633" lon="-3.528483">
        <ele>1900.0</ele>
        <time>2017-09-30T13:30:01Z</time>
      </trkpt>
      <trkpt lat="41.217600" lon="-3.528550">
        <ele>1900.0</ele>
        <time>2017-09-30T13:30:02Z</time>
      </trkpt>
      <trkpt lat="41.217567" lon="-3.528600">
        <ele>1900.0</ele>
        <time>2017-09-30T13:30:03Z</time>
      </trkpt>
      <trkpt lat="41.217583" lon="-3.528667">
        <ele>1900.0</ele>
        <time>2017-09-30T13:30:04Z</time>
      </trkpt>
      <trkpt lat="41.217617" lon="-3.528733">
        <ele>1899.0</ele>
        <time>2017-09-30T13:30:05Z</time>
      </trkpt>
      <trkpt lat="41.217650" lon="-3.528783">
        <ele>1899.0</ele>
        <time>2017-09-30T13:30:06Z</time>
      </trkpt>
      <trkpt lat="41.217717" lon="-3.528817">
        <ele>1899.0</ele>
        <time>2017-09-30T13:30:07Z</time>
      </trkpt>
      <trkpt lat="41.217767" lon="-3.528817">
        <ele>1900.0</ele>
        <time>2017-09-30T13:30:08Z</time>
      </trkpt>
      <trkpt lat="41.217833" lon="-3.528817">
        <ele>1900.0</ele>
        <time>2017-09-30T13:30:09Z</time>
      </trkpt>
      <trkpt lat="41.217917" lon="-3.528783">
        <ele>1899.0</ele>
        <time>2017-09-30T13:30:10Z</time>
      </trkpt>
      <trkpt lat="41.218000" lon="-3.528750">
        <ele>1899.0</ele>
        <time>2017-09-30T13:30:11Z</time>
      </trkpt>
      <trkpt lat="41.218067" lon="-3.528667">
        <ele>1898.0</ele>
        <time>2017-09-30T13:30:12Z</time>
      </trkpt>
      <trkpt lat="41.218150" lon="-3.528583">
        <ele>1898.0</ele>
        <time>2017-09-30T13:30:13Z</time>
      </trkpt>
      <trkpt lat="41.218217" lon="-3.528467">
        <ele>1898.0</ele>
        <time>2017-09-30T13:30:14Z</time>
      </trkpt>
      <trkpt lat="41.218267" lon="-3.528367">
        <ele>1899.0</ele>
        <time>2017-09-30T13:30:15Z</time>
      </trkpt>
      <trkpt lat="41.218317" lon="-3.528233">
        <ele>1899.0</ele>
        <time>2017-09-30T13:30:16Z</time>
      </trkpt>
      <trkpt lat="41.218350" lon="-3.528083">
        <ele>1899.0</ele>
        <time>2017-09-30T13:30:17Z</time>
      </trkpt>
      <trkpt lat="41.218367" lon="-3.527950">
        <ele>1898.0</ele>
        <time>2017-09-30T13:30:18Z</time>
      </trkpt>
      <trkpt lat="41.218367" lon="-3.527800">
        <ele>1898.0</ele>
        <time>2017-09-30T13:30:19Z</time>
      </trkpt>
      <trkpt lat="41.218367" lon="-3.527633">
        <ele>1898.0</ele>
        <time>2017-09-30T13:30:20Z</time>
      </trkpt>
      <trkpt lat="41.218350" lon="-3.527500">
        <ele>1899.0</ele>
        <time>2017-09-30T13:30:21Z</time>
      </trkpt>
      <trkpt lat="41.218333" lon="-3.527367">
        <ele>1899.0</ele>
        <time>2017-09-30T13:30:22Z</time>
      </trkpt>
      <trkpt lat="41.218300" lon="-3.527233">
        <ele>1898.0</ele>
        <time>2017-09-30T13:30:23Z</time>
      </trkpt>
      <trkpt lat="41.218267" lon="-3.527117">
        <ele>1897.0</ele>
        <time>2017-09-30T13:30:24Z</time>
      </trkpt>
      <trkpt lat="41.218200" lon="-3.526983">
        <ele>1895.0</ele>
        <time>2017-09-30T13:30:25Z</time>
      </trkpt>
      <trkpt lat="41.218133" lon="-3.526850">
        <ele>1895.0</ele>
        <time>2017-09-30T13:30:26Z</time>
      </trkpt>
      <trkpt lat="41.218050" lon="-3.526733">
        <ele>1896.0</ele>
        <time>2017-09-30T13:30:27Z</time>
      </trkpt>
      <trkpt lat="41.217967" lon="-3.526633">
        <ele>1897.0</ele>
        <time>2017-09-30T13:30:28Z</time>
      </trkpt>
      <trkpt lat="41.217883" lon="-3.526567">
        <ele>1898.0</ele>
        <time>2017-09-30T13:30:29Z</time>
      </trkpt>
      <trkpt lat="41.217817" lon="-3.526517">
        <ele>1899.0</ele>
        <time>2017-09-30T13:30:30Z</time>
      </trkpt>
      <trkpt lat="41.217750" lon="-3.526467">
        <ele>1899.0</ele>
        <time>2017-09-30T13:30:31Z</time>
      </trkpt>
      <trkpt lat="41.217667" lon="-3.526467">
        <ele>1899.0</ele>
        <time>2017-09-30T13:30:32Z</time>
      </trkpt>
      <trkpt lat="41.217600" lon="-3.526483">
        <ele>1899.0</ele>
        <time>2017-09-30T13:30:33Z</time>
      </trkpt>
      <trkpt lat="41.217550" lon="-3.526517">
        <ele>1898.0</ele>
        <time>2017-09-30T13:30:34Z</time>
      </trkpt>
      <trkpt lat="41.217483" lon="-3.526567">
        <ele>1898.0</ele>
        <time>2017-09-30T13:30:35Z</time>
      </trkpt>
      <trkpt lat="41.217450" lon="-3.526617">
        <ele>1897.0</ele>
        <time>2017-09-30T13:30:36Z</time>
      </trkpt>
      <trkpt lat="41.217417" lon="-3.526683">
        <ele>1897.0</ele>
        <time>2017-09-30T13:30:37Z</time>
      </trkpt>
      <trkpt lat="41.217400" lon="-3.526750">
        <ele>1897.0</ele>
        <time>2017-09-30T13:30:38Z</time>
      </trkpt>
      <trkpt lat="41.217400" lon="-3.526833">
        <ele>1897.0</ele>
        <time>2017-09-30T13:30:39Z</time>
      </trkpt>
      <trkpt lat="41.217417" lon="-3.526883">
        <ele>1898.0</ele>
        <time>2017-09-30T13:30:40Z</time>
      </trkpt>
      <trkpt lat="41.217450" lon="-3.526917">
        <ele>1898.0</ele>
        <time>2017-09-30T13:30:41Z</time>
      </trkpt>
      <trkpt lat="41.217500" lon="-3.526950">
        <ele>1898.0</ele>
        <time>2017-09-30T13:30:42Z</time>
      </trkpt>
      <trkpt lat="41.217550" lon="-3.526967">
        <ele>1897.0</ele>
        <time>2017-09-30T13:30:43Z</time>
      </trkpt>
      <trkpt lat="41.217600" lon="-3.526967">
        <ele>1896.0</ele>
        <time>2017-09-30T13:30:44Z</time>
      </trkpt>
      <trkpt lat="41.217683" lon="-3.526933">
        <ele>1895.0</ele>
        <time>2017-09-30T13:30:45Z</time>
      </trkpt>
      <trkpt lat="41.217750" lon="-3.526883">
        <ele>1894.0</ele>
        <time>2017-09-30T13:30:46Z</time>
      </trkpt>
      <trkpt lat="41.217833" lon="-3.526833">
        <ele>1894.0</ele>
        <time>2017-09-30T13:30:47Z</time>
      </trkpt>
      <trkpt lat="41.217900" lon="-3.526783">
        <ele>1894.0</ele>
        <time>2017-09-30T13:30:48Z</time>
      </trkpt>
      <trkpt lat="41.217967" lon="-3.526700">
        <ele>1893.0</ele>
        <time>2017-09-30T13:30:49Z</time>
      </trkpt>
      <trkpt lat="41.218033" lon="-3.526617">
        <ele>1891.0</ele>
        <time>2017-09-30T13:30:50Z</time>
      </trkpt>
      <trkpt lat="41.218100" lon="-3.526517">
        <ele>1890.0</ele>
        <time>2017-09-30T13:30:51Z</time>
      </trkpt>
      <trkpt lat="41.218167" lon="-3.526400">
        <ele>1890.0</ele>
        <time>2017-09-30T13:30:52Z</time>
      </trkpt>
      <trkpt lat="41.218217" lon="-3.526283">
        <ele>1890.0</ele>
        <time>2017-09-30T13:30:53Z</time>
      </trkpt>
      <trkpt lat="41.218250" lon="-3.526167">
        <ele>1890.0</ele>
        <time>2017-09-30T13:30:54Z</time>
      </trkpt>
      <trkpt lat="41.218283" lon="-3.526033">
        <ele>1891.0</ele>
        <time>2017-09-30T13:30:55Z</time>
      </trkpt>
      <trkpt lat="41.218300" lon="-3.525883">
        <ele>1891.0</ele>
        <time>2017-09-30T13:30:56Z</time>
      </trkpt>
      <trkpt lat="41.218317" lon="-3.525750">
        <ele>1891.0</ele>
        <time>2017-09-30T13:30:57Z</time>
      </trkpt>
      <trkpt lat="41.218300" lon="-3.525600">
        <ele>1891.0</ele>
        <time>2017-09-30T13:30:58Z</time>
      </trkpt>
      <trkpt lat="41.218283" lon="-3.525450">
        <ele>1891.0</ele>
        <time>2017-09-30T13:30:59Z</time>
      </trkpt>
      <trkpt lat="41.218233" lon="-3.525317">
        <ele>1890.0</ele>
        <time>2017-09-30T13:31:00Z</time>
      </trkpt>
      <trkpt lat="41.218183" lon="-3.525183">
        <ele>1890.0</ele>
        <time>2017-09-30T13:31:01Z</time>
      </trkpt>
      <trkpt lat="41.218133" lon="-3.525050">
        <ele>1890.0</ele>
        <time>2017-09-30T13:31:02Z</time>
      </trkpt>
      <trkpt lat="41.218083" lon="-3.524933">
        <ele>1890.0</ele>
        <time>2017-09-30T13:31:03Z</time>
      </trkpt>
      <trkpt lat="41.218017" lon="-3.524833">
        <ele>1890.0</ele>
        <time>2017-09-30T13:31:04Z</time>
      </trkpt>
      <trkpt lat="41.217917" lon="-3.524750">
        <ele>1889.0</ele>
        <time>2017-09-30T13:31:05Z</time>
      </trkpt>
      <trkpt lat="41.217833" lon="-3.524683">
        <ele>1888.0</ele>
        <time>2017-09-30T13:31:06Z</time>
      </trkpt>
      <trkpt lat="41.217733" lon="-3.524633">
        <ele>1889.0</ele>
        <time>2017-09-30T13:31:07Z</time>
      </trkpt>
      <trkpt lat="41.217650" lon="-3.524583">
        <ele>1889.0</ele>
        <time>2017-09-30T13:31:08Z</time>
      </trkpt>
      <trkpt lat="41.217567" lon="-3.524533">
        <ele>1889.0</ele>
        <time>2017-09-30T13:31:09Z</time>
      </trkpt>
      <trkpt lat="41.217483" lon="-3.524500">
        <ele>1889.0</ele>
        <time>2017-09-30T13:31:10Z</time>
      </trkpt>
      <trkpt lat="41.217383" lon="-3.524500">
        <ele>1888.0</ele>
        <time>2017-09-30T13:31:11Z</time>
      </trkpt>
      <trkpt lat="41.217300" lon="-3.524533">
        <ele>1887.0</ele>
        <time>2017-09-30T13:31:12Z</time>
      </trkpt>
      <trkpt lat="41.217217" lon="-3.524583">
        <ele>1888.0</ele>
        <time>2017-09-30T13:31:13Z</time>
      </trkpt>
      <trkpt lat="41.217150" lon="-3.524617">
        <ele>1889.0</ele>
        <time>2017-09-30T13:31:14Z</time>
      </trkpt>
      <trkpt lat="41.217083" lon="-3.524667">
        <ele>1890.0</ele>
        <time>2017-09-30T13:31:15Z</time>
      </trkpt>
      <trkpt lat="41.217050" lon="-3.524733">
        <ele>1890.0</ele>
        <time>2017-09-30T13:31:16Z</time>
      </trkpt>
      <trkpt lat="41.217033" lon="-3.524800">
        <ele>1888.0</ele>
        <time>2017-09-30T13:31:17Z</time>
      </trkpt>
      <trkpt lat="41.217033" lon="-3.524883">
        <ele>1888.0</ele>
        <time>2017-09-30T13:31:18Z</time>
      </trkpt>
      <trkpt lat="41.217067" lon="-3.524950">
        <ele>1888.0</ele>
        <time>2017-09-30T13:31:19Z</time>
      </trkpt>
      <trkpt lat="41.217117" lon="-3.525000">
        <ele>1889.0</ele>
        <time>2017-09-30T13:31:20Z</time>
      </trkpt>
      <trkpt lat="41.217167" lon="-3.525017">
        <ele>1890.0</ele>
        <time>2017-09-30T13:31:21Z</time>
      </trkpt>
      <trkpt lat="41.217233" lon="-3.525017">
        <ele>1890.0</ele>
        <time>2017-09-30T13:31:22Z</time>
      </trkpt>
      <trkpt lat="41.217317" lon="-3.525017">
        <ele>1890.0</ele>
        <time>2017-09-30T13:31:23Z</time>
      </trkpt>
      <trkpt lat="41.217383" lon="-3.524983">
        <ele>1889.0</ele>
        <time>2017-09-30T13:31:24Z</time>
      </trkpt>
      <trkpt lat="41.217483" lon="-3.524917">
        <ele>1888.0</ele>
        <time>2017-09-30T13:31:25Z</time>
      </trkpt>
      <trkpt lat="41.217550" lon="-3.524817">
        <ele>1888.0</ele>
        <time>2017-09-30T13:31:26Z</time>
      </trkpt>
      <trkpt lat="41.217600" lon="-3.524683">
        <ele>1888.0</ele>
        <time>2017-09-30T13:31:27Z</time>
      </trkpt>
      <trkpt lat="41.217650" lon="-3.524550">
        <ele>1889.0</ele>
        <time>2017-09-30T13:31:28Z</time>
      </trkpt>
      <trkpt lat="41.217683" lon="-3.524433">
        <ele>1889.0</ele>
        <time>2017-09-30T13:31:29Z</time>
      </trkpt>
      <trkpt lat="41.217717" lon="-3.524317">
        <ele>1889.0</ele>
        <time>2017-09-30T13:31:30Z</time>
      </trkpt>
      <trkpt lat="41.217733" lon="-3.524167">
        <ele>1888.0</ele>
        <time>2017-09-30T13:31:31Z</time>
      </trkpt>
      <trkpt lat="41.217733" lon="-3.524017">
        <ele>1888.0</ele>
        <time>2017-09-30T13:31:32Z</time>
      </trkpt>
      <trkpt lat="41.217717" lon="-3.523850">
        <ele>1888.0</ele>
        <time>2017-09-30T13:31:33Z</time>
      </trkpt>
      <trkpt lat="41.217700" lon="-3.523717">
        <ele>1889.0</ele>
        <time>2017-09-30T13:31:34Z</time>
      </trkpt>
      <trkpt lat="41.217667" lon="-3.523583">
        <ele>1890.0</ele>
        <time>2017-09-30T13:31:35Z</time>
      </trkpt>
      <trkpt lat="41.217633" lon="-3.523450">
        <ele>1890.0</ele>
        <time>2017-09-30T13:31:36Z</time>
      </trkpt>
      <trkpt lat="41.217600" lon="-3.523317">
        <ele>1888.0</ele>
        <time>2017-09-30T13:31:37Z</time>
      </trkpt>
      <trkpt lat="41.217550" lon="-3.523167">
        <ele>1887.0</ele>
        <time>2017-09-30T13:31:38Z</time>
      </trkpt>
      <trkpt lat="41.217483" lon="-3.523033">
        <ele>1886.0</ele>
        <time>2017-09-30T13:31:39Z</time>
      </trkpt>
      <trkpt lat="41.217417" lon="-3.522917">
        <ele>1886.0</ele>
        <time>2017-09-30T13:31:40Z</time>
      </trkpt>
      <trkpt lat="41.217333" lon="-3.522817">
        <ele>1886.0</ele>
        <time>2017-09-30T13:31:41Z</time>
      </trkpt>
      <trkpt lat="41.217250" lon="-3.522733">
        <ele>1886.0</ele>
        <time>2017-09-30T13:31:42Z</time>
      </trkpt>
      <trkpt lat="41.217183" lon="-3.522667">
        <ele>1886.0</ele>
        <time>2017-09-30T13:31:43Z</time>
      </trkpt>
      <trkpt lat="41.217100" lon="-3.522600">
        <ele>1886.0</ele>
        <time>2017-09-30T13:31:44Z</time>
      </trkpt>
      <trkpt lat="41.217000" lon="-3.522550">
        <ele>1885.0</ele>
        <time>2017-09-30T13:31:45Z</time>
      </trkpt>
      <trkpt lat="41.216917" lon="-3.522517">
        <ele>1884.0</ele>
        <time>2017-09-30T13:31:46Z</time>
      </trkpt>
      <trkpt lat="41.216833" lon="-3.522500">
        <ele>1884.0</ele>
        <time>2017-09-30T13:31:47Z</time>
      </trkpt>
      <trkpt lat="41.216750" lon="-3.522467">
        <ele>1883.0</ele>
        <time>2017-09-30T13:31:48Z</time>
      </trkpt>
      <trkpt lat="41.216683" lon="-3.522450">
        <ele>1882.0</ele>
        <time>2017-09-30T13:31:49Z</time>
      </trkpt>
      <trkpt lat="41.216600" lon="-3.522467">
        <ele>1880.0</ele>
        <time>2017-09-30T13:31:50Z</time>
      </trkpt>
      <trkpt lat="41.216517" lon="-3.522483">
        <ele>1878.0</ele>
        <time>2017-09-30T13:31:51Z</time>
      </trkpt>
      <trkpt lat="41.216450" lon="-3.522533">
        <ele>1877.0</ele>
        <time>2017-09-30T13:31:52Z</time>
      </trkpt>
      <trkpt lat="41.216383" lon="-3.522567">
        <ele>1878.0</ele>
        <time>2017-09-30T13:31:53Z</time>
      </trkpt>
      <trkpt lat="41.216333" lon="-3.522583">
        <ele>1878.0</ele>
        <time>2017-09-30T13:31:54Z</time>
      </trkpt>
      <trkpt lat="41.216283" lon="-3.522617">
        <ele>1878.0</ele>
        <time>2017-09-30T13:31:55Z</time>
      </trkpt>
      <trkpt lat="41.216233" lon="-3.522667">
        <ele>1877.0</ele>
        <time>2017-09-30T13:31:56Z</time>
      </trkpt>
      <trkpt lat="41.216200" lon="-3.522733">
        <ele>1876.0</ele>
        <time>2017-09-30T13:31:57Z</time>
      </trkpt>
      <trkpt lat="41.216167" lon="-3.522800">
        <ele>1875.0</ele>
        <time>2017-09-30T13:31:58Z</time>
      </trkpt>
      <trkpt lat="41.216150" lon="-3.522883">
        <ele>1875.0</ele>
        <time>2017-09-30T13:31:59Z</time>
      </trkpt>
      <trkpt lat="41.216167" lon="-3.522950">
        <ele>1876.0</ele>
        <time>2017-09-30T13:32:00Z</time>
      </trkpt>
      <trkpt lat="41.216200" lon="-3.523000">
        <ele>1876.0</ele>
        <time>2017-09-30T13:32:01Z</time>
      </trkpt>
      <trkpt lat="41.216250" lon="-3.523033">
        <ele>1876.0</ele>
        <time>2017-09-30T13:32:02Z</time>
      </trkpt>
      <trkpt lat="41.216300" lon="-3.523067">
        <ele>1875.0</ele>
        <time>2017-09-30T13:32:03Z</time>
      </trkpt>
      <trkpt lat="41.216367" lon="-3.523083">
        <ele>1873.0</ele>
        <time>2017-09-30T13:32:04Z</time>
      </trkpt>
      <trkpt lat="41.216450" lon="-3.523067">
        <ele>1873.0</ele>
        <time>2017-09-30T13:32:05Z</time>
      </trkpt>
      <trkpt lat="41.216533" lon="-3.523017">
        <ele>1874.0</ele>
        <time>2017-09-30T13:32:06Z</time>
      </trkpt>
      <trkpt lat="41.216600" lon="-3.522950">
        <ele>1876.0</ele>
        <time>2017-09-30T13:32:07Z</time>
      </trkpt>
      <trkpt lat="41.216667" lon="-3.522867">
        <ele>1877.0</ele>
        <time>2017-09-30T13:32:08Z</time>
      </trkpt>
      <trkpt lat="41.216717" lon="-3.522750">
        <ele>1877.0</ele>
        <time>2017-09-30T13:32:09Z</time>
      </trkpt>
      <trkpt lat="41.216767" lon="-3.522617">
        <ele>1878.0</ele>
        <time>2017-09-30T13:32:10Z</time>
      </trkpt>
      <trkpt lat="41.216800" lon="-3.522467">
        <ele>1880.0</ele>
        <time>2017-09-30T13:32:11Z</time>
      </trkpt>
      <trkpt lat="41.216817" lon="-3.522300">
        <ele>1882.0</ele>
        <time>2017-09-30T13:32:12Z</time>
      </trkpt>
      <trkpt lat="41.216783" lon="-3.522133">
        <ele>1885.0</ele>
        <time>2017-09-30T13:32:13Z</time>
      </trkpt>
      <trkpt lat="41.216750" lon="-3.522000">
        <ele>1886.0</ele>
        <time>2017-09-30T13:32:14Z</time>
      </trkpt>
      <trkpt lat="41.216683" lon="-3.521867">
        <ele>1887.0</ele>
        <time>2017-09-30T13:32:15Z</time>
      </trkpt>
      <trkpt lat="41.216617" lon="-3.521783">
        <ele>1887.0</ele>
        <time>2017-09-30T13:32:16Z</time>
      </trkpt>
      <trkpt lat="41.216550" lon="-3.521717">
        <ele>1885.0</ele>
        <time>2017-09-30T13:32:17Z</time>
      </trkpt>
      <trkpt lat="41.216467" lon="-3.521667">
        <ele>1884.0</ele>
        <time>2017-09-30T13:32:18Z</time>
      </trkpt>
      <trkpt lat="41.216367" lon="-3.521650">
        <ele>1882.0</ele>
        <time>2017-09-30T13:32:19Z</time>
      </trkpt>
      <trkpt lat="41.216283" lon="-3.521633">
        <ele>1881.0</ele>
        <time>2017-09-30T13:32:20Z</time>
      </trkpt>
      <trkpt lat="41.216200" lon="-3.521667">
        <ele>1880.0</ele>
        <time>2017-09-30T13:32:21Z</time>
      </trkpt>
      <trkpt lat="41.216133" lon="-3.521700">
        <ele>1880.0</ele>
        <time>2017-09-30T13:32:22Z</time>
      </trkpt>
      <trkpt lat="41.216067" lon="-3.521750">
        <ele>1879.0</ele>
        <time>2017-09-30T13:32:23Z</time>
      </trkpt>
      <trkpt lat="41.216017" lon="-3.521783">
        <ele>1878.0</ele>
        <time>2017-09-30T13:32:24Z</time>
      </trkpt>
      <trkpt lat="41.215967" lon="-3.521817">
        <ele>1877.0</ele>
        <time>2017-09-30T13:32:25Z</time>
      </trkpt>
      <trkpt lat="41.215917" lon="-3.521867">
        <ele>1875.0</ele>
        <time>2017-09-30T13:32:26Z</time>
      </trkpt>
      <trkpt lat="41.215883" lon="-3.521933">
        <ele>1873.0</ele>
        <time>2017-09-30T13:32:27Z</time>
      </trkpt>
      <trkpt lat="41.215867" lon="-3.522017">
        <ele>1872.0</ele>
        <time>2017-09-30T13:32:28Z</time>
      </trkpt>
      <trkpt lat="41.215883" lon="-3.522083">
        <ele>1871.0</ele>
        <time>2017-09-30T13:32:29Z</time>
      </trkpt>
      <trkpt lat="41.215917" lon="-3.522150">
        <ele>1872.0</ele>
        <time>2017-09-30T13:32:30Z</time>
      </trkpt>
      <trkpt lat="41.215967" lon="-3.522200">
        <ele>1872.0</ele>
        <time>2017-09-30T13:32:31Z</time>
      </trkpt>
      <trkpt lat="41.216000" lon="-3.522233">
        <ele>1872.0</ele>
        <time>2017-09-30T13:32:32Z</time>
      </trkpt>
      <trkpt lat="41.216033" lon="-3.522267">
        <ele>1872.0</ele>
        <time>2017-09-30T13:32:33Z</time>
      </trkpt>
      <trkpt lat="41.216100" lon="-3.522300">
        <ele>1871.0</ele>
        <time>2017-09-30T13:32:34Z</time>
      </trkpt>
      <trkpt lat="41.216150" lon="-3.522317">
        <ele>1871.0</ele>
        <time>2017-09-30T13:32:35Z</time>
      </trkpt>
      <trkpt lat="41.216217" lon="-3.522350">
        <ele>1871.0</ele>
        <time>2017-09-30T13:32:36Z</time>
      </trkpt>
      <trkpt lat="41.216283" lon="-3.522367">
        <ele>1871.0</ele>
        <time>2017-09-30T13:32:37Z</time>
      </trkpt>
      <trkpt lat="41.216367" lon="-3.522350">
        <ele>1872.0</ele>
        <time>2017-09-30T13:32:38Z</time>
      </trkpt>
      <trkpt lat="41.216450" lon="-3.522317">
        <ele>1872.0</ele>
        <time>2017-09-30T13:32:39Z</time>
      </trkpt>
      <trkpt lat="41.216533" lon="-3.522267">
        <ele>1873.0</ele>
        <time>2017-09-30T13:32:40Z</time>
      </trkpt>
      <trkpt lat="41.216633" lon="-3.522200">
        <ele>1874.0</ele>
        <time>2017-09-30T13:32:41Z</time>
      </trkpt>
      <trkpt lat="41.216700" lon="-3.522100">
        <ele>1876.0</ele>
        <time>2017-09-30T13:32:42Z</time>
      </trkpt>
      <trkpt lat="41.216750" lon="-3.521967">
        <ele>1878.0</ele>
        <time>2017-09-30T13:32:43Z</time>
      </trkpt>
      <trkpt lat="41.216783" lon="-3.521833">
        <ele>1880.0</ele>
        <time>2017-09-30T13:32:44Z</time>
      </trkpt>
      <trkpt lat="41.216817" lon="-3.521700">
        <ele>1881.0</ele>
        <time>2017-09-30T13:32:45Z</time>
      </trkpt>
      <trkpt lat="41.216850" lon="-3.521550">
        <ele>1882.0</ele>
        <time>2017-09-30T13:32:46Z</time>
      </trkpt>
      <trkpt lat="41.216850" lon="-3.521400">
        <ele>1882.0</ele>
        <time>2017-09-30T13:32:47Z</time>
      </trkpt>
      <trkpt lat="41.216833" lon="-3.521233">
        <ele>1881.0</ele>
        <time>2017-09-30T13:32:48Z</time>
      </trkpt>
      <trkpt lat="41.216800" lon="-3.521083">
        <ele>1881.0</ele>
        <time>2017-09-30T13:32:49Z</time>
      </trkpt>
      <trkpt lat="41.216733" lon="-3.520933">
        <ele>1880.0</ele>
        <time>2017-09-30T13:32:50Z</time>
      </trkpt>
      <trkpt lat="41.216633" lon="-3.520833">
        <ele>1880.0</ele>
        <time>2017-09-30T13:32:51Z</time>
      </trkpt>
      <trkpt lat="41.216533" lon="-3.520750">
        <ele>1881.0</ele>
        <time>2017-09-30T13:32:52Z</time>
      </trkpt>
      <trkpt lat="41.216467" lon="-3.520683">
        <ele>1883.0</ele>
        <time>2017-09-30T13:32:53Z</time>
      </trkpt>
      <trkpt lat="41.216400" lon="-3.520633">
        <ele>1884.0</ele>
        <time>2017-09-30T13:32:54Z</time>
      </trkpt>
      <trkpt lat="41.216350" lon="-3.520600">
        <ele>1884.0</ele>
        <time>2017-09-30T13:32:55Z</time>
      </trkpt>
      <trkpt lat="41.216283" lon="-3.520567">
        <ele>1882.0</ele>
        <time>2017-09-30T13:32:56Z</time>
      </trkpt>
      <trkpt lat="41.216200" lon="-3.520550">
        <ele>1879.0</ele>
        <time>2017-09-30T13:32:57Z</time>
      </trkpt>
      <trkpt lat="41.216100" lon="-3.520550">
        <ele>1878.0</ele>
        <time>2017-09-30T13:32:58Z</time>
      </trkpt>
      <trkpt lat="41.216033" lon="-3.520567">
        <ele>1879.0</ele>
        <time>2017-09-30T13:32:59Z</time>
      </trkpt>
      <trkpt lat="41.215967" lon="-3.520567">
        <ele>1880.0</ele>
        <time>2017-09-30T13:33:00Z</time>
      </trkpt>
      <trkpt lat="41.215917" lon="-3.520583">
        <ele>1879.0</ele>
        <time>2017-09-30T13:33:01Z</time>
      </trkpt>
      <trkpt lat="41.215850" lon="-3.520583">
        <ele>1878.0</ele>
        <time>2017-09-30T13:33:02Z</time>
      </trkpt>
      <trkpt lat="41.215783" lon="-3.520617">
        <ele>1875.0</ele>
        <time>2017-09-30T13:33:03Z</time>
      </trkpt>
      <trkpt lat="41.215717" lon="-3.520683">
        <ele>1873.0</ele>
        <time>2017-09-30T13:33:04Z</time>
      </trkpt>
      <trkpt lat="41.215667" lon="-3.520767">
        <ele>1873.0</ele>
        <time>2017-09-30T13:33:05Z</time>
      </trkpt>
      <trkpt lat="41.215650" lon="-3.520850">
        <ele>1874.0</ele>
        <time>2017-09-30T13:33:06Z</time>
      </trkpt>
      <trkpt lat="41.215633" lon="-3.520933">
        <ele>1875.0</ele>
        <time>2017-09-30T13:33:07Z</time>
      </trkpt>
      <trkpt lat="41.215650" lon="-3.521017">
        <ele>1877.0</ele>
        <time>2017-09-30T13:33:08Z</time>
      </trkpt>
      <trkpt lat="41.215650" lon="-3.521067">
        <ele>1878.0</ele>
        <time>2017-09-30T13:33:09Z</time>
      </trkpt>
      <trkpt lat="41.215650" lon="-3.521133">
        <ele>1878.0</ele>
        <time>2017-09-30T13:33:10Z</time>
      </trkpt>
      <trkpt lat="41.215650" lon="-3.521200">
        <ele>1878.0</ele>
        <time>2017-09-30T13:33:11Z</time>
      </trkpt>
      <trkpt lat="41.215633" lon="-3.521283">
        <ele>1877.0</ele>
        <time>2017-09-30T13:33:12Z</time>
      </trkpt>
      <trkpt lat="41.215650" lon="-3.521350">
        <ele>1877.0</ele>
        <time>2017-09-30T13:33:13Z</time>
      </trkpt>
      <trkpt lat="41.215683" lon="-3.521433">
        <ele>1877.0</ele>
        <time>2017-09-30T13:33:14Z</time>
      </trkpt>
      <trkpt lat="41.215700" lon="-3.521500">
        <ele>1878.0</ele>
        <time>2017-09-30T13:33:15Z</time>
      </trkpt>
      <trkpt lat="41.215717" lon="-3.521583">
        <ele>1879.0</ele>
        <time>2017-09-30T13:33:16Z</time>
      </trkpt>
      <trkpt lat="41.215750" lon="-3.521633">
        <ele>1880.0</ele>
        <time>2017-09-30T13:33:17Z</time>
      </trkpt>
      <trkpt lat="41.215783" lon="-3.521683">
        <ele>1881.0</ele>
        <time>2017-09-30T13:33:18Z</time>
      </trkpt>
      <trkpt lat="41.215850" lon="-3.521700">
        <ele>1879.0</ele>
        <time>2017-09-30T13:33:19Z</time>
      </trkpt>
      <trkpt lat="41.215917" lon="-3.521733">
        <ele>1877.0</ele>
        <time>2017-09-30T13:33:20Z</time>
      </trkpt>
      <trkpt lat="41.216000" lon="-3.521750">
        <ele>1876.0</ele>
        <time>2017-09-30T13:33:21Z</time>
      </trkpt>
      <trkpt lat="41.216083" lon="-3.521750">
        <ele>1875.0</ele>
        <time>2017-09-30T13:33:22Z</time>
      </trkpt>
      <trkpt lat="41.216150" lon="-3.521717">
        <ele>1875.0</ele>
        <time>2017-09-30T13:33:23Z</time>
      </trkpt>
      <trkpt lat="41.216233" lon="-3.521650">
        <ele>1874.0</ele>
        <time>2017-09-30T13:33:24Z</time>
      </trkpt>
      <trkpt lat="41.216300" lon="-3.521567">
        <ele>1875.0</ele>
        <time>2017-09-30T13:33:25Z</time>
      </trkpt>
      <trkpt lat="41.216367" lon="-3.521467">
        <ele>1875.0</ele>
        <time>2017-09-30T13:33:26Z</time>
      </trkpt>
      <trkpt lat="41.216433" lon="-3.521350">
        <ele>1876.0</ele>
        <time>2017-09-30T13:33:27Z</time>
      </trkpt>
      <trkpt lat="41.216467" lon="-3.521217">
        <ele>1878.0</ele>
        <time>2017-09-30T13:33:28Z</time>
      </trkpt>
      <trkpt lat="41.216483" lon="-3.521067">
        <ele>1880.0</ele>
        <time>2017-09-30T13:33:29Z</time>
      </trkpt>
      <trkpt lat="41.216467" lon="-3.520917">
        <ele>1882.0</ele>
        <time>2017-09-30T13:33:30Z</time>
      </trkpt>
      <trkpt lat="41.216433" lon="-3.520767">
        <ele>1883.0</ele>
        <time>2017-09-30T13:33:31Z</time>
      </trkpt>
      <trkpt lat="41.216383" lon="-3.520633">
        <ele>1884.0</ele>
        <time>2017-09-30T13:33:32Z</time>
      </trkpt>
      <trkpt lat="41.216317" lon="-3.520517">
        <ele>1885.0</ele>
        <time>2017-09-30T13:33:33Z</time>
      </trkpt>
      <trkpt lat="41.216217" lon="-3.520417">
        <ele>1886.0</ele>
        <time>2017-09-30T13:33:34Z</time>
      </trkpt>
      <trkpt lat="41.216117" lon="-3.520333">
        <ele>1887.0</ele>
        <time>2017-09-30T13:33:35Z</time>
      </trkpt>
      <trkpt lat="41.216017" lon="-3.520317">
        <ele>1889.0</ele>
        <time>2017-09-30T13:33:36Z</time>
      </trkpt>
      <trkpt lat="41.215933" lon="-3.520317">
        <ele>1890.0</ele>
        <time>2017-09-30T13:33:37Z</time>
      </trkpt>
      <trkpt lat="41.215867" lon="-3.520333">
        <ele>1890.0</ele>
        <time>2017-09-30T13:33:38Z</time>
      </trkpt>
      <trkpt lat="41.215800" lon="-3.520383">
        <ele>1890.0</ele>
        <time>2017-09-30T13:33:39Z</time>
      </trkpt>
      <trkpt lat="41.215783" lon="-3.520467">
        <ele>1891.0</ele>
        <time>2017-09-30T13:33:40Z</time>
      </trkpt>
      <trkpt lat="41.215767" lon="-3.520533">
        <ele>1893.0</ele>
        <time>2017-09-30T13:33:41Z</time>
      </trkpt>
      <trkpt lat="41.215783" lon="-3.520600">
        <ele>1894.0</ele>
        <time>2017-09-30T13:33:42Z</time>
      </trkpt>
      <trkpt lat="41.215817" lon="-3.520650">
        <ele>1896.0</ele>
        <time>2017-09-30T13:33:43Z</time>
      </trkpt>
      <trkpt lat="41.215867" lon="-3.520683">
        <ele>1897.0</ele>
        <time>2017-09-30T13:33:44Z</time>
      </trkpt>
      <trkpt lat="41.215917" lon="-3.520683">
        <ele>1898.0</ele>
        <time>2017-09-30T13:33:45Z</time>
      </trkpt>
      <trkpt lat="41.216000" lon="-3.520683">
        <ele>1899.0</ele>
        <time>2017-09-30T13:33:46Z</time>
      </trkpt>
      <trkpt lat="41.216067" lon="-3.520650">
        <ele>1899.0</ele>
        <time>2017-09-30T13:33:47Z</time>
      </trkpt>
      <trkpt lat="41.216133" lon="-3.520583">
        <ele>1900.0</ele>
        <time>2017-09-30T13:33:48Z</time>
      </trkpt>
      <trkpt lat="41.216200" lon="-3.520500">
        <ele>1901.0</ele>
        <time>2017-09-30T13:33:49Z</time>
      </trkpt>
      <trkpt lat="41.216267" lon="-3.520417">
        <ele>1903.0</ele>
        <time>2017-09-30T13:33:50Z</time>
      </trkpt>
      <trkpt lat="41.216317" lon="-3.520300">
        <ele>1904.0</ele>
        <time>2017-09-30T13:33:51Z</time>
      </trkpt>
      <trkpt lat="41.216367" lon="-3.520200">
        <ele>1906.0</ele>
        <time>2017-09-30T13:33:52Z</time>
      </trkpt>
      <trkpt lat="41.216383" lon="-3.520067">
        <ele>1908.0</ele>
        <time>2017-09-30T13:33:53Z</time>
      </trkpt>
      <trkpt lat="41.216400" lon="-3.519933">
        <ele>1909.0</ele>
        <time>2017-09-30T13:33:54Z</time>
      </trkpt>
      <trkpt lat="41.216383" lon="-3.519783">
        <ele>1910.0</ele>
        <time>2017-09-30T13:33:55Z</time>
      </trkpt>
      <trkpt lat="41.216350" lon="-3.519633">
        <ele>1911.0</ele>
        <time>2017-09-30T13:33:56Z</time>
      </trkpt>
      <trkpt lat="41.216300" lon="-3.519500">
        <ele>1912.0</ele>
        <time>2017-09-30T13:33:57Z</time>
      </trkpt>
      <trkpt lat="41.216233" lon="-3.519383">
        <ele>1913.0</ele>
        <time>2017-09-30T13:33:58Z</time>
      </trkpt>
      <trkpt lat="41.216150" lon="-3.519283">
        <ele>1914.0</ele>
        <time>2017-09-30T13:33:59Z</time>
      </trkpt>
      <trkpt lat="41.216067" lon="-3.519200">
        <ele>1915.0</ele>
        <time>2017-09-30T13:34:00Z</time>
      </trkpt>
      <trkpt lat="41.215983" lon="-3.519167">
        <ele>1915.0</ele>
        <time>2017-09-30T13:34:01Z</time>
      </trkpt>
      <trkpt lat="41.215900" lon="-3.519167">
        <ele>1916.0</ele>
        <time>2017-09-30T13:34:02Z</time>
      </trkpt>
      <trkpt lat="41.215833" lon="-3.519183">
        <ele>1916.0</ele>
        <time>2017-09-30T13:34:03Z</time>
      </trkpt>
      <trkpt lat="41.215767" lon="-3.519233">
        <ele>1918.0</ele>
        <time>2017-09-30T13:34:04Z</time>
      </trkpt>
      <trkpt lat="41.215733" lon="-3.519267">
        <ele>1919.0</ele>
        <time>2017-09-30T13:34:05Z</time>
      </trkpt>
      <trkpt lat="41.215717" lon="-3.519333">
        <ele>1919.0</ele>
        <time>2017-09-30T13:34:06Z</time>
      </trkpt>
      <trkpt lat="41.215717" lon="-3.519400">
        <ele>1920.0</ele>
        <time>2017-09-30T13:34:07Z</time>
      </trkpt>
      <trkpt lat="41.215733" lon="-3.519467">
        <ele>1921.0</ele>
        <time>2017-09-30T13:34:08Z</time>
      </trkpt>
      <trkpt lat="41.215750" lon="-3.519533">
        <ele>1921.0</ele>
        <time>2017-09-30T13:34:09Z</time>
      </trkpt>
      <trkpt lat="41.215800" lon="-3.519567">
        <ele>1922.0</ele>
        <time>2017-09-30T13:34:10Z</time>
      </trkpt>
      <trkpt lat="41.215867" lon="-3.519583">
        <ele>1923.0</ele>
        <time>2017-09-30T13:34:11Z</time>
      </trkpt>
      <trkpt lat="41.215950" lon="-3.519550">
        <ele>1924.0</ele>
        <time>2017-09-30T13:34:12Z</time>
      </trkpt>
      <trkpt lat="41.216017" lon="-3.519483">
        <ele>1926.0</ele>
        <time>2017-09-30T13:34:13Z</time>
      </trkpt>
      <trkpt lat="41.216083" lon="-3.519383">
        <ele>1928.0</ele>
        <time>2017-09-30T13:34:14Z</time>
      </trkpt>
      <trkpt lat="41.216117" lon="-3.519267">
        <ele>1930.0</ele>
        <time>2017-09-30T13:34:15Z</time>
      </trkpt>
      <trkpt lat="41.216150" lon="-3.519150">
        <ele>1932.0</ele>
        <time>2017-09-30T13:34:16Z</time>
      </trkpt>
      <trkpt lat="41.216167" lon="-3.519033">
        <ele>1934.0</ele>
        <time>2017-09-30T13:34:17Z</time>
      </trkpt>
      <trkpt lat="41.216183" lon="-3.518900">
        <ele>1935.0</ele>
        <time>2017-09-30T13:34:18Z</time>
      </trkpt>
      <trkpt lat="41.216183" lon="-3.518750">
        <ele>1935.0</ele>
        <time>2017-09-30T13:34:19Z</time>
      </trkpt>
      <trkpt lat="41.216167" lon="-3.518600">
        <ele>1937.0</ele>
        <time>2017-09-30T13:34:20Z</time>
      </trkpt>
      <trkpt lat="41.216133" lon="-3.518450">
        <ele>1937.0</ele>
        <time>2017-09-30T13:34:21Z</time>
      </trkpt>
      <trkpt lat="41.216067" lon="-3.518333">
        <ele>1937.0</ele>
        <time>2017-09-30T13:34:22Z</time>
      </trkpt>
      <trkpt lat="41.216000" lon="-3.518217">
        <ele>1937.0</ele>
        <time>2017-09-30T13:34:23Z</time>
      </trkpt>
      <trkpt lat="41.215933" lon="-3.518133">
        <ele>1937.0</ele>
        <time>2017-09-30T13:34:24Z</time>
      </trkpt>
      <trkpt lat="41.215867" lon="-3.518067">
        <ele>1937.0</ele>
        <time>2017-09-30T13:34:25Z</time>
      </trkpt>
      <trkpt lat="41.215783" lon="-3.518017">
        <ele>1937.0</ele>
        <time>2017-09-30T13:34:26Z</time>
      </trkpt>
      <trkpt lat="41.215717" lon="-3.517983">
        <ele>1937.0</ele>
        <time>2017-09-30T13:34:27Z</time>
      </trkpt>
      <trkpt lat="41.215650" lon="-3.517967">
        <ele>1937.0</ele>
        <time>2017-09-30T13:34:28Z</time>
      </trkpt>
      <trkpt lat="41.215583" lon="-3.517950">
        <ele>1937.0</ele>
        <time>2017-09-30T13:34:29Z</time>
      </trkpt>
      <trkpt lat="41.215517" lon="-3.517950">
        <ele>1936.0</ele>
        <time>2017-09-30T13:34:30Z</time>
      </trkpt>
      <trkpt lat="41.215433" lon="-3.517950">
        <ele>1936.0</ele>
        <time>2017-09-30T13:34:31Z</time>
      </trkpt>
      <trkpt lat="41.215367" lon="-3.517983">
        <ele>1935.0</ele>
        <time>2017-09-30T13:34:32Z</time>
      </trkpt>
      <trkpt lat="41.215317" lon="-3.518017">
        <ele>1933.0</ele>
        <time>2017-09-30T13:34:33Z</time>
      </trkpt>
      <trkpt lat="41.215283" lon="-3.518100">
        <ele>1931.0</ele>
        <time>2017-09-30T13:34:34Z</time>
      </trkpt>
      <trkpt lat="41.215267" lon="-3.518167">
        <ele>1929.0</ele>
        <time>2017-09-30T13:34:35Z</time>
      </trkpt>
      <trkpt lat="41.215283" lon="-3.518250">
        <ele>1927.0</ele>
        <time>2017-09-30T13:34:36Z</time>
      </trkpt>
      <trkpt lat="41.215333" lon="-3.518333">
        <ele>1926.0</ele>
        <time>2017-09-30T13:34:37Z</time>
      </trkpt>
      <trkpt lat="41.215383" lon="-3.518383">
        <ele>1926.0</ele>
        <time>2017-09-30T13:34:38Z</time>
      </trkpt>
      <trkpt lat="41.215433" lon="-3.518433">
        <ele>1927.0</ele>
        <time>2017-09-30T13:34:39Z</time>
      </trkpt>
      <trkpt lat="41.215483" lon="-3.518467">
        <ele>1929.0</ele>
        <time>2017-09-30T13:34:40Z</time>
      </trkpt>
      <trkpt lat="41.215517" lon="-3.518483">
        <ele>1929.0</ele>
        <time>2017-09-30T13:34:41Z</time>
      </trkpt>
      <trkpt lat="41.215567" lon="-3.518500">
        <ele>1928.0</ele>
        <time>2017-09-30T13:34:42Z</time>
      </trkpt>
      <trkpt lat="41.215633" lon="-3.518517">
        <ele>1927.0</ele>
        <time>2017-09-30T13:34:43Z</time>
      </trkpt>
      <trkpt lat="41.215717" lon="-3.518517">
        <ele>1926.0</ele>
        <time>2017-09-30T13:34:44Z</time>
      </trkpt>
      <trkpt lat="41.215800" lon="-3.518517">
        <ele>1926.0</ele>
        <time>2017-09-30T13:34:45Z</time>
      </trkpt>
      <trkpt lat="41.215883" lon="-3.518500">
        <ele>1927.0</ele>
        <time>2017-09-30T13:34:46Z</time>
      </trkpt>
      <trkpt lat="41.215967" lon="-3.518450">
        <ele>1928.0</ele>
        <time>2017-09-30T13:34:47Z</time>
      </trkpt>
      <trkpt lat="41.216033" lon="-3.518367">
        <ele>1929.0</ele>
        <time>2017-09-30T13:34:48Z</time>
      </trkpt>
      <trkpt lat="41.216100" lon="-3.518250">
        <ele>1930.0</ele>
        <time>2017-09-30T13:34:49Z</time>
      </trkpt>
      <trkpt lat="41.216150" lon="-3.518117">
        <ele>1930.0</ele>
        <time>2017-09-30T13:34:50Z</time>
      </trkpt>
      <trkpt lat="41.216183" lon="-3.517967">
        <ele>1931.0</ele>
        <time>2017-09-30T13:34:51Z</time>
      </trkpt>
      <trkpt lat="41.216183" lon="-3.517800">
        <ele>1932.0</ele>
        <time>2017-09-30T13:34:52Z</time>
      </trkpt>
      <trkpt lat="41.216167" lon="-3.517633">
        <ele>1933.0</ele>
        <time>2017-09-30T13:34:53Z</time>
      </trkpt>
      <trkpt lat="41.216133" lon="-3.517483">
        <ele>1934.0</ele>
        <time>2017-09-30T13:34:54Z</time>
      </trkpt>
      <trkpt lat="41.216067" lon="-3.517333">
        <ele>1936.0</ele>
        <time>2017-09-30T13:34:55Z</time>
      </trkpt>
      <trkpt lat="41.215983" lon="-3.517200">
        <ele>1938.0</ele>
        <time>2017-09-30T13:34:56Z</time>
      </trkpt>
      <trkpt lat="41.215900" lon="-3.517117">
        <ele>1939.0</ele>
        <time>2017-09-30T13:34:57Z</time>
      </trkpt>
      <trkpt lat="41.215817" lon="-3.517050">
        <ele>1939.0</ele>
        <time>2017-09-30T13:34:58Z</time>
      </trkpt>
      <trkpt lat="41.215733" lon="-3.517000">
        <ele>1940.0</ele>
        <time>2017-09-30T13:34:59Z</time>
      </trkpt>
      <trkpt lat="41.215650" lon="-3.516983">
        <ele>1940.0</ele>
        <time>2017-09-30T13:35:00Z</time>
      </trkpt>
      <trkpt lat="41.215567" lon="-3.517017">
        <ele>1941.0</ele>
        <time>2017-09-30T13:35:01Z</time>
      </trkpt>
      <trkpt lat="41.215517" lon="-3.517050">
        <ele>1941.0</ele>
        <time>2017-09-30T13:35:02Z</time>
      </trkpt>
      <trkpt lat="41.215500" lon="-3.517100">
        <ele>1942.0</ele>
        <time>2017-09-30T13:35:03Z</time>
      </trkpt>
      <trkpt lat="41.215500" lon="-3.517150">
        <ele>1941.0</ele>
        <time>2017-09-30T13:35:04Z</time>
      </trkpt>
      <trkpt lat="41.215533" lon="-3.517200">
        <ele>1940.0</ele>
        <time>2017-09-30T13:35:05Z</time>
      </trkpt>
      <trkpt lat="41.215600" lon="-3.517250">
        <ele>1940.0</ele>
        <time>2017-09-30T13:35:06Z</time>
      </trkpt>
      <trkpt lat="41.215667" lon="-3.517300">
        <ele>1940.0</ele>
        <time>2017-09-30T13:35:07Z</time>
      </trkpt>
      <trkpt lat="41.215733" lon="-3.517317">
        <ele>1942.0</ele>
        <time>2017-09-30T13:35:08Z</time>
      </trkpt>
      <trkpt lat="41.215817" lon="-3.517300">
        <ele>1943.0</ele>
        <time>2017-09-30T13:35:09Z</time>
      </trkpt>
      <trkpt lat="41.215883" lon="-3.517267">
        <ele>1944.0</ele>
        <time>2017-09-30T13:35:10Z</time>
      </trkpt>
      <trkpt lat="41.215950" lon="-3.517200">
        <ele>1944.0</ele>
        <time>2017-09-30T13:35:11Z</time>
      </trkpt>
      <trkpt lat="41.216033" lon="-3.517133">
        <ele>1944.0</ele>
        <time>2017-09-30T13:35:12Z</time>
      </trkpt>
      <trkpt lat="41.216100" lon="-3.517067">
        <ele>1945.0</ele>
        <time>2017-09-30T13:35:13Z</time>
      </trkpt>
      <trkpt lat="41.216167" lon="-3.516967">
        <ele>1946.0</ele>
        <time>2017-09-30T13:35:14Z</time>
      </trkpt>
      <trkpt lat="41.216233" lon="-3.516867">
        <ele>1946.0</ele>
        <time>2017-09-30T13:35:15Z</time>
      </trkpt>
      <trkpt lat="41.216267" lon="-3.516750">
        <ele>1946.0</ele>
        <time>2017-09-30T13:35:16Z</time>
      </trkpt>
      <trkpt lat="41.216317" lon="-3.516617">
        <ele>1947.0</ele>
        <time>2017-09-30T13:35:17Z</time>
      </trkpt>
      <trkpt lat="41.216350" lon="-3.516467">
        <ele>1948.0</ele>
        <time>2017-09-30T13:35:18Z</time>
      </trkpt>
      <trkpt lat="41.216367" lon="-3.516333">
        <ele>1951.0</ele>
        <time>2017-09-30T13:35:19Z</time>
      </trkpt>
      <trkpt lat="41.216383" lon="-3.516200">
        <ele>1955.0</ele>
        <time>2017-09-30T13:35:20Z</time>
      </trkpt>
      <trkpt lat="41.216350" lon="-3.516067">
        <ele>1957.0</ele>
        <time>2017-09-30T13:35:21Z</time>
      </trkpt>
      <trkpt lat="41.216317" lon="-3.515933">
        <ele>1957.0</ele>
        <time>2017-09-30T13:35:22Z</time>
      </trkpt>
      <trkpt lat="41.216250" lon="-3.515800">
        <ele>1958.0</ele>
        <time>2017-09-30T13:35:23Z</time>
      </trkpt>
      <trkpt lat="41.216167" lon="-3.515683">
        <ele>1960.0</ele>
        <time>2017-09-30T13:35:24Z</time>
      </trkpt>
      <trkpt lat="41.216083" lon="-3.515600">
        <ele>1963.0</ele>
        <time>2017-09-30T13:35:25Z</time>
      </trkpt>
      <trkpt lat="41.216017" lon="-3.515567">
        <ele>1965.0</ele>
        <time>2017-09-30T13:35:26Z</time>
      </trkpt>
      <trkpt lat="41.215933" lon="-3.515550">
        <ele>1966.0</ele>
        <time>2017-09-30T13:35:27Z</time>
      </trkpt>
      <trkpt lat="41.215850" lon="-3.515567">
        <ele>1965.0</ele>
        <time>2017-09-30T13:35:28Z</time>
      </trkpt>
      <trkpt lat="41.215767" lon="-3.515567">
        <ele>1964.0</ele>
        <time>2017-09-30T13:35:29Z</time>
      </trkpt>
      <trkpt lat="41.215683" lon="-3.515600">
        <ele>1964.0</ele>
        <time>2017-09-30T13:35:30Z</time>
      </trkpt>
      <trkpt lat="41.215617" lon="-3.515650">
        <ele>1965.0</ele>
        <time>2017-09-30T13:35:31Z</time>
      </trkpt>
      <trkpt lat="41.215583" lon="-3.515717">
        <ele>1966.0</ele>
        <time>2017-09-30T13:35:32Z</time>
      </trkpt>
      <trkpt lat="41.215567" lon="-3.515800">
        <ele>1967.0</ele>
        <time>2017-09-30T13:35:33Z</time>
      </trkpt>
      <trkpt lat="41.215567" lon="-3.515850">
        <ele>1969.0</ele>
        <time>2017-09-30T13:35:34Z</time>
      </trkpt>
      <trkpt lat="41.215567" lon="-3.515900">
        <ele>1971.0</ele>
        <time>2017-09-30T13:35:35Z</time>
      </trkpt>
      <trkpt lat="41.215600" lon="-3.515933">
        <ele>1972.0</ele>
        <time>2017-09-30T13:35:36Z</time>
      </trkpt>
      <trkpt lat="41.215617" lon="-3.515967">
        <ele>1971.0</ele>
        <time>2017-09-30T13:35:37Z</time>
      </trkpt>
      <trkpt lat="41.215667" lon="-3.516000">
        <ele>1970.0</ele>
        <time>2017-09-30T13:35:38Z</time>
      </trkpt>
      <trkpt lat="41.215733" lon="-3.516050">
        <ele>1969.0</ele>
        <time>2017-09-30T13:35:39Z</time>
      </trkpt>
      <trkpt lat="41.215800" lon="-3.516067">
        <ele>1970.0</ele>
        <time>2017-09-30T13:35:40Z</time>
      </trkpt>
      <trkpt lat="41.215883" lon="-3.516050">
        <ele>1972.0</ele>
        <time>2017-09-30T13:35:41Z</time>
      </trkpt>
      <trkpt lat="41.215967" lon="-3.515983">
        <ele>1973.0</ele>
        <time>2017-09-30T13:35:42Z</time>
      </trkpt>
      <trkpt lat="41.216033" lon="-3.515917">
        <ele>1974.0</ele>
        <time>2017-09-30T13:35:43Z</time>
      </trkpt>
      <trkpt lat="41.216100" lon="-3.515833">
        <ele>1974.0</ele>
        <time>2017-09-30T13:35:44Z</time>
      </trkpt>
      <trkpt lat="41.216167" lon="-3.515733">
        <ele>1974.0</ele>
        <time>2017-09-30T13:35:45Z</time>
      </trkpt>
      <trkpt lat="41.216217" lon="-3.515617">
        <ele>1975.0</ele>
        <time>2017-09-30T13:35:46Z</time>
      </trkpt>
      <trkpt lat="41.216267" lon="-3.515483">
        <ele>1976.0</ele>
        <time>2017-09-30T13:35:47Z</time>
      </trkpt>
      <trkpt lat="41.216283" lon="-3.515333">
        <ele>1976.0</ele>
        <time>2017-09-30T13:35:48Z</time>
      </trkpt>
      <trkpt lat="41.216300" lon="-3.515183">
        <ele>1976.0</ele>
        <time>2017-09-30T13:35:49Z</time>
      </trkpt>
      <trkpt lat="41.216283" lon="-3.515017">
        <ele>1977.0</ele>
        <time>2017-09-30T13:35:50Z</time>
      </trkpt>
      <trkpt lat="41.216267" lon="-3.514850">
        <ele>1978.0</ele>
        <time>2017-09-30T13:35:51Z</time>
      </trkpt>
      <trkpt lat="41.216217" lon="-3.514683">
        <ele>1981.0</ele>
        <time>2017-09-30T13:35:52Z</time>
      </trkpt>
      <trkpt lat="41.216167" lon="-3.514550">
        <ele>1983.0</ele>
        <time>2017-09-30T13:35:53Z</time>
      </trkpt>
      <trkpt lat="41.216100" lon="-3.514450">
        <ele>1985.0</ele>
        <time>2017-09-30T13:35:54Z</time>
      </trkpt>
      <trkpt lat="41.216033" lon="-3.514367">
        <ele>1987.0</ele>
        <time>2017-09-30T13:35:55Z</time>
      </trkpt>
      <trkpt lat="41.215950" lon="-3.514317">
        <ele>1986.0</ele>
        <time>2017-09-30T13:35:56Z</time>
      </trkpt>
      <trkpt lat="41.215883" lon="-3.514283">
        <ele>1986.0</ele>
        <time>2017-09-30T13:35:57Z</time>
      </trkpt>
      <trkpt lat="41.215800" lon="-3.514267">
        <ele>1985.0</ele>
        <time>2017-09-30T13:35:58Z</time>
      </trkpt>
      <trkpt lat="41.215717" lon="-3.514250">
        <ele>1984.0</ele>
        <time>2017-09-30T13:35:59Z</time>
      </trkpt>
      <trkpt lat="41.215633" lon="-3.514267">
        <ele>1984.0</ele>
        <time>2017-09-30T13:36:00Z</time>
      </trkpt>
      <trkpt lat="41.215567" lon="-3.514283">
        <ele>1984.0</ele>
        <time>2017-09-30T13:36:01Z</time>
      </trkpt>
      <trkpt lat="41.215533" lon="-3.514333">
        <ele>1984.0</ele>
        <time>2017-09-30T13:36:02Z</time>
      </trkpt>
      <trkpt lat="41.215517" lon="-3.514400">
        <ele>1984.0</ele>
        <time>2017-09-30T13:36:03Z</time>
      </trkpt>
      <trkpt lat="41.215533" lon="-3.514467">
        <ele>1984.0</ele>
        <time>2017-09-30T13:36:04Z</time>
      </trkpt>
      <trkpt lat="41.215567" lon="-3.514517">
        <ele>1985.0</ele>
        <time>2017-09-30T13:36:05Z</time>
      </trkpt>
      <trkpt lat="41.215617" lon="-3.514550">
        <ele>1986.0</ele>
        <time>2017-09-30T13:36:06Z</time>
      </trkpt>
      <trkpt lat="41.215667" lon="-3.514567">
        <ele>1986.0</ele>
        <time>2017-09-30T13:36:07Z</time>
      </trkpt>
      <trkpt lat="41.215733" lon="-3.514583">
        <ele>1985.0</ele>
        <time>2017-09-30T13:36:08Z</time>
      </trkpt>
      <trkpt lat="41.215800" lon="-3.514600">
        <ele>1985.0</ele>
        <time>2017-09-30T13:36:09Z</time>
      </trkpt>
      <trkpt lat="41.215883" lon="-3.514617">
        <ele>1985.0</ele>
        <time>2017-09-30T13:36:10Z</time>
      </trkpt>
      <trkpt lat="41.215950" lon="-3.514617">
        <ele>1986.0</ele>
        <time>2017-09-30T13:36:11Z</time>
      </trkpt>
      <trkpt lat="41.216033" lon="-3.514600">
        <ele>1987.0</ele>
        <time>2017-09-30T13:36:12Z</time>
      </trkpt>
      <trkpt lat="41.216100" lon="-3.514567">
        <ele>1988.0</ele>
        <time>2017-09-30T13:36:13Z</time>
      </trkpt>
      <trkpt lat="41.216167" lon="-3.514517">
        <ele>1988.0</ele>
        <time>2017-09-30T13:36:14Z</time>
      </trkpt>
      <trkpt lat="41.216250" lon="-3.514450">
        <ele>1988.0</ele>
        <time>2017-09-30T13:36:15Z</time>
      </trkpt>
      <trkpt lat="41.216317" lon="-3.514350">
        <ele>1988.0</ele>
        <time>2017-09-30T13:36:16Z</time>
      </trkpt>
      <trkpt lat="41.216383" lon="-3.514233">
        <ele>1988.0</ele>
        <time>2017-09-30T13:36:17Z</time>
      </trkpt>
      <trkpt lat="41.216433" lon="-3.514100">
        <ele>1988.0</ele>
        <time>2017-09-30T13:36:18Z</time>
      </trkpt>
      <trkpt lat="41.216483" lon="-3.513967">
        <ele>1989.0</ele>
        <time>2017-09-30T13:36:19Z</time>
      </trkpt>
      <trkpt lat="41.216517" lon="-3.513833">
        <ele>1990.0</ele>
        <time>2017-09-30T13:36:20Z</time>
      </trkpt>
      <trkpt lat="41.216550" lon="-3.513683">
        <ele>1990.0</ele>
        <time>2017-09-30T13:36:21Z</time>
      </trkpt>
      <trkpt lat="41.216567" lon="-3.513533">
        <ele>1990.0</ele>
        <time>2017-09-30T13:36:22Z</time>
      </trkpt>
      <trkpt lat="41.216583" lon="-3.513367">
        <ele>1991.0</ele>
        <time>2017-09-30T13:36:23Z</time>
      </trkpt>
      <trkpt lat="41.216567" lon="-3.513217">
        <ele>1993.0</ele>
        <time>2017-09-30T13:36:24Z</time>
      </trkpt>
      <trkpt lat="41.216550" lon="-3.513100">
        <ele>1995.0</ele>
        <time>2017-09-30T13:36:25Z</time>
      </trkpt>
      <trkpt lat="41.216500" lon="-3.513000">
        <ele>1995.0</ele>
        <time>2017-09-30T13:36:26Z</time>
      </trkpt>
      <trkpt lat="41.216433" lon="-3.512900">
        <ele>1995.0</ele>
        <time>2017-09-30T13:36:27Z</time>
      </trkpt>
      <trkpt lat="41.216350" lon="-3.512817">
        <ele>1995.0</ele>
        <time>2017-09-30T13:36:28Z</time>
      </trkpt>
      <trkpt lat="41.216250" lon="-3.512750">
        <ele>1996.0</ele>
        <time>2017-09-30T13:36:29Z</time>
      </trkpt>
      <trkpt lat="41.216167" lon="-3.512717">
        <ele>1997.0</ele>
        <time>2017-09-30T13:36:30Z</time>
      </trkpt>
      <trkpt lat="41.216083" lon="-3.512717">
        <ele>1998.0</ele>
        <time>2017-09-30T13:36:31Z</time>
      </trkpt>
      <trkpt lat="41.216017" lon="-3.512750">
        <ele>1999.0</ele>
        <time>2017-09-30T13:36:32Z</time>
      </trkpt>
      <trkpt lat="41.215967" lon="-3.512800">
        <ele>2000.0</ele>
        <time>2017-09-30T13:36:33Z</time>
      </trkpt>
      <trkpt lat="41.215933" lon="-3.512850">
        <ele>2000.0</ele>
        <time>2017-09-30T13:36:34Z</time>
      </trkpt>
      <trkpt lat="41.215917" lon="-3.512917">
        <ele>1999.0</ele>
        <time>2017-09-30T13:36:35Z</time>
      </trkpt>
      <trkpt lat="41.215933" lon="-3.513000">
        <ele>1998.0</ele>
        <time>2017-09-30T13:36:36Z</time>
      </trkpt>
      <trkpt lat="41.215950" lon="-3.513083">
        <ele>1998.0</ele>
        <time>2017-09-30T13:36:37Z</time>
      </trkpt>
      <trkpt lat="41.216000" lon="-3.513150">
        <ele>2000.0</ele>
        <time>2017-09-30T13:36:38Z</time>
      </trkpt>
      <trkpt lat="41.216050" lon="-3.513183">
        <ele>2002.0</ele>
        <time>2017-09-30T13:36:39Z</time>
      </trkpt>
      <trkpt lat="41.216100" lon="-3.513200">
        <ele>2003.0</ele>
        <time>2017-09-30T13:36:40Z</time>
      </trkpt>
      <trkpt lat="41.216167" lon="-3.513183">
        <ele>2003.0</ele>
        <time>2017-09-30T13:36:41Z</time>
      </trkpt>
      <trkpt lat="41.216250" lon="-3.513150">
        <ele>2003.0</ele>
        <time>2017-09-30T13:36:42Z</time>
      </trkpt>
      <trkpt lat="41.216333" lon="-3.513100">
        <ele>2002.0</ele>
        <time>2017-09-30T13:36:43Z</time>
      </trkpt>
      <trkpt lat="41.216417" lon="-3.513017">
        <ele>2002.0</ele>
        <time>2017-09-30T13:36:44Z</time>
      </trkpt>
      <trkpt lat="41.216483" lon="-3.512900">
        <ele>2003.0</ele>
        <time>2017-09-30T13:36:45Z</time>
      </trkpt>
      <trkpt lat="41.216517" lon="-3.512767">
        <ele>2003.0</ele>
        <time>2017-09-30T13:36:46Z</time>
      </trkpt>
      <trkpt lat="41.216567" lon="-3.512633">
        <ele>2003.0</ele>
        <time>2017-09-30T13:36:47Z</time>
      </trkpt>
      <trkpt lat="41.216583" lon="-3.512483">
        <ele>2003.0</ele>
        <time>2017-09-30T13:36:48Z</time>
      </trkpt>
      <trkpt lat="41.216600" lon="-3.512333">
        <ele>2003.0</ele>
        <time>2017-09-30T13:36:49Z</time>
      </trkpt>
      <trkpt lat="41.216600" lon="-3.512183">
        <ele>2003.0</ele>
        <time>2017-09-30T13:36:50Z</time>
      </trkpt>
      <trkpt lat="41.216600" lon="-3.512033">
        <ele>2004.0</ele>
        <time>2017-09-30T13:36:51Z</time>
      </trkpt>
      <trkpt lat="41.216567" lon="-3.511883">
        <ele>2005.0</ele>
        <time>2017-09-30T13:36:52Z</time>
      </trkpt>
      <trkpt lat="41.216533" lon="-3.511750">
        <ele>2006.0</ele>
        <time>2017-09-30T13:36:53Z</time>
      </trkpt>
      <trkpt lat="41.216483" lon="-3.511617">
        <ele>2007.0</ele>
        <time>2017-09-30T13:36:54Z</time>
      </trkpt>
      <trkpt lat="41.216417" lon="-3.511533">
        <ele>2007.0</ele>
        <time>2017-09-30T13:36:55Z</time>
      </trkpt>
      <trkpt lat="41.216367" lon="-3.511450">
        <ele>2007.0</ele>
        <time>2017-09-30T13:36:56Z</time>
      </trkpt>
      <trkpt lat="41.216300" lon="-3.511400">
        <ele>2006.0</ele>
        <time>2017-09-30T13:36:57Z</time>
      </trkpt>
      <trkpt lat="41.216217" lon="-3.511383">
        <ele>2004.0</ele>
        <time>2017-09-30T13:36:58Z</time>
      </trkpt>
      <trkpt lat="41.216133" lon="-3.511367">
        <ele>2003.0</ele>
        <time>2017-09-30T13:36:59Z</time>
      </trkpt>
      <trkpt lat="41.216067" lon="-3.511400">
        <ele>2003.0</ele>
        <time>2017-09-30T13:37:00Z</time>
      </trkpt>
      <trkpt lat="41.216017" lon="-3.511433">
        <ele>2004.0</ele>
        <time>2017-09-30T13:37:01Z</time>
      </trkpt>
      <trkpt lat="41.215967" lon="-3.511500">
        <ele>2005.0</ele>
        <time>2017-09-30T13:37:02Z</time>
      </trkpt>
      <trkpt lat="41.215933" lon="-3.511550">
        <ele>2006.0</ele>
        <time>2017-09-30T13:37:03Z</time>
      </trkpt>
      <trkpt lat="41.215917" lon="-3.511633">
        <ele>2006.0</ele>
        <time>2017-09-30T13:37:04Z</time>
      </trkpt>
      <trkpt lat="41.215900" lon="-3.511700">
        <ele>2006.0</ele>
        <time>2017-09-30T13:37:05Z</time>
      </trkpt>
      <trkpt lat="41.215917" lon="-3.511767">
        <ele>2006.0</ele>
        <time>2017-09-30T13:37:06Z</time>
      </trkpt>
      <trkpt lat="41.215967" lon="-3.511833">
        <ele>2006.0</ele>
        <time>2017-09-30T13:37:07Z</time>
      </trkpt>
      <trkpt lat="41.216017" lon="-3.511883">
        <ele>2006.0</ele>
        <time>2017-09-30T13:37:08Z</time>
      </trkpt>
      <trkpt lat="41.216083" lon="-3.511900">
        <ele>2008.0</ele>
        <time>2017-09-30T13:37:09Z</time>
      </trkpt>
      <trkpt lat="41.216150" lon="-3.511900">
        <ele>2009.0</ele>
        <time>2017-09-30T13:37:10Z</time>
      </trkpt>
      <trkpt lat="41.216233" lon="-3.511850">
        <ele>2008.0</ele>
        <time>2017-09-30T13:37:11Z</time>
      </trkpt>
      <trkpt lat="41.216317" lon="-3.511783">
        <ele>2007.0</ele>
        <time>2017-09-30T13:37:12Z</time>
      </trkpt>
      <trkpt lat="41.216400" lon="-3.511717">
        <ele>2007.0</ele>
        <time>2017-09-30T13:37:13Z</time>
      </trkpt>
      <trkpt lat="41.216483" lon="-3.511633">
        <ele>2007.0</ele>
        <time>2017-09-30T13:37:14Z</time>
      </trkpt>
      <trkpt lat="41.216567" lon="-3.511533">
        <ele>2007.0</ele>
        <time>2017-09-30T13:37:15Z</time>
      </trkpt>
      <trkpt lat="41.216633" lon="-3.511417">
        <ele>2007.0</ele>
        <time>2017-09-30T13:37:16Z</time>
      </trkpt>
      <trkpt lat="41.216700" lon="-3.511283">
        <ele>2007.0</ele>
        <time>2017-09-30T13:37:17Z</time>
      </trkpt>
      <trkpt lat="41.216750" lon="-3.511150">
        <ele>2008.0</ele>
        <time>2017-09-30T13:37:18Z</time>
      </trkpt>
      <trkpt lat="41.216783" lon="-3.511033">
        <ele>2009.0</ele>
        <time>2017-09-30T13:37:19Z</time>
      </trkpt>
      <trkpt lat="41.216800" lon="-3.510900">
        <ele>2011.0</ele>
        <time>2017-09-30T13:37:20Z</time>
      </trkpt>
      <trkpt lat="41.216817" lon="-3.510767">
        <ele>2011.0</ele>
        <time>2017-09-30T13:37:21Z</time>
      </trkpt>
      <trkpt lat="41.216817" lon="-3.510650">
        <ele>2011.0</ele>
        <time>2017-09-30T13:37:22Z</time>
      </trkpt>
      <trkpt lat="41.216833" lon="-3.510517">
        <ele>2011.0</ele>
        <time>2017-09-30T13:37:23Z</time>
      </trkpt>
      <trkpt lat="41.216833" lon="-3.510400">
        <ele>2011.0</ele>
        <time>2017-09-30T13:37:24Z</time>
      </trkpt>
      <trkpt lat="41.216817" lon="-3.510267">
        <ele>2011.0</ele>
        <time>2017-09-30T13:37:25Z</time>
      </trkpt>
      <trkpt lat="41.216767" lon="-3.510150">
        <ele>2010.0</ele>
        <time>2017-09-30T13:37:26Z</time>
      </trkpt>
      <trkpt lat="41.216733" lon="-3.510033">
        <ele>2009.0</ele>
        <time>2017-09-30T13:37:27Z</time>
      </trkpt>
      <trkpt lat="41.216667" lon="-3.509933">
        <ele>2008.0</ele>
        <time>2017-09-30T13:37:28Z</time>
      </trkpt>
      <trkpt lat="41.216600" lon="-3.509850">
        <ele>2007.0</ele>
        <time>2017-09-30T13:37:29Z</time>
      </trkpt>
      <trkpt lat="41.216500" lon="-3.509767">
        <ele>2006.0</ele>
        <time>2017-09-30T13:37:30Z</time>
      </trkpt>
      <trkpt lat="41.216417" lon="-3.509717">
        <ele>2006.0</ele>
        <time>2017-09-30T13:37:31Z</time>
      </trkpt>
      <trkpt lat="41.216333" lon="-3.509683">
        <ele>2006.0</ele>
        <time>2017-09-30T13:37:32Z</time>
      </trkpt>
      <trkpt lat="41.216250" lon="-3.509650">
        <ele>2006.0</ele>
        <time>2017-09-30T13:37:33Z</time>
      </trkpt>
      <trkpt lat="41.216167" lon="-3.509650">
        <ele>2005.0</ele>
        <time>2017-09-30T13:37:34Z</time>
      </trkpt>
      <trkpt lat="41.216083" lon="-3.509667">
        <ele>2005.0</ele>
        <time>2017-09-30T13:37:35Z</time>
      </trkpt>
      <trkpt lat="41.216017" lon="-3.509700">
        <ele>2006.0</ele>
        <time>2017-09-30T13:37:36Z</time>
      </trkpt>
      <trkpt lat="41.215983" lon="-3.509767">
        <ele>2007.0</ele>
        <time>2017-09-30T13:37:37Z</time>
      </trkpt>
      <trkpt lat="41.215983" lon="-3.509833">
        <ele>2008.0</ele>
        <time>2017-09-30T13:37:38Z</time>
      </trkpt>
      <trkpt lat="41.216000" lon="-3.509900">
        <ele>2008.0</ele>
        <time>2017-09-30T13:37:39Z</time>
      </trkpt>
      <trkpt lat="41.216017" lon="-3.509967">
        <ele>2008.0</ele>
        <time>2017-09-30T13:37:40Z</time>
      </trkpt>
      <trkpt lat="41.216067" lon="-3.510033">
        <ele>2009.0</ele>
        <time>2017-09-30T13:37:41Z</time>
      </trkpt>
      <trkpt lat="41.216133" lon="-3.510083">
        <ele>2011.0</ele>
        <time>2017-09-30T13:37:42Z</time>
      </trkpt>
      <trkpt lat="41.216200" lon="-3.510100">
        <ele>2011.0</ele>
        <time>2017-09-30T13:37:43Z</time>
      </trkpt>
      <trkpt lat="41.216283" lon="-3.510083">
        <ele>2011.0</ele>
        <time>2017-09-30T13:37:44Z</time>
      </trkpt>
      <trkpt lat="41.216367" lon="-3.510067">
        <ele>2011.0</ele>
        <time>2017-09-30T13:37:45Z</time>
      </trkpt>
      <trkpt lat="41.216450" lon="-3.510017">
        <ele>2011.0</ele>
        <time>2017-09-30T13:37:46Z</time>
      </trkpt>
      <trkpt lat="41.216533" lon="-3.509933">
        <ele>2010.0</ele>
        <time>2017-09-30T13:37:47Z</time>
      </trkpt>
      <trkpt lat="41.216600" lon="-3.509850">
        <ele>2010.0</ele>
        <time>2017-09-30T13:37:48Z</time>
      </trkpt>
      <trkpt lat="41.216650" lon="-3.509717">
        <ele>2010.0</ele>
        <time>2017-09-30T13:37:49Z</time>
      </trkpt>
      <trkpt lat="41.216683" lon="-3.509583">
        <ele>2009.0</ele>
        <time>2017-09-30T13:37:50Z</time>
      </trkpt>
      <trkpt lat="41.216717" lon="-3.509450">
        <ele>2009.0</ele>
        <time>2017-09-30T13:37:51Z</time>
      </trkpt>
      <trkpt lat="41.216750" lon="-3.509333">
        <ele>2009.0</ele>
        <time>2017-09-30T13:37:52Z</time>
      </trkpt>
      <trkpt lat="41.216783" lon="-3.509233">
        <ele>2007.0</ele>
        <time>2017-09-30T13:37:53Z</time>
      </trkpt>
      <trkpt lat="41.216833" lon="-3.509117">
        <ele>2006.0</ele>
        <time>2017-09-30T13:37:54Z</time>
      </trkpt>
      <trkpt lat="41.216900" lon="-3.509000">
        <ele>2005.0</ele>
        <time>2017-09-30T13:37:55Z</time>
      </trkpt>
      <trkpt lat="41.216950" lon="-3.508867">
        <ele>2005.0</ele>
        <time>2017-09-30T13:37:56Z</time>
      </trkpt>
      <trkpt lat="41.217033" lon="-3.508733">
        <ele>2006.0</ele>
        <time>2017-09-30T13:37:57Z</time>
      </trkpt>
      <trkpt lat="41.217100" lon="-3.508617">
        <ele>2007.0</ele>
        <time>2017-09-30T13:37:58Z</time>
      </trkpt>
      <trkpt lat="41.217183" lon="-3.508517">
        <ele>2010.0</ele>
        <time>2017-09-30T13:37:59Z</time>
      </trkpt>
      <trkpt lat="41.217267" lon="-3.508417">
        <ele>2012.0</ele>
        <time>2017-09-30T13:38:00Z</time>
      </trkpt>
      <trkpt lat="41.217333" lon="-3.508283">
        <ele>2014.0</ele>
        <time>2017-09-30T13:38:01Z</time>
      </trkpt>
      <trkpt lat="41.217400" lon="-3.508150">
        <ele>2015.0</ele>
        <time>2017-09-30T13:38:02Z</time>
      </trkpt>
      <trkpt lat="41.217433" lon="-3.508017">
        <ele>2015.0</ele>
        <time>2017-09-30T13:38:03Z</time>
      </trkpt>
      <trkpt lat="41.217450" lon="-3.507883">
        <ele>2016.0</ele>
        <time>2017-09-30T13:38:04Z</time>
      </trkpt>
      <trkpt lat="41.217450" lon="-3.507750">
        <ele>2016.0</ele>
        <time>2017-09-30T13:38:05Z</time>
      </trkpt>
      <trkpt lat="41.217450" lon="-3.507600">
        <ele>2014.0</ele>
        <time>2017-09-30T13:38:06Z</time>
      </trkpt>
      <trkpt lat="41.217433" lon="-3.507450">
        <ele>2014.0</ele>
        <time>2017-09-30T13:38:07Z</time>
      </trkpt>
      <trkpt lat="41.217417" lon="-3.507317">
        <ele>2013.0</ele>
        <time>2017-09-30T13:38:08Z</time>
      </trkpt>
      <trkpt lat="41.217400" lon="-3.507167">
        <ele>2012.0</ele>
        <time>2017-09-30T13:38:09Z</time>
      </trkpt>
      <trkpt lat="41.217383" lon="-3.507000">
        <ele>2012.0</ele>
        <time>2017-09-30T13:38:10Z</time>
      </trkpt>
      <trkpt lat="41.217400" lon="-3.506850">
        <ele>2011.0</ele>
        <time>2017-09-30T13:38:11Z</time>
      </trkpt>
      <trkpt lat="41.217433" lon="-3.506683">
        <ele>2011.0</ele>
        <time>2017-09-30T13:38:12Z</time>
      </trkpt>
      <trkpt lat="41.217467" lon="-3.506533">
        <ele>2011.0</ele>
        <time>2017-09-30T13:38:13Z</time>
      </trkpt>
      <trkpt lat="41.217517" lon="-3.506400">
        <ele>2012.0</ele>
        <time>2017-09-30T13:38:14Z</time>
      </trkpt>
      <trkpt lat="41.217550" lon="-3.506267">
        <ele>2012.0</ele>
        <time>2017-09-30T13:38:15Z</time>
      </trkpt>
      <trkpt lat="41.217600" lon="-3.506133">
        <ele>2011.0</ele>
        <time>2017-09-30T13:38:16Z</time>
      </trkpt>
      <trkpt lat="41.217667" lon="-3.506017">
        <ele>2011.0</ele>
        <time>2017-09-30T13:38:17Z</time>
      </trkpt>
      <trkpt lat="41.217750" lon="-3.505917">
        <ele>2009.0</ele>
        <time>2017-09-30T13:38:18Z</time>
      </trkpt>
      <trkpt lat="41.217833" lon="-3.505800">
        <ele>2009.0</ele>
        <time>2017-09-30T13:38:19Z</time>
      </trkpt>
      <trkpt lat="41.217917" lon="-3.505683">
        <ele>2009.0</ele>
        <time>2017-09-30T13:38:20Z</time>
      </trkpt>
      <trkpt lat="41.218000" lon="-3.505583">
        <ele>2010.0</ele>
        <time>2017-09-30T13:38:21Z</time>
      </trkpt>
      <trkpt lat="41.218083" lon="-3.505467">
        <ele>2011.0</ele>
        <time>2017-09-30T13:38:22Z</time>
      </trkpt>
      <trkpt lat="41.218183" lon="-3.505383">
        <ele>2012.0</ele>
        <time>2017-09-30T13:38:23Z</time>
      </trkpt>
      <trkpt lat="41.218267" lon="-3.505283">
        <ele>2014.0</ele>
        <time>2017-09-30T13:38:24Z</time>
      </trkpt>
      <trkpt lat="41.218367" lon="-3.505200">
        <ele>2014.0</ele>
        <time>2017-09-30T13:38:25Z</time>
      </trkpt>
      <trkpt lat="41.218467" lon="-3.505133">
        <ele>2014.0</ele>
        <time>2017-09-30T13:38:26Z</time>
      </trkpt>
      <trkpt lat="41.218567" lon="-3.505100">
        <ele>2015.0</ele>
        <time>2017-09-30T13:38:27Z</time>
      </trkpt>
      <trkpt lat="41.218667" lon="-3.505083">
        <ele>2017.0</ele>
        <time>2017-09-30T13:38:28Z</time>
      </trkpt>
      <trkpt lat="41.218733" lon="-3.505100">
        <ele>2020.0</ele>
        <time>2017-09-30T13:38:29Z</time>
      </trkpt>
      <trkpt lat="41.218800" lon="-3.505117">
        <ele>2021.0</ele>
        <time>2017-09-30T13:38:30Z</time>
      </trkpt>
      <trkpt lat="41.218850" lon="-3.505133">
        <ele>2020.0</ele>
        <time>2017-09-30T13:38:31Z</time>
      </trkpt>
      <trkpt lat="41.218900" lon="-3.505183">
        <ele>2019.0</ele>
        <time>2017-09-30T13:38:32Z</time>
      </trkpt>
      <trkpt lat="41.218950" lon="-3.505250">
        <ele>2018.0</ele>
        <time>2017-09-30T13:38:33Z</time>
      </trkpt>
      <trkpt lat="41.218983" lon="-3.505317">
        <ele>2017.0</ele>
        <time>2017-09-30T13:38:34Z</time>
      </trkpt>
      <trkpt lat="41.218983" lon="-3.505400">
        <ele>2016.0</ele>
        <time>2017-09-30T13:38:35Z</time>
      </trkpt>
      <trkpt lat="41.218967" lon="-3.505483">
        <ele>2014.0</ele>
        <time>2017-09-30T13:38:36Z</time>
      </trkpt>
      <trkpt lat="41.218917" lon="-3.505550">
        <ele>2013.0</ele>
        <time>2017-09-30T13:38:37Z</time>
      </trkpt>
      <trkpt lat="41.218850" lon="-3.505600">
        <ele>2012.0</ele>
        <time>2017-09-30T13:38:38Z</time>
      </trkpt>
      <trkpt lat="41.218783" lon="-3.505617">
        <ele>2013.0</ele>
        <time>2017-09-30T13:38:39Z</time>
      </trkpt>
      <trkpt lat="41.218700" lon="-3.505617">
        <ele>2015.0</ele>
        <time>2017-09-30T13:38:40Z</time>
      </trkpt>
      <trkpt lat="41.218633" lon="-3.505583">
        <ele>2017.0</ele>
        <time>2017-09-30T13:38:41Z</time>
      </trkpt>
      <trkpt lat="41.218567" lon="-3.505533">
        <ele>2018.0</ele>
        <time>2017-09-30T13:38:42Z</time>
      </trkpt>
      <trkpt lat="41.218500" lon="-3.505483">
        <ele>2018.0</ele>
        <time>2017-09-30T13:38:43Z</time>
      </trkpt>
      <trkpt lat="41.218417" lon="-3.505400">
        <ele>2018.0</ele>
        <time>2017-09-30T13:38:44Z</time>
      </trkpt>
      <trkpt lat="41.218350" lon="-3.505283">
        <ele>2019.0</ele>
        <time>2017-09-30T13:38:45Z</time>
      </trkpt>
      <trkpt lat="41.218283" lon="-3.505150">
        <ele>2019.0</ele>
        <time>2017-09-30T13:38:46Z</time>
      </trkpt>
      <trkpt lat="41.218233" lon="-3.505017">
        <ele>2020.0</ele>
        <time>2017-09-30T13:38:47Z</time>
      </trkpt>
      <trkpt lat="41.218183" lon="-3.504883">
        <ele>2020.0</ele>
        <time>2017-09-30T13:38:48Z</time>
      </trkpt>
      <trkpt lat="41.218167" lon="-3.504717">
        <ele>2020.0</ele>
        <time>2017-09-30T13:38:49Z</time>
      </trkpt>
      <trkpt lat="41.218150" lon="-3.504550">
        <ele>2020.0</ele>
        <time>2017-09-30T13:38:50Z</time>
      </trkpt>
      <trkpt lat="41.218150" lon="-3.504367">
        <ele>2020.0</ele>
        <time>2017-09-30T13:38:51Z</time>
      </trkpt>
      <trkpt lat="41.218183" lon="-3.504200">
        <ele>2020.0</ele>
        <time>2017-09-30T13:38:52Z</time>
      </trkpt>
      <trkpt lat="41.218233" lon="-3.504050">
        <ele>2020.0</ele>
        <time>2017-09-30T13:38:53Z</time>
      </trkpt>
      <trkpt lat="41.218300" lon="-3.503900">
        <ele>2021.0</ele>
        <time>2017-09-30T13:38:54Z</time>
      </trkpt>
      <trkpt lat="41.218350" lon="-3.503767">
        <ele>2022.0</ele>
        <time>2017-09-30T13:38:55Z</time>
      </trkpt>
      <trkpt lat="41.218433" lon="-3.503650">
        <ele>2023.0</ele>
        <time>2017-09-30T13:38:56Z</time>
      </trkpt>
      <trkpt lat="41.218500" lon="-3.503533">
        <ele>2024.0</ele>
        <time>2017-09-30T13:38:57Z</time>
      </trkpt>
      <trkpt lat="41.218583" lon="-3.503433">
        <ele>2025.0</ele>
        <time>2017-09-30T13:38:58Z</time>
      </trkpt>
      <trkpt lat="41.218667" lon="-3.503317">
        <ele>2026.0</ele>
        <time>2017-09-30T13:38:59Z</time>
      </trkpt>
      <trkpt lat="41.218733" lon="-3.503200">
        <ele>2028.0</ele>
        <time>2017-09-30T13:39:00Z</time>
      </trkpt>
      <trkpt lat="41.218817" lon="-3.503067">
        <ele>2029.0</ele>
        <time>2017-09-30T13:39:01Z</time>
      </trkpt>
      <trkpt lat="41.218900" lon="-3.502950">
        <ele>2031.0</ele>
        <time>2017-09-30T13:39:02Z</time>
      </trkpt>
      <trkpt lat="41.218967" lon="-3.502850">
        <ele>2032.0</ele>
        <time>2017-09-30T13:39:03Z</time>
      </trkpt>
      <trkpt lat="41.219050" lon="-3.502733">
        <ele>2034.0</ele>
        <time>2017-09-30T13:39:04Z</time>
      </trkpt>
      <trkpt lat="41.219133" lon="-3.502617">
        <ele>2035.0</ele>
        <time>2017-09-30T13:39:05Z</time>
      </trkpt>
      <trkpt lat="41.219183" lon="-3.502467">
        <ele>2037.0</ele>
        <time>2017-09-30T13:39:06Z</time>
      </trkpt>
      <trkpt lat="41.219233" lon="-3.502317">
        <ele>2038.0</ele>
        <time>2017-09-30T13:39:07Z</time>
      </trkpt>
      <trkpt lat="41.219267" lon="-3.502167">
        <ele>2040.0</ele>
        <time>2017-09-30T13:39:08Z</time>
      </trkpt>
      <trkpt lat="41.219317" lon="-3.502017">
        <ele>2041.0</ele>
        <time>2017-09-30T13:39:09Z</time>
      </trkpt>
      <trkpt lat="41.219350" lon="-3.501867">
        <ele>2042.0</ele>
        <time>2017-09-30T13:39:10Z</time>
      </trkpt>
      <trkpt lat="41.219417" lon="-3.501717">
        <ele>2043.0</ele>
        <time>2017-09-30T13:39:11Z</time>
      </trkpt>
      <trkpt lat="41.219483" lon="-3.501567">
        <ele>2043.0</ele>
        <time>2017-09-30T13:39:12Z</time>
      </trkpt>
      <trkpt lat="41.219567" lon="-3.501417">
        <ele>2044.0</ele>
        <time>2017-09-30T13:39:13Z</time>
      </trkpt>
      <trkpt lat="41.219633" lon="-3.501267">
        <ele>2046.0</ele>
        <time>2017-09-30T13:39:14Z</time>
      </trkpt>
      <trkpt lat="41.219700" lon="-3.501117">
        <ele>2049.0</ele>
        <time>2017-09-30T13:39:15Z</time>
      </trkpt>
      <trkpt lat="41.219750" lon="-3.501000">
        <ele>2051.0</ele>
        <time>2017-09-30T13:39:16Z</time>
      </trkpt>
      <trkpt lat="41.219800" lon="-3.500883">
        <ele>2051.0</ele>
        <time>2017-09-30T13:39:17Z</time>
      </trkpt>
      <trkpt lat="41.219867" lon="-3.500767">
        <ele>2050.0</ele>
        <time>2017-09-30T13:39:18Z</time>
      </trkpt>
      <trkpt lat="41.219967" lon="-3.500650">
        <ele>2048.0</ele>
        <time>2017-09-30T13:39:19Z</time>
      </trkpt>
      <trkpt lat="41.220050" lon="-3.500533">
        <ele>2046.0</ele>
        <time>2017-09-30T13:39:20Z</time>
      </trkpt>
      <trkpt lat="41.220150" lon="-3.500417">
        <ele>2047.0</ele>
        <time>2017-09-30T13:39:21Z</time>
      </trkpt>
      <trkpt lat="41.220217" lon="-3.500300">
        <ele>2048.0</ele>
        <time>2017-09-30T13:39:22Z</time>
      </trkpt>
      <trkpt lat="41.220283" lon="-3.500217">
        <ele>2049.0</ele>
        <time>2017-09-30T13:39:23Z</time>
      </trkpt>
      <trkpt lat="41.220367" lon="-3.500133">
        <ele>2048.0</ele>
        <time>2017-09-30T13:39:24Z</time>
      </trkpt>
      <trkpt lat="41.220450" lon="-3.500050">
        <ele>2045.0</ele>
        <time>2017-09-30T13:39:25Z</time>
      </trkpt>
      <trkpt lat="41.220550" lon="-3.499967">
        <ele>2042.0</ele>
        <time>2017-09-30T13:39:26Z</time>
      </trkpt>
      <trkpt lat="41.220667" lon="-3.499867">
        <ele>2040.0</ele>
        <time>2017-09-30T13:39:27Z</time>
      </trkpt>
      <trkpt lat="41.220767" lon="-3.499783">
        <ele>2041.0</ele>
        <time>2017-09-30T13:39:28Z</time>
      </trkpt>
      <trkpt lat="41.220833" lon="-3.499700">
        <ele>2041.0</ele>
        <time>2017-09-30T13:39:29Z</time>
      </trkpt>
      <trkpt lat="41.220917" lon="-3.499633">
        <ele>2041.0</ele>
        <time>2017-09-30T13:39:30Z</time>
      </trkpt>
      <trkpt lat="41.220983" lon="-3.499600">
        <ele>2038.0</ele>
        <time>2017-09-30T13:39:31Z</time>
      </trkpt>
      <trkpt lat="41.221067" lon="-3.499567">
        <ele>2034.0</ele>
        <time>2017-09-30T13:39:32Z</time>
      </trkpt>
      <trkpt lat="41.221167" lon="-3.499517">
        <ele>2029.0</ele>
        <time>2017-09-30T13:39:33Z</time>
      </trkpt>
      <trkpt lat="41.221283" lon="-3.499450">
        <ele>2026.0</ele>
        <time>2017-09-30T13:39:34Z</time>
      </trkpt>
      <trkpt lat="41.221383" lon="-3.499383">
        <ele>2025.0</ele>
        <time>2017-09-30T13:39:35Z</time>
      </trkpt>
      <trkpt lat="41.221483" lon="-3.499300">
        <ele>2024.0</ele>
        <time>2017-09-30T13:39:36Z</time>
      </trkpt>
      <trkpt lat="41.221567" lon="-3.499233">
        <ele>2023.0</ele>
        <time>2017-09-30T13:39:37Z</time>
      </trkpt>
      <trkpt lat="41.221650" lon="-3.499150">
        <ele>2021.0</ele>
        <time>2017-09-30T13:39:38Z</time>
      </trkpt>
      <trkpt lat="41.221733" lon="-3.499050">
        <ele>2018.0</ele>
        <time>2017-09-30T13:39:39Z</time>
      </trkpt>
      <trkpt lat="41.221833" lon="-3.498950">
        <ele>2015.0</ele>
        <time>2017-09-30T13:39:40Z</time>
      </trkpt>
      <trkpt lat="41.221917" lon="-3.498833">
        <ele>2012.0</ele>
        <time>2017-09-30T13:39:41Z</time>
      </trkpt>
      <trkpt lat="41.222017" lon="-3.498717">
        <ele>2010.0</ele>
        <time>2017-09-30T13:39:42Z</time>
      </trkpt>
      <trkpt lat="41.222100" lon="-3.498617">
        <ele>2008.0</ele>
        <time>2017-09-30T13:39:43Z</time>
      </trkpt>
      <trkpt lat="41.222200" lon="-3.498517">
        <ele>2006.0</ele>
        <time>2017-09-30T13:39:44Z</time>
      </trkpt>
      <trkpt lat="41.222300" lon="-3.498417">
        <ele>2003.0</ele>
        <time>2017-09-30T13:39:45Z</time>
      </trkpt>
      <trkpt lat="41.222400" lon="-3.498300">
        <ele>2002.0</ele>
        <time>2017-09-30T13:39:46Z</time>
      </trkpt>
      <trkpt lat="41.222483" lon="-3.498200">
        <ele>2000.0</ele>
        <time>2017-09-30T13:39:47Z</time>
      </trkpt>
      <trkpt lat="41.222583" lon="-3.498100">
        <ele>1999.0</ele>
        <time>2017-09-30T13:39:48Z</time>
      </trkpt>
      <trkpt lat="41.222667" lon="-3.498000">
        <ele>1998.0</ele>
        <time>2017-09-30T13:39:49Z</time>
      </trkpt>
      <trkpt lat="41.222750" lon="-3.497900">
        <ele>1997.0</ele>
        <time>2017-09-30T13:39:50Z</time>
      </trkpt>
      <trkpt lat="41.222833" lon="-3.497800">
        <ele>1994.0</ele>
        <time>2017-09-30T13:39:51Z</time>
      </trkpt>
      <trkpt lat="41.222917" lon="-3.497700">
        <ele>1992.0</ele>
        <time>2017-09-30T13:39:52Z</time>
      </trkpt>
      <trkpt lat="41.223000" lon="-3.497583">
        <ele>1990.0</ele>
        <time>2017-09-30T13:39:53Z</time>
      </trkpt>
      <trkpt lat="41.223083" lon="-3.497467">
        <ele>1988.0</ele>
        <time>2017-09-30T13:39:54Z</time>
      </trkpt>
      <trkpt lat="41.223167" lon="-3.497350">
        <ele>1987.0</ele>
        <time>2017-09-30T13:39:55Z</time>
      </trkpt>
      <trkpt lat="41.223250" lon="-3.497233">
        <ele>1986.0</ele>
        <time>2017-09-30T13:39:56Z</time>
      </trkpt>
      <trkpt lat="41.223333" lon="-3.497117">
        <ele>1984.0</ele>
        <time>2017-09-30T13:39:57Z</time>
      </trkpt>
      <trkpt lat="41.223417" lon="-3.497017">
        <ele>1983.0</ele>
        <time>2017-09-30T13:39:58Z</time>
      </trkpt>
      <trkpt lat="41.223483" lon="-3.496900">
        <ele>1981.0</ele>
        <time>2017-09-30T13:39:59Z</time>
      </trkpt>
      <trkpt lat="41.223567" lon="-3.496783">
        <ele>1980.0</ele>
        <time>2017-09-30T13:40:00Z</time>
      </trkpt>
      <trkpt lat="41.223650" lon="-3.496667">
        <ele>1978.0</ele>
        <time>2017-09-30T13:40:01Z</time>
      </trkpt>
      <trkpt lat="41.223733" lon="-3.496550">
        <ele>1976.0</ele>
        <time>2017-09-30T13:40:02Z</time>
      </trkpt>
      <trkpt lat="41.223800" lon="-3.496450">
        <ele>1974.0</ele>
        <time>2017-09-30T13:40:03Z</time>
      </trkpt>
      <trkpt lat="41.223900" lon="-3.496333">
        <ele>1972.0</ele>
        <time>2017-09-30T13:40:04Z</time>
      </trkpt>
      <trkpt lat="41.223983" lon="-3.496233">
        <ele>1970.0</ele>
        <time>2017-09-30T13:40:05Z</time>
      </trkpt>
      <trkpt lat="41.224067" lon="-3.496133">
        <ele>1968.0</ele>
        <time>2017-09-30T13:40:06Z</time>
      </trkpt>
      <trkpt lat="41.224167" lon="-3.496017">
        <ele>1966.0</ele>
        <time>2017-09-30T13:40:07Z</time>
      </trkpt>
      <trkpt lat="41.224250" lon="-3.495917">
        <ele>1964.0</ele>
        <time>2017-09-30T13:40:08Z</time>
      </trkpt>
      <trkpt lat="41.224333" lon="-3.495817">
        <ele>1962.0</ele>
        <time>2017-09-30T13:40:09Z</time>
      </trkpt>
      <trkpt lat="41.224433" lon="-3.495717">
        <ele>1960.0</ele>
        <time>2017-09-30T13:40:10Z</time>
      </trkpt>
      <trkpt lat="41.224517" lon="-3.495600">
        <ele>1959.0</ele>
        <time>2017-09-30T13:40:11Z</time>
      </trkpt>
      <trkpt lat="41.224617" lon="-3.495500">
        <ele>1958.0</ele>
        <time>2017-09-30T13:40:12Z</time>
      </trkpt>
      <trkpt lat="41.224700" lon="-3.495383">
        <ele>1958.0</ele>
        <time>2017-09-30T13:40:13Z</time>
      </trkpt>
      <trkpt lat="41.224783" lon="-3.495267">
        <ele>1957.0</ele>
        <time>2017-09-30T13:40:14Z</time>
      </trkpt>
      <trkpt lat="41.224867" lon="-3.495167">
        <ele>1956.0</ele>
        <time>2017-09-30T13:40:15Z</time>
      </trkpt>
      <trkpt lat="41.224950" lon="-3.495050">
        <ele>1955.0</ele>
        <time>2017-09-30T13:40:16Z</time>
      </trkpt>
      <trkpt lat="41.225050" lon="-3.494950">
        <ele>1954.0</ele>
        <time>2017-09-30T13:40:17Z</time>
      </trkpt>
      <trkpt lat="41.225133" lon="-3.494833">
        <ele>1954.0</ele>
        <time>2017-09-30T13:40:18Z</time>
      </trkpt>
      <trkpt lat="41.225233" lon="-3.494717">
        <ele>1954.0</ele>
        <time>2017-09-30T13:40:19Z</time>
      </trkpt>
      <trkpt lat="41.225317" lon="-3.494600">
        <ele>1955.0</ele>
        <time>2017-09-30T13:40:20Z</time>
      </trkpt>
      <trkpt lat="41.225400" lon="-3.494483">
        <ele>1955.0</ele>
        <time>2017-09-30T13:40:21Z</time>
      </trkpt>
      <trkpt lat="41.225483" lon="-3.494383">
        <ele>1954.0</ele>
        <time>2017-09-30T13:40:22Z</time>
      </trkpt>
      <trkpt lat="41.225550" lon="-3.494267">
        <ele>1953.0</ele>
        <time>2017-09-30T13:40:23Z</time>
      </trkpt>
      <trkpt lat="41.225650" lon="-3.494150">
        <ele>1952.0</ele>
        <time>2017-09-30T13:40:24Z</time>
      </trkpt>
      <trkpt lat="41.225717" lon="-3.494033">
        <ele>1952.0</ele>
        <time>2017-09-30T13:40:25Z</time>
      </trkpt>
      <trkpt lat="41.225800" lon="-3.493917">
        <ele>1953.0</ele>
        <time>2017-09-30T13:40:26Z</time>
      </trkpt>
      <trkpt lat="41.225867" lon="-3.493800">
        <ele>1953.0</ele>
        <time>2017-09-30T13:40:27Z</time>
      </trkpt>
      <trkpt lat="41.225933" lon="-3.493700">
        <ele>1953.0</ele>
        <time>2017-09-30T13:40:28Z</time>
      </trkpt>
      <trkpt lat="41.226017" lon="-3.493583">
        <ele>1952.0</ele>
        <time>2017-09-30T13:40:29Z</time>
      </trkpt>
      <trkpt lat="41.226083" lon="-3.493483">
        <ele>1951.0</ele>
        <time>2017-09-30T13:40:30Z</time>
      </trkpt>
      <trkpt lat="41.226167" lon="-3.493367">
        <ele>1949.0</ele>
        <time>2017-09-30T13:40:31Z</time>
      </trkpt>
      <trkpt lat="41.226233" lon="-3.493250">
        <ele>1948.0</ele>
        <time>2017-09-30T13:40:32Z</time>
      </trkpt>
      <trkpt lat="41.226317" lon="-3.493133">
        <ele>1947.0</ele>
        <time>2017-09-30T13:40:33Z</time>
      </trkpt>
      <trkpt lat="41.226383" lon="-3.493017">
        <ele>1945.0</ele>
        <time>2017-09-30T13:40:34Z</time>
      </trkpt>
      <trkpt lat="41.226467" lon="-3.492883">
        <ele>1942.0</ele>
        <time>2017-09-30T13:40:35Z</time>
      </trkpt>
      <trkpt lat="41.226533" lon="-3.492767">
        <ele>1940.0</ele>
        <time>2017-09-30T13:40:36Z</time>
      </trkpt>
      <trkpt lat="41.226617" lon="-3.492650">
        <ele>1938.0</ele>
        <time>2017-09-30T13:40:37Z</time>
      </trkpt>
      <trkpt lat="41.226700" lon="-3.492550">
        <ele>1935.0</ele>
        <time>2017-09-30T13:40:38Z</time>
      </trkpt>
      <trkpt lat="41.226783" lon="-3.492433">
        <ele>1933.0</ele>
        <time>2017-09-30T13:40:39Z</time>
      </trkpt>
      <trkpt lat="41.226867" lon="-3.492317">
        <ele>1932.0</ele>
        <time>2017-09-30T13:40:40Z</time>
      </trkpt>
      <trkpt lat="41.226933" lon="-3.492217">
        <ele>1930.0</ele>
        <time>2017-09-30T13:40:41Z</time>
      </trkpt>
      <trkpt lat="41.227017" lon="-3.492083">
        <ele>1928.0</ele>
        <time>2017-09-30T13:40:42Z</time>
      </trkpt>
      <trkpt lat="41.227083" lon="-3.491967">
        <ele>1927.0</ele>
        <time>2017-09-30T13:40:43Z</time>
      </trkpt>
      <trkpt lat="41.227167" lon="-3.491833">
        <ele>1926.0</ele>
        <time>2017-09-30T13:40:44Z</time>
      </trkpt>
      <trkpt lat="41.227250" lon="-3.491733">
        <ele>1925.0</ele>
        <time>2017-09-30T13:40:45Z</time>
      </trkpt>
      <trkpt lat="41.227333" lon="-3.491617">
        <ele>1924.0</ele>
        <time>2017-09-30T13:40:46Z</time>
      </trkpt>
      <trkpt lat="41.227417" lon="-3.491517">
        <ele>1924.0</ele>
        <time>2017-09-30T13:40:47Z</time>
      </trkpt>
      <trkpt lat="41.227500" lon="-3.491433">
        <ele>1924.0</ele>
        <time>2017-09-30T13:40:48Z</time>
      </trkpt>
      <trkpt lat="41.227567" lon="-3.491333">
        <ele>1924.0</ele>
        <time>2017-09-30T13:40:49Z</time>
      </trkpt>
      <trkpt lat="41.227650" lon="-3.491233">
        <ele>1922.0</ele>
        <time>2017-09-30T13:40:50Z</time>
      </trkpt>
      <trkpt lat="41.227717" lon="-3.491150">
        <ele>1921.0</ele>
        <time>2017-09-30T13:40:51Z</time>
      </trkpt>
      <trkpt lat="41.227800" lon="-3.491050">
        <ele>1919.0</ele>
        <time>2017-09-30T13:40:52Z</time>
      </trkpt>
      <trkpt lat="41.227883" lon="-3.490950">
        <ele>1916.0</ele>
        <time>2017-09-30T13:40:53Z</time>
      </trkpt>
      <trkpt lat="41.227967" lon="-3.490850">
        <ele>1914.0</ele>
        <time>2017-09-30T13:40:54Z</time>
      </trkpt>
      <trkpt lat="41.228050" lon="-3.490750">
        <ele>1912.0</ele>
        <time>2017-09-30T13:40:55Z</time>
      </trkpt>
      <trkpt lat="41.228133" lon="-3.490650">
        <ele>1910.0</ele>
        <time>2017-09-30T13:40:56Z</time>
      </trkpt>
      <trkpt lat="41.228217" lon="-3.490567">
        <ele>1908.0</ele>
        <time>2017-09-30T13:40:57Z</time>
      </trkpt>
      <trkpt lat="41.228300" lon="-3.490467">
        <ele>1906.0</ele>
        <time>2017-09-30T13:40:58Z</time>
      </trkpt>
      <trkpt lat="41.228383" lon="-3.490367">
        <ele>1904.0</ele>
        <time>2017-09-30T13:40:59Z</time>
      </trkpt>
      <trkpt lat="41.228467" lon="-3.490267">
        <ele>1902.0</ele>
        <time>2017-09-30T13:41:00Z</time>
      </trkpt>
      <trkpt lat="41.228550" lon="-3.490167">
        <ele>1899.0</ele>
        <time>2017-09-30T13:41:01Z</time>
      </trkpt>
      <trkpt lat="41.228633" lon="-3.490067">
        <ele>1897.0</ele>
        <time>2017-09-30T13:41:02Z</time>
      </trkpt>
      <trkpt lat="41.228717" lon="-3.489983">
        <ele>1894.0</ele>
        <time>2017-09-30T13:41:03Z</time>
      </trkpt>
      <trkpt lat="41.228800" lon="-3.489900">
        <ele>1890.0</ele>
        <time>2017-09-30T13:41:04Z</time>
      </trkpt>
      <trkpt lat="41.228900" lon="-3.489800">
        <ele>1887.0</ele>
        <time>2017-09-30T13:41:05Z</time>
      </trkpt>
      <trkpt lat="41.228983" lon="-3.489700">
        <ele>1883.0</ele>
        <time>2017-09-30T13:41:06Z</time>
      </trkpt>
      <trkpt lat="41.229067" lon="-3.489600">
        <ele>1879.0</ele>
        <time>2017-09-30T13:41:07Z</time>
      </trkpt>
      <trkpt lat="41.229150" lon="-3.489517">
        <ele>1875.0</ele>
        <time>2017-09-30T13:41:08Z</time>
      </trkpt>
      <trkpt lat="41.229233" lon="-3.489417">
        <ele>1872.0</ele>
        <time>2017-09-30T13:41:09Z</time>
      </trkpt>
      <trkpt lat="41.229333" lon="-3.489333">
        <ele>1867.0</ele>
        <time>2017-09-30T13:41:10Z</time>
      </trkpt>
      <trkpt lat="41.229417" lon="-3.489267">
        <ele>1862.0</ele>
        <time>2017-09-30T13:41:11Z</time>
      </trkpt>
      <trkpt lat="41.229517" lon="-3.489183">
        <ele>1857.0</ele>
        <time>2017-09-30T13:41:12Z</time>
      </trkpt>
      <trkpt lat="41.229617" lon="-3.489100">
        <ele>1852.0</ele>
        <time>2017-09-30T13:41:13Z</time>
      </trkpt>
      <trkpt lat="41.229717" lon="-3.489017">
        <ele>1848.0</ele>
        <time>2017-09-30T13:41:14Z</time>
      </trkpt>
      <trkpt lat="41.229833" lon="-3.488933">
        <ele>1844.0</ele>
        <time>2017-09-30T13:41:14Z</time>
      </trkpt>
      <trkpt lat="41.229933" lon="-3.488867">
        <ele>1841.0</ele>
        <time>2017-09-30T13:41:15Z</time>
      </trkpt>
      <trkpt lat="41.230050" lon="-3.488800">
        <ele>1838.0</ele>
        <time>2017-09-30T13:41:16Z</time>
      </trkpt>
      <trkpt lat="41.230150" lon="-3.488733">
        <ele>1836.0</ele>
        <time>2017-09-30T13:41:17Z</time>
      </trkpt>
      <trkpt lat="41.230250" lon="-3.488683">
        <ele>1834.0</ele>
        <time>2017-09-30T13:41:18Z</time>
      </trkpt>
      <trkpt lat="41.230367" lon="-3.488633">
        <ele>1833.0</ele>
        <time>2017-09-30T13:41:19Z</time>
      </trkpt>
      <trkpt lat="41.230483" lon="-3.488567">
        <ele>1832.0</ele>
        <time>2017-09-30T13:41:20Z</time>
      </trkpt>
      <trkpt lat="41.230567" lon="-3.488467">
        <ele>1832.0</ele>
        <time>2017-09-30T13:41:21Z</time>
      </trkpt>
      <trkpt lat="41.230650" lon="-3.488367">
        <ele>1832.0</ele>
        <time>2017-09-30T13:41:22Z</time>
      </trkpt>
      <trkpt lat="41.230733" lon="-3.488283">
        <ele>1832.0</ele>
        <time>2017-09-30T13:41:23Z</time>
      </trkpt>
      <trkpt lat="41.230817" lon="-3.488167">
        <ele>1831.0</ele>
        <time>2017-09-30T13:41:24Z</time>
      </trkpt>
      <trkpt lat="41.230900" lon="-3.488050">
        <ele>1829.0</ele>
        <time>2017-09-30T13:41:25Z</time>
      </trkpt>
      <trkpt lat="41.230983" lon="-3.487950">
        <ele>1828.0</ele>
        <time>2017-09-30T13:41:26Z</time>
      </trkpt>
      <trkpt lat="41.231083" lon="-3.487833">
        <ele>1826.0</ele>
        <time>2017-09-30T13:41:27Z</time>
      </trkpt>
      <trkpt lat="41.231167" lon="-3.487733">
        <ele>1823.0</ele>
        <time>2017-09-30T13:41:28Z</time>
      </trkpt>
      <trkpt lat="41.231267" lon="-3.487633">
        <ele>1821.0</ele>
        <time>2017-09-30T13:41:29Z</time>
      </trkpt>
      <trkpt lat="41.231350" lon="-3.487500">
        <ele>1819.0</ele>
        <time>2017-09-30T13:41:30Z</time>
      </trkpt>
      <trkpt lat="41.231417" lon="-3.487367">
        <ele>1819.0</ele>
        <time>2017-09-30T13:41:31Z</time>
      </trkpt>
      <trkpt lat="41.231483" lon="-3.487250">
        <ele>1819.0</ele>
        <time>2017-09-30T13:41:32Z</time>
      </trkpt>
      <trkpt lat="41.231533" lon="-3.487133">
        <ele>1819.0</ele>
        <time>2017-09-30T13:41:33Z</time>
      </trkpt>
      <trkpt lat="41.231600" lon="-3.487033">
        <ele>1817.0</ele>
        <time>2017-09-30T13:41:34Z</time>
      </trkpt>
      <trkpt lat="41.231667" lon="-3.486917">
        <ele>1814.0</ele>
        <time>2017-09-30T13:41:35Z</time>
      </trkpt>
      <trkpt lat="41.231750" lon="-3.486783">
        <ele>1813.0</ele>
        <time>2017-09-30T13:41:36Z</time>
      </trkpt>
      <trkpt lat="41.231817" lon="-3.486650">
        <ele>1813.0</ele>
        <time>2017-09-30T13:41:37Z</time>
      </trkpt>
      <trkpt lat="41.231883" lon="-3.486517">
        <ele>1812.0</ele>
        <time>2017-09-30T13:41:38Z</time>
      </trkpt>
      <trkpt lat="41.231933" lon="-3.486367">
        <ele>1812.0</ele>
        <time>2017-09-30T13:41:39Z</time>
      </trkpt>
      <trkpt lat="41.232000" lon="-3.486217">
        <ele>1810.0</ele>
        <time>2017-09-30T13:41:40Z</time>
      </trkpt>
      <trkpt lat="41.232050" lon="-3.486067">
        <ele>1809.0</ele>
        <time>2017-09-30T13:41:41Z</time>
      </trkpt>
      <trkpt lat="41.232117" lon="-3.485917">
        <ele>1810.0</ele>
        <time>2017-09-30T13:41:42Z</time>
      </trkpt>
      <trkpt lat="41.232183" lon="-3.485783">
        <ele>1811.0</ele>
        <time>2017-09-30T13:41:43Z</time>
      </trkpt>
      <trkpt lat="41.232250" lon="-3.485667">
        <ele>1810.0</ele>
        <time>2017-09-30T13:41:44Z</time>
      </trkpt>
      <trkpt lat="41.232333" lon="-3.485567">
        <ele>1810.0</ele>
        <time>2017-09-30T13:41:45Z</time>
      </trkpt>
      <trkpt lat="41.232417" lon="-3.485450">
        <ele>1808.0</ele>
        <time>2017-09-30T13:41:46Z</time>
      </trkpt>
      <trkpt lat="41.232517" lon="-3.485333">
        <ele>1808.0</ele>
        <time>2017-09-30T13:41:47Z</time>
      </trkpt>
      <trkpt lat="41.232583" lon="-3.485200">
        <ele>1807.0</ele>
        <time>2017-09-30T13:41:48Z</time>
      </trkpt>
      <trkpt lat="41.232650" lon="-3.485067">
        <ele>1807.0</ele>
        <time>2017-09-30T13:41:49Z</time>
      </trkpt>
      <trkpt lat="41.232717" lon="-3.484950">
        <ele>1806.0</ele>
        <time>2017-09-30T13:41:50Z</time>
      </trkpt>
      <trkpt lat="41.232800" lon="-3.484833">
        <ele>1803.0</ele>
        <time>2017-09-30T13:41:51Z</time>
      </trkpt>
      <trkpt lat="41.232883" lon="-3.484717">
        <ele>1801.0</ele>
        <time>2017-09-30T13:41:52Z</time>
      </trkpt>
      <trkpt lat="41.232967" lon="-3.484600">
        <ele>1799.0</ele>
        <time>2017-09-30T13:41:53Z</time>
      </trkpt>
      <trkpt lat="41.233050" lon="-3.484483">
        <ele>1798.0</ele>
        <time>2017-09-30T13:41:54Z</time>
      </trkpt>
      <trkpt lat="41.233150" lon="-3.484367">
        <ele>1798.0</ele>
        <time>2017-09-30T13:41:55Z</time>
      </trkpt>
      <trkpt lat="41.233233" lon="-3.484250">
        <ele>1797.0</ele>
        <time>2017-09-30T13:41:56Z</time>
      </trkpt>
      <trkpt lat="41.233317" lon="-3.484150">
        <ele>1795.0</ele>
        <time>2017-09-30T13:41:57Z</time>
      </trkpt>
      <trkpt lat="41.233417" lon="-3.484033">
        <ele>1794.0</ele>
        <time>2017-09-30T13:41:58Z</time>
      </trkpt>
      <trkpt lat="41.233500" lon="-3.483883">
        <ele>1795.0</ele>
        <time>2017-09-30T13:41:59Z</time>
      </trkpt>
      <trkpt lat="41.233583" lon="-3.483717">
        <ele>1797.0</ele>
        <time>2017-09-30T13:42:00Z</time>
      </trkpt>
      <trkpt lat="41.233650" lon="-3.483550">
        <ele>1799.0</ele>
        <time>2017-09-30T13:42:01Z</time>
      </trkpt>
      <trkpt lat="41.233667" lon="-3.483400">
        <ele>1801.0</ele>
        <time>2017-09-30T13:42:02Z</time>
      </trkpt>
      <trkpt lat="41.233683" lon="-3.483233">
        <ele>1801.0</ele>
        <time>2017-09-30T13:42:03Z</time>
      </trkpt>
      <trkpt lat="41.233700" lon="-3.483083">
        <ele>1802.0</ele>
        <time>2017-09-30T13:42:04Z</time>
      </trkpt>
      <trkpt lat="41.233700" lon="-3.482933">
        <ele>1803.0</ele>
        <time>2017-09-30T13:42:05Z</time>
      </trkpt>
      <trkpt lat="41.233683" lon="-3.482817">
        <ele>1803.0</ele>
        <time>2017-09-30T13:42:06Z</time>
      </trkpt>
      <trkpt lat="41.233650" lon="-3.482700">
        <ele>1802.0</ele>
        <time>2017-09-30T13:42:07Z</time>
      </trkpt>
      <trkpt lat="41.233583" lon="-3.482617">
        <ele>1800.0</ele>
        <time>2017-09-30T13:42:08Z</time>
      </trkpt>
      <trkpt lat="41.233500" lon="-3.482533">
        <ele>1800.0</ele>
        <time>2017-09-30T13:42:09Z</time>
      </trkpt>
      <trkpt lat="41.233417" lon="-3.482450">
        <ele>1802.0</ele>
        <time>2017-09-30T13:42:10Z</time>
      </trkpt>
      <trkpt lat="41.233350" lon="-3.482417">
        <ele>1805.0</ele>
        <time>2017-09-30T13:42:11Z</time>
      </trkpt>
      <trkpt lat="41.233283" lon="-3.482400">
        <ele>1806.0</ele>
        <time>2017-09-30T13:42:12Z</time>
      </trkpt>
      <trkpt lat="41.233233" lon="-3.482417">
        <ele>1806.0</ele>
        <time>2017-09-30T13:42:13Z</time>
      </trkpt>
      <trkpt lat="41.233183" lon="-3.482467">
        <ele>1805.0</ele>
        <time>2017-09-30T13:42:14Z</time>
      </trkpt>
      <trkpt lat="41.233150" lon="-3.482517">
        <ele>1804.0</ele>
        <time>2017-09-30T13:42:15Z</time>
      </trkpt>
      <trkpt lat="41.233133" lon="-3.482583">
        <ele>1803.0</ele>
        <time>2017-09-30T13:42:16Z</time>
      </trkpt>
      <trkpt lat="41.233117" lon="-3.482650">
        <ele>1803.0</ele>
        <time>2017-09-30T13:42:17Z</time>
      </trkpt>
      <trkpt lat="41.233150" lon="-3.482700">
        <ele>1803.0</ele>
        <time>2017-09-30T13:42:18Z</time>
      </trkpt>
      <trkpt lat="41.233183" lon="-3.482750">
        <ele>1803.0</ele>
        <time>2017-09-30T13:42:19Z</time>
      </trkpt>
      <trkpt lat="41.233250" lon="-3.482783">
        <ele>1802.0</ele>
        <time>2017-09-30T13:42:20Z</time>
      </trkpt>
      <trkpt lat="41.233317" lon="-3.482817">
        <ele>1802.0</ele>
        <time>2017-09-30T13:42:21Z</time>
      </trkpt>
      <trkpt lat="41.233400" lon="-3.482833">
        <ele>1803.0</ele>
        <time>2017-09-30T13:42:22Z</time>
      </trkpt>
      <trkpt lat="41.233467" lon="-3.482817">
        <ele>1803.0</ele>
        <time>2017-09-30T13:42:23Z</time>
      </trkpt>
      <trkpt lat="41.233550" lon="-3.482817">
        <ele>1803.0</ele>
        <time>2017-09-30T13:42:24Z</time>
      </trkpt>
      <trkpt lat="41.233633" lon="-3.482800">
        <ele>1802.0</ele>
        <time>2017-09-30T13:42:25Z</time>
      </trkpt>
      <trkpt lat="41.233733" lon="-3.482767">
        <ele>1801.0</ele>
        <time>2017-09-30T13:42:26Z</time>
      </trkpt>
      <trkpt lat="41.233817" lon="-3.482717">
        <ele>1801.0</ele>
        <time>2017-09-30T13:42:27Z</time>
      </trkpt>
      <trkpt lat="41.233917" lon="-3.482667">
        <ele>1803.0</ele>
        <time>2017-09-30T13:42:28Z</time>
      </trkpt>
      <trkpt lat="41.234000" lon="-3.482583">
        <ele>1805.0</ele>
        <time>2017-09-30T13:42:29Z</time>
      </trkpt>
      <trkpt lat="41.234067" lon="-3.482467">
        <ele>1806.0</ele>
        <time>2017-09-30T13:42:30Z</time>
      </trkpt>
      <trkpt lat="41.234133" lon="-3.482333">
        <ele>1806.0</ele>
        <time>2017-09-30T13:42:31Z</time>
      </trkpt>
      <trkpt lat="41.234150" lon="-3.482167">
        <ele>1806.0</ele>
        <time>2017-09-30T13:42:32Z</time>
      </trkpt>
      <trkpt lat="41.234150" lon="-3.482017">
        <ele>1806.0</ele>
        <time>2017-09-30T13:42:33Z</time>
      </trkpt>
      <trkpt lat="41.234133" lon="-3.481867">
        <ele>1807.0</ele>
        <time>2017-09-30T13:42:34Z</time>
      </trkpt>
      <trkpt lat="41.234083" lon="-3.481733">
        <ele>1808.0</ele>
        <time>2017-09-30T13:42:35Z</time>
      </trkpt>
      <trkpt lat="41.234017" lon="-3.481633">
        <ele>1808.0</ele>
        <time>2017-09-30T13:42:36Z</time>
      </trkpt>
      <trkpt lat="41.233917" lon="-3.481550">
        <ele>1808.0</ele>
        <time>2017-09-30T13:42:37Z</time>
      </trkpt>
      <trkpt lat="41.233800" lon="-3.481500">
        <ele>1810.0</ele>
        <time>2017-09-30T13:42:38Z</time>
      </trkpt>
      <trkpt lat="41.233700" lon="-3.481483">
        <ele>1813.0</ele>
        <time>2017-09-30T13:42:39Z</time>
      </trkpt>
      <trkpt lat="41.233617" lon="-3.481500">
        <ele>1817.0</ele>
        <time>2017-09-30T13:42:40Z</time>
      </trkpt>
      <trkpt lat="41.233567" lon="-3.481533">
        <ele>1819.0</ele>
        <time>2017-09-30T13:42:41Z</time>
      </trkpt>
      <trkpt lat="41.233533" lon="-3.481600">
        <ele>1820.0</ele>
        <time>2017-09-30T13:42:42Z</time>
      </trkpt>
      <trkpt lat="41.233533" lon="-3.481667">
        <ele>1821.0</ele>
        <time>2017-09-30T13:42:43Z</time>
      </trkpt>
      <trkpt lat="41.233550" lon="-3.481733">
        <ele>1823.0</ele>
        <time>2017-09-30T13:42:44Z</time>
      </trkpt>
      <trkpt lat="41.233583" lon="-3.481767">
        <ele>1825.0</ele>
        <time>2017-09-30T13:42:45Z</time>
      </trkpt>
      <trkpt lat="41.233633" lon="-3.481800">
        <ele>1827.0</ele>
        <time>2017-09-30T13:42:46Z</time>
      </trkpt>
      <trkpt lat="41.233717" lon="-3.481783">
        <ele>1829.0</ele>
        <time>2017-09-30T13:42:47Z</time>
      </trkpt>
      <trkpt lat="41.233783" lon="-3.481750">
        <ele>1831.0</ele>
        <time>2017-09-30T13:42:48Z</time>
      </trkpt>
      <trkpt lat="41.233867" lon="-3.481683">
        <ele>1834.0</ele>
        <time>2017-09-30T13:42:49Z</time>
      </trkpt>
      <trkpt lat="41.233950" lon="-3.481600">
        <ele>1836.0</ele>
        <time>2017-09-30T13:42:50Z</time>
      </trkpt>
      <trkpt lat="41.234000" lon="-3.481467">
        <ele>1839.0</ele>
        <time>2017-09-30T13:42:51Z</time>
      </trkpt>
      <trkpt lat="41.234033" lon="-3.481333">
        <ele>1842.0</ele>
        <time>2017-09-30T13:42:52Z</time>
      </trkpt>
      <trkpt lat="41.234050" lon="-3.481167">
        <ele>1844.0</ele>
        <time>2017-09-30T13:42:53Z</time>
      </trkpt>
      <trkpt lat="41.234050" lon="-3.481017">
        <ele>1845.0</ele>
        <time>2017-09-30T13:42:54Z</time>
      </trkpt>
      <trkpt lat="41.234017" lon="-3.480867">
        <ele>1846.0</ele>
        <time>2017-09-30T13:42:55Z</time>
      </trkpt>
      <trkpt lat="41.233967" lon="-3.480717">
        <ele>1846.0</ele>
        <time>2017-09-30T13:42:56Z</time>
      </trkpt>
      <trkpt lat="41.233900" lon="-3.480600">
        <ele>1847.0</ele>
        <time>2017-09-30T13:42:57Z</time>
      </trkpt>
      <trkpt lat="41.233800" lon="-3.480483">
        <ele>1848.0</ele>
        <time>2017-09-30T13:42:58Z</time>
      </trkpt>
      <trkpt lat="41.233717" lon="-3.480400">
        <ele>1851.0</ele>
        <time>2017-09-30T13:42:59Z</time>
      </trkpt>
      <trkpt lat="41.233633" lon="-3.480333">
        <ele>1855.0</ele>
        <time>2017-09-30T13:43:00Z</time>
      </trkpt>
      <trkpt lat="41.233550" lon="-3.480317">
        <ele>1857.0</ele>
        <time>2017-09-30T13:43:01Z</time>
      </trkpt>
      <trkpt lat="41.233500" lon="-3.480333">
        <ele>1857.0</ele>
        <time>2017-09-30T13:43:02Z</time>
      </trkpt>
      <trkpt lat="41.233433" lon="-3.480367">
        <ele>1856.0</ele>
        <time>2017-09-30T13:43:03Z</time>
      </trkpt>
      <trkpt lat="41.233400" lon="-3.480417">
        <ele>1856.0</ele>
        <time>2017-09-30T13:43:04Z</time>
      </trkpt>
      <trkpt lat="41.233367" lon="-3.480483">
        <ele>1856.0</ele>
        <time>2017-09-30T13:43:05Z</time>
      </trkpt>
      <trkpt lat="41.233350" lon="-3.480550">
        <ele>1855.0</ele>
        <time>2017-09-30T13:43:06Z</time>
      </trkpt>
      <trkpt lat="41.233350" lon="-3.480617">
        <ele>1856.0</ele>
        <time>2017-09-30T13:43:07Z</time>
      </trkpt>
      <trkpt lat="41.233383" lon="-3.480667">
        <ele>1858.0</ele>
        <time>2017-09-30T13:43:08Z</time>
      </trkpt>
      <trkpt lat="41.233417" lon="-3.480700">
        <ele>1859.0</ele>
        <time>2017-09-30T13:43:09Z</time>
      </trkpt>
      <trkpt lat="41.233467" lon="-3.480700">
        <ele>1860.0</ele>
        <time>2017-09-30T13:43:10Z</time>
      </trkpt>
      <trkpt lat="41.233517" lon="-3.480717">
        <ele>1860.0</ele>
        <time>2017-09-30T13:43:11Z</time>
      </trkpt>
      <trkpt lat="41.233583" lon="-3.480733">
        <ele>1860.0</ele>
        <time>2017-09-30T13:43:12Z</time>
      </trkpt>
      <trkpt lat="41.233667" lon="-3.480750">
        <ele>1862.0</ele>
        <time>2017-09-30T13:43:13Z</time>
      </trkpt>
      <trkpt lat="41.233750" lon="-3.480733">
        <ele>1865.0</ele>
        <time>2017-09-30T13:43:14Z</time>
      </trkpt>
      <trkpt lat="41.233817" lon="-3.480683">
        <ele>1868.0</ele>
        <time>2017-09-30T13:43:15Z</time>
      </trkpt>
      <trkpt lat="41.233867" lon="-3.480617">
        <ele>1870.0</ele>
        <time>2017-09-30T13:43:16Z</time>
      </trkpt>
      <trkpt lat="41.233917" lon="-3.480533">
        <ele>1872.0</ele>
        <time>2017-09-30T13:43:17Z</time>
      </trkpt>
      <trkpt lat="41.233967" lon="-3.480433">
        <ele>1874.0</ele>
        <time>2017-09-30T13:43:18Z</time>
      </trkpt>
      <trkpt lat="41.234017" lon="-3.480317">
        <ele>1876.0</ele>
        <time>2017-09-30T13:43:19Z</time>
      </trkpt>
      <trkpt lat="41.234033" lon="-3.480167">
        <ele>1877.0</ele>
        <time>2017-09-30T13:43:20Z</time>
      </trkpt>
      <trkpt lat="41.234033" lon="-3.480033">
        <ele>1878.0</ele>
        <time>2017-09-30T13:43:21Z</time>
      </trkpt>
      <trkpt lat="41.234017" lon="-3.479883">
        <ele>1878.0</ele>
        <time>2017-09-30T13:43:22Z</time>
      </trkpt>
      <trkpt lat="41.233983" lon="-3.479700">
        <ele>1879.0</ele>
        <time>2017-09-30T13:43:23Z</time>
      </trkpt>
      <trkpt lat="41.233950" lon="-3.479517">
        <ele>1882.0</ele>
        <time>2017-09-30T13:43:24Z</time>
      </trkpt>
      <trkpt lat="41.233900" lon="-3.479333">
        <ele>1886.0</ele>
        <time>2017-09-30T13:43:25Z</time>
      </trkpt>
      <trkpt lat="41.233833" lon="-3.479183">
        <ele>1891.0</ele>
        <time>2017-09-30T13:43:26Z</time>
      </trkpt>
      <trkpt lat="41.233750" lon="-3.479083">
        <ele>1895.0</ele>
        <time>2017-09-30T13:43:27Z</time>
      </trkpt>
      <trkpt lat="41.233667" lon="-3.479017">
        <ele>1897.0</ele>
        <time>2017-09-30T13:43:28Z</time>
      </trkpt>
      <trkpt lat="41.233567" lon="-3.478967">
        <ele>1899.0</ele>
        <time>2017-09-30T13:43:29Z</time>
      </trkpt>
      <trkpt lat="41.233450" lon="-3.478917">
        <ele>1901.0</ele>
        <time>2017-09-30T13:43:30Z</time>
      </trkpt>
      <trkpt lat="41.233350" lon="-3.478917">
        <ele>1903.0</ele>
        <time>2017-09-30T13:43:31Z</time>
      </trkpt>
      <trkpt lat="41.233283" lon="-3.478933">
        <ele>1905.0</ele>
        <time>2017-09-30T13:43:32Z</time>
      </trkpt>
      <trkpt lat="41.233217" lon="-3.478983">
        <ele>1906.0</ele>
        <time>2017-09-30T13:43:33Z</time>
      </trkpt>
      <trkpt lat="41.233200" lon="-3.479033">
        <ele>1907.0</ele>
        <time>2017-09-30T13:43:34Z</time>
      </trkpt>
      <trkpt lat="41.233200" lon="-3.479083">
        <ele>1908.0</ele>
        <time>2017-09-30T13:43:35Z</time>
      </trkpt>
      <trkpt lat="41.233217" lon="-3.479133">
        <ele>1908.0</ele>
        <time>2017-09-30T13:43:36Z</time>
      </trkpt>
      <trkpt lat="41.233267" lon="-3.479167">
        <ele>1907.0</ele>
        <time>2017-09-30T13:43:37Z</time>
      </trkpt>
      <trkpt lat="41.233317" lon="-3.479200">
        <ele>1907.0</ele>
        <time>2017-09-30T13:43:38Z</time>
      </trkpt>
      <trkpt lat="41.233367" lon="-3.479233">
        <ele>1908.0</ele>
        <time>2017-09-30T13:43:39Z</time>
      </trkpt>
      <trkpt lat="41.233417" lon="-3.479233">
        <ele>1908.0</ele>
        <time>2017-09-30T13:43:40Z</time>
      </trkpt>
      <trkpt lat="41.233483" lon="-3.479217">
        <ele>1908.0</ele>
        <time>2017-09-30T13:43:41Z</time>
      </trkpt>
      <trkpt lat="41.233567" lon="-3.479183">
        <ele>1908.0</ele>
        <time>2017-09-30T13:43:42Z</time>
      </trkpt>
      <trkpt lat="41.233650" lon="-3.479133">
        <ele>1909.0</ele>
        <time>2017-09-30T13:43:43Z</time>
      </trkpt>
      <trkpt lat="41.233733" lon="-3.479050">
        <ele>1912.0</ele>
        <time>2017-09-30T13:43:44Z</time>
      </trkpt>
      <trkpt lat="41.233800" lon="-3.478950">
        <ele>1914.0</ele>
        <time>2017-09-30T13:43:45Z</time>
      </trkpt>
      <trkpt lat="41.233850" lon="-3.478817">
        <ele>1916.0</ele>
        <time>2017-09-30T13:43:46Z</time>
      </trkpt>
      <trkpt lat="41.233900" lon="-3.478667">
        <ele>1918.0</ele>
        <time>2017-09-30T13:43:47Z</time>
      </trkpt>
      <trkpt lat="41.233933" lon="-3.478500">
        <ele>1919.0</ele>
        <time>2017-09-30T13:43:48Z</time>
      </trkpt>
      <trkpt lat="41.233967" lon="-3.478350">
        <ele>1922.0</ele>
        <time>2017-09-30T13:43:49Z</time>
      </trkpt>
      <trkpt lat="41.234000" lon="-3.478200">
        <ele>1924.0</ele>
        <time>2017-09-30T13:43:50Z</time>
      </trkpt>
      <trkpt lat="41.234000" lon="-3.478017">
        <ele>1926.0</ele>
        <time>2017-09-30T13:43:51Z</time>
      </trkpt>
      <trkpt lat="41.233983" lon="-3.477833">
        <ele>1928.0</ele>
        <time>2017-09-30T13:43:52Z</time>
      </trkpt>
      <trkpt lat="41.233950" lon="-3.477650">
        <ele>1930.0</ele>
        <time>2017-09-30T13:43:53Z</time>
      </trkpt>
      <trkpt lat="41.233883" lon="-3.477483">
        <ele>1930.0</ele>
        <time>2017-09-30T13:43:54Z</time>
      </trkpt>
      <trkpt lat="41.233800" lon="-3.477350">
        <ele>1931.0</ele>
        <time>2017-09-30T13:43:55Z</time>
      </trkpt>
      <trkpt lat="41.233700" lon="-3.477233">
        <ele>1933.0</ele>
        <time>2017-09-30T13:43:56Z</time>
      </trkpt>
      <trkpt lat="41.233600" lon="-3.477150">
        <ele>1934.0</ele>
        <time>2017-09-30T13:43:57Z</time>
      </trkpt>
      <trkpt lat="41.233517" lon="-3.477117">
        <ele>1935.0</ele>
        <time>2017-09-30T13:43:58Z</time>
      </trkpt>
      <trkpt lat="41.233433" lon="-3.477117">
        <ele>1935.0</ele>
        <time>2017-09-30T13:43:59Z</time>
      </trkpt>
      <trkpt lat="41.233367" lon="-3.477150">
        <ele>1935.0</ele>
        <time>2017-09-30T13:44:00Z</time>
      </trkpt>
      <trkpt lat="41.233317" lon="-3.477217">
        <ele>1936.0</ele>
        <time>2017-09-30T13:44:01Z</time>
      </trkpt>
      <trkpt lat="41.233300" lon="-3.477267">
        <ele>1936.0</ele>
        <time>2017-09-30T13:44:02Z</time>
      </trkpt>
      <trkpt lat="41.233317" lon="-3.477333">
        <ele>1936.0</ele>
        <time>2017-09-30T13:44:03Z</time>
      </trkpt>
      <trkpt lat="41.233333" lon="-3.477400">
        <ele>1937.0</ele>
        <time>2017-09-30T13:44:04Z</time>
      </trkpt>
      <trkpt lat="41.233367" lon="-3.477450">
        <ele>1938.0</ele>
        <time>2017-09-30T13:44:05Z</time>
      </trkpt>
      <trkpt lat="41.233400" lon="-3.477483">
        <ele>1940.0</ele>
        <time>2017-09-30T13:44:06Z</time>
      </trkpt>
      <trkpt lat="41.233467" lon="-3.477517">
        <ele>1940.0</ele>
        <time>2017-09-30T13:44:07Z</time>
      </trkpt>
      <trkpt lat="41.233517" lon="-3.477517">
        <ele>1941.0</ele>
        <time>2017-09-30T13:44:08Z</time>
      </trkpt>
      <trkpt lat="41.233583" lon="-3.477533">
        <ele>1942.0</ele>
        <time>2017-09-30T13:44:10Z</time>
      </trkpt>
      <trkpt lat="41.233650" lon="-3.477533">
        <ele>1943.0</ele>
        <time>2017-09-30T13:44:11Z</time>
      </trkpt>
      <trkpt lat="41.233717" lon="-3.477533">
        <ele>1945.0</ele>
        <time>2017-09-30T13:44:12Z</time>
      </trkpt>
      <trkpt lat="41.233783" lon="-3.477533">
        <ele>1946.0</ele>
        <time>2017-09-30T13:44:13Z</time>
      </trkpt>
      <trkpt lat="41.233833" lon="-3.477550">
        <ele>1947.0</ele>
        <time>2017-09-30T13:44:14Z</time>
      </trkpt>
      <trkpt lat="41.233917" lon="-3.477567">
        <ele>1950.0</ele>
        <time>2017-09-30T13:44:15Z</time>
      </trkpt>
      <trkpt lat="41.233983" lon="-3.477567">
        <ele>1953.0</ele>
        <time>2017-09-30T13:44:16Z</time>
      </trkpt>
      <trkpt lat="41.234050" lon="-3.477550">
        <ele>1955.0</ele>
        <time>2017-09-30T13:44:17Z</time>
      </trkpt>
      <trkpt lat="41.234133" lon="-3.477500">
        <ele>1957.0</ele>
        <time>2017-09-30T13:44:18Z</time>
      </trkpt>
      <trkpt lat="41.234217" lon="-3.477433">
        <ele>1959.0</ele>
        <time>2017-09-30T13:44:19Z</time>
      </trkpt>
      <trkpt lat="41.234300" lon="-3.477367">
        <ele>1961.0</ele>
        <time>2017-09-30T13:44:20Z</time>
      </trkpt>
      <trkpt lat="41.234383" lon="-3.477317">
        <ele>1966.0</ele>
        <time>2017-09-30T13:44:21Z</time>
      </trkpt>
      <trkpt lat="41.234467" lon="-3.477283">
        <ele>1972.0</ele>
        <time>2017-09-30T13:44:22Z</time>
      </trkpt>
      <trkpt lat="41.234533" lon="-3.477250">
        <ele>1975.0</ele>
        <time>2017-09-30T13:44:23Z</time>
      </trkpt>
      <trkpt lat="41.234583" lon="-3.477217">
        <ele>1977.0</ele>
        <time>2017-09-30T13:44:24Z</time>
      </trkpt>
      <trkpt lat="41.234667" lon="-3.477167">
        <ele>1978.0</ele>
        <time>2017-09-30T13:44:25Z</time>
      </trkpt>
      <trkpt lat="41.234767" lon="-3.477133">
        <ele>1978.0</ele>
        <time>2017-09-30T13:44:26Z</time>
      </trkpt>
      <trkpt lat="41.234867" lon="-3.477100">
        <ele>1979.0</ele>
        <time>2017-09-30T13:44:27Z</time>
      </trkpt>
      <trkpt lat="41.234967" lon="-3.477067">
        <ele>1981.0</ele>
        <time>2017-09-30T13:44:28Z</time>
      </trkpt>
      <trkpt lat="41.235050" lon="-3.477033">
        <ele>1985.0</ele>
        <time>2017-09-30T13:44:29Z</time>
      </trkpt>
      <trkpt lat="41.235117" lon="-3.477000">
        <ele>1989.0</ele>
        <time>2017-09-30T13:44:30Z</time>
      </trkpt>
      <trkpt lat="41.235183" lon="-3.477000">
        <ele>1991.0</ele>
        <time>2017-09-30T13:44:31Z</time>
      </trkpt>
      <trkpt lat="41.235233" lon="-3.477033">
        <ele>1993.0</ele>
        <time>2017-09-30T13:44:32Z</time>
      </trkpt>
      <trkpt lat="41.235267" lon="-3.477083">
        <ele>1995.0</ele>
        <time>2017-09-30T13:44:33Z</time>
      </trkpt>
      <trkpt lat="41.235300" lon="-3.477117">
        <ele>1999.0</ele>
        <time>2017-09-30T13:44:34Z</time>
      </trkpt>
      <trkpt lat="41.235333" lon="-3.477133">
        <ele>2003.0</ele>
        <time>2017-09-30T13:44:35Z</time>
      </trkpt>
      <trkpt lat="41.235383" lon="-3.477133">
        <ele>2005.0</ele>
        <time>2017-09-30T13:44:36Z</time>
      </trkpt>
      <trkpt lat="41.235433" lon="-3.477150">
        <ele>2007.0</ele>
        <time>2017-09-30T13:44:37Z</time>
      </trkpt>
      <trkpt lat="41.235500" lon="-3.477150">
        <ele>2008.0</ele>
        <time>2017-09-30T13:44:38Z</time>
      </trkpt>
      <trkpt lat="41.235567" lon="-3.477167">
        <ele>2010.0</ele>
        <time>2017-09-30T13:44:39Z</time>
      </trkpt>
      <trkpt lat="41.235650" lon="-3.477167">
        <ele>2011.0</ele>
        <time>2017-09-30T13:44:40Z</time>
      </trkpt>
      <trkpt lat="41.235717" lon="-3.477167">
        <ele>2013.0</ele>
        <time>2017-09-30T13:44:41Z</time>
      </trkpt>
      <trkpt lat="41.235783" lon="-3.477167">
        <ele>2015.0</ele>
        <time>2017-09-30T13:44:42Z</time>
      </trkpt>
      <trkpt lat="41.235867" lon="-3.477167">
        <ele>2016.0</ele>
        <time>2017-09-30T13:44:43Z</time>
      </trkpt>
      <trkpt lat="41.235950" lon="-3.477183">
        <ele>2017.0</ele>
        <time>2017-09-30T13:44:44Z</time>
      </trkpt>
      <trkpt lat="41.236033" lon="-3.477183">
        <ele>2019.0</ele>
        <time>2017-09-30T13:44:45Z</time>
      </trkpt>
      <trkpt lat="41.236117" lon="-3.477167">
        <ele>2021.0</ele>
        <time>2017-09-30T13:44:46Z</time>
      </trkpt>
      <trkpt lat="41.236183" lon="-3.477167">
        <ele>2023.0</ele>
        <time>2017-09-30T13:44:47Z</time>
      </trkpt>
      <trkpt lat="41.236250" lon="-3.477167">
        <ele>2026.0</ele>
        <time>2017-09-30T13:44:48Z</time>
      </trkpt>
      <trkpt lat="41.236300" lon="-3.477167">
        <ele>2027.0</ele>
        <time>2017-09-30T13:44:49Z</time>
      </trkpt>
      <trkpt lat="41.236367" lon="-3.477133">
        <ele>2027.0</ele>
        <time>2017-09-30T13:44:50Z</time>
      </trkpt>
      <trkpt lat="41.236433" lon="-3.477100">
        <ele>2025.0</ele>
        <time>2017-09-30T13:44:51Z</time>
      </trkpt>
      <trkpt lat="41.236533" lon="-3.477067">
        <ele>2023.0</ele>
        <time>2017-09-30T13:44:52Z</time>
      </trkpt>
      <trkpt lat="41.236633" lon="-3.477050">
        <ele>2021.0</ele>
        <time>2017-09-30T13:44:53Z</time>
      </trkpt>
      <trkpt lat="41.236733" lon="-3.477033">
        <ele>2021.0</ele>
        <time>2017-09-30T13:44:54Z</time>
      </trkpt>
      <trkpt lat="41.236833" lon="-3.477017">
        <ele>2022.0</ele>
        <time>2017-09-30T13:44:55Z</time>
      </trkpt>
      <trkpt lat="41.236917" lon="-3.477000">
        <ele>2022.0</ele>
        <time>2017-09-30T13:44:56Z</time>
      </trkpt>
      <trkpt lat="41.237000" lon="-3.476967">
        <ele>2023.0</ele>
        <time>2017-09-30T13:44:57Z</time>
      </trkpt>
      <trkpt lat="41.237100" lon="-3.476933">
        <ele>2023.0</ele>
        <time>2017-09-30T13:44:58Z</time>
      </trkpt>
      <trkpt lat="41.237217" lon="-3.476900">
        <ele>2023.0</ele>
        <time>2017-09-30T13:44:59Z</time>
      </trkpt>
      <trkpt lat="41.237317" lon="-3.476867">
        <ele>2024.0</ele>
        <time>2017-09-30T13:45:00Z</time>
      </trkpt>
      <trkpt lat="41.237417" lon="-3.476833">
        <ele>2025.0</ele>
        <time>2017-09-30T13:45:01Z</time>
      </trkpt>
      <trkpt lat="41.237500" lon="-3.476783">
        <ele>2027.0</ele>
        <time>2017-09-30T13:45:02Z</time>
      </trkpt>
      <trkpt lat="41.237583" lon="-3.476750">
        <ele>2028.0</ele>
        <time>2017-09-30T13:45:03Z</time>
      </trkpt>
      <trkpt lat="41.237667" lon="-3.476717">
        <ele>2028.0</ele>
        <time>2017-09-30T13:45:04Z</time>
      </trkpt>
      <trkpt lat="41.237767" lon="-3.476700">
        <ele>2027.0</ele>
        <time>2017-09-30T13:45:05Z</time>
      </trkpt>
      <trkpt lat="41.237867" lon="-3.476717">
        <ele>2027.0</ele>
        <time>2017-09-30T13:45:06Z</time>
      </trkpt>
      <trkpt lat="41.237967" lon="-3.476700">
        <ele>2028.0</ele>
        <time>2017-09-30T13:45:07Z</time>
      </trkpt>
      <trkpt lat="41.238067" lon="-3.476683">
        <ele>2030.0</ele>
        <time>2017-09-30T13:45:08Z</time>
      </trkpt>
      <trkpt lat="41.238150" lon="-3.476667">
        <ele>2031.0</ele>
        <time>2017-09-30T13:45:09Z</time>
      </trkpt>
      <trkpt lat="41.238233" lon="-3.476650">
        <ele>2032.0</ele>
        <time>2017-09-30T13:45:10Z</time>
      </trkpt>
      <trkpt lat="41.238333" lon="-3.476633">
        <ele>2033.0</ele>
        <time>2017-09-30T13:45:11Z</time>
      </trkpt>
      <trkpt lat="41.238433" lon="-3.476617">
        <ele>2034.0</ele>
        <time>2017-09-30T13:45:12Z</time>
      </trkpt>
      <trkpt lat="41.238533" lon="-3.476600">
        <ele>2035.0</ele>
        <time>2017-09-30T13:45:13Z</time>
      </trkpt>
      <trkpt lat="41.238633" lon="-3.476583">
        <ele>2036.0</ele>
        <time>2017-09-30T13:45:14Z</time>
      </trkpt>
      <trkpt lat="41.238717" lon="-3.476567">
        <ele>2037.0</ele>
        <time>2017-09-30T13:45:15Z</time>
      </trkpt>
      <trkpt lat="41.238817" lon="-3.476550">
        <ele>2036.0</ele>
        <time>2017-09-30T13:45:16Z</time>
      </trkpt>
      <trkpt lat="41.238917" lon="-3.476533">
        <ele>2035.0</ele>
        <time>2017-09-30T13:45:17Z</time>
      </trkpt>
      <trkpt lat="41.239017" lon="-3.476550">
        <ele>2034.0</ele>
        <time>2017-09-30T13:45:18Z</time>
      </trkpt>
      <trkpt lat="41.239117" lon="-3.476550">
        <ele>2034.0</ele>
        <time>2017-09-30T13:45:19Z</time>
      </trkpt>
      <trkpt lat="41.239217" lon="-3.476567">
        <ele>2033.0</ele>
        <time>2017-09-30T13:45:20Z</time>
      </trkpt>
      <trkpt lat="41.239317" lon="-3.476567">
        <ele>2033.0</ele>
        <time>2017-09-30T13:45:21Z</time>
      </trkpt>
      <trkpt lat="41.239417" lon="-3.476567">
        <ele>2031.0</ele>
        <time>2017-09-30T13:45:22Z</time>
      </trkpt>
      <trkpt lat="41.239517" lon="-3.476550">
        <ele>2029.0</ele>
        <time>2017-09-30T13:45:23Z</time>
      </trkpt>
      <trkpt lat="41.239633" lon="-3.476550">
        <ele>2027.0</ele>
        <time>2017-09-30T13:45:24Z</time>
      </trkpt>
      <trkpt lat="41.239750" lon="-3.476533">
        <ele>2026.0</ele>
        <time>2017-09-30T13:45:25Z</time>
      </trkpt>
      <trkpt lat="41.239883" lon="-3.476500">
        <ele>2025.0</ele>
        <time>2017-09-30T13:45:26Z</time>
      </trkpt>
      <trkpt lat="41.240000" lon="-3.476467">
        <ele>2025.0</ele>
        <time>2017-09-30T13:45:27Z</time>
      </trkpt>
      <trkpt lat="41.240100" lon="-3.476433">
        <ele>2025.0</ele>
        <time>2017-09-30T13:45:28Z</time>
      </trkpt>
      <trkpt lat="41.240217" lon="-3.476417">
        <ele>2024.0</ele>
        <time>2017-09-30T13:45:29Z</time>
      </trkpt>
      <trkpt lat="41.240333" lon="-3.476383">
        <ele>2022.0</ele>
        <time>2017-09-30T13:45:30Z</time>
      </trkpt>
      <trkpt lat="41.240450" lon="-3.476367">
        <ele>2020.0</ele>
        <time>2017-09-30T13:45:31Z</time>
      </trkpt>
      <trkpt lat="41.240567" lon="-3.476350">
        <ele>2019.0</ele>
        <time>2017-09-30T13:45:32Z</time>
      </trkpt>
      <trkpt lat="41.240683" lon="-3.476317">
        <ele>2018.0</ele>
        <time>2017-09-30T13:45:33Z</time>
      </trkpt>
      <trkpt lat="41.240800" lon="-3.476267">
        <ele>2017.0</ele>
        <time>2017-09-30T13:45:34Z</time>
      </trkpt>
      <trkpt lat="41.240917" lon="-3.476217">
        <ele>2016.0</ele>
        <time>2017-09-30T13:45:35Z</time>
      </trkpt>
      <trkpt lat="41.241033" lon="-3.476167">
        <ele>2015.0</ele>
        <time>2017-09-30T13:45:36Z</time>
      </trkpt>
      <trkpt lat="41.241150" lon="-3.476117">
        <ele>2014.0</ele>
        <time>2017-09-30T13:45:37Z</time>
      </trkpt>
      <trkpt lat="41.241267" lon="-3.476050">
        <ele>2014.0</ele>
        <time>2017-09-30T13:45:38Z</time>
      </trkpt>
      <trkpt lat="41.241367" lon="-3.475983">
        <ele>2013.0</ele>
        <time>2017-09-30T13:45:39Z</time>
      </trkpt>
      <trkpt lat="41.241483" lon="-3.475933">
        <ele>2012.0</ele>
        <time>2017-09-30T13:45:40Z</time>
      </trkpt>
      <trkpt lat="41.241583" lon="-3.475867">
        <ele>2011.0</ele>
        <time>2017-09-30T13:45:41Z</time>
      </trkpt>
      <trkpt lat="41.241683" lon="-3.475817">
        <ele>2009.0</ele>
        <time>2017-09-30T13:45:42Z</time>
      </trkpt>
      <trkpt lat="41.241817" lon="-3.475767">
        <ele>2007.0</ele>
        <time>2017-09-30T13:45:43Z</time>
      </trkpt>
      <trkpt lat="41.241933" lon="-3.475733">
        <ele>2005.0</ele>
        <time>2017-09-30T13:45:44Z</time>
      </trkpt>
      <trkpt lat="41.242033" lon="-3.475717">
        <ele>2004.0</ele>
        <time>2017-09-30T13:45:45Z</time>
      </trkpt>
      <trkpt lat="41.242133" lon="-3.475667">
        <ele>2003.0</ele>
        <time>2017-09-30T13:45:46Z</time>
      </trkpt>
      <trkpt lat="41.242233" lon="-3.475617">
        <ele>2002.0</ele>
        <time>2017-09-30T13:45:47Z</time>
      </trkpt>
      <trkpt lat="41.242350" lon="-3.475550">
        <ele>1999.0</ele>
        <time>2017-09-30T13:45:48Z</time>
      </trkpt>
      <trkpt lat="41.242450" lon="-3.475483">
        <ele>1997.0</ele>
        <time>2017-09-30T13:45:49Z</time>
      </trkpt>
      <trkpt lat="41.242567" lon="-3.475450">
        <ele>1994.0</ele>
        <time>2017-09-30T13:45:50Z</time>
      </trkpt>
      <trkpt lat="41.242683" lon="-3.475417">
        <ele>1992.0</ele>
        <time>2017-09-30T13:45:51Z</time>
      </trkpt>
      <trkpt lat="41.242783" lon="-3.475400">
        <ele>1990.0</ele>
        <time>2017-09-30T13:45:52Z</time>
      </trkpt>
      <trkpt lat="41.242900" lon="-3.475383">
        <ele>1989.0</ele>
        <time>2017-09-30T13:45:53Z</time>
      </trkpt>
      <trkpt lat="41.242983" lon="-3.475350">
        <ele>1988.0</ele>
        <time>2017-09-30T13:45:54Z</time>
      </trkpt>
      <trkpt lat="41.243083" lon="-3.475333">
        <ele>1987.0</ele>
        <time>2017-09-30T13:45:55Z</time>
      </trkpt>
      <trkpt lat="41.243167" lon="-3.475317">
        <ele>1985.0</ele>
        <time>2017-09-30T13:45:56Z</time>
      </trkpt>
      <trkpt lat="41.243267" lon="-3.475300">
        <ele>1982.0</ele>
        <time>2017-09-30T13:45:57Z</time>
      </trkpt>
      <trkpt lat="41.243383" lon="-3.475300">
        <ele>1979.0</ele>
        <time>2017-09-30T13:45:58Z</time>
      </trkpt>
      <trkpt lat="41.243500" lon="-3.475267">
        <ele>1976.0</ele>
        <time>2017-09-30T13:45:59Z</time>
      </trkpt>
      <trkpt lat="41.243600" lon="-3.475250">
        <ele>1974.0</ele>
        <time>2017-09-30T13:46:00Z</time>
      </trkpt>
      <trkpt lat="41.243717" lon="-3.475233">
        <ele>1972.0</ele>
        <time>2017-09-30T13:46:01Z</time>
      </trkpt>
      <trkpt lat="41.243833" lon="-3.475217">
        <ele>1969.0</ele>
        <time>2017-09-30T13:46:02Z</time>
      </trkpt>
      <trkpt lat="41.243950" lon="-3.475183">
        <ele>1967.0</ele>
        <time>2017-09-30T13:46:03Z</time>
      </trkpt>
      <trkpt lat="41.244067" lon="-3.475167">
        <ele>1965.0</ele>
        <time>2017-09-30T13:46:04Z</time>
      </trkpt>
      <trkpt lat="41.244167" lon="-3.475133">
        <ele>1964.0</ele>
        <time>2017-09-30T13:46:05Z</time>
      </trkpt>
      <trkpt lat="41.244267" lon="-3.475100">
        <ele>1962.0</ele>
        <time>2017-09-30T13:46:06Z</time>
      </trkpt>
      <trkpt lat="41.244383" lon="-3.475050">
        <ele>1959.0</ele>
        <time>2017-09-30T13:46:07Z</time>
      </trkpt>
      <trkpt lat="41.244500" lon="-3.475000">
        <ele>1956.0</ele>
        <time>2017-09-30T13:46:08Z</time>
      </trkpt>
      <trkpt lat="41.244617" lon="-3.474950">
        <ele>1953.0</ele>
        <time>2017-09-30T13:46:09Z</time>
      </trkpt>
      <trkpt lat="41.244733" lon="-3.474917">
        <ele>1949.0</ele>
        <time>2017-09-30T13:46:10Z</time>
      </trkpt>
      <trkpt lat="41.244867" lon="-3.474883">
        <ele>1947.0</ele>
        <time>2017-09-30T13:46:11Z</time>
      </trkpt>
      <trkpt lat="41.244983" lon="-3.474850">
        <ele>1946.0</ele>
        <time>2017-09-30T13:46:12Z</time>
      </trkpt>
      <trkpt lat="41.245083" lon="-3.474817">
        <ele>1945.0</ele>
        <time>2017-09-30T13:46:13Z</time>
      </trkpt>
      <trkpt lat="41.245183" lon="-3.474783">
        <ele>1944.0</ele>
        <time>2017-09-30T13:46:14Z</time>
      </trkpt>
      <trkpt lat="41.245300" lon="-3.474750">
        <ele>1943.0</ele>
        <time>2017-09-30T13:46:15Z</time>
      </trkpt>
      <trkpt lat="41.245400" lon="-3.474717">
        <ele>1942.0</ele>
        <time>2017-09-30T13:46:16Z</time>
      </trkpt>
      <trkpt lat="41.245517" lon="-3.474683">
        <ele>1941.0</ele>
        <time>2017-09-30T13:46:17Z</time>
      </trkpt>
      <trkpt lat="41.245633" lon="-3.474650">
        <ele>1941.0</ele>
        <time>2017-09-30T13:46:18Z</time>
      </trkpt>
      <trkpt lat="41.245733" lon="-3.474633">
        <ele>1940.0</ele>
        <time>2017-09-30T13:46:19Z</time>
      </trkpt>
      <trkpt lat="41.245833" lon="-3.474600">
        <ele>1938.0</ele>
        <time>2017-09-30T13:46:20Z</time>
      </trkpt>
      <trkpt lat="41.245950" lon="-3.474550">
        <ele>1935.0</ele>
        <time>2017-09-30T13:46:21Z</time>
      </trkpt>
      <trkpt lat="41.246083" lon="-3.474517">
        <ele>1931.0</ele>
        <time>2017-09-30T13:46:22Z</time>
      </trkpt>
      <trkpt lat="41.246200" lon="-3.474467">
        <ele>1928.0</ele>
        <time>2017-09-30T13:46:23Z</time>
      </trkpt>
      <trkpt lat="41.246333" lon="-3.474433">
        <ele>1926.0</ele>
        <time>2017-09-30T13:46:24Z</time>
      </trkpt>
      <trkpt lat="41.246450" lon="-3.474383">
        <ele>1924.0</ele>
        <time>2017-09-30T13:46:25Z</time>
      </trkpt>
      <trkpt lat="41.246567" lon="-3.474333">
        <ele>1921.0</ele>
        <time>2017-09-30T13:46:26Z</time>
      </trkpt>
      <trkpt lat="41.246683" lon="-3.474283">
        <ele>1918.0</ele>
        <time>2017-09-30T13:46:27Z</time>
      </trkpt>
      <trkpt lat="41.246800" lon="-3.474233">
        <ele>1916.0</ele>
        <time>2017-09-30T13:46:28Z</time>
      </trkpt>
      <trkpt lat="41.246900" lon="-3.474183">
        <ele>1913.0</ele>
        <time>2017-09-30T13:46:29Z</time>
      </trkpt>
      <trkpt lat="41.247017" lon="-3.474133">
        <ele>1910.0</ele>
        <time>2017-09-30T13:46:30Z</time>
      </trkpt>
      <trkpt lat="41.247117" lon="-3.474083">
        <ele>1907.0</ele>
        <time>2017-09-30T13:46:31Z</time>
      </trkpt>
      <trkpt lat="41.247233" lon="-3.474050">
        <ele>1903.0</ele>
        <time>2017-09-30T13:46:32Z</time>
      </trkpt>
      <trkpt lat="41.247350" lon="-3.474017">
        <ele>1899.0</ele>
        <time>2017-09-30T13:46:33Z</time>
      </trkpt>
      <trkpt lat="41.247467" lon="-3.473983">
        <ele>1897.0</ele>
        <time>2017-09-30T13:46:34Z</time>
      </trkpt>
      <trkpt lat="41.247583" lon="-3.473950">
        <ele>1895.0</ele>
        <time>2017-09-30T13:46:35Z</time>
      </trkpt>
      <trkpt lat="41.247683" lon="-3.473917">
        <ele>1893.0</ele>
        <time>2017-09-30T13:46:36Z</time>
      </trkpt>
      <trkpt lat="41.247783" lon="-3.473900">
        <ele>1890.0</ele>
        <time>2017-09-30T13:46:37Z</time>
      </trkpt>
      <trkpt lat="41.247900" lon="-3.473850">
        <ele>1887.0</ele>
        <time>2017-09-30T13:46:38Z</time>
      </trkpt>
      <trkpt lat="41.248017" lon="-3.473817">
        <ele>1884.0</ele>
        <time>2017-09-30T13:46:39Z</time>
      </trkpt>
      <trkpt lat="41.248133" lon="-3.473783">
        <ele>1882.0</ele>
        <time>2017-09-30T13:46:40Z</time>
      </trkpt>
      <trkpt lat="41.248233" lon="-3.473767">
        <ele>1880.0</ele>
        <time>2017-09-30T13:46:41Z</time>
      </trkpt>
      <trkpt lat="41.248317" lon="-3.473767">
        <ele>1878.0</ele>
        <time>2017-09-30T13:46:42Z</time>
      </trkpt>
      <trkpt lat="41.248417" lon="-3.473767">
        <ele>1875.0</ele>
        <time>2017-09-30T13:46:43Z</time>
      </trkpt>
      <trkpt lat="41.248533" lon="-3.473767">
        <ele>1872.0</ele>
        <time>2017-09-30T13:46:44Z</time>
      </trkpt>
      <trkpt lat="41.248633" lon="-3.473767">
        <ele>1869.0</ele>
        <time>2017-09-30T13:46:45Z</time>
      </trkpt>
      <trkpt lat="41.248750" lon="-3.473767">
        <ele>1867.0</ele>
        <time>2017-09-30T13:46:46Z</time>
      </trkpt>
      <trkpt lat="41.248850" lon="-3.473750">
        <ele>1866.0</ele>
        <time>2017-09-30T13:46:47Z</time>
      </trkpt>
      <trkpt lat="41.248950" lon="-3.473750">
        <ele>1864.0</ele>
        <time>2017-09-30T13:46:48Z</time>
      </trkpt>
      <trkpt lat="41.249050" lon="-3.473750">
        <ele>1862.0</ele>
        <time>2017-09-30T13:46:49Z</time>
      </trkpt>
      <trkpt lat="41.249150" lon="-3.473750">
        <ele>1860.0</ele>
        <time>2017-09-30T13:46:50Z</time>
      </trkpt>
      <trkpt lat="41.249250" lon="-3.473750">
        <ele>1857.0</ele>
        <time>2017-09-30T13:46:51Z</time>
      </trkpt>
      <trkpt lat="41.249350" lon="-3.473750">
        <ele>1855.0</ele>
        <time>2017-09-30T13:46:52Z</time>
      </trkpt>
      <trkpt lat="41.249467" lon="-3.473750">
        <ele>1852.0</ele>
        <time>2017-09-30T13:46:53Z</time>
      </trkpt>
      <trkpt lat="41.249567" lon="-3.473733">
        <ele>1849.0</ele>
        <time>2017-09-30T13:46:54Z</time>
      </trkpt>
      <trkpt lat="41.249667" lon="-3.473733">
        <ele>1846.0</ele>
        <time>2017-09-30T13:46:55Z</time>
      </trkpt>
      <trkpt lat="41.249767" lon="-3.473750">
        <ele>1843.0</ele>
        <time>2017-09-30T13:46:56Z</time>
      </trkpt>
      <trkpt lat="41.249867" lon="-3.473767">
        <ele>1840.0</ele>
        <time>2017-09-30T13:46:57Z</time>
      </trkpt>
      <trkpt lat="41.249967" lon="-3.473783">
        <ele>1837.0</ele>
        <time>2017-09-30T13:46:58Z</time>
      </trkpt>
      <trkpt lat="41.250067" lon="-3.473783">
        <ele>1836.0</ele>
        <time>2017-09-30T13:46:59Z</time>
      </trkpt>
      <trkpt lat="41.250167" lon="-3.473783">
        <ele>1834.0</ele>
        <time>2017-09-30T13:47:00Z</time>
      </trkpt>
      <trkpt lat="41.250267" lon="-3.473800">
        <ele>1832.0</ele>
        <time>2017-09-30T13:47:01Z</time>
      </trkpt>
      <trkpt lat="41.250367" lon="-3.473783">
        <ele>1829.0</ele>
        <time>2017-09-30T13:47:02Z</time>
      </trkpt>
      <trkpt lat="41.250483" lon="-3.473783">
        <ele>1826.0</ele>
        <time>2017-09-30T13:47:03Z</time>
      </trkpt>
      <trkpt lat="41.250600" lon="-3.473767">
        <ele>1823.0</ele>
        <time>2017-09-30T13:47:04Z</time>
      </trkpt>
      <trkpt lat="41.250717" lon="-3.473733">
        <ele>1821.0</ele>
        <time>2017-09-30T13:47:05Z</time>
      </trkpt>
      <trkpt lat="41.250817" lon="-3.473717">
        <ele>1819.0</ele>
        <time>2017-09-30T13:47:06Z</time>
      </trkpt>
      <trkpt lat="41.250917" lon="-3.473717">
        <ele>1816.0</ele>
        <time>2017-09-30T13:47:07Z</time>
      </trkpt>
      <trkpt lat="41.251017" lon="-3.473700">
        <ele>1813.0</ele>
        <time>2017-09-30T13:47:08Z</time>
      </trkpt>
      <trkpt lat="41.251133" lon="-3.473700">
        <ele>1809.0</ele>
        <time>2017-09-30T13:47:09Z</time>
      </trkpt>
      <trkpt lat="41.251233" lon="-3.473700">
        <ele>1806.0</ele>
        <time>2017-09-30T13:47:10Z</time>
      </trkpt>
      <trkpt lat="41.251350" lon="-3.473700">
        <ele>1803.0</ele>
        <time>2017-09-30T13:47:11Z</time>
      </trkpt>
      <trkpt lat="41.251467" lon="-3.473700">
        <ele>1801.0</ele>
        <time>2017-09-30T13:47:12Z</time>
      </trkpt>
      <trkpt lat="41.251583" lon="-3.473700">
        <ele>1799.0</ele>
        <time>2017-09-30T13:47:13Z</time>
      </trkpt>
      <trkpt lat="41.251683" lon="-3.473700">
        <ele>1796.0</ele>
        <time>2017-09-30T13:47:14Z</time>
      </trkpt>
      <trkpt lat="41.251800" lon="-3.473700">
        <ele>1794.0</ele>
        <time>2017-09-30T13:47:15Z</time>
      </trkpt>
      <trkpt lat="41.251900" lon="-3.473717">
        <ele>1792.0</ele>
        <time>2017-09-30T13:47:16Z</time>
      </trkpt>
      <trkpt lat="41.252017" lon="-3.473733">
        <ele>1792.0</ele>
        <time>2017-09-30T13:47:17Z</time>
      </trkpt>
      <trkpt lat="41.252117" lon="-3.473733">
        <ele>1792.0</ele>
        <time>2017-09-30T13:47:18Z</time>
      </trkpt>
      <trkpt lat="41.252200" lon="-3.473750">
        <ele>1791.0</ele>
        <time>2017-09-30T13:47:19Z</time>
      </trkpt>
      <trkpt lat="41.252267" lon="-3.473767">
        <ele>1789.0</ele>
        <time>2017-09-30T13:47:20Z</time>
      </trkpt>
      <trkpt lat="41.252317" lon="-3.473817">
        <ele>1785.0</ele>
        <time>2017-09-30T13:47:21Z</time>
      </trkpt>
      <trkpt lat="41.252383" lon="-3.473883">
        <ele>1782.0</ele>
        <time>2017-09-30T13:47:22Z</time>
      </trkpt>
      <trkpt lat="41.252467" lon="-3.473950">
        <ele>1779.0</ele>
        <time>2017-09-30T13:47:23Z</time>
      </trkpt>
      <trkpt lat="41.252533" lon="-3.474017">
        <ele>1777.0</ele>
        <time>2017-09-30T13:47:24Z</time>
      </trkpt>
      <trkpt lat="41.252617" lon="-3.474067">
        <ele>1776.0</ele>
        <time>2017-09-30T13:47:25Z</time>
      </trkpt>
      <trkpt lat="41.252683" lon="-3.474117">
        <ele>1776.0</ele>
        <time>2017-09-30T13:47:26Z</time>
      </trkpt>
      <trkpt lat="41.252750" lon="-3.474150">
        <ele>1775.0</ele>
        <time>2017-09-30T13:47:27Z</time>
      </trkpt>
      <trkpt lat="41.252817" lon="-3.474200">
        <ele>1774.0</ele>
        <time>2017-09-30T13:47:28Z</time>
      </trkpt>
      <trkpt lat="41.252883" lon="-3.474267">
        <ele>1772.0</ele>
        <time>2017-09-30T13:47:29Z</time>
      </trkpt>
      <trkpt lat="41.252950" lon="-3.474333">
        <ele>1771.0</ele>
        <time>2017-09-30T13:47:30Z</time>
      </trkpt>
      <trkpt lat="41.253017" lon="-3.474383">
        <ele>1770.0</ele>
        <time>2017-09-30T13:47:31Z</time>
      </trkpt>
      <trkpt lat="41.253100" lon="-3.474433">
        <ele>1769.0</ele>
        <time>2017-09-30T13:47:32Z</time>
      </trkpt>
      <trkpt lat="41.253167" lon="-3.474483">
        <ele>1768.0</ele>
        <time>2017-09-30T13:47:33Z</time>
      </trkpt>
      <trkpt lat="41.253250" lon="-3.474517">
        <ele>1766.0</ele>
        <time>2017-09-30T13:47:34Z</time>
      </trkpt>
      <trkpt lat="41.253333" lon="-3.474567">
        <ele>1764.0</ele>
        <time>2017-09-30T13:47:35Z</time>
      </trkpt>
      <trkpt lat="41.253417" lon="-3.474600">
        <ele>1762.0</ele>
        <time>2017-09-30T13:47:36Z</time>
      </trkpt>
      <trkpt lat="41.253500" lon="-3.474633">
        <ele>1759.0</ele>
        <time>2017-09-30T13:47:37Z</time>
      </trkpt>
      <trkpt lat="41.253600" lon="-3.474633">
        <ele>1757.0</ele>
        <time>2017-09-30T13:47:38Z</time>
      </trkpt>
      <trkpt lat="41.253700" lon="-3.474650">
        <ele>1754.0</ele>
        <time>2017-09-30T13:47:39Z</time>
      </trkpt>
      <trkpt lat="41.253783" lon="-3.474650">
        <ele>1752.0</ele>
        <time>2017-09-30T13:47:40Z</time>
      </trkpt>
      <trkpt lat="41.253883" lon="-3.474667">
        <ele>1749.0</ele>
        <time>2017-09-30T13:47:41Z</time>
      </trkpt>
      <trkpt lat="41.253967" lon="-3.474683">
        <ele>1747.0</ele>
        <time>2017-09-30T13:47:42Z</time>
      </trkpt>
      <trkpt lat="41.254050" lon="-3.474717">
        <ele>1744.0</ele>
        <time>2017-09-30T13:47:43Z</time>
      </trkpt>
      <trkpt lat="41.254150" lon="-3.474767">
        <ele>1741.0</ele>
        <time>2017-09-30T13:47:44Z</time>
      </trkpt>
      <trkpt lat="41.254233" lon="-3.474817">
        <ele>1740.0</ele>
        <time>2017-09-30T13:47:45Z</time>
      </trkpt>
      <trkpt lat="41.254317" lon="-3.474867">
        <ele>1741.0</ele>
        <time>2017-09-30T13:47:46Z</time>
      </trkpt>
      <trkpt lat="41.254367" lon="-3.474900">
        <ele>1741.0</ele>
        <time>2017-09-30T13:47:47Z</time>
      </trkpt>
      <trkpt lat="41.254417" lon="-3.474917">
        <ele>1740.0</ele>
        <time>2017-09-30T13:47:48Z</time>
      </trkpt>
      <trkpt lat="41.254450" lon="-3.474967">
        <ele>1737.0</ele>
        <time>2017-09-30T13:47:49Z</time>
      </trkpt>
      <trkpt lat="41.254500" lon="-3.475017">
        <ele>1733.0</ele>
        <time>2017-09-30T13:47:50Z</time>
      </trkpt>
      <trkpt lat="41.254567" lon="-3.475083">
        <ele>1731.0</ele>
        <time>2017-09-30T13:47:51Z</time>
      </trkpt>
      <trkpt lat="41.254617" lon="-3.475150">
        <ele>1729.0</ele>
        <time>2017-09-30T13:47:52Z</time>
      </trkpt>
      <trkpt lat="41.254667" lon="-3.475200">
        <ele>1728.0</ele>
        <time>2017-09-30T13:47:53Z</time>
      </trkpt>
      <trkpt lat="41.254733" lon="-3.475233">
        <ele>1727.0</ele>
        <time>2017-09-30T13:47:54Z</time>
      </trkpt>
      <trkpt lat="41.254800" lon="-3.475250">
        <ele>1726.0</ele>
        <time>2017-09-30T13:47:55Z</time>
      </trkpt>
      <trkpt lat="41.254867" lon="-3.475267">
        <ele>1724.0</ele>
        <time>2017-09-30T13:47:56Z</time>
      </trkpt>
      <trkpt lat="41.254933" lon="-3.475317">
        <ele>1722.0</ele>
        <time>2017-09-30T13:47:57Z</time>
      </trkpt>
      <trkpt lat="41.255000" lon="-3.475350">
        <ele>1720.0</ele>
        <time>2017-09-30T13:47:58Z</time>
      </trkpt>
      <trkpt lat="41.255067" lon="-3.475383">
        <ele>1720.0</ele>
        <time>2017-09-30T13:47:59Z</time>
      </trkpt>
      <trkpt lat="41.255117" lon="-3.475417">
        <ele>1719.0</ele>
        <time>2017-09-30T13:48:00Z</time>
      </trkpt>
      <trkpt lat="41.255167" lon="-3.475450">
        <ele>1717.0</ele>
        <time>2017-09-30T13:48:01Z</time>
      </trkpt>
      <trkpt lat="41.255217" lon="-3.475517">
        <ele>1715.0</ele>
        <time>2017-09-30T13:48:02Z</time>
      </trkpt>
      <trkpt lat="41.255267" lon="-3.475583">
        <ele>1714.0</ele>
        <time>2017-09-30T13:48:03Z</time>
      </trkpt>
      <trkpt lat="41.255317" lon="-3.475633">
        <ele>1714.0</ele>
        <time>2017-09-30T13:48:04Z</time>
      </trkpt>
      <trkpt lat="41.255383" lon="-3.475667">
        <ele>1714.0</ele>
        <time>2017-09-30T13:48:05Z</time>
      </trkpt>
      <trkpt lat="41.255433" lon="-3.475700">
        <ele>1713.0</ele>
        <time>2017-09-30T13:48:06Z</time>
      </trkpt>
      <trkpt lat="41.255500" lon="-3.475733">
        <ele>1712.0</ele>
        <time>2017-09-30T13:48:07Z</time>
      </trkpt>
      <trkpt lat="41.255567" lon="-3.475767">
        <ele>1710.0</ele>
        <time>2017-09-30T13:48:08Z</time>
      </trkpt>
      <trkpt lat="41.255633" lon="-3.475817">
        <ele>1708.0</ele>
        <time>2017-09-30T13:48:09Z</time>
      </trkpt>
      <trkpt lat="41.255700" lon="-3.475850">
        <ele>1707.0</ele>
        <time>2017-09-30T13:48:10Z</time>
      </trkpt>
      <trkpt lat="41.255783" lon="-3.475883">
        <ele>1705.0</ele>
        <time>2017-09-30T13:48:11Z</time>
      </trkpt>
      <trkpt lat="41.255850" lon="-3.475917">
        <ele>1704.0</ele>
        <time>2017-09-30T13:48:12Z</time>
      </trkpt>
      <trkpt lat="41.255933" lon="-3.475950">
        <ele>1702.0</ele>
        <time>2017-09-30T13:48:13Z</time>
      </trkpt>
      <trkpt lat="41.256017" lon="-3.475950">
        <ele>1701.0</ele>
        <time>2017-09-30T13:48:14Z</time>
      </trkpt>
      <trkpt lat="41.256100" lon="-3.475967">
        <ele>1700.0</ele>
        <time>2017-09-30T13:48:15Z</time>
      </trkpt>
      <trkpt lat="41.256183" lon="-3.476000">
        <ele>1699.0</ele>
        <time>2017-09-30T13:48:16Z</time>
      </trkpt>
      <trkpt lat="41.256267" lon="-3.476017">
        <ele>1698.0</ele>
        <time>2017-09-30T13:48:17Z</time>
      </trkpt>
      <trkpt lat="41.256350" lon="-3.476050">
        <ele>1697.0</ele>
        <time>2017-09-30T13:48:18Z</time>
      </trkpt>
      <trkpt lat="41.256433" lon="-3.476067">
        <ele>1698.0</ele>
        <time>2017-09-30T13:48:19Z</time>
      </trkpt>
      <trkpt lat="41.256500" lon="-3.476067">
        <ele>1698.0</ele>
        <time>2017-09-30T13:48:20Z</time>
      </trkpt>
      <trkpt lat="41.256567" lon="-3.476083">
        <ele>1698.0</ele>
        <time>2017-09-30T13:48:21Z</time>
      </trkpt>
      <trkpt lat="41.256633" lon="-3.476100">
        <ele>1697.0</ele>
        <time>2017-09-30T13:48:22Z</time>
      </trkpt>
      <trkpt lat="41.256700" lon="-3.476133">
        <ele>1696.0</ele>
        <time>2017-09-30T13:48:23Z</time>
      </trkpt>
      <trkpt lat="41.256750" lon="-3.476200">
        <ele>1696.0</ele>
        <time>2017-09-30T13:48:24Z</time>
      </trkpt>
      <trkpt lat="41.256800" lon="-3.476250">
        <ele>1697.0</ele>
        <time>2017-09-30T13:48:25Z</time>
      </trkpt>
      <trkpt lat="41.256850" lon="-3.476283">
        <ele>1699.0</ele>
        <time>2017-09-30T13:48:26Z</time>
      </trkpt>
      <trkpt lat="41.256900" lon="-3.476300">
        <ele>1700.0</ele>
        <time>2017-09-30T13:48:27Z</time>
      </trkpt>
      <trkpt lat="41.256967" lon="-3.476317">
        <ele>1699.0</ele>
        <time>2017-09-30T13:48:28Z</time>
      </trkpt>
      <trkpt lat="41.257033" lon="-3.476350">
        <ele>1698.0</ele>
        <time>2017-09-30T13:48:29Z</time>
      </trkpt>
      <trkpt lat="41.257100" lon="-3.476400">
        <ele>1696.0</ele>
        <time>2017-09-30T13:48:30Z</time>
      </trkpt>
      <trkpt lat="41.257167" lon="-3.476450">
        <ele>1695.0</ele>
        <time>2017-09-30T13:48:31Z</time>
      </trkpt>
      <trkpt lat="41.257250" lon="-3.476483">
        <ele>1695.0</ele>
        <time>2017-09-30T13:48:32Z</time>
      </trkpt>
      <trkpt lat="41.257333" lon="-3.476500">
        <ele>1695.0</ele>
        <time>2017-09-30T13:48:33Z</time>
      </trkpt>
      <trkpt lat="41.257433" lon="-3.476467">
        <ele>1694.0</ele>
        <time>2017-09-30T13:48:34Z</time>
      </trkpt>
      <trkpt lat="41.257533" lon="-3.476450">
        <ele>1692.0</ele>
        <time>2017-09-30T13:48:35Z</time>
      </trkpt>
      <trkpt lat="41.257633" lon="-3.476400">
        <ele>1690.0</ele>
        <time>2017-09-30T13:48:36Z</time>
      </trkpt>
      <trkpt lat="41.257750" lon="-3.476350">
        <ele>1687.0</ele>
        <time>2017-09-30T13:48:37Z</time>
      </trkpt>
      <trkpt lat="41.257867" lon="-3.476300">
        <ele>1685.0</ele>
        <time>2017-09-30T13:48:38Z</time>
      </trkpt>
      <trkpt lat="41.257983" lon="-3.476250">
        <ele>1683.0</ele>
        <time>2017-09-30T13:48:39Z</time>
      </trkpt>
      <trkpt lat="41.258100" lon="-3.476183">
        <ele>1682.0</ele>
        <time>2017-09-30T13:48:40Z</time>
      </trkpt>
      <trkpt lat="41.258217" lon="-3.476133">
        <ele>1681.0</ele>
        <time>2017-09-30T13:48:41Z</time>
      </trkpt>
      <trkpt lat="41.258317" lon="-3.476083">
        <ele>1680.0</ele>
        <time>2017-09-30T13:48:42Z</time>
      </trkpt>
      <trkpt lat="41.258400" lon="-3.476050">
        <ele>1678.0</ele>
        <time>2017-09-30T13:48:43Z</time>
      </trkpt>
      <trkpt lat="41.258500" lon="-3.476033">
        <ele>1675.0</ele>
        <time>2017-09-30T13:48:44Z</time>
      </trkpt>
      <trkpt lat="41.258600" lon="-3.476033">
        <ele>1673.0</ele>
        <time>2017-09-30T13:48:45Z</time>
      </trkpt>
      <trkpt lat="41.258700" lon="-3.476033">
        <ele>1671.0</ele>
        <time>2017-09-30T13:48:46Z</time>
      </trkpt>
      <trkpt lat="41.258783" lon="-3.476050">
        <ele>1670.0</ele>
        <time>2017-09-30T13:48:47Z</time>
      </trkpt>
      <trkpt lat="41.258867" lon="-3.476067">
        <ele>1669.0</ele>
        <time>2017-09-30T13:48:48Z</time>
      </trkpt>
      <trkpt lat="41.258933" lon="-3.476083">
        <ele>1668.0</ele>
        <time>2017-09-30T13:48:49Z</time>
      </trkpt>
      <trkpt lat="41.259000" lon="-3.476100">
        <ele>1666.0</ele>
        <time>2017-09-30T13:48:50Z</time>
      </trkpt>
      <trkpt lat="41.259067" lon="-3.476133">
        <ele>1664.0</ele>
        <time>2017-09-30T13:48:51Z</time>
      </trkpt>
      <trkpt lat="41.259133" lon="-3.476167">
        <ele>1663.0</ele>
        <time>2017-09-30T13:48:52Z</time>
      </trkpt>
      <trkpt lat="41.259200" lon="-3.476200">
        <ele>1662.0</ele>
        <time>2017-09-30T13:48:53Z</time>
      </trkpt>
      <trkpt lat="41.259267" lon="-3.476233">
        <ele>1661.0</ele>
        <time>2017-09-30T13:48:54Z</time>
      </trkpt>
      <trkpt lat="41.259333" lon="-3.476250">
        <ele>1661.0</ele>
        <time>2017-09-30T13:48:55Z</time>
      </trkpt>
      <trkpt lat="41.259400" lon="-3.476250">
        <ele>1659.0</ele>
        <time>2017-09-30T13:48:56Z</time>
      </trkpt>
      <trkpt lat="41.259483" lon="-3.476267">
        <ele>1657.0</ele>
        <time>2017-09-30T13:48:57Z</time>
      </trkpt>
      <trkpt lat="41.259567" lon="-3.476283">
        <ele>1654.0</ele>
        <time>2017-09-30T13:48:58Z</time>
      </trkpt>
      <trkpt lat="41.259650" lon="-3.476300">
        <ele>1651.0</ele>
        <time>2017-09-30T13:48:59Z</time>
      </trkpt>
      <trkpt lat="41.259733" lon="-3.476317">
        <ele>1649.0</ele>
        <time>2017-09-30T13:49:00Z</time>
      </trkpt>
      <trkpt lat="41.259817" lon="-3.476333">
        <ele>1646.0</ele>
        <time>2017-09-30T13:49:01Z</time>
      </trkpt>
      <trkpt lat="41.259900" lon="-3.476333">
        <ele>1643.0</ele>
        <time>2017-09-30T13:49:02Z</time>
      </trkpt>
      <trkpt lat="41.259983" lon="-3.476350">
        <ele>1640.0</ele>
        <time>2017-09-30T13:49:03Z</time>
      </trkpt>
      <trkpt lat="41.260067" lon="-3.476367">
        <ele>1637.0</ele>
        <time>2017-09-30T13:49:04Z</time>
      </trkpt>
      <trkpt lat="41.260150" lon="-3.476400">
        <ele>1635.0</ele>
        <time>2017-09-30T13:49:05Z</time>
      </trkpt>
      <trkpt lat="41.260233" lon="-3.476417">
        <ele>1633.0</ele>
        <time>2017-09-30T13:49:06Z</time>
      </trkpt>
      <trkpt lat="41.260317" lon="-3.476433">
        <ele>1632.0</ele>
        <time>2017-09-30T13:49:07Z</time>
      </trkpt>
      <trkpt lat="41.260383" lon="-3.476450">
        <ele>1629.0</ele>
        <time>2017-09-30T13:49:08Z</time>
      </trkpt>
      <trkpt lat="41.260467" lon="-3.476467">
        <ele>1627.0</ele>
        <time>2017-09-30T13:49:09Z</time>
      </trkpt>
      <trkpt lat="41.260533" lon="-3.476483">
        <ele>1623.0</ele>
        <time>2017-09-30T13:49:10Z</time>
      </trkpt>
      <trkpt lat="41.260633" lon="-3.476500">
        <ele>1620.0</ele>
        <time>2017-09-30T13:49:11Z</time>
      </trkpt>
      <trkpt lat="41.260717" lon="-3.476533">
        <ele>1618.0</ele>
        <time>2017-09-30T13:49:12Z</time>
      </trkpt>
      <trkpt lat="41.260783" lon="-3.476567">
        <ele>1616.0</ele>
        <time>2017-09-30T13:49:13Z</time>
      </trkpt>
      <trkpt lat="41.260850" lon="-3.476600">
        <ele>1614.0</ele>
        <time>2017-09-30T13:49:14Z</time>
      </trkpt>
      <trkpt lat="41.260933" lon="-3.476633">
        <ele>1612.0</ele>
        <time>2017-09-30T13:49:15Z</time>
      </trkpt>
      <trkpt lat="41.261000" lon="-3.476667">
        <ele>1610.0</ele>
        <time>2017-09-30T13:49:16Z</time>
      </trkpt>
      <trkpt lat="41.261083" lon="-3.476700">
        <ele>1608.0</ele>
        <time>2017-09-30T13:49:17Z</time>
      </trkpt>
      <trkpt lat="41.261167" lon="-3.476733">
        <ele>1606.0</ele>
        <time>2017-09-30T13:49:18Z</time>
      </trkpt>
      <trkpt lat="41.261233" lon="-3.476767">
        <ele>1603.0</ele>
        <time>2017-09-30T13:49:19Z</time>
      </trkpt>
      <trkpt lat="41.261317" lon="-3.476800">
        <ele>1601.0</ele>
        <time>2017-09-30T13:49:20Z</time>
      </trkpt>
      <trkpt lat="41.261400" lon="-3.476833">
        <ele>1599.0</ele>
        <time>2017-09-30T13:49:21Z</time>
      </trkpt>
      <trkpt lat="41.261467" lon="-3.476883">
        <ele>1596.0</ele>
        <time>2017-09-30T13:49:22Z</time>
      </trkpt>
      <trkpt lat="41.261550" lon="-3.476917">
        <ele>1594.0</ele>
        <time>2017-09-30T13:49:23Z</time>
      </trkpt>
      <trkpt lat="41.261617" lon="-3.476950">
        <ele>1592.0</ele>
        <time>2017-09-30T13:49:24Z</time>
      </trkpt>
      <trkpt lat="41.261683" lon="-3.476983">
        <ele>1589.0</ele>
        <time>2017-09-30T13:49:25Z</time>
      </trkpt>
      <trkpt lat="41.261767" lon="-3.477017">
        <ele>1587.0</ele>
        <time>2017-09-30T13:49:26Z</time>
      </trkpt>
      <trkpt lat="41.261833" lon="-3.477050">
        <ele>1584.0</ele>
        <time>2017-09-30T13:49:27Z</time>
      </trkpt>
      <trkpt lat="41.261917" lon="-3.477083">
        <ele>1581.0</ele>
        <time>2017-09-30T13:49:28Z</time>
      </trkpt>
      <trkpt lat="41.262000" lon="-3.477117">
        <ele>1578.0</ele>
        <time>2017-09-30T13:49:29Z</time>
      </trkpt>
      <trkpt lat="41.262083" lon="-3.477167">
        <ele>1575.0</ele>
        <time>2017-09-30T13:49:30Z</time>
      </trkpt>
      <trkpt lat="41.262167" lon="-3.477200">
        <ele>1573.0</ele>
        <time>2017-09-30T13:49:31Z</time>
      </trkpt>
      <trkpt lat="41.262233" lon="-3.477233">
        <ele>1570.0</ele>
        <time>2017-09-30T13:49:32Z</time>
      </trkpt>
      <trkpt lat="41.262317" lon="-3.477267">
        <ele>1568.0</ele>
        <time>2017-09-30T13:49:33Z</time>
      </trkpt>
      <trkpt lat="41.262383" lon="-3.477317">
        <ele>1564.0</ele>
        <time>2017-09-30T13:49:34Z</time>
      </trkpt>
      <trkpt lat="41.262467" lon="-3.477350">
        <ele>1561.0</ele>
        <time>2017-09-30T13:49:35Z</time>
      </trkpt>
      <trkpt lat="41.262533" lon="-3.477417">
        <ele>1557.0</ele>
        <time>2017-09-30T13:49:36Z</time>
      </trkpt>
      <trkpt lat="41.262617" lon="-3.477450">
        <ele>1555.0</ele>
        <time>2017-09-30T13:49:37Z</time>
      </trkpt>
      <trkpt lat="41.262683" lon="-3.477483">
        <ele>1553.0</ele>
        <time>2017-09-30T13:49:38Z</time>
      </trkpt>
      <trkpt lat="41.262767" lon="-3.477517">
        <ele>1550.0</ele>
        <time>2017-09-30T13:49:39Z</time>
      </trkpt>
      <trkpt lat="41.262833" lon="-3.477550">
        <ele>1547.0</ele>
        <time>2017-09-30T13:49:40Z</time>
      </trkpt>
      <trkpt lat="41.262900" lon="-3.477600">
        <ele>1543.0</ele>
        <time>2017-09-30T13:49:41Z</time>
      </trkpt>
      <trkpt lat="41.262983" lon="-3.477633">
        <ele>1539.0</ele>
        <time>2017-09-30T13:49:42Z</time>
      </trkpt>
      <trkpt lat="41.263050" lon="-3.477683">
        <ele>1535.0</ele>
        <time>2017-09-30T13:49:43Z</time>
      </trkpt>
      <trkpt lat="41.263133" lon="-3.477750">
        <ele>1532.0</ele>
        <time>2017-09-30T13:49:44Z</time>
      </trkpt>
      <trkpt lat="41.263217" lon="-3.477800">
        <ele>1529.0</ele>
        <time>2017-09-30T13:49:45Z</time>
      </trkpt>
      <trkpt lat="41.263283" lon="-3.477850">
        <ele>1526.0</ele>
        <time>2017-09-30T13:49:46Z</time>
      </trkpt>
      <trkpt lat="41.263367" lon="-3.477883">
        <ele>1524.0</ele>
        <time>2017-09-30T13:49:47Z</time>
      </trkpt>
      <trkpt lat="41.263433" lon="-3.477917">
        <ele>1521.0</ele>
        <time>2017-09-30T13:49:48Z</time>
      </trkpt>
      <trkpt lat="41.263500" lon="-3.477950">
        <ele>1517.0</ele>
        <time>2017-09-30T13:49:49Z</time>
      </trkpt>
      <trkpt lat="41.263583" lon="-3.477983">
        <ele>1512.0</ele>
        <time>2017-09-30T13:49:50Z</time>
      </trkpt>
      <trkpt lat="41.263667" lon="-3.478033">
        <ele>1508.0</ele>
        <time>2017-09-30T13:49:51Z</time>
      </trkpt>
      <trkpt lat="41.263733" lon="-3.478083">
        <ele>1503.0</ele>
        <time>2017-09-30T13:49:52Z</time>
      </trkpt>
      <trkpt lat="41.263800" lon="-3.478133">
        <ele>1500.0</ele>
        <time>2017-09-30T13:49:53Z</time>
      </trkpt>
      <trkpt lat="41.263850" lon="-3.478183">
        <ele>1497.0</ele>
        <time>2017-09-30T13:49:54Z</time>
      </trkpt>
      <trkpt lat="41.263917" lon="-3.478233">
        <ele>1496.0</ele>
        <time>2017-09-30T13:49:55Z</time>
      </trkpt>
      <trkpt lat="41.263983" lon="-3.478283">
        <ele>1495.0</ele>
        <time>2017-09-30T13:49:56Z</time>
      </trkpt>
      <trkpt lat="41.264067" lon="-3.478300">
        <ele>1497.0</ele>
        <time>2017-09-30T13:49:57Z</time>
      </trkpt>
      <trkpt lat="41.264133" lon="-3.478300">
        <ele>1499.0</ele>
        <time>2017-09-30T13:49:58Z</time>
      </trkpt>
      <trkpt lat="41.264200" lon="-3.478300">
        <ele>1501.0</ele>
        <time>2017-09-30T13:49:59Z</time>
      </trkpt>
      <trkpt lat="41.264267" lon="-3.478300">
        <ele>1502.0</ele>
        <time>2017-09-30T13:50:00Z</time>
      </trkpt>
      <trkpt lat="41.264350" lon="-3.478317">
        <ele>1503.0</ele>
        <time>2017-09-30T13:50:01Z</time>
      </trkpt>
      <trkpt lat="41.264417" lon="-3.478333">
        <ele>1503.0</ele>
        <time>2017-09-30T13:50:02Z</time>
      </trkpt>
      <trkpt lat="41.264483" lon="-3.478367">
        <ele>1503.0</ele>
        <time>2017-09-30T13:50:03Z</time>
      </trkpt>
      <trkpt lat="41.264533" lon="-3.478400">
        <ele>1502.0</ele>
        <time>2017-09-30T13:50:04Z</time>
      </trkpt>
      <trkpt lat="41.264567" lon="-3.478450">
        <ele>1499.0</ele>
        <time>2017-09-30T13:50:05Z</time>
      </trkpt>
      <trkpt lat="41.264617" lon="-3.478517">
        <ele>1497.0</ele>
        <time>2017-09-30T13:50:06Z</time>
      </trkpt>
      <trkpt lat="41.264667" lon="-3.478567">
        <ele>1495.0</ele>
        <time>2017-09-30T13:50:07Z</time>
      </trkpt>
      <trkpt lat="41.264717" lon="-3.478617">
        <ele>1493.0</ele>
        <time>2017-09-30T13:50:08Z</time>
      </trkpt>
      <trkpt lat="41.264767" lon="-3.478650">
        <ele>1491.0</ele>
        <time>2017-09-30T13:50:09Z</time>
      </trkpt>
      <trkpt lat="41.264817" lon="-3.478667">
        <ele>1487.0</ele>
        <time>2017-09-30T13:50:10Z</time>
      </trkpt>
      <trkpt lat="41.264867" lon="-3.478717">
        <ele>1483.0</ele>
        <time>2017-09-30T13:50:11Z</time>
      </trkpt>
      <trkpt lat="41.264950" lon="-3.478783">
        <ele>1478.0</ele>
        <time>2017-09-30T13:50:12Z</time>
      </trkpt>
      <trkpt lat="41.265033" lon="-3.478833">
        <ele>1475.0</ele>
        <time>2017-09-30T13:50:13Z</time>
      </trkpt>
      <trkpt lat="41.265100" lon="-3.478883">
        <ele>1473.0</ele>
        <time>2017-09-30T13:50:14Z</time>
      </trkpt>
      <trkpt lat="41.265167" lon="-3.478933">
        <ele>1471.0</ele>
        <time>2017-09-30T13:50:15Z</time>
      </trkpt>
      <trkpt lat="41.265233" lon="-3.478983">
        <ele>1470.0</ele>
        <time>2017-09-30T13:50:16Z</time>
      </trkpt>
      <trkpt lat="41.265300" lon="-3.479033">
        <ele>1467.0</ele>
        <time>2017-09-30T13:50:17Z</time>
      </trkpt>
      <trkpt lat="41.265350" lon="-3.479083">
        <ele>1464.0</ele>
        <time>2017-09-30T13:50:18Z</time>
      </trkpt>
      <trkpt lat="41.265400" lon="-3.479150">
        <ele>1461.0</ele>
        <time>2017-09-30T13:50:19Z</time>
      </trkpt>
      <trkpt lat="41.265467" lon="-3.479200">
        <ele>1458.0</ele>
        <time>2017-09-30T13:50:20Z</time>
      </trkpt>
      <trkpt lat="41.265550" lon="-3.479267">
        <ele>1456.0</ele>
        <time>2017-09-30T13:50:21Z</time>
      </trkpt>
      <trkpt lat="41.265617" lon="-3.479333">
        <ele>1454.0</ele>
        <time>2017-09-30T13:50:22Z</time>
      </trkpt>
      <trkpt lat="41.265683" lon="-3.479400">
        <ele>1454.0</ele>
        <time>2017-09-30T13:50:23Z</time>
      </trkpt>
      <trkpt lat="41.265733" lon="-3.479450">
        <ele>1454.0</ele>
        <time>2017-09-30T13:50:24Z</time>
      </trkpt>
      <trkpt lat="41.265783" lon="-3.479500">
        <ele>1453.0</ele>
        <time>2017-09-30T13:50:25Z</time>
      </trkpt>
      <trkpt lat="41.265850" lon="-3.479567">
        <ele>1450.0</ele>
        <time>2017-09-30T13:50:26Z</time>
      </trkpt>
      <trkpt lat="41.265917" lon="-3.479617">
        <ele>1448.0</ele>
        <time>2017-09-30T13:50:27Z</time>
      </trkpt>
      <trkpt lat="41.265983" lon="-3.479683">
        <ele>1445.0</ele>
        <time>2017-09-30T13:50:28Z</time>
      </trkpt>
      <trkpt lat="41.266067" lon="-3.479750">
        <ele>1441.0</ele>
        <time>2017-09-30T13:50:29Z</time>
      </trkpt>
      <trkpt lat="41.266150" lon="-3.479817">
        <ele>1438.0</ele>
        <time>2017-09-30T13:50:30Z</time>
      </trkpt>
      <trkpt lat="41.266233" lon="-3.479867">
        <ele>1436.0</ele>
        <time>2017-09-30T13:50:31Z</time>
      </trkpt>
      <trkpt lat="41.266333" lon="-3.479933">
        <ele>1434.0</ele>
        <time>2017-09-30T13:50:32Z</time>
      </trkpt>
      <trkpt lat="41.266417" lon="-3.479983">
        <ele>1433.0</ele>
        <time>2017-09-30T13:50:33Z</time>
      </trkpt>
      <trkpt lat="41.266500" lon="-3.480017">
        <ele>1432.0</ele>
        <time>2017-09-30T13:50:34Z</time>
      </trkpt>
      <trkpt lat="41.266567" lon="-3.480050">
        <ele>1430.0</ele>
        <time>2017-09-30T13:50:35Z</time>
      </trkpt>
      <trkpt lat="41.266650" lon="-3.480100">
        <ele>1428.0</ele>
        <time>2017-09-30T13:50:36Z</time>
      </trkpt>
      <trkpt lat="41.266733" lon="-3.480133">
        <ele>1425.0</ele>
        <time>2017-09-30T13:50:37Z</time>
      </trkpt>
      <trkpt lat="41.266817" lon="-3.480183">
        <ele>1423.0</ele>
        <time>2017-09-30T13:50:38Z</time>
      </trkpt>
      <trkpt lat="41.266900" lon="-3.480217">
        <ele>1422.0</ele>
        <time>2017-09-30T13:50:39Z</time>
      </trkpt>
      <trkpt lat="41.266983" lon="-3.480250">
        <ele>1421.0</ele>
        <time>2017-09-30T13:50:40Z</time>
      </trkpt>
      <trkpt lat="41.267050" lon="-3.480283">
        <ele>1419.0</ele>
        <time>2017-09-30T13:50:41Z</time>
      </trkpt>
      <trkpt lat="41.267117" lon="-3.480317">
        <ele>1418.0</ele>
        <time>2017-09-30T13:50:42Z</time>
      </trkpt>
      <trkpt lat="41.267200" lon="-3.480350">
        <ele>1416.0</ele>
        <time>2017-09-30T13:50:43Z</time>
      </trkpt>
      <trkpt lat="41.267283" lon="-3.480367">
        <ele>1414.0</ele>
        <time>2017-09-30T13:50:44Z</time>
      </trkpt>
      <trkpt lat="41.267383" lon="-3.480367">
        <ele>1412.0</ele>
        <time>2017-09-30T13:50:45Z</time>
      </trkpt>
      <trkpt lat="41.267483" lon="-3.480350">
        <ele>1411.0</ele>
        <time>2017-09-30T13:50:46Z</time>
      </trkpt>
      <trkpt lat="41.267567" lon="-3.480350">
        <ele>1412.0</ele>
        <time>2017-09-30T13:50:47Z</time>
      </trkpt>
      <trkpt lat="41.267650" lon="-3.480333">
        <ele>1411.0</ele>
        <time>2017-09-30T13:50:48Z</time>
      </trkpt>
      <trkpt lat="41.267717" lon="-3.480317">
        <ele>1410.0</ele>
        <time>2017-09-30T13:50:49Z</time>
      </trkpt>
      <trkpt lat="41.267800" lon="-3.480283">
        <ele>1407.0</ele>
        <time>2017-09-30T13:50:50Z</time>
      </trkpt>
      <trkpt lat="41.267900" lon="-3.480250">
        <ele>1404.0</ele>
        <time>2017-09-30T13:50:51Z</time>
      </trkpt>
      <trkpt lat="41.268017" lon="-3.480200">
        <ele>1400.0</ele>
        <time>2017-09-30T13:50:52Z</time>
      </trkpt>
      <trkpt lat="41.268133" lon="-3.480133">
        <ele>1398.0</ele>
        <time>2017-09-30T13:50:53Z</time>
      </trkpt>
      <trkpt lat="41.268233" lon="-3.480083">
        <ele>1396.0</ele>
        <time>2017-09-30T13:50:54Z</time>
      </trkpt>
      <trkpt lat="41.268333" lon="-3.480033">
        <ele>1395.0</ele>
        <time>2017-09-30T13:50:55Z</time>
      </trkpt>
      <trkpt lat="41.268433" lon="-3.480017">
        <ele>1393.0</ele>
        <time>2017-09-30T13:50:56Z</time>
      </trkpt>
      <trkpt lat="41.268533" lon="-3.480000">
        <ele>1391.0</ele>
        <time>2017-09-30T13:50:57Z</time>
      </trkpt>
      <trkpt lat="41.268633" lon="-3.479983">
        <ele>1387.0</ele>
        <time>2017-09-30T13:50:58Z</time>
      </trkpt>
      <trkpt lat="41.268733" lon="-3.479983">
        <ele>1384.0</ele>
        <time>2017-09-30T13:50:59Z</time>
      </trkpt>
      <trkpt lat="41.268833" lon="-3.480000">
        <ele>1382.0</ele>
        <time>2017-09-30T13:51:00Z</time>
      </trkpt>
      <trkpt lat="41.268917" lon="-3.480033">
        <ele>1381.0</ele>
        <time>2017-09-30T13:51:01Z</time>
      </trkpt>
      <trkpt lat="41.268983" lon="-3.480067">
        <ele>1380.0</ele>
        <time>2017-09-30T13:51:02Z</time>
      </trkpt>
      <trkpt lat="41.269050" lon="-3.480100">
        <ele>1379.0</ele>
        <time>2017-09-30T13:51:03Z</time>
      </trkpt>
      <trkpt lat="41.269100" lon="-3.480133">
        <ele>1378.0</ele>
        <time>2017-09-30T13:51:04Z</time>
      </trkpt>
      <trkpt lat="41.269150" lon="-3.480167">
        <ele>1375.0</ele>
        <time>2017-09-30T13:51:05Z</time>
      </trkpt>
      <trkpt lat="41.269217" lon="-3.480217">
        <ele>1372.0</ele>
        <time>2017-09-30T13:51:06Z</time>
      </trkpt>
      <trkpt lat="41.269300" lon="-3.480233">
        <ele>1371.0</ele>
        <time>2017-09-30T13:51:07Z</time>
      </trkpt>
      <trkpt lat="41.269367" lon="-3.480250">
        <ele>1369.0</ele>
        <time>2017-09-30T13:51:08Z</time>
      </trkpt>
      <trkpt lat="41.269433" lon="-3.480250">
        <ele>1368.0</ele>
        <time>2017-09-30T13:51:09Z</time>
      </trkpt>
      <trkpt lat="41.269483" lon="-3.480267">
        <ele>1365.0</ele>
        <time>2017-09-30T13:51:10Z</time>
      </trkpt>
      <trkpt lat="41.269533" lon="-3.480300">
        <ele>1362.0</ele>
        <time>2017-09-30T13:51:11Z</time>
      </trkpt>
      <trkpt lat="41.269583" lon="-3.480350">
        <ele>1358.0</ele>
        <time>2017-09-30T13:51:12Z</time>
      </trkpt>
      <trkpt lat="41.269633" lon="-3.480417">
        <ele>1355.0</ele>
        <time>2017-09-30T13:51:13Z</time>
      </trkpt>
      <trkpt lat="41.269683" lon="-3.480467">
        <ele>1354.0</ele>
        <time>2017-09-30T13:51:14Z</time>
      </trkpt>
      <trkpt lat="41.269733" lon="-3.480517">
        <ele>1353.0</ele>
        <time>2017-09-30T13:51:15Z</time>
      </trkpt>
      <trkpt lat="41.269800" lon="-3.480567">
        <ele>1352.0</ele>
        <time>2017-09-30T13:51:16Z</time>
      </trkpt>
      <trkpt lat="41.269867" lon="-3.480583">
        <ele>1350.0</ele>
        <time>2017-09-30T13:51:17Z</time>
      </trkpt>
      <trkpt lat="41.269967" lon="-3.480600">
        <ele>1348.0</ele>
        <time>2017-09-30T13:51:18Z</time>
      </trkpt>
      <trkpt lat="41.270033" lon="-3.480617">
        <ele>1347.0</ele>
        <time>2017-09-30T13:51:19Z</time>
      </trkpt>
      <trkpt lat="41.270117" lon="-3.480650">
        <ele>1346.0</ele>
        <time>2017-09-30T13:51:20Z</time>
      </trkpt>
      <trkpt lat="41.270200" lon="-3.480667">
        <ele>1345.0</ele>
        <time>2017-09-30T13:51:21Z</time>
      </trkpt>
      <trkpt lat="41.270283" lon="-3.480683">
        <ele>1344.0</ele>
        <time>2017-09-30T13:51:22Z</time>
      </trkpt>
      <trkpt lat="41.270367" lon="-3.480717">
        <ele>1344.0</ele>
        <time>2017-09-30T13:51:23Z</time>
      </trkpt>
      <trkpt lat="41.270450" lon="-3.480750">
        <ele>1344.0</ele>
        <time>2017-09-30T13:51:24Z</time>
      </trkpt>
      <trkpt lat="41.270550" lon="-3.480783">
        <ele>1345.0</ele>
        <time>2017-09-30T13:51:25Z</time>
      </trkpt>
      <trkpt lat="41.270633" lon="-3.480800">
        <ele>1347.0</ele>
        <time>2017-09-30T13:51:26Z</time>
      </trkpt>
      <trkpt lat="41.270717" lon="-3.480800">
        <ele>1348.0</ele>
        <time>2017-09-30T13:51:27Z</time>
      </trkpt>
      <trkpt lat="41.270783" lon="-3.480800">
        <ele>1348.0</ele>
        <time>2017-09-30T13:51:28Z</time>
      </trkpt>
      <trkpt lat="41.270850" lon="-3.480800">
        <ele>1346.0</ele>
        <time>2017-09-30T13:51:29Z</time>
      </trkpt>
      <trkpt lat="41.270917" lon="-3.480833">
        <ele>1344.0</ele>
        <time>2017-09-30T13:51:30Z</time>
      </trkpt>
      <trkpt lat="41.270967" lon="-3.480867">
        <ele>1342.0</ele>
        <time>2017-09-30T13:51:31Z</time>
      </trkpt>
      <trkpt lat="41.271017" lon="-3.480917">
        <ele>1341.0</ele>
        <time>2017-09-30T13:51:32Z</time>
      </trkpt>
      <trkpt lat="41.271050" lon="-3.480950">
        <ele>1340.0</ele>
        <time>2017-09-30T13:51:33Z</time>
      </trkpt>
      <trkpt lat="41.271100" lon="-3.480967">
        <ele>1338.0</ele>
        <time>2017-09-30T13:51:34Z</time>
      </trkpt>
      <trkpt lat="41.271167" lon="-3.480983">
        <ele>1335.0</ele>
        <time>2017-09-30T13:51:35Z</time>
      </trkpt>
      <trkpt lat="41.271217" lon="-3.481000">
        <ele>1333.0</ele>
        <time>2017-09-30T13:51:36Z</time>
      </trkpt>
      <trkpt lat="41.271300" lon="-3.481000">
        <ele>1330.0</ele>
        <time>2017-09-30T13:51:37Z</time>
      </trkpt>
      <trkpt lat="41.271367" lon="-3.480983">
        <ele>1327.0</ele>
        <time>2017-09-30T13:51:38Z</time>
      </trkpt>
      <trkpt lat="41.271450" lon="-3.480967">
        <ele>1324.0</ele>
        <time>2017-09-30T13:51:39Z</time>
      </trkpt>
      <trkpt lat="41.271533" lon="-3.480950">
        <ele>1322.0</ele>
        <time>2017-09-30T13:51:40Z</time>
      </trkpt>
      <trkpt lat="41.271617" lon="-3.480933">
        <ele>1320.0</ele>
        <time>2017-09-30T13:51:41Z</time>
      </trkpt>
      <trkpt lat="41.271683" lon="-3.480933">
        <ele>1319.0</ele>
        <time>2017-09-30T13:51:42Z</time>
      </trkpt>
      <trkpt lat="41.271767" lon="-3.480950">
        <ele>1319.0</ele>
        <time>2017-09-30T13:51:43Z</time>
      </trkpt>
      <trkpt lat="41.271817" lon="-3.480950">
        <ele>1319.0</ele>
        <time>2017-09-30T13:51:44Z</time>
      </trkpt>
      <trkpt lat="41.271883" lon="-3.480950">
        <ele>1319.0</ele>
        <time>2017-09-30T13:51:45Z</time>
      </trkpt>
      <trkpt lat="41.271933" lon="-3.480950">
        <ele>1318.0</ele>
        <time>2017-09-30T13:51:46Z</time>
      </trkpt>
      <trkpt lat="41.272000" lon="-3.480950">
        <ele>1316.0</ele>
        <time>2017-09-30T13:51:47Z</time>
      </trkpt>
      <trkpt lat="41.272067" lon="-3.480967">
        <ele>1314.0</ele>
        <time>2017-09-30T13:51:48Z</time>
      </trkpt>
      <trkpt lat="41.272133" lon="-3.481000">
        <ele>1313.0</ele>
        <time>2017-09-30T13:51:49Z</time>
      </trkpt>
      <trkpt lat="41.272200" lon="-3.481033">
        <ele>1312.0</ele>
        <time>2017-09-30T13:51:50Z</time>
      </trkpt>
      <trkpt lat="41.272267" lon="-3.481050">
        <ele>1312.0</ele>
        <time>2017-09-30T13:51:51Z</time>
      </trkpt>
      <trkpt lat="41.272333" lon="-3.481050">
        <ele>1311.0</ele>
        <time>2017-09-30T13:51:52Z</time>
      </trkpt>
      <trkpt lat="41.272400" lon="-3.481050">
        <ele>1310.0</ele>
        <time>2017-09-30T13:51:53Z</time>
      </trkpt>
      <trkpt lat="41.272483" lon="-3.481050">
        <ele>1308.0</ele>
        <time>2017-09-30T13:51:54Z</time>
      </trkpt>
      <trkpt lat="41.272550" lon="-3.481067">
        <ele>1307.0</ele>
        <time>2017-09-30T13:51:55Z</time>
      </trkpt>
      <trkpt lat="41.272617" lon="-3.481067">
        <ele>1305.0</ele>
        <time>2017-09-30T13:51:56Z</time>
      </trkpt>
      <trkpt lat="41.272700" lon="-3.481083">
        <ele>1302.0</ele>
        <time>2017-09-30T13:51:57Z</time>
      </trkpt>
      <trkpt lat="41.272783" lon="-3.481083">
        <ele>1300.0</ele>
        <time>2017-09-30T13:51:58Z</time>
      </trkpt>
      <trkpt lat="41.272867" lon="-3.481083">
        <ele>1298.0</ele>
        <time>2017-09-30T13:51:59Z</time>
      </trkpt>
      <trkpt lat="41.272950" lon="-3.481100">
        <ele>1296.0</ele>
        <time>2017-09-30T13:52:00Z</time>
      </trkpt>
      <trkpt lat="41.273017" lon="-3.481117">
        <ele>1293.0</ele>
        <time>2017-09-30T13:52:01Z</time>
      </trkpt>
      <trkpt lat="41.273083" lon="-3.481133">
        <ele>1290.0</ele>
        <time>2017-09-30T13:52:02Z</time>
      </trkpt>
      <trkpt lat="41.273150" lon="-3.481167">
        <ele>1288.0</ele>
        <time>2017-09-30T13:52:03Z</time>
      </trkpt>
      <trkpt lat="41.273217" lon="-3.481183">
        <ele>1285.0</ele>
        <time>2017-09-30T13:52:04Z</time>
      </trkpt>
      <trkpt lat="41.273283" lon="-3.481217">
        <ele>1282.0</ele>
        <time>2017-09-30T13:52:05Z</time>
      </trkpt>
      <trkpt lat="41.273350" lon="-3.481250">
        <ele>1279.0</ele>
        <time>2017-09-30T13:52:06Z</time>
      </trkpt>
      <trkpt lat="41.273400" lon="-3.481283">
        <ele>1278.0</ele>
        <time>2017-09-30T13:52:07Z</time>
      </trkpt>
      <trkpt lat="41.273450" lon="-3.481317">
        <ele>1277.0</ele>
        <time>2017-09-30T13:52:08Z</time>
      </trkpt>
      <trkpt lat="41.273483" lon="-3.481350">
        <ele>1275.0</ele>
        <time>2017-09-30T13:52:09Z</time>
      </trkpt>
      <trkpt lat="41.273500" lon="-3.481383">
        <ele>1274.0</ele>
        <time>2017-09-30T13:52:10Z</time>
      </trkpt>
      <trkpt lat="41.273467" lon="-3.481400">
        <ele>1271.0</ele>
        <time>2017-09-30T13:52:11Z</time>
      </trkpt>
      <trkpt lat="41.273400" lon="-3.481367">
        <ele>1267.0</ele>
        <time>2017-09-30T13:52:12Z</time>
      </trkpt>
      <trkpt lat="41.273317" lon="-3.481300">
        <ele>1265.0</ele>
        <time>2017-09-30T13:52:13Z</time>
      </trkpt>
      <trkpt lat="41.273233" lon="-3.481217">
        <ele>1265.0</ele>
        <time>2017-09-30T13:52:14Z</time>
      </trkpt>
      <trkpt lat="41.273183" lon="-3.481150">
        <ele>1266.0</ele>
        <time>2017-09-30T13:52:15Z</time>
      </trkpt>
      <trkpt lat="41.273133" lon="-3.481100">
        <ele>1265.0</ele>
        <time>2017-09-30T13:52:16Z</time>
      </trkpt>
      <trkpt lat="41.273100" lon="-3.481067">
        <ele>1263.0</ele>
        <time>2017-09-30T13:52:17Z</time>
      </trkpt>
      <trkpt lat="41.273050" lon="-3.481033">
        <ele>1261.0</ele>
        <time>2017-09-30T13:52:18Z</time>
      </trkpt>
      <trkpt lat="41.273000" lon="-3.481050">
        <ele>1258.0</ele>
        <time>2017-09-30T13:52:19Z</time>
      </trkpt>
      <trkpt lat="41.272967" lon="-3.481083">
        <ele>1256.0</ele>
        <time>2017-09-30T13:52:20Z</time>
      </trkpt>
      <trkpt lat="41.272967" lon="-3.481117">
        <ele>1255.0</ele>
        <time>2017-09-30T13:52:21Z</time>
      </trkpt>
      <trkpt lat="41.273000" lon="-3.481150">
        <ele>1254.0</ele>
        <time>2017-09-30T13:52:22Z</time>
      </trkpt>
      <trkpt lat="41.273000" lon="-3.481183">
        <ele>1253.0</ele>
        <time>2017-09-30T13:52:23Z</time>
      </trkpt>
      <trkpt lat="41.272983" lon="-3.481217">
        <ele>1251.0</ele>
        <time>2017-09-30T13:52:24Z</time>
      </trkpt>
      <trkpt lat="41.272950" lon="-3.481250">
        <ele>1249.0</ele>
        <time>2017-09-30T13:52:25Z</time>
      </trkpt>
      <trkpt lat="41.272900" lon="-3.481283">
        <ele>1249.0</ele>
        <time>2017-09-30T13:52:26Z</time>
      </trkpt>
      <trkpt lat="41.272850" lon="-3.481300">
        <ele>1251.0</ele>
        <time>2017-09-30T13:52:27Z</time>
      </trkpt>
      <trkpt lat="41.272817" lon="-3.481300">
        <ele>1251.0</ele>
        <time>2017-09-30T13:52:28Z</time>
      </trkpt>
      <trkpt lat="41.272783" lon="-3.481283">
        <ele>1250.0</ele>
        <time>2017-09-30T13:52:29Z</time>
      </trkpt>
      <trkpt lat="41.272750" lon="-3.481283">
        <ele>1248.0</ele>
        <time>2017-09-30T13:52:30Z</time>
      </trkpt>
      <trkpt lat="41.272700" lon="-3.481317">
        <ele>1245.0</ele>
        <time>2017-09-30T13:52:31Z</time>
      </trkpt>
      <trkpt lat="41.272667" lon="-3.481367">
        <ele>1243.0</ele>
        <time>2017-09-30T13:52:32Z</time>
      </trkpt>
      <trkpt lat="41.272617" lon="-3.481400">
        <ele>1242.0</ele>
        <time>2017-09-30T13:52:33Z</time>
      </trkpt>
      <trkpt lat="41.272567" lon="-3.481433">
        <ele>1242.0</ele>
        <time>2017-09-30T13:52:34Z</time>
      </trkpt>
      <trkpt lat="41.272517" lon="-3.481467">
        <ele>1240.0</ele>
        <time>2017-09-30T13:52:35Z</time>
      </trkpt>
      <trkpt lat="41.272467" lon="-3.481500">
        <ele>1239.0</ele>
        <time>2017-09-30T13:52:36Z</time>
      </trkpt>
      <trkpt lat="41.272433" lon="-3.481533">
        <ele>1237.0</ele>
        <time>2017-09-30T13:52:37Z</time>
      </trkpt>
      <trkpt lat="41.272383" lon="-3.481567">
        <ele>1236.0</ele>
        <time>2017-09-30T13:52:38Z</time>
      </trkpt>
      <trkpt lat="41.272367" lon="-3.481600">
        <ele>1235.0</ele>
        <time>2017-09-30T13:52:39Z</time>
      </trkpt>
      <trkpt lat="41.272333" lon="-3.481633">
        <ele>1235.0</ele>
        <time>2017-09-30T13:52:40Z</time>
      </trkpt>
      <trkpt lat="41.272300" lon="-3.481633">
        <ele>1233.0</ele>
        <time>2017-09-30T13:52:41Z</time>
      </trkpt>
      <trkpt lat="41.272283" lon="-3.481650">
        <ele>1231.0</ele>
        <time>2017-09-30T13:52:42Z</time>
      </trkpt>
      <trkpt lat="41.272250" lon="-3.481650">
        <ele>1227.0</ele>
        <time>2017-09-30T13:52:43Z</time>
      </trkpt>
      <trkpt lat="41.272217" lon="-3.481683">
        <ele>1224.0</ele>
        <time>2017-09-30T13:52:44Z</time>
      </trkpt>
      <trkpt lat="41.272167" lon="-3.481717">
        <ele>1220.0</ele>
        <time>2017-09-30T13:52:45Z</time>
      </trkpt>
      <trkpt lat="41.272133" lon="-3.481750">
        <ele>1219.0</ele>
        <time>2017-09-30T13:52:46Z</time>
      </trkpt>
      <trkpt lat="41.272100" lon="-3.481767">
        <ele>1218.0</ele>
        <time>2017-09-30T13:52:47Z</time>
      </trkpt>
      <trkpt lat="41.272067" lon="-3.481783">
        <ele>1217.0</ele>
        <time>2017-09-30T13:52:48Z</time>
      </trkpt>
      <trkpt lat="41.272067" lon="-3.481767">
        <ele>1217.0</ele>
        <time>2017-09-30T13:52:49Z</time>
      </trkpt>
      <trkpt lat="41.272083" lon="-3.481767">
        <ele>1216.0</ele>
        <time>2017-09-30T13:52:50Z</time>
      </trkpt>
      <trkpt lat="41.272083" lon="-3.481767">
        <ele>1216.0</ele>
        <time>2017-09-30T13:52:51Z</time>
      </trkpt>
      <trkpt lat="41.272083" lon="-3.481750">
        <ele>1216.0</ele>
        <time>2017-09-30T13:52:52Z</time>
      </trkpt>
      <trkpt lat="41.272083" lon="-3.481750">
        <ele>1216.0</ele>
        <time>2017-09-30T13:52:53Z</time>
      </trkpt>
      <trkpt lat="41.272083" lon="-3.481750">
        <ele>1216.0</ele>
        <time>2017-09-30T13:52:54Z</time>
      </trkpt>
      <trkpt lat="41.272083" lon="-3.481750">
        <ele>1216.0</ele>
        <time>2017-09-30T13:52:55Z</time>
      </trkpt>
      <trkpt lat="41.272083" lon="-3.481750">
        <ele>1216.0</ele>
        <time>2017-09-30T13:52:56Z</time>
      </trkpt>
      <trkpt lat="41.272083" lon="-3.481750">
        <ele>1216.0</ele>
        <time>2017-09-30T13:52:57Z</time>
      </trkpt>
      <trkpt lat="41.272083" lon="-3.481750">
        <ele>1216.0</ele>
        <time>2017-09-30T13:52:58Z</time>
      </trkpt>
      <trkpt lat="41.272083" lon="-3.481750">
        <ele>1216.0</ele>
        <time>2017-09-30T13:52:59Z</time>
      </trkpt>
      <trkpt lat="41.272083" lon="-3.481750">
        <ele>1216.0</ele>
        <time>2017-09-30T13:53:00Z</time>
      </trkpt>
      <trkpt lat="41.272083" lon="-3.481750">
        <ele>1216.0</ele>
        <time>2017-09-30T13:53:01Z</time>
      </trkpt>
      <trkpt lat="41.272083" lon="-3.481750">
        <ele>1216.0</ele>
        <time>2017-09-30T13:53:02Z</time>
      </trkpt>
      <trkpt lat="41.272083" lon="-3.481750">
        <ele>1216.0</ele>
        <time>2017-09-30T13:53:03Z</time>
      </trkpt>
      <trkpt lat="41.272083" lon="-3.481750">
        <ele>1216.0</ele>
        <time>2017-09-30T13:53:04Z</time>
      </trkpt>
      <trkpt lat="41.272083" lon="-3.481750">
        <ele>1216.0</ele>
        <time>2017-09-30T13:53:05Z</time>
      </trkpt>
      <trkpt lat="41.272083" lon="-3.481750">
        <ele>1216.0</ele>
        <time>2017-09-30T13:53:06Z</time>
      </trkpt>
      <trkpt lat="41.272083" lon="-3.481750">
        <ele>1216.0</ele>
        <time>2017-09-30T13:53:07Z</time>
      </trkpt>
      <trkpt lat="41.272083" lon="-3.481750">
        <ele>1216.0</ele>
        <time>2017-09-30T13:53:08Z</time>
      </trkpt>
      <trkpt lat="41.272083" lon="-3.481750">
        <ele>1216.0</ele>
        <time>2017-09-30T13:53:09Z</time>
      </trkpt>
      <trkpt lat="41.272083" lon="-3.481750">
        <ele>1216.0</ele>
        <time>2017-09-30T13:53:10Z</time>
      </trkpt>
      <trkpt lat="41.272083" lon="-3.481750">
        <ele>1216.0</ele>
        <time>2017-09-30T13:53:11Z</time>
      </trkpt>
      <trkpt lat="41.272083" lon="-3.481750">
        <ele>1216.0</ele>
        <time>2017-09-30T13:53:12Z</time>
      </trkpt>
      <trkpt lat="41.272083" lon="-3.481750">
        <ele>1216.0</ele>
        <time>2017-09-30T13:53:13Z</time>
      </trkpt>
      <trkpt lat="41.272083" lon="-3.481750">
        <ele>1216.0</ele>
        <time>2017-09-30T13:53:14Z</time>
      </trkpt>
      <trkpt lat="41.272083" lon="-3.481750">
        <ele>1216.0</ele>
        <time>2017-09-30T13:53:15Z</time>
      </trkpt>
      <trkpt lat="41.272083" lon="-3.481750">
        <ele>1216.0</ele>
        <time>2017-09-30T13:53:16Z</time>
      </trkpt>
      <trkpt lat="41.272083" lon="-3.481750">
        <ele>1216.0</ele>
        <time>2017-09-30T13:53:17Z</time>
      </trkpt>
      <trkpt lat="41.272083" lon="-3.481750">
        <ele>1216.0</ele>
        <time>2017-09-30T13:53:18Z</time>
      </trkpt>
      <trkpt lat="41.272083" lon="-3.481750">
        <ele>1216.0</ele>
        <time>2017-09-30T13:53:19Z</time>
      </trkpt>
      <trkpt lat="41.272083" lon="-3.481750">
        <ele>1216.0</ele>
        <time>2017-09-30T13:53:20Z</time>
      </trkpt>
      <trkpt lat="41.272083" lon="-3.481750">
        <ele>1216.0</ele>
        <time>2017-09-30T13:53:21Z</time>
      </trkpt>
      <trkpt lat="41.272083" lon="-3.481750">
        <ele>1216.0</ele>
        <time>2017-09-30T13:53:22Z</time>
      </trkpt>
      <trkpt lat="41.272083" lon="-3.481750">
        <ele>1216.0</ele>
        <time>2017-09-30T13:53:23Z</time>
      </trkpt>
      <trkpt lat="41.272083" lon="-3.481750">
        <ele>1216.0</ele>
        <time>2017-09-30T13:53:24Z</time>
      </trkpt>
      <trkpt lat="41.272083" lon="-3.481750">
        <ele>1216.0</ele>
        <time>2017-09-30T13:53:25Z</time>
      </trkpt>
      <trkpt lat="41.272083" lon="-3.481750">
        <ele>1216.0</ele>
        <time>2017-09-30T13:53:26Z</time>
      </trkpt>
      <trkpt lat="41.272083" lon="-3.481750">
        <ele>1216.0</ele>
        <time>2017-09-30T13:53:27Z</time>
      </trkpt>
      <trkpt lat="41.272083" lon="-3.481750">
        <ele>1216.0</ele>
        <time>2017-09-30T13:53:28Z</time>
      </trkpt>
      <trkpt lat="41.272083" lon="-3.481750">
        <ele>1216.0</ele>
        <time>2017-09-30T13:53:29Z</time>
      </trkpt>
      <trkpt lat="41.272083" lon="-3.481750">
        <ele>1217.0</ele>
        <time>2017-09-30T13:53:30Z</time>
      </trkpt>
      <trkpt lat="41.272083" lon="-3.481750">
        <ele>1217.0</ele>
        <time>2017-09-30T13:53:31Z</time>
      </trkpt>
      <trkpt lat="41.272083" lon="-3.481750">
        <ele>1217.0</ele>
        <time>2017-09-30T13:53:32Z</time>
      </trkpt>
      <trkpt lat="41.272083" lon="-3.481733">
        <ele>1217.0</ele>
        <time>2017-09-30T13:53:33Z</time>
      </trkpt>
      <trkpt lat="41.272083" lon="-3.481733">
        <ele>1217.0</ele>
        <time>2017-09-30T13:53:34Z</time>
      </trkpt>
      <trkpt lat="41.272083" lon="-3.481733">
        <ele>1217.0</ele>
        <time>2017-09-30T13:53:35Z</time>
      </trkpt>
      <trkpt lat="41.272083" lon="-3.481733">
        <ele>1217.0</ele>
        <time>2017-09-30T13:53:36Z</time>
      </trkpt>
      <trkpt lat="41.272083" lon="-3.481733">
        <ele>1217.0</ele>
        <time>2017-09-30T13:53:37Z</time>
      </trkpt>
      <trkpt lat="41.272083" lon="-3.481733">
        <ele>1217.0</ele>
        <time>2017-09-30T13:53:38Z</time>
      </trkpt>
      <trkpt lat="41.272083" lon="-3.481733">
        <ele>1217.0</ele>
        <time>2017-09-30T13:53:39Z</time>
      </trkpt>
      <trkpt lat="41.272083" lon="-3.481733">
        <ele>1217.0</ele>
        <time>2017-09-30T13:53:40Z</time>
      </trkpt>
      <trkpt lat="41.272083" lon="-3.481733">
        <ele>1217.0</ele>
        <time>2017-09-30T13:53:41Z</time>
      </trkpt>
      <trkpt lat="41.272083" lon="-3.481733">
        <ele>1217.0</ele>
        <time>2017-09-30T13:53:42Z</time>
      </trkpt>
      <trkpt lat="41.272083" lon="-3.481733">
        <ele>1217.0</ele>
        <time>2017-09-30T13:53:43Z</time>
      </trkpt>
      <trkpt lat="41.272083" lon="-3.481733">
        <ele>1217.0</ele>
        <time>2017-09-30T13:53:44Z</time>
      </trkpt>
      <trkpt lat="41.272083" lon="-3.481733">
        <ele>1217.0</ele>
        <time>2017-09-30T13:53:45Z</time>
      </trkpt>
      <trkpt lat="41.272083" lon="-3.481733">
        <ele>1217.0</ele>
        <time>2017-09-30T13:53:46Z</time>
      </trkpt>
      <trkpt lat="41.272083" lon="-3.481733">
        <ele>1217.0</ele>
        <time>2017-09-30T13:53:47Z</time>
      </trkpt>
      <trkpt lat="41.272083" lon="-3.481733">
        <ele>1217.0</ele>
        <time>2017-09-30T13:53:48Z</time>
      </trkpt>
      <trkpt lat="41.272083" lon="-3.481733">
        <ele>1217.0</ele>
        <time>2017-09-30T13:53:49Z</time>
      </trkpt>
      <trkpt lat="41.272083" lon="-3.481733">
        <ele>1217.0</ele>
        <time>2017-09-30T13:53:50Z</time>
      </trkpt>
      <trkpt lat="41.272083" lon="-3.481733">
        <ele>1217.0</ele>
        <time>2017-09-30T13:53:51Z</time>
      </trkpt>
      <trkpt lat="41.272083" lon="-3.481733">
        <ele>1217.0</ele>
        <time>2017-09-30T13:53:52Z</time>
      </trkpt>
      <trkpt lat="41.272083" lon="-3.481733">
        <ele>1217.0</ele>
        <time>2017-09-30T13:53:53Z</time>
      </trkpt>
      <trkpt lat="41.272083" lon="-3.481733">
        <ele>1217.0</ele>
        <time>2017-09-30T13:53:54Z</time>
      </trkpt>
      <trkpt lat="41.272083" lon="-3.481733">
        <ele>1216.0</ele>
        <time>2017-09-30T13:53:55Z</time>
      </trkpt>
      <trkpt lat="41.272083" lon="-3.481733">
        <ele>1216.0</ele>
        <time>2017-09-30T13:53:56Z</time>
      </trkpt>
      <trkpt lat="41.272083" lon="-3.481733">
        <ele>1216.0</ele>
        <time>2017-09-30T13:53:57Z</time>
      </trkpt>
      <trkpt lat="41.272100" lon="-3.481733">
        <ele>1216.0</ele>
        <time>2017-09-30T13:53:58Z</time>
      </trkpt>
      <trkpt lat="41.272100" lon="-3.481733">
        <ele>1216.0</ele>
        <time>2017-09-30T13:53:59Z</time>
      </trkpt>
      <trkpt lat="41.272100" lon="-3.481733">
        <ele>1216.0</ele>
        <time>2017-09-30T13:54:00Z</time>
      </trkpt>
      <trkpt lat="41.272100" lon="-3.481733">
        <ele>1216.0</ele>
        <time>2017-09-30T13:54:01Z</time>
      </trkpt>
      <trkpt lat="41.272100" lon="-3.481733">
        <ele>1216.0</ele>
        <time>2017-09-30T13:54:02Z</time>
      </trkpt>
      <trkpt lat="41.272100" lon="-3.481733">
        <ele>1216.0</ele>
        <time>2017-09-30T13:54:03Z</time>
      </trkpt>
      <trkpt lat="41.272100" lon="-3.481733">
        <ele>1216.0</ele>
        <time>2017-09-30T13:54:04Z</time>
      </trkpt>
      <trkpt lat="41.272100" lon="-3.481733">
        <ele>1216.0</ele>
        <time>2017-09-30T13:54:05Z</time>
      </trkpt>
      <trkpt lat="41.272083" lon="-3.481733">
        <ele>1216.0</ele>
        <time>2017-09-30T13:54:06Z</time>
      </trkpt>
      <trkpt lat="41.272083" lon="-3.481733">
        <ele>1216.0</ele>
        <time>2017-09-30T13:54:07Z</time>
      </trkpt>
      <trkpt lat="41.272083" lon="-3.481717">
        <ele>1216.0</ele>
        <time>2017-09-30T13:54:08Z</time>
      </trkpt>
      <trkpt lat="41.272083" lon="-3.481717">
        <ele>1216.0</ele>
        <time>2017-09-30T13:54:09Z</time>
      </trkpt>
      <trkpt lat="41.272083" lon="-3.481717">
        <ele>1216.0</ele>
        <time>2017-09-30T13:54:10Z</time>
      </trkpt>
      <trkpt lat="41.272083" lon="-3.481717">
        <ele>1216.0</ele>
        <time>2017-09-30T13:54:11Z</time>
      </trkpt>
      <trkpt lat="41.272083" lon="-3.481717">
        <ele>1216.0</ele>
        <time>2017-09-30T13:54:12Z</time>
      </trkpt>
      <trkpt lat="41.272083" lon="-3.481717">
        <ele>1216.0</ele>
        <time>2017-09-30T13:54:13Z</time>
      </trkpt>
      <trkpt lat="41.272083" lon="-3.481717">
        <ele>1216.0</ele>
        <time>2017-09-30T13:54:14Z</time>
      </trkpt>
      <trkpt lat="41.272083" lon="-3.481717">
        <ele>1216.0</ele>
        <time>2017-09-30T13:54:15Z</time>
      </trkpt>
      <trkpt lat="41.272083" lon="-3.481717">
        <ele>1215.0</ele>
        <time>2017-09-30T13:54:16Z</time>
      </trkpt>
      <trkpt lat="41.272083" lon="-3.481717">
        <ele>1215.0</ele>
        <time>2017-09-30T13:54:17Z</time>
      </trkpt>
      <trkpt lat="41.272083" lon="-3.481717">
        <ele>1215.0</ele>
        <time>2017-09-30T13:54:18Z</time>
      </trkpt>
      <trkpt lat="41.272083" lon="-3.481717">
        <ele>1215.0</ele>
        <time>2017-09-30T13:54:19Z</time>
      </trkpt>
      <trkpt lat="41.272083" lon="-3.481717">
        <ele>1215.0</ele>
        <time>2017-09-30T13:54:20Z</time>
      </trkpt>
      <trkpt lat="41.272083" lon="-3.481717">
        <ele>1215.0</ele>
        <time>2017-09-30T13:54:21Z</time>
      </trkpt>
      <trkpt lat="41.272083" lon="-3.481717">
        <ele>1214.0</ele>
        <time>2017-09-30T13:54:22Z</time>
      </trkpt>
      <trkpt lat="41.272083" lon="-3.481733">
        <ele>1214.0</ele>
        <time>2017-09-30T13:54:23Z</time>
      </trkpt>
      <trkpt lat="41.272083" lon="-3.481733">
        <ele>1214.0</ele>
        <time>2017-09-30T13:54:24Z</time>
      </trkpt>
      <trkpt lat="41.272083" lon="-3.481717">
        <ele>1214.0</ele>
        <time>2017-09-30T13:54:25Z</time>
      </trkpt>
      <trkpt lat="41.272083" lon="-3.481717">
        <ele>1214.0</ele>
        <time>2017-09-30T13:54:26Z</time>
      </trkpt>
      <trkpt lat="41.272083" lon="-3.481717">
        <ele>1214.0</ele>
        <time>2017-09-30T13:54:27Z</time>
      </trkpt>
    </trkseg>
  </trk>
</gpx>
